<?xml version="1.0" encoding="UTF-8" standalone="no" ?>
<gpx xmlns="http://www.topografix.com/GPX/1/1" xmlns:xsi="http://www.w3.org/2001/XMLSchema-instance" xsi:schemaLocation="http://www.topografix.com/GPX/1/1 http://www.topografix.com/GPX/1/1/gpx.xsd" version="1.1" creator="VisuGPX - https://www.visugpx.com">
  <metadata>
    <name>Les Cloches de Barles</name>
    <desc><![CDATA[Randonnée dans les Alpes-de-Haute-Provence (04)
Les Cloches de Barles au départ d'Ainac  ]]></desc>
  </metadata>
  <trk>
    <name><![CDATA[Cloches de Barles]]></name>
    <cmt><![CDATA[pluie]]></cmt>
    <trkseg>
      <trkpt lat="44.21574" lon="6.21401">
        <ele>1121</ele>
        <time>2018-06-08T07:12:06Z</time>
      </trkpt>
      <trkpt lat="44.21601" lon="6.21398">
        <ele>1122</ele>
        <time>2018-06-08T07:12:41Z</time>
      </trkpt>
      <trkpt lat="44.21603" lon="6.214">
        <ele>1122</ele>
        <time>2018-06-08T07:12:43Z</time>
      </trkpt>
      <trkpt lat="44.21605" lon="6.21401">
        <ele>1121</ele>
        <time>2018-06-08T07:12:45Z</time>
      </trkpt>
      <trkpt lat="44.21606" lon="6.21403">
        <ele>1120</ele>
        <time>2018-06-08T07:12:46Z</time>
      </trkpt>
      <trkpt lat="44.21607" lon="6.21404">
        <ele>1120</ele>
        <time>2018-06-08T07:12:47Z</time>
      </trkpt>
      <trkpt lat="44.21608" lon="6.21407">
        <ele>1118</ele>
        <time>2018-06-08T07:12:49Z</time>
      </trkpt>
      <trkpt lat="44.21609" lon="6.21408">
        <ele>1117</ele>
        <time>2018-06-08T07:12:50Z</time>
      </trkpt>
      <trkpt lat="44.2161" lon="6.21411">
        <ele>1115</ele>
        <time>2018-06-08T07:12:52Z</time>
      </trkpt>
      <trkpt lat="44.21612" lon="6.21413">
        <ele>1114</ele>
        <time>2018-06-08T07:12:54Z</time>
      </trkpt>
      <trkpt lat="44.21612" lon="6.21415">
        <ele>1113</ele>
        <time>2018-06-08T07:12:55Z</time>
      </trkpt>
      <trkpt lat="44.21613" lon="6.21416">
        <ele>1112</ele>
        <time>2018-06-08T07:12:56Z</time>
      </trkpt>
      <trkpt lat="44.21613" lon="6.21418">
        <ele>1111</ele>
        <time>2018-06-08T07:12:57Z</time>
      </trkpt>
      <trkpt lat="44.21614" lon="6.2142">
        <ele>1110</ele>
        <time>2018-06-08T07:12:58Z</time>
      </trkpt>
      <trkpt lat="44.21614" lon="6.21421">
        <ele>1110</ele>
        <time>2018-06-08T07:12:59Z</time>
      </trkpt>
      <trkpt lat="44.21615" lon="6.21423">
        <ele>1110</ele>
        <time>2018-06-08T07:13:00Z</time>
      </trkpt>
      <trkpt lat="44.21615" lon="6.21425">
        <ele>1110</ele>
        <time>2018-06-08T07:13:01Z</time>
      </trkpt>
      <trkpt lat="44.21615" lon="6.21426">
        <ele>1110</ele>
        <time>2018-06-08T07:13:02Z</time>
      </trkpt>
      <trkpt lat="44.21615" lon="6.21428">
        <ele>1110</ele>
        <time>2018-06-08T07:13:03Z</time>
      </trkpt>
      <trkpt lat="44.21614" lon="6.2143">
        <ele>1110</ele>
        <time>2018-06-08T07:13:04Z</time>
      </trkpt>
      <trkpt lat="44.21613" lon="6.21431">
        <ele>1110</ele>
        <time>2018-06-08T07:13:05Z</time>
      </trkpt>
      <trkpt lat="44.21613" lon="6.21433">
        <ele>1110</ele>
        <time>2018-06-08T07:13:06Z</time>
      </trkpt>
      <trkpt lat="44.21612" lon="6.21434">
        <ele>1110</ele>
        <time>2018-06-08T07:13:07Z</time>
      </trkpt>
      <trkpt lat="44.21611" lon="6.21437">
        <ele>1110</ele>
        <time>2018-06-08T07:13:08Z</time>
      </trkpt>
      <trkpt lat="44.21609" lon="6.21439">
        <ele>1110</ele>
        <time>2018-06-08T07:13:10Z</time>
      </trkpt>
      <trkpt lat="44.21609" lon="6.21441">
        <ele>1110</ele>
        <time>2018-06-08T07:13:11Z</time>
      </trkpt>
      <trkpt lat="44.21608" lon="6.21444">
        <ele>1110</ele>
        <time>2018-06-08T07:13:12Z</time>
      </trkpt>
      <trkpt lat="44.21607" lon="6.21445">
        <ele>1110</ele>
        <time>2018-06-08T07:13:13Z</time>
      </trkpt>
      <trkpt lat="44.21606" lon="6.21447">
        <ele>1110</ele>
        <time>2018-06-08T07:13:14Z</time>
      </trkpt>
      <trkpt lat="44.21605" lon="6.21448">
        <ele>1112</ele>
        <time>2018-06-08T07:13:16Z</time>
      </trkpt>
      <trkpt lat="44.21603" lon="6.2145">
        <ele>1114</ele>
        <time>2018-06-08T07:13:18Z</time>
      </trkpt>
      <trkpt lat="44.216" lon="6.21452">
        <ele>1115</ele>
        <time>2018-06-08T07:13:20Z</time>
      </trkpt>
      <trkpt lat="44.21599" lon="6.21454">
        <ele>1116</ele>
        <time>2018-06-08T07:13:21Z</time>
      </trkpt>
      <trkpt lat="44.21598" lon="6.21456">
        <ele>1116</ele>
        <time>2018-06-08T07:13:23Z</time>
      </trkpt>
      <trkpt lat="44.21597" lon="6.21458">
        <ele>1116</ele>
        <time>2018-06-08T07:13:24Z</time>
      </trkpt>
      <trkpt lat="44.21596" lon="6.21459">
        <ele>1117</ele>
        <time>2018-06-08T07:13:25Z</time>
      </trkpt>
      <trkpt lat="44.21595" lon="6.21462">
        <ele>1117</ele>
        <time>2018-06-08T07:13:27Z</time>
      </trkpt>
      <trkpt lat="44.21595" lon="6.21463">
        <ele>1117</ele>
        <time>2018-06-08T07:13:28Z</time>
      </trkpt>
      <trkpt lat="44.21594" lon="6.21466">
        <ele>1117</ele>
        <time>2018-06-08T07:13:30Z</time>
      </trkpt>
      <trkpt lat="44.21593" lon="6.21468">
        <ele>1117</ele>
        <time>2018-06-08T07:13:32Z</time>
      </trkpt>
      <trkpt lat="44.21593" lon="6.2147">
        <ele>1117</ele>
        <time>2018-06-08T07:13:33Z</time>
      </trkpt>
      <trkpt lat="44.21592" lon="6.21472">
        <ele>1117</ele>
        <time>2018-06-08T07:13:35Z</time>
      </trkpt>
      <trkpt lat="44.21591" lon="6.21475">
        <ele>1117</ele>
        <time>2018-06-08T07:13:37Z</time>
      </trkpt>
      <trkpt lat="44.2159" lon="6.21476">
        <ele>1116</ele>
        <time>2018-06-08T07:13:38Z</time>
      </trkpt>
      <trkpt lat="44.2159" lon="6.21478">
        <ele>1116</ele>
        <time>2018-06-08T07:13:39Z</time>
      </trkpt>
      <trkpt lat="44.21589" lon="6.21481">
        <ele>1115</ele>
        <time>2018-06-08T07:13:41Z</time>
      </trkpt>
      <trkpt lat="44.21589" lon="6.21482">
        <ele>1114</ele>
        <time>2018-06-08T07:13:42Z</time>
      </trkpt>
      <trkpt lat="44.21589" lon="6.21484">
        <ele>1114</ele>
        <time>2018-06-08T07:13:43Z</time>
      </trkpt>
      <trkpt lat="44.21589" lon="6.21486">
        <ele>1114</ele>
        <time>2018-06-08T07:13:44Z</time>
      </trkpt>
      <trkpt lat="44.21589" lon="6.21488">
        <ele>1114</ele>
        <time>2018-06-08T07:13:45Z</time>
      </trkpt>
      <trkpt lat="44.21589" lon="6.21489">
        <ele>1114</ele>
        <time>2018-06-08T07:13:46Z</time>
      </trkpt>
      <trkpt lat="44.21588" lon="6.2149">
        <ele>1114</ele>
        <time>2018-06-08T07:13:47Z</time>
      </trkpt>
      <trkpt lat="44.21588" lon="6.21493">
        <ele>1113</ele>
        <time>2018-06-08T07:13:49Z</time>
      </trkpt>
      <trkpt lat="44.21587" lon="6.21495">
        <ele>1113</ele>
        <time>2018-06-08T07:13:50Z</time>
      </trkpt>
      <trkpt lat="44.21587" lon="6.21496">
        <ele>1113</ele>
        <time>2018-06-08T07:13:51Z</time>
      </trkpt>
      <trkpt lat="44.21587" lon="6.21498">
        <ele>1113</ele>
        <time>2018-06-08T07:13:52Z</time>
      </trkpt>
      <trkpt lat="44.21587" lon="6.215">
        <ele>1113</ele>
        <time>2018-06-08T07:13:53Z</time>
      </trkpt>
      <trkpt lat="44.21586" lon="6.21502">
        <ele>1112</ele>
        <time>2018-06-08T07:13:54Z</time>
      </trkpt>
      <trkpt lat="44.21586" lon="6.21504">
        <ele>1112</ele>
        <time>2018-06-08T07:13:55Z</time>
      </trkpt>
      <trkpt lat="44.21585" lon="6.21505">
        <ele>1112</ele>
        <time>2018-06-08T07:13:56Z</time>
      </trkpt>
      <trkpt lat="44.21585" lon="6.21507">
        <ele>1112</ele>
        <time>2018-06-08T07:13:57Z</time>
      </trkpt>
      <trkpt lat="44.21584" lon="6.21509">
        <ele>1111</ele>
        <time>2018-06-08T07:13:58Z</time>
      </trkpt>
      <trkpt lat="44.21584" lon="6.2151">
        <ele>1111</ele>
        <time>2018-06-08T07:13:59Z</time>
      </trkpt>
      <trkpt lat="44.21583" lon="6.21512">
        <ele>1111</ele>
        <time>2018-06-08T07:14:00Z</time>
      </trkpt>
      <trkpt lat="44.21583" lon="6.21514">
        <ele>1110</ele>
        <time>2018-06-08T07:14:01Z</time>
      </trkpt>
      <trkpt lat="44.21582" lon="6.21515">
        <ele>1110</ele>
        <time>2018-06-08T07:14:02Z</time>
      </trkpt>
      <trkpt lat="44.21582" lon="6.21517">
        <ele>1110</ele>
        <time>2018-06-08T07:14:03Z</time>
      </trkpt>
      <trkpt lat="44.21581" lon="6.21519">
        <ele>1110</ele>
        <time>2018-06-08T07:14:04Z</time>
      </trkpt>
      <trkpt lat="44.21581" lon="6.2152">
        <ele>1109</ele>
        <time>2018-06-08T07:14:05Z</time>
      </trkpt>
      <trkpt lat="44.2158" lon="6.21522">
        <ele>1109</ele>
        <time>2018-06-08T07:14:06Z</time>
      </trkpt>
      <trkpt lat="44.2158" lon="6.21524">
        <ele>1109</ele>
        <time>2018-06-08T07:14:07Z</time>
      </trkpt>
      <trkpt lat="44.21579" lon="6.21526">
        <ele>1108</ele>
        <time>2018-06-08T07:14:09Z</time>
      </trkpt>
      <trkpt lat="44.21578" lon="6.21528">
        <ele>1108</ele>
        <time>2018-06-08T07:14:11Z</time>
      </trkpt>
      <trkpt lat="44.21578" lon="6.21531">
        <ele>1108</ele>
        <time>2018-06-08T07:14:13Z</time>
      </trkpt>
      <trkpt lat="44.21577" lon="6.21533">
        <ele>1108</ele>
        <time>2018-06-08T07:14:14Z</time>
      </trkpt>
      <trkpt lat="44.21576" lon="6.21534">
        <ele>1108</ele>
        <time>2018-06-08T07:14:15Z</time>
      </trkpt>
      <trkpt lat="44.21575" lon="6.21536">
        <ele>1108</ele>
        <time>2018-06-08T07:14:16Z</time>
      </trkpt>
      <trkpt lat="44.21574" lon="6.21538">
        <ele>1108</ele>
        <time>2018-06-08T07:14:17Z</time>
      </trkpt>
      <trkpt lat="44.21574" lon="6.21539">
        <ele>1108</ele>
        <time>2018-06-08T07:14:18Z</time>
      </trkpt>
      <trkpt lat="44.21572" lon="6.21543">
        <ele>1109</ele>
        <time>2018-06-08T07:14:20Z</time>
      </trkpt>
      <trkpt lat="44.21572" lon="6.21544">
        <ele>1110</ele>
        <time>2018-06-08T07:14:21Z</time>
      </trkpt>
      <trkpt lat="44.21571" lon="6.21547">
        <ele>1110</ele>
        <time>2018-06-08T07:14:23Z</time>
      </trkpt>
      <trkpt lat="44.2157" lon="6.21548">
        <ele>1110</ele>
        <time>2018-06-08T07:14:24Z</time>
      </trkpt>
      <trkpt lat="44.21569" lon="6.21551">
        <ele>1110</ele>
        <time>2018-06-08T07:14:26Z</time>
      </trkpt>
      <trkpt lat="44.21567" lon="6.21553">
        <ele>1110</ele>
        <time>2018-06-08T07:14:28Z</time>
      </trkpt>
      <trkpt lat="44.21566" lon="6.21555">
        <ele>1110</ele>
        <time>2018-06-08T07:14:30Z</time>
      </trkpt>
      <trkpt lat="44.21564" lon="6.21557">
        <ele>1110</ele>
        <time>2018-06-08T07:14:32Z</time>
      </trkpt>
      <trkpt lat="44.21563" lon="6.21559">
        <ele>1110</ele>
        <time>2018-06-08T07:14:33Z</time>
      </trkpt>
      <trkpt lat="44.21562" lon="6.2156">
        <ele>1110</ele>
        <time>2018-06-08T07:14:34Z</time>
      </trkpt>
      <trkpt lat="44.2156" lon="6.21562">
        <ele>1110</ele>
        <time>2018-06-08T07:14:36Z</time>
      </trkpt>
      <trkpt lat="44.2156" lon="6.21564">
        <ele>1110</ele>
        <time>2018-06-08T07:14:38Z</time>
      </trkpt>
      <trkpt lat="44.21558" lon="6.21566">
        <ele>1110</ele>
        <time>2018-06-08T07:14:40Z</time>
      </trkpt>
      <trkpt lat="44.21557" lon="6.21568">
        <ele>1110</ele>
        <time>2018-06-08T07:14:41Z</time>
      </trkpt>
      <trkpt lat="44.21556" lon="6.21569">
        <ele>1110</ele>
        <time>2018-06-08T07:14:42Z</time>
      </trkpt>
      <trkpt lat="44.21555" lon="6.21572">
        <ele>1110</ele>
        <time>2018-06-08T07:14:44Z</time>
      </trkpt>
      <trkpt lat="44.21554" lon="6.21574">
        <ele>1110</ele>
        <time>2018-06-08T07:14:46Z</time>
      </trkpt>
      <trkpt lat="44.21554" lon="6.21577">
        <ele>1110</ele>
        <time>2018-06-08T07:14:48Z</time>
      </trkpt>
      <trkpt lat="44.21553" lon="6.21578">
        <ele>1110</ele>
        <time>2018-06-08T07:14:49Z</time>
      </trkpt>
      <trkpt lat="44.21552" lon="6.2158">
        <ele>1110</ele>
        <time>2018-06-08T07:14:51Z</time>
      </trkpt>
      <trkpt lat="44.2155" lon="6.21582">
        <ele>1110</ele>
        <time>2018-06-08T07:14:53Z</time>
      </trkpt>
      <trkpt lat="44.21548" lon="6.21584">
        <ele>1110</ele>
        <time>2018-06-08T07:14:55Z</time>
      </trkpt>
      <trkpt lat="44.21546" lon="6.21586">
        <ele>1110</ele>
        <time>2018-06-08T07:14:57Z</time>
      </trkpt>
      <trkpt lat="44.21544" lon="6.21589">
        <ele>1110</ele>
        <time>2018-06-08T07:14:59Z</time>
      </trkpt>
      <trkpt lat="44.21544" lon="6.2159">
        <ele>1109</ele>
        <time>2018-06-08T07:15:00Z</time>
      </trkpt>
      <trkpt lat="44.21542" lon="6.21593">
        <ele>1108</ele>
        <time>2018-06-08T07:15:02Z</time>
      </trkpt>
      <trkpt lat="44.21542" lon="6.21594">
        <ele>1108</ele>
        <time>2018-06-08T07:15:03Z</time>
      </trkpt>
      <trkpt lat="44.21541" lon="6.21597">
        <ele>1107</ele>
        <time>2018-06-08T07:15:05Z</time>
      </trkpt>
      <trkpt lat="44.2154" lon="6.216">
        <ele>1106</ele>
        <time>2018-06-08T07:15:07Z</time>
      </trkpt>
      <trkpt lat="44.21539" lon="6.21601">
        <ele>1106</ele>
        <time>2018-06-08T07:15:08Z</time>
      </trkpt>
      <trkpt lat="44.21539" lon="6.21603">
        <ele>1105</ele>
        <time>2018-06-08T07:15:09Z</time>
      </trkpt>
      <trkpt lat="44.21538" lon="6.21604">
        <ele>1105</ele>
        <time>2018-06-08T07:15:10Z</time>
      </trkpt>
      <trkpt lat="44.21538" lon="6.21606">
        <ele>1105</ele>
        <time>2018-06-08T07:15:11Z</time>
      </trkpt>
      <trkpt lat="44.21537" lon="6.21608">
        <ele>1105</ele>
        <time>2018-06-08T07:15:12Z</time>
      </trkpt>
      <trkpt lat="44.21536" lon="6.21609">
        <ele>1105</ele>
        <time>2018-06-08T07:15:13Z</time>
      </trkpt>
      <trkpt lat="44.21535" lon="6.21611">
        <ele>1105</ele>
        <time>2018-06-08T07:15:14Z</time>
      </trkpt>
      <trkpt lat="44.21535" lon="6.21613">
        <ele>1105</ele>
        <time>2018-06-08T07:15:15Z</time>
      </trkpt>
      <trkpt lat="44.21535" lon="6.21615">
        <ele>1105</ele>
        <time>2018-06-08T07:15:16Z</time>
      </trkpt>
      <trkpt lat="44.21534" lon="6.21617">
        <ele>1105</ele>
        <time>2018-06-08T07:15:17Z</time>
      </trkpt>
      <trkpt lat="44.21534" lon="6.21619">
        <ele>1105</ele>
        <time>2018-06-08T07:15:18Z</time>
      </trkpt>
      <trkpt lat="44.21533" lon="6.21621">
        <ele>1105</ele>
        <time>2018-06-08T07:15:19Z</time>
      </trkpt>
      <trkpt lat="44.21532" lon="6.21623">
        <ele>1105</ele>
        <time>2018-06-08T07:15:20Z</time>
      </trkpt>
      <trkpt lat="44.21532" lon="6.21624">
        <ele>1105</ele>
        <time>2018-06-08T07:15:21Z</time>
      </trkpt>
      <trkpt lat="44.21532" lon="6.21626">
        <ele>1105</ele>
        <time>2018-06-08T07:15:22Z</time>
      </trkpt>
      <trkpt lat="44.21531" lon="6.21628">
        <ele>1105</ele>
        <time>2018-06-08T07:15:23Z</time>
      </trkpt>
      <trkpt lat="44.21531" lon="6.2163">
        <ele>1105</ele>
        <time>2018-06-08T07:15:24Z</time>
      </trkpt>
      <trkpt lat="44.21531" lon="6.21631">
        <ele>1105</ele>
        <time>2018-06-08T07:15:25Z</time>
      </trkpt>
      <trkpt lat="44.21531" lon="6.21633">
        <ele>1105</ele>
        <time>2018-06-08T07:15:26Z</time>
      </trkpt>
      <trkpt lat="44.21531" lon="6.21635">
        <ele>1105</ele>
        <time>2018-06-08T07:15:27Z</time>
      </trkpt>
      <trkpt lat="44.21531" lon="6.21636">
        <ele>1105</ele>
        <time>2018-06-08T07:15:28Z</time>
      </trkpt>
      <trkpt lat="44.21531" lon="6.21638">
        <ele>1105</ele>
        <time>2018-06-08T07:15:29Z</time>
      </trkpt>
      <trkpt lat="44.21531" lon="6.2164">
        <ele>1105</ele>
        <time>2018-06-08T07:15:30Z</time>
      </trkpt>
      <trkpt lat="44.21531" lon="6.21641">
        <ele>1105</ele>
        <time>2018-06-08T07:15:31Z</time>
      </trkpt>
      <trkpt lat="44.21531" lon="6.21643">
        <ele>1105</ele>
        <time>2018-06-08T07:15:32Z</time>
      </trkpt>
      <trkpt lat="44.21532" lon="6.21645">
        <ele>1105</ele>
        <time>2018-06-08T07:15:33Z</time>
      </trkpt>
      <trkpt lat="44.21532" lon="6.21646">
        <ele>1105</ele>
        <time>2018-06-08T07:15:34Z</time>
      </trkpt>
      <trkpt lat="44.21532" lon="6.21648">
        <ele>1105</ele>
        <time>2018-06-08T07:15:35Z</time>
      </trkpt>
      <trkpt lat="44.21532" lon="6.2165">
        <ele>1105</ele>
        <time>2018-06-08T07:15:36Z</time>
      </trkpt>
      <trkpt lat="44.21533" lon="6.21652">
        <ele>1105</ele>
        <time>2018-06-08T07:15:37Z</time>
      </trkpt>
      <trkpt lat="44.21533" lon="6.21653">
        <ele>1105</ele>
        <time>2018-06-08T07:15:38Z</time>
      </trkpt>
      <trkpt lat="44.21534" lon="6.21655">
        <ele>1105</ele>
        <time>2018-06-08T07:15:39Z</time>
      </trkpt>
      <trkpt lat="44.21534" lon="6.21657">
        <ele>1105</ele>
        <time>2018-06-08T07:15:40Z</time>
      </trkpt>
      <trkpt lat="44.21535" lon="6.21658">
        <ele>1105</ele>
        <time>2018-06-08T07:15:41Z</time>
      </trkpt>
      <trkpt lat="44.21535" lon="6.2166">
        <ele>1105</ele>
        <time>2018-06-08T07:15:42Z</time>
      </trkpt>
      <trkpt lat="44.21536" lon="6.21661">
        <ele>1105</ele>
        <time>2018-06-08T07:15:43Z</time>
      </trkpt>
      <trkpt lat="44.21537" lon="6.21663">
        <ele>1105</ele>
        <time>2018-06-08T07:15:44Z</time>
      </trkpt>
      <trkpt lat="44.21537" lon="6.21664">
        <ele>1105</ele>
        <time>2018-06-08T07:15:45Z</time>
      </trkpt>
      <trkpt lat="44.21538" lon="6.21666">
        <ele>1105</ele>
        <time>2018-06-08T07:15:46Z</time>
      </trkpt>
      <trkpt lat="44.21538" lon="6.21667">
        <ele>1105</ele>
        <time>2018-06-08T07:15:47Z</time>
      </trkpt>
      <trkpt lat="44.21538" lon="6.21669">
        <ele>1104</ele>
        <time>2018-06-08T07:15:48Z</time>
      </trkpt>
      <trkpt lat="44.21538" lon="6.2167">
        <ele>1103</ele>
        <time>2018-06-08T07:15:49Z</time>
      </trkpt>
      <trkpt lat="44.21538" lon="6.21672">
        <ele>1103</ele>
        <time>2018-06-08T07:15:50Z</time>
      </trkpt>
      <trkpt lat="44.21538" lon="6.21673">
        <ele>1102</ele>
        <time>2018-06-08T07:15:51Z</time>
      </trkpt>
      <trkpt lat="44.21538" lon="6.21676">
        <ele>1101</ele>
        <time>2018-06-08T07:15:53Z</time>
      </trkpt>
      <trkpt lat="44.21538" lon="6.21678">
        <ele>1100</ele>
        <time>2018-06-08T07:15:54Z</time>
      </trkpt>
      <trkpt lat="44.21538" lon="6.21679">
        <ele>1099</ele>
        <time>2018-06-08T07:15:55Z</time>
      </trkpt>
      <trkpt lat="44.21538" lon="6.21681">
        <ele>1099</ele>
        <time>2018-06-08T07:15:56Z</time>
      </trkpt>
      <trkpt lat="44.21538" lon="6.21683">
        <ele>1098</ele>
        <time>2018-06-08T07:15:57Z</time>
      </trkpt>
      <trkpt lat="44.21538" lon="6.21684">
        <ele>1098</ele>
        <time>2018-06-08T07:15:58Z</time>
      </trkpt>
      <trkpt lat="44.21537" lon="6.21686">
        <ele>1098</ele>
        <time>2018-06-08T07:15:59Z</time>
      </trkpt>
      <trkpt lat="44.21537" lon="6.21688">
        <ele>1097</ele>
        <time>2018-06-08T07:16:00Z</time>
      </trkpt>
      <trkpt lat="44.21537" lon="6.2169">
        <ele>1097</ele>
        <time>2018-06-08T07:16:01Z</time>
      </trkpt>
      <trkpt lat="44.21536" lon="6.21691">
        <ele>1097</ele>
        <time>2018-06-08T07:16:02Z</time>
      </trkpt>
      <trkpt lat="44.21536" lon="6.21693">
        <ele>1097</ele>
        <time>2018-06-08T07:16:03Z</time>
      </trkpt>
      <trkpt lat="44.21535" lon="6.21695">
        <ele>1096</ele>
        <time>2018-06-08T07:16:04Z</time>
      </trkpt>
      <trkpt lat="44.21535" lon="6.21696">
        <ele>1096</ele>
        <time>2018-06-08T07:16:05Z</time>
      </trkpt>
      <trkpt lat="44.21534" lon="6.21698">
        <ele>1096</ele>
        <time>2018-06-08T07:16:06Z</time>
      </trkpt>
      <trkpt lat="44.21534" lon="6.21699">
        <ele>1096</ele>
        <time>2018-06-08T07:16:07Z</time>
      </trkpt>
      <trkpt lat="44.21533" lon="6.21701">
        <ele>1096</ele>
        <time>2018-06-08T07:16:08Z</time>
      </trkpt>
      <trkpt lat="44.21533" lon="6.21703">
        <ele>1096</ele>
        <time>2018-06-08T07:16:09Z</time>
      </trkpt>
      <trkpt lat="44.21532" lon="6.21705">
        <ele>1096</ele>
        <time>2018-06-08T07:16:10Z</time>
      </trkpt>
      <trkpt lat="44.21532" lon="6.21706">
        <ele>1096</ele>
        <time>2018-06-08T07:16:11Z</time>
      </trkpt>
      <trkpt lat="44.21531" lon="6.21708">
        <ele>1096</ele>
        <time>2018-06-08T07:16:12Z</time>
      </trkpt>
      <trkpt lat="44.21531" lon="6.21709">
        <ele>1096</ele>
        <time>2018-06-08T07:16:13Z</time>
      </trkpt>
      <trkpt lat="44.2153" lon="6.21711">
        <ele>1096</ele>
        <time>2018-06-08T07:16:14Z</time>
      </trkpt>
      <trkpt lat="44.2153" lon="6.21713">
        <ele>1096</ele>
        <time>2018-06-08T07:16:15Z</time>
      </trkpt>
      <trkpt lat="44.21529" lon="6.21714">
        <ele>1095</ele>
        <time>2018-06-08T07:16:16Z</time>
      </trkpt>
      <trkpt lat="44.21529" lon="6.21716">
        <ele>1095</ele>
        <time>2018-06-08T07:16:17Z</time>
      </trkpt>
      <trkpt lat="44.21528" lon="6.21718">
        <ele>1095</ele>
        <time>2018-06-08T07:16:18Z</time>
      </trkpt>
      <trkpt lat="44.21527" lon="6.2172">
        <ele>1095</ele>
        <time>2018-06-08T07:16:19Z</time>
      </trkpt>
      <trkpt lat="44.21526" lon="6.21722">
        <ele>1095</ele>
        <time>2018-06-08T07:16:20Z</time>
      </trkpt>
      <trkpt lat="44.21526" lon="6.21724">
        <ele>1095</ele>
        <time>2018-06-08T07:16:21Z</time>
      </trkpt>
      <trkpt lat="44.21525" lon="6.21726">
        <ele>1095</ele>
        <time>2018-06-08T07:16:22Z</time>
      </trkpt>
      <trkpt lat="44.21525" lon="6.21727">
        <ele>1095</ele>
        <time>2018-06-08T07:16:23Z</time>
      </trkpt>
      <trkpt lat="44.21524" lon="6.21729">
        <ele>1095</ele>
        <time>2018-06-08T07:16:24Z</time>
      </trkpt>
      <trkpt lat="44.21524" lon="6.21731">
        <ele>1095</ele>
        <time>2018-06-08T07:16:25Z</time>
      </trkpt>
      <trkpt lat="44.21523" lon="6.21732">
        <ele>1095</ele>
        <time>2018-06-08T07:16:26Z</time>
      </trkpt>
      <trkpt lat="44.21522" lon="6.21734">
        <ele>1095</ele>
        <time>2018-06-08T07:16:27Z</time>
      </trkpt>
      <trkpt lat="44.21522" lon="6.21736">
        <ele>1095</ele>
        <time>2018-06-08T07:16:28Z</time>
      </trkpt>
      <trkpt lat="44.21521" lon="6.21737">
        <ele>1095</ele>
        <time>2018-06-08T07:16:29Z</time>
      </trkpt>
      <trkpt lat="44.21521" lon="6.21739">
        <ele>1095</ele>
        <time>2018-06-08T07:16:30Z</time>
      </trkpt>
      <trkpt lat="44.2152" lon="6.21741">
        <ele>1095</ele>
        <time>2018-06-08T07:16:31Z</time>
      </trkpt>
      <trkpt lat="44.2152" lon="6.21742">
        <ele>1096</ele>
        <time>2018-06-08T07:16:32Z</time>
      </trkpt>
      <trkpt lat="44.21519" lon="6.21744">
        <ele>1096</ele>
        <time>2018-06-08T07:16:33Z</time>
      </trkpt>
      <trkpt lat="44.21518" lon="6.21745">
        <ele>1096</ele>
        <time>2018-06-08T07:16:34Z</time>
      </trkpt>
      <trkpt lat="44.21518" lon="6.21747">
        <ele>1096</ele>
        <time>2018-06-08T07:16:35Z</time>
      </trkpt>
      <trkpt lat="44.21518" lon="6.21749">
        <ele>1096</ele>
        <time>2018-06-08T07:16:36Z</time>
      </trkpt>
      <trkpt lat="44.21518" lon="6.21751">
        <ele>1097</ele>
        <time>2018-06-08T07:16:37Z</time>
      </trkpt>
      <trkpt lat="44.21518" lon="6.21753">
        <ele>1097</ele>
        <time>2018-06-08T07:16:38Z</time>
      </trkpt>
      <trkpt lat="44.21517" lon="6.21754">
        <ele>1097</ele>
        <time>2018-06-08T07:16:39Z</time>
      </trkpt>
      <trkpt lat="44.21517" lon="6.21756">
        <ele>1097</ele>
        <time>2018-06-08T07:16:40Z</time>
      </trkpt>
      <trkpt lat="44.21516" lon="6.21758">
        <ele>1097</ele>
        <time>2018-06-08T07:16:41Z</time>
      </trkpt>
      <trkpt lat="44.21516" lon="6.21759">
        <ele>1097</ele>
        <time>2018-06-08T07:16:42Z</time>
      </trkpt>
      <trkpt lat="44.21516" lon="6.21761">
        <ele>1097</ele>
        <time>2018-06-08T07:16:43Z</time>
      </trkpt>
      <trkpt lat="44.21516" lon="6.21763">
        <ele>1097</ele>
        <time>2018-06-08T07:16:44Z</time>
      </trkpt>
      <trkpt lat="44.21516" lon="6.21764">
        <ele>1097</ele>
        <time>2018-06-08T07:16:45Z</time>
      </trkpt>
      <trkpt lat="44.21516" lon="6.21766">
        <ele>1097</ele>
        <time>2018-06-08T07:16:46Z</time>
      </trkpt>
      <trkpt lat="44.21516" lon="6.21768">
        <ele>1097</ele>
        <time>2018-06-08T07:16:47Z</time>
      </trkpt>
      <trkpt lat="44.21516" lon="6.2177">
        <ele>1097</ele>
        <time>2018-06-08T07:16:48Z</time>
      </trkpt>
      <trkpt lat="44.21516" lon="6.21771">
        <ele>1097</ele>
        <time>2018-06-08T07:16:49Z</time>
      </trkpt>
      <trkpt lat="44.21516" lon="6.21773">
        <ele>1097</ele>
        <time>2018-06-08T07:16:50Z</time>
      </trkpt>
      <trkpt lat="44.21515" lon="6.21774">
        <ele>1097</ele>
        <time>2018-06-08T07:16:51Z</time>
      </trkpt>
      <trkpt lat="44.21515" lon="6.21776">
        <ele>1097</ele>
        <time>2018-06-08T07:16:52Z</time>
      </trkpt>
      <trkpt lat="44.21515" lon="6.21778">
        <ele>1097</ele>
        <time>2018-06-08T07:16:53Z</time>
      </trkpt>
      <trkpt lat="44.21515" lon="6.21781">
        <ele>1097</ele>
        <time>2018-06-08T07:16:55Z</time>
      </trkpt>
      <trkpt lat="44.21515" lon="6.21782">
        <ele>1097</ele>
        <time>2018-06-08T07:16:56Z</time>
      </trkpt>
      <trkpt lat="44.21515" lon="6.21784">
        <ele>1097</ele>
        <time>2018-06-08T07:16:57Z</time>
      </trkpt>
      <trkpt lat="44.21515" lon="6.21786">
        <ele>1097</ele>
        <time>2018-06-08T07:16:58Z</time>
      </trkpt>
      <trkpt lat="44.21515" lon="6.21788">
        <ele>1097</ele>
        <time>2018-06-08T07:16:59Z</time>
      </trkpt>
      <trkpt lat="44.21515" lon="6.2179">
        <ele>1097</ele>
        <time>2018-06-08T07:17:00Z</time>
      </trkpt>
      <trkpt lat="44.21515" lon="6.21792">
        <ele>1097</ele>
        <time>2018-06-08T07:17:01Z</time>
      </trkpt>
      <trkpt lat="44.21515" lon="6.21794">
        <ele>1097</ele>
        <time>2018-06-08T07:17:02Z</time>
      </trkpt>
      <trkpt lat="44.21515" lon="6.21795">
        <ele>1097</ele>
        <time>2018-06-08T07:17:03Z</time>
      </trkpt>
      <trkpt lat="44.21515" lon="6.21797">
        <ele>1097</ele>
        <time>2018-06-08T07:17:04Z</time>
      </trkpt>
      <trkpt lat="44.21515" lon="6.21799">
        <ele>1097</ele>
        <time>2018-06-08T07:17:05Z</time>
      </trkpt>
      <trkpt lat="44.21516" lon="6.21801">
        <ele>1097</ele>
        <time>2018-06-08T07:17:06Z</time>
      </trkpt>
      <trkpt lat="44.21516" lon="6.21803">
        <ele>1097</ele>
        <time>2018-06-08T07:17:07Z</time>
      </trkpt>
      <trkpt lat="44.21516" lon="6.21804">
        <ele>1097</ele>
        <time>2018-06-08T07:17:08Z</time>
      </trkpt>
      <trkpt lat="44.21515" lon="6.21806">
        <ele>1097</ele>
        <time>2018-06-08T07:17:09Z</time>
      </trkpt>
      <trkpt lat="44.21515" lon="6.21807">
        <ele>1097</ele>
        <time>2018-06-08T07:17:10Z</time>
      </trkpt>
      <trkpt lat="44.21515" lon="6.21809">
        <ele>1097</ele>
        <time>2018-06-08T07:17:11Z</time>
      </trkpt>
      <trkpt lat="44.21515" lon="6.2181">
        <ele>1097</ele>
        <time>2018-06-08T07:17:12Z</time>
      </trkpt>
      <trkpt lat="44.21515" lon="6.21812">
        <ele>1097</ele>
        <time>2018-06-08T07:17:13Z</time>
      </trkpt>
      <trkpt lat="44.21515" lon="6.21813">
        <ele>1097</ele>
        <time>2018-06-08T07:17:14Z</time>
      </trkpt>
      <trkpt lat="44.21515" lon="6.21815">
        <ele>1097</ele>
        <time>2018-06-08T07:17:15Z</time>
      </trkpt>
      <trkpt lat="44.21515" lon="6.21817">
        <ele>1097</ele>
        <time>2018-06-08T07:17:16Z</time>
      </trkpt>
      <trkpt lat="44.21515" lon="6.21819">
        <ele>1097</ele>
        <time>2018-06-08T07:17:17Z</time>
      </trkpt>
      <trkpt lat="44.21515" lon="6.2182">
        <ele>1097</ele>
        <time>2018-06-08T07:17:18Z</time>
      </trkpt>
      <trkpt lat="44.21515" lon="6.21822">
        <ele>1097</ele>
        <time>2018-06-08T07:17:19Z</time>
      </trkpt>
      <trkpt lat="44.21515" lon="6.21824">
        <ele>1097</ele>
        <time>2018-06-08T07:17:20Z</time>
      </trkpt>
      <trkpt lat="44.21515" lon="6.21826">
        <ele>1097</ele>
        <time>2018-06-08T07:17:21Z</time>
      </trkpt>
      <trkpt lat="44.21515" lon="6.21827">
        <ele>1097</ele>
        <time>2018-06-08T07:17:22Z</time>
      </trkpt>
      <trkpt lat="44.21514" lon="6.21829">
        <ele>1097</ele>
        <time>2018-06-08T07:17:23Z</time>
      </trkpt>
      <trkpt lat="44.21514" lon="6.21831">
        <ele>1097</ele>
        <time>2018-06-08T07:17:24Z</time>
      </trkpt>
      <trkpt lat="44.21514" lon="6.21832">
        <ele>1097</ele>
        <time>2018-06-08T07:17:25Z</time>
      </trkpt>
      <trkpt lat="44.21514" lon="6.21834">
        <ele>1097</ele>
        <time>2018-06-08T07:17:26Z</time>
      </trkpt>
      <trkpt lat="44.21514" lon="6.21836">
        <ele>1097</ele>
        <time>2018-06-08T07:17:27Z</time>
      </trkpt>
      <trkpt lat="44.21514" lon="6.21838">
        <ele>1097</ele>
        <time>2018-06-08T07:17:28Z</time>
      </trkpt>
      <trkpt lat="44.21514" lon="6.2184">
        <ele>1097</ele>
        <time>2018-06-08T07:17:29Z</time>
      </trkpt>
      <trkpt lat="44.21514" lon="6.21841">
        <ele>1096</ele>
        <time>2018-06-08T07:17:30Z</time>
      </trkpt>
      <trkpt lat="44.21515" lon="6.21843">
        <ele>1096</ele>
        <time>2018-06-08T07:17:31Z</time>
      </trkpt>
      <trkpt lat="44.21515" lon="6.21845">
        <ele>1096</ele>
        <time>2018-06-08T07:17:32Z</time>
      </trkpt>
      <trkpt lat="44.21515" lon="6.21846">
        <ele>1096</ele>
        <time>2018-06-08T07:17:33Z</time>
      </trkpt>
      <trkpt lat="44.21514" lon="6.21848">
        <ele>1096</ele>
        <time>2018-06-08T07:17:34Z</time>
      </trkpt>
      <trkpt lat="44.21514" lon="6.2185">
        <ele>1096</ele>
        <time>2018-06-08T07:17:35Z</time>
      </trkpt>
      <trkpt lat="44.21514" lon="6.21851">
        <ele>1096</ele>
        <time>2018-06-08T07:17:36Z</time>
      </trkpt>
      <trkpt lat="44.21515" lon="6.21854">
        <ele>1095</ele>
        <time>2018-06-08T07:17:38Z</time>
      </trkpt>
      <trkpt lat="44.21515" lon="6.21857">
        <ele>1095</ele>
        <time>2018-06-08T07:17:40Z</time>
      </trkpt>
      <trkpt lat="44.21515" lon="6.21859">
        <ele>1094</ele>
        <time>2018-06-08T07:17:41Z</time>
      </trkpt>
      <trkpt lat="44.21515" lon="6.2186">
        <ele>1094</ele>
        <time>2018-06-08T07:17:42Z</time>
      </trkpt>
      <trkpt lat="44.21515" lon="6.21862">
        <ele>1094</ele>
        <time>2018-06-08T07:17:43Z</time>
      </trkpt>
      <trkpt lat="44.21515" lon="6.21864">
        <ele>1093</ele>
        <time>2018-06-08T07:17:44Z</time>
      </trkpt>
      <trkpt lat="44.21515" lon="6.21865">
        <ele>1093</ele>
        <time>2018-06-08T07:17:45Z</time>
      </trkpt>
      <trkpt lat="44.21516" lon="6.21867">
        <ele>1093</ele>
        <time>2018-06-08T07:17:46Z</time>
      </trkpt>
      <trkpt lat="44.21516" lon="6.21869">
        <ele>1092</ele>
        <time>2018-06-08T07:17:47Z</time>
      </trkpt>
      <trkpt lat="44.21516" lon="6.2187">
        <ele>1092</ele>
        <time>2018-06-08T07:17:48Z</time>
      </trkpt>
      <trkpt lat="44.21517" lon="6.21872">
        <ele>1092</ele>
        <time>2018-06-08T07:17:49Z</time>
      </trkpt>
      <trkpt lat="44.21517" lon="6.21874">
        <ele>1091</ele>
        <time>2018-06-08T07:17:51Z</time>
      </trkpt>
      <trkpt lat="44.21517" lon="6.21876">
        <ele>1091</ele>
        <time>2018-06-08T07:17:52Z</time>
      </trkpt>
      <trkpt lat="44.21517" lon="6.21878">
        <ele>1090</ele>
        <time>2018-06-08T07:17:53Z</time>
      </trkpt>
      <trkpt lat="44.21517" lon="6.21879">
        <ele>1090</ele>
        <time>2018-06-08T07:17:54Z</time>
      </trkpt>
      <trkpt lat="44.21517" lon="6.21881">
        <ele>1090</ele>
        <time>2018-06-08T07:17:55Z</time>
      </trkpt>
      <trkpt lat="44.21518" lon="6.21883">
        <ele>1090</ele>
        <time>2018-06-08T07:17:56Z</time>
      </trkpt>
      <trkpt lat="44.21518" lon="6.21885">
        <ele>1090</ele>
        <time>2018-06-08T07:17:57Z</time>
      </trkpt>
      <trkpt lat="44.21518" lon="6.21886">
        <ele>1090</ele>
        <time>2018-06-08T07:17:58Z</time>
      </trkpt>
      <trkpt lat="44.21519" lon="6.21888">
        <ele>1090</ele>
        <time>2018-06-08T07:17:59Z</time>
      </trkpt>
      <trkpt lat="44.21519" lon="6.2189">
        <ele>1090</ele>
        <time>2018-06-08T07:18:00Z</time>
      </trkpt>
      <trkpt lat="44.2152" lon="6.21892">
        <ele>1090</ele>
        <time>2018-06-08T07:18:01Z</time>
      </trkpt>
      <trkpt lat="44.2152" lon="6.21894">
        <ele>1090</ele>
        <time>2018-06-08T07:18:02Z</time>
      </trkpt>
      <trkpt lat="44.21521" lon="6.21896">
        <ele>1090</ele>
        <time>2018-06-08T07:18:03Z</time>
      </trkpt>
      <trkpt lat="44.21521" lon="6.21898">
        <ele>1090</ele>
        <time>2018-06-08T07:18:04Z</time>
      </trkpt>
      <trkpt lat="44.21521" lon="6.219">
        <ele>1090</ele>
        <time>2018-06-08T07:18:05Z</time>
      </trkpt>
      <trkpt lat="44.21522" lon="6.21902">
        <ele>1090</ele>
        <time>2018-06-08T07:18:06Z</time>
      </trkpt>
      <trkpt lat="44.21522" lon="6.21903">
        <ele>1090</ele>
        <time>2018-06-08T07:18:07Z</time>
      </trkpt>
      <trkpt lat="44.21523" lon="6.21905">
        <ele>1090</ele>
        <time>2018-06-08T07:18:08Z</time>
      </trkpt>
      <trkpt lat="44.21523" lon="6.21907">
        <ele>1091</ele>
        <time>2018-06-08T07:18:09Z</time>
      </trkpt>
      <trkpt lat="44.21523" lon="6.21908">
        <ele>1091</ele>
        <time>2018-06-08T07:18:10Z</time>
      </trkpt>
      <trkpt lat="44.21523" lon="6.2191">
        <ele>1091</ele>
        <time>2018-06-08T07:18:11Z</time>
      </trkpt>
      <trkpt lat="44.21523" lon="6.21912">
        <ele>1091</ele>
        <time>2018-06-08T07:18:12Z</time>
      </trkpt>
      <trkpt lat="44.21523" lon="6.21914">
        <ele>1091</ele>
        <time>2018-06-08T07:18:13Z</time>
      </trkpt>
      <trkpt lat="44.21523" lon="6.21915">
        <ele>1091</ele>
        <time>2018-06-08T07:18:14Z</time>
      </trkpt>
      <trkpt lat="44.21523" lon="6.21917">
        <ele>1091</ele>
        <time>2018-06-08T07:18:15Z</time>
      </trkpt>
      <trkpt lat="44.21523" lon="6.21919">
        <ele>1091</ele>
        <time>2018-06-08T07:18:16Z</time>
      </trkpt>
      <trkpt lat="44.21522" lon="6.21921">
        <ele>1091</ele>
        <time>2018-06-08T07:18:18Z</time>
      </trkpt>
      <trkpt lat="44.21521" lon="6.21923">
        <ele>1091</ele>
        <time>2018-06-08T07:18:20Z</time>
      </trkpt>
      <trkpt lat="44.21519" lon="6.21925">
        <ele>1091</ele>
        <time>2018-06-08T07:18:22Z</time>
      </trkpt>
      <trkpt lat="44.21518" lon="6.21927">
        <ele>1091</ele>
        <time>2018-06-08T07:18:23Z</time>
      </trkpt>
      <trkpt lat="44.21516" lon="6.21928">
        <ele>1091</ele>
        <time>2018-06-08T07:18:25Z</time>
      </trkpt>
      <trkpt lat="44.21515" lon="6.21929">
        <ele>1091</ele>
        <time>2018-06-08T07:18:26Z</time>
      </trkpt>
      <trkpt lat="44.21513" lon="6.2193">
        <ele>1091</ele>
        <time>2018-06-08T07:18:27Z</time>
      </trkpt>
      <trkpt lat="44.21511" lon="6.21931">
        <ele>1091</ele>
        <time>2018-06-08T07:18:29Z</time>
      </trkpt>
      <trkpt lat="44.2151" lon="6.21933">
        <ele>1091</ele>
        <time>2018-06-08T07:18:31Z</time>
      </trkpt>
      <trkpt lat="44.21508" lon="6.21935">
        <ele>1091</ele>
        <time>2018-06-08T07:18:33Z</time>
      </trkpt>
      <trkpt lat="44.21507" lon="6.21937">
        <ele>1091</ele>
        <time>2018-06-08T07:18:35Z</time>
      </trkpt>
      <trkpt lat="44.21506" lon="6.21939">
        <ele>1091</ele>
        <time>2018-06-08T07:18:36Z</time>
      </trkpt>
      <trkpt lat="44.21505" lon="6.21942">
        <ele>1091</ele>
        <time>2018-06-08T07:18:38Z</time>
      </trkpt>
      <trkpt lat="44.21504" lon="6.21943">
        <ele>1091</ele>
        <time>2018-06-08T07:18:39Z</time>
      </trkpt>
      <trkpt lat="44.21503" lon="6.21945">
        <ele>1092</ele>
        <time>2018-06-08T07:18:40Z</time>
      </trkpt>
      <trkpt lat="44.21503" lon="6.21946">
        <ele>1092</ele>
        <time>2018-06-08T07:18:41Z</time>
      </trkpt>
      <trkpt lat="44.21503" lon="6.21948">
        <ele>1092</ele>
        <time>2018-06-08T07:18:42Z</time>
      </trkpt>
      <trkpt lat="44.21502" lon="6.2195">
        <ele>1093</ele>
        <time>2018-06-08T07:18:44Z</time>
      </trkpt>
      <trkpt lat="44.21501" lon="6.21952">
        <ele>1093</ele>
        <time>2018-06-08T07:18:45Z</time>
      </trkpt>
      <trkpt lat="44.215" lon="6.21954">
        <ele>1093</ele>
        <time>2018-06-08T07:18:46Z</time>
      </trkpt>
      <trkpt lat="44.215" lon="6.21955">
        <ele>1093</ele>
        <time>2018-06-08T07:18:47Z</time>
      </trkpt>
      <trkpt lat="44.21499" lon="6.21957">
        <ele>1094</ele>
        <time>2018-06-08T07:18:48Z</time>
      </trkpt>
      <trkpt lat="44.21498" lon="6.21959">
        <ele>1094</ele>
        <time>2018-06-08T07:18:49Z</time>
      </trkpt>
      <trkpt lat="44.21497" lon="6.21961">
        <ele>1094</ele>
        <time>2018-06-08T07:18:51Z</time>
      </trkpt>
      <trkpt lat="44.21497" lon="6.21963">
        <ele>1095</ele>
        <time>2018-06-08T07:18:52Z</time>
      </trkpt>
      <trkpt lat="44.21495" lon="6.21965">
        <ele>1095</ele>
        <time>2018-06-08T07:18:54Z</time>
      </trkpt>
      <trkpt lat="44.21495" lon="6.21967">
        <ele>1095</ele>
        <time>2018-06-08T07:18:55Z</time>
      </trkpt>
      <trkpt lat="44.21494" lon="6.21969">
        <ele>1095</ele>
        <time>2018-06-08T07:18:57Z</time>
      </trkpt>
      <trkpt lat="44.21492" lon="6.21971">
        <ele>1096</ele>
        <time>2018-06-08T07:18:59Z</time>
      </trkpt>
      <trkpt lat="44.21491" lon="6.21974">
        <ele>1096</ele>
        <time>2018-06-08T07:19:01Z</time>
      </trkpt>
      <trkpt lat="44.2149" lon="6.21976">
        <ele>1096</ele>
        <time>2018-06-08T07:19:03Z</time>
      </trkpt>
      <trkpt lat="44.21488" lon="6.21979">
        <ele>1096</ele>
        <time>2018-06-08T07:19:05Z</time>
      </trkpt>
      <trkpt lat="44.21487" lon="6.21981">
        <ele>1096</ele>
        <time>2018-06-08T07:19:07Z</time>
      </trkpt>
      <trkpt lat="44.21486" lon="6.21983">
        <ele>1096</ele>
        <time>2018-06-08T07:19:08Z</time>
      </trkpt>
      <trkpt lat="44.21484" lon="6.21986">
        <ele>1096</ele>
        <time>2018-06-08T07:19:10Z</time>
      </trkpt>
      <trkpt lat="44.21484" lon="6.21987">
        <ele>1096</ele>
        <time>2018-06-08T07:19:11Z</time>
      </trkpt>
      <trkpt lat="44.21482" lon="6.2199">
        <ele>1097</ele>
        <time>2018-06-08T07:19:13Z</time>
      </trkpt>
      <trkpt lat="44.21481" lon="6.21991">
        <ele>1098</ele>
        <time>2018-06-08T07:19:14Z</time>
      </trkpt>
      <trkpt lat="44.2148" lon="6.21994">
        <ele>1098</ele>
        <time>2018-06-08T07:19:16Z</time>
      </trkpt>
      <trkpt lat="44.21479" lon="6.21996">
        <ele>1098</ele>
        <time>2018-06-08T07:19:17Z</time>
      </trkpt>
      <trkpt lat="44.21479" lon="6.21997">
        <ele>1099</ele>
        <time>2018-06-08T07:19:18Z</time>
      </trkpt>
      <trkpt lat="44.21478" lon="6.21999">
        <ele>1099</ele>
        <time>2018-06-08T07:19:19Z</time>
      </trkpt>
      <trkpt lat="44.21478" lon="6.22001">
        <ele>1099</ele>
        <time>2018-06-08T07:19:20Z</time>
      </trkpt>
      <trkpt lat="44.21477" lon="6.22002">
        <ele>1100</ele>
        <time>2018-06-08T07:19:21Z</time>
      </trkpt>
      <trkpt lat="44.21476" lon="6.22004">
        <ele>1100</ele>
        <time>2018-06-08T07:19:22Z</time>
      </trkpt>
      <trkpt lat="44.21475" lon="6.22006">
        <ele>1101</ele>
        <time>2018-06-08T07:19:24Z</time>
      </trkpt>
      <trkpt lat="44.21474" lon="6.22009">
        <ele>1101</ele>
        <time>2018-06-08T07:19:26Z</time>
      </trkpt>
      <trkpt lat="44.21472" lon="6.22011">
        <ele>1101</ele>
        <time>2018-06-08T07:19:28Z</time>
      </trkpt>
      <trkpt lat="44.21471" lon="6.22013">
        <ele>1101</ele>
        <time>2018-06-08T07:19:29Z</time>
      </trkpt>
      <trkpt lat="44.21471" lon="6.22014">
        <ele>1101</ele>
        <time>2018-06-08T07:19:30Z</time>
      </trkpt>
      <trkpt lat="44.21469" lon="6.22017">
        <ele>1101</ele>
        <time>2018-06-08T07:19:32Z</time>
      </trkpt>
      <trkpt lat="44.21468" lon="6.22019">
        <ele>1102</ele>
        <time>2018-06-08T07:19:34Z</time>
      </trkpt>
      <trkpt lat="44.21467" lon="6.22022">
        <ele>1102</ele>
        <time>2018-06-08T07:19:36Z</time>
      </trkpt>
      <trkpt lat="44.21466" lon="6.22024">
        <ele>1102</ele>
        <time>2018-06-08T07:19:38Z</time>
      </trkpt>
      <trkpt lat="44.21465" lon="6.22027">
        <ele>1102</ele>
        <time>2018-06-08T07:19:40Z</time>
      </trkpt>
      <trkpt lat="44.21464" lon="6.22029">
        <ele>1102</ele>
        <time>2018-06-08T07:19:42Z</time>
      </trkpt>
      <trkpt lat="44.21463" lon="6.22031">
        <ele>1102</ele>
        <time>2018-06-08T07:19:44Z</time>
      </trkpt>
      <trkpt lat="44.21463" lon="6.22033">
        <ele>1102</ele>
        <time>2018-06-08T07:19:45Z</time>
      </trkpt>
      <trkpt lat="44.21461" lon="6.22035">
        <ele>1102</ele>
        <time>2018-06-08T07:19:47Z</time>
      </trkpt>
      <trkpt lat="44.2146" lon="6.22037">
        <ele>1102</ele>
        <time>2018-06-08T07:19:49Z</time>
      </trkpt>
      <trkpt lat="44.2146" lon="6.22039">
        <ele>1102</ele>
        <time>2018-06-08T07:19:51Z</time>
      </trkpt>
      <trkpt lat="44.21459" lon="6.22042">
        <ele>1102</ele>
        <time>2018-06-08T07:19:53Z</time>
      </trkpt>
      <trkpt lat="44.21458" lon="6.22044">
        <ele>1102</ele>
        <time>2018-06-08T07:19:55Z</time>
      </trkpt>
      <trkpt lat="44.21458" lon="6.22047">
        <ele>1102</ele>
        <time>2018-06-08T07:19:57Z</time>
      </trkpt>
      <trkpt lat="44.21457" lon="6.22049">
        <ele>1102</ele>
        <time>2018-06-08T07:19:59Z</time>
      </trkpt>
      <trkpt lat="44.21457" lon="6.22051">
        <ele>1102</ele>
        <time>2018-06-08T07:20:01Z</time>
      </trkpt>
      <trkpt lat="44.21455" lon="6.22053">
        <ele>1102</ele>
        <time>2018-06-08T07:20:08Z</time>
      </trkpt>
      <trkpt lat="44.21456" lon="6.22055">
        <ele>1104</ele>
        <time>2018-06-08T07:20:11Z</time>
      </trkpt>
      <trkpt lat="44.21456" lon="6.22058">
        <ele>1105</ele>
        <time>2018-06-08T07:20:13Z</time>
      </trkpt>
      <trkpt lat="44.21457" lon="6.2206">
        <ele>1105</ele>
        <time>2018-06-08T07:20:15Z</time>
      </trkpt>
      <trkpt lat="44.21459" lon="6.22062">
        <ele>1105</ele>
        <time>2018-06-08T07:20:17Z</time>
      </trkpt>
      <trkpt lat="44.2146" lon="6.22064">
        <ele>1105</ele>
        <time>2018-06-08T07:20:19Z</time>
      </trkpt>
      <trkpt lat="44.21462" lon="6.22065">
        <ele>1105</ele>
        <time>2018-06-08T07:20:21Z</time>
      </trkpt>
      <trkpt lat="44.21464" lon="6.22065">
        <ele>1106</ele>
        <time>2018-06-08T07:20:23Z</time>
      </trkpt>
      <trkpt lat="44.21465" lon="6.22066">
        <ele>1106</ele>
        <time>2018-06-08T07:20:24Z</time>
      </trkpt>
      <trkpt lat="44.21467" lon="6.22065">
        <ele>1106</ele>
        <time>2018-06-08T07:20:26Z</time>
      </trkpt>
      <trkpt lat="44.21469" lon="6.22065">
        <ele>1106</ele>
        <time>2018-06-08T07:20:28Z</time>
      </trkpt>
      <trkpt lat="44.21471" lon="6.22065">
        <ele>1106</ele>
        <time>2018-06-08T07:20:30Z</time>
      </trkpt>
      <trkpt lat="44.21473" lon="6.22065">
        <ele>1107</ele>
        <time>2018-06-08T07:20:32Z</time>
      </trkpt>
      <trkpt lat="44.21474" lon="6.22065">
        <ele>1107</ele>
        <time>2018-06-08T07:20:34Z</time>
      </trkpt>
      <trkpt lat="44.21476" lon="6.22065">
        <ele>1108</ele>
        <time>2018-06-08T07:20:36Z</time>
      </trkpt>
      <trkpt lat="44.21478" lon="6.22065">
        <ele>1108</ele>
        <time>2018-06-08T07:20:38Z</time>
      </trkpt>
      <trkpt lat="44.21479" lon="6.22065">
        <ele>1108</ele>
        <time>2018-06-08T07:20:40Z</time>
      </trkpt>
      <trkpt lat="44.21481" lon="6.22066">
        <ele>1109</ele>
        <time>2018-06-08T07:20:42Z</time>
      </trkpt>
      <trkpt lat="44.21483" lon="6.22067">
        <ele>1109</ele>
        <time>2018-06-08T07:20:44Z</time>
      </trkpt>
      <trkpt lat="44.21484" lon="6.22068">
        <ele>1110</ele>
        <time>2018-06-08T07:20:46Z</time>
      </trkpt>
      <trkpt lat="44.21486" lon="6.22069">
        <ele>1110</ele>
        <time>2018-06-08T07:20:48Z</time>
      </trkpt>
      <trkpt lat="44.21488" lon="6.2207">
        <ele>1110</ele>
        <time>2018-06-08T07:20:50Z</time>
      </trkpt>
      <trkpt lat="44.21489" lon="6.22071">
        <ele>1110</ele>
        <time>2018-06-08T07:20:52Z</time>
      </trkpt>
      <trkpt lat="44.21491" lon="6.22072">
        <ele>1110</ele>
        <time>2018-06-08T07:20:55Z</time>
      </trkpt>
      <trkpt lat="44.21492" lon="6.22073">
        <ele>1110</ele>
        <time>2018-06-08T07:20:57Z</time>
      </trkpt>
      <trkpt lat="44.21495" lon="6.22074">
        <ele>1110</ele>
        <time>2018-06-08T07:20:59Z</time>
      </trkpt>
      <trkpt lat="44.21496" lon="6.22075">
        <ele>1110</ele>
        <time>2018-06-08T07:21:00Z</time>
      </trkpt>
      <trkpt lat="44.21497" lon="6.22075">
        <ele>1110</ele>
        <time>2018-06-08T07:21:01Z</time>
      </trkpt>
      <trkpt lat="44.21498" lon="6.22076">
        <ele>1110</ele>
        <time>2018-06-08T07:21:03Z</time>
      </trkpt>
      <trkpt lat="44.215" lon="6.22078">
        <ele>1110</ele>
        <time>2018-06-08T07:21:05Z</time>
      </trkpt>
      <trkpt lat="44.21502" lon="6.22078">
        <ele>1111</ele>
        <time>2018-06-08T07:21:07Z</time>
      </trkpt>
      <trkpt lat="44.21503" lon="6.22077">
        <ele>1111</ele>
        <time>2018-06-08T07:21:09Z</time>
      </trkpt>
      <trkpt lat="44.21504" lon="6.22078">
        <ele>1114</ele>
        <time>2018-06-08T07:21:19Z</time>
      </trkpt>
      <trkpt lat="44.21503" lon="6.22077">
        <ele>1119</ele>
        <time>2018-06-08T07:21:55Z</time>
      </trkpt>
      <trkpt lat="44.21503" lon="6.22075">
        <ele>1119</ele>
        <time>2018-06-08T07:21:58Z</time>
      </trkpt>
      <trkpt lat="44.21503" lon="6.22073">
        <ele>1119</ele>
        <time>2018-06-08T07:22:02Z</time>
      </trkpt>
      <trkpt lat="44.21502" lon="6.22071">
        <ele>1119</ele>
        <time>2018-06-08T07:22:04Z</time>
      </trkpt>
      <trkpt lat="44.21501" lon="6.22069">
        <ele>1119</ele>
        <time>2018-06-08T07:22:06Z</time>
      </trkpt>
      <trkpt lat="44.215" lon="6.22067">
        <ele>1119</ele>
        <time>2018-06-08T07:22:08Z</time>
      </trkpt>
      <trkpt lat="44.215" lon="6.22065">
        <ele>1119</ele>
        <time>2018-06-08T07:22:10Z</time>
      </trkpt>
      <trkpt lat="44.21499" lon="6.22063">
        <ele>1119</ele>
        <time>2018-06-08T07:22:12Z</time>
      </trkpt>
      <trkpt lat="44.21498" lon="6.22061">
        <ele>1119</ele>
        <time>2018-06-08T07:22:14Z</time>
      </trkpt>
      <trkpt lat="44.21498" lon="6.22059">
        <ele>1120</ele>
        <time>2018-06-08T07:22:16Z</time>
      </trkpt>
      <trkpt lat="44.21498" lon="6.22057">
        <ele>1120</ele>
        <time>2018-06-08T07:22:18Z</time>
      </trkpt>
      <trkpt lat="44.21498" lon="6.22056">
        <ele>1120</ele>
        <time>2018-06-08T07:22:20Z</time>
      </trkpt>
      <trkpt lat="44.21498" lon="6.22054">
        <ele>1121</ele>
        <time>2018-06-08T07:22:24Z</time>
      </trkpt>
      <trkpt lat="44.21497" lon="6.22052">
        <ele>1121</ele>
        <time>2018-06-08T07:22:26Z</time>
      </trkpt>
      <trkpt lat="44.21498" lon="6.2205">
        <ele>1121</ele>
        <time>2018-06-08T07:22:28Z</time>
      </trkpt>
      <trkpt lat="44.21499" lon="6.2205">
        <ele>1121</ele>
        <time>2018-06-08T07:22:30Z</time>
      </trkpt>
      <trkpt lat="44.215" lon="6.22051">
        <ele>1122</ele>
        <time>2018-06-08T07:22:33Z</time>
      </trkpt>
      <trkpt lat="44.21501" lon="6.22053">
        <ele>1122</ele>
        <time>2018-06-08T07:22:36Z</time>
      </trkpt>
      <trkpt lat="44.21502" lon="6.22054">
        <ele>1123</ele>
        <time>2018-06-08T07:22:38Z</time>
      </trkpt>
      <trkpt lat="44.21504" lon="6.22056">
        <ele>1123</ele>
        <time>2018-06-08T07:22:41Z</time>
      </trkpt>
      <trkpt lat="44.21505" lon="6.22057">
        <ele>1124</ele>
        <time>2018-06-08T07:22:44Z</time>
      </trkpt>
      <trkpt lat="44.21507" lon="6.22056">
        <ele>1125</ele>
        <time>2018-06-08T07:22:47Z</time>
      </trkpt>
      <trkpt lat="44.21508" lon="6.22054">
        <ele>1125</ele>
        <time>2018-06-08T07:22:50Z</time>
      </trkpt>
      <trkpt lat="44.21508" lon="6.22053">
        <ele>1126</ele>
        <time>2018-06-08T07:22:52Z</time>
      </trkpt>
      <trkpt lat="44.21507" lon="6.22051">
        <ele>1126</ele>
        <time>2018-06-08T07:22:54Z</time>
      </trkpt>
      <trkpt lat="44.21508" lon="6.22049">
        <ele>1126</ele>
        <time>2018-06-08T07:22:56Z</time>
      </trkpt>
      <trkpt lat="44.21508" lon="6.22048">
        <ele>1126</ele>
        <time>2018-06-08T07:22:58Z</time>
      </trkpt>
      <trkpt lat="44.21509" lon="6.22045">
        <ele>1127</ele>
        <time>2018-06-08T07:23:01Z</time>
      </trkpt>
      <trkpt lat="44.2151" lon="6.22044">
        <ele>1128</ele>
        <time>2018-06-08T07:23:03Z</time>
      </trkpt>
      <trkpt lat="44.2151" lon="6.22042">
        <ele>1128</ele>
        <time>2018-06-08T07:23:05Z</time>
      </trkpt>
      <trkpt lat="44.21511" lon="6.2204">
        <ele>1129</ele>
        <time>2018-06-08T07:23:07Z</time>
      </trkpt>
      <trkpt lat="44.21513" lon="6.22038">
        <ele>1129</ele>
        <time>2018-06-08T07:23:10Z</time>
      </trkpt>
      <trkpt lat="44.21513" lon="6.22036">
        <ele>1129</ele>
        <time>2018-06-08T07:23:12Z</time>
      </trkpt>
      <trkpt lat="44.21514" lon="6.22034">
        <ele>1130</ele>
        <time>2018-06-08T07:23:14Z</time>
      </trkpt>
      <trkpt lat="44.21515" lon="6.22033">
        <ele>1130</ele>
        <time>2018-06-08T07:23:16Z</time>
      </trkpt>
      <trkpt lat="44.21516" lon="6.22031">
        <ele>1131</ele>
        <time>2018-06-08T07:23:18Z</time>
      </trkpt>
      <trkpt lat="44.21517" lon="6.2203">
        <ele>1131</ele>
        <time>2018-06-08T07:23:20Z</time>
      </trkpt>
      <trkpt lat="44.21518" lon="6.22029">
        <ele>1132</ele>
        <time>2018-06-08T07:23:23Z</time>
      </trkpt>
      <trkpt lat="44.21519" lon="6.22027">
        <ele>1132</ele>
        <time>2018-06-08T07:23:25Z</time>
      </trkpt>
      <trkpt lat="44.2152" lon="6.22026">
        <ele>1132</ele>
        <time>2018-06-08T07:23:28Z</time>
      </trkpt>
      <trkpt lat="44.21522" lon="6.22025">
        <ele>1133</ele>
        <time>2018-06-08T07:23:30Z</time>
      </trkpt>
      <trkpt lat="44.21523" lon="6.22025">
        <ele>1133</ele>
        <time>2018-06-08T07:23:32Z</time>
      </trkpt>
      <trkpt lat="44.21524" lon="6.22026">
        <ele>1133</ele>
        <time>2018-06-08T07:23:34Z</time>
      </trkpt>
      <trkpt lat="44.21526" lon="6.22025">
        <ele>1134</ele>
        <time>2018-06-08T07:23:36Z</time>
      </trkpt>
      <trkpt lat="44.21527" lon="6.22025">
        <ele>1134</ele>
        <time>2018-06-08T07:23:38Z</time>
      </trkpt>
      <trkpt lat="44.21528" lon="6.22024">
        <ele>1134</ele>
        <time>2018-06-08T07:23:40Z</time>
      </trkpt>
      <trkpt lat="44.2153" lon="6.22024">
        <ele>1134</ele>
        <time>2018-06-08T07:23:42Z</time>
      </trkpt>
      <trkpt lat="44.21532" lon="6.22022">
        <ele>1134</ele>
        <time>2018-06-08T07:23:44Z</time>
      </trkpt>
      <trkpt lat="44.21533" lon="6.22021">
        <ele>1134</ele>
        <time>2018-06-08T07:23:46Z</time>
      </trkpt>
      <trkpt lat="44.21534" lon="6.22019">
        <ele>1135</ele>
        <time>2018-06-08T07:23:48Z</time>
      </trkpt>
      <trkpt lat="44.21535" lon="6.22018">
        <ele>1135</ele>
        <time>2018-06-08T07:23:50Z</time>
      </trkpt>
      <trkpt lat="44.21536" lon="6.22016">
        <ele>1135</ele>
        <time>2018-06-08T07:23:52Z</time>
      </trkpt>
      <trkpt lat="44.21537" lon="6.22014">
        <ele>1136</ele>
        <time>2018-06-08T07:23:54Z</time>
      </trkpt>
      <trkpt lat="44.21538" lon="6.22013">
        <ele>1136</ele>
        <time>2018-06-08T07:23:56Z</time>
      </trkpt>
      <trkpt lat="44.2154" lon="6.22011">
        <ele>1136</ele>
        <time>2018-06-08T07:23:58Z</time>
      </trkpt>
      <trkpt lat="44.21542" lon="6.22011">
        <ele>1136</ele>
        <time>2018-06-08T07:24:00Z</time>
      </trkpt>
      <trkpt lat="44.21544" lon="6.2201">
        <ele>1136</ele>
        <time>2018-06-08T07:24:02Z</time>
      </trkpt>
      <trkpt lat="44.21545" lon="6.22009">
        <ele>1136</ele>
        <time>2018-06-08T07:24:04Z</time>
      </trkpt>
      <trkpt lat="44.21547" lon="6.22009">
        <ele>1136</ele>
        <time>2018-06-08T07:24:06Z</time>
      </trkpt>
      <trkpt lat="44.21548" lon="6.22008">
        <ele>1136</ele>
        <time>2018-06-08T07:24:08Z</time>
      </trkpt>
      <trkpt lat="44.2155" lon="6.22007">
        <ele>1136</ele>
        <time>2018-06-08T07:24:10Z</time>
      </trkpt>
      <trkpt lat="44.21552" lon="6.22006">
        <ele>1137</ele>
        <time>2018-06-08T07:24:12Z</time>
      </trkpt>
      <trkpt lat="44.21554" lon="6.22005">
        <ele>1137</ele>
        <time>2018-06-08T07:24:14Z</time>
      </trkpt>
      <trkpt lat="44.21556" lon="6.22003">
        <ele>1137</ele>
        <time>2018-06-08T07:24:16Z</time>
      </trkpt>
      <trkpt lat="44.21557" lon="6.22003">
        <ele>1137</ele>
        <time>2018-06-08T07:24:17Z</time>
      </trkpt>
      <trkpt lat="44.21559" lon="6.22002">
        <ele>1137</ele>
        <time>2018-06-08T07:24:19Z</time>
      </trkpt>
      <trkpt lat="44.2156" lon="6.22001">
        <ele>1137</ele>
        <time>2018-06-08T07:24:20Z</time>
      </trkpt>
      <trkpt lat="44.21561" lon="6.22001">
        <ele>1137</ele>
        <time>2018-06-08T07:24:21Z</time>
      </trkpt>
      <trkpt lat="44.21563" lon="6.22">
        <ele>1137</ele>
        <time>2018-06-08T07:24:23Z</time>
      </trkpt>
      <trkpt lat="44.21565" lon="6.21998">
        <ele>1138</ele>
        <time>2018-06-08T07:24:25Z</time>
      </trkpt>
      <trkpt lat="44.21566" lon="6.21996">
        <ele>1138</ele>
        <time>2018-06-08T07:24:27Z</time>
      </trkpt>
      <trkpt lat="44.21568" lon="6.21994">
        <ele>1138</ele>
        <time>2018-06-08T07:24:29Z</time>
      </trkpt>
      <trkpt lat="44.21569" lon="6.21993">
        <ele>1138</ele>
        <time>2018-06-08T07:24:31Z</time>
      </trkpt>
      <trkpt lat="44.21571" lon="6.21991">
        <ele>1139</ele>
        <time>2018-06-08T07:24:34Z</time>
      </trkpt>
      <trkpt lat="44.21572" lon="6.2199">
        <ele>1139</ele>
        <time>2018-06-08T07:24:36Z</time>
      </trkpt>
      <trkpt lat="44.21574" lon="6.21988">
        <ele>1139</ele>
        <time>2018-06-08T07:24:38Z</time>
      </trkpt>
      <trkpt lat="44.21575" lon="6.21986">
        <ele>1140</ele>
        <time>2018-06-08T07:24:40Z</time>
      </trkpt>
      <trkpt lat="44.21577" lon="6.21984">
        <ele>1140</ele>
        <time>2018-06-08T07:24:42Z</time>
      </trkpt>
      <trkpt lat="44.21579" lon="6.21982">
        <ele>1140</ele>
        <time>2018-06-08T07:24:44Z</time>
      </trkpt>
      <trkpt lat="44.2158" lon="6.2198">
        <ele>1140</ele>
        <time>2018-06-08T07:24:46Z</time>
      </trkpt>
      <trkpt lat="44.21582" lon="6.21978">
        <ele>1140</ele>
        <time>2018-06-08T07:24:48Z</time>
      </trkpt>
      <trkpt lat="44.21582" lon="6.21977">
        <ele>1140</ele>
        <time>2018-06-08T07:24:49Z</time>
      </trkpt>
      <trkpt lat="44.21583" lon="6.21974">
        <ele>1140</ele>
        <time>2018-06-08T07:24:51Z</time>
      </trkpt>
      <trkpt lat="44.21584" lon="6.21972">
        <ele>1140</ele>
        <time>2018-06-08T07:24:53Z</time>
      </trkpt>
      <trkpt lat="44.21584" lon="6.21971">
        <ele>1140</ele>
        <time>2018-06-08T07:24:54Z</time>
      </trkpt>
      <trkpt lat="44.21585" lon="6.21969">
        <ele>1140</ele>
        <time>2018-06-08T07:24:55Z</time>
      </trkpt>
      <trkpt lat="44.21585" lon="6.21967">
        <ele>1140</ele>
        <time>2018-06-08T07:24:57Z</time>
      </trkpt>
      <trkpt lat="44.21585" lon="6.21965">
        <ele>1140</ele>
        <time>2018-06-08T07:24:59Z</time>
      </trkpt>
      <trkpt lat="44.21585" lon="6.21963">
        <ele>1140</ele>
        <time>2018-06-08T07:25:01Z</time>
      </trkpt>
      <trkpt lat="44.21585" lon="6.2196">
        <ele>1140</ele>
        <time>2018-06-08T07:25:03Z</time>
      </trkpt>
      <trkpt lat="44.21585" lon="6.21958">
        <ele>1140</ele>
        <time>2018-06-08T07:25:05Z</time>
      </trkpt>
      <trkpt lat="44.21585" lon="6.21956">
        <ele>1140</ele>
        <time>2018-06-08T07:25:06Z</time>
      </trkpt>
      <trkpt lat="44.21585" lon="6.21954">
        <ele>1140</ele>
        <time>2018-06-08T07:25:08Z</time>
      </trkpt>
      <trkpt lat="44.21585" lon="6.21952">
        <ele>1140</ele>
        <time>2018-06-08T07:25:09Z</time>
      </trkpt>
      <trkpt lat="44.21585" lon="6.2195">
        <ele>1141</ele>
        <time>2018-06-08T07:25:11Z</time>
      </trkpt>
      <trkpt lat="44.21585" lon="6.21948">
        <ele>1141</ele>
        <time>2018-06-08T07:25:12Z</time>
      </trkpt>
      <trkpt lat="44.21585" lon="6.21946">
        <ele>1141</ele>
        <time>2018-06-08T07:25:14Z</time>
      </trkpt>
      <trkpt lat="44.21585" lon="6.21944">
        <ele>1141</ele>
        <time>2018-06-08T07:25:16Z</time>
      </trkpt>
      <trkpt lat="44.21585" lon="6.21942">
        <ele>1141</ele>
        <time>2018-06-08T07:25:18Z</time>
      </trkpt>
      <trkpt lat="44.21585" lon="6.21941">
        <ele>1141</ele>
        <time>2018-06-08T07:25:20Z</time>
      </trkpt>
      <trkpt lat="44.21585" lon="6.21939">
        <ele>1141</ele>
        <time>2018-06-08T07:25:22Z</time>
      </trkpt>
      <trkpt lat="44.21585" lon="6.21936">
        <ele>1142</ele>
        <time>2018-06-08T07:25:24Z</time>
      </trkpt>
      <trkpt lat="44.21585" lon="6.21935">
        <ele>1142</ele>
        <time>2018-06-08T07:25:25Z</time>
      </trkpt>
      <trkpt lat="44.21585" lon="6.21932">
        <ele>1142</ele>
        <time>2018-06-08T07:25:27Z</time>
      </trkpt>
      <trkpt lat="44.21584" lon="6.2193">
        <ele>1142</ele>
        <time>2018-06-08T07:25:29Z</time>
      </trkpt>
      <trkpt lat="44.21584" lon="6.21927">
        <ele>1142</ele>
        <time>2018-06-08T07:25:31Z</time>
      </trkpt>
      <trkpt lat="44.21583" lon="6.21925">
        <ele>1142</ele>
        <time>2018-06-08T07:25:33Z</time>
      </trkpt>
      <trkpt lat="44.21582" lon="6.21923">
        <ele>1142</ele>
        <time>2018-06-08T07:25:34Z</time>
      </trkpt>
      <trkpt lat="44.21582" lon="6.21921">
        <ele>1142</ele>
        <time>2018-06-08T07:25:36Z</time>
      </trkpt>
      <trkpt lat="44.21582" lon="6.21919">
        <ele>1142</ele>
        <time>2018-06-08T07:25:37Z</time>
      </trkpt>
      <trkpt lat="44.21582" lon="6.21916">
        <ele>1142</ele>
        <time>2018-06-08T07:25:39Z</time>
      </trkpt>
      <trkpt lat="44.21582" lon="6.21914">
        <ele>1142</ele>
        <time>2018-06-08T07:25:41Z</time>
      </trkpt>
      <trkpt lat="44.21582" lon="6.21911">
        <ele>1142</ele>
        <time>2018-06-08T07:25:43Z</time>
      </trkpt>
      <trkpt lat="44.21582" lon="6.21909">
        <ele>1142</ele>
        <time>2018-06-08T07:25:45Z</time>
      </trkpt>
      <trkpt lat="44.21581" lon="6.21906">
        <ele>1142</ele>
        <time>2018-06-08T07:25:47Z</time>
      </trkpt>
      <trkpt lat="44.21581" lon="6.21904">
        <ele>1142</ele>
        <time>2018-06-08T07:25:48Z</time>
      </trkpt>
      <trkpt lat="44.21581" lon="6.21903">
        <ele>1142</ele>
        <time>2018-06-08T07:25:49Z</time>
      </trkpt>
      <trkpt lat="44.21581" lon="6.21901">
        <ele>1142</ele>
        <time>2018-06-08T07:25:50Z</time>
      </trkpt>
      <trkpt lat="44.21581" lon="6.219">
        <ele>1142</ele>
        <time>2018-06-08T07:25:51Z</time>
      </trkpt>
      <trkpt lat="44.21581" lon="6.21897">
        <ele>1142</ele>
        <time>2018-06-08T07:25:53Z</time>
      </trkpt>
      <trkpt lat="44.21581" lon="6.21895">
        <ele>1142</ele>
        <time>2018-06-08T07:25:54Z</time>
      </trkpt>
      <trkpt lat="44.21581" lon="6.21894">
        <ele>1142</ele>
        <time>2018-06-08T07:25:55Z</time>
      </trkpt>
      <trkpt lat="44.21581" lon="6.21892">
        <ele>1142</ele>
        <time>2018-06-08T07:25:56Z</time>
      </trkpt>
      <trkpt lat="44.2158" lon="6.21891">
        <ele>1142</ele>
        <time>2018-06-08T07:25:57Z</time>
      </trkpt>
      <trkpt lat="44.2158" lon="6.21889">
        <ele>1142</ele>
        <time>2018-06-08T07:25:58Z</time>
      </trkpt>
      <trkpt lat="44.2158" lon="6.21888">
        <ele>1142</ele>
        <time>2018-06-08T07:25:59Z</time>
      </trkpt>
      <trkpt lat="44.2158" lon="6.21886">
        <ele>1142</ele>
        <time>2018-06-08T07:26:00Z</time>
      </trkpt>
      <trkpt lat="44.2158" lon="6.21885">
        <ele>1142</ele>
        <time>2018-06-08T07:26:01Z</time>
      </trkpt>
      <trkpt lat="44.2158" lon="6.21883">
        <ele>1142</ele>
        <time>2018-06-08T07:26:02Z</time>
      </trkpt>
      <trkpt lat="44.21581" lon="6.21882">
        <ele>1142</ele>
        <time>2018-06-08T07:26:03Z</time>
      </trkpt>
      <trkpt lat="44.21581" lon="6.2188">
        <ele>1142</ele>
        <time>2018-06-08T07:26:04Z</time>
      </trkpt>
      <trkpt lat="44.21581" lon="6.21879">
        <ele>1142</ele>
        <time>2018-06-08T07:26:05Z</time>
      </trkpt>
      <trkpt lat="44.21581" lon="6.21877">
        <ele>1142</ele>
        <time>2018-06-08T07:26:06Z</time>
      </trkpt>
      <trkpt lat="44.21581" lon="6.21876">
        <ele>1142</ele>
        <time>2018-06-08T07:26:07Z</time>
      </trkpt>
      <trkpt lat="44.21582" lon="6.21874">
        <ele>1142</ele>
        <time>2018-06-08T07:26:08Z</time>
      </trkpt>
      <trkpt lat="44.21582" lon="6.21873">
        <ele>1142</ele>
        <time>2018-06-08T07:26:09Z</time>
      </trkpt>
      <trkpt lat="44.21582" lon="6.21871">
        <ele>1142</ele>
        <time>2018-06-08T07:26:10Z</time>
      </trkpt>
      <trkpt lat="44.21584" lon="6.21869">
        <ele>1142</ele>
        <time>2018-06-08T07:26:12Z</time>
      </trkpt>
      <trkpt lat="44.21584" lon="6.21867">
        <ele>1142</ele>
        <time>2018-06-08T07:26:13Z</time>
      </trkpt>
      <trkpt lat="44.21584" lon="6.21866">
        <ele>1142</ele>
        <time>2018-06-08T07:26:14Z</time>
      </trkpt>
      <trkpt lat="44.21584" lon="6.21863">
        <ele>1142</ele>
        <time>2018-06-08T07:26:16Z</time>
      </trkpt>
      <trkpt lat="44.21585" lon="6.21862">
        <ele>1142</ele>
        <time>2018-06-08T07:26:17Z</time>
      </trkpt>
      <trkpt lat="44.21585" lon="6.21859">
        <ele>1143</ele>
        <time>2018-06-08T07:26:19Z</time>
      </trkpt>
      <trkpt lat="44.21586" lon="6.21857">
        <ele>1143</ele>
        <time>2018-06-08T07:26:21Z</time>
      </trkpt>
      <trkpt lat="44.21586" lon="6.21855">
        <ele>1143</ele>
        <time>2018-06-08T07:26:22Z</time>
      </trkpt>
      <trkpt lat="44.21587" lon="6.21854">
        <ele>1143</ele>
        <time>2018-06-08T07:26:23Z</time>
      </trkpt>
      <trkpt lat="44.21587" lon="6.21851">
        <ele>1143</ele>
        <time>2018-06-08T07:26:25Z</time>
      </trkpt>
      <trkpt lat="44.21587" lon="6.21848">
        <ele>1143</ele>
        <time>2018-06-08T07:26:27Z</time>
      </trkpt>
      <trkpt lat="44.21587" lon="6.21847">
        <ele>1144</ele>
        <time>2018-06-08T07:26:28Z</time>
      </trkpt>
      <trkpt lat="44.21587" lon="6.21844">
        <ele>1144</ele>
        <time>2018-06-08T07:26:30Z</time>
      </trkpt>
      <trkpt lat="44.21587" lon="6.21842">
        <ele>1144</ele>
        <time>2018-06-08T07:26:32Z</time>
      </trkpt>
      <trkpt lat="44.21586" lon="6.21839">
        <ele>1144</ele>
        <time>2018-06-08T07:26:34Z</time>
      </trkpt>
      <trkpt lat="44.21586" lon="6.21838">
        <ele>1144</ele>
        <time>2018-06-08T07:26:35Z</time>
      </trkpt>
      <trkpt lat="44.21586" lon="6.21836">
        <ele>1144</ele>
        <time>2018-06-08T07:26:36Z</time>
      </trkpt>
      <trkpt lat="44.21586" lon="6.21835">
        <ele>1144</ele>
        <time>2018-06-08T07:26:37Z</time>
      </trkpt>
      <trkpt lat="44.21586" lon="6.21833">
        <ele>1144</ele>
        <time>2018-06-08T07:26:38Z</time>
      </trkpt>
      <trkpt lat="44.21586" lon="6.21831">
        <ele>1144</ele>
        <time>2018-06-08T07:26:40Z</time>
      </trkpt>
      <trkpt lat="44.21586" lon="6.21829">
        <ele>1144</ele>
        <time>2018-06-08T07:26:42Z</time>
      </trkpt>
      <trkpt lat="44.21586" lon="6.21828">
        <ele>1144</ele>
        <time>2018-06-08T07:26:43Z</time>
      </trkpt>
      <trkpt lat="44.21586" lon="6.21825">
        <ele>1144</ele>
        <time>2018-06-08T07:26:45Z</time>
      </trkpt>
      <trkpt lat="44.21587" lon="6.21824">
        <ele>1144</ele>
        <time>2018-06-08T07:26:46Z</time>
      </trkpt>
      <trkpt lat="44.21587" lon="6.21821">
        <ele>1144</ele>
        <time>2018-06-08T07:26:48Z</time>
      </trkpt>
      <trkpt lat="44.21587" lon="6.2182">
        <ele>1144</ele>
        <time>2018-06-08T07:26:49Z</time>
      </trkpt>
      <trkpt lat="44.21587" lon="6.21818">
        <ele>1144</ele>
        <time>2018-06-08T07:26:50Z</time>
      </trkpt>
      <trkpt lat="44.21587" lon="6.21816">
        <ele>1144</ele>
        <time>2018-06-08T07:26:52Z</time>
      </trkpt>
      <trkpt lat="44.21587" lon="6.21813">
        <ele>1145</ele>
        <time>2018-06-08T07:26:54Z</time>
      </trkpt>
      <trkpt lat="44.21587" lon="6.21812">
        <ele>1145</ele>
        <time>2018-06-08T07:26:55Z</time>
      </trkpt>
      <trkpt lat="44.21587" lon="6.2181">
        <ele>1145</ele>
        <time>2018-06-08T07:26:56Z</time>
      </trkpt>
      <trkpt lat="44.21587" lon="6.21808">
        <ele>1145</ele>
        <time>2018-06-08T07:26:58Z</time>
      </trkpt>
      <trkpt lat="44.21588" lon="6.21805">
        <ele>1145</ele>
        <time>2018-06-08T07:27:00Z</time>
      </trkpt>
      <trkpt lat="44.21588" lon="6.21803">
        <ele>1145</ele>
        <time>2018-06-08T07:27:02Z</time>
      </trkpt>
      <trkpt lat="44.21589" lon="6.218">
        <ele>1145</ele>
        <time>2018-06-08T07:27:04Z</time>
      </trkpt>
      <trkpt lat="44.21589" lon="6.21798">
        <ele>1145</ele>
        <time>2018-06-08T07:27:06Z</time>
      </trkpt>
      <trkpt lat="44.2159" lon="6.21796">
        <ele>1145</ele>
        <time>2018-06-08T07:27:08Z</time>
      </trkpt>
      <trkpt lat="44.2159" lon="6.21793">
        <ele>1145</ele>
        <time>2018-06-08T07:27:10Z</time>
      </trkpt>
      <trkpt lat="44.2159" lon="6.21791">
        <ele>1145</ele>
        <time>2018-06-08T07:27:12Z</time>
      </trkpt>
      <trkpt lat="44.21592" lon="6.21788">
        <ele>1146</ele>
        <time>2018-06-08T07:27:14Z</time>
      </trkpt>
      <trkpt lat="44.21593" lon="6.21787">
        <ele>1146</ele>
        <time>2018-06-08T07:27:16Z</time>
      </trkpt>
      <trkpt lat="44.21595" lon="6.21785">
        <ele>1146</ele>
        <time>2018-06-08T07:27:18Z</time>
      </trkpt>
      <trkpt lat="44.21597" lon="6.21783">
        <ele>1146</ele>
        <time>2018-06-08T07:27:20Z</time>
      </trkpt>
      <trkpt lat="44.21598" lon="6.21782">
        <ele>1146</ele>
        <time>2018-06-08T07:27:22Z</time>
      </trkpt>
      <trkpt lat="44.216" lon="6.2178">
        <ele>1146</ele>
        <time>2018-06-08T07:27:24Z</time>
      </trkpt>
      <trkpt lat="44.21602" lon="6.21779">
        <ele>1146</ele>
        <time>2018-06-08T07:27:26Z</time>
      </trkpt>
      <trkpt lat="44.21604" lon="6.21777">
        <ele>1146</ele>
        <time>2018-06-08T07:27:28Z</time>
      </trkpt>
      <trkpt lat="44.21605" lon="6.21775">
        <ele>1146</ele>
        <time>2018-06-08T07:27:30Z</time>
      </trkpt>
      <trkpt lat="44.21606" lon="6.21773">
        <ele>1147</ele>
        <time>2018-06-08T07:27:32Z</time>
      </trkpt>
      <trkpt lat="44.21608" lon="6.2177">
        <ele>1148</ele>
        <time>2018-06-08T07:27:34Z</time>
      </trkpt>
      <trkpt lat="44.21609" lon="6.21769">
        <ele>1148</ele>
        <time>2018-06-08T07:27:36Z</time>
      </trkpt>
      <trkpt lat="44.21611" lon="6.21767">
        <ele>1148</ele>
        <time>2018-06-08T07:27:38Z</time>
      </trkpt>
      <trkpt lat="44.21611" lon="6.21765">
        <ele>1148</ele>
        <time>2018-06-08T07:27:40Z</time>
      </trkpt>
      <trkpt lat="44.21612" lon="6.21764">
        <ele>1149</ele>
        <time>2018-06-08T07:27:41Z</time>
      </trkpt>
      <trkpt lat="44.21613" lon="6.21761">
        <ele>1149</ele>
        <time>2018-06-08T07:27:43Z</time>
      </trkpt>
      <trkpt lat="44.21614" lon="6.21759">
        <ele>1150</ele>
        <time>2018-06-08T07:27:45Z</time>
      </trkpt>
      <trkpt lat="44.21615" lon="6.21757">
        <ele>1150</ele>
        <time>2018-06-08T07:27:47Z</time>
      </trkpt>
      <trkpt lat="44.21616" lon="6.21755">
        <ele>1150</ele>
        <time>2018-06-08T07:27:49Z</time>
      </trkpt>
      <trkpt lat="44.21617" lon="6.21753">
        <ele>1150</ele>
        <time>2018-06-08T07:27:51Z</time>
      </trkpt>
      <trkpt lat="44.21617" lon="6.2175">
        <ele>1150</ele>
        <time>2018-06-08T07:27:53Z</time>
      </trkpt>
      <trkpt lat="44.21618" lon="6.21748">
        <ele>1151</ele>
        <time>2018-06-08T07:27:55Z</time>
      </trkpt>
      <trkpt lat="44.21618" lon="6.21746">
        <ele>1151</ele>
        <time>2018-06-08T07:27:57Z</time>
      </trkpt>
      <trkpt lat="44.21618" lon="6.21743">
        <ele>1152</ele>
        <time>2018-06-08T07:27:59Z</time>
      </trkpt>
      <trkpt lat="44.21618" lon="6.21741">
        <ele>1152</ele>
        <time>2018-06-08T07:28:01Z</time>
      </trkpt>
      <trkpt lat="44.21618" lon="6.21739">
        <ele>1153</ele>
        <time>2018-06-08T07:28:03Z</time>
      </trkpt>
      <trkpt lat="44.21617" lon="6.21737">
        <ele>1154</ele>
        <time>2018-06-08T07:28:04Z</time>
      </trkpt>
      <trkpt lat="44.21617" lon="6.21736">
        <ele>1154</ele>
        <time>2018-06-08T07:28:05Z</time>
      </trkpt>
      <trkpt lat="44.21617" lon="6.21734">
        <ele>1154</ele>
        <time>2018-06-08T07:28:06Z</time>
      </trkpt>
      <trkpt lat="44.21617" lon="6.21733">
        <ele>1154</ele>
        <time>2018-06-08T07:28:07Z</time>
      </trkpt>
      <trkpt lat="44.21616" lon="6.21731">
        <ele>1155</ele>
        <time>2018-06-08T07:28:08Z</time>
      </trkpt>
      <trkpt lat="44.21616" lon="6.2173">
        <ele>1155</ele>
        <time>2018-06-08T07:28:09Z</time>
      </trkpt>
      <trkpt lat="44.21616" lon="6.21728">
        <ele>1155</ele>
        <time>2018-06-08T07:28:10Z</time>
      </trkpt>
      <trkpt lat="44.21615" lon="6.21727">
        <ele>1155</ele>
        <time>2018-06-08T07:28:11Z</time>
      </trkpt>
      <trkpt lat="44.21614" lon="6.21725">
        <ele>1155</ele>
        <time>2018-06-08T07:28:13Z</time>
      </trkpt>
      <trkpt lat="44.21613" lon="6.21723">
        <ele>1155</ele>
        <time>2018-06-08T07:28:15Z</time>
      </trkpt>
      <trkpt lat="44.21612" lon="6.21721">
        <ele>1155</ele>
        <time>2018-06-08T07:28:17Z</time>
      </trkpt>
      <trkpt lat="44.21611" lon="6.21718">
        <ele>1155</ele>
        <time>2018-06-08T07:28:19Z</time>
      </trkpt>
      <trkpt lat="44.2161" lon="6.21716">
        <ele>1155</ele>
        <time>2018-06-08T07:28:21Z</time>
      </trkpt>
      <trkpt lat="44.21609" lon="6.21715">
        <ele>1155</ele>
        <time>2018-06-08T07:28:23Z</time>
      </trkpt>
      <trkpt lat="44.21609" lon="6.21713">
        <ele>1155</ele>
        <time>2018-06-08T07:28:26Z</time>
      </trkpt>
      <trkpt lat="44.21608" lon="6.21711">
        <ele>1155</ele>
        <time>2018-06-08T07:28:28Z</time>
      </trkpt>
      <trkpt lat="44.21608" lon="6.21708">
        <ele>1155</ele>
        <time>2018-06-08T07:28:30Z</time>
      </trkpt>
      <trkpt lat="44.21608" lon="6.21707">
        <ele>1155</ele>
        <time>2018-06-08T07:28:31Z</time>
      </trkpt>
      <trkpt lat="44.21607" lon="6.21705">
        <ele>1155</ele>
        <time>2018-06-08T07:28:32Z</time>
      </trkpt>
      <trkpt lat="44.21607" lon="6.21703">
        <ele>1155</ele>
        <time>2018-06-08T07:28:33Z</time>
      </trkpt>
      <trkpt lat="44.21608" lon="6.21701">
        <ele>1155</ele>
        <time>2018-06-08T07:28:34Z</time>
      </trkpt>
      <trkpt lat="44.21608" lon="6.217">
        <ele>1155</ele>
        <time>2018-06-08T07:28:35Z</time>
      </trkpt>
      <trkpt lat="44.21608" lon="6.21698">
        <ele>1155</ele>
        <time>2018-06-08T07:28:36Z</time>
      </trkpt>
      <trkpt lat="44.21608" lon="6.21697">
        <ele>1155</ele>
        <time>2018-06-08T07:28:37Z</time>
      </trkpt>
      <trkpt lat="44.21608" lon="6.21695">
        <ele>1155</ele>
        <time>2018-06-08T07:28:38Z</time>
      </trkpt>
      <trkpt lat="44.21609" lon="6.21693">
        <ele>1155</ele>
        <time>2018-06-08T07:28:39Z</time>
      </trkpt>
      <trkpt lat="44.2161" lon="6.21691">
        <ele>1155</ele>
        <time>2018-06-08T07:28:41Z</time>
      </trkpt>
      <trkpt lat="44.2161" lon="6.2169">
        <ele>1155</ele>
        <time>2018-06-08T07:28:42Z</time>
      </trkpt>
      <trkpt lat="44.2161" lon="6.21688">
        <ele>1155</ele>
        <time>2018-06-08T07:28:43Z</time>
      </trkpt>
      <trkpt lat="44.2161" lon="6.21686">
        <ele>1155</ele>
        <time>2018-06-08T07:28:44Z</time>
      </trkpt>
      <trkpt lat="44.2161" lon="6.21685">
        <ele>1155</ele>
        <time>2018-06-08T07:28:45Z</time>
      </trkpt>
      <trkpt lat="44.2161" lon="6.21683">
        <ele>1154</ele>
        <time>2018-06-08T07:28:46Z</time>
      </trkpt>
      <trkpt lat="44.2161" lon="6.21681">
        <ele>1154</ele>
        <time>2018-06-08T07:28:47Z</time>
      </trkpt>
      <trkpt lat="44.2161" lon="6.21679">
        <ele>1154</ele>
        <time>2018-06-08T07:28:48Z</time>
      </trkpt>
      <trkpt lat="44.2161" lon="6.21678">
        <ele>1154</ele>
        <time>2018-06-08T07:28:49Z</time>
      </trkpt>
      <trkpt lat="44.2161" lon="6.21676">
        <ele>1154</ele>
        <time>2018-06-08T07:28:50Z</time>
      </trkpt>
      <trkpt lat="44.2161" lon="6.21675">
        <ele>1154</ele>
        <time>2018-06-08T07:28:51Z</time>
      </trkpt>
      <trkpt lat="44.21611" lon="6.21673">
        <ele>1154</ele>
        <time>2018-06-08T07:28:52Z</time>
      </trkpt>
      <trkpt lat="44.21611" lon="6.21671">
        <ele>1154</ele>
        <time>2018-06-08T07:28:53Z</time>
      </trkpt>
      <trkpt lat="44.21611" lon="6.2167">
        <ele>1154</ele>
        <time>2018-06-08T07:28:54Z</time>
      </trkpt>
      <trkpt lat="44.21611" lon="6.21668">
        <ele>1154</ele>
        <time>2018-06-08T07:28:55Z</time>
      </trkpt>
      <trkpt lat="44.21612" lon="6.21666">
        <ele>1154</ele>
        <time>2018-06-08T07:28:57Z</time>
      </trkpt>
      <trkpt lat="44.21613" lon="6.21664">
        <ele>1154</ele>
        <time>2018-06-08T07:28:59Z</time>
      </trkpt>
      <trkpt lat="44.21613" lon="6.21662">
        <ele>1154</ele>
        <time>2018-06-08T07:29:01Z</time>
      </trkpt>
      <trkpt lat="44.21614" lon="6.2166">
        <ele>1154</ele>
        <time>2018-06-08T07:29:05Z</time>
      </trkpt>
      <trkpt lat="44.21614" lon="6.21657">
        <ele>1154</ele>
        <time>2018-06-08T07:29:07Z</time>
      </trkpt>
      <trkpt lat="44.21615" lon="6.21655">
        <ele>1154</ele>
        <time>2018-06-08T07:29:09Z</time>
      </trkpt>
      <trkpt lat="44.21616" lon="6.21652">
        <ele>1154</ele>
        <time>2018-06-08T07:29:11Z</time>
      </trkpt>
      <trkpt lat="44.21618" lon="6.2165">
        <ele>1154</ele>
        <time>2018-06-08T07:29:13Z</time>
      </trkpt>
      <trkpt lat="44.21619" lon="6.21648">
        <ele>1154</ele>
        <time>2018-06-08T07:29:15Z</time>
      </trkpt>
      <trkpt lat="44.21621" lon="6.21647">
        <ele>1154</ele>
        <time>2018-06-08T07:29:17Z</time>
      </trkpt>
      <trkpt lat="44.21622" lon="6.21645">
        <ele>1154</ele>
        <time>2018-06-08T07:29:19Z</time>
      </trkpt>
      <trkpt lat="44.21623" lon="6.21644">
        <ele>1154</ele>
        <time>2018-06-08T07:29:21Z</time>
      </trkpt>
      <trkpt lat="44.21625" lon="6.21642">
        <ele>1154</ele>
        <time>2018-06-08T07:29:23Z</time>
      </trkpt>
      <trkpt lat="44.21626" lon="6.21641">
        <ele>1154</ele>
        <time>2018-06-08T07:29:25Z</time>
      </trkpt>
      <trkpt lat="44.21628" lon="6.2164">
        <ele>1154</ele>
        <time>2018-06-08T07:29:27Z</time>
      </trkpt>
      <trkpt lat="44.2163" lon="6.21639">
        <ele>1154</ele>
        <time>2018-06-08T07:29:29Z</time>
      </trkpt>
      <trkpt lat="44.21632" lon="6.21638">
        <ele>1154</ele>
        <time>2018-06-08T07:29:31Z</time>
      </trkpt>
      <trkpt lat="44.21634" lon="6.21637">
        <ele>1154</ele>
        <time>2018-06-08T07:29:33Z</time>
      </trkpt>
      <trkpt lat="44.21636" lon="6.21636">
        <ele>1154</ele>
        <time>2018-06-08T07:29:35Z</time>
      </trkpt>
      <trkpt lat="44.21638" lon="6.21634">
        <ele>1154</ele>
        <time>2018-06-08T07:29:37Z</time>
      </trkpt>
      <trkpt lat="44.21639" lon="6.21632">
        <ele>1154</ele>
        <time>2018-06-08T07:29:39Z</time>
      </trkpt>
      <trkpt lat="44.21641" lon="6.2163">
        <ele>1154</ele>
        <time>2018-06-08T07:29:41Z</time>
      </trkpt>
      <trkpt lat="44.21642" lon="6.21629">
        <ele>1154</ele>
        <time>2018-06-08T07:29:51Z</time>
      </trkpt>
      <trkpt lat="44.21643" lon="6.21629">
        <ele>1154</ele>
        <time>2018-06-08T07:30:08Z</time>
      </trkpt>
      <trkpt lat="44.21642" lon="6.21629">
        <ele>1154</ele>
        <time>2018-06-08T07:30:12Z</time>
      </trkpt>
      <trkpt lat="44.21643" lon="6.21629">
        <ele>1154</ele>
        <time>2018-06-08T07:30:25Z</time>
      </trkpt>
      <trkpt lat="44.21644" lon="6.21629">
        <ele>1154</ele>
        <time>2018-06-08T07:30:32Z</time>
      </trkpt>
      <trkpt lat="44.21643" lon="6.21628">
        <ele>1154</ele>
        <time>2018-06-08T07:31:15Z</time>
      </trkpt>
      <trkpt lat="44.21643" lon="6.21626">
        <ele>1154</ele>
        <time>2018-06-08T07:31:39Z</time>
      </trkpt>
      <trkpt lat="44.21643" lon="6.21624">
        <ele>1154</ele>
        <time>2018-06-08T07:31:41Z</time>
      </trkpt>
      <trkpt lat="44.21644" lon="6.21623">
        <ele>1154</ele>
        <time>2018-06-08T07:31:43Z</time>
      </trkpt>
      <trkpt lat="44.21644" lon="6.21621">
        <ele>1154</ele>
        <time>2018-06-08T07:31:45Z</time>
      </trkpt>
      <trkpt lat="44.21645" lon="6.21618">
        <ele>1154</ele>
        <time>2018-06-08T07:31:47Z</time>
      </trkpt>
      <trkpt lat="44.21646" lon="6.21616">
        <ele>1154</ele>
        <time>2018-06-08T07:31:49Z</time>
      </trkpt>
      <trkpt lat="44.21646" lon="6.21614">
        <ele>1154</ele>
        <time>2018-06-08T07:31:51Z</time>
      </trkpt>
      <trkpt lat="44.21647" lon="6.21611">
        <ele>1154</ele>
        <time>2018-06-08T07:31:53Z</time>
      </trkpt>
      <trkpt lat="44.21648" lon="6.21609">
        <ele>1154</ele>
        <time>2018-06-08T07:31:55Z</time>
      </trkpt>
      <trkpt lat="44.21649" lon="6.21607">
        <ele>1154</ele>
        <time>2018-06-08T07:31:57Z</time>
      </trkpt>
      <trkpt lat="44.2165" lon="6.21606">
        <ele>1154</ele>
        <time>2018-06-08T07:31:59Z</time>
      </trkpt>
      <trkpt lat="44.21651" lon="6.21604">
        <ele>1154</ele>
        <time>2018-06-08T07:32:01Z</time>
      </trkpt>
      <trkpt lat="44.21652" lon="6.21602">
        <ele>1154</ele>
        <time>2018-06-08T07:32:03Z</time>
      </trkpt>
      <trkpt lat="44.21653" lon="6.216">
        <ele>1154</ele>
        <time>2018-06-08T07:32:05Z</time>
      </trkpt>
      <trkpt lat="44.21653" lon="6.21599">
        <ele>1154</ele>
        <time>2018-06-08T07:32:07Z</time>
      </trkpt>
      <trkpt lat="44.21653" lon="6.21596">
        <ele>1154</ele>
        <time>2018-06-08T07:32:09Z</time>
      </trkpt>
      <trkpt lat="44.21655" lon="6.21594">
        <ele>1154</ele>
        <time>2018-06-08T07:32:11Z</time>
      </trkpt>
      <trkpt lat="44.21656" lon="6.21593">
        <ele>1154</ele>
        <time>2018-06-08T07:32:13Z</time>
      </trkpt>
      <trkpt lat="44.21657" lon="6.21591">
        <ele>1154</ele>
        <time>2018-06-08T07:32:15Z</time>
      </trkpt>
      <trkpt lat="44.21658" lon="6.2159">
        <ele>1154</ele>
        <time>2018-06-08T07:32:17Z</time>
      </trkpt>
      <trkpt lat="44.2166" lon="6.21589">
        <ele>1155</ele>
        <time>2018-06-08T07:32:19Z</time>
      </trkpt>
      <trkpt lat="44.21662" lon="6.21588">
        <ele>1155</ele>
        <time>2018-06-08T07:32:21Z</time>
      </trkpt>
      <trkpt lat="44.21664" lon="6.21587">
        <ele>1155</ele>
        <time>2018-06-08T07:32:23Z</time>
      </trkpt>
      <trkpt lat="44.21665" lon="6.21586">
        <ele>1155</ele>
        <time>2018-06-08T07:32:25Z</time>
      </trkpt>
      <trkpt lat="44.21667" lon="6.21585">
        <ele>1155</ele>
        <time>2018-06-08T07:32:27Z</time>
      </trkpt>
      <trkpt lat="44.21669" lon="6.21584">
        <ele>1155</ele>
        <time>2018-06-08T07:32:29Z</time>
      </trkpt>
      <trkpt lat="44.2167" lon="6.21583">
        <ele>1155</ele>
        <time>2018-06-08T07:32:31Z</time>
      </trkpt>
      <trkpt lat="44.21672" lon="6.21583">
        <ele>1155</ele>
        <time>2018-06-08T07:32:33Z</time>
      </trkpt>
      <trkpt lat="44.21674" lon="6.21582">
        <ele>1155</ele>
        <time>2018-06-08T07:32:35Z</time>
      </trkpt>
      <trkpt lat="44.21676" lon="6.21581">
        <ele>1155</ele>
        <time>2018-06-08T07:32:37Z</time>
      </trkpt>
      <trkpt lat="44.21677" lon="6.2158">
        <ele>1155</ele>
        <time>2018-06-08T07:32:39Z</time>
      </trkpt>
      <trkpt lat="44.21679" lon="6.21578">
        <ele>1155</ele>
        <time>2018-06-08T07:32:41Z</time>
      </trkpt>
      <trkpt lat="44.2168" lon="6.21575">
        <ele>1155</ele>
        <time>2018-06-08T07:32:43Z</time>
      </trkpt>
      <trkpt lat="44.21682" lon="6.21573">
        <ele>1156</ele>
        <time>2018-06-08T07:32:45Z</time>
      </trkpt>
      <trkpt lat="44.21682" lon="6.21571">
        <ele>1156</ele>
        <time>2018-06-08T07:32:46Z</time>
      </trkpt>
      <trkpt lat="44.21682" lon="6.2157">
        <ele>1156</ele>
        <time>2018-06-08T07:32:47Z</time>
      </trkpt>
      <trkpt lat="44.21682" lon="6.21568">
        <ele>1156</ele>
        <time>2018-06-08T07:32:48Z</time>
      </trkpt>
      <trkpt lat="44.21682" lon="6.21567">
        <ele>1156</ele>
        <time>2018-06-08T07:32:49Z</time>
      </trkpt>
      <trkpt lat="44.21683" lon="6.21565">
        <ele>1157</ele>
        <time>2018-06-08T07:32:51Z</time>
      </trkpt>
      <trkpt lat="44.21684" lon="6.21563">
        <ele>1157</ele>
        <time>2018-06-08T07:32:53Z</time>
      </trkpt>
      <trkpt lat="44.21685" lon="6.2156">
        <ele>1157</ele>
        <time>2018-06-08T07:32:55Z</time>
      </trkpt>
      <trkpt lat="44.21686" lon="6.21558">
        <ele>1158</ele>
        <time>2018-06-08T07:32:57Z</time>
      </trkpt>
      <trkpt lat="44.21688" lon="6.21556">
        <ele>1158</ele>
        <time>2018-06-08T07:32:59Z</time>
      </trkpt>
      <trkpt lat="44.21689" lon="6.21554">
        <ele>1159</ele>
        <time>2018-06-08T07:33:01Z</time>
      </trkpt>
      <trkpt lat="44.2169" lon="6.21552">
        <ele>1159</ele>
        <time>2018-06-08T07:33:03Z</time>
      </trkpt>
      <trkpt lat="44.21692" lon="6.2155">
        <ele>1159</ele>
        <time>2018-06-08T07:33:05Z</time>
      </trkpt>
      <trkpt lat="44.21693" lon="6.21549">
        <ele>1159</ele>
        <time>2018-06-08T07:33:06Z</time>
      </trkpt>
      <trkpt lat="44.21693" lon="6.21546">
        <ele>1159</ele>
        <time>2018-06-08T07:33:08Z</time>
      </trkpt>
      <trkpt lat="44.21694" lon="6.21544">
        <ele>1159</ele>
        <time>2018-06-08T07:33:10Z</time>
      </trkpt>
      <trkpt lat="44.21694" lon="6.21542">
        <ele>1159</ele>
        <time>2018-06-08T07:33:12Z</time>
      </trkpt>
      <trkpt lat="44.21695" lon="6.21539">
        <ele>1159</ele>
        <time>2018-06-08T07:33:14Z</time>
      </trkpt>
      <trkpt lat="44.21695" lon="6.21537">
        <ele>1159</ele>
        <time>2018-06-08T07:33:15Z</time>
      </trkpt>
      <trkpt lat="44.21695" lon="6.21535">
        <ele>1159</ele>
        <time>2018-06-08T07:33:16Z</time>
      </trkpt>
      <trkpt lat="44.21695" lon="6.21533">
        <ele>1159</ele>
        <time>2018-06-08T07:33:18Z</time>
      </trkpt>
      <trkpt lat="44.21696" lon="6.21531">
        <ele>1160</ele>
        <time>2018-06-08T07:33:20Z</time>
      </trkpt>
      <trkpt lat="44.21697" lon="6.21528">
        <ele>1160</ele>
        <time>2018-06-08T07:33:22Z</time>
      </trkpt>
      <trkpt lat="44.21698" lon="6.21526">
        <ele>1160</ele>
        <time>2018-06-08T07:33:24Z</time>
      </trkpt>
      <trkpt lat="44.21698" lon="6.21525">
        <ele>1160</ele>
        <time>2018-06-08T07:33:25Z</time>
      </trkpt>
      <trkpt lat="44.21699" lon="6.21523">
        <ele>1160</ele>
        <time>2018-06-08T07:33:26Z</time>
      </trkpt>
      <trkpt lat="44.217" lon="6.21521">
        <ele>1160</ele>
        <time>2018-06-08T07:33:28Z</time>
      </trkpt>
      <trkpt lat="44.217" lon="6.21519">
        <ele>1160</ele>
        <time>2018-06-08T07:33:29Z</time>
      </trkpt>
      <trkpt lat="44.21701" lon="6.21518">
        <ele>1160</ele>
        <time>2018-06-08T07:33:30Z</time>
      </trkpt>
      <trkpt lat="44.21701" lon="6.21516">
        <ele>1160</ele>
        <time>2018-06-08T07:33:31Z</time>
      </trkpt>
      <trkpt lat="44.21701" lon="6.21514">
        <ele>1160</ele>
        <time>2018-06-08T07:33:32Z</time>
      </trkpt>
      <trkpt lat="44.21702" lon="6.21513">
        <ele>1160</ele>
        <time>2018-06-08T07:33:33Z</time>
      </trkpt>
      <trkpt lat="44.21702" lon="6.2151">
        <ele>1160</ele>
        <time>2018-06-08T07:33:35Z</time>
      </trkpt>
      <trkpt lat="44.21703" lon="6.21508">
        <ele>1160</ele>
        <time>2018-06-08T07:33:37Z</time>
      </trkpt>
      <trkpt lat="44.21703" lon="6.21506">
        <ele>1160</ele>
        <time>2018-06-08T07:33:38Z</time>
      </trkpt>
      <trkpt lat="44.21703" lon="6.21505">
        <ele>1160</ele>
        <time>2018-06-08T07:33:39Z</time>
      </trkpt>
      <trkpt lat="44.21703" lon="6.21503">
        <ele>1160</ele>
        <time>2018-06-08T07:33:40Z</time>
      </trkpt>
      <trkpt lat="44.21703" lon="6.21501">
        <ele>1160</ele>
        <time>2018-06-08T07:33:41Z</time>
      </trkpt>
      <trkpt lat="44.21703" lon="6.215">
        <ele>1160</ele>
        <time>2018-06-08T07:33:42Z</time>
      </trkpt>
      <trkpt lat="44.21703" lon="6.21498">
        <ele>1160</ele>
        <time>2018-06-08T07:33:43Z</time>
      </trkpt>
      <trkpt lat="44.21704" lon="6.21496">
        <ele>1160</ele>
        <time>2018-06-08T07:33:44Z</time>
      </trkpt>
      <trkpt lat="44.21704" lon="6.21495">
        <ele>1160</ele>
        <time>2018-06-08T07:33:45Z</time>
      </trkpt>
      <trkpt lat="44.21704" lon="6.21493">
        <ele>1160</ele>
        <time>2018-06-08T07:33:46Z</time>
      </trkpt>
      <trkpt lat="44.21705" lon="6.21491">
        <ele>1160</ele>
        <time>2018-06-08T07:33:48Z</time>
      </trkpt>
      <trkpt lat="44.21706" lon="6.21489">
        <ele>1160</ele>
        <time>2018-06-08T07:33:49Z</time>
      </trkpt>
      <trkpt lat="44.21706" lon="6.21488">
        <ele>1160</ele>
        <time>2018-06-08T07:33:50Z</time>
      </trkpt>
      <trkpt lat="44.21708" lon="6.21485">
        <ele>1160</ele>
        <time>2018-06-08T07:33:52Z</time>
      </trkpt>
      <trkpt lat="44.21708" lon="6.21483">
        <ele>1161</ele>
        <time>2018-06-08T07:33:53Z</time>
      </trkpt>
      <trkpt lat="44.21709" lon="6.21481">
        <ele>1161</ele>
        <time>2018-06-08T07:33:55Z</time>
      </trkpt>
      <trkpt lat="44.2171" lon="6.21478">
        <ele>1161</ele>
        <time>2018-06-08T07:33:57Z</time>
      </trkpt>
      <trkpt lat="44.2171" lon="6.21477">
        <ele>1162</ele>
        <time>2018-06-08T07:34:02Z</time>
      </trkpt>
      <trkpt lat="44.21709" lon="6.21476">
        <ele>1164</ele>
        <time>2018-06-08T07:34:07Z</time>
      </trkpt>
      <trkpt lat="44.21709" lon="6.21473">
        <ele>1166</ele>
        <time>2018-06-08T07:34:30Z</time>
      </trkpt>
      <trkpt lat="44.2171" lon="6.2147">
        <ele>1166</ele>
        <time>2018-06-08T07:34:32Z</time>
      </trkpt>
      <trkpt lat="44.21711" lon="6.21468">
        <ele>1166</ele>
        <time>2018-06-08T07:34:34Z</time>
      </trkpt>
      <trkpt lat="44.21712" lon="6.21466">
        <ele>1166</ele>
        <time>2018-06-08T07:34:35Z</time>
      </trkpt>
      <trkpt lat="44.21712" lon="6.21464">
        <ele>1166</ele>
        <time>2018-06-08T07:34:36Z</time>
      </trkpt>
      <trkpt lat="44.21713" lon="6.21463">
        <ele>1166</ele>
        <time>2018-06-08T07:34:37Z</time>
      </trkpt>
      <trkpt lat="44.21713" lon="6.21461">
        <ele>1166</ele>
        <time>2018-06-08T07:34:38Z</time>
      </trkpt>
      <trkpt lat="44.21713" lon="6.2146">
        <ele>1166</ele>
        <time>2018-06-08T07:34:39Z</time>
      </trkpt>
      <trkpt lat="44.21713" lon="6.21458">
        <ele>1166</ele>
        <time>2018-06-08T07:34:40Z</time>
      </trkpt>
      <trkpt lat="44.21713" lon="6.21457">
        <ele>1166</ele>
        <time>2018-06-08T07:34:41Z</time>
      </trkpt>
      <trkpt lat="44.21714" lon="6.21454">
        <ele>1166</ele>
        <time>2018-06-08T07:34:43Z</time>
      </trkpt>
      <trkpt lat="44.21714" lon="6.21453">
        <ele>1166</ele>
        <time>2018-06-08T07:34:44Z</time>
      </trkpt>
      <trkpt lat="44.21714" lon="6.21451">
        <ele>1166</ele>
        <time>2018-06-08T07:34:45Z</time>
      </trkpt>
      <trkpt lat="44.21714" lon="6.2145">
        <ele>1166</ele>
        <time>2018-06-08T07:34:46Z</time>
      </trkpt>
      <trkpt lat="44.21714" lon="6.21448">
        <ele>1166</ele>
        <time>2018-06-08T07:34:47Z</time>
      </trkpt>
      <trkpt lat="44.21714" lon="6.21446">
        <ele>1166</ele>
        <time>2018-06-08T07:34:49Z</time>
      </trkpt>
      <trkpt lat="44.21714" lon="6.21444">
        <ele>1166</ele>
        <time>2018-06-08T07:34:51Z</time>
      </trkpt>
      <trkpt lat="44.21714" lon="6.21442">
        <ele>1166</ele>
        <time>2018-06-08T07:34:52Z</time>
      </trkpt>
      <trkpt lat="44.21714" lon="6.21439">
        <ele>1166</ele>
        <time>2018-06-08T07:34:54Z</time>
      </trkpt>
      <trkpt lat="44.21714" lon="6.21437">
        <ele>1166</ele>
        <time>2018-06-08T07:34:55Z</time>
      </trkpt>
      <trkpt lat="44.21715" lon="6.21435">
        <ele>1166</ele>
        <time>2018-06-08T07:34:56Z</time>
      </trkpt>
      <trkpt lat="44.21715" lon="6.21433">
        <ele>1166</ele>
        <time>2018-06-08T07:34:58Z</time>
      </trkpt>
      <trkpt lat="44.21715" lon="6.2143">
        <ele>1166</ele>
        <time>2018-06-08T07:35:00Z</time>
      </trkpt>
      <trkpt lat="44.21715" lon="6.21427">
        <ele>1166</ele>
        <time>2018-06-08T07:35:02Z</time>
      </trkpt>
      <trkpt lat="44.21715" lon="6.21424">
        <ele>1166</ele>
        <time>2018-06-08T07:35:04Z</time>
      </trkpt>
      <trkpt lat="44.21716" lon="6.21422">
        <ele>1166</ele>
        <time>2018-06-08T07:35:06Z</time>
      </trkpt>
      <trkpt lat="44.21716" lon="6.2142">
        <ele>1166</ele>
        <time>2018-06-08T07:35:07Z</time>
      </trkpt>
      <trkpt lat="44.21716" lon="6.21419">
        <ele>1166</ele>
        <time>2018-06-08T07:35:08Z</time>
      </trkpt>
      <trkpt lat="44.21717" lon="6.21416">
        <ele>1166</ele>
        <time>2018-06-08T07:35:10Z</time>
      </trkpt>
      <trkpt lat="44.21718" lon="6.21414">
        <ele>1166</ele>
        <time>2018-06-08T07:35:12Z</time>
      </trkpt>
      <trkpt lat="44.21718" lon="6.21412">
        <ele>1166</ele>
        <time>2018-06-08T07:35:14Z</time>
      </trkpt>
      <trkpt lat="44.21718" lon="6.2141">
        <ele>1166</ele>
        <time>2018-06-08T07:35:15Z</time>
      </trkpt>
      <trkpt lat="44.21718" lon="6.21408">
        <ele>1166</ele>
        <time>2018-06-08T07:35:16Z</time>
      </trkpt>
      <trkpt lat="44.21718" lon="6.21407">
        <ele>1166</ele>
        <time>2018-06-08T07:35:17Z</time>
      </trkpt>
      <trkpt lat="44.21719" lon="6.21405">
        <ele>1166</ele>
        <time>2018-06-08T07:35:18Z</time>
      </trkpt>
      <trkpt lat="44.21719" lon="6.21403">
        <ele>1166</ele>
        <time>2018-06-08T07:35:19Z</time>
      </trkpt>
      <trkpt lat="44.21719" lon="6.21402">
        <ele>1166</ele>
        <time>2018-06-08T07:35:20Z</time>
      </trkpt>
      <trkpt lat="44.21719" lon="6.214">
        <ele>1166</ele>
        <time>2018-06-08T07:35:21Z</time>
      </trkpt>
      <trkpt lat="44.21719" lon="6.21397">
        <ele>1166</ele>
        <time>2018-06-08T07:35:22Z</time>
      </trkpt>
      <trkpt lat="44.21719" lon="6.21395">
        <ele>1166</ele>
        <time>2018-06-08T07:35:24Z</time>
      </trkpt>
      <trkpt lat="44.2172" lon="6.21393">
        <ele>1166</ele>
        <time>2018-06-08T07:35:26Z</time>
      </trkpt>
      <trkpt lat="44.2172" lon="6.21391">
        <ele>1166</ele>
        <time>2018-06-08T07:35:28Z</time>
      </trkpt>
      <trkpt lat="44.2172" lon="6.21389">
        <ele>1166</ele>
        <time>2018-06-08T07:35:31Z</time>
      </trkpt>
      <trkpt lat="44.2172" lon="6.21388">
        <ele>1166</ele>
        <time>2018-06-08T07:35:37Z</time>
      </trkpt>
      <trkpt lat="44.2172" lon="6.21386">
        <ele>1166</ele>
        <time>2018-06-08T07:35:39Z</time>
      </trkpt>
      <trkpt lat="44.21721" lon="6.21384">
        <ele>1166</ele>
        <time>2018-06-08T07:35:40Z</time>
      </trkpt>
      <trkpt lat="44.21722" lon="6.21383">
        <ele>1166</ele>
        <time>2018-06-08T07:35:53Z</time>
      </trkpt>
      <trkpt lat="44.21722" lon="6.21381">
        <ele>1166</ele>
        <time>2018-06-08T07:35:55Z</time>
      </trkpt>
      <trkpt lat="44.21723" lon="6.2138">
        <ele>1166</ele>
        <time>2018-06-08T07:35:57Z</time>
      </trkpt>
      <trkpt lat="44.21724" lon="6.21377">
        <ele>1166</ele>
        <time>2018-06-08T07:35:59Z</time>
      </trkpt>
      <trkpt lat="44.21724" lon="6.21375">
        <ele>1166</ele>
        <time>2018-06-08T07:36:00Z</time>
      </trkpt>
      <trkpt lat="44.21724" lon="6.21374">
        <ele>1166</ele>
        <time>2018-06-08T07:36:01Z</time>
      </trkpt>
      <trkpt lat="44.21724" lon="6.21372">
        <ele>1166</ele>
        <time>2018-06-08T07:36:02Z</time>
      </trkpt>
      <trkpt lat="44.21724" lon="6.2137">
        <ele>1166</ele>
        <time>2018-06-08T07:36:03Z</time>
      </trkpt>
      <trkpt lat="44.21725" lon="6.21368">
        <ele>1166</ele>
        <time>2018-06-08T07:36:04Z</time>
      </trkpt>
      <trkpt lat="44.21725" lon="6.21367">
        <ele>1166</ele>
        <time>2018-06-08T07:36:05Z</time>
      </trkpt>
      <trkpt lat="44.21726" lon="6.21364">
        <ele>1166</ele>
        <time>2018-06-08T07:36:07Z</time>
      </trkpt>
      <trkpt lat="44.21727" lon="6.21361">
        <ele>1166</ele>
        <time>2018-06-08T07:36:09Z</time>
      </trkpt>
      <trkpt lat="44.21727" lon="6.2136">
        <ele>1166</ele>
        <time>2018-06-08T07:36:10Z</time>
      </trkpt>
      <trkpt lat="44.21728" lon="6.21358">
        <ele>1166</ele>
        <time>2018-06-08T07:36:11Z</time>
      </trkpt>
      <trkpt lat="44.21728" lon="6.21356">
        <ele>1166</ele>
        <time>2018-06-08T07:36:12Z</time>
      </trkpt>
      <trkpt lat="44.21729" lon="6.21354">
        <ele>1166</ele>
        <time>2018-06-08T07:36:14Z</time>
      </trkpt>
      <trkpt lat="44.21729" lon="6.21351">
        <ele>1165</ele>
        <time>2018-06-08T07:36:16Z</time>
      </trkpt>
      <trkpt lat="44.2173" lon="6.21349">
        <ele>1165</ele>
        <time>2018-06-08T07:36:17Z</time>
      </trkpt>
      <trkpt lat="44.2173" lon="6.21348">
        <ele>1165</ele>
        <time>2018-06-08T07:36:18Z</time>
      </trkpt>
      <trkpt lat="44.2173" lon="6.21346">
        <ele>1165</ele>
        <time>2018-06-08T07:36:19Z</time>
      </trkpt>
      <trkpt lat="44.2173" lon="6.21343">
        <ele>1165</ele>
        <time>2018-06-08T07:36:21Z</time>
      </trkpt>
      <trkpt lat="44.2173" lon="6.21341">
        <ele>1165</ele>
        <time>2018-06-08T07:36:22Z</time>
      </trkpt>
      <trkpt lat="44.2173" lon="6.21339">
        <ele>1165</ele>
        <time>2018-06-08T07:36:23Z</time>
      </trkpt>
      <trkpt lat="44.2173" lon="6.21337">
        <ele>1165</ele>
        <time>2018-06-08T07:36:24Z</time>
      </trkpt>
      <trkpt lat="44.2173" lon="6.21335">
        <ele>1165</ele>
        <time>2018-06-08T07:36:26Z</time>
      </trkpt>
      <trkpt lat="44.21731" lon="6.21333">
        <ele>1165</ele>
        <time>2018-06-08T07:36:28Z</time>
      </trkpt>
      <trkpt lat="44.21731" lon="6.2133">
        <ele>1165</ele>
        <time>2018-06-08T07:36:30Z</time>
      </trkpt>
      <trkpt lat="44.21731" lon="6.21328">
        <ele>1165</ele>
        <time>2018-06-08T07:36:31Z</time>
      </trkpt>
      <trkpt lat="44.21731" lon="6.21327">
        <ele>1165</ele>
        <time>2018-06-08T07:36:32Z</time>
      </trkpt>
      <trkpt lat="44.21732" lon="6.21325">
        <ele>1165</ele>
        <time>2018-06-08T07:36:34Z</time>
      </trkpt>
      <trkpt lat="44.21732" lon="6.21322">
        <ele>1165</ele>
        <time>2018-06-08T07:36:36Z</time>
      </trkpt>
      <trkpt lat="44.21734" lon="6.2132">
        <ele>1165</ele>
        <time>2018-06-08T07:36:38Z</time>
      </trkpt>
      <trkpt lat="44.21735" lon="6.21318">
        <ele>1165</ele>
        <time>2018-06-08T07:36:40Z</time>
      </trkpt>
      <trkpt lat="44.21735" lon="6.21316">
        <ele>1165</ele>
        <time>2018-06-08T07:36:42Z</time>
      </trkpt>
      <trkpt lat="44.21736" lon="6.21314">
        <ele>1165</ele>
        <time>2018-06-08T07:36:43Z</time>
      </trkpt>
      <trkpt lat="44.21736" lon="6.21312">
        <ele>1165</ele>
        <time>2018-06-08T07:36:45Z</time>
      </trkpt>
      <trkpt lat="44.21737" lon="6.2131">
        <ele>1165</ele>
        <time>2018-06-08T07:36:47Z</time>
      </trkpt>
      <trkpt lat="44.21737" lon="6.21308">
        <ele>1165</ele>
        <time>2018-06-08T07:36:49Z</time>
      </trkpt>
      <trkpt lat="44.21738" lon="6.21306">
        <ele>1165</ele>
        <time>2018-06-08T07:36:51Z</time>
      </trkpt>
      <trkpt lat="44.21738" lon="6.21304">
        <ele>1165</ele>
        <time>2018-06-08T07:36:53Z</time>
      </trkpt>
      <trkpt lat="44.21739" lon="6.21301">
        <ele>1165</ele>
        <time>2018-06-08T07:36:55Z</time>
      </trkpt>
      <trkpt lat="44.2174" lon="6.213">
        <ele>1165</ele>
        <time>2018-06-08T07:36:56Z</time>
      </trkpt>
      <trkpt lat="44.21741" lon="6.21298">
        <ele>1165</ele>
        <time>2018-06-08T07:36:58Z</time>
      </trkpt>
      <trkpt lat="44.21742" lon="6.21296">
        <ele>1165</ele>
        <time>2018-06-08T07:37:00Z</time>
      </trkpt>
      <trkpt lat="44.21743" lon="6.21294">
        <ele>1165</ele>
        <time>2018-06-08T07:37:02Z</time>
      </trkpt>
      <trkpt lat="44.21744" lon="6.21293">
        <ele>1165</ele>
        <time>2018-06-08T07:37:04Z</time>
      </trkpt>
      <trkpt lat="44.21746" lon="6.21292">
        <ele>1165</ele>
        <time>2018-06-08T07:37:06Z</time>
      </trkpt>
      <trkpt lat="44.21747" lon="6.21291">
        <ele>1165</ele>
        <time>2018-06-08T07:37:08Z</time>
      </trkpt>
      <trkpt lat="44.21748" lon="6.2129">
        <ele>1166</ele>
        <time>2018-06-08T07:37:10Z</time>
      </trkpt>
      <trkpt lat="44.2175" lon="6.2129">
        <ele>1166</ele>
        <time>2018-06-08T07:37:12Z</time>
      </trkpt>
      <trkpt lat="44.21751" lon="6.21291">
        <ele>1166</ele>
        <time>2018-06-08T07:37:14Z</time>
      </trkpt>
      <trkpt lat="44.21753" lon="6.2129">
        <ele>1166</ele>
        <time>2018-06-08T07:37:16Z</time>
      </trkpt>
      <trkpt lat="44.21754" lon="6.2129">
        <ele>1166</ele>
        <time>2018-06-08T07:37:18Z</time>
      </trkpt>
      <trkpt lat="44.21756" lon="6.21289">
        <ele>1167</ele>
        <time>2018-06-08T07:37:20Z</time>
      </trkpt>
      <trkpt lat="44.21757" lon="6.21289">
        <ele>1167</ele>
        <time>2018-06-08T07:37:22Z</time>
      </trkpt>
      <trkpt lat="44.21759" lon="6.21288">
        <ele>1167</ele>
        <time>2018-06-08T07:37:24Z</time>
      </trkpt>
      <trkpt lat="44.2176" lon="6.21288">
        <ele>1167</ele>
        <time>2018-06-08T07:37:26Z</time>
      </trkpt>
      <trkpt lat="44.21761" lon="6.21287">
        <ele>1168</ele>
        <time>2018-06-08T07:37:29Z</time>
      </trkpt>
      <trkpt lat="44.21763" lon="6.21287">
        <ele>1168</ele>
        <time>2018-06-08T07:37:32Z</time>
      </trkpt>
      <trkpt lat="44.21764" lon="6.21286">
        <ele>1168</ele>
        <time>2018-06-08T07:37:34Z</time>
      </trkpt>
      <trkpt lat="44.21766" lon="6.21287">
        <ele>1169</ele>
        <time>2018-06-08T07:37:36Z</time>
      </trkpt>
      <trkpt lat="44.21767" lon="6.21287">
        <ele>1169</ele>
        <time>2018-06-08T07:37:38Z</time>
      </trkpt>
      <trkpt lat="44.21768" lon="6.21287">
        <ele>1169</ele>
        <time>2018-06-08T07:37:40Z</time>
      </trkpt>
      <trkpt lat="44.21769" lon="6.21287">
        <ele>1169</ele>
        <time>2018-06-08T07:37:42Z</time>
      </trkpt>
      <trkpt lat="44.21771" lon="6.21287">
        <ele>1170</ele>
        <time>2018-06-08T07:38:03Z</time>
      </trkpt>
      <trkpt lat="44.21772" lon="6.21288">
        <ele>1170</ele>
        <time>2018-06-08T07:38:06Z</time>
      </trkpt>
      <trkpt lat="44.21774" lon="6.21288">
        <ele>1170</ele>
        <time>2018-06-08T07:38:08Z</time>
      </trkpt>
      <trkpt lat="44.21775" lon="6.21289">
        <ele>1170</ele>
        <time>2018-06-08T07:38:10Z</time>
      </trkpt>
      <trkpt lat="44.21777" lon="6.21289">
        <ele>1170</ele>
        <time>2018-06-08T07:38:12Z</time>
      </trkpt>
      <trkpt lat="44.21778" lon="6.21289">
        <ele>1170</ele>
        <time>2018-06-08T07:38:14Z</time>
      </trkpt>
      <trkpt lat="44.2178" lon="6.21289">
        <ele>1171</ele>
        <time>2018-06-08T07:38:16Z</time>
      </trkpt>
      <trkpt lat="44.21781" lon="6.21288">
        <ele>1171</ele>
        <time>2018-06-08T07:38:19Z</time>
      </trkpt>
      <trkpt lat="44.21783" lon="6.21288">
        <ele>1171</ele>
        <time>2018-06-08T07:38:21Z</time>
      </trkpt>
      <trkpt lat="44.21785" lon="6.21287">
        <ele>1172</ele>
        <time>2018-06-08T07:38:23Z</time>
      </trkpt>
      <trkpt lat="44.21786" lon="6.21286">
        <ele>1172</ele>
        <time>2018-06-08T07:38:25Z</time>
      </trkpt>
      <trkpt lat="44.21787" lon="6.21285">
        <ele>1173</ele>
        <time>2018-06-08T07:38:27Z</time>
      </trkpt>
      <trkpt lat="44.21788" lon="6.21284">
        <ele>1174</ele>
        <time>2018-06-08T07:38:30Z</time>
      </trkpt>
      <trkpt lat="44.21789" lon="6.21282">
        <ele>1174</ele>
        <time>2018-06-08T07:38:32Z</time>
      </trkpt>
      <trkpt lat="44.2179" lon="6.2128">
        <ele>1175</ele>
        <time>2018-06-08T07:38:34Z</time>
      </trkpt>
      <trkpt lat="44.21791" lon="6.21278">
        <ele>1175</ele>
        <time>2018-06-08T07:38:36Z</time>
      </trkpt>
      <trkpt lat="44.21792" lon="6.21276">
        <ele>1176</ele>
        <time>2018-06-08T07:38:38Z</time>
      </trkpt>
      <trkpt lat="44.21792" lon="6.21274">
        <ele>1176</ele>
        <time>2018-06-08T07:38:40Z</time>
      </trkpt>
      <trkpt lat="44.21793" lon="6.21271">
        <ele>1177</ele>
        <time>2018-06-08T07:38:42Z</time>
      </trkpt>
      <trkpt lat="44.21795" lon="6.21269">
        <ele>1177</ele>
        <time>2018-06-08T07:38:44Z</time>
      </trkpt>
      <trkpt lat="44.21796" lon="6.21266">
        <ele>1177</ele>
        <time>2018-06-08T07:38:46Z</time>
      </trkpt>
      <trkpt lat="44.21796" lon="6.21265">
        <ele>1177</ele>
        <time>2018-06-08T07:38:47Z</time>
      </trkpt>
      <trkpt lat="44.21797" lon="6.21263">
        <ele>1177</ele>
        <time>2018-06-08T07:38:48Z</time>
      </trkpt>
      <trkpt lat="44.21798" lon="6.21261">
        <ele>1177</ele>
        <time>2018-06-08T07:38:50Z</time>
      </trkpt>
      <trkpt lat="44.21798" lon="6.2126">
        <ele>1177</ele>
        <time>2018-06-08T07:38:51Z</time>
      </trkpt>
      <trkpt lat="44.218" lon="6.21258">
        <ele>1178</ele>
        <time>2018-06-08T07:38:53Z</time>
      </trkpt>
      <trkpt lat="44.21801" lon="6.21256">
        <ele>1178</ele>
        <time>2018-06-08T07:38:55Z</time>
      </trkpt>
      <trkpt lat="44.21802" lon="6.21254">
        <ele>1178</ele>
        <time>2018-06-08T07:38:57Z</time>
      </trkpt>
      <trkpt lat="44.21804" lon="6.21252">
        <ele>1178</ele>
        <time>2018-06-08T07:38:59Z</time>
      </trkpt>
      <trkpt lat="44.21805" lon="6.21251">
        <ele>1178</ele>
        <time>2018-06-08T07:39:01Z</time>
      </trkpt>
      <trkpt lat="44.21806" lon="6.21249">
        <ele>1179</ele>
        <time>2018-06-08T07:39:03Z</time>
      </trkpt>
      <trkpt lat="44.21808" lon="6.21248">
        <ele>1179</ele>
        <time>2018-06-08T07:39:05Z</time>
      </trkpt>
      <trkpt lat="44.21809" lon="6.21246">
        <ele>1179</ele>
        <time>2018-06-08T07:39:07Z</time>
      </trkpt>
      <trkpt lat="44.21811" lon="6.21245">
        <ele>1180</ele>
        <time>2018-06-08T07:39:09Z</time>
      </trkpt>
      <trkpt lat="44.21812" lon="6.21244">
        <ele>1180</ele>
        <time>2018-06-08T07:39:11Z</time>
      </trkpt>
      <trkpt lat="44.21813" lon="6.21242">
        <ele>1180</ele>
        <time>2018-06-08T07:39:13Z</time>
      </trkpt>
      <trkpt lat="44.21814" lon="6.21241">
        <ele>1180</ele>
        <time>2018-06-08T07:39:15Z</time>
      </trkpt>
      <trkpt lat="44.21815" lon="6.21239">
        <ele>1180</ele>
        <time>2018-06-08T07:39:18Z</time>
      </trkpt>
      <trkpt lat="44.21816" lon="6.21238">
        <ele>1181</ele>
        <time>2018-06-08T07:39:20Z</time>
      </trkpt>
      <trkpt lat="44.21817" lon="6.21236">
        <ele>1181</ele>
        <time>2018-06-08T07:39:22Z</time>
      </trkpt>
      <trkpt lat="44.21819" lon="6.21235">
        <ele>1181</ele>
        <time>2018-06-08T07:39:24Z</time>
      </trkpt>
      <trkpt lat="44.2182" lon="6.21233">
        <ele>1181</ele>
        <time>2018-06-08T07:39:26Z</time>
      </trkpt>
      <trkpt lat="44.21822" lon="6.21232">
        <ele>1181</ele>
        <time>2018-06-08T07:39:29Z</time>
      </trkpt>
      <trkpt lat="44.21824" lon="6.2123">
        <ele>1181</ele>
        <time>2018-06-08T07:39:32Z</time>
      </trkpt>
      <trkpt lat="44.21825" lon="6.21229">
        <ele>1181</ele>
        <time>2018-06-08T07:39:34Z</time>
      </trkpt>
      <trkpt lat="44.21826" lon="6.21227">
        <ele>1181</ele>
        <time>2018-06-08T07:39:36Z</time>
      </trkpt>
      <trkpt lat="44.21828" lon="6.21226">
        <ele>1182</ele>
        <time>2018-06-08T07:39:39Z</time>
      </trkpt>
      <trkpt lat="44.21829" lon="6.21224">
        <ele>1182</ele>
        <time>2018-06-08T07:39:42Z</time>
      </trkpt>
      <trkpt lat="44.2183" lon="6.21223">
        <ele>1182</ele>
        <time>2018-06-08T07:39:44Z</time>
      </trkpt>
      <trkpt lat="44.21832" lon="6.21223">
        <ele>1182</ele>
        <time>2018-06-08T07:39:45Z</time>
      </trkpt>
      <trkpt lat="44.21834" lon="6.21222">
        <ele>1183</ele>
        <time>2018-06-08T07:39:48Z</time>
      </trkpt>
      <trkpt lat="44.21835" lon="6.21222">
        <ele>1183</ele>
        <time>2018-06-08T07:39:50Z</time>
      </trkpt>
      <trkpt lat="44.21837" lon="6.21221">
        <ele>1183</ele>
        <time>2018-06-08T07:39:52Z</time>
      </trkpt>
      <trkpt lat="44.21839" lon="6.2122">
        <ele>1183</ele>
        <time>2018-06-08T07:39:54Z</time>
      </trkpt>
      <trkpt lat="44.2184" lon="6.21219">
        <ele>1183</ele>
        <time>2018-06-08T07:39:56Z</time>
      </trkpt>
      <trkpt lat="44.21841" lon="6.21218">
        <ele>1183</ele>
        <time>2018-06-08T07:39:58Z</time>
      </trkpt>
      <trkpt lat="44.21843" lon="6.21216">
        <ele>1183</ele>
        <time>2018-06-08T07:40:01Z</time>
      </trkpt>
      <trkpt lat="44.21844" lon="6.21215">
        <ele>1184</ele>
        <time>2018-06-08T07:40:03Z</time>
      </trkpt>
      <trkpt lat="44.21846" lon="6.21214">
        <ele>1184</ele>
        <time>2018-06-08T07:40:05Z</time>
      </trkpt>
      <trkpt lat="44.21847" lon="6.21213">
        <ele>1185</ele>
        <time>2018-06-08T07:40:07Z</time>
      </trkpt>
      <trkpt lat="44.21848" lon="6.21212">
        <ele>1185</ele>
        <time>2018-06-08T07:40:09Z</time>
      </trkpt>
      <trkpt lat="44.21849" lon="6.21211">
        <ele>1185</ele>
        <time>2018-06-08T07:40:11Z</time>
      </trkpt>
      <trkpt lat="44.21851" lon="6.21211">
        <ele>1186</ele>
        <time>2018-06-08T07:40:13Z</time>
      </trkpt>
      <trkpt lat="44.21852" lon="6.2121">
        <ele>1186</ele>
        <time>2018-06-08T07:40:15Z</time>
      </trkpt>
      <trkpt lat="44.21853" lon="6.21209">
        <ele>1186</ele>
        <time>2018-06-08T07:40:17Z</time>
      </trkpt>
      <trkpt lat="44.21855" lon="6.21208">
        <ele>1187</ele>
        <time>2018-06-08T07:40:19Z</time>
      </trkpt>
      <trkpt lat="44.21856" lon="6.21208">
        <ele>1187</ele>
        <time>2018-06-08T07:40:21Z</time>
      </trkpt>
      <trkpt lat="44.21858" lon="6.21207">
        <ele>1187</ele>
        <time>2018-06-08T07:40:23Z</time>
      </trkpt>
      <trkpt lat="44.2186" lon="6.21205">
        <ele>1188</ele>
        <time>2018-06-08T07:40:25Z</time>
      </trkpt>
      <trkpt lat="44.21862" lon="6.21204">
        <ele>1188</ele>
        <time>2018-06-08T07:40:27Z</time>
      </trkpt>
      <trkpt lat="44.21863" lon="6.21203">
        <ele>1188</ele>
        <time>2018-06-08T07:40:29Z</time>
      </trkpt>
      <trkpt lat="44.21865" lon="6.21203">
        <ele>1188</ele>
        <time>2018-06-08T07:40:31Z</time>
      </trkpt>
      <trkpt lat="44.21867" lon="6.21202">
        <ele>1189</ele>
        <time>2018-06-08T07:40:33Z</time>
      </trkpt>
      <trkpt lat="44.21869" lon="6.21203">
        <ele>1189</ele>
        <time>2018-06-08T07:40:35Z</time>
      </trkpt>
      <trkpt lat="44.21871" lon="6.21203">
        <ele>1189</ele>
        <time>2018-06-08T07:40:37Z</time>
      </trkpt>
      <trkpt lat="44.21872" lon="6.21203">
        <ele>1189</ele>
        <time>2018-06-08T07:40:38Z</time>
      </trkpt>
      <trkpt lat="44.21874" lon="6.21206">
        <ele>1189</ele>
        <time>2018-06-08T07:40:40Z</time>
      </trkpt>
      <trkpt lat="44.21875" lon="6.21207">
        <ele>1189</ele>
        <time>2018-06-08T07:40:42Z</time>
      </trkpt>
      <trkpt lat="44.21877" lon="6.21208">
        <ele>1189</ele>
        <time>2018-06-08T07:40:44Z</time>
      </trkpt>
      <trkpt lat="44.21879" lon="6.21209">
        <ele>1189</ele>
        <time>2018-06-08T07:40:46Z</time>
      </trkpt>
      <trkpt lat="44.2188" lon="6.21211">
        <ele>1189</ele>
        <time>2018-06-08T07:40:48Z</time>
      </trkpt>
      <trkpt lat="44.21882" lon="6.21211">
        <ele>1189</ele>
        <time>2018-06-08T07:40:50Z</time>
      </trkpt>
      <trkpt lat="44.21885" lon="6.21211">
        <ele>1190</ele>
        <time>2018-06-08T07:40:51Z</time>
      </trkpt>
      <trkpt lat="44.21886" lon="6.21212">
        <ele>1190</ele>
        <time>2018-06-08T07:40:53Z</time>
      </trkpt>
      <trkpt lat="44.21887" lon="6.21212">
        <ele>1190</ele>
        <time>2018-06-08T07:40:53Z</time>
      </trkpt>
      <trkpt lat="44.21889" lon="6.21213">
        <ele>1190</ele>
        <time>2018-06-08T07:40:56Z</time>
      </trkpt>
      <trkpt lat="44.21891" lon="6.21213">
        <ele>1190</ele>
        <time>2018-06-08T07:40:58Z</time>
      </trkpt>
      <trkpt lat="44.21892" lon="6.21213">
        <ele>1190</ele>
        <time>2018-06-08T07:41:00Z</time>
      </trkpt>
      <trkpt lat="44.21893" lon="6.21213">
        <ele>1190</ele>
        <time>2018-06-08T07:41:01Z</time>
      </trkpt>
      <trkpt lat="44.21896" lon="6.21212">
        <ele>1190</ele>
        <time>2018-06-08T07:41:03Z</time>
      </trkpt>
      <trkpt lat="44.21897" lon="6.21212">
        <ele>1190</ele>
        <time>2018-06-08T07:41:05Z</time>
      </trkpt>
      <trkpt lat="44.21899" lon="6.21213">
        <ele>1190</ele>
        <time>2018-06-08T07:41:07Z</time>
      </trkpt>
      <trkpt lat="44.21901" lon="6.21212">
        <ele>1190</ele>
        <time>2018-06-08T07:41:09Z</time>
      </trkpt>
      <trkpt lat="44.21903" lon="6.21213">
        <ele>1190</ele>
        <time>2018-06-08T07:41:11Z</time>
      </trkpt>
      <trkpt lat="44.21905" lon="6.21213">
        <ele>1190</ele>
        <time>2018-06-08T07:41:12Z</time>
      </trkpt>
      <trkpt lat="44.21907" lon="6.21213">
        <ele>1191</ele>
        <time>2018-06-08T07:41:15Z</time>
      </trkpt>
      <trkpt lat="44.21908" lon="6.21214">
        <ele>1191</ele>
        <time>2018-06-08T07:41:16Z</time>
      </trkpt>
      <trkpt lat="44.21909" lon="6.21214">
        <ele>1191</ele>
        <time>2018-06-08T07:41:18Z</time>
      </trkpt>
      <trkpt lat="44.2191" lon="6.21215">
        <ele>1191</ele>
        <time>2018-06-08T07:41:19Z</time>
      </trkpt>
      <trkpt lat="44.21912" lon="6.21216">
        <ele>1191</ele>
        <time>2018-06-08T07:41:21Z</time>
      </trkpt>
      <trkpt lat="44.21914" lon="6.21217">
        <ele>1192</ele>
        <time>2018-06-08T07:41:23Z</time>
      </trkpt>
      <trkpt lat="44.21915" lon="6.21219">
        <ele>1192</ele>
        <time>2018-06-08T07:41:25Z</time>
      </trkpt>
      <trkpt lat="44.21916" lon="6.2122">
        <ele>1192</ele>
        <time>2018-06-08T07:41:27Z</time>
      </trkpt>
      <trkpt lat="44.21918" lon="6.21222">
        <ele>1193</ele>
        <time>2018-06-08T07:41:30Z</time>
      </trkpt>
      <trkpt lat="44.2192" lon="6.21223">
        <ele>1193</ele>
        <time>2018-06-08T07:41:32Z</time>
      </trkpt>
      <trkpt lat="44.21922" lon="6.21225">
        <ele>1193</ele>
        <time>2018-06-08T07:41:34Z</time>
      </trkpt>
      <trkpt lat="44.21923" lon="6.21226">
        <ele>1193</ele>
        <time>2018-06-08T07:41:35Z</time>
      </trkpt>
      <trkpt lat="44.21924" lon="6.21228">
        <ele>1193</ele>
        <time>2018-06-08T07:41:37Z</time>
      </trkpt>
      <trkpt lat="44.21926" lon="6.2123">
        <ele>1193</ele>
        <time>2018-06-08T07:41:39Z</time>
      </trkpt>
      <trkpt lat="44.21928" lon="6.21231">
        <ele>1193</ele>
        <time>2018-06-08T07:41:41Z</time>
      </trkpt>
      <trkpt lat="44.21929" lon="6.21233">
        <ele>1193</ele>
        <time>2018-06-08T07:41:43Z</time>
      </trkpt>
      <trkpt lat="44.2193" lon="6.21235">
        <ele>1194</ele>
        <time>2018-06-08T07:41:45Z</time>
      </trkpt>
      <trkpt lat="44.21932" lon="6.21236">
        <ele>1194</ele>
        <time>2018-06-08T07:41:47Z</time>
      </trkpt>
      <trkpt lat="44.21933" lon="6.21237">
        <ele>1194</ele>
        <time>2018-06-08T07:41:49Z</time>
      </trkpt>
      <trkpt lat="44.21933" lon="6.21238">
        <ele>1195</ele>
        <time>2018-06-08T07:41:51Z</time>
      </trkpt>
      <trkpt lat="44.21935" lon="6.2124">
        <ele>1195</ele>
        <time>2018-06-08T07:41:53Z</time>
      </trkpt>
      <trkpt lat="44.21936" lon="6.21242">
        <ele>1196</ele>
        <time>2018-06-08T07:41:55Z</time>
      </trkpt>
      <trkpt lat="44.21937" lon="6.21244">
        <ele>1196</ele>
        <time>2018-06-08T07:41:57Z</time>
      </trkpt>
      <trkpt lat="44.21939" lon="6.21246">
        <ele>1196</ele>
        <time>2018-06-08T07:41:59Z</time>
      </trkpt>
      <trkpt lat="44.21939" lon="6.21249">
        <ele>1196</ele>
        <time>2018-06-08T07:42:01Z</time>
      </trkpt>
      <trkpt lat="44.21942" lon="6.21249">
        <ele>1196</ele>
        <time>2018-06-08T07:42:03Z</time>
      </trkpt>
      <trkpt lat="44.21944" lon="6.2125">
        <ele>1196</ele>
        <time>2018-06-08T07:42:04Z</time>
      </trkpt>
      <trkpt lat="44.21945" lon="6.2125">
        <ele>1196</ele>
        <time>2018-06-08T07:42:05Z</time>
      </trkpt>
      <trkpt lat="44.21948" lon="6.21251">
        <ele>1196</ele>
        <time>2018-06-08T07:42:07Z</time>
      </trkpt>
      <trkpt lat="44.2195" lon="6.2125">
        <ele>1196</ele>
        <time>2018-06-08T07:42:08Z</time>
      </trkpt>
      <trkpt lat="44.21951" lon="6.2125">
        <ele>1196</ele>
        <time>2018-06-08T07:42:09Z</time>
      </trkpt>
      <trkpt lat="44.21954" lon="6.21249">
        <ele>1196</ele>
        <time>2018-06-08T07:42:10Z</time>
      </trkpt>
      <trkpt lat="44.21952" lon="6.21251">
        <ele>1196</ele>
        <time>2018-06-08T07:42:14Z</time>
      </trkpt>
      <trkpt lat="44.21953" lon="6.21249">
        <ele>1196</ele>
        <time>2018-06-08T07:42:21Z</time>
      </trkpt>
      <trkpt lat="44.21953" lon="6.21247">
        <ele>1196</ele>
        <time>2018-06-08T07:42:23Z</time>
      </trkpt>
      <trkpt lat="44.21954" lon="6.21245">
        <ele>1196</ele>
        <time>2018-06-08T07:42:28Z</time>
      </trkpt>
      <trkpt lat="44.21954" lon="6.21243">
        <ele>1196</ele>
        <time>2018-06-08T07:42:30Z</time>
      </trkpt>
      <trkpt lat="44.21955" lon="6.21242">
        <ele>1197</ele>
        <time>2018-06-08T07:42:32Z</time>
      </trkpt>
      <trkpt lat="44.21956" lon="6.21241">
        <ele>1197</ele>
        <time>2018-06-08T07:42:34Z</time>
      </trkpt>
      <trkpt lat="44.21958" lon="6.21239">
        <ele>1198</ele>
        <time>2018-06-08T07:42:36Z</time>
      </trkpt>
      <trkpt lat="44.21959" lon="6.21239">
        <ele>1198</ele>
        <time>2018-06-08T07:42:36Z</time>
      </trkpt>
      <trkpt lat="44.21961" lon="6.21239">
        <ele>1198</ele>
        <time>2018-06-08T07:42:39Z</time>
      </trkpt>
      <trkpt lat="44.21962" lon="6.21239">
        <ele>1198</ele>
        <time>2018-06-08T07:42:41Z</time>
      </trkpt>
      <trkpt lat="44.21964" lon="6.21239">
        <ele>1198</ele>
        <time>2018-06-08T07:42:42Z</time>
      </trkpt>
      <trkpt lat="44.21965" lon="6.21239">
        <ele>1198</ele>
        <time>2018-06-08T07:42:45Z</time>
      </trkpt>
      <trkpt lat="44.21967" lon="6.21239">
        <ele>1198</ele>
        <time>2018-06-08T07:42:46Z</time>
      </trkpt>
      <trkpt lat="44.21968" lon="6.2124">
        <ele>1199</ele>
        <time>2018-06-08T07:42:48Z</time>
      </trkpt>
      <trkpt lat="44.21969" lon="6.2124">
        <ele>1199</ele>
        <time>2018-06-08T07:42:51Z</time>
      </trkpt>
      <trkpt lat="44.2197" lon="6.21241">
        <ele>1199</ele>
        <time>2018-06-08T07:42:53Z</time>
      </trkpt>
      <trkpt lat="44.21971" lon="6.21242">
        <ele>1199</ele>
        <time>2018-06-08T07:42:55Z</time>
      </trkpt>
      <trkpt lat="44.21972" lon="6.21243">
        <ele>1200</ele>
        <time>2018-06-08T07:42:57Z</time>
      </trkpt>
      <trkpt lat="44.21973" lon="6.21245">
        <ele>1200</ele>
        <time>2018-06-08T07:42:59Z</time>
      </trkpt>
      <trkpt lat="44.21974" lon="6.21247">
        <ele>1201</ele>
        <time>2018-06-08T07:43:00Z</time>
      </trkpt>
      <trkpt lat="44.21974" lon="6.21249">
        <ele>1201</ele>
        <time>2018-06-08T07:43:03Z</time>
      </trkpt>
      <trkpt lat="44.21975" lon="6.21251">
        <ele>1202</ele>
        <time>2018-06-08T07:43:05Z</time>
      </trkpt>
      <trkpt lat="44.21976" lon="6.21252">
        <ele>1202</ele>
        <time>2018-06-08T07:43:07Z</time>
      </trkpt>
      <trkpt lat="44.21976" lon="6.21254">
        <ele>1202</ele>
        <time>2018-06-08T07:43:09Z</time>
      </trkpt>
      <trkpt lat="44.21978" lon="6.21255">
        <ele>1202</ele>
        <time>2018-06-08T07:43:09Z</time>
      </trkpt>
      <trkpt lat="44.21978" lon="6.21257">
        <ele>1202</ele>
        <time>2018-06-08T07:43:11Z</time>
      </trkpt>
      <trkpt lat="44.2198" lon="6.21258">
        <ele>1202</ele>
        <time>2018-06-08T07:43:13Z</time>
      </trkpt>
      <trkpt lat="44.21981" lon="6.2126">
        <ele>1202</ele>
        <time>2018-06-08T07:43:16Z</time>
      </trkpt>
      <trkpt lat="44.21982" lon="6.21262">
        <ele>1202</ele>
        <time>2018-06-08T07:43:18Z</time>
      </trkpt>
      <trkpt lat="44.21983" lon="6.21264">
        <ele>1202</ele>
        <time>2018-06-08T07:43:19Z</time>
      </trkpt>
      <trkpt lat="44.21984" lon="6.21266">
        <ele>1202</ele>
        <time>2018-06-08T07:43:23Z</time>
      </trkpt>
      <trkpt lat="44.21986" lon="6.21267">
        <ele>1202</ele>
        <time>2018-06-08T07:43:27Z</time>
      </trkpt>
      <trkpt lat="44.21984" lon="6.21268">
        <ele>1203</ele>
        <time>2018-06-08T07:43:33Z</time>
      </trkpt>
      <trkpt lat="44.21983" lon="6.21269">
        <ele>1205</ele>
        <time>2018-06-08T07:43:39Z</time>
      </trkpt>
      <trkpt lat="44.21982" lon="6.21267">
        <ele>1207</ele>
        <time>2018-06-08T07:43:49Z</time>
      </trkpt>
      <trkpt lat="44.21984" lon="6.21267">
        <ele>1208</ele>
        <time>2018-06-08T07:43:56Z</time>
      </trkpt>
      <trkpt lat="44.21985" lon="6.21266">
        <ele>1208</ele>
        <time>2018-06-08T07:44:09Z</time>
      </trkpt>
      <trkpt lat="44.21986" lon="6.21267">
        <ele>1208</ele>
        <time>2018-06-08T07:44:20Z</time>
      </trkpt>
      <trkpt lat="44.21987" lon="6.21268">
        <ele>1208</ele>
        <time>2018-06-08T07:44:28Z</time>
      </trkpt>
      <trkpt lat="44.21988" lon="6.21267">
        <ele>1208</ele>
        <time>2018-06-08T07:44:35Z</time>
      </trkpt>
      <trkpt lat="44.21989" lon="6.21267">
        <ele>1207</ele>
        <time>2018-06-08T07:45:02Z</time>
      </trkpt>
      <trkpt lat="44.2199" lon="6.21265">
        <ele>1207</ele>
        <time>2018-06-08T07:45:03Z</time>
      </trkpt>
      <trkpt lat="44.21992" lon="6.21263">
        <ele>1207</ele>
        <time>2018-06-08T07:45:05Z</time>
      </trkpt>
      <trkpt lat="44.21993" lon="6.21261">
        <ele>1207</ele>
        <time>2018-06-08T07:45:08Z</time>
      </trkpt>
      <trkpt lat="44.21995" lon="6.2126">
        <ele>1207</ele>
        <time>2018-06-08T07:45:09Z</time>
      </trkpt>
      <trkpt lat="44.21996" lon="6.21258">
        <ele>1207</ele>
        <time>2018-06-08T07:45:11Z</time>
      </trkpt>
      <trkpt lat="44.21997" lon="6.21255">
        <ele>1207</ele>
        <time>2018-06-08T07:45:14Z</time>
      </trkpt>
      <trkpt lat="44.21999" lon="6.21253">
        <ele>1207</ele>
        <time>2018-06-08T07:45:15Z</time>
      </trkpt>
      <trkpt lat="44.22001" lon="6.2125">
        <ele>1207</ele>
        <time>2018-06-08T07:45:17Z</time>
      </trkpt>
      <trkpt lat="44.22001" lon="6.21249">
        <ele>1207</ele>
        <time>2018-06-08T07:45:19Z</time>
      </trkpt>
      <trkpt lat="44.22002" lon="6.21247">
        <ele>1207</ele>
        <time>2018-06-08T07:45:19Z</time>
      </trkpt>
      <trkpt lat="44.22003" lon="6.21244">
        <ele>1207</ele>
        <time>2018-06-08T07:45:21Z</time>
      </trkpt>
      <trkpt lat="44.22004" lon="6.21243">
        <ele>1207</ele>
        <time>2018-06-08T07:45:24Z</time>
      </trkpt>
      <trkpt lat="44.22006" lon="6.2124">
        <ele>1207</ele>
        <time>2018-06-08T07:45:25Z</time>
      </trkpt>
      <trkpt lat="44.22007" lon="6.21239">
        <ele>1207</ele>
        <time>2018-06-08T07:45:26Z</time>
      </trkpt>
      <trkpt lat="44.22007" lon="6.21236">
        <ele>1208</ele>
        <time>2018-06-08T07:45:29Z</time>
      </trkpt>
      <trkpt lat="44.22008" lon="6.21234">
        <ele>1208</ele>
        <time>2018-06-08T07:45:30Z</time>
      </trkpt>
      <trkpt lat="44.2201" lon="6.21232">
        <ele>1209</ele>
        <time>2018-06-08T07:45:32Z</time>
      </trkpt>
      <trkpt lat="44.2201" lon="6.21229">
        <ele>1209</ele>
        <time>2018-06-08T07:45:35Z</time>
      </trkpt>
      <trkpt lat="44.22011" lon="6.21227">
        <ele>1210</ele>
        <time>2018-06-08T07:45:36Z</time>
      </trkpt>
      <trkpt lat="44.22011" lon="6.21225">
        <ele>1210</ele>
        <time>2018-06-08T07:45:38Z</time>
      </trkpt>
      <trkpt lat="44.22011" lon="6.21224">
        <ele>1210</ele>
        <time>2018-06-08T07:45:41Z</time>
      </trkpt>
      <trkpt lat="44.22011" lon="6.21222">
        <ele>1211</ele>
        <time>2018-06-08T07:45:42Z</time>
      </trkpt>
      <trkpt lat="44.22012" lon="6.2122">
        <ele>1211</ele>
        <time>2018-06-08T07:45:44Z</time>
      </trkpt>
      <trkpt lat="44.22012" lon="6.21219">
        <ele>1212</ele>
        <time>2018-06-08T07:45:47Z</time>
      </trkpt>
      <trkpt lat="44.22012" lon="6.21217">
        <ele>1213</ele>
        <time>2018-06-08T07:45:51Z</time>
      </trkpt>
      <trkpt lat="44.22012" lon="6.21216">
        <ele>1213</ele>
        <time>2018-06-08T07:45:53Z</time>
      </trkpt>
      <trkpt lat="44.22012" lon="6.21214">
        <ele>1213</ele>
        <time>2018-06-08T07:46:01Z</time>
      </trkpt>
      <trkpt lat="44.22012" lon="6.21212">
        <ele>1213</ele>
        <time>2018-06-08T07:46:02Z</time>
      </trkpt>
      <trkpt lat="44.22013" lon="6.2121">
        <ele>1213</ele>
        <time>2018-06-08T07:46:04Z</time>
      </trkpt>
      <trkpt lat="44.22013" lon="6.21208">
        <ele>1213</ele>
        <time>2018-06-08T07:46:06Z</time>
      </trkpt>
      <trkpt lat="44.22015" lon="6.21206">
        <ele>1214</ele>
        <time>2018-06-08T07:46:08Z</time>
      </trkpt>
      <trkpt lat="44.22015" lon="6.21204">
        <ele>1214</ele>
        <time>2018-06-08T07:46:10Z</time>
      </trkpt>
      <trkpt lat="44.22015" lon="6.21203">
        <ele>1214</ele>
        <time>2018-06-08T07:46:13Z</time>
      </trkpt>
      <trkpt lat="44.22015" lon="6.21201">
        <ele>1214</ele>
        <time>2018-06-08T07:46:18Z</time>
      </trkpt>
      <trkpt lat="44.22013" lon="6.21201">
        <ele>1215</ele>
        <time>2018-06-08T07:46:35Z</time>
      </trkpt>
      <trkpt lat="44.22013" lon="6.21199">
        <ele>1217</ele>
        <time>2018-06-08T07:46:53Z</time>
      </trkpt>
      <trkpt lat="44.22013" lon="6.21201">
        <ele>1217</ele>
        <time>2018-06-08T07:47:05Z</time>
      </trkpt>
      <trkpt lat="44.22013" lon="6.21199">
        <ele>1217</ele>
        <time>2018-06-08T07:47:15Z</time>
      </trkpt>
      <trkpt lat="44.22013" lon="6.21197">
        <ele>1217</ele>
        <time>2018-06-08T07:47:16Z</time>
      </trkpt>
      <trkpt lat="44.22013" lon="6.21195">
        <ele>1217</ele>
        <time>2018-06-08T07:47:18Z</time>
      </trkpt>
      <trkpt lat="44.22011" lon="6.21193">
        <ele>1217</ele>
        <time>2018-06-08T07:47:20Z</time>
      </trkpt>
      <trkpt lat="44.22011" lon="6.21192">
        <ele>1217</ele>
        <time>2018-06-08T07:47:21Z</time>
      </trkpt>
      <trkpt lat="44.2201" lon="6.21189">
        <ele>1217</ele>
        <time>2018-06-08T07:47:23Z</time>
      </trkpt>
      <trkpt lat="44.2201" lon="6.21187">
        <ele>1217</ele>
        <time>2018-06-08T07:47:25Z</time>
      </trkpt>
      <trkpt lat="44.2201" lon="6.21184">
        <ele>1218</ele>
        <time>2018-06-08T07:47:27Z</time>
      </trkpt>
      <trkpt lat="44.2201" lon="6.21182">
        <ele>1218</ele>
        <time>2018-06-08T07:47:29Z</time>
      </trkpt>
      <trkpt lat="44.2201" lon="6.21181">
        <ele>1218</ele>
        <time>2018-06-08T07:47:32Z</time>
      </trkpt>
      <trkpt lat="44.2201" lon="6.21178">
        <ele>1219</ele>
        <time>2018-06-08T07:47:33Z</time>
      </trkpt>
      <trkpt lat="44.2201" lon="6.21176">
        <ele>1219</ele>
        <time>2018-06-08T07:47:35Z</time>
      </trkpt>
      <trkpt lat="44.2201" lon="6.21175">
        <ele>1219</ele>
        <time>2018-06-08T07:47:36Z</time>
      </trkpt>
      <trkpt lat="44.22011" lon="6.21172">
        <ele>1220</ele>
        <time>2018-06-08T07:47:38Z</time>
      </trkpt>
      <trkpt lat="44.22011" lon="6.2117">
        <ele>1220</ele>
        <time>2018-06-08T07:47:40Z</time>
      </trkpt>
      <trkpt lat="44.22012" lon="6.21169">
        <ele>1221</ele>
        <time>2018-06-08T07:47:43Z</time>
      </trkpt>
      <trkpt lat="44.22013" lon="6.21167">
        <ele>1221</ele>
        <time>2018-06-08T07:47:44Z</time>
      </trkpt>
      <trkpt lat="44.22013" lon="6.21166">
        <ele>1221</ele>
        <time>2018-06-08T07:47:46Z</time>
      </trkpt>
      <trkpt lat="44.22014" lon="6.21164">
        <ele>1221</ele>
        <time>2018-06-08T07:47:48Z</time>
      </trkpt>
      <trkpt lat="44.22014" lon="6.21162">
        <ele>1221</ele>
        <time>2018-06-08T07:47:50Z</time>
      </trkpt>
      <trkpt lat="44.22014" lon="6.2116">
        <ele>1221</ele>
        <time>2018-06-08T07:47:52Z</time>
      </trkpt>
      <trkpt lat="44.22014" lon="6.21158">
        <ele>1221</ele>
        <time>2018-06-08T07:47:55Z</time>
      </trkpt>
      <trkpt lat="44.22014" lon="6.21157">
        <ele>1222</ele>
        <time>2018-06-08T07:47:57Z</time>
      </trkpt>
      <trkpt lat="44.22014" lon="6.21155">
        <ele>1222</ele>
        <time>2018-06-08T07:47:59Z</time>
      </trkpt>
      <trkpt lat="44.22014" lon="6.21154">
        <ele>1222</ele>
        <time>2018-06-08T07:48:02Z</time>
      </trkpt>
      <trkpt lat="44.22014" lon="6.21152">
        <ele>1223</ele>
        <time>2018-06-08T07:48:03Z</time>
      </trkpt>
      <trkpt lat="44.22014" lon="6.2115">
        <ele>1223</ele>
        <time>2018-06-08T07:48:05Z</time>
      </trkpt>
      <trkpt lat="44.22014" lon="6.21148">
        <ele>1223</ele>
        <time>2018-06-08T07:48:07Z</time>
      </trkpt>
      <trkpt lat="44.22014" lon="6.21147">
        <ele>1224</ele>
        <time>2018-06-08T07:48:09Z</time>
      </trkpt>
      <trkpt lat="44.22015" lon="6.21145">
        <ele>1224</ele>
        <time>2018-06-08T07:48:11Z</time>
      </trkpt>
      <trkpt lat="44.22016" lon="6.21143">
        <ele>1224</ele>
        <time>2018-06-08T07:48:14Z</time>
      </trkpt>
      <trkpt lat="44.22017" lon="6.21142">
        <ele>1224</ele>
        <time>2018-06-08T07:48:15Z</time>
      </trkpt>
      <trkpt lat="44.22019" lon="6.21141">
        <ele>1224</ele>
        <time>2018-06-08T07:48:17Z</time>
      </trkpt>
      <trkpt lat="44.22021" lon="6.21141">
        <ele>1224</ele>
        <time>2018-06-08T07:48:19Z</time>
      </trkpt>
      <trkpt lat="44.22023" lon="6.21141">
        <ele>1224</ele>
        <time>2018-06-08T07:48:21Z</time>
      </trkpt>
      <trkpt lat="44.22024" lon="6.21141">
        <ele>1224</ele>
        <time>2018-06-08T07:48:23Z</time>
      </trkpt>
      <trkpt lat="44.22026" lon="6.21141">
        <ele>1224</ele>
        <time>2018-06-08T07:48:25Z</time>
      </trkpt>
      <trkpt lat="44.22027" lon="6.21142">
        <ele>1224</ele>
        <time>2018-06-08T07:48:26Z</time>
      </trkpt>
      <trkpt lat="44.22029" lon="6.21142">
        <ele>1224</ele>
        <time>2018-06-08T07:48:28Z</time>
      </trkpt>
      <trkpt lat="44.2203" lon="6.21142">
        <ele>1224</ele>
        <time>2018-06-08T07:48:30Z</time>
      </trkpt>
      <trkpt lat="44.22032" lon="6.21142">
        <ele>1224</ele>
        <time>2018-06-08T07:48:32Z</time>
      </trkpt>
      <trkpt lat="44.22034" lon="6.21142">
        <ele>1224</ele>
        <time>2018-06-08T07:48:34Z</time>
      </trkpt>
      <trkpt lat="44.22036" lon="6.21141">
        <ele>1224</ele>
        <time>2018-06-08T07:48:36Z</time>
      </trkpt>
      <trkpt lat="44.22037" lon="6.21141">
        <ele>1224</ele>
        <time>2018-06-08T07:48:38Z</time>
      </trkpt>
      <trkpt lat="44.22039" lon="6.21141">
        <ele>1224</ele>
        <time>2018-06-08T07:48:40Z</time>
      </trkpt>
      <trkpt lat="44.2204" lon="6.2114">
        <ele>1224</ele>
        <time>2018-06-08T07:48:43Z</time>
      </trkpt>
      <trkpt lat="44.22041" lon="6.21139">
        <ele>1224</ele>
        <time>2018-06-08T07:48:45Z</time>
      </trkpt>
      <trkpt lat="44.22043" lon="6.21138">
        <ele>1225</ele>
        <time>2018-06-08T07:48:47Z</time>
      </trkpt>
      <trkpt lat="44.22044" lon="6.21138">
        <ele>1225</ele>
        <time>2018-06-08T07:48:49Z</time>
      </trkpt>
      <trkpt lat="44.22046" lon="6.21137">
        <ele>1226</ele>
        <time>2018-06-08T07:48:51Z</time>
      </trkpt>
      <trkpt lat="44.22047" lon="6.21136">
        <ele>1226</ele>
        <time>2018-06-08T07:48:53Z</time>
      </trkpt>
      <trkpt lat="44.22049" lon="6.21136">
        <ele>1226</ele>
        <time>2018-06-08T07:48:55Z</time>
      </trkpt>
      <trkpt lat="44.2205" lon="6.21136">
        <ele>1226</ele>
        <time>2018-06-08T07:48:57Z</time>
      </trkpt>
      <trkpt lat="44.22051" lon="6.21135">
        <ele>1227</ele>
        <time>2018-06-08T07:48:59Z</time>
      </trkpt>
      <trkpt lat="44.22052" lon="6.21134">
        <ele>1227</ele>
        <time>2018-06-08T07:49:01Z</time>
      </trkpt>
      <trkpt lat="44.22054" lon="6.21134">
        <ele>1227</ele>
        <time>2018-06-08T07:49:03Z</time>
      </trkpt>
      <trkpt lat="44.22055" lon="6.21133">
        <ele>1227</ele>
        <time>2018-06-08T07:49:05Z</time>
      </trkpt>
      <trkpt lat="44.22057" lon="6.21133">
        <ele>1227</ele>
        <time>2018-06-08T07:49:07Z</time>
      </trkpt>
      <trkpt lat="44.22058" lon="6.21132">
        <ele>1227</ele>
        <time>2018-06-08T07:49:09Z</time>
      </trkpt>
      <trkpt lat="44.22059" lon="6.21132">
        <ele>1227</ele>
        <time>2018-06-08T07:49:11Z</time>
      </trkpt>
      <trkpt lat="44.2206" lon="6.21132">
        <ele>1227</ele>
        <time>2018-06-08T07:49:13Z</time>
      </trkpt>
      <trkpt lat="44.22062" lon="6.21131">
        <ele>1228</ele>
        <time>2018-06-08T07:49:15Z</time>
      </trkpt>
      <trkpt lat="44.22063" lon="6.2113">
        <ele>1228</ele>
        <time>2018-06-08T07:49:17Z</time>
      </trkpt>
      <trkpt lat="44.22064" lon="6.21129">
        <ele>1228</ele>
        <time>2018-06-08T07:49:19Z</time>
      </trkpt>
      <trkpt lat="44.22065" lon="6.21129">
        <ele>1229</ele>
        <time>2018-06-08T07:49:21Z</time>
      </trkpt>
      <trkpt lat="44.22066" lon="6.21129">
        <ele>1229</ele>
        <time>2018-06-08T07:49:23Z</time>
      </trkpt>
      <trkpt lat="44.22068" lon="6.21128">
        <ele>1229</ele>
        <time>2018-06-08T07:49:25Z</time>
      </trkpt>
      <trkpt lat="44.22069" lon="6.21128">
        <ele>1230</ele>
        <time>2018-06-08T07:49:27Z</time>
      </trkpt>
      <trkpt lat="44.2207" lon="6.21127">
        <ele>1230</ele>
        <time>2018-06-08T07:49:29Z</time>
      </trkpt>
      <trkpt lat="44.22072" lon="6.21127">
        <ele>1230</ele>
        <time>2018-06-08T07:49:31Z</time>
      </trkpt>
      <trkpt lat="44.22073" lon="6.21126">
        <ele>1230</ele>
        <time>2018-06-08T07:49:33Z</time>
      </trkpt>
      <trkpt lat="44.22075" lon="6.21125">
        <ele>1231</ele>
        <time>2018-06-08T07:49:35Z</time>
      </trkpt>
      <trkpt lat="44.22076" lon="6.21125">
        <ele>1231</ele>
        <time>2018-06-08T07:49:37Z</time>
      </trkpt>
      <trkpt lat="44.22077" lon="6.21125">
        <ele>1231</ele>
        <time>2018-06-08T07:49:39Z</time>
      </trkpt>
      <trkpt lat="44.22079" lon="6.21124">
        <ele>1231</ele>
        <time>2018-06-08T07:49:41Z</time>
      </trkpt>
      <trkpt lat="44.2208" lon="6.21124">
        <ele>1231</ele>
        <time>2018-06-08T07:49:43Z</time>
      </trkpt>
      <trkpt lat="44.22082" lon="6.21124">
        <ele>1231</ele>
        <time>2018-06-08T07:49:45Z</time>
      </trkpt>
      <trkpt lat="44.22083" lon="6.21124">
        <ele>1232</ele>
        <time>2018-06-08T07:49:47Z</time>
      </trkpt>
      <trkpt lat="44.22084" lon="6.21124">
        <ele>1232</ele>
        <time>2018-06-08T07:49:49Z</time>
      </trkpt>
      <trkpt lat="44.22086" lon="6.21123">
        <ele>1232</ele>
        <time>2018-06-08T07:49:51Z</time>
      </trkpt>
      <trkpt lat="44.22086" lon="6.21121">
        <ele>1232</ele>
        <time>2018-06-08T07:49:53Z</time>
      </trkpt>
      <trkpt lat="44.22086" lon="6.2112">
        <ele>1232</ele>
        <time>2018-06-08T07:49:54Z</time>
      </trkpt>
      <trkpt lat="44.22087" lon="6.21118">
        <ele>1232</ele>
        <time>2018-06-08T07:49:55Z</time>
      </trkpt>
      <trkpt lat="44.22087" lon="6.21117">
        <ele>1233</ele>
        <time>2018-06-08T07:49:56Z</time>
      </trkpt>
      <trkpt lat="44.22088" lon="6.21114">
        <ele>1234</ele>
        <time>2018-06-08T07:49:58Z</time>
      </trkpt>
      <trkpt lat="44.22089" lon="6.21112">
        <ele>1234</ele>
        <time>2018-06-08T07:50:00Z</time>
      </trkpt>
      <trkpt lat="44.2209" lon="6.21111">
        <ele>1235</ele>
        <time>2018-06-08T07:50:02Z</time>
      </trkpt>
      <trkpt lat="44.22092" lon="6.21109">
        <ele>1235</ele>
        <time>2018-06-08T07:50:04Z</time>
      </trkpt>
      <trkpt lat="44.22094" lon="6.21108">
        <ele>1236</ele>
        <time>2018-06-08T07:50:06Z</time>
      </trkpt>
      <trkpt lat="44.22095" lon="6.21107">
        <ele>1236</ele>
        <time>2018-06-08T07:50:08Z</time>
      </trkpt>
      <trkpt lat="44.22097" lon="6.21106">
        <ele>1236</ele>
        <time>2018-06-08T07:50:10Z</time>
      </trkpt>
      <trkpt lat="44.22098" lon="6.21105">
        <ele>1236</ele>
        <time>2018-06-08T07:50:12Z</time>
      </trkpt>
      <trkpt lat="44.22099" lon="6.21104">
        <ele>1237</ele>
        <time>2018-06-08T07:50:14Z</time>
      </trkpt>
      <trkpt lat="44.221" lon="6.21103">
        <ele>1237</ele>
        <time>2018-06-08T07:50:16Z</time>
      </trkpt>
      <trkpt lat="44.22102" lon="6.21103">
        <ele>1237</ele>
        <time>2018-06-08T07:50:19Z</time>
      </trkpt>
      <trkpt lat="44.22104" lon="6.21102">
        <ele>1237</ele>
        <time>2018-06-08T07:50:21Z</time>
      </trkpt>
      <trkpt lat="44.22105" lon="6.21102">
        <ele>1237</ele>
        <time>2018-06-08T07:50:24Z</time>
      </trkpt>
      <trkpt lat="44.22107" lon="6.21101">
        <ele>1238</ele>
        <time>2018-06-08T07:50:26Z</time>
      </trkpt>
      <trkpt lat="44.22108" lon="6.211">
        <ele>1238</ele>
        <time>2018-06-08T07:50:28Z</time>
      </trkpt>
      <trkpt lat="44.22109" lon="6.21098">
        <ele>1238</ele>
        <time>2018-06-08T07:50:30Z</time>
      </trkpt>
      <trkpt lat="44.2211" lon="6.21097">
        <ele>1238</ele>
        <time>2018-06-08T07:50:32Z</time>
      </trkpt>
      <trkpt lat="44.22112" lon="6.21096">
        <ele>1238</ele>
        <time>2018-06-08T07:50:34Z</time>
      </trkpt>
      <trkpt lat="44.22113" lon="6.21095">
        <ele>1238</ele>
        <time>2018-06-08T07:50:36Z</time>
      </trkpt>
      <trkpt lat="44.22115" lon="6.21093">
        <ele>1238</ele>
        <time>2018-06-08T07:50:38Z</time>
      </trkpt>
      <trkpt lat="44.22116" lon="6.21092">
        <ele>1239</ele>
        <time>2018-06-08T07:50:40Z</time>
      </trkpt>
      <trkpt lat="44.22117" lon="6.21091">
        <ele>1239</ele>
        <time>2018-06-08T07:50:42Z</time>
      </trkpt>
      <trkpt lat="44.22118" lon="6.2109">
        <ele>1239</ele>
        <time>2018-06-08T07:50:45Z</time>
      </trkpt>
      <trkpt lat="44.2212" lon="6.21088">
        <ele>1239</ele>
        <time>2018-06-08T07:50:48Z</time>
      </trkpt>
      <trkpt lat="44.22121" lon="6.21087">
        <ele>1239</ele>
        <time>2018-06-08T07:50:50Z</time>
      </trkpt>
      <trkpt lat="44.22123" lon="6.21086">
        <ele>1240</ele>
        <time>2018-06-08T07:50:52Z</time>
      </trkpt>
      <trkpt lat="44.22124" lon="6.21085">
        <ele>1240</ele>
        <time>2018-06-08T07:50:54Z</time>
      </trkpt>
      <trkpt lat="44.22126" lon="6.21084">
        <ele>1240</ele>
        <time>2018-06-08T07:50:57Z</time>
      </trkpt>
      <trkpt lat="44.22128" lon="6.21083">
        <ele>1241</ele>
        <time>2018-06-08T07:50:59Z</time>
      </trkpt>
      <trkpt lat="44.22129" lon="6.21082">
        <ele>1241</ele>
        <time>2018-06-08T07:51:01Z</time>
      </trkpt>
      <trkpt lat="44.2213" lon="6.21081">
        <ele>1242</ele>
        <time>2018-06-08T07:51:03Z</time>
      </trkpt>
      <trkpt lat="44.22131" lon="6.2108">
        <ele>1242</ele>
        <time>2018-06-08T07:51:06Z</time>
      </trkpt>
      <trkpt lat="44.22133" lon="6.2108">
        <ele>1242</ele>
        <time>2018-06-08T07:51:07Z</time>
      </trkpt>
      <trkpt lat="44.22134" lon="6.21079">
        <ele>1243</ele>
        <time>2018-06-08T07:51:09Z</time>
      </trkpt>
      <trkpt lat="44.22136" lon="6.21078">
        <ele>1243</ele>
        <time>2018-06-08T07:51:11Z</time>
      </trkpt>
      <trkpt lat="44.22137" lon="6.21077">
        <ele>1243</ele>
        <time>2018-06-08T07:51:13Z</time>
      </trkpt>
      <trkpt lat="44.22138" lon="6.21075">
        <ele>1244</ele>
        <time>2018-06-08T07:51:15Z</time>
      </trkpt>
      <trkpt lat="44.22139" lon="6.21073">
        <ele>1244</ele>
        <time>2018-06-08T07:51:17Z</time>
      </trkpt>
      <trkpt lat="44.2214" lon="6.21072">
        <ele>1245</ele>
        <time>2018-06-08T07:51:19Z</time>
      </trkpt>
      <trkpt lat="44.22142" lon="6.21072">
        <ele>1245</ele>
        <time>2018-06-08T07:51:21Z</time>
      </trkpt>
      <trkpt lat="44.22143" lon="6.21074">
        <ele>1245</ele>
        <time>2018-06-08T07:51:23Z</time>
      </trkpt>
      <trkpt lat="44.22143" lon="6.21076">
        <ele>1245</ele>
        <time>2018-06-08T07:51:25Z</time>
      </trkpt>
      <trkpt lat="44.22144" lon="6.21077">
        <ele>1245</ele>
        <time>2018-06-08T07:51:27Z</time>
      </trkpt>
      <trkpt lat="44.22144" lon="6.21079">
        <ele>1245</ele>
        <time>2018-06-08T07:51:29Z</time>
      </trkpt>
      <trkpt lat="44.22143" lon="6.21081">
        <ele>1245</ele>
        <time>2018-06-08T07:51:31Z</time>
      </trkpt>
      <trkpt lat="44.22143" lon="6.21083">
        <ele>1245</ele>
        <time>2018-06-08T07:51:33Z</time>
      </trkpt>
      <trkpt lat="44.22142" lon="6.21084">
        <ele>1245</ele>
        <time>2018-06-08T07:51:35Z</time>
      </trkpt>
      <trkpt lat="44.22141" lon="6.21086">
        <ele>1245</ele>
        <time>2018-06-08T07:51:37Z</time>
      </trkpt>
      <trkpt lat="44.22139" lon="6.21088">
        <ele>1245</ele>
        <time>2018-06-08T07:51:39Z</time>
      </trkpt>
      <trkpt lat="44.22138" lon="6.2109">
        <ele>1245</ele>
        <time>2018-06-08T07:51:41Z</time>
      </trkpt>
      <trkpt lat="44.22137" lon="6.21091">
        <ele>1245</ele>
        <time>2018-06-08T07:51:43Z</time>
      </trkpt>
      <trkpt lat="44.22136" lon="6.21093">
        <ele>1245</ele>
        <time>2018-06-08T07:51:46Z</time>
      </trkpt>
      <trkpt lat="44.22134" lon="6.21095">
        <ele>1245</ele>
        <time>2018-06-08T07:51:49Z</time>
      </trkpt>
      <trkpt lat="44.22133" lon="6.21097">
        <ele>1245</ele>
        <time>2018-06-08T07:51:51Z</time>
      </trkpt>
      <trkpt lat="44.22132" lon="6.21099">
        <ele>1245</ele>
        <time>2018-06-08T07:51:53Z</time>
      </trkpt>
      <trkpt lat="44.22132" lon="6.211">
        <ele>1245</ele>
        <time>2018-06-08T07:51:55Z</time>
      </trkpt>
      <trkpt lat="44.22131" lon="6.21102">
        <ele>1245</ele>
        <time>2018-06-08T07:51:57Z</time>
      </trkpt>
      <trkpt lat="44.22131" lon="6.21104">
        <ele>1245</ele>
        <time>2018-06-08T07:51:59Z</time>
      </trkpt>
      <trkpt lat="44.2213" lon="6.21106">
        <ele>1245</ele>
        <time>2018-06-08T07:52:01Z</time>
      </trkpt>
      <trkpt lat="44.2213" lon="6.21107">
        <ele>1245</ele>
        <time>2018-06-08T07:52:03Z</time>
      </trkpt>
      <trkpt lat="44.22129" lon="6.21109">
        <ele>1245</ele>
        <time>2018-06-08T07:52:05Z</time>
      </trkpt>
      <trkpt lat="44.22129" lon="6.2111">
        <ele>1245</ele>
        <time>2018-06-08T07:52:07Z</time>
      </trkpt>
      <trkpt lat="44.22127" lon="6.21113">
        <ele>1245</ele>
        <time>2018-06-08T07:52:10Z</time>
      </trkpt>
      <trkpt lat="44.22126" lon="6.21114">
        <ele>1245</ele>
        <time>2018-06-08T07:52:12Z</time>
      </trkpt>
      <trkpt lat="44.22126" lon="6.21116">
        <ele>1245</ele>
        <time>2018-06-08T07:52:14Z</time>
      </trkpt>
      <trkpt lat="44.22124" lon="6.21117">
        <ele>1245</ele>
        <time>2018-06-08T07:52:16Z</time>
      </trkpt>
      <trkpt lat="44.22124" lon="6.21119">
        <ele>1245</ele>
        <time>2018-06-08T07:52:18Z</time>
      </trkpt>
      <trkpt lat="44.22123" lon="6.21121">
        <ele>1245</ele>
        <time>2018-06-08T07:52:20Z</time>
      </trkpt>
      <trkpt lat="44.22122" lon="6.21123">
        <ele>1245</ele>
        <time>2018-06-08T07:52:22Z</time>
      </trkpt>
      <trkpt lat="44.22121" lon="6.21124">
        <ele>1245</ele>
        <time>2018-06-08T07:52:24Z</time>
      </trkpt>
      <trkpt lat="44.2212" lon="6.21126">
        <ele>1245</ele>
        <time>2018-06-08T07:52:26Z</time>
      </trkpt>
      <trkpt lat="44.22119" lon="6.21128">
        <ele>1245</ele>
        <time>2018-06-08T07:52:28Z</time>
      </trkpt>
      <trkpt lat="44.22119" lon="6.21129">
        <ele>1245</ele>
        <time>2018-06-08T07:52:30Z</time>
      </trkpt>
      <trkpt lat="44.2212" lon="6.21131">
        <ele>1245</ele>
        <time>2018-06-08T07:52:32Z</time>
      </trkpt>
      <trkpt lat="44.22121" lon="6.21131">
        <ele>1245</ele>
        <time>2018-06-08T07:52:34Z</time>
      </trkpt>
      <trkpt lat="44.22122" lon="6.2113">
        <ele>1246</ele>
        <time>2018-06-08T07:52:36Z</time>
      </trkpt>
      <trkpt lat="44.22124" lon="6.2113">
        <ele>1246</ele>
        <time>2018-06-08T07:52:38Z</time>
      </trkpt>
      <trkpt lat="44.22125" lon="6.2113">
        <ele>1247</ele>
        <time>2018-06-08T07:52:40Z</time>
      </trkpt>
      <trkpt lat="44.22126" lon="6.21129">
        <ele>1247</ele>
        <time>2018-06-08T07:52:42Z</time>
      </trkpt>
      <trkpt lat="44.22128" lon="6.21128">
        <ele>1247</ele>
        <time>2018-06-08T07:52:44Z</time>
      </trkpt>
      <trkpt lat="44.22129" lon="6.21128">
        <ele>1248</ele>
        <time>2018-06-08T07:52:46Z</time>
      </trkpt>
      <trkpt lat="44.2213" lon="6.21126">
        <ele>1248</ele>
        <time>2018-06-08T07:52:49Z</time>
      </trkpt>
      <trkpt lat="44.22132" lon="6.21124">
        <ele>1249</ele>
        <time>2018-06-08T07:52:52Z</time>
      </trkpt>
      <trkpt lat="44.22133" lon="6.21123">
        <ele>1249</ele>
        <time>2018-06-08T07:52:54Z</time>
      </trkpt>
      <trkpt lat="44.22134" lon="6.21122">
        <ele>1249</ele>
        <time>2018-06-08T07:52:56Z</time>
      </trkpt>
      <trkpt lat="44.22136" lon="6.21121">
        <ele>1250</ele>
        <time>2018-06-08T07:52:58Z</time>
      </trkpt>
      <trkpt lat="44.22137" lon="6.2112">
        <ele>1250</ele>
        <time>2018-06-08T07:53:00Z</time>
      </trkpt>
      <trkpt lat="44.22139" lon="6.2112">
        <ele>1250</ele>
        <time>2018-06-08T07:53:02Z</time>
      </trkpt>
      <trkpt lat="44.2214" lon="6.21119">
        <ele>1251</ele>
        <time>2018-06-08T07:53:04Z</time>
      </trkpt>
      <trkpt lat="44.22141" lon="6.21118">
        <ele>1251</ele>
        <time>2018-06-08T07:53:06Z</time>
      </trkpt>
      <trkpt lat="44.22142" lon="6.21116">
        <ele>1252</ele>
        <time>2018-06-08T07:53:09Z</time>
      </trkpt>
      <trkpt lat="44.22144" lon="6.21115">
        <ele>1252</ele>
        <time>2018-06-08T07:53:12Z</time>
      </trkpt>
      <trkpt lat="44.22146" lon="6.21113">
        <ele>1253</ele>
        <time>2018-06-08T07:53:15Z</time>
      </trkpt>
      <trkpt lat="44.22147" lon="6.21111">
        <ele>1253</ele>
        <time>2018-06-08T07:53:17Z</time>
      </trkpt>
      <trkpt lat="44.22148" lon="6.2111">
        <ele>1254</ele>
        <time>2018-06-08T07:53:19Z</time>
      </trkpt>
      <trkpt lat="44.22149" lon="6.21109">
        <ele>1254</ele>
        <time>2018-06-08T07:53:21Z</time>
      </trkpt>
      <trkpt lat="44.22151" lon="6.21108">
        <ele>1254</ele>
        <time>2018-06-08T07:53:23Z</time>
      </trkpt>
      <trkpt lat="44.22152" lon="6.21107">
        <ele>1254</ele>
        <time>2018-06-08T07:53:25Z</time>
      </trkpt>
      <trkpt lat="44.22153" lon="6.21107">
        <ele>1255</ele>
        <time>2018-06-08T07:53:27Z</time>
      </trkpt>
      <trkpt lat="44.22155" lon="6.21106">
        <ele>1255</ele>
        <time>2018-06-08T07:53:29Z</time>
      </trkpt>
      <trkpt lat="44.22157" lon="6.21106">
        <ele>1255</ele>
        <time>2018-06-08T07:53:31Z</time>
      </trkpt>
      <trkpt lat="44.22158" lon="6.21106">
        <ele>1255</ele>
        <time>2018-06-08T07:53:33Z</time>
      </trkpt>
      <trkpt lat="44.2216" lon="6.21105">
        <ele>1256</ele>
        <time>2018-06-08T07:53:36Z</time>
      </trkpt>
      <trkpt lat="44.22161" lon="6.21105">
        <ele>1256</ele>
        <time>2018-06-08T07:53:38Z</time>
      </trkpt>
      <trkpt lat="44.22162" lon="6.21106">
        <ele>1256</ele>
        <time>2018-06-08T07:53:40Z</time>
      </trkpt>
      <trkpt lat="44.22164" lon="6.21106">
        <ele>1256</ele>
        <time>2018-06-08T07:53:42Z</time>
      </trkpt>
      <trkpt lat="44.22165" lon="6.21106">
        <ele>1257</ele>
        <time>2018-06-08T07:53:44Z</time>
      </trkpt>
      <trkpt lat="44.22167" lon="6.21107">
        <ele>1257</ele>
        <time>2018-06-08T07:53:46Z</time>
      </trkpt>
      <trkpt lat="44.22168" lon="6.21106">
        <ele>1257</ele>
        <time>2018-06-08T07:53:48Z</time>
      </trkpt>
      <trkpt lat="44.22169" lon="6.21106">
        <ele>1258</ele>
        <time>2018-06-08T07:53:50Z</time>
      </trkpt>
      <trkpt lat="44.22171" lon="6.21107">
        <ele>1258</ele>
        <time>2018-06-08T07:53:52Z</time>
      </trkpt>
      <trkpt lat="44.22172" lon="6.21107">
        <ele>1258</ele>
        <time>2018-06-08T07:53:54Z</time>
      </trkpt>
      <trkpt lat="44.22174" lon="6.21107">
        <ele>1258</ele>
        <time>2018-06-08T07:53:56Z</time>
      </trkpt>
      <trkpt lat="44.22175" lon="6.21107">
        <ele>1259</ele>
        <time>2018-06-08T07:53:59Z</time>
      </trkpt>
      <trkpt lat="44.22177" lon="6.21107">
        <ele>1260</ele>
        <time>2018-06-08T07:54:02Z</time>
      </trkpt>
      <trkpt lat="44.22178" lon="6.21108">
        <ele>1260</ele>
        <time>2018-06-08T07:54:05Z</time>
      </trkpt>
      <trkpt lat="44.2218" lon="6.21109">
        <ele>1260</ele>
        <time>2018-06-08T07:54:09Z</time>
      </trkpt>
      <trkpt lat="44.22181" lon="6.21109">
        <ele>1261</ele>
        <time>2018-06-08T07:54:12Z</time>
      </trkpt>
      <trkpt lat="44.22182" lon="6.21109">
        <ele>1261</ele>
        <time>2018-06-08T07:54:15Z</time>
      </trkpt>
      <trkpt lat="44.22184" lon="6.21109">
        <ele>1262</ele>
        <time>2018-06-08T07:54:18Z</time>
      </trkpt>
      <trkpt lat="44.22185" lon="6.21109">
        <ele>1262</ele>
        <time>2018-06-08T07:54:20Z</time>
      </trkpt>
      <trkpt lat="44.22186" lon="6.2111">
        <ele>1263</ele>
        <time>2018-06-08T07:54:23Z</time>
      </trkpt>
      <trkpt lat="44.22187" lon="6.2111">
        <ele>1264</ele>
        <time>2018-06-08T07:54:26Z</time>
      </trkpt>
      <trkpt lat="44.22188" lon="6.21113">
        <ele>1264</ele>
        <time>2018-06-08T07:54:29Z</time>
      </trkpt>
      <trkpt lat="44.22187" lon="6.21114">
        <ele>1265</ele>
        <time>2018-06-08T07:54:31Z</time>
      </trkpt>
      <trkpt lat="44.22186" lon="6.21116">
        <ele>1265</ele>
        <time>2018-06-08T07:54:34Z</time>
      </trkpt>
      <trkpt lat="44.22185" lon="6.21118">
        <ele>1265</ele>
        <time>2018-06-08T07:54:36Z</time>
      </trkpt>
      <trkpt lat="44.22184" lon="6.2112">
        <ele>1265</ele>
        <time>2018-06-08T07:54:38Z</time>
      </trkpt>
      <trkpt lat="44.22184" lon="6.21121">
        <ele>1265</ele>
        <time>2018-06-08T07:54:40Z</time>
      </trkpt>
      <trkpt lat="44.22182" lon="6.21123">
        <ele>1265</ele>
        <time>2018-06-08T07:54:42Z</time>
      </trkpt>
      <trkpt lat="44.22181" lon="6.21125">
        <ele>1265</ele>
        <time>2018-06-08T07:54:45Z</time>
      </trkpt>
      <trkpt lat="44.22181" lon="6.21126">
        <ele>1265</ele>
        <time>2018-06-08T07:54:47Z</time>
      </trkpt>
      <trkpt lat="44.22182" lon="6.21128">
        <ele>1265</ele>
        <time>2018-06-08T07:54:50Z</time>
      </trkpt>
      <trkpt lat="44.22183" lon="6.21127">
        <ele>1266</ele>
        <time>2018-06-08T07:54:52Z</time>
      </trkpt>
      <trkpt lat="44.22185" lon="6.21127">
        <ele>1266</ele>
        <time>2018-06-08T07:54:54Z</time>
      </trkpt>
      <trkpt lat="44.22187" lon="6.21126">
        <ele>1266</ele>
        <time>2018-06-08T07:54:56Z</time>
      </trkpt>
      <trkpt lat="44.22188" lon="6.21126">
        <ele>1266</ele>
        <time>2018-06-08T07:54:58Z</time>
      </trkpt>
      <trkpt lat="44.22189" lon="6.21126">
        <ele>1266</ele>
        <time>2018-06-08T07:55:00Z</time>
      </trkpt>
      <trkpt lat="44.22191" lon="6.21126">
        <ele>1266</ele>
        <time>2018-06-08T07:55:02Z</time>
      </trkpt>
      <trkpt lat="44.22192" lon="6.21126">
        <ele>1267</ele>
        <time>2018-06-08T07:55:04Z</time>
      </trkpt>
      <trkpt lat="44.22194" lon="6.21126">
        <ele>1267</ele>
        <time>2018-06-08T07:55:06Z</time>
      </trkpt>
      <trkpt lat="44.22195" lon="6.21126">
        <ele>1267</ele>
        <time>2018-06-08T07:55:08Z</time>
      </trkpt>
      <trkpt lat="44.22197" lon="6.21126">
        <ele>1267</ele>
        <time>2018-06-08T07:55:10Z</time>
      </trkpt>
      <trkpt lat="44.22198" lon="6.21126">
        <ele>1268</ele>
        <time>2018-06-08T07:55:12Z</time>
      </trkpt>
      <trkpt lat="44.22199" lon="6.21126">
        <ele>1268</ele>
        <time>2018-06-08T07:55:14Z</time>
      </trkpt>
      <trkpt lat="44.222" lon="6.21126">
        <ele>1268</ele>
        <time>2018-06-08T07:55:16Z</time>
      </trkpt>
      <trkpt lat="44.22202" lon="6.21126">
        <ele>1269</ele>
        <time>2018-06-08T07:55:18Z</time>
      </trkpt>
      <trkpt lat="44.22203" lon="6.21126">
        <ele>1269</ele>
        <time>2018-06-08T07:55:21Z</time>
      </trkpt>
      <trkpt lat="44.22204" lon="6.21127">
        <ele>1270</ele>
        <time>2018-06-08T07:55:37Z</time>
      </trkpt>
      <trkpt lat="44.22205" lon="6.21128">
        <ele>1270</ele>
        <time>2018-06-08T07:55:40Z</time>
      </trkpt>
      <trkpt lat="44.22206" lon="6.2113">
        <ele>1271</ele>
        <time>2018-06-08T07:55:43Z</time>
      </trkpt>
      <trkpt lat="44.22205" lon="6.21132">
        <ele>1271</ele>
        <time>2018-06-08T07:55:46Z</time>
      </trkpt>
      <trkpt lat="44.22204" lon="6.21133">
        <ele>1271</ele>
        <time>2018-06-08T07:55:48Z</time>
      </trkpt>
      <trkpt lat="44.22203" lon="6.21134">
        <ele>1272</ele>
        <time>2018-06-08T07:55:51Z</time>
      </trkpt>
      <trkpt lat="44.22203" lon="6.21136">
        <ele>1272</ele>
        <time>2018-06-08T07:55:57Z</time>
      </trkpt>
      <trkpt lat="44.22202" lon="6.21138">
        <ele>1272</ele>
        <time>2018-06-08T07:55:59Z</time>
      </trkpt>
      <trkpt lat="44.22202" lon="6.2114">
        <ele>1272</ele>
        <time>2018-06-08T07:56:02Z</time>
      </trkpt>
      <trkpt lat="44.22201" lon="6.21142">
        <ele>1272</ele>
        <time>2018-06-08T07:56:05Z</time>
      </trkpt>
      <trkpt lat="44.22201" lon="6.21143">
        <ele>1273</ele>
        <time>2018-06-08T07:56:07Z</time>
      </trkpt>
      <trkpt lat="44.222" lon="6.21145">
        <ele>1273</ele>
        <time>2018-06-08T07:56:09Z</time>
      </trkpt>
      <trkpt lat="44.222" lon="6.21147">
        <ele>1273</ele>
        <time>2018-06-08T07:56:11Z</time>
      </trkpt>
      <trkpt lat="44.22202" lon="6.21148">
        <ele>1273</ele>
        <time>2018-06-08T07:56:13Z</time>
      </trkpt>
      <trkpt lat="44.22203" lon="6.21149">
        <ele>1273</ele>
        <time>2018-06-08T07:56:16Z</time>
      </trkpt>
      <trkpt lat="44.22205" lon="6.21149">
        <ele>1274</ele>
        <time>2018-06-08T07:56:19Z</time>
      </trkpt>
      <trkpt lat="44.22206" lon="6.21149">
        <ele>1274</ele>
        <time>2018-06-08T07:56:21Z</time>
      </trkpt>
      <trkpt lat="44.22207" lon="6.21148">
        <ele>1274</ele>
        <time>2018-06-08T07:56:23Z</time>
      </trkpt>
      <trkpt lat="44.22208" lon="6.21148">
        <ele>1274</ele>
        <time>2018-06-08T07:56:25Z</time>
      </trkpt>
      <trkpt lat="44.2221" lon="6.21147">
        <ele>1275</ele>
        <time>2018-06-08T07:56:27Z</time>
      </trkpt>
      <trkpt lat="44.22211" lon="6.21147">
        <ele>1275</ele>
        <time>2018-06-08T07:56:29Z</time>
      </trkpt>
      <trkpt lat="44.22212" lon="6.21146">
        <ele>1275</ele>
        <time>2018-06-08T07:56:31Z</time>
      </trkpt>
      <trkpt lat="44.22213" lon="6.21147">
        <ele>1276</ele>
        <time>2018-06-08T07:56:33Z</time>
      </trkpt>
      <trkpt lat="44.22214" lon="6.21149">
        <ele>1276</ele>
        <time>2018-06-08T07:56:36Z</time>
      </trkpt>
      <trkpt lat="44.22214" lon="6.21151">
        <ele>1277</ele>
        <time>2018-06-08T07:56:39Z</time>
      </trkpt>
      <trkpt lat="44.22213" lon="6.21153">
        <ele>1278</ele>
        <time>2018-06-08T07:56:42Z</time>
      </trkpt>
      <trkpt lat="44.22213" lon="6.21155">
        <ele>1278</ele>
        <time>2018-06-08T07:56:44Z</time>
      </trkpt>
      <trkpt lat="44.22213" lon="6.21157">
        <ele>1278</ele>
        <time>2018-06-08T07:56:47Z</time>
      </trkpt>
      <trkpt lat="44.22213" lon="6.21158">
        <ele>1278</ele>
        <time>2018-06-08T07:56:50Z</time>
      </trkpt>
      <trkpt lat="44.22213" lon="6.2116">
        <ele>1279</ele>
        <time>2018-06-08T07:56:53Z</time>
      </trkpt>
      <trkpt lat="44.22214" lon="6.21161">
        <ele>1279</ele>
        <time>2018-06-08T07:56:55Z</time>
      </trkpt>
      <trkpt lat="44.22215" lon="6.21163">
        <ele>1279</ele>
        <time>2018-06-08T07:56:58Z</time>
      </trkpt>
      <trkpt lat="44.22216" lon="6.21164">
        <ele>1280</ele>
        <time>2018-06-08T07:57:03Z</time>
      </trkpt>
      <trkpt lat="44.22218" lon="6.21165">
        <ele>1281</ele>
        <time>2018-06-08T07:57:07Z</time>
      </trkpt>
      <trkpt lat="44.22219" lon="6.21165">
        <ele>1282</ele>
        <time>2018-06-08T07:57:10Z</time>
      </trkpt>
      <trkpt lat="44.2222" lon="6.21167">
        <ele>1283</ele>
        <time>2018-06-08T07:57:13Z</time>
      </trkpt>
      <trkpt lat="44.22221" lon="6.21168">
        <ele>1284</ele>
        <time>2018-06-08T07:57:16Z</time>
      </trkpt>
      <trkpt lat="44.22222" lon="6.2117">
        <ele>1285</ele>
        <time>2018-06-08T07:57:20Z</time>
      </trkpt>
      <trkpt lat="44.22223" lon="6.21171">
        <ele>1286</ele>
        <time>2018-06-08T07:57:25Z</time>
      </trkpt>
      <trkpt lat="44.22225" lon="6.21172">
        <ele>1288</ele>
        <time>2018-06-08T07:57:29Z</time>
      </trkpt>
      <trkpt lat="44.22226" lon="6.21172">
        <ele>1288</ele>
        <time>2018-06-08T07:57:32Z</time>
      </trkpt>
      <trkpt lat="44.22227" lon="6.21173">
        <ele>1289</ele>
        <time>2018-06-08T07:57:35Z</time>
      </trkpt>
      <trkpt lat="44.22228" lon="6.21174">
        <ele>1290</ele>
        <time>2018-06-08T07:57:38Z</time>
      </trkpt>
      <trkpt lat="44.22228" lon="6.21176">
        <ele>1290</ele>
        <time>2018-06-08T07:57:40Z</time>
      </trkpt>
      <trkpt lat="44.2223" lon="6.21177">
        <ele>1291</ele>
        <time>2018-06-08T07:57:44Z</time>
      </trkpt>
      <trkpt lat="44.22231" lon="6.21178">
        <ele>1291</ele>
        <time>2018-06-08T07:57:47Z</time>
      </trkpt>
      <trkpt lat="44.22232" lon="6.21178">
        <ele>1291</ele>
        <time>2018-06-08T07:57:50Z</time>
      </trkpt>
      <trkpt lat="44.22234" lon="6.21178">
        <ele>1292</ele>
        <time>2018-06-08T07:57:53Z</time>
      </trkpt>
      <trkpt lat="44.22235" lon="6.21177">
        <ele>1292</ele>
        <time>2018-06-08T07:57:56Z</time>
      </trkpt>
      <trkpt lat="44.22236" lon="6.21177">
        <ele>1293</ele>
        <time>2018-06-08T07:58:01Z</time>
      </trkpt>
      <trkpt lat="44.22238" lon="6.21177">
        <ele>1293</ele>
        <time>2018-06-08T07:58:03Z</time>
      </trkpt>
      <trkpt lat="44.22239" lon="6.21177">
        <ele>1293</ele>
        <time>2018-06-08T07:58:12Z</time>
      </trkpt>
      <trkpt lat="44.2224" lon="6.21177">
        <ele>1293</ele>
        <time>2018-06-08T07:58:18Z</time>
      </trkpt>
      <trkpt lat="44.22242" lon="6.21177">
        <ele>1293</ele>
        <time>2018-06-08T07:58:20Z</time>
      </trkpt>
      <trkpt lat="44.22244" lon="6.21178">
        <ele>1293</ele>
        <time>2018-06-08T07:58:22Z</time>
      </trkpt>
      <trkpt lat="44.22246" lon="6.2118">
        <ele>1293</ele>
        <time>2018-06-08T07:58:24Z</time>
      </trkpt>
      <trkpt lat="44.22247" lon="6.21181">
        <ele>1293</ele>
        <time>2018-06-08T07:58:26Z</time>
      </trkpt>
      <trkpt lat="44.22248" lon="6.21183">
        <ele>1293</ele>
        <time>2018-06-08T07:58:28Z</time>
      </trkpt>
      <trkpt lat="44.2225" lon="6.21184">
        <ele>1293</ele>
        <time>2018-06-08T07:58:32Z</time>
      </trkpt>
      <trkpt lat="44.22251" lon="6.21183">
        <ele>1293</ele>
        <time>2018-06-08T07:58:35Z</time>
      </trkpt>
      <trkpt lat="44.22253" lon="6.21182">
        <ele>1293</ele>
        <time>2018-06-08T07:58:37Z</time>
      </trkpt>
      <trkpt lat="44.22255" lon="6.2118">
        <ele>1293</ele>
        <time>2018-06-08T07:58:39Z</time>
      </trkpt>
      <trkpt lat="44.22256" lon="6.21179">
        <ele>1293</ele>
        <time>2018-06-08T07:58:41Z</time>
      </trkpt>
      <trkpt lat="44.22258" lon="6.21177">
        <ele>1293</ele>
        <time>2018-06-08T07:58:44Z</time>
      </trkpt>
      <trkpt lat="44.22259" lon="6.21176">
        <ele>1294</ele>
        <time>2018-06-08T07:58:47Z</time>
      </trkpt>
      <trkpt lat="44.2226" lon="6.21174">
        <ele>1294</ele>
        <time>2018-06-08T07:58:49Z</time>
      </trkpt>
      <trkpt lat="44.22261" lon="6.21172">
        <ele>1295</ele>
        <time>2018-06-08T07:58:51Z</time>
      </trkpt>
      <trkpt lat="44.22262" lon="6.2117">
        <ele>1295</ele>
        <time>2018-06-08T07:58:53Z</time>
      </trkpt>
      <trkpt lat="44.22263" lon="6.21168">
        <ele>1295</ele>
        <time>2018-06-08T07:58:55Z</time>
      </trkpt>
      <trkpt lat="44.22263" lon="6.21166">
        <ele>1295</ele>
        <time>2018-06-08T07:58:57Z</time>
      </trkpt>
      <trkpt lat="44.22264" lon="6.21164">
        <ele>1295</ele>
        <time>2018-06-08T07:58:59Z</time>
      </trkpt>
      <trkpt lat="44.22264" lon="6.21162">
        <ele>1296</ele>
        <time>2018-06-08T07:59:02Z</time>
      </trkpt>
      <trkpt lat="44.22265" lon="6.2116">
        <ele>1297</ele>
        <time>2018-06-08T07:59:04Z</time>
      </trkpt>
      <trkpt lat="44.22266" lon="6.21158">
        <ele>1297</ele>
        <time>2018-06-08T07:59:06Z</time>
      </trkpt>
      <trkpt lat="44.22267" lon="6.21157">
        <ele>1298</ele>
        <time>2018-06-08T07:59:08Z</time>
      </trkpt>
      <trkpt lat="44.22269" lon="6.21156">
        <ele>1298</ele>
        <time>2018-06-08T07:59:10Z</time>
      </trkpt>
      <trkpt lat="44.22271" lon="6.21156">
        <ele>1299</ele>
        <time>2018-06-08T07:59:12Z</time>
      </trkpt>
      <trkpt lat="44.22272" lon="6.21155">
        <ele>1299</ele>
        <time>2018-06-08T07:59:14Z</time>
      </trkpt>
      <trkpt lat="44.22274" lon="6.21155">
        <ele>1300</ele>
        <time>2018-06-08T07:59:16Z</time>
      </trkpt>
      <trkpt lat="44.22276" lon="6.21154">
        <ele>1300</ele>
        <time>2018-06-08T07:59:19Z</time>
      </trkpt>
      <trkpt lat="44.22277" lon="6.21154">
        <ele>1301</ele>
        <time>2018-06-08T07:59:22Z</time>
      </trkpt>
      <trkpt lat="44.22277" lon="6.21156">
        <ele>1303</ele>
        <time>2018-06-08T08:00:08Z</time>
      </trkpt>
      <trkpt lat="44.22277" lon="6.21157">
        <ele>1305</ele>
        <time>2018-06-08T08:00:18Z</time>
      </trkpt>
      <trkpt lat="44.22277" lon="6.21156">
        <ele>1305</ele>
        <time>2018-06-08T08:00:32Z</time>
      </trkpt>
      <trkpt lat="44.22278" lon="6.21154">
        <ele>1305</ele>
        <time>2018-06-08T08:00:51Z</time>
      </trkpt>
      <trkpt lat="44.22279" lon="6.21153">
        <ele>1305</ele>
        <time>2018-06-08T08:00:53Z</time>
      </trkpt>
      <trkpt lat="44.22281" lon="6.21152">
        <ele>1305</ele>
        <time>2018-06-08T08:00:55Z</time>
      </trkpt>
      <trkpt lat="44.22282" lon="6.21152">
        <ele>1305</ele>
        <time>2018-06-08T08:00:57Z</time>
      </trkpt>
      <trkpt lat="44.22284" lon="6.21151">
        <ele>1305</ele>
        <time>2018-06-08T08:00:59Z</time>
      </trkpt>
      <trkpt lat="44.22285" lon="6.21151">
        <ele>1305</ele>
        <time>2018-06-08T08:01:01Z</time>
      </trkpt>
      <trkpt lat="44.22287" lon="6.2115">
        <ele>1305</ele>
        <time>2018-06-08T08:01:03Z</time>
      </trkpt>
      <trkpt lat="44.22289" lon="6.21149">
        <ele>1305</ele>
        <time>2018-06-08T08:01:05Z</time>
      </trkpt>
      <trkpt lat="44.22292" lon="6.21149">
        <ele>1305</ele>
        <time>2018-06-08T08:01:07Z</time>
      </trkpt>
      <trkpt lat="44.22293" lon="6.21149">
        <ele>1305</ele>
        <time>2018-06-08T08:01:08Z</time>
      </trkpt>
      <trkpt lat="44.22294" lon="6.21149">
        <ele>1305</ele>
        <time>2018-06-08T08:01:09Z</time>
      </trkpt>
      <trkpt lat="44.22295" lon="6.21149">
        <ele>1305</ele>
        <time>2018-06-08T08:01:10Z</time>
      </trkpt>
      <trkpt lat="44.22296" lon="6.21149">
        <ele>1305</ele>
        <time>2018-06-08T08:01:11Z</time>
      </trkpt>
      <trkpt lat="44.22298" lon="6.2115">
        <ele>1305</ele>
        <time>2018-06-08T08:01:13Z</time>
      </trkpt>
      <trkpt lat="44.223" lon="6.21151">
        <ele>1305</ele>
        <time>2018-06-08T08:01:15Z</time>
      </trkpt>
      <trkpt lat="44.22302" lon="6.21153">
        <ele>1305</ele>
        <time>2018-06-08T08:01:17Z</time>
      </trkpt>
      <trkpt lat="44.22304" lon="6.21154">
        <ele>1305</ele>
        <time>2018-06-08T08:01:19Z</time>
      </trkpt>
      <trkpt lat="44.22306" lon="6.21155">
        <ele>1305</ele>
        <time>2018-06-08T08:01:21Z</time>
      </trkpt>
      <trkpt lat="44.22307" lon="6.21155">
        <ele>1305</ele>
        <time>2018-06-08T08:01:23Z</time>
      </trkpt>
      <trkpt lat="44.22308" lon="6.21155">
        <ele>1305</ele>
        <time>2018-06-08T08:01:25Z</time>
      </trkpt>
      <trkpt lat="44.2231" lon="6.21154">
        <ele>1305</ele>
        <time>2018-06-08T08:01:27Z</time>
      </trkpt>
      <trkpt lat="44.22311" lon="6.21153">
        <ele>1305</ele>
        <time>2018-06-08T08:01:36Z</time>
      </trkpt>
      <trkpt lat="44.22313" lon="6.21152">
        <ele>1305</ele>
        <time>2018-06-08T08:01:38Z</time>
      </trkpt>
      <trkpt lat="44.22314" lon="6.2115">
        <ele>1305</ele>
        <time>2018-06-08T08:01:40Z</time>
      </trkpt>
      <trkpt lat="44.22316" lon="6.21149">
        <ele>1305</ele>
        <time>2018-06-08T08:01:42Z</time>
      </trkpt>
      <trkpt lat="44.22317" lon="6.21148">
        <ele>1305</ele>
        <time>2018-06-08T08:01:46Z</time>
      </trkpt>
      <trkpt lat="44.22319" lon="6.21147">
        <ele>1305</ele>
        <time>2018-06-08T08:01:54Z</time>
      </trkpt>
      <trkpt lat="44.2232" lon="6.21146">
        <ele>1305</ele>
        <time>2018-06-08T08:01:56Z</time>
      </trkpt>
      <trkpt lat="44.22321" lon="6.21146">
        <ele>1305</ele>
        <time>2018-06-08T08:01:58Z</time>
      </trkpt>
      <trkpt lat="44.22322" lon="6.21145">
        <ele>1305</ele>
        <time>2018-06-08T08:02:09Z</time>
      </trkpt>
      <trkpt lat="44.22324" lon="6.21144">
        <ele>1305</ele>
        <time>2018-06-08T08:02:13Z</time>
      </trkpt>
      <trkpt lat="44.22325" lon="6.21144">
        <ele>1305</ele>
        <time>2018-06-08T08:02:15Z</time>
      </trkpt>
      <trkpt lat="44.22326" lon="6.21144">
        <ele>1305</ele>
        <time>2018-06-08T08:02:17Z</time>
      </trkpt>
      <trkpt lat="44.22328" lon="6.21144">
        <ele>1305</ele>
        <time>2018-06-08T08:02:28Z</time>
      </trkpt>
      <trkpt lat="44.22329" lon="6.21144">
        <ele>1305</ele>
        <time>2018-06-08T08:02:31Z</time>
      </trkpt>
      <trkpt lat="44.2233" lon="6.21144">
        <ele>1305</ele>
        <time>2018-06-08T08:02:33Z</time>
      </trkpt>
      <trkpt lat="44.22332" lon="6.21144">
        <ele>1305</ele>
        <time>2018-06-08T08:02:35Z</time>
      </trkpt>
      <trkpt lat="44.22333" lon="6.21144">
        <ele>1305</ele>
        <time>2018-06-08T08:02:37Z</time>
      </trkpt>
      <trkpt lat="44.22335" lon="6.21144">
        <ele>1305</ele>
        <time>2018-06-08T08:02:39Z</time>
      </trkpt>
      <trkpt lat="44.22336" lon="6.21144">
        <ele>1305</ele>
        <time>2018-06-08T08:02:41Z</time>
      </trkpt>
      <trkpt lat="44.22337" lon="6.21144">
        <ele>1305</ele>
        <time>2018-06-08T08:02:42Z</time>
      </trkpt>
      <trkpt lat="44.22338" lon="6.21144">
        <ele>1305</ele>
        <time>2018-06-08T08:02:43Z</time>
      </trkpt>
      <trkpt lat="44.2234" lon="6.21144">
        <ele>1305</ele>
        <time>2018-06-08T08:02:44Z</time>
      </trkpt>
      <trkpt lat="44.22341" lon="6.21144">
        <ele>1305</ele>
        <time>2018-06-08T08:02:45Z</time>
      </trkpt>
      <trkpt lat="44.22342" lon="6.21145">
        <ele>1305</ele>
        <time>2018-06-08T08:02:46Z</time>
      </trkpt>
      <trkpt lat="44.22343" lon="6.21145">
        <ele>1305</ele>
        <time>2018-06-08T08:02:47Z</time>
      </trkpt>
      <trkpt lat="44.22345" lon="6.21145">
        <ele>1305</ele>
        <time>2018-06-08T08:02:49Z</time>
      </trkpt>
      <trkpt lat="44.22346" lon="6.21145">
        <ele>1305</ele>
        <time>2018-06-08T08:02:50Z</time>
      </trkpt>
      <trkpt lat="44.22348" lon="6.21144">
        <ele>1305</ele>
        <time>2018-06-08T08:02:52Z</time>
      </trkpt>
      <trkpt lat="44.22351" lon="6.21143">
        <ele>1305</ele>
        <time>2018-06-08T08:02:54Z</time>
      </trkpt>
      <trkpt lat="44.22352" lon="6.21143">
        <ele>1305</ele>
        <time>2018-06-08T08:02:55Z</time>
      </trkpt>
      <trkpt lat="44.22353" lon="6.21143">
        <ele>1305</ele>
        <time>2018-06-08T08:02:56Z</time>
      </trkpt>
      <trkpt lat="44.22355" lon="6.21144">
        <ele>1305</ele>
        <time>2018-06-08T08:02:57Z</time>
      </trkpt>
      <trkpt lat="44.22356" lon="6.21144">
        <ele>1305</ele>
        <time>2018-06-08T08:02:58Z</time>
      </trkpt>
      <trkpt lat="44.22358" lon="6.21145">
        <ele>1305</ele>
        <time>2018-06-08T08:03:00Z</time>
      </trkpt>
      <trkpt lat="44.2236" lon="6.21146">
        <ele>1305</ele>
        <time>2018-06-08T08:03:02Z</time>
      </trkpt>
      <trkpt lat="44.22361" lon="6.21146">
        <ele>1305</ele>
        <time>2018-06-08T08:03:04Z</time>
      </trkpt>
      <trkpt lat="44.22363" lon="6.21146">
        <ele>1305</ele>
        <time>2018-06-08T08:03:05Z</time>
      </trkpt>
      <trkpt lat="44.22365" lon="6.21145">
        <ele>1305</ele>
        <time>2018-06-08T08:03:07Z</time>
      </trkpt>
      <trkpt lat="44.22367" lon="6.21145">
        <ele>1305</ele>
        <time>2018-06-08T08:03:09Z</time>
      </trkpt>
      <trkpt lat="44.22368" lon="6.21145">
        <ele>1305</ele>
        <time>2018-06-08T08:03:11Z</time>
      </trkpt>
      <trkpt lat="44.22369" lon="6.21145">
        <ele>1305</ele>
        <time>2018-06-08T08:03:13Z</time>
      </trkpt>
      <trkpt lat="44.22371" lon="6.21145">
        <ele>1305</ele>
        <time>2018-06-08T08:03:14Z</time>
      </trkpt>
      <trkpt lat="44.22372" lon="6.21147">
        <ele>1305</ele>
        <time>2018-06-08T08:03:16Z</time>
      </trkpt>
      <trkpt lat="44.22373" lon="6.21148">
        <ele>1305</ele>
        <time>2018-06-08T08:03:17Z</time>
      </trkpt>
      <trkpt lat="44.22374" lon="6.2115">
        <ele>1305</ele>
        <time>2018-06-08T08:03:18Z</time>
      </trkpt>
      <trkpt lat="44.22374" lon="6.21153">
        <ele>1305</ele>
        <time>2018-06-08T08:03:20Z</time>
      </trkpt>
      <trkpt lat="44.22375" lon="6.21155">
        <ele>1305</ele>
        <time>2018-06-08T08:03:22Z</time>
      </trkpt>
      <trkpt lat="44.22375" lon="6.21157">
        <ele>1305</ele>
        <time>2018-06-08T08:03:23Z</time>
      </trkpt>
      <trkpt lat="44.22377" lon="6.21159">
        <ele>1305</ele>
        <time>2018-06-08T08:03:25Z</time>
      </trkpt>
      <trkpt lat="44.22378" lon="6.21162">
        <ele>1305</ele>
        <time>2018-06-08T08:03:27Z</time>
      </trkpt>
      <trkpt lat="44.22379" lon="6.21164">
        <ele>1305</ele>
        <time>2018-06-08T08:03:29Z</time>
      </trkpt>
      <trkpt lat="44.22381" lon="6.21165">
        <ele>1305</ele>
        <time>2018-06-08T08:03:31Z</time>
      </trkpt>
      <trkpt lat="44.22383" lon="6.21165">
        <ele>1305</ele>
        <time>2018-06-08T08:03:33Z</time>
      </trkpt>
      <trkpt lat="44.22385" lon="6.21165">
        <ele>1305</ele>
        <time>2018-06-08T08:03:34Z</time>
      </trkpt>
      <trkpt lat="44.22387" lon="6.21166">
        <ele>1305</ele>
        <time>2018-06-08T08:03:36Z</time>
      </trkpt>
      <trkpt lat="44.22389" lon="6.21167">
        <ele>1305</ele>
        <time>2018-06-08T08:03:38Z</time>
      </trkpt>
      <trkpt lat="44.2239" lon="6.21168">
        <ele>1305</ele>
        <time>2018-06-08T08:03:40Z</time>
      </trkpt>
      <trkpt lat="44.22392" lon="6.21168">
        <ele>1305</ele>
        <time>2018-06-08T08:03:41Z</time>
      </trkpt>
      <trkpt lat="44.22393" lon="6.21167">
        <ele>1305</ele>
        <time>2018-06-08T08:03:42Z</time>
      </trkpt>
      <trkpt lat="44.22394" lon="6.21167">
        <ele>1305</ele>
        <time>2018-06-08T08:03:43Z</time>
      </trkpt>
      <trkpt lat="44.22396" lon="6.21166">
        <ele>1305</ele>
        <time>2018-06-08T08:03:45Z</time>
      </trkpt>
      <trkpt lat="44.22397" lon="6.21167">
        <ele>1305</ele>
        <time>2018-06-08T08:03:47Z</time>
      </trkpt>
      <trkpt lat="44.22398" lon="6.21166">
        <ele>1305</ele>
        <time>2018-06-08T08:03:51Z</time>
      </trkpt>
      <trkpt lat="44.22399" lon="6.21165">
        <ele>1305</ele>
        <time>2018-06-08T08:03:55Z</time>
      </trkpt>
      <trkpt lat="44.224" lon="6.21163">
        <ele>1305</ele>
        <time>2018-06-08T08:04:06Z</time>
      </trkpt>
      <trkpt lat="44.22399" lon="6.21162">
        <ele>1305</ele>
        <time>2018-06-08T08:04:10Z</time>
      </trkpt>
      <trkpt lat="44.22399" lon="6.21159">
        <ele>1305</ele>
        <time>2018-06-08T08:04:13Z</time>
      </trkpt>
      <trkpt lat="44.224" lon="6.21158">
        <ele>1305</ele>
        <time>2018-06-08T08:04:15Z</time>
      </trkpt>
      <trkpt lat="44.22399" lon="6.21156">
        <ele>1305</ele>
        <time>2018-06-08T08:04:17Z</time>
      </trkpt>
      <trkpt lat="44.22398" lon="6.21153">
        <ele>1305</ele>
        <time>2018-06-08T08:04:19Z</time>
      </trkpt>
      <trkpt lat="44.22398" lon="6.21152">
        <ele>1305</ele>
        <time>2018-06-08T08:04:20Z</time>
      </trkpt>
      <trkpt lat="44.22397" lon="6.2115">
        <ele>1305</ele>
        <time>2018-06-08T08:04:21Z</time>
      </trkpt>
      <trkpt lat="44.22397" lon="6.21149">
        <ele>1305</ele>
        <time>2018-06-08T08:04:22Z</time>
      </trkpt>
      <trkpt lat="44.22397" lon="6.21147">
        <ele>1305</ele>
        <time>2018-06-08T08:04:24Z</time>
      </trkpt>
      <trkpt lat="44.22398" lon="6.21145">
        <ele>1305</ele>
        <time>2018-06-08T08:04:26Z</time>
      </trkpt>
      <trkpt lat="44.22399" lon="6.21143">
        <ele>1305</ele>
        <time>2018-06-08T08:04:28Z</time>
      </trkpt>
      <trkpt lat="44.224" lon="6.21141">
        <ele>1305</ele>
        <time>2018-06-08T08:04:30Z</time>
      </trkpt>
      <trkpt lat="44.224" lon="6.21139">
        <ele>1305</ele>
        <time>2018-06-08T08:04:32Z</time>
      </trkpt>
      <trkpt lat="44.22401" lon="6.21138">
        <ele>1306</ele>
        <time>2018-06-08T08:04:34Z</time>
      </trkpt>
      <trkpt lat="44.22402" lon="6.21136">
        <ele>1306</ele>
        <time>2018-06-08T08:04:36Z</time>
      </trkpt>
      <trkpt lat="44.22402" lon="6.21134">
        <ele>1306</ele>
        <time>2018-06-08T08:04:38Z</time>
      </trkpt>
      <trkpt lat="44.22403" lon="6.21132">
        <ele>1307</ele>
        <time>2018-06-08T08:04:40Z</time>
      </trkpt>
      <trkpt lat="44.22404" lon="6.2113">
        <ele>1307</ele>
        <time>2018-06-08T08:04:42Z</time>
      </trkpt>
      <trkpt lat="44.22405" lon="6.21129">
        <ele>1307</ele>
        <time>2018-06-08T08:04:44Z</time>
      </trkpt>
      <trkpt lat="44.22407" lon="6.21127">
        <ele>1308</ele>
        <time>2018-06-08T08:04:47Z</time>
      </trkpt>
      <trkpt lat="44.22408" lon="6.21126">
        <ele>1308</ele>
        <time>2018-06-08T08:04:49Z</time>
      </trkpt>
      <trkpt lat="44.2241" lon="6.21126">
        <ele>1308</ele>
        <time>2018-06-08T08:04:51Z</time>
      </trkpt>
      <trkpt lat="44.22412" lon="6.21126">
        <ele>1308</ele>
        <time>2018-06-08T08:04:53Z</time>
      </trkpt>
      <trkpt lat="44.22414" lon="6.21126">
        <ele>1308</ele>
        <time>2018-06-08T08:04:55Z</time>
      </trkpt>
      <trkpt lat="44.22415" lon="6.21126">
        <ele>1308</ele>
        <time>2018-06-08T08:04:57Z</time>
      </trkpt>
      <trkpt lat="44.22417" lon="6.21127">
        <ele>1309</ele>
        <time>2018-06-08T08:04:59Z</time>
      </trkpt>
      <trkpt lat="44.22418" lon="6.21127">
        <ele>1309</ele>
        <time>2018-06-08T08:05:01Z</time>
      </trkpt>
      <trkpt lat="44.2242" lon="6.21128">
        <ele>1309</ele>
        <time>2018-06-08T08:05:03Z</time>
      </trkpt>
      <trkpt lat="44.22421" lon="6.21128">
        <ele>1309</ele>
        <time>2018-06-08T08:05:05Z</time>
      </trkpt>
      <trkpt lat="44.22423" lon="6.21129">
        <ele>1310</ele>
        <time>2018-06-08T08:05:07Z</time>
      </trkpt>
      <trkpt lat="44.22424" lon="6.2113">
        <ele>1310</ele>
        <time>2018-06-08T08:05:09Z</time>
      </trkpt>
      <trkpt lat="44.22425" lon="6.21131">
        <ele>1310</ele>
        <time>2018-06-08T08:05:12Z</time>
      </trkpt>
      <trkpt lat="44.22427" lon="6.21132">
        <ele>1311</ele>
        <time>2018-06-08T08:05:14Z</time>
      </trkpt>
      <trkpt lat="44.22428" lon="6.21132">
        <ele>1311</ele>
        <time>2018-06-08T08:05:16Z</time>
      </trkpt>
      <trkpt lat="44.2243" lon="6.21132">
        <ele>1311</ele>
        <time>2018-06-08T08:05:18Z</time>
      </trkpt>
      <trkpt lat="44.22431" lon="6.21134">
        <ele>1312</ele>
        <time>2018-06-08T08:05:21Z</time>
      </trkpt>
      <trkpt lat="44.22432" lon="6.21135">
        <ele>1312</ele>
        <time>2018-06-08T08:05:23Z</time>
      </trkpt>
      <trkpt lat="44.22434" lon="6.21135">
        <ele>1312</ele>
        <time>2018-06-08T08:05:25Z</time>
      </trkpt>
      <trkpt lat="44.22435" lon="6.21136">
        <ele>1312</ele>
        <time>2018-06-08T08:05:27Z</time>
      </trkpt>
      <trkpt lat="44.22436" lon="6.21137">
        <ele>1312</ele>
        <time>2018-06-08T08:05:29Z</time>
      </trkpt>
      <trkpt lat="44.22438" lon="6.21137">
        <ele>1312</ele>
        <time>2018-06-08T08:05:31Z</time>
      </trkpt>
      <trkpt lat="44.2244" lon="6.21138">
        <ele>1313</ele>
        <time>2018-06-08T08:05:33Z</time>
      </trkpt>
      <trkpt lat="44.22441" lon="6.21139">
        <ele>1313</ele>
        <time>2018-06-08T08:05:35Z</time>
      </trkpt>
      <trkpt lat="44.22442" lon="6.2114">
        <ele>1314</ele>
        <time>2018-06-08T08:05:37Z</time>
      </trkpt>
      <trkpt lat="44.22444" lon="6.21141">
        <ele>1314</ele>
        <time>2018-06-08T08:05:39Z</time>
      </trkpt>
      <trkpt lat="44.22445" lon="6.21141">
        <ele>1315</ele>
        <time>2018-06-08T08:05:41Z</time>
      </trkpt>
      <trkpt lat="44.22446" lon="6.21142">
        <ele>1315</ele>
        <time>2018-06-08T08:05:43Z</time>
      </trkpt>
      <trkpt lat="44.22448" lon="6.21143">
        <ele>1315</ele>
        <time>2018-06-08T08:05:46Z</time>
      </trkpt>
      <trkpt lat="44.22449" lon="6.21145">
        <ele>1315</ele>
        <time>2018-06-08T08:05:48Z</time>
      </trkpt>
      <trkpt lat="44.22451" lon="6.21146">
        <ele>1315</ele>
        <time>2018-06-08T08:05:50Z</time>
      </trkpt>
      <trkpt lat="44.22452" lon="6.21147">
        <ele>1315</ele>
        <time>2018-06-08T08:05:52Z</time>
      </trkpt>
      <trkpt lat="44.22453" lon="6.21149">
        <ele>1315</ele>
        <time>2018-06-08T08:05:54Z</time>
      </trkpt>
      <trkpt lat="44.22455" lon="6.2115">
        <ele>1316</ele>
        <time>2018-06-08T08:05:56Z</time>
      </trkpt>
      <trkpt lat="44.22456" lon="6.21151">
        <ele>1316</ele>
        <time>2018-06-08T08:05:58Z</time>
      </trkpt>
      <trkpt lat="44.22458" lon="6.21152">
        <ele>1316</ele>
        <time>2018-06-08T08:06:00Z</time>
      </trkpt>
      <trkpt lat="44.22459" lon="6.21153">
        <ele>1316</ele>
        <time>2018-06-08T08:06:02Z</time>
      </trkpt>
      <trkpt lat="44.22461" lon="6.21154">
        <ele>1316</ele>
        <time>2018-06-08T08:06:04Z</time>
      </trkpt>
      <trkpt lat="44.22463" lon="6.21155">
        <ele>1316</ele>
        <time>2018-06-08T08:06:06Z</time>
      </trkpt>
      <trkpt lat="44.22465" lon="6.21155">
        <ele>1317</ele>
        <time>2018-06-08T08:06:08Z</time>
      </trkpt>
      <trkpt lat="44.22467" lon="6.21155">
        <ele>1317</ele>
        <time>2018-06-08T08:06:10Z</time>
      </trkpt>
      <trkpt lat="44.22469" lon="6.21156">
        <ele>1317</ele>
        <time>2018-06-08T08:06:12Z</time>
      </trkpt>
      <trkpt lat="44.2247" lon="6.21157">
        <ele>1317</ele>
        <time>2018-06-08T08:06:14Z</time>
      </trkpt>
      <trkpt lat="44.22472" lon="6.21157">
        <ele>1317</ele>
        <time>2018-06-08T08:06:15Z</time>
      </trkpt>
      <trkpt lat="44.22473" lon="6.21157">
        <ele>1317</ele>
        <time>2018-06-08T08:06:16Z</time>
      </trkpt>
      <trkpt lat="44.22475" lon="6.21158">
        <ele>1317</ele>
        <time>2018-06-08T08:06:18Z</time>
      </trkpt>
      <trkpt lat="44.22477" lon="6.21159">
        <ele>1318</ele>
        <time>2018-06-08T08:06:20Z</time>
      </trkpt>
      <trkpt lat="44.22478" lon="6.2116">
        <ele>1318</ele>
        <time>2018-06-08T08:06:21Z</time>
      </trkpt>
      <trkpt lat="44.22479" lon="6.2116">
        <ele>1318</ele>
        <time>2018-06-08T08:06:22Z</time>
      </trkpt>
      <trkpt lat="44.22481" lon="6.21161">
        <ele>1318</ele>
        <time>2018-06-08T08:06:24Z</time>
      </trkpt>
      <trkpt lat="44.22483" lon="6.21162">
        <ele>1318</ele>
        <time>2018-06-08T08:06:26Z</time>
      </trkpt>
      <trkpt lat="44.22485" lon="6.21162">
        <ele>1318</ele>
        <time>2018-06-08T08:06:28Z</time>
      </trkpt>
      <trkpt lat="44.22486" lon="6.21163">
        <ele>1318</ele>
        <time>2018-06-08T08:06:30Z</time>
      </trkpt>
      <trkpt lat="44.22487" lon="6.21164">
        <ele>1318</ele>
        <time>2018-06-08T08:06:33Z</time>
      </trkpt>
      <trkpt lat="44.22489" lon="6.21165">
        <ele>1318</ele>
        <time>2018-06-08T08:06:38Z</time>
      </trkpt>
      <trkpt lat="44.22491" lon="6.21165">
        <ele>1318</ele>
        <time>2018-06-08T08:06:40Z</time>
      </trkpt>
      <trkpt lat="44.22493" lon="6.21166">
        <ele>1318</ele>
        <time>2018-06-08T08:06:42Z</time>
      </trkpt>
      <trkpt lat="44.22494" lon="6.21167">
        <ele>1318</ele>
        <time>2018-06-08T08:06:44Z</time>
      </trkpt>
      <trkpt lat="44.22496" lon="6.21167">
        <ele>1318</ele>
        <time>2018-06-08T08:06:46Z</time>
      </trkpt>
      <trkpt lat="44.22498" lon="6.21167">
        <ele>1318</ele>
        <time>2018-06-08T08:06:48Z</time>
      </trkpt>
      <trkpt lat="44.22499" lon="6.21168">
        <ele>1318</ele>
        <time>2018-06-08T08:06:50Z</time>
      </trkpt>
      <trkpt lat="44.22501" lon="6.21167">
        <ele>1318</ele>
        <time>2018-06-08T08:06:52Z</time>
      </trkpt>
      <trkpt lat="44.22503" lon="6.21167">
        <ele>1318</ele>
        <time>2018-06-08T08:06:54Z</time>
      </trkpt>
      <trkpt lat="44.22505" lon="6.21166">
        <ele>1318</ele>
        <time>2018-06-08T08:06:56Z</time>
      </trkpt>
      <trkpt lat="44.22507" lon="6.21164">
        <ele>1318</ele>
        <time>2018-06-08T08:06:58Z</time>
      </trkpt>
      <trkpt lat="44.22508" lon="6.21163">
        <ele>1318</ele>
        <time>2018-06-08T08:07:00Z</time>
      </trkpt>
      <trkpt lat="44.22509" lon="6.21161">
        <ele>1318</ele>
        <time>2018-06-08T08:07:02Z</time>
      </trkpt>
      <trkpt lat="44.22509" lon="6.21158">
        <ele>1318</ele>
        <time>2018-06-08T08:07:04Z</time>
      </trkpt>
      <trkpt lat="44.2251" lon="6.21156">
        <ele>1318</ele>
        <time>2018-06-08T08:07:06Z</time>
      </trkpt>
      <trkpt lat="44.22512" lon="6.21154">
        <ele>1319</ele>
        <time>2018-06-08T08:07:08Z</time>
      </trkpt>
      <trkpt lat="44.22513" lon="6.21152">
        <ele>1319</ele>
        <time>2018-06-08T08:07:10Z</time>
      </trkpt>
      <trkpt lat="44.22515" lon="6.21151">
        <ele>1319</ele>
        <time>2018-06-08T08:07:12Z</time>
      </trkpt>
      <trkpt lat="44.22516" lon="6.21149">
        <ele>1319</ele>
        <time>2018-06-08T08:07:14Z</time>
      </trkpt>
      <trkpt lat="44.22517" lon="6.21147">
        <ele>1320</ele>
        <time>2018-06-08T08:07:16Z</time>
      </trkpt>
      <trkpt lat="44.22518" lon="6.21146">
        <ele>1320</ele>
        <time>2018-06-08T08:07:18Z</time>
      </trkpt>
      <trkpt lat="44.2252" lon="6.21145">
        <ele>1320</ele>
        <time>2018-06-08T08:07:20Z</time>
      </trkpt>
      <trkpt lat="44.22521" lon="6.21143">
        <ele>1321</ele>
        <time>2018-06-08T08:07:22Z</time>
      </trkpt>
      <trkpt lat="44.22522" lon="6.21142">
        <ele>1321</ele>
        <time>2018-06-08T08:07:24Z</time>
      </trkpt>
      <trkpt lat="44.22523" lon="6.2114">
        <ele>1321</ele>
        <time>2018-06-08T08:07:26Z</time>
      </trkpt>
      <trkpt lat="44.22525" lon="6.21139">
        <ele>1322</ele>
        <time>2018-06-08T08:07:29Z</time>
      </trkpt>
      <trkpt lat="44.22526" lon="6.21138">
        <ele>1322</ele>
        <time>2018-06-08T08:07:31Z</time>
      </trkpt>
      <trkpt lat="44.22528" lon="6.21137">
        <ele>1323</ele>
        <time>2018-06-08T08:07:33Z</time>
      </trkpt>
      <trkpt lat="44.22529" lon="6.21136">
        <ele>1323</ele>
        <time>2018-06-08T08:07:35Z</time>
      </trkpt>
      <trkpt lat="44.22531" lon="6.21134">
        <ele>1323</ele>
        <time>2018-06-08T08:07:37Z</time>
      </trkpt>
      <trkpt lat="44.22533" lon="6.21133">
        <ele>1323</ele>
        <time>2018-06-08T08:07:39Z</time>
      </trkpt>
      <trkpt lat="44.22534" lon="6.21133">
        <ele>1323</ele>
        <time>2018-06-08T08:07:41Z</time>
      </trkpt>
      <trkpt lat="44.22535" lon="6.21132">
        <ele>1323</ele>
        <time>2018-06-08T08:07:43Z</time>
      </trkpt>
      <trkpt lat="44.22537" lon="6.21131">
        <ele>1323</ele>
        <time>2018-06-08T08:07:45Z</time>
      </trkpt>
      <trkpt lat="44.22539" lon="6.2113">
        <ele>1324</ele>
        <time>2018-06-08T08:07:47Z</time>
      </trkpt>
      <trkpt lat="44.22541" lon="6.21128">
        <ele>1324</ele>
        <time>2018-06-08T08:07:49Z</time>
      </trkpt>
      <trkpt lat="44.22542" lon="6.21125">
        <ele>1324</ele>
        <time>2018-06-08T08:07:51Z</time>
      </trkpt>
      <trkpt lat="44.22544" lon="6.21123">
        <ele>1324</ele>
        <time>2018-06-08T08:07:53Z</time>
      </trkpt>
      <trkpt lat="44.22544" lon="6.21121">
        <ele>1324</ele>
        <time>2018-06-08T08:07:54Z</time>
      </trkpt>
      <trkpt lat="44.22545" lon="6.21119">
        <ele>1324</ele>
        <time>2018-06-08T08:07:56Z</time>
      </trkpt>
      <trkpt lat="44.22545" lon="6.21117">
        <ele>1324</ele>
        <time>2018-06-08T08:07:58Z</time>
      </trkpt>
      <trkpt lat="44.22545" lon="6.21114">
        <ele>1324</ele>
        <time>2018-06-08T08:08:00Z</time>
      </trkpt>
      <trkpt lat="44.22546" lon="6.21112">
        <ele>1324</ele>
        <time>2018-06-08T08:08:02Z</time>
      </trkpt>
      <trkpt lat="44.22548" lon="6.2111">
        <ele>1324</ele>
        <time>2018-06-08T08:08:04Z</time>
      </trkpt>
      <trkpt lat="44.22549" lon="6.21108">
        <ele>1324</ele>
        <time>2018-06-08T08:08:07Z</time>
      </trkpt>
      <trkpt lat="44.22549" lon="6.21106">
        <ele>1324</ele>
        <time>2018-06-08T08:08:09Z</time>
      </trkpt>
      <trkpt lat="44.2255" lon="6.21104">
        <ele>1325</ele>
        <time>2018-06-08T08:08:11Z</time>
      </trkpt>
      <trkpt lat="44.22551" lon="6.21103">
        <ele>1325</ele>
        <time>2018-06-08T08:08:13Z</time>
      </trkpt>
      <trkpt lat="44.22553" lon="6.21102">
        <ele>1326</ele>
        <time>2018-06-08T08:08:15Z</time>
      </trkpt>
      <trkpt lat="44.22554" lon="6.21101">
        <ele>1326</ele>
        <time>2018-06-08T08:08:17Z</time>
      </trkpt>
      <trkpt lat="44.22555" lon="6.211">
        <ele>1326</ele>
        <time>2018-06-08T08:08:19Z</time>
      </trkpt>
      <trkpt lat="44.22557" lon="6.21099">
        <ele>1326</ele>
        <time>2018-06-08T08:08:21Z</time>
      </trkpt>
      <trkpt lat="44.22557" lon="6.21097">
        <ele>1326</ele>
        <time>2018-06-08T08:08:23Z</time>
      </trkpt>
      <trkpt lat="44.22558" lon="6.21095">
        <ele>1327</ele>
        <time>2018-06-08T08:08:25Z</time>
      </trkpt>
      <trkpt lat="44.22559" lon="6.21093">
        <ele>1327</ele>
        <time>2018-06-08T08:08:27Z</time>
      </trkpt>
      <trkpt lat="44.2256" lon="6.21093">
        <ele>1328</ele>
        <time>2018-06-08T08:08:30Z</time>
      </trkpt>
      <trkpt lat="44.22562" lon="6.21094">
        <ele>1329</ele>
        <time>2018-06-08T08:08:33Z</time>
      </trkpt>
      <trkpt lat="44.22563" lon="6.21093">
        <ele>1329</ele>
        <time>2018-06-08T08:08:35Z</time>
      </trkpt>
      <trkpt lat="44.22565" lon="6.21093">
        <ele>1329</ele>
        <time>2018-06-08T08:08:37Z</time>
      </trkpt>
      <trkpt lat="44.22567" lon="6.21092">
        <ele>1330</ele>
        <time>2018-06-08T08:08:39Z</time>
      </trkpt>
      <trkpt lat="44.22568" lon="6.21091">
        <ele>1330</ele>
        <time>2018-06-08T08:08:42Z</time>
      </trkpt>
      <trkpt lat="44.22569" lon="6.21089">
        <ele>1330</ele>
        <time>2018-06-08T08:08:45Z</time>
      </trkpt>
      <trkpt lat="44.22569" lon="6.21087">
        <ele>1330</ele>
        <time>2018-06-08T08:08:47Z</time>
      </trkpt>
      <trkpt lat="44.2257" lon="6.21085">
        <ele>1330</ele>
        <time>2018-06-08T08:08:49Z</time>
      </trkpt>
      <trkpt lat="44.2257" lon="6.21084">
        <ele>1330</ele>
        <time>2018-06-08T08:08:53Z</time>
      </trkpt>
      <trkpt lat="44.2257" lon="6.21082">
        <ele>1330</ele>
        <time>2018-06-08T08:09:09Z</time>
      </trkpt>
      <trkpt lat="44.2257" lon="6.21081">
        <ele>1330</ele>
        <time>2018-06-08T08:09:11Z</time>
      </trkpt>
      <trkpt lat="44.22569" lon="6.21082">
        <ele>1330</ele>
        <time>2018-06-08T08:09:20Z</time>
      </trkpt>
      <trkpt lat="44.22568" lon="6.21082">
        <ele>1330</ele>
        <time>2018-06-08T08:09:22Z</time>
      </trkpt>
      <trkpt lat="44.22568" lon="6.2108">
        <ele>1330</ele>
        <time>2018-06-08T08:09:25Z</time>
      </trkpt>
      <trkpt lat="44.22568" lon="6.21079">
        <ele>1330</ele>
        <time>2018-06-08T08:09:27Z</time>
      </trkpt>
      <trkpt lat="44.22567" lon="6.21077">
        <ele>1330</ele>
        <time>2018-06-08T08:09:30Z</time>
      </trkpt>
      <trkpt lat="44.22568" lon="6.21075">
        <ele>1330</ele>
        <time>2018-06-08T08:09:34Z</time>
      </trkpt>
      <trkpt lat="44.22568" lon="6.21074">
        <ele>1332</ele>
        <time>2018-06-08T08:09:49Z</time>
      </trkpt>
      <trkpt lat="44.22569" lon="6.21074">
        <ele>1332</ele>
        <time>2018-06-08T08:09:54Z</time>
      </trkpt>
      <trkpt lat="44.2257" lon="6.21073">
        <ele>1332</ele>
        <time>2018-06-08T08:09:56Z</time>
      </trkpt>
      <trkpt lat="44.22571" lon="6.21074">
        <ele>1334</ele>
        <time>2018-06-08T08:10:10Z</time>
      </trkpt>
      <trkpt lat="44.22572" lon="6.21073">
        <ele>1334</ele>
        <time>2018-06-08T08:10:15Z</time>
      </trkpt>
      <trkpt lat="44.22574" lon="6.21073">
        <ele>1336</ele>
        <time>2018-06-08T08:10:20Z</time>
      </trkpt>
      <trkpt lat="44.22572" lon="6.21074">
        <ele>1337</ele>
        <time>2018-06-08T08:10:25Z</time>
      </trkpt>
      <trkpt lat="44.22573" lon="6.21073">
        <ele>1337</ele>
        <time>2018-06-08T08:10:35Z</time>
      </trkpt>
      <trkpt lat="44.22573" lon="6.21072">
        <ele>1337</ele>
        <time>2018-06-08T08:10:40Z</time>
      </trkpt>
      <trkpt lat="44.22573" lon="6.2107">
        <ele>1336</ele>
        <time>2018-06-08T08:10:42Z</time>
      </trkpt>
      <trkpt lat="44.22574" lon="6.21068">
        <ele>1334</ele>
        <time>2018-06-08T08:10:48Z</time>
      </trkpt>
      <trkpt lat="44.22575" lon="6.21067">
        <ele>1334</ele>
        <time>2018-06-08T08:10:51Z</time>
      </trkpt>
      <trkpt lat="44.22576" lon="6.21066">
        <ele>1333</ele>
        <time>2018-06-08T08:10:53Z</time>
      </trkpt>
      <trkpt lat="44.22577" lon="6.21065">
        <ele>1333</ele>
        <time>2018-06-08T08:10:55Z</time>
      </trkpt>
      <trkpt lat="44.22579" lon="6.21064">
        <ele>1333</ele>
        <time>2018-06-08T08:10:57Z</time>
      </trkpt>
      <trkpt lat="44.2258" lon="6.21063">
        <ele>1333</ele>
        <time>2018-06-08T08:10:59Z</time>
      </trkpt>
      <trkpt lat="44.22582" lon="6.21062">
        <ele>1333</ele>
        <time>2018-06-08T08:11:02Z</time>
      </trkpt>
      <trkpt lat="44.22584" lon="6.2106">
        <ele>1333</ele>
        <time>2018-06-08T08:11:04Z</time>
      </trkpt>
      <trkpt lat="44.22586" lon="6.21059">
        <ele>1333</ele>
        <time>2018-06-08T08:11:06Z</time>
      </trkpt>
      <trkpt lat="44.22588" lon="6.21058">
        <ele>1333</ele>
        <time>2018-06-08T08:11:08Z</time>
      </trkpt>
      <trkpt lat="44.22589" lon="6.21058">
        <ele>1333</ele>
        <time>2018-06-08T08:11:10Z</time>
      </trkpt>
      <trkpt lat="44.22591" lon="6.21057">
        <ele>1333</ele>
        <time>2018-06-08T08:11:12Z</time>
      </trkpt>
      <trkpt lat="44.22593" lon="6.21057">
        <ele>1333</ele>
        <time>2018-06-08T08:11:14Z</time>
      </trkpt>
      <trkpt lat="44.22594" lon="6.21057">
        <ele>1333</ele>
        <time>2018-06-08T08:11:16Z</time>
      </trkpt>
      <trkpt lat="44.22596" lon="6.21056">
        <ele>1333</ele>
        <time>2018-06-08T08:11:18Z</time>
      </trkpt>
      <trkpt lat="44.22596" lon="6.21054">
        <ele>1333</ele>
        <time>2018-06-08T08:11:20Z</time>
      </trkpt>
      <trkpt lat="44.22598" lon="6.21053">
        <ele>1333</ele>
        <time>2018-06-08T08:11:22Z</time>
      </trkpt>
      <trkpt lat="44.22599" lon="6.21052">
        <ele>1333</ele>
        <time>2018-06-08T08:11:23Z</time>
      </trkpt>
      <trkpt lat="44.22601" lon="6.21052">
        <ele>1333</ele>
        <time>2018-06-08T08:11:25Z</time>
      </trkpt>
      <trkpt lat="44.22602" lon="6.21052">
        <ele>1333</ele>
        <time>2018-06-08T08:11:28Z</time>
      </trkpt>
      <trkpt lat="44.22603" lon="6.21052">
        <ele>1333</ele>
        <time>2018-06-08T08:11:30Z</time>
      </trkpt>
      <trkpt lat="44.22605" lon="6.21052">
        <ele>1333</ele>
        <time>2018-06-08T08:11:33Z</time>
      </trkpt>
      <trkpt lat="44.22606" lon="6.21053">
        <ele>1333</ele>
        <time>2018-06-08T08:11:37Z</time>
      </trkpt>
      <trkpt lat="44.22607" lon="6.21053">
        <ele>1333</ele>
        <time>2018-06-08T08:11:41Z</time>
      </trkpt>
      <trkpt lat="44.22608" lon="6.21051">
        <ele>1333</ele>
        <time>2018-06-08T08:11:44Z</time>
      </trkpt>
      <trkpt lat="44.22609" lon="6.21049">
        <ele>1333</ele>
        <time>2018-06-08T08:11:46Z</time>
      </trkpt>
      <trkpt lat="44.2261" lon="6.21049">
        <ele>1333</ele>
        <time>2018-06-08T08:11:48Z</time>
      </trkpt>
      <trkpt lat="44.22612" lon="6.21049">
        <ele>1333</ele>
        <time>2018-06-08T08:11:50Z</time>
      </trkpt>
      <trkpt lat="44.22613" lon="6.21049">
        <ele>1333</ele>
        <time>2018-06-08T08:11:53Z</time>
      </trkpt>
      <trkpt lat="44.22614" lon="6.21047">
        <ele>1333</ele>
        <time>2018-06-08T08:11:56Z</time>
      </trkpt>
      <trkpt lat="44.22612" lon="6.21046">
        <ele>1337</ele>
        <time>2018-06-08T08:12:03Z</time>
      </trkpt>
      <trkpt lat="44.22611" lon="6.21045">
        <ele>1340</ele>
        <time>2018-06-08T08:12:19Z</time>
      </trkpt>
      <trkpt lat="44.22613" lon="6.21047">
        <ele>1341</ele>
        <time>2018-06-08T08:12:23Z</time>
      </trkpt>
      <trkpt lat="44.22614" lon="6.21048">
        <ele>1341</ele>
        <time>2018-06-08T08:12:27Z</time>
      </trkpt>
      <trkpt lat="44.22615" lon="6.21048">
        <ele>1341</ele>
        <time>2018-06-08T08:12:30Z</time>
      </trkpt>
      <trkpt lat="44.22617" lon="6.21048">
        <ele>1341</ele>
        <time>2018-06-08T08:12:34Z</time>
      </trkpt>
      <trkpt lat="44.22618" lon="6.21048">
        <ele>1341</ele>
        <time>2018-06-08T08:12:37Z</time>
      </trkpt>
      <trkpt lat="44.2262" lon="6.21048">
        <ele>1341</ele>
        <time>2018-06-08T08:12:39Z</time>
      </trkpt>
      <trkpt lat="44.22622" lon="6.21047">
        <ele>1341</ele>
        <time>2018-06-08T08:12:41Z</time>
      </trkpt>
      <trkpt lat="44.22623" lon="6.21048">
        <ele>1341</ele>
        <time>2018-06-08T08:12:43Z</time>
      </trkpt>
      <trkpt lat="44.22625" lon="6.21048">
        <ele>1341</ele>
        <time>2018-06-08T08:12:45Z</time>
      </trkpt>
      <trkpt lat="44.22626" lon="6.21048">
        <ele>1341</ele>
        <time>2018-06-08T08:12:47Z</time>
      </trkpt>
      <trkpt lat="44.22628" lon="6.21048">
        <ele>1341</ele>
        <time>2018-06-08T08:12:50Z</time>
      </trkpt>
      <trkpt lat="44.22629" lon="6.21047">
        <ele>1341</ele>
        <time>2018-06-08T08:12:52Z</time>
      </trkpt>
      <trkpt lat="44.2263" lon="6.21047">
        <ele>1341</ele>
        <time>2018-06-08T08:12:54Z</time>
      </trkpt>
      <trkpt lat="44.22632" lon="6.21045">
        <ele>1341</ele>
        <time>2018-06-08T08:12:56Z</time>
      </trkpt>
      <trkpt lat="44.22634" lon="6.21044">
        <ele>1341</ele>
        <time>2018-06-08T08:12:58Z</time>
      </trkpt>
      <trkpt lat="44.22636" lon="6.21044">
        <ele>1341</ele>
        <time>2018-06-08T08:13:00Z</time>
      </trkpt>
      <trkpt lat="44.22637" lon="6.21043">
        <ele>1341</ele>
        <time>2018-06-08T08:13:01Z</time>
      </trkpt>
      <trkpt lat="44.22638" lon="6.21043">
        <ele>1341</ele>
        <time>2018-06-08T08:13:02Z</time>
      </trkpt>
      <trkpt lat="44.2264" lon="6.21043">
        <ele>1341</ele>
        <time>2018-06-08T08:13:04Z</time>
      </trkpt>
      <trkpt lat="44.22641" lon="6.21043">
        <ele>1341</ele>
        <time>2018-06-08T08:13:05Z</time>
      </trkpt>
      <trkpt lat="44.22643" lon="6.21044">
        <ele>1341</ele>
        <time>2018-06-08T08:13:07Z</time>
      </trkpt>
      <trkpt lat="44.22644" lon="6.21045">
        <ele>1341</ele>
        <time>2018-06-08T08:13:09Z</time>
      </trkpt>
      <trkpt lat="44.22646" lon="6.21047">
        <ele>1341</ele>
        <time>2018-06-08T08:13:12Z</time>
      </trkpt>
      <trkpt lat="44.22647" lon="6.21048">
        <ele>1341</ele>
        <time>2018-06-08T08:13:15Z</time>
      </trkpt>
      <trkpt lat="44.22648" lon="6.21048">
        <ele>1341</ele>
        <time>2018-06-08T08:13:17Z</time>
      </trkpt>
      <trkpt lat="44.2265" lon="6.21049">
        <ele>1341</ele>
        <time>2018-06-08T08:13:19Z</time>
      </trkpt>
      <trkpt lat="44.22652" lon="6.21049">
        <ele>1341</ele>
        <time>2018-06-08T08:13:21Z</time>
      </trkpt>
      <trkpt lat="44.22653" lon="6.21049">
        <ele>1341</ele>
        <time>2018-06-08T08:13:22Z</time>
      </trkpt>
      <trkpt lat="44.22655" lon="6.2105">
        <ele>1341</ele>
        <time>2018-06-08T08:13:24Z</time>
      </trkpt>
      <trkpt lat="44.22657" lon="6.2105">
        <ele>1341</ele>
        <time>2018-06-08T08:13:26Z</time>
      </trkpt>
      <trkpt lat="44.22658" lon="6.21051">
        <ele>1341</ele>
        <time>2018-06-08T08:13:28Z</time>
      </trkpt>
      <trkpt lat="44.2266" lon="6.21051">
        <ele>1341</ele>
        <time>2018-06-08T08:13:30Z</time>
      </trkpt>
      <trkpt lat="44.22662" lon="6.21052">
        <ele>1341</ele>
        <time>2018-06-08T08:13:32Z</time>
      </trkpt>
      <trkpt lat="44.22664" lon="6.21053">
        <ele>1341</ele>
        <time>2018-06-08T08:13:34Z</time>
      </trkpt>
      <trkpt lat="44.22665" lon="6.21054">
        <ele>1341</ele>
        <time>2018-06-08T08:13:36Z</time>
      </trkpt>
      <trkpt lat="44.22667" lon="6.21055">
        <ele>1341</ele>
        <time>2018-06-08T08:13:38Z</time>
      </trkpt>
      <trkpt lat="44.22669" lon="6.21056">
        <ele>1341</ele>
        <time>2018-06-08T08:13:40Z</time>
      </trkpt>
      <trkpt lat="44.22671" lon="6.21056">
        <ele>1341</ele>
        <time>2018-06-08T08:13:42Z</time>
      </trkpt>
      <trkpt lat="44.22673" lon="6.21056">
        <ele>1341</ele>
        <time>2018-06-08T08:13:44Z</time>
      </trkpt>
      <trkpt lat="44.22674" lon="6.21056">
        <ele>1341</ele>
        <time>2018-06-08T08:13:46Z</time>
      </trkpt>
      <trkpt lat="44.22675" lon="6.21054">
        <ele>1341</ele>
        <time>2018-06-08T08:13:49Z</time>
      </trkpt>
      <trkpt lat="44.22676" lon="6.21053">
        <ele>1341</ele>
        <time>2018-06-08T08:13:52Z</time>
      </trkpt>
      <trkpt lat="44.22677" lon="6.21051">
        <ele>1341</ele>
        <time>2018-06-08T08:13:55Z</time>
      </trkpt>
      <trkpt lat="44.22677" lon="6.2105">
        <ele>1341</ele>
        <time>2018-06-08T08:13:58Z</time>
      </trkpt>
      <trkpt lat="44.22676" lon="6.21048">
        <ele>1341</ele>
        <time>2018-06-08T08:14:01Z</time>
      </trkpt>
      <trkpt lat="44.22676" lon="6.21047">
        <ele>1341</ele>
        <time>2018-06-08T08:14:03Z</time>
      </trkpt>
      <trkpt lat="44.22677" lon="6.21045">
        <ele>1341</ele>
        <time>2018-06-08T08:14:06Z</time>
      </trkpt>
      <trkpt lat="44.22678" lon="6.21045">
        <ele>1341</ele>
        <time>2018-06-08T08:14:09Z</time>
      </trkpt>
      <trkpt lat="44.22678" lon="6.21043">
        <ele>1341</ele>
        <time>2018-06-08T08:14:15Z</time>
      </trkpt>
      <trkpt lat="44.22679" lon="6.21045">
        <ele>1341</ele>
        <time>2018-06-08T08:14:21Z</time>
      </trkpt>
      <trkpt lat="44.2268" lon="6.21042">
        <ele>1341</ele>
        <time>2018-06-08T08:14:26Z</time>
      </trkpt>
      <trkpt lat="44.22682" lon="6.21044">
        <ele>1344</ele>
        <time>2018-06-08T08:14:32Z</time>
      </trkpt>
      <trkpt lat="44.22684" lon="6.21043">
        <ele>1345</ele>
        <time>2018-06-08T08:14:34Z</time>
      </trkpt>
      <trkpt lat="44.22685" lon="6.21042">
        <ele>1345</ele>
        <time>2018-06-08T08:14:36Z</time>
      </trkpt>
      <trkpt lat="44.22686" lon="6.21044">
        <ele>1346</ele>
        <time>2018-06-08T08:14:38Z</time>
      </trkpt>
      <trkpt lat="44.22687" lon="6.21044">
        <ele>1347</ele>
        <time>2018-06-08T08:14:41Z</time>
      </trkpt>
      <trkpt lat="44.22688" lon="6.21043">
        <ele>1347</ele>
        <time>2018-06-08T08:14:44Z</time>
      </trkpt>
      <trkpt lat="44.2269" lon="6.21043">
        <ele>1347</ele>
        <time>2018-06-08T08:14:47Z</time>
      </trkpt>
      <trkpt lat="44.22691" lon="6.21041">
        <ele>1347</ele>
        <time>2018-06-08T08:14:51Z</time>
      </trkpt>
      <trkpt lat="44.22692" lon="6.21039">
        <ele>1347</ele>
        <time>2018-06-08T08:14:53Z</time>
      </trkpt>
      <trkpt lat="44.22693" lon="6.21038">
        <ele>1347</ele>
        <time>2018-06-08T08:14:55Z</time>
      </trkpt>
      <trkpt lat="44.22691" lon="6.21037">
        <ele>1347</ele>
        <time>2018-06-08T08:14:58Z</time>
      </trkpt>
      <trkpt lat="44.2269" lon="6.21039">
        <ele>1347</ele>
        <time>2018-06-08T08:15:00Z</time>
      </trkpt>
      <trkpt lat="44.22689" lon="6.21039">
        <ele>1347</ele>
        <time>2018-06-08T08:15:02Z</time>
      </trkpt>
      <trkpt lat="44.22688" lon="6.2104">
        <ele>1348</ele>
        <time>2018-06-08T08:15:05Z</time>
      </trkpt>
      <trkpt lat="44.22686" lon="6.21039">
        <ele>1350</ele>
        <time>2018-06-08T08:15:08Z</time>
      </trkpt>
      <trkpt lat="44.22685" lon="6.21039">
        <ele>1350</ele>
        <time>2018-06-08T08:15:10Z</time>
      </trkpt>
      <trkpt lat="44.22685" lon="6.21037">
        <ele>1351</ele>
        <time>2018-06-08T08:15:12Z</time>
      </trkpt>
      <trkpt lat="44.22686" lon="6.21035">
        <ele>1354</ele>
        <time>2018-06-08T08:15:25Z</time>
      </trkpt>
      <trkpt lat="44.22688" lon="6.21033">
        <ele>1354</ele>
        <time>2018-06-08T08:15:27Z</time>
      </trkpt>
      <trkpt lat="44.22689" lon="6.21033">
        <ele>1354</ele>
        <time>2018-06-08T08:15:29Z</time>
      </trkpt>
      <trkpt lat="44.2269" lon="6.21032">
        <ele>1354</ele>
        <time>2018-06-08T08:15:32Z</time>
      </trkpt>
      <trkpt lat="44.22692" lon="6.2103">
        <ele>1354</ele>
        <time>2018-06-08T08:15:34Z</time>
      </trkpt>
      <trkpt lat="44.22694" lon="6.21029">
        <ele>1354</ele>
        <time>2018-06-08T08:15:36Z</time>
      </trkpt>
      <trkpt lat="44.22695" lon="6.21027">
        <ele>1354</ele>
        <time>2018-06-08T08:15:38Z</time>
      </trkpt>
      <trkpt lat="44.22696" lon="6.21025">
        <ele>1354</ele>
        <time>2018-06-08T08:15:39Z</time>
      </trkpt>
      <trkpt lat="44.22697" lon="6.21023">
        <ele>1354</ele>
        <time>2018-06-08T08:15:41Z</time>
      </trkpt>
      <trkpt lat="44.22697" lon="6.21022">
        <ele>1354</ele>
        <time>2018-06-08T08:15:42Z</time>
      </trkpt>
      <trkpt lat="44.22699" lon="6.21021">
        <ele>1354</ele>
        <time>2018-06-08T08:15:44Z</time>
      </trkpt>
      <trkpt lat="44.22699" lon="6.21019">
        <ele>1354</ele>
        <time>2018-06-08T08:15:46Z</time>
      </trkpt>
      <trkpt lat="44.227" lon="6.21017">
        <ele>1354</ele>
        <time>2018-06-08T08:15:47Z</time>
      </trkpt>
      <trkpt lat="44.22701" lon="6.21016">
        <ele>1354</ele>
        <time>2018-06-08T08:15:50Z</time>
      </trkpt>
      <trkpt lat="44.22702" lon="6.21015">
        <ele>1354</ele>
        <time>2018-06-08T08:15:53Z</time>
      </trkpt>
      <trkpt lat="44.22704" lon="6.21013">
        <ele>1354</ele>
        <time>2018-06-08T08:15:55Z</time>
      </trkpt>
      <trkpt lat="44.22705" lon="6.21012">
        <ele>1354</ele>
        <time>2018-06-08T08:15:58Z</time>
      </trkpt>
      <trkpt lat="44.22706" lon="6.2101">
        <ele>1354</ele>
        <time>2018-06-08T08:16:00Z</time>
      </trkpt>
      <trkpt lat="44.22706" lon="6.21008">
        <ele>1354</ele>
        <time>2018-06-08T08:16:02Z</time>
      </trkpt>
      <trkpt lat="44.22707" lon="6.21007">
        <ele>1354</ele>
        <time>2018-06-08T08:16:03Z</time>
      </trkpt>
      <trkpt lat="44.22709" lon="6.21005">
        <ele>1354</ele>
        <time>2018-06-08T08:16:05Z</time>
      </trkpt>
      <trkpt lat="44.2271" lon="6.21003">
        <ele>1354</ele>
        <time>2018-06-08T08:16:07Z</time>
      </trkpt>
      <trkpt lat="44.22711" lon="6.21002">
        <ele>1354</ele>
        <time>2018-06-08T08:16:12Z</time>
      </trkpt>
      <trkpt lat="44.22712" lon="6.21">
        <ele>1354</ele>
        <time>2018-06-08T08:16:15Z</time>
      </trkpt>
      <trkpt lat="44.22713" lon="6.20999">
        <ele>1354</ele>
        <time>2018-06-08T08:16:17Z</time>
      </trkpt>
      <trkpt lat="44.22715" lon="6.20997">
        <ele>1354</ele>
        <time>2018-06-08T08:16:20Z</time>
      </trkpt>
      <trkpt lat="44.22716" lon="6.20996">
        <ele>1354</ele>
        <time>2018-06-08T08:16:25Z</time>
      </trkpt>
      <trkpt lat="44.22715" lon="6.20998">
        <ele>1354</ele>
        <time>2018-06-08T08:16:28Z</time>
      </trkpt>
      <trkpt lat="44.22717" lon="6.20998">
        <ele>1354</ele>
        <time>2018-06-08T08:16:31Z</time>
      </trkpt>
      <trkpt lat="44.22718" lon="6.20997">
        <ele>1354</ele>
        <time>2018-06-08T08:16:33Z</time>
      </trkpt>
      <trkpt lat="44.2272" lon="6.20997">
        <ele>1354</ele>
        <time>2018-06-08T08:16:35Z</time>
      </trkpt>
      <trkpt lat="44.22722" lon="6.20997">
        <ele>1354</ele>
        <time>2018-06-08T08:16:37Z</time>
      </trkpt>
      <trkpt lat="44.22723" lon="6.20997">
        <ele>1354</ele>
        <time>2018-06-08T08:16:40Z</time>
      </trkpt>
      <trkpt lat="44.22725" lon="6.20997">
        <ele>1354</ele>
        <time>2018-06-08T08:16:42Z</time>
      </trkpt>
      <trkpt lat="44.22726" lon="6.20997">
        <ele>1354</ele>
        <time>2018-06-08T08:16:44Z</time>
      </trkpt>
      <trkpt lat="44.22728" lon="6.20996">
        <ele>1354</ele>
        <time>2018-06-08T08:16:45Z</time>
      </trkpt>
      <trkpt lat="44.22729" lon="6.20995">
        <ele>1354</ele>
        <time>2018-06-08T08:16:47Z</time>
      </trkpt>
      <trkpt lat="44.2273" lon="6.20993">
        <ele>1354</ele>
        <time>2018-06-08T08:16:52Z</time>
      </trkpt>
      <trkpt lat="44.22732" lon="6.20992">
        <ele>1354</ele>
        <time>2018-06-08T08:16:54Z</time>
      </trkpt>
      <trkpt lat="44.22734" lon="6.20991">
        <ele>1354</ele>
        <time>2018-06-08T08:16:55Z</time>
      </trkpt>
      <trkpt lat="44.22736" lon="6.20991">
        <ele>1354</ele>
        <time>2018-06-08T08:16:57Z</time>
      </trkpt>
      <trkpt lat="44.22738" lon="6.2099">
        <ele>1354</ele>
        <time>2018-06-08T08:16:59Z</time>
      </trkpt>
      <trkpt lat="44.2274" lon="6.20989">
        <ele>1354</ele>
        <time>2018-06-08T08:17:00Z</time>
      </trkpt>
      <trkpt lat="44.22741" lon="6.20988">
        <ele>1354</ele>
        <time>2018-06-08T08:17:01Z</time>
      </trkpt>
      <trkpt lat="44.22742" lon="6.20987">
        <ele>1355</ele>
        <time>2018-06-08T08:17:02Z</time>
      </trkpt>
      <trkpt lat="44.22744" lon="6.20985">
        <ele>1355</ele>
        <time>2018-06-08T08:17:05Z</time>
      </trkpt>
      <trkpt lat="44.22746" lon="6.20983">
        <ele>1355</ele>
        <time>2018-06-08T08:17:07Z</time>
      </trkpt>
      <trkpt lat="44.22748" lon="6.20981">
        <ele>1355</ele>
        <time>2018-06-08T08:17:09Z</time>
      </trkpt>
      <trkpt lat="44.22749" lon="6.2098">
        <ele>1355</ele>
        <time>2018-06-08T08:17:11Z</time>
      </trkpt>
      <trkpt lat="44.2275" lon="6.20978">
        <ele>1355</ele>
        <time>2018-06-08T08:17:13Z</time>
      </trkpt>
      <trkpt lat="44.22752" lon="6.20977">
        <ele>1355</ele>
        <time>2018-06-08T08:17:14Z</time>
      </trkpt>
      <trkpt lat="44.22753" lon="6.20977">
        <ele>1355</ele>
        <time>2018-06-08T08:17:15Z</time>
      </trkpt>
      <trkpt lat="44.22755" lon="6.20975">
        <ele>1355</ele>
        <time>2018-06-08T08:17:17Z</time>
      </trkpt>
      <trkpt lat="44.22757" lon="6.20975">
        <ele>1355</ele>
        <time>2018-06-08T08:17:19Z</time>
      </trkpt>
      <trkpt lat="44.22758" lon="6.20973">
        <ele>1355</ele>
        <time>2018-06-08T08:17:22Z</time>
      </trkpt>
      <trkpt lat="44.22759" lon="6.20974">
        <ele>1355</ele>
        <time>2018-06-08T08:17:24Z</time>
      </trkpt>
      <trkpt lat="44.2276" lon="6.20974">
        <ele>1355</ele>
        <time>2018-06-08T08:17:26Z</time>
      </trkpt>
      <trkpt lat="44.22762" lon="6.20974">
        <ele>1355</ele>
        <time>2018-06-08T08:17:29Z</time>
      </trkpt>
      <trkpt lat="44.22763" lon="6.20973">
        <ele>1355</ele>
        <time>2018-06-08T08:17:31Z</time>
      </trkpt>
      <trkpt lat="44.22764" lon="6.20972">
        <ele>1355</ele>
        <time>2018-06-08T08:17:33Z</time>
      </trkpt>
      <trkpt lat="44.22766" lon="6.2097">
        <ele>1355</ele>
        <time>2018-06-08T08:17:35Z</time>
      </trkpt>
      <trkpt lat="44.22767" lon="6.20968">
        <ele>1355</ele>
        <time>2018-06-08T08:17:37Z</time>
      </trkpt>
      <trkpt lat="44.22769" lon="6.20967">
        <ele>1355</ele>
        <time>2018-06-08T08:17:39Z</time>
      </trkpt>
      <trkpt lat="44.2277" lon="6.20966">
        <ele>1355</ele>
        <time>2018-06-08T08:17:41Z</time>
      </trkpt>
      <trkpt lat="44.22772" lon="6.20964">
        <ele>1355</ele>
        <time>2018-06-08T08:17:43Z</time>
      </trkpt>
      <trkpt lat="44.22775" lon="6.20962">
        <ele>1355</ele>
        <time>2018-06-08T08:17:45Z</time>
      </trkpt>
      <trkpt lat="44.22777" lon="6.20961">
        <ele>1355</ele>
        <time>2018-06-08T08:17:47Z</time>
      </trkpt>
      <trkpt lat="44.22778" lon="6.20959">
        <ele>1355</ele>
        <time>2018-06-08T08:17:48Z</time>
      </trkpt>
      <trkpt lat="44.22779" lon="6.20958">
        <ele>1355</ele>
        <time>2018-06-08T08:17:49Z</time>
      </trkpt>
      <trkpt lat="44.2278" lon="6.20957">
        <ele>1355</ele>
        <time>2018-06-08T08:17:50Z</time>
      </trkpt>
      <trkpt lat="44.22781" lon="6.20957">
        <ele>1355</ele>
        <time>2018-06-08T08:17:51Z</time>
      </trkpt>
      <trkpt lat="44.22784" lon="6.20955">
        <ele>1355</ele>
        <time>2018-06-08T08:17:53Z</time>
      </trkpt>
      <trkpt lat="44.22785" lon="6.20955">
        <ele>1355</ele>
        <time>2018-06-08T08:17:54Z</time>
      </trkpt>
      <trkpt lat="44.22786" lon="6.20954">
        <ele>1355</ele>
        <time>2018-06-08T08:17:55Z</time>
      </trkpt>
      <trkpt lat="44.22787" lon="6.20953">
        <ele>1355</ele>
        <time>2018-06-08T08:17:56Z</time>
      </trkpt>
      <trkpt lat="44.22789" lon="6.20952">
        <ele>1355</ele>
        <time>2018-06-08T08:17:57Z</time>
      </trkpt>
      <trkpt lat="44.2279" lon="6.20951">
        <ele>1355</ele>
        <time>2018-06-08T08:17:58Z</time>
      </trkpt>
      <trkpt lat="44.22792" lon="6.20949">
        <ele>1355</ele>
        <time>2018-06-08T08:18:00Z</time>
      </trkpt>
      <trkpt lat="44.22794" lon="6.20947">
        <ele>1355</ele>
        <time>2018-06-08T08:18:02Z</time>
      </trkpt>
      <trkpt lat="44.22795" lon="6.20946">
        <ele>1356</ele>
        <time>2018-06-08T08:18:04Z</time>
      </trkpt>
      <trkpt lat="44.22796" lon="6.20944">
        <ele>1356</ele>
        <time>2018-06-08T08:18:06Z</time>
      </trkpt>
      <trkpt lat="44.22798" lon="6.20943">
        <ele>1356</ele>
        <time>2018-06-08T08:18:08Z</time>
      </trkpt>
      <trkpt lat="44.22799" lon="6.20942">
        <ele>1356</ele>
        <time>2018-06-08T08:18:09Z</time>
      </trkpt>
      <trkpt lat="44.22801" lon="6.20941">
        <ele>1357</ele>
        <time>2018-06-08T08:18:11Z</time>
      </trkpt>
      <trkpt lat="44.22802" lon="6.20939">
        <ele>1358</ele>
        <time>2018-06-08T08:18:13Z</time>
      </trkpt>
      <trkpt lat="44.22803" lon="6.20938">
        <ele>1358</ele>
        <time>2018-06-08T08:18:15Z</time>
      </trkpt>
      <trkpt lat="44.22805" lon="6.20937">
        <ele>1358</ele>
        <time>2018-06-08T08:18:18Z</time>
      </trkpt>
      <trkpt lat="44.22806" lon="6.20937">
        <ele>1358</ele>
        <time>2018-06-08T08:18:20Z</time>
      </trkpt>
      <trkpt lat="44.22808" lon="6.20937">
        <ele>1358</ele>
        <time>2018-06-08T08:18:22Z</time>
      </trkpt>
      <trkpt lat="44.22809" lon="6.20938">
        <ele>1358</ele>
        <time>2018-06-08T08:18:23Z</time>
      </trkpt>
      <trkpt lat="44.22811" lon="6.20939">
        <ele>1358</ele>
        <time>2018-06-08T08:18:24Z</time>
      </trkpt>
      <trkpt lat="44.2281" lon="6.2094">
        <ele>1358</ele>
        <time>2018-06-08T08:18:28Z</time>
      </trkpt>
      <trkpt lat="44.22812" lon="6.2094">
        <ele>1358</ele>
        <time>2018-06-08T08:18:36Z</time>
      </trkpt>
      <trkpt lat="44.22813" lon="6.20941">
        <ele>1358</ele>
        <time>2018-06-08T08:18:38Z</time>
      </trkpt>
      <trkpt lat="44.22815" lon="6.20941">
        <ele>1358</ele>
        <time>2018-06-08T08:18:40Z</time>
      </trkpt>
      <trkpt lat="44.22816" lon="6.20942">
        <ele>1358</ele>
        <time>2018-06-08T08:18:42Z</time>
      </trkpt>
      <trkpt lat="44.22818" lon="6.20942">
        <ele>1358</ele>
        <time>2018-06-08T08:18:43Z</time>
      </trkpt>
      <trkpt lat="44.22819" lon="6.20944">
        <ele>1358</ele>
        <time>2018-06-08T08:18:45Z</time>
      </trkpt>
      <trkpt lat="44.22821" lon="6.20945">
        <ele>1358</ele>
        <time>2018-06-08T08:18:46Z</time>
      </trkpt>
      <trkpt lat="44.22823" lon="6.20947">
        <ele>1358</ele>
        <time>2018-06-08T08:18:48Z</time>
      </trkpt>
      <trkpt lat="44.22824" lon="6.20949">
        <ele>1358</ele>
        <time>2018-06-08T08:18:49Z</time>
      </trkpt>
      <trkpt lat="44.22825" lon="6.20949">
        <ele>1358</ele>
        <time>2018-06-08T08:18:50Z</time>
      </trkpt>
      <trkpt lat="44.22827" lon="6.20951">
        <ele>1358</ele>
        <time>2018-06-08T08:18:52Z</time>
      </trkpt>
      <trkpt lat="44.22829" lon="6.20952">
        <ele>1358</ele>
        <time>2018-06-08T08:18:54Z</time>
      </trkpt>
      <trkpt lat="44.22831" lon="6.20952">
        <ele>1358</ele>
        <time>2018-06-08T08:18:55Z</time>
      </trkpt>
      <trkpt lat="44.22834" lon="6.20952">
        <ele>1358</ele>
        <time>2018-06-08T08:18:57Z</time>
      </trkpt>
      <trkpt lat="44.22835" lon="6.20952">
        <ele>1359</ele>
        <time>2018-06-08T08:18:58Z</time>
      </trkpt>
      <trkpt lat="44.22837" lon="6.20952">
        <ele>1359</ele>
        <time>2018-06-08T08:18:59Z</time>
      </trkpt>
      <trkpt lat="44.22839" lon="6.20953">
        <ele>1359</ele>
        <time>2018-06-08T08:19:01Z</time>
      </trkpt>
      <trkpt lat="44.2284" lon="6.20953">
        <ele>1359</ele>
        <time>2018-06-08T08:19:02Z</time>
      </trkpt>
      <trkpt lat="44.22841" lon="6.20954">
        <ele>1359</ele>
        <time>2018-06-08T08:19:05Z</time>
      </trkpt>
      <trkpt lat="44.22842" lon="6.20955">
        <ele>1360</ele>
        <time>2018-06-08T08:19:07Z</time>
      </trkpt>
      <trkpt lat="44.22844" lon="6.20957">
        <ele>1360</ele>
        <time>2018-06-08T08:19:09Z</time>
      </trkpt>
      <trkpt lat="44.22845" lon="6.20957">
        <ele>1360</ele>
        <time>2018-06-08T08:19:12Z</time>
      </trkpt>
      <trkpt lat="44.22847" lon="6.20957">
        <ele>1360</ele>
        <time>2018-06-08T08:19:14Z</time>
      </trkpt>
      <trkpt lat="44.22848" lon="6.20956">
        <ele>1360</ele>
        <time>2018-06-08T08:19:16Z</time>
      </trkpt>
      <trkpt lat="44.22849" lon="6.20955">
        <ele>1360</ele>
        <time>2018-06-08T08:19:18Z</time>
      </trkpt>
      <trkpt lat="44.2285" lon="6.20955">
        <ele>1360</ele>
        <time>2018-06-08T08:19:20Z</time>
      </trkpt>
      <trkpt lat="44.22852" lon="6.20954">
        <ele>1360</ele>
        <time>2018-06-08T08:19:22Z</time>
      </trkpt>
      <trkpt lat="44.22854" lon="6.20955">
        <ele>1360</ele>
        <time>2018-06-08T08:19:24Z</time>
      </trkpt>
      <trkpt lat="44.22855" lon="6.20955">
        <ele>1360</ele>
        <time>2018-06-08T08:19:25Z</time>
      </trkpt>
      <trkpt lat="44.22857" lon="6.20955">
        <ele>1360</ele>
        <time>2018-06-08T08:19:27Z</time>
      </trkpt>
      <trkpt lat="44.22859" lon="6.20955">
        <ele>1360</ele>
        <time>2018-06-08T08:19:29Z</time>
      </trkpt>
      <trkpt lat="44.22861" lon="6.20955">
        <ele>1360</ele>
        <time>2018-06-08T08:19:31Z</time>
      </trkpt>
      <trkpt lat="44.22863" lon="6.20955">
        <ele>1360</ele>
        <time>2018-06-08T08:19:33Z</time>
      </trkpt>
      <trkpt lat="44.22864" lon="6.20955">
        <ele>1361</ele>
        <time>2018-06-08T08:19:35Z</time>
      </trkpt>
      <trkpt lat="44.22866" lon="6.20955">
        <ele>1361</ele>
        <time>2018-06-08T08:19:37Z</time>
      </trkpt>
      <trkpt lat="44.22868" lon="6.20955">
        <ele>1361</ele>
        <time>2018-06-08T08:19:39Z</time>
      </trkpt>
      <trkpt lat="44.2287" lon="6.20956">
        <ele>1361</ele>
        <time>2018-06-08T08:19:41Z</time>
      </trkpt>
      <trkpt lat="44.22871" lon="6.20956">
        <ele>1361</ele>
        <time>2018-06-08T08:19:43Z</time>
      </trkpt>
      <trkpt lat="44.22873" lon="6.20956">
        <ele>1361</ele>
        <time>2018-06-08T08:19:45Z</time>
      </trkpt>
      <trkpt lat="44.22874" lon="6.20957">
        <ele>1361</ele>
        <time>2018-06-08T08:19:47Z</time>
      </trkpt>
      <trkpt lat="44.22876" lon="6.20958">
        <ele>1361</ele>
        <time>2018-06-08T08:19:49Z</time>
      </trkpt>
      <trkpt lat="44.22877" lon="6.20958">
        <ele>1362</ele>
        <time>2018-06-08T08:19:51Z</time>
      </trkpt>
      <trkpt lat="44.22879" lon="6.20957">
        <ele>1362</ele>
        <time>2018-06-08T08:19:53Z</time>
      </trkpt>
      <trkpt lat="44.2288" lon="6.20956">
        <ele>1362</ele>
        <time>2018-06-08T08:19:56Z</time>
      </trkpt>
      <trkpt lat="44.22881" lon="6.20955">
        <ele>1362</ele>
        <time>2018-06-08T08:19:58Z</time>
      </trkpt>
      <trkpt lat="44.22882" lon="6.20953">
        <ele>1363</ele>
        <time>2018-06-08T08:20:01Z</time>
      </trkpt>
      <trkpt lat="44.22884" lon="6.20952">
        <ele>1364</ele>
        <time>2018-06-08T08:20:03Z</time>
      </trkpt>
      <trkpt lat="44.22886" lon="6.20952">
        <ele>1364</ele>
        <time>2018-06-08T08:20:05Z</time>
      </trkpt>
      <trkpt lat="44.22887" lon="6.2095">
        <ele>1365</ele>
        <time>2018-06-08T08:20:07Z</time>
      </trkpt>
      <trkpt lat="44.22888" lon="6.20949">
        <ele>1365</ele>
        <time>2018-06-08T08:20:10Z</time>
      </trkpt>
      <trkpt lat="44.2289" lon="6.20948">
        <ele>1366</ele>
        <time>2018-06-08T08:20:12Z</time>
      </trkpt>
      <trkpt lat="44.22892" lon="6.20949">
        <ele>1366</ele>
        <time>2018-06-08T08:20:14Z</time>
      </trkpt>
      <trkpt lat="44.22893" lon="6.20949">
        <ele>1367</ele>
        <time>2018-06-08T08:20:16Z</time>
      </trkpt>
      <trkpt lat="44.22895" lon="6.20949">
        <ele>1367</ele>
        <time>2018-06-08T08:20:18Z</time>
      </trkpt>
      <trkpt lat="44.22897" lon="6.2095">
        <ele>1367</ele>
        <time>2018-06-08T08:20:20Z</time>
      </trkpt>
      <trkpt lat="44.22898" lon="6.2095">
        <ele>1367</ele>
        <time>2018-06-08T08:20:23Z</time>
      </trkpt>
      <trkpt lat="44.22899" lon="6.20949">
        <ele>1367</ele>
        <time>2018-06-08T08:20:26Z</time>
      </trkpt>
      <trkpt lat="44.22901" lon="6.20949">
        <ele>1368</ele>
        <time>2018-06-08T08:20:28Z</time>
      </trkpt>
      <trkpt lat="44.22902" lon="6.20949">
        <ele>1368</ele>
        <time>2018-06-08T08:20:30Z</time>
      </trkpt>
      <trkpt lat="44.22904" lon="6.20949">
        <ele>1368</ele>
        <time>2018-06-08T08:20:32Z</time>
      </trkpt>
      <trkpt lat="44.22905" lon="6.2095">
        <ele>1368</ele>
        <time>2018-06-08T08:20:34Z</time>
      </trkpt>
      <trkpt lat="44.22907" lon="6.2095">
        <ele>1368</ele>
        <time>2018-06-08T08:20:36Z</time>
      </trkpt>
      <trkpt lat="44.22908" lon="6.20949">
        <ele>1368</ele>
        <time>2018-06-08T08:20:38Z</time>
      </trkpt>
      <trkpt lat="44.2291" lon="6.20949">
        <ele>1368</ele>
        <time>2018-06-08T08:20:40Z</time>
      </trkpt>
      <trkpt lat="44.22911" lon="6.20949">
        <ele>1368</ele>
        <time>2018-06-08T08:20:42Z</time>
      </trkpt>
      <trkpt lat="44.22912" lon="6.20949">
        <ele>1369</ele>
        <time>2018-06-08T08:20:44Z</time>
      </trkpt>
      <trkpt lat="44.22914" lon="6.20949">
        <ele>1370</ele>
        <time>2018-06-08T08:20:47Z</time>
      </trkpt>
      <trkpt lat="44.22916" lon="6.20948">
        <ele>1370</ele>
        <time>2018-06-08T08:20:50Z</time>
      </trkpt>
      <trkpt lat="44.22918" lon="6.20947">
        <ele>1371</ele>
        <time>2018-06-08T08:20:52Z</time>
      </trkpt>
      <trkpt lat="44.22919" lon="6.20946">
        <ele>1371</ele>
        <time>2018-06-08T08:20:54Z</time>
      </trkpt>
      <trkpt lat="44.22921" lon="6.20946">
        <ele>1371</ele>
        <time>2018-06-08T08:20:55Z</time>
      </trkpt>
      <trkpt lat="44.22923" lon="6.20945">
        <ele>1371</ele>
        <time>2018-06-08T08:20:57Z</time>
      </trkpt>
      <trkpt lat="44.22924" lon="6.20944">
        <ele>1371</ele>
        <time>2018-06-08T08:20:59Z</time>
      </trkpt>
      <trkpt lat="44.22926" lon="6.20944">
        <ele>1371</ele>
        <time>2018-06-08T08:21:01Z</time>
      </trkpt>
      <trkpt lat="44.22926" lon="6.20942">
        <ele>1371</ele>
        <time>2018-06-08T08:21:03Z</time>
      </trkpt>
      <trkpt lat="44.22927" lon="6.20941">
        <ele>1371</ele>
        <time>2018-06-08T08:21:05Z</time>
      </trkpt>
      <trkpt lat="44.22929" lon="6.2094">
        <ele>1371</ele>
        <time>2018-06-08T08:21:07Z</time>
      </trkpt>
      <trkpt lat="44.22931" lon="6.20938">
        <ele>1371</ele>
        <time>2018-06-08T08:21:09Z</time>
      </trkpt>
      <trkpt lat="44.22932" lon="6.20937">
        <ele>1371</ele>
        <time>2018-06-08T08:21:11Z</time>
      </trkpt>
      <trkpt lat="44.22933" lon="6.20936">
        <ele>1371</ele>
        <time>2018-06-08T08:21:13Z</time>
      </trkpt>
      <trkpt lat="44.22935" lon="6.20936">
        <ele>1371</ele>
        <time>2018-06-08T08:21:15Z</time>
      </trkpt>
      <trkpt lat="44.22936" lon="6.20934">
        <ele>1371</ele>
        <time>2018-06-08T08:21:17Z</time>
      </trkpt>
      <trkpt lat="44.22937" lon="6.20932">
        <ele>1372</ele>
        <time>2018-06-08T08:21:19Z</time>
      </trkpt>
      <trkpt lat="44.22938" lon="6.20931">
        <ele>1372</ele>
        <time>2018-06-08T08:21:21Z</time>
      </trkpt>
      <trkpt lat="44.2294" lon="6.20929">
        <ele>1373</ele>
        <time>2018-06-08T08:21:23Z</time>
      </trkpt>
      <trkpt lat="44.22942" lon="6.20928">
        <ele>1373</ele>
        <time>2018-06-08T08:21:25Z</time>
      </trkpt>
      <trkpt lat="44.22943" lon="6.20927">
        <ele>1374</ele>
        <time>2018-06-08T08:21:27Z</time>
      </trkpt>
      <trkpt lat="44.22944" lon="6.20927">
        <ele>1374</ele>
        <time>2018-06-08T08:21:29Z</time>
      </trkpt>
      <trkpt lat="44.22947" lon="6.20927">
        <ele>1374</ele>
        <time>2018-06-08T08:21:32Z</time>
      </trkpt>
      <trkpt lat="44.22948" lon="6.20927">
        <ele>1374</ele>
        <time>2018-06-08T08:21:34Z</time>
      </trkpt>
      <trkpt lat="44.2295" lon="6.20927">
        <ele>1374</ele>
        <time>2018-06-08T08:21:36Z</time>
      </trkpt>
      <trkpt lat="44.22951" lon="6.20925">
        <ele>1374</ele>
        <time>2018-06-08T08:21:39Z</time>
      </trkpt>
      <trkpt lat="44.22951" lon="6.20923">
        <ele>1374</ele>
        <time>2018-06-08T08:21:41Z</time>
      </trkpt>
      <trkpt lat="44.22951" lon="6.20921">
        <ele>1375</ele>
        <time>2018-06-08T08:21:43Z</time>
      </trkpt>
      <trkpt lat="44.22952" lon="6.20919">
        <ele>1375</ele>
        <time>2018-06-08T08:21:45Z</time>
      </trkpt>
      <trkpt lat="44.22952" lon="6.20918">
        <ele>1375</ele>
        <time>2018-06-08T08:21:47Z</time>
      </trkpt>
      <trkpt lat="44.22953" lon="6.20916">
        <ele>1376</ele>
        <time>2018-06-08T08:21:49Z</time>
      </trkpt>
      <trkpt lat="44.22955" lon="6.20916">
        <ele>1377</ele>
        <time>2018-06-08T08:21:51Z</time>
      </trkpt>
      <trkpt lat="44.22956" lon="6.20916">
        <ele>1377</ele>
        <time>2018-06-08T08:21:53Z</time>
      </trkpt>
      <trkpt lat="44.22958" lon="6.20915">
        <ele>1378</ele>
        <time>2018-06-08T08:21:55Z</time>
      </trkpt>
      <trkpt lat="44.22959" lon="6.20915">
        <ele>1378</ele>
        <time>2018-06-08T08:21:57Z</time>
      </trkpt>
      <trkpt lat="44.22961" lon="6.20915">
        <ele>1378</ele>
        <time>2018-06-08T08:21:59Z</time>
      </trkpt>
      <trkpt lat="44.22962" lon="6.20914">
        <ele>1378</ele>
        <time>2018-06-08T08:22:01Z</time>
      </trkpt>
      <trkpt lat="44.22963" lon="6.20913">
        <ele>1378</ele>
        <time>2018-06-08T08:22:03Z</time>
      </trkpt>
      <trkpt lat="44.22965" lon="6.20912">
        <ele>1378</ele>
        <time>2018-06-08T08:22:05Z</time>
      </trkpt>
      <trkpt lat="44.22967" lon="6.20912">
        <ele>1379</ele>
        <time>2018-06-08T08:22:07Z</time>
      </trkpt>
      <trkpt lat="44.22969" lon="6.20911">
        <ele>1380</ele>
        <time>2018-06-08T08:22:09Z</time>
      </trkpt>
      <trkpt lat="44.22969" lon="6.20909">
        <ele>1380</ele>
        <time>2018-06-08T08:22:11Z</time>
      </trkpt>
      <trkpt lat="44.2297" lon="6.20907">
        <ele>1382</ele>
        <time>2018-06-08T08:22:14Z</time>
      </trkpt>
      <trkpt lat="44.22971" lon="6.20906">
        <ele>1383</ele>
        <time>2018-06-08T08:22:16Z</time>
      </trkpt>
      <trkpt lat="44.22973" lon="6.20904">
        <ele>1384</ele>
        <time>2018-06-08T08:22:20Z</time>
      </trkpt>
      <trkpt lat="44.22974" lon="6.20902">
        <ele>1385</ele>
        <time>2018-06-08T08:22:22Z</time>
      </trkpt>
      <trkpt lat="44.22976" lon="6.20902">
        <ele>1386</ele>
        <time>2018-06-08T08:22:24Z</time>
      </trkpt>
      <trkpt lat="44.22977" lon="6.20902">
        <ele>1386</ele>
        <time>2018-06-08T08:22:26Z</time>
      </trkpt>
      <trkpt lat="44.22979" lon="6.20902">
        <ele>1386</ele>
        <time>2018-06-08T08:22:28Z</time>
      </trkpt>
      <trkpt lat="44.22979" lon="6.209">
        <ele>1386</ele>
        <time>2018-06-08T08:22:29Z</time>
      </trkpt>
      <trkpt lat="44.2298" lon="6.20899">
        <ele>1386</ele>
        <time>2018-06-08T08:22:30Z</time>
      </trkpt>
      <trkpt lat="44.2298" lon="6.20897">
        <ele>1386</ele>
        <time>2018-06-08T08:22:32Z</time>
      </trkpt>
      <trkpt lat="44.22982" lon="6.20895">
        <ele>1386</ele>
        <time>2018-06-08T08:22:35Z</time>
      </trkpt>
      <trkpt lat="44.22984" lon="6.20893">
        <ele>1386</ele>
        <time>2018-06-08T08:22:37Z</time>
      </trkpt>
      <trkpt lat="44.22985" lon="6.20891">
        <ele>1386</ele>
        <time>2018-06-08T08:22:39Z</time>
      </trkpt>
      <trkpt lat="44.22986" lon="6.2089">
        <ele>1386</ele>
        <time>2018-06-08T08:22:41Z</time>
      </trkpt>
      <trkpt lat="44.22988" lon="6.20889">
        <ele>1387</ele>
        <time>2018-06-08T08:22:43Z</time>
      </trkpt>
      <trkpt lat="44.2299" lon="6.20888">
        <ele>1387</ele>
        <time>2018-06-08T08:22:45Z</time>
      </trkpt>
      <trkpt lat="44.22991" lon="6.20887">
        <ele>1387</ele>
        <time>2018-06-08T08:22:47Z</time>
      </trkpt>
      <trkpt lat="44.22993" lon="6.20887">
        <ele>1387</ele>
        <time>2018-06-08T08:22:49Z</time>
      </trkpt>
      <trkpt lat="44.22994" lon="6.20885">
        <ele>1387</ele>
        <time>2018-06-08T08:22:51Z</time>
      </trkpt>
      <trkpt lat="44.22996" lon="6.20884">
        <ele>1387</ele>
        <time>2018-06-08T08:22:53Z</time>
      </trkpt>
      <trkpt lat="44.22998" lon="6.20884">
        <ele>1388</ele>
        <time>2018-06-08T08:22:55Z</time>
      </trkpt>
      <trkpt lat="44.22999" lon="6.20884">
        <ele>1389</ele>
        <time>2018-06-08T08:22:57Z</time>
      </trkpt>
      <trkpt lat="44.23" lon="6.20883">
        <ele>1389</ele>
        <time>2018-06-08T08:22:58Z</time>
      </trkpt>
      <trkpt lat="44.23002" lon="6.20882">
        <ele>1389</ele>
        <time>2018-06-08T08:23:00Z</time>
      </trkpt>
      <trkpt lat="44.23004" lon="6.20882">
        <ele>1389</ele>
        <time>2018-06-08T08:23:02Z</time>
      </trkpt>
      <trkpt lat="44.23006" lon="6.20882">
        <ele>1389</ele>
        <time>2018-06-08T08:23:04Z</time>
      </trkpt>
      <trkpt lat="44.23007" lon="6.20881">
        <ele>1390</ele>
        <time>2018-06-08T08:23:06Z</time>
      </trkpt>
      <trkpt lat="44.23008" lon="6.20881">
        <ele>1390</ele>
        <time>2018-06-08T08:23:08Z</time>
      </trkpt>
      <trkpt lat="44.2301" lon="6.20881">
        <ele>1390</ele>
        <time>2018-06-08T08:23:10Z</time>
      </trkpt>
      <trkpt lat="44.23013" lon="6.2088">
        <ele>1390</ele>
        <time>2018-06-08T08:23:12Z</time>
      </trkpt>
      <trkpt lat="44.23015" lon="6.20879">
        <ele>1391</ele>
        <time>2018-06-08T08:23:14Z</time>
      </trkpt>
      <trkpt lat="44.23017" lon="6.20878">
        <ele>1391</ele>
        <time>2018-06-08T08:23:16Z</time>
      </trkpt>
      <trkpt lat="44.23019" lon="6.20878">
        <ele>1391</ele>
        <time>2018-06-08T08:23:19Z</time>
      </trkpt>
      <trkpt lat="44.2302" lon="6.20878">
        <ele>1392</ele>
        <time>2018-06-08T08:23:22Z</time>
      </trkpt>
      <trkpt lat="44.23021" lon="6.20878">
        <ele>1393</ele>
        <time>2018-06-08T08:23:23Z</time>
      </trkpt>
      <trkpt lat="44.23022" lon="6.20876">
        <ele>1394</ele>
        <time>2018-06-08T08:23:25Z</time>
      </trkpt>
      <trkpt lat="44.23024" lon="6.20873">
        <ele>1395</ele>
        <time>2018-06-08T08:23:28Z</time>
      </trkpt>
      <trkpt lat="44.23026" lon="6.20872">
        <ele>1395</ele>
        <time>2018-06-08T08:23:30Z</time>
      </trkpt>
      <trkpt lat="44.23027" lon="6.20871">
        <ele>1395</ele>
        <time>2018-06-08T08:23:31Z</time>
      </trkpt>
      <trkpt lat="44.23029" lon="6.20871">
        <ele>1395</ele>
        <time>2018-06-08T08:23:32Z</time>
      </trkpt>
      <trkpt lat="44.2303" lon="6.2087">
        <ele>1395</ele>
        <time>2018-06-08T08:23:33Z</time>
      </trkpt>
      <trkpt lat="44.23032" lon="6.2087">
        <ele>1395</ele>
        <time>2018-06-08T08:23:35Z</time>
      </trkpt>
      <trkpt lat="44.23032" lon="6.20868">
        <ele>1395</ele>
        <time>2018-06-08T08:23:36Z</time>
      </trkpt>
      <trkpt lat="44.23034" lon="6.20866">
        <ele>1395</ele>
        <time>2018-06-08T08:23:38Z</time>
      </trkpt>
      <trkpt lat="44.23035" lon="6.20866">
        <ele>1395</ele>
        <time>2018-06-08T08:23:40Z</time>
      </trkpt>
      <trkpt lat="44.23036" lon="6.20864">
        <ele>1395</ele>
        <time>2018-06-08T08:23:42Z</time>
      </trkpt>
      <trkpt lat="44.23037" lon="6.20862">
        <ele>1395</ele>
        <time>2018-06-08T08:23:45Z</time>
      </trkpt>
      <trkpt lat="44.23039" lon="6.20862">
        <ele>1395</ele>
        <time>2018-06-08T08:23:47Z</time>
      </trkpt>
      <trkpt lat="44.2304" lon="6.2086">
        <ele>1395</ele>
        <time>2018-06-08T08:23:49Z</time>
      </trkpt>
      <trkpt lat="44.2304" lon="6.20859">
        <ele>1395</ele>
        <time>2018-06-08T08:23:51Z</time>
      </trkpt>
      <trkpt lat="44.23042" lon="6.20856">
        <ele>1395</ele>
        <time>2018-06-08T08:23:53Z</time>
      </trkpt>
      <trkpt lat="44.23043" lon="6.20854">
        <ele>1395</ele>
        <time>2018-06-08T08:23:55Z</time>
      </trkpt>
      <trkpt lat="44.23045" lon="6.20853">
        <ele>1395</ele>
        <time>2018-06-08T08:23:57Z</time>
      </trkpt>
      <trkpt lat="44.23046" lon="6.20852">
        <ele>1395</ele>
        <time>2018-06-08T08:23:59Z</time>
      </trkpt>
      <trkpt lat="44.23047" lon="6.2085">
        <ele>1395</ele>
        <time>2018-06-08T08:24:02Z</time>
      </trkpt>
      <trkpt lat="44.23048" lon="6.20848">
        <ele>1396</ele>
        <time>2018-06-08T08:24:04Z</time>
      </trkpt>
      <trkpt lat="44.23049" lon="6.20846">
        <ele>1396</ele>
        <time>2018-06-08T08:24:06Z</time>
      </trkpt>
      <trkpt lat="44.2305" lon="6.20846">
        <ele>1397</ele>
        <time>2018-06-08T08:24:07Z</time>
      </trkpt>
      <trkpt lat="44.23053" lon="6.20845">
        <ele>1398</ele>
        <time>2018-06-08T08:24:09Z</time>
      </trkpt>
      <trkpt lat="44.23054" lon="6.20844">
        <ele>1398</ele>
        <time>2018-06-08T08:24:12Z</time>
      </trkpt>
      <trkpt lat="44.23055" lon="6.20842">
        <ele>1398</ele>
        <time>2018-06-08T08:24:14Z</time>
      </trkpt>
      <trkpt lat="44.23056" lon="6.2084">
        <ele>1398</ele>
        <time>2018-06-08T08:24:16Z</time>
      </trkpt>
      <trkpt lat="44.23057" lon="6.20838">
        <ele>1398</ele>
        <time>2018-06-08T08:24:17Z</time>
      </trkpt>
      <trkpt lat="44.23057" lon="6.20837">
        <ele>1398</ele>
        <time>2018-06-08T08:24:18Z</time>
      </trkpt>
      <trkpt lat="44.23057" lon="6.20835">
        <ele>1398</ele>
        <time>2018-06-08T08:24:21Z</time>
      </trkpt>
      <trkpt lat="44.23058" lon="6.20833">
        <ele>1399</ele>
        <time>2018-06-08T08:24:23Z</time>
      </trkpt>
      <trkpt lat="44.23059" lon="6.20833">
        <ele>1403</ele>
        <time>2018-06-08T08:24:28Z</time>
      </trkpt>
      <trkpt lat="44.23061" lon="6.20833">
        <ele>1405</ele>
        <time>2018-06-08T08:24:30Z</time>
      </trkpt>
      <trkpt lat="44.23063" lon="6.20833">
        <ele>1405</ele>
        <time>2018-06-08T08:24:31Z</time>
      </trkpt>
      <trkpt lat="44.23064" lon="6.20834">
        <ele>1406</ele>
        <time>2018-06-08T08:24:33Z</time>
      </trkpt>
      <trkpt lat="44.23066" lon="6.20834">
        <ele>1406</ele>
        <time>2018-06-08T08:24:34Z</time>
      </trkpt>
      <trkpt lat="44.23067" lon="6.20833">
        <ele>1406</ele>
        <time>2018-06-08T08:24:35Z</time>
      </trkpt>
      <trkpt lat="44.23068" lon="6.20833">
        <ele>1407</ele>
        <time>2018-06-08T08:24:37Z</time>
      </trkpt>
      <trkpt lat="44.2307" lon="6.20833">
        <ele>1407</ele>
        <time>2018-06-08T08:24:39Z</time>
      </trkpt>
      <trkpt lat="44.23072" lon="6.20833">
        <ele>1407</ele>
        <time>2018-06-08T08:24:42Z</time>
      </trkpt>
      <trkpt lat="44.23074" lon="6.20833">
        <ele>1407</ele>
        <time>2018-06-08T08:24:44Z</time>
      </trkpt>
      <trkpt lat="44.23075" lon="6.20834">
        <ele>1407</ele>
        <time>2018-06-08T08:24:46Z</time>
      </trkpt>
      <trkpt lat="44.23076" lon="6.20837">
        <ele>1407</ele>
        <time>2018-06-08T08:24:48Z</time>
      </trkpt>
      <trkpt lat="44.23075" lon="6.20838">
        <ele>1407</ele>
        <time>2018-06-08T08:24:50Z</time>
      </trkpt>
      <trkpt lat="44.23075" lon="6.2084">
        <ele>1407</ele>
        <time>2018-06-08T08:24:53Z</time>
      </trkpt>
      <trkpt lat="44.23075" lon="6.20842">
        <ele>1406</ele>
        <time>2018-06-08T08:24:55Z</time>
      </trkpt>
      <trkpt lat="44.23075" lon="6.20844">
        <ele>1406</ele>
        <time>2018-06-08T08:24:57Z</time>
      </trkpt>
      <trkpt lat="44.23076" lon="6.20846">
        <ele>1406</ele>
        <time>2018-06-08T08:25:00Z</time>
      </trkpt>
      <trkpt lat="44.23078" lon="6.20847">
        <ele>1406</ele>
        <time>2018-06-08T08:25:03Z</time>
      </trkpt>
      <trkpt lat="44.23079" lon="6.20848">
        <ele>1406</ele>
        <time>2018-06-08T08:25:06Z</time>
      </trkpt>
      <trkpt lat="44.2308" lon="6.2085">
        <ele>1406</ele>
        <time>2018-06-08T08:25:08Z</time>
      </trkpt>
      <trkpt lat="44.23081" lon="6.20851">
        <ele>1406</ele>
        <time>2018-06-08T08:25:11Z</time>
      </trkpt>
      <trkpt lat="44.23082" lon="6.20852">
        <ele>1406</ele>
        <time>2018-06-08T08:25:13Z</time>
      </trkpt>
      <trkpt lat="44.23084" lon="6.20851">
        <ele>1406</ele>
        <time>2018-06-08T08:25:15Z</time>
      </trkpt>
      <trkpt lat="44.23085" lon="6.20851">
        <ele>1406</ele>
        <time>2018-06-08T08:25:17Z</time>
      </trkpt>
      <trkpt lat="44.23087" lon="6.20852">
        <ele>1406</ele>
        <time>2018-06-08T08:25:20Z</time>
      </trkpt>
      <trkpt lat="44.23088" lon="6.20852">
        <ele>1406</ele>
        <time>2018-06-08T08:25:22Z</time>
      </trkpt>
      <trkpt lat="44.23089" lon="6.20853">
        <ele>1406</ele>
        <time>2018-06-08T08:25:24Z</time>
      </trkpt>
      <trkpt lat="44.23091" lon="6.20854">
        <ele>1406</ele>
        <time>2018-06-08T08:25:26Z</time>
      </trkpt>
      <trkpt lat="44.23092" lon="6.20855">
        <ele>1406</ele>
        <time>2018-06-08T08:25:29Z</time>
      </trkpt>
      <trkpt lat="44.23093" lon="6.20855">
        <ele>1406</ele>
        <time>2018-06-08T08:25:32Z</time>
      </trkpt>
      <trkpt lat="44.23095" lon="6.20855">
        <ele>1406</ele>
        <time>2018-06-08T08:25:35Z</time>
      </trkpt>
      <trkpt lat="44.23095" lon="6.20853">
        <ele>1406</ele>
        <time>2018-06-08T08:25:39Z</time>
      </trkpt>
      <trkpt lat="44.23094" lon="6.20851">
        <ele>1406</ele>
        <time>2018-06-08T08:25:42Z</time>
      </trkpt>
      <trkpt lat="44.23093" lon="6.20849">
        <ele>1406</ele>
        <time>2018-06-08T08:25:44Z</time>
      </trkpt>
      <trkpt lat="44.23093" lon="6.20847">
        <ele>1407</ele>
        <time>2018-06-08T08:25:46Z</time>
      </trkpt>
      <trkpt lat="44.23092" lon="6.20845">
        <ele>1408</ele>
        <time>2018-06-08T08:25:48Z</time>
      </trkpt>
      <trkpt lat="44.23092" lon="6.20844">
        <ele>1408</ele>
        <time>2018-06-08T08:25:50Z</time>
      </trkpt>
      <trkpt lat="44.23092" lon="6.20842">
        <ele>1408</ele>
        <time>2018-06-08T08:25:52Z</time>
      </trkpt>
      <trkpt lat="44.23092" lon="6.2084">
        <ele>1409</ele>
        <time>2018-06-08T08:25:55Z</time>
      </trkpt>
      <trkpt lat="44.23093" lon="6.2084">
        <ele>1409</ele>
        <time>2018-06-08T08:25:57Z</time>
      </trkpt>
      <trkpt lat="44.23095" lon="6.2084">
        <ele>1409</ele>
        <time>2018-06-08T08:26:00Z</time>
      </trkpt>
      <trkpt lat="44.23096" lon="6.2084">
        <ele>1409</ele>
        <time>2018-06-08T08:26:14Z</time>
      </trkpt>
      <trkpt lat="44.23097" lon="6.2084">
        <ele>1409</ele>
        <time>2018-06-08T08:26:27Z</time>
      </trkpt>
      <trkpt lat="44.23096" lon="6.20841">
        <ele>1410</ele>
        <time>2018-06-08T08:26:46Z</time>
      </trkpt>
      <trkpt lat="44.23095" lon="6.2084">
        <ele>1410</ele>
        <time>2018-06-08T08:26:57Z</time>
      </trkpt>
      <trkpt lat="44.23095" lon="6.20841">
        <ele>1410</ele>
        <time>2018-06-08T08:27:10Z</time>
      </trkpt>
      <trkpt lat="44.23096" lon="6.20842">
        <ele>1410</ele>
        <time>2018-06-08T08:27:25Z</time>
      </trkpt>
      <trkpt lat="44.23097" lon="6.20842">
        <ele>1410</ele>
        <time>2018-06-08T08:27:32Z</time>
      </trkpt>
      <trkpt lat="44.23096" lon="6.20842">
        <ele>1410</ele>
        <time>2018-06-08T08:27:42Z</time>
      </trkpt>
      <trkpt lat="44.23095" lon="6.20841">
        <ele>1410</ele>
        <time>2018-06-08T08:27:46Z</time>
      </trkpt>
      <trkpt lat="44.23095" lon="6.2084">
        <ele>1410</ele>
        <time>2018-06-08T08:28:02Z</time>
      </trkpt>
      <trkpt lat="44.23096" lon="6.2084">
        <ele>1410</ele>
        <time>2018-06-08T08:28:06Z</time>
      </trkpt>
      <trkpt lat="44.23097" lon="6.2084">
        <ele>1410</ele>
        <time>2018-06-08T08:28:10Z</time>
      </trkpt>
      <trkpt lat="44.23098" lon="6.2084">
        <ele>1410</ele>
        <time>2018-06-08T08:28:32Z</time>
      </trkpt>
      <trkpt lat="44.231" lon="6.2084">
        <ele>1410</ele>
        <time>2018-06-08T08:28:35Z</time>
      </trkpt>
      <trkpt lat="44.23101" lon="6.2084">
        <ele>1410</ele>
        <time>2018-06-08T08:28:37Z</time>
      </trkpt>
      <trkpt lat="44.23102" lon="6.2084">
        <ele>1410</ele>
        <time>2018-06-08T08:28:39Z</time>
      </trkpt>
      <trkpt lat="44.23103" lon="6.20839">
        <ele>1410</ele>
        <time>2018-06-08T08:28:42Z</time>
      </trkpt>
      <trkpt lat="44.23105" lon="6.20838">
        <ele>1410</ele>
        <time>2018-06-08T08:28:45Z</time>
      </trkpt>
      <trkpt lat="44.23106" lon="6.20837">
        <ele>1410</ele>
        <time>2018-06-08T08:28:48Z</time>
      </trkpt>
      <trkpt lat="44.23107" lon="6.20836">
        <ele>1410</ele>
        <time>2018-06-08T08:28:51Z</time>
      </trkpt>
      <trkpt lat="44.23109" lon="6.20835">
        <ele>1411</ele>
        <time>2018-06-08T08:28:54Z</time>
      </trkpt>
      <trkpt lat="44.2311" lon="6.20834">
        <ele>1411</ele>
        <time>2018-06-08T08:28:57Z</time>
      </trkpt>
      <trkpt lat="44.23112" lon="6.20833">
        <ele>1414</ele>
        <time>2018-06-08T08:29:02Z</time>
      </trkpt>
      <trkpt lat="44.23113" lon="6.20832">
        <ele>1414</ele>
        <time>2018-06-08T08:29:04Z</time>
      </trkpt>
      <trkpt lat="44.23114" lon="6.20831">
        <ele>1415</ele>
        <time>2018-06-08T08:29:07Z</time>
      </trkpt>
      <trkpt lat="44.23114" lon="6.20829">
        <ele>1415</ele>
        <time>2018-06-08T08:29:09Z</time>
      </trkpt>
      <trkpt lat="44.23115" lon="6.20827">
        <ele>1415</ele>
        <time>2018-06-08T08:29:11Z</time>
      </trkpt>
      <trkpt lat="44.23116" lon="6.20826">
        <ele>1416</ele>
        <time>2018-06-08T08:29:14Z</time>
      </trkpt>
      <trkpt lat="44.23115" lon="6.20824">
        <ele>1416</ele>
        <time>2018-06-08T08:29:15Z</time>
      </trkpt>
      <trkpt lat="44.23115" lon="6.20823">
        <ele>1417</ele>
        <time>2018-06-08T08:29:17Z</time>
      </trkpt>
      <trkpt lat="44.23114" lon="6.20821">
        <ele>1418</ele>
        <time>2018-06-08T08:29:21Z</time>
      </trkpt>
      <trkpt lat="44.23114" lon="6.20819">
        <ele>1419</ele>
        <time>2018-06-08T08:29:23Z</time>
      </trkpt>
      <trkpt lat="44.23115" lon="6.20818">
        <ele>1419</ele>
        <time>2018-06-08T08:29:25Z</time>
      </trkpt>
      <trkpt lat="44.23115" lon="6.20816">
        <ele>1419</ele>
        <time>2018-06-08T08:29:27Z</time>
      </trkpt>
      <trkpt lat="44.23115" lon="6.20815">
        <ele>1419</ele>
        <time>2018-06-08T08:29:30Z</time>
      </trkpt>
      <trkpt lat="44.23114" lon="6.20813">
        <ele>1419</ele>
        <time>2018-06-08T08:29:32Z</time>
      </trkpt>
      <trkpt lat="44.23114" lon="6.20811">
        <ele>1419</ele>
        <time>2018-06-08T08:29:34Z</time>
      </trkpt>
      <trkpt lat="44.23115" lon="6.20809">
        <ele>1419</ele>
        <time>2018-06-08T08:29:37Z</time>
      </trkpt>
      <trkpt lat="44.23115" lon="6.20808">
        <ele>1419</ele>
        <time>2018-06-08T08:29:38Z</time>
      </trkpt>
      <trkpt lat="44.23114" lon="6.20806">
        <ele>1419</ele>
        <time>2018-06-08T08:29:40Z</time>
      </trkpt>
      <trkpt lat="44.23114" lon="6.20804">
        <ele>1420</ele>
        <time>2018-06-08T08:29:42Z</time>
      </trkpt>
      <trkpt lat="44.23115" lon="6.20803">
        <ele>1421</ele>
        <time>2018-06-08T08:29:44Z</time>
      </trkpt>
      <trkpt lat="44.23116" lon="6.20801">
        <ele>1422</ele>
        <time>2018-06-08T08:29:47Z</time>
      </trkpt>
      <trkpt lat="44.23114" lon="6.20799">
        <ele>1422</ele>
        <time>2018-06-08T08:29:50Z</time>
      </trkpt>
      <trkpt lat="44.23114" lon="6.20797">
        <ele>1422</ele>
        <time>2018-06-08T08:29:51Z</time>
      </trkpt>
      <trkpt lat="44.23113" lon="6.20796">
        <ele>1423</ele>
        <time>2018-06-08T08:29:53Z</time>
      </trkpt>
      <trkpt lat="44.23112" lon="6.20794">
        <ele>1425</ele>
        <time>2018-06-08T08:29:56Z</time>
      </trkpt>
      <trkpt lat="44.23113" lon="6.20792">
        <ele>1426</ele>
        <time>2018-06-08T08:29:59Z</time>
      </trkpt>
      <trkpt lat="44.23113" lon="6.2079">
        <ele>1427</ele>
        <time>2018-06-08T08:30:01Z</time>
      </trkpt>
      <trkpt lat="44.23113" lon="6.20788">
        <ele>1428</ele>
        <time>2018-06-08T08:30:06Z</time>
      </trkpt>
      <trkpt lat="44.23111" lon="6.20786">
        <ele>1428</ele>
        <time>2018-06-08T08:30:08Z</time>
      </trkpt>
      <trkpt lat="44.23111" lon="6.20784">
        <ele>1428</ele>
        <time>2018-06-08T08:30:10Z</time>
      </trkpt>
      <trkpt lat="44.23111" lon="6.20782">
        <ele>1428</ele>
        <time>2018-06-08T08:30:11Z</time>
      </trkpt>
      <trkpt lat="44.23112" lon="6.20779">
        <ele>1428</ele>
        <time>2018-06-08T08:30:13Z</time>
      </trkpt>
      <trkpt lat="44.23113" lon="6.20777">
        <ele>1428</ele>
        <time>2018-06-08T08:30:15Z</time>
      </trkpt>
      <trkpt lat="44.23113" lon="6.20776">
        <ele>1428</ele>
        <time>2018-06-08T08:30:17Z</time>
      </trkpt>
      <trkpt lat="44.23114" lon="6.20774">
        <ele>1428</ele>
        <time>2018-06-08T08:30:19Z</time>
      </trkpt>
      <trkpt lat="44.23114" lon="6.20773">
        <ele>1428</ele>
        <time>2018-06-08T08:30:21Z</time>
      </trkpt>
      <trkpt lat="44.23113" lon="6.2077">
        <ele>1428</ele>
        <time>2018-06-08T08:30:24Z</time>
      </trkpt>
      <trkpt lat="44.23113" lon="6.20768">
        <ele>1428</ele>
        <time>2018-06-08T08:30:26Z</time>
      </trkpt>
      <trkpt lat="44.23114" lon="6.20766">
        <ele>1428</ele>
        <time>2018-06-08T08:30:28Z</time>
      </trkpt>
      <trkpt lat="44.23114" lon="6.20764">
        <ele>1428</ele>
        <time>2018-06-08T08:30:30Z</time>
      </trkpt>
      <trkpt lat="44.23115" lon="6.20763">
        <ele>1428</ele>
        <time>2018-06-08T08:30:33Z</time>
      </trkpt>
      <trkpt lat="44.23114" lon="6.2076">
        <ele>1428</ele>
        <time>2018-06-08T08:30:35Z</time>
      </trkpt>
      <trkpt lat="44.23114" lon="6.20757">
        <ele>1428</ele>
        <time>2018-06-08T08:30:37Z</time>
      </trkpt>
      <trkpt lat="44.23116" lon="6.20756">
        <ele>1428</ele>
        <time>2018-06-08T08:30:39Z</time>
      </trkpt>
      <trkpt lat="44.23116" lon="6.20753">
        <ele>1428</ele>
        <time>2018-06-08T08:30:42Z</time>
      </trkpt>
      <trkpt lat="44.23116" lon="6.20751">
        <ele>1428</ele>
        <time>2018-06-08T08:30:44Z</time>
      </trkpt>
      <trkpt lat="44.23117" lon="6.2075">
        <ele>1429</ele>
        <time>2018-06-08T08:30:47Z</time>
      </trkpt>
      <trkpt lat="44.23119" lon="6.20749">
        <ele>1430</ele>
        <time>2018-06-08T08:30:51Z</time>
      </trkpt>
      <trkpt lat="44.2312" lon="6.20747">
        <ele>1430</ele>
        <time>2018-06-08T08:30:54Z</time>
      </trkpt>
      <trkpt lat="44.23122" lon="6.20746">
        <ele>1431</ele>
        <time>2018-06-08T08:30:57Z</time>
      </trkpt>
      <trkpt lat="44.23123" lon="6.20744">
        <ele>1431</ele>
        <time>2018-06-08T08:30:59Z</time>
      </trkpt>
      <trkpt lat="44.23124" lon="6.20743">
        <ele>1431</ele>
        <time>2018-06-08T08:31:02Z</time>
      </trkpt>
      <trkpt lat="44.23124" lon="6.20742">
        <ele>1431</ele>
        <time>2018-06-08T08:31:04Z</time>
      </trkpt>
      <trkpt lat="44.23125" lon="6.2074">
        <ele>1431</ele>
        <time>2018-06-08T08:31:05Z</time>
      </trkpt>
      <trkpt lat="44.23126" lon="6.20739">
        <ele>1431</ele>
        <time>2018-06-08T08:31:07Z</time>
      </trkpt>
      <trkpt lat="44.23127" lon="6.20738">
        <ele>1431</ele>
        <time>2018-06-08T08:31:09Z</time>
      </trkpt>
      <trkpt lat="44.23129" lon="6.20738">
        <ele>1431</ele>
        <time>2018-06-08T08:31:11Z</time>
      </trkpt>
      <trkpt lat="44.2313" lon="6.20736">
        <ele>1431</ele>
        <time>2018-06-08T08:31:13Z</time>
      </trkpt>
      <trkpt lat="44.23131" lon="6.20734">
        <ele>1431</ele>
        <time>2018-06-08T08:31:15Z</time>
      </trkpt>
      <trkpt lat="44.23132" lon="6.20732">
        <ele>1431</ele>
        <time>2018-06-08T08:31:17Z</time>
      </trkpt>
      <trkpt lat="44.23133" lon="6.2073">
        <ele>1431</ele>
        <time>2018-06-08T08:31:19Z</time>
      </trkpt>
      <trkpt lat="44.23134" lon="6.20729">
        <ele>1431</ele>
        <time>2018-06-08T08:31:21Z</time>
      </trkpt>
      <trkpt lat="44.23134" lon="6.20726">
        <ele>1431</ele>
        <time>2018-06-08T08:31:23Z</time>
      </trkpt>
      <trkpt lat="44.23135" lon="6.20725">
        <ele>1431</ele>
        <time>2018-06-08T08:31:25Z</time>
      </trkpt>
      <trkpt lat="44.23136" lon="6.20723">
        <ele>1431</ele>
        <time>2018-06-08T08:31:27Z</time>
      </trkpt>
      <trkpt lat="44.23138" lon="6.20722">
        <ele>1431</ele>
        <time>2018-06-08T08:31:28Z</time>
      </trkpt>
      <trkpt lat="44.23139" lon="6.2072">
        <ele>1431</ele>
        <time>2018-06-08T08:31:30Z</time>
      </trkpt>
      <trkpt lat="44.2314" lon="6.20719">
        <ele>1432</ele>
        <time>2018-06-08T08:31:32Z</time>
      </trkpt>
      <trkpt lat="44.23142" lon="6.20717">
        <ele>1432</ele>
        <time>2018-06-08T08:31:34Z</time>
      </trkpt>
      <trkpt lat="44.23142" lon="6.20715">
        <ele>1432</ele>
        <time>2018-06-08T08:31:36Z</time>
      </trkpt>
      <trkpt lat="44.23142" lon="6.20713">
        <ele>1432</ele>
        <time>2018-06-08T08:31:38Z</time>
      </trkpt>
      <trkpt lat="44.23143" lon="6.20711">
        <ele>1432</ele>
        <time>2018-06-08T08:31:40Z</time>
      </trkpt>
      <trkpt lat="44.23144" lon="6.20709">
        <ele>1432</ele>
        <time>2018-06-08T08:31:42Z</time>
      </trkpt>
      <trkpt lat="44.23146" lon="6.20708">
        <ele>1432</ele>
        <time>2018-06-08T08:31:44Z</time>
      </trkpt>
      <trkpt lat="44.23147" lon="6.20707">
        <ele>1433</ele>
        <time>2018-06-08T08:31:46Z</time>
      </trkpt>
      <trkpt lat="44.23149" lon="6.20706">
        <ele>1433</ele>
        <time>2018-06-08T08:31:48Z</time>
      </trkpt>
      <trkpt lat="44.2315" lon="6.20703">
        <ele>1434</ele>
        <time>2018-06-08T08:31:50Z</time>
      </trkpt>
      <trkpt lat="44.23151" lon="6.20701">
        <ele>1434</ele>
        <time>2018-06-08T08:31:52Z</time>
      </trkpt>
      <trkpt lat="44.23152" lon="6.20699">
        <ele>1434</ele>
        <time>2018-06-08T08:31:54Z</time>
      </trkpt>
      <trkpt lat="44.23153" lon="6.20697">
        <ele>1434</ele>
        <time>2018-06-08T08:31:56Z</time>
      </trkpt>
      <trkpt lat="44.23154" lon="6.20695">
        <ele>1434</ele>
        <time>2018-06-08T08:31:58Z</time>
      </trkpt>
      <trkpt lat="44.23154" lon="6.20693">
        <ele>1434</ele>
        <time>2018-06-08T08:32:00Z</time>
      </trkpt>
      <trkpt lat="44.23155" lon="6.20691">
        <ele>1434</ele>
        <time>2018-06-08T08:32:02Z</time>
      </trkpt>
      <trkpt lat="44.23155" lon="6.20688">
        <ele>1434</ele>
        <time>2018-06-08T08:32:04Z</time>
      </trkpt>
      <trkpt lat="44.23155" lon="6.20686">
        <ele>1434</ele>
        <time>2018-06-08T08:32:06Z</time>
      </trkpt>
      <trkpt lat="44.23156" lon="6.20684">
        <ele>1434</ele>
        <time>2018-06-08T08:32:08Z</time>
      </trkpt>
      <trkpt lat="44.23156" lon="6.20681">
        <ele>1434</ele>
        <time>2018-06-08T08:32:10Z</time>
      </trkpt>
      <trkpt lat="44.23156" lon="6.2068">
        <ele>1434</ele>
        <time>2018-06-08T08:32:11Z</time>
      </trkpt>
      <trkpt lat="44.23156" lon="6.20678">
        <ele>1434</ele>
        <time>2018-06-08T08:32:12Z</time>
      </trkpt>
      <trkpt lat="44.23156" lon="6.20676">
        <ele>1434</ele>
        <time>2018-06-08T08:32:14Z</time>
      </trkpt>
      <trkpt lat="44.23157" lon="6.20674">
        <ele>1434</ele>
        <time>2018-06-08T08:32:15Z</time>
      </trkpt>
      <trkpt lat="44.23157" lon="6.20673">
        <ele>1434</ele>
        <time>2018-06-08T08:32:16Z</time>
      </trkpt>
      <trkpt lat="44.23157" lon="6.2067">
        <ele>1434</ele>
        <time>2018-06-08T08:32:18Z</time>
      </trkpt>
      <trkpt lat="44.23157" lon="6.20669">
        <ele>1434</ele>
        <time>2018-06-08T08:32:19Z</time>
      </trkpt>
      <trkpt lat="44.23158" lon="6.20666">
        <ele>1434</ele>
        <time>2018-06-08T08:32:21Z</time>
      </trkpt>
      <trkpt lat="44.23158" lon="6.20663">
        <ele>1434</ele>
        <time>2018-06-08T08:32:23Z</time>
      </trkpt>
      <trkpt lat="44.23158" lon="6.20661">
        <ele>1434</ele>
        <time>2018-06-08T08:32:25Z</time>
      </trkpt>
      <trkpt lat="44.23159" lon="6.20658">
        <ele>1434</ele>
        <time>2018-06-08T08:32:27Z</time>
      </trkpt>
      <trkpt lat="44.23159" lon="6.20656">
        <ele>1434</ele>
        <time>2018-06-08T08:32:29Z</time>
      </trkpt>
      <trkpt lat="44.23159" lon="6.20654">
        <ele>1434</ele>
        <time>2018-06-08T08:32:30Z</time>
      </trkpt>
      <trkpt lat="44.23159" lon="6.20653">
        <ele>1434</ele>
        <time>2018-06-08T08:32:31Z</time>
      </trkpt>
      <trkpt lat="44.2316" lon="6.2065">
        <ele>1434</ele>
        <time>2018-06-08T08:32:33Z</time>
      </trkpt>
      <trkpt lat="44.23161" lon="6.20648">
        <ele>1434</ele>
        <time>2018-06-08T08:32:35Z</time>
      </trkpt>
      <trkpt lat="44.23162" lon="6.20646">
        <ele>1434</ele>
        <time>2018-06-08T08:32:37Z</time>
      </trkpt>
      <trkpt lat="44.23163" lon="6.20644">
        <ele>1434</ele>
        <time>2018-06-08T08:32:39Z</time>
      </trkpt>
      <trkpt lat="44.23164" lon="6.20641">
        <ele>1434</ele>
        <time>2018-06-08T08:32:41Z</time>
      </trkpt>
      <trkpt lat="44.23165" lon="6.20639">
        <ele>1434</ele>
        <time>2018-06-08T08:32:43Z</time>
      </trkpt>
      <trkpt lat="44.23165" lon="6.20637">
        <ele>1434</ele>
        <time>2018-06-08T08:32:44Z</time>
      </trkpt>
      <trkpt lat="44.23166" lon="6.20635">
        <ele>1434</ele>
        <time>2018-06-08T08:32:46Z</time>
      </trkpt>
      <trkpt lat="44.23167" lon="6.20632">
        <ele>1434</ele>
        <time>2018-06-08T08:32:48Z</time>
      </trkpt>
      <trkpt lat="44.23168" lon="6.2063">
        <ele>1434</ele>
        <time>2018-06-08T08:32:50Z</time>
      </trkpt>
      <trkpt lat="44.23169" lon="6.20628">
        <ele>1434</ele>
        <time>2018-06-08T08:32:52Z</time>
      </trkpt>
      <trkpt lat="44.23169" lon="6.20625">
        <ele>1434</ele>
        <time>2018-06-08T08:32:53Z</time>
      </trkpt>
      <trkpt lat="44.23169" lon="6.20623">
        <ele>1434</ele>
        <time>2018-06-08T08:32:54Z</time>
      </trkpt>
      <trkpt lat="44.23169" lon="6.20621">
        <ele>1436</ele>
        <time>2018-06-08T08:32:56Z</time>
      </trkpt>
      <trkpt lat="44.2317" lon="6.20619">
        <ele>1437</ele>
        <time>2018-06-08T08:32:58Z</time>
      </trkpt>
      <trkpt lat="44.23171" lon="6.20617">
        <ele>1437</ele>
        <time>2018-06-08T08:33:00Z</time>
      </trkpt>
      <trkpt lat="44.23172" lon="6.20615">
        <ele>1437</ele>
        <time>2018-06-08T08:33:02Z</time>
      </trkpt>
      <trkpt lat="44.23174" lon="6.20614">
        <ele>1437</ele>
        <time>2018-06-08T08:33:04Z</time>
      </trkpt>
      <trkpt lat="44.23175" lon="6.20612">
        <ele>1437</ele>
        <time>2018-06-08T08:33:06Z</time>
      </trkpt>
      <trkpt lat="44.23176" lon="6.2061">
        <ele>1437</ele>
        <time>2018-06-08T08:33:08Z</time>
      </trkpt>
      <trkpt lat="44.23177" lon="6.20608">
        <ele>1437</ele>
        <time>2018-06-08T08:33:10Z</time>
      </trkpt>
      <trkpt lat="44.23178" lon="6.20606">
        <ele>1437</ele>
        <time>2018-06-08T08:33:12Z</time>
      </trkpt>
      <trkpt lat="44.23179" lon="6.20604">
        <ele>1437</ele>
        <time>2018-06-08T08:33:14Z</time>
      </trkpt>
      <trkpt lat="44.2318" lon="6.20602">
        <ele>1437</ele>
        <time>2018-06-08T08:33:16Z</time>
      </trkpt>
      <trkpt lat="44.2318" lon="6.206">
        <ele>1437</ele>
        <time>2018-06-08T08:33:18Z</time>
      </trkpt>
      <trkpt lat="44.23182" lon="6.20598">
        <ele>1438</ele>
        <time>2018-06-08T08:33:20Z</time>
      </trkpt>
      <trkpt lat="44.23183" lon="6.20596">
        <ele>1438</ele>
        <time>2018-06-08T08:33:23Z</time>
      </trkpt>
      <trkpt lat="44.23183" lon="6.20592">
        <ele>1438</ele>
        <time>2018-06-08T08:33:26Z</time>
      </trkpt>
      <trkpt lat="44.23183" lon="6.2059">
        <ele>1439</ele>
        <time>2018-06-08T08:33:27Z</time>
      </trkpt>
      <trkpt lat="44.23184" lon="6.20588">
        <ele>1440</ele>
        <time>2018-06-08T08:33:29Z</time>
      </trkpt>
      <trkpt lat="44.23185" lon="6.20586">
        <ele>1442</ele>
        <time>2018-06-08T08:33:31Z</time>
      </trkpt>
      <trkpt lat="44.23186" lon="6.20585">
        <ele>1442</ele>
        <time>2018-06-08T08:33:33Z</time>
      </trkpt>
      <trkpt lat="44.23188" lon="6.20583">
        <ele>1442</ele>
        <time>2018-06-08T08:33:35Z</time>
      </trkpt>
      <trkpt lat="44.23189" lon="6.20581">
        <ele>1442</ele>
        <time>2018-06-08T08:33:37Z</time>
      </trkpt>
      <trkpt lat="44.2319" lon="6.20579">
        <ele>1442</ele>
        <time>2018-06-08T08:33:39Z</time>
      </trkpt>
      <trkpt lat="44.23191" lon="6.20577">
        <ele>1443</ele>
        <time>2018-06-08T08:33:41Z</time>
      </trkpt>
      <trkpt lat="44.23192" lon="6.20575">
        <ele>1443</ele>
        <time>2018-06-08T08:33:43Z</time>
      </trkpt>
      <trkpt lat="44.23193" lon="6.20573">
        <ele>1443</ele>
        <time>2018-06-08T08:33:45Z</time>
      </trkpt>
      <trkpt lat="44.23194" lon="6.20572">
        <ele>1444</ele>
        <time>2018-06-08T08:33:47Z</time>
      </trkpt>
      <trkpt lat="44.23195" lon="6.2057">
        <ele>1444</ele>
        <time>2018-06-08T08:33:49Z</time>
      </trkpt>
      <trkpt lat="44.23196" lon="6.20569">
        <ele>1445</ele>
        <time>2018-06-08T08:33:51Z</time>
      </trkpt>
      <trkpt lat="44.23196" lon="6.20567">
        <ele>1445</ele>
        <time>2018-06-08T08:33:52Z</time>
      </trkpt>
      <trkpt lat="44.23197" lon="6.20565">
        <ele>1446</ele>
        <time>2018-06-08T08:33:54Z</time>
      </trkpt>
      <trkpt lat="44.23197" lon="6.20563">
        <ele>1446</ele>
        <time>2018-06-08T08:33:55Z</time>
      </trkpt>
      <trkpt lat="44.23198" lon="6.20561">
        <ele>1447</ele>
        <time>2018-06-08T08:33:57Z</time>
      </trkpt>
      <trkpt lat="44.23199" lon="6.20559">
        <ele>1447</ele>
        <time>2018-06-08T08:33:59Z</time>
      </trkpt>
      <trkpt lat="44.23201" lon="6.20557">
        <ele>1447</ele>
        <time>2018-06-08T08:34:01Z</time>
      </trkpt>
      <trkpt lat="44.23202" lon="6.20555">
        <ele>1447</ele>
        <time>2018-06-08T08:34:03Z</time>
      </trkpt>
      <trkpt lat="44.23204" lon="6.20553">
        <ele>1447</ele>
        <time>2018-06-08T08:34:05Z</time>
      </trkpt>
      <trkpt lat="44.23204" lon="6.20551">
        <ele>1447</ele>
        <time>2018-06-08T08:34:07Z</time>
      </trkpt>
      <trkpt lat="44.23205" lon="6.20549">
        <ele>1447</ele>
        <time>2018-06-08T08:34:09Z</time>
      </trkpt>
      <trkpt lat="44.23206" lon="6.20548">
        <ele>1448</ele>
        <time>2018-06-08T08:34:11Z</time>
      </trkpt>
      <trkpt lat="44.23207" lon="6.20546">
        <ele>1448</ele>
        <time>2018-06-08T08:34:13Z</time>
      </trkpt>
      <trkpt lat="44.23209" lon="6.20544">
        <ele>1448</ele>
        <time>2018-06-08T08:34:15Z</time>
      </trkpt>
      <trkpt lat="44.2321" lon="6.20542">
        <ele>1448</ele>
        <time>2018-06-08T08:34:17Z</time>
      </trkpt>
      <trkpt lat="44.23211" lon="6.20541">
        <ele>1448</ele>
        <time>2018-06-08T08:34:19Z</time>
      </trkpt>
      <trkpt lat="44.23212" lon="6.2054">
        <ele>1449</ele>
        <time>2018-06-08T08:34:21Z</time>
      </trkpt>
      <trkpt lat="44.23214" lon="6.20538">
        <ele>1449</ele>
        <time>2018-06-08T08:34:24Z</time>
      </trkpt>
      <trkpt lat="44.23214" lon="6.20537">
        <ele>1450</ele>
        <time>2018-06-08T08:34:38Z</time>
      </trkpt>
      <trkpt lat="44.23215" lon="6.20536">
        <ele>1451</ele>
        <time>2018-06-08T08:34:55Z</time>
      </trkpt>
      <trkpt lat="44.23216" lon="6.20535">
        <ele>1451</ele>
        <time>2018-06-08T08:34:57Z</time>
      </trkpt>
      <trkpt lat="44.23217" lon="6.20535">
        <ele>1452</ele>
        <time>2018-06-08T08:34:59Z</time>
      </trkpt>
      <trkpt lat="44.23218" lon="6.20536">
        <ele>1452</ele>
        <time>2018-06-08T08:35:03Z</time>
      </trkpt>
      <trkpt lat="44.23219" lon="6.20537">
        <ele>1452</ele>
        <time>2018-06-08T08:35:40Z</time>
      </trkpt>
      <trkpt lat="44.2322" lon="6.20536">
        <ele>1452</ele>
        <time>2018-06-08T08:35:43Z</time>
      </trkpt>
      <trkpt lat="44.23222" lon="6.20535">
        <ele>1452</ele>
        <time>2018-06-08T08:35:49Z</time>
      </trkpt>
      <trkpt lat="44.23222" lon="6.20536">
        <ele>1453</ele>
        <time>2018-06-08T08:36:07Z</time>
      </trkpt>
      <trkpt lat="44.23222" lon="6.20535">
        <ele>1453</ele>
        <time>2018-06-08T08:36:11Z</time>
      </trkpt>
      <trkpt lat="44.23223" lon="6.20536">
        <ele>1453</ele>
        <time>2018-06-08T08:36:37Z</time>
      </trkpt>
      <trkpt lat="44.23222" lon="6.20538">
        <ele>1454</ele>
        <time>2018-06-08T08:36:43Z</time>
      </trkpt>
      <trkpt lat="44.23222" lon="6.2054">
        <ele>1454</ele>
        <time>2018-06-08T08:36:46Z</time>
      </trkpt>
      <trkpt lat="44.23222" lon="6.20541">
        <ele>1454</ele>
        <time>2018-06-08T08:36:48Z</time>
      </trkpt>
      <trkpt lat="44.23222" lon="6.20543">
        <ele>1454</ele>
        <time>2018-06-08T08:36:50Z</time>
      </trkpt>
      <trkpt lat="44.23221" lon="6.20545">
        <ele>1454</ele>
        <time>2018-06-08T08:36:52Z</time>
      </trkpt>
      <trkpt lat="44.23221" lon="6.20547">
        <ele>1454</ele>
        <time>2018-06-08T08:36:54Z</time>
      </trkpt>
      <trkpt lat="44.23221" lon="6.20549">
        <ele>1454</ele>
        <time>2018-06-08T08:36:56Z</time>
      </trkpt>
      <trkpt lat="44.23222" lon="6.20551">
        <ele>1454</ele>
        <time>2018-06-08T08:36:58Z</time>
      </trkpt>
      <trkpt lat="44.23223" lon="6.20552">
        <ele>1454</ele>
        <time>2018-06-08T08:37:00Z</time>
      </trkpt>
      <trkpt lat="44.23225" lon="6.20552">
        <ele>1454</ele>
        <time>2018-06-08T08:37:02Z</time>
      </trkpt>
      <trkpt lat="44.23227" lon="6.20553">
        <ele>1454</ele>
        <time>2018-06-08T08:37:04Z</time>
      </trkpt>
      <trkpt lat="44.23228" lon="6.20554">
        <ele>1454</ele>
        <time>2018-06-08T08:37:06Z</time>
      </trkpt>
      <trkpt lat="44.2323" lon="6.20555">
        <ele>1454</ele>
        <time>2018-06-08T08:37:08Z</time>
      </trkpt>
      <trkpt lat="44.23232" lon="6.20556">
        <ele>1454</ele>
        <time>2018-06-08T08:37:10Z</time>
      </trkpt>
      <trkpt lat="44.23233" lon="6.20558">
        <ele>1454</ele>
        <time>2018-06-08T08:37:12Z</time>
      </trkpt>
      <trkpt lat="44.23235" lon="6.20559">
        <ele>1455</ele>
        <time>2018-06-08T08:37:14Z</time>
      </trkpt>
      <trkpt lat="44.23236" lon="6.20561">
        <ele>1455</ele>
        <time>2018-06-08T08:37:16Z</time>
      </trkpt>
      <trkpt lat="44.23238" lon="6.20562">
        <ele>1456</ele>
        <time>2018-06-08T08:37:18Z</time>
      </trkpt>
      <trkpt lat="44.2324" lon="6.20562">
        <ele>1456</ele>
        <time>2018-06-08T08:37:20Z</time>
      </trkpt>
      <trkpt lat="44.23241" lon="6.20563">
        <ele>1456</ele>
        <time>2018-06-08T08:37:22Z</time>
      </trkpt>
      <trkpt lat="44.23242" lon="6.20564">
        <ele>1457</ele>
        <time>2018-06-08T08:37:24Z</time>
      </trkpt>
      <trkpt lat="44.23244" lon="6.20565">
        <ele>1457</ele>
        <time>2018-06-08T08:37:26Z</time>
      </trkpt>
      <trkpt lat="44.23246" lon="6.20565">
        <ele>1457</ele>
        <time>2018-06-08T08:37:28Z</time>
      </trkpt>
      <trkpt lat="44.23247" lon="6.20566">
        <ele>1457</ele>
        <time>2018-06-08T08:37:29Z</time>
      </trkpt>
      <trkpt lat="44.23249" lon="6.20566">
        <ele>1457</ele>
        <time>2018-06-08T08:37:31Z</time>
      </trkpt>
      <trkpt lat="44.23251" lon="6.20567">
        <ele>1457</ele>
        <time>2018-06-08T08:37:33Z</time>
      </trkpt>
      <trkpt lat="44.23252" lon="6.20568">
        <ele>1457</ele>
        <time>2018-06-08T08:37:35Z</time>
      </trkpt>
      <trkpt lat="44.23254" lon="6.20568">
        <ele>1457</ele>
        <time>2018-06-08T08:37:37Z</time>
      </trkpt>
      <trkpt lat="44.23256" lon="6.20569">
        <ele>1458</ele>
        <time>2018-06-08T08:37:39Z</time>
      </trkpt>
      <trkpt lat="44.23258" lon="6.2057">
        <ele>1458</ele>
        <time>2018-06-08T08:37:41Z</time>
      </trkpt>
      <trkpt lat="44.2326" lon="6.2057">
        <ele>1458</ele>
        <time>2018-06-08T08:37:43Z</time>
      </trkpt>
      <trkpt lat="44.23261" lon="6.2057">
        <ele>1459</ele>
        <time>2018-06-08T08:37:44Z</time>
      </trkpt>
      <trkpt lat="44.23263" lon="6.20571">
        <ele>1459</ele>
        <time>2018-06-08T08:37:46Z</time>
      </trkpt>
      <trkpt lat="44.23264" lon="6.20572">
        <ele>1459</ele>
        <time>2018-06-08T08:37:48Z</time>
      </trkpt>
      <trkpt lat="44.23265" lon="6.20573">
        <ele>1459</ele>
        <time>2018-06-08T08:37:50Z</time>
      </trkpt>
      <trkpt lat="44.23267" lon="6.20575">
        <ele>1459</ele>
        <time>2018-06-08T08:37:57Z</time>
      </trkpt>
      <trkpt lat="44.23268" lon="6.20576">
        <ele>1459</ele>
        <time>2018-06-08T08:37:59Z</time>
      </trkpt>
      <trkpt lat="44.23269" lon="6.20578">
        <ele>1459</ele>
        <time>2018-06-08T08:38:01Z</time>
      </trkpt>
      <trkpt lat="44.2327" lon="6.20579">
        <ele>1459</ele>
        <time>2018-06-08T08:38:02Z</time>
      </trkpt>
      <trkpt lat="44.23271" lon="6.2058">
        <ele>1459</ele>
        <time>2018-06-08T08:38:04Z</time>
      </trkpt>
      <trkpt lat="44.23273" lon="6.20582">
        <ele>1460</ele>
        <time>2018-06-08T08:38:06Z</time>
      </trkpt>
      <trkpt lat="44.23275" lon="6.20583">
        <ele>1460</ele>
        <time>2018-06-08T08:38:08Z</time>
      </trkpt>
      <trkpt lat="44.23276" lon="6.20584">
        <ele>1460</ele>
        <time>2018-06-08T08:38:10Z</time>
      </trkpt>
      <trkpt lat="44.23278" lon="6.20586">
        <ele>1460</ele>
        <time>2018-06-08T08:38:12Z</time>
      </trkpt>
      <trkpt lat="44.23279" lon="6.20588">
        <ele>1460</ele>
        <time>2018-06-08T08:38:14Z</time>
      </trkpt>
      <trkpt lat="44.23281" lon="6.20589">
        <ele>1460</ele>
        <time>2018-06-08T08:38:16Z</time>
      </trkpt>
      <trkpt lat="44.23283" lon="6.20589">
        <ele>1460</ele>
        <time>2018-06-08T08:38:18Z</time>
      </trkpt>
      <trkpt lat="44.23284" lon="6.20589">
        <ele>1461</ele>
        <time>2018-06-08T08:38:20Z</time>
      </trkpt>
      <trkpt lat="44.23286" lon="6.20589">
        <ele>1461</ele>
        <time>2018-06-08T08:38:22Z</time>
      </trkpt>
      <trkpt lat="44.23287" lon="6.20589">
        <ele>1461</ele>
        <time>2018-06-08T08:38:24Z</time>
      </trkpt>
      <trkpt lat="44.23289" lon="6.20588">
        <ele>1461</ele>
        <time>2018-06-08T08:38:26Z</time>
      </trkpt>
      <trkpt lat="44.2329" lon="6.20588">
        <ele>1461</ele>
        <time>2018-06-08T08:38:28Z</time>
      </trkpt>
      <trkpt lat="44.23291" lon="6.20587">
        <ele>1462</ele>
        <time>2018-06-08T08:38:30Z</time>
      </trkpt>
      <trkpt lat="44.23293" lon="6.20588">
        <ele>1462</ele>
        <time>2018-06-08T08:38:32Z</time>
      </trkpt>
      <trkpt lat="44.23294" lon="6.20588">
        <ele>1463</ele>
        <time>2018-06-08T08:38:38Z</time>
      </trkpt>
      <trkpt lat="44.23296" lon="6.20589">
        <ele>1463</ele>
        <time>2018-06-08T08:38:40Z</time>
      </trkpt>
      <trkpt lat="44.23297" lon="6.2059">
        <ele>1463</ele>
        <time>2018-06-08T08:38:42Z</time>
      </trkpt>
      <trkpt lat="44.23299" lon="6.20591">
        <ele>1463</ele>
        <time>2018-06-08T08:38:44Z</time>
      </trkpt>
      <trkpt lat="44.233" lon="6.20592">
        <ele>1463</ele>
        <time>2018-06-08T08:38:46Z</time>
      </trkpt>
      <trkpt lat="44.23302" lon="6.20592">
        <ele>1464</ele>
        <time>2018-06-08T08:38:48Z</time>
      </trkpt>
      <trkpt lat="44.23303" lon="6.20593">
        <ele>1464</ele>
        <time>2018-06-08T08:38:50Z</time>
      </trkpt>
      <trkpt lat="44.23304" lon="6.20593">
        <ele>1464</ele>
        <time>2018-06-08T08:38:52Z</time>
      </trkpt>
      <trkpt lat="44.23306" lon="6.20593">
        <ele>1464</ele>
        <time>2018-06-08T08:38:54Z</time>
      </trkpt>
      <trkpt lat="44.23308" lon="6.20593">
        <ele>1466</ele>
        <time>2018-06-08T08:39:08Z</time>
      </trkpt>
      <trkpt lat="44.23309" lon="6.20594">
        <ele>1466</ele>
        <time>2018-06-08T08:39:10Z</time>
      </trkpt>
      <trkpt lat="44.2331" lon="6.20595">
        <ele>1466</ele>
        <time>2018-06-08T08:39:12Z</time>
      </trkpt>
      <trkpt lat="44.23312" lon="6.20597">
        <ele>1466</ele>
        <time>2018-06-08T08:39:14Z</time>
      </trkpt>
      <trkpt lat="44.23313" lon="6.20598">
        <ele>1466</ele>
        <time>2018-06-08T08:39:16Z</time>
      </trkpt>
      <trkpt lat="44.23314" lon="6.20599">
        <ele>1466</ele>
        <time>2018-06-08T08:39:18Z</time>
      </trkpt>
      <trkpt lat="44.23316" lon="6.206">
        <ele>1466</ele>
        <time>2018-06-08T08:39:20Z</time>
      </trkpt>
      <trkpt lat="44.23317" lon="6.20602">
        <ele>1466</ele>
        <time>2018-06-08T08:39:22Z</time>
      </trkpt>
      <trkpt lat="44.23319" lon="6.20603">
        <ele>1467</ele>
        <time>2018-06-08T08:39:24Z</time>
      </trkpt>
      <trkpt lat="44.2332" lon="6.20604">
        <ele>1467</ele>
        <time>2018-06-08T08:39:26Z</time>
      </trkpt>
      <trkpt lat="44.23321" lon="6.20606">
        <ele>1467</ele>
        <time>2018-06-08T08:39:28Z</time>
      </trkpt>
      <trkpt lat="44.23323" lon="6.20607">
        <ele>1468</ele>
        <time>2018-06-08T08:39:30Z</time>
      </trkpt>
      <trkpt lat="44.23324" lon="6.20608">
        <ele>1468</ele>
        <time>2018-06-08T08:39:32Z</time>
      </trkpt>
      <trkpt lat="44.23326" lon="6.20609">
        <ele>1468</ele>
        <time>2018-06-08T08:39:34Z</time>
      </trkpt>
      <trkpt lat="44.23328" lon="6.2061">
        <ele>1468</ele>
        <time>2018-06-08T08:39:36Z</time>
      </trkpt>
      <trkpt lat="44.23329" lon="6.20612">
        <ele>1468</ele>
        <time>2018-06-08T08:39:38Z</time>
      </trkpt>
      <trkpt lat="44.23331" lon="6.20614">
        <ele>1469</ele>
        <time>2018-06-08T08:39:40Z</time>
      </trkpt>
      <trkpt lat="44.23333" lon="6.20615">
        <ele>1469</ele>
        <time>2018-06-08T08:39:42Z</time>
      </trkpt>
      <trkpt lat="44.23334" lon="6.20617">
        <ele>1469</ele>
        <time>2018-06-08T08:39:44Z</time>
      </trkpt>
      <trkpt lat="44.23336" lon="6.20618">
        <ele>1469</ele>
        <time>2018-06-08T08:39:46Z</time>
      </trkpt>
      <trkpt lat="44.23337" lon="6.20621">
        <ele>1469</ele>
        <time>2018-06-08T08:39:48Z</time>
      </trkpt>
      <trkpt lat="44.23339" lon="6.20622">
        <ele>1469</ele>
        <time>2018-06-08T08:39:50Z</time>
      </trkpt>
      <trkpt lat="44.23341" lon="6.20624">
        <ele>1469</ele>
        <time>2018-06-08T08:39:52Z</time>
      </trkpt>
      <trkpt lat="44.23343" lon="6.20626">
        <ele>1470</ele>
        <time>2018-06-08T08:39:54Z</time>
      </trkpt>
      <trkpt lat="44.23344" lon="6.20628">
        <ele>1470</ele>
        <time>2018-06-08T08:39:56Z</time>
      </trkpt>
      <trkpt lat="44.23346" lon="6.20631">
        <ele>1470</ele>
        <time>2018-06-08T08:39:58Z</time>
      </trkpt>
      <trkpt lat="44.23347" lon="6.20633">
        <ele>1470</ele>
        <time>2018-06-08T08:40:00Z</time>
      </trkpt>
      <trkpt lat="44.23348" lon="6.20634">
        <ele>1470</ele>
        <time>2018-06-08T08:40:03Z</time>
      </trkpt>
      <trkpt lat="44.2335" lon="6.20636">
        <ele>1470</ele>
        <time>2018-06-08T08:40:05Z</time>
      </trkpt>
      <trkpt lat="44.23352" lon="6.20638">
        <ele>1470</ele>
        <time>2018-06-08T08:40:07Z</time>
      </trkpt>
      <trkpt lat="44.23354" lon="6.2064">
        <ele>1470</ele>
        <time>2018-06-08T08:40:09Z</time>
      </trkpt>
      <trkpt lat="44.23355" lon="6.20642">
        <ele>1471</ele>
        <time>2018-06-08T08:40:11Z</time>
      </trkpt>
      <trkpt lat="44.23357" lon="6.20644">
        <ele>1471</ele>
        <time>2018-06-08T08:40:13Z</time>
      </trkpt>
      <trkpt lat="44.23358" lon="6.20645">
        <ele>1471</ele>
        <time>2018-06-08T08:40:14Z</time>
      </trkpt>
      <trkpt lat="44.2336" lon="6.20647">
        <ele>1472</ele>
        <time>2018-06-08T08:40:16Z</time>
      </trkpt>
      <trkpt lat="44.23361" lon="6.20648">
        <ele>1472</ele>
        <time>2018-06-08T08:40:17Z</time>
      </trkpt>
      <trkpt lat="44.23362" lon="6.20649">
        <ele>1472</ele>
        <time>2018-06-08T08:40:18Z</time>
      </trkpt>
      <trkpt lat="44.23364" lon="6.2065">
        <ele>1472</ele>
        <time>2018-06-08T08:40:20Z</time>
      </trkpt>
      <trkpt lat="44.23366" lon="6.20652">
        <ele>1472</ele>
        <time>2018-06-08T08:40:22Z</time>
      </trkpt>
      <trkpt lat="44.23368" lon="6.20654">
        <ele>1472</ele>
        <time>2018-06-08T08:40:24Z</time>
      </trkpt>
      <trkpt lat="44.23369" lon="6.20655">
        <ele>1472</ele>
        <time>2018-06-08T08:40:26Z</time>
      </trkpt>
      <trkpt lat="44.23371" lon="6.20657">
        <ele>1472</ele>
        <time>2018-06-08T08:40:27Z</time>
      </trkpt>
      <trkpt lat="44.23373" lon="6.20659">
        <ele>1473</ele>
        <time>2018-06-08T08:40:29Z</time>
      </trkpt>
      <trkpt lat="44.23374" lon="6.20661">
        <ele>1473</ele>
        <time>2018-06-08T08:40:31Z</time>
      </trkpt>
      <trkpt lat="44.23376" lon="6.20661">
        <ele>1473</ele>
        <time>2018-06-08T08:40:33Z</time>
      </trkpt>
      <trkpt lat="44.23378" lon="6.20663">
        <ele>1473</ele>
        <time>2018-06-08T08:40:35Z</time>
      </trkpt>
      <trkpt lat="44.23379" lon="6.20665">
        <ele>1473</ele>
        <time>2018-06-08T08:40:37Z</time>
      </trkpt>
      <trkpt lat="44.2338" lon="6.20667">
        <ele>1473</ele>
        <time>2018-06-08T08:40:39Z</time>
      </trkpt>
      <trkpt lat="44.23382" lon="6.20669">
        <ele>1473</ele>
        <time>2018-06-08T08:40:41Z</time>
      </trkpt>
      <trkpt lat="44.23384" lon="6.20671">
        <ele>1473</ele>
        <time>2018-06-08T08:40:43Z</time>
      </trkpt>
      <trkpt lat="44.23385" lon="6.20674">
        <ele>1473</ele>
        <time>2018-06-08T08:40:45Z</time>
      </trkpt>
      <trkpt lat="44.23387" lon="6.20676">
        <ele>1473</ele>
        <time>2018-06-08T08:40:47Z</time>
      </trkpt>
      <trkpt lat="44.23388" lon="6.20677">
        <ele>1473</ele>
        <time>2018-06-08T08:40:49Z</time>
      </trkpt>
      <trkpt lat="44.2339" lon="6.20679">
        <ele>1473</ele>
        <time>2018-06-08T08:40:51Z</time>
      </trkpt>
      <trkpt lat="44.23391" lon="6.20681">
        <ele>1474</ele>
        <time>2018-06-08T08:40:53Z</time>
      </trkpt>
      <trkpt lat="44.23393" lon="6.20683">
        <ele>1474</ele>
        <time>2018-06-08T08:40:55Z</time>
      </trkpt>
      <trkpt lat="44.23394" lon="6.20684">
        <ele>1475</ele>
        <time>2018-06-08T08:40:57Z</time>
      </trkpt>
      <trkpt lat="44.23395" lon="6.20686">
        <ele>1475</ele>
        <time>2018-06-08T08:40:59Z</time>
      </trkpt>
      <trkpt lat="44.23397" lon="6.20687">
        <ele>1476</ele>
        <time>2018-06-08T08:41:01Z</time>
      </trkpt>
      <trkpt lat="44.23398" lon="6.20689">
        <ele>1476</ele>
        <time>2018-06-08T08:41:04Z</time>
      </trkpt>
      <trkpt lat="44.23399" lon="6.20691">
        <ele>1476</ele>
        <time>2018-06-08T08:41:06Z</time>
      </trkpt>
      <trkpt lat="44.234" lon="6.20692">
        <ele>1476</ele>
        <time>2018-06-08T08:41:08Z</time>
      </trkpt>
      <trkpt lat="44.23401" lon="6.20694">
        <ele>1477</ele>
        <time>2018-06-08T08:41:10Z</time>
      </trkpt>
      <trkpt lat="44.23402" lon="6.20695">
        <ele>1477</ele>
        <time>2018-06-08T08:41:13Z</time>
      </trkpt>
      <trkpt lat="44.23404" lon="6.20696">
        <ele>1477</ele>
        <time>2018-06-08T08:41:15Z</time>
      </trkpt>
      <trkpt lat="44.23405" lon="6.20698">
        <ele>1477</ele>
        <time>2018-06-08T08:41:17Z</time>
      </trkpt>
      <trkpt lat="44.23407" lon="6.20699">
        <ele>1477</ele>
        <time>2018-06-08T08:41:19Z</time>
      </trkpt>
      <trkpt lat="44.23409" lon="6.207">
        <ele>1478</ele>
        <time>2018-06-08T08:41:21Z</time>
      </trkpt>
      <trkpt lat="44.2341" lon="6.20701">
        <ele>1478</ele>
        <time>2018-06-08T08:41:23Z</time>
      </trkpt>
      <trkpt lat="44.23412" lon="6.20702">
        <ele>1478</ele>
        <time>2018-06-08T08:41:25Z</time>
      </trkpt>
      <trkpt lat="44.23413" lon="6.20704">
        <ele>1478</ele>
        <time>2018-06-08T08:41:27Z</time>
      </trkpt>
      <trkpt lat="44.23414" lon="6.20705">
        <ele>1478</ele>
        <time>2018-06-08T08:41:29Z</time>
      </trkpt>
      <trkpt lat="44.23415" lon="6.20706">
        <ele>1478</ele>
        <time>2018-06-08T08:41:31Z</time>
      </trkpt>
      <trkpt lat="44.23417" lon="6.20707">
        <ele>1478</ele>
        <time>2018-06-08T08:41:33Z</time>
      </trkpt>
      <trkpt lat="44.23418" lon="6.20709">
        <ele>1479</ele>
        <time>2018-06-08T08:41:36Z</time>
      </trkpt>
      <trkpt lat="44.2342" lon="6.2071">
        <ele>1480</ele>
        <time>2018-06-08T08:41:39Z</time>
      </trkpt>
      <trkpt lat="44.23421" lon="6.20712">
        <ele>1480</ele>
        <time>2018-06-08T08:41:42Z</time>
      </trkpt>
      <trkpt lat="44.23423" lon="6.20712">
        <ele>1481</ele>
        <time>2018-06-08T08:41:44Z</time>
      </trkpt>
      <trkpt lat="44.23424" lon="6.20713">
        <ele>1481</ele>
        <time>2018-06-08T08:41:46Z</time>
      </trkpt>
      <trkpt lat="44.23425" lon="6.20714">
        <ele>1481</ele>
        <time>2018-06-08T08:41:48Z</time>
      </trkpt>
      <trkpt lat="44.23426" lon="6.20715">
        <ele>1482</ele>
        <time>2018-06-08T08:41:51Z</time>
      </trkpt>
      <trkpt lat="44.23428" lon="6.20716">
        <ele>1482</ele>
        <time>2018-06-08T08:41:53Z</time>
      </trkpt>
      <trkpt lat="44.2343" lon="6.20718">
        <ele>1483</ele>
        <time>2018-06-08T08:41:56Z</time>
      </trkpt>
      <trkpt lat="44.23431" lon="6.2072">
        <ele>1483</ele>
        <time>2018-06-08T08:41:59Z</time>
      </trkpt>
      <trkpt lat="44.23432" lon="6.20722">
        <ele>1483</ele>
        <time>2018-06-08T08:42:02Z</time>
      </trkpt>
      <trkpt lat="44.23433" lon="6.20724">
        <ele>1484</ele>
        <time>2018-06-08T08:42:05Z</time>
      </trkpt>
      <trkpt lat="44.23434" lon="6.20725">
        <ele>1484</ele>
        <time>2018-06-08T08:42:08Z</time>
      </trkpt>
      <trkpt lat="44.23435" lon="6.20727">
        <ele>1485</ele>
        <time>2018-06-08T08:42:12Z</time>
      </trkpt>
      <trkpt lat="44.23436" lon="6.20728">
        <ele>1486</ele>
        <time>2018-06-08T08:42:16Z</time>
      </trkpt>
      <trkpt lat="44.23438" lon="6.20729">
        <ele>1486</ele>
        <time>2018-06-08T08:42:19Z</time>
      </trkpt>
      <trkpt lat="44.23439" lon="6.2073">
        <ele>1487</ele>
        <time>2018-06-08T08:42:22Z</time>
      </trkpt>
      <trkpt lat="44.2344" lon="6.20731">
        <ele>1487</ele>
        <time>2018-06-08T08:42:26Z</time>
      </trkpt>
      <trkpt lat="44.23441" lon="6.20731">
        <ele>1488</ele>
        <time>2018-06-08T08:42:28Z</time>
      </trkpt>
      <trkpt lat="44.23443" lon="6.20731">
        <ele>1488</ele>
        <time>2018-06-08T08:42:30Z</time>
      </trkpt>
      <trkpt lat="44.23444" lon="6.20732">
        <ele>1488</ele>
        <time>2018-06-08T08:42:33Z</time>
      </trkpt>
      <trkpt lat="44.23445" lon="6.20733">
        <ele>1488</ele>
        <time>2018-06-08T08:42:35Z</time>
      </trkpt>
      <trkpt lat="44.23447" lon="6.20734">
        <ele>1489</ele>
        <time>2018-06-08T08:42:38Z</time>
      </trkpt>
      <trkpt lat="44.23448" lon="6.20735">
        <ele>1489</ele>
        <time>2018-06-08T08:42:40Z</time>
      </trkpt>
      <trkpt lat="44.2345" lon="6.20736">
        <ele>1489</ele>
        <time>2018-06-08T08:42:43Z</time>
      </trkpt>
      <trkpt lat="44.23451" lon="6.20737">
        <ele>1489</ele>
        <time>2018-06-08T08:42:45Z</time>
      </trkpt>
      <trkpt lat="44.23452" lon="6.20738">
        <ele>1489</ele>
        <time>2018-06-08T08:42:48Z</time>
      </trkpt>
      <trkpt lat="44.23454" lon="6.20738">
        <ele>1490</ele>
        <time>2018-06-08T08:42:51Z</time>
      </trkpt>
      <trkpt lat="44.23455" lon="6.20738">
        <ele>1490</ele>
        <time>2018-06-08T08:42:54Z</time>
      </trkpt>
      <trkpt lat="44.23456" lon="6.20739">
        <ele>1490</ele>
        <time>2018-06-08T08:42:57Z</time>
      </trkpt>
      <trkpt lat="44.23457" lon="6.2074">
        <ele>1491</ele>
        <time>2018-06-08T08:43:00Z</time>
      </trkpt>
      <trkpt lat="44.23459" lon="6.20741">
        <ele>1491</ele>
        <time>2018-06-08T08:43:03Z</time>
      </trkpt>
      <trkpt lat="44.2346" lon="6.20741">
        <ele>1492</ele>
        <time>2018-06-08T08:43:06Z</time>
      </trkpt>
      <trkpt lat="44.23461" lon="6.20743">
        <ele>1492</ele>
        <time>2018-06-08T08:43:09Z</time>
      </trkpt>
      <trkpt lat="44.23463" lon="6.20743">
        <ele>1493</ele>
        <time>2018-06-08T08:43:12Z</time>
      </trkpt>
      <trkpt lat="44.23464" lon="6.20744">
        <ele>1493</ele>
        <time>2018-06-08T08:43:15Z</time>
      </trkpt>
      <trkpt lat="44.23466" lon="6.20745">
        <ele>1493</ele>
        <time>2018-06-08T08:43:18Z</time>
      </trkpt>
      <trkpt lat="44.23467" lon="6.20746">
        <ele>1494</ele>
        <time>2018-06-08T08:43:21Z</time>
      </trkpt>
      <trkpt lat="44.23468" lon="6.20746">
        <ele>1495</ele>
        <time>2018-06-08T08:43:25Z</time>
      </trkpt>
      <trkpt lat="44.23469" lon="6.20746">
        <ele>1495</ele>
        <time>2018-06-08T08:43:28Z</time>
      </trkpt>
      <trkpt lat="44.23471" lon="6.20747">
        <ele>1495</ele>
        <time>2018-06-08T08:43:30Z</time>
      </trkpt>
      <trkpt lat="44.23472" lon="6.20748">
        <ele>1496</ele>
        <time>2018-06-08T08:43:32Z</time>
      </trkpt>
      <trkpt lat="44.23473" lon="6.20748">
        <ele>1497</ele>
        <time>2018-06-08T08:43:35Z</time>
      </trkpt>
      <trkpt lat="44.23475" lon="6.20749">
        <ele>1497</ele>
        <time>2018-06-08T08:43:38Z</time>
      </trkpt>
      <trkpt lat="44.23476" lon="6.20751">
        <ele>1498</ele>
        <time>2018-06-08T08:43:41Z</time>
      </trkpt>
      <trkpt lat="44.23477" lon="6.20751">
        <ele>1498</ele>
        <time>2018-06-08T08:43:44Z</time>
      </trkpt>
      <trkpt lat="44.23478" lon="6.20752">
        <ele>1499</ele>
        <time>2018-06-08T08:43:47Z</time>
      </trkpt>
      <trkpt lat="44.23479" lon="6.20753">
        <ele>1499</ele>
        <time>2018-06-08T08:43:50Z</time>
      </trkpt>
      <trkpt lat="44.23481" lon="6.20754">
        <ele>1500</ele>
        <time>2018-06-08T08:43:54Z</time>
      </trkpt>
      <trkpt lat="44.23482" lon="6.20754">
        <ele>1500</ele>
        <time>2018-06-08T08:43:56Z</time>
      </trkpt>
      <trkpt lat="44.23484" lon="6.20754">
        <ele>1500</ele>
        <time>2018-06-08T08:43:58Z</time>
      </trkpt>
      <trkpt lat="44.23485" lon="6.20754">
        <ele>1500</ele>
        <time>2018-06-08T08:44:00Z</time>
      </trkpt>
      <trkpt lat="44.23486" lon="6.20754">
        <ele>1500</ele>
        <time>2018-06-08T08:44:02Z</time>
      </trkpt>
      <trkpt lat="44.23488" lon="6.20754">
        <ele>1501</ele>
        <time>2018-06-08T08:44:04Z</time>
      </trkpt>
      <trkpt lat="44.23489" lon="6.20754">
        <ele>1501</ele>
        <time>2018-06-08T08:44:06Z</time>
      </trkpt>
      <trkpt lat="44.23491" lon="6.20753">
        <ele>1501</ele>
        <time>2018-06-08T08:44:08Z</time>
      </trkpt>
      <trkpt lat="44.23492" lon="6.20753">
        <ele>1501</ele>
        <time>2018-06-08T08:44:10Z</time>
      </trkpt>
      <trkpt lat="44.23494" lon="6.20753">
        <ele>1501</ele>
        <time>2018-06-08T08:44:12Z</time>
      </trkpt>
      <trkpt lat="44.23495" lon="6.20753">
        <ele>1501</ele>
        <time>2018-06-08T08:44:14Z</time>
      </trkpt>
      <trkpt lat="44.23496" lon="6.20753">
        <ele>1501</ele>
        <time>2018-06-08T08:44:16Z</time>
      </trkpt>
      <trkpt lat="44.23497" lon="6.20753">
        <ele>1501</ele>
        <time>2018-06-08T08:44:18Z</time>
      </trkpt>
      <trkpt lat="44.23499" lon="6.20754">
        <ele>1501</ele>
        <time>2018-06-08T08:44:20Z</time>
      </trkpt>
      <trkpt lat="44.235" lon="6.20754">
        <ele>1502</ele>
        <time>2018-06-08T08:44:23Z</time>
      </trkpt>
      <trkpt lat="44.23502" lon="6.20753">
        <ele>1502</ele>
        <time>2018-06-08T08:44:26Z</time>
      </trkpt>
      <trkpt lat="44.23503" lon="6.20753">
        <ele>1502</ele>
        <time>2018-06-08T08:44:28Z</time>
      </trkpt>
      <trkpt lat="44.23504" lon="6.20752">
        <ele>1502</ele>
        <time>2018-06-08T08:44:30Z</time>
      </trkpt>
      <trkpt lat="44.23506" lon="6.20752">
        <ele>1503</ele>
        <time>2018-06-08T08:44:32Z</time>
      </trkpt>
      <trkpt lat="44.23507" lon="6.20752">
        <ele>1503</ele>
        <time>2018-06-08T08:44:34Z</time>
      </trkpt>
      <trkpt lat="44.23509" lon="6.20752">
        <ele>1504</ele>
        <time>2018-06-08T08:44:37Z</time>
      </trkpt>
      <trkpt lat="44.2351" lon="6.20752">
        <ele>1504</ele>
        <time>2018-06-08T08:44:39Z</time>
      </trkpt>
      <trkpt lat="44.23511" lon="6.20753">
        <ele>1505</ele>
        <time>2018-06-08T08:44:41Z</time>
      </trkpt>
      <trkpt lat="44.23513" lon="6.20753">
        <ele>1505</ele>
        <time>2018-06-08T08:44:43Z</time>
      </trkpt>
      <trkpt lat="44.23514" lon="6.20754">
        <ele>1505</ele>
        <time>2018-06-08T08:44:45Z</time>
      </trkpt>
      <trkpt lat="44.23515" lon="6.20755">
        <ele>1506</ele>
        <time>2018-06-08T08:44:48Z</time>
      </trkpt>
      <trkpt lat="44.23517" lon="6.20757">
        <ele>1506</ele>
        <time>2018-06-08T08:44:51Z</time>
      </trkpt>
      <trkpt lat="44.23518" lon="6.20758">
        <ele>1507</ele>
        <time>2018-06-08T08:44:54Z</time>
      </trkpt>
      <trkpt lat="44.23519" lon="6.20759">
        <ele>1507</ele>
        <time>2018-06-08T08:44:57Z</time>
      </trkpt>
      <trkpt lat="44.23521" lon="6.20759">
        <ele>1507</ele>
        <time>2018-06-08T08:44:59Z</time>
      </trkpt>
      <trkpt lat="44.23522" lon="6.20759">
        <ele>1508</ele>
        <time>2018-06-08T08:45:01Z</time>
      </trkpt>
      <trkpt lat="44.23523" lon="6.20759">
        <ele>1508</ele>
        <time>2018-06-08T08:45:03Z</time>
      </trkpt>
      <trkpt lat="44.23525" lon="6.20759">
        <ele>1509</ele>
        <time>2018-06-08T08:45:05Z</time>
      </trkpt>
      <trkpt lat="44.23526" lon="6.20759">
        <ele>1509</ele>
        <time>2018-06-08T08:45:07Z</time>
      </trkpt>
      <trkpt lat="44.23528" lon="6.20759">
        <ele>1509</ele>
        <time>2018-06-08T08:45:09Z</time>
      </trkpt>
      <trkpt lat="44.23529" lon="6.20759">
        <ele>1510</ele>
        <time>2018-06-08T08:45:11Z</time>
      </trkpt>
      <trkpt lat="44.2353" lon="6.20758">
        <ele>1510</ele>
        <time>2018-06-08T08:45:13Z</time>
      </trkpt>
      <trkpt lat="44.23532" lon="6.20759">
        <ele>1510</ele>
        <time>2018-06-08T08:45:15Z</time>
      </trkpt>
      <trkpt lat="44.23534" lon="6.20759">
        <ele>1511</ele>
        <time>2018-06-08T08:45:17Z</time>
      </trkpt>
      <trkpt lat="44.23535" lon="6.20759">
        <ele>1511</ele>
        <time>2018-06-08T08:45:19Z</time>
      </trkpt>
      <trkpt lat="44.23536" lon="6.20759">
        <ele>1511</ele>
        <time>2018-06-08T08:45:21Z</time>
      </trkpt>
      <trkpt lat="44.23538" lon="6.2076">
        <ele>1511</ele>
        <time>2018-06-08T08:45:23Z</time>
      </trkpt>
      <trkpt lat="44.23539" lon="6.2076">
        <ele>1512</ele>
        <time>2018-06-08T08:45:25Z</time>
      </trkpt>
      <trkpt lat="44.2354" lon="6.20761">
        <ele>1512</ele>
        <time>2018-06-08T08:45:27Z</time>
      </trkpt>
      <trkpt lat="44.23542" lon="6.20761">
        <ele>1512</ele>
        <time>2018-06-08T08:45:29Z</time>
      </trkpt>
      <trkpt lat="44.23543" lon="6.20761">
        <ele>1512</ele>
        <time>2018-06-08T08:45:31Z</time>
      </trkpt>
      <trkpt lat="44.23545" lon="6.20761">
        <ele>1513</ele>
        <time>2018-06-08T08:45:33Z</time>
      </trkpt>
      <trkpt lat="44.23546" lon="6.20761">
        <ele>1513</ele>
        <time>2018-06-08T08:45:35Z</time>
      </trkpt>
      <trkpt lat="44.23548" lon="6.2076">
        <ele>1513</ele>
        <time>2018-06-08T08:45:37Z</time>
      </trkpt>
      <trkpt lat="44.23549" lon="6.20761">
        <ele>1513</ele>
        <time>2018-06-08T08:45:40Z</time>
      </trkpt>
      <trkpt lat="44.2355" lon="6.20762">
        <ele>1513</ele>
        <time>2018-06-08T08:45:42Z</time>
      </trkpt>
      <trkpt lat="44.23552" lon="6.20762">
        <ele>1513</ele>
        <time>2018-06-08T08:45:44Z</time>
      </trkpt>
      <trkpt lat="44.23552" lon="6.20764">
        <ele>1513</ele>
        <time>2018-06-08T08:45:48Z</time>
      </trkpt>
      <trkpt lat="44.23553" lon="6.20766">
        <ele>1513</ele>
        <time>2018-06-08T08:45:51Z</time>
      </trkpt>
      <trkpt lat="44.23554" lon="6.20766">
        <ele>1513</ele>
        <time>2018-06-08T08:45:54Z</time>
      </trkpt>
      <trkpt lat="44.23555" lon="6.20769">
        <ele>1514</ele>
        <time>2018-06-08T08:45:58Z</time>
      </trkpt>
      <trkpt lat="44.23556" lon="6.2077">
        <ele>1514</ele>
        <time>2018-06-08T08:46:00Z</time>
      </trkpt>
      <trkpt lat="44.23556" lon="6.20772">
        <ele>1514</ele>
        <time>2018-06-08T08:46:02Z</time>
      </trkpt>
      <trkpt lat="44.23557" lon="6.20774">
        <ele>1514</ele>
        <time>2018-06-08T08:46:04Z</time>
      </trkpt>
      <trkpt lat="44.23558" lon="6.20776">
        <ele>1514</ele>
        <time>2018-06-08T08:46:07Z</time>
      </trkpt>
      <trkpt lat="44.23559" lon="6.20777">
        <ele>1514</ele>
        <time>2018-06-08T08:46:10Z</time>
      </trkpt>
      <trkpt lat="44.2356" lon="6.20779">
        <ele>1514</ele>
        <time>2018-06-08T08:46:12Z</time>
      </trkpt>
      <trkpt lat="44.23561" lon="6.20781">
        <ele>1514</ele>
        <time>2018-06-08T08:46:14Z</time>
      </trkpt>
      <trkpt lat="44.23563" lon="6.20783">
        <ele>1515</ele>
        <time>2018-06-08T08:46:16Z</time>
      </trkpt>
      <trkpt lat="44.23564" lon="6.20784">
        <ele>1515</ele>
        <time>2018-06-08T08:46:18Z</time>
      </trkpt>
      <trkpt lat="44.23565" lon="6.20786">
        <ele>1516</ele>
        <time>2018-06-08T08:46:21Z</time>
      </trkpt>
      <trkpt lat="44.23566" lon="6.20787">
        <ele>1517</ele>
        <time>2018-06-08T08:46:23Z</time>
      </trkpt>
      <trkpt lat="44.23568" lon="6.20789">
        <ele>1517</ele>
        <time>2018-06-08T08:46:25Z</time>
      </trkpt>
      <trkpt lat="44.23569" lon="6.2079">
        <ele>1518</ele>
        <time>2018-06-08T08:46:27Z</time>
      </trkpt>
      <trkpt lat="44.2357" lon="6.20791">
        <ele>1518</ele>
        <time>2018-06-08T08:46:29Z</time>
      </trkpt>
      <trkpt lat="44.23572" lon="6.20792">
        <ele>1519</ele>
        <time>2018-06-08T08:46:31Z</time>
      </trkpt>
      <trkpt lat="44.23573" lon="6.20793">
        <ele>1519</ele>
        <time>2018-06-08T08:46:34Z</time>
      </trkpt>
      <trkpt lat="44.23574" lon="6.20794">
        <ele>1520</ele>
        <time>2018-06-08T08:46:36Z</time>
      </trkpt>
      <trkpt lat="44.23576" lon="6.20795">
        <ele>1520</ele>
        <time>2018-06-08T08:46:38Z</time>
      </trkpt>
      <trkpt lat="44.23578" lon="6.20795">
        <ele>1521</ele>
        <time>2018-06-08T08:46:40Z</time>
      </trkpt>
      <trkpt lat="44.23579" lon="6.20796">
        <ele>1521</ele>
        <time>2018-06-08T08:46:42Z</time>
      </trkpt>
      <trkpt lat="44.23581" lon="6.20797">
        <ele>1522</ele>
        <time>2018-06-08T08:46:44Z</time>
      </trkpt>
      <trkpt lat="44.23583" lon="6.20798">
        <ele>1522</ele>
        <time>2018-06-08T08:46:46Z</time>
      </trkpt>
      <trkpt lat="44.23584" lon="6.20798">
        <ele>1523</ele>
        <time>2018-06-08T08:46:48Z</time>
      </trkpt>
      <trkpt lat="44.23585" lon="6.20799">
        <ele>1523</ele>
        <time>2018-06-08T08:46:50Z</time>
      </trkpt>
      <trkpt lat="44.23587" lon="6.20801">
        <ele>1523</ele>
        <time>2018-06-08T08:46:53Z</time>
      </trkpt>
      <trkpt lat="44.23587" lon="6.20802">
        <ele>1523</ele>
        <time>2018-06-08T08:46:55Z</time>
      </trkpt>
      <trkpt lat="44.23588" lon="6.20804">
        <ele>1523</ele>
        <time>2018-06-08T08:46:57Z</time>
      </trkpt>
      <trkpt lat="44.23589" lon="6.20806">
        <ele>1523</ele>
        <time>2018-06-08T08:46:59Z</time>
      </trkpt>
      <trkpt lat="44.2359" lon="6.20807">
        <ele>1524</ele>
        <time>2018-06-08T08:47:09Z</time>
      </trkpt>
      <trkpt lat="44.23591" lon="6.20809">
        <ele>1526</ele>
        <time>2018-06-08T08:47:23Z</time>
      </trkpt>
      <trkpt lat="44.2359" lon="6.20809">
        <ele>1527</ele>
        <time>2018-06-08T08:47:50Z</time>
      </trkpt>
      <trkpt lat="44.23589" lon="6.20807">
        <ele>1527</ele>
        <time>2018-06-08T08:47:57Z</time>
      </trkpt>
      <trkpt lat="44.23589" lon="6.20809">
        <ele>1527</ele>
        <time>2018-06-08T08:48:17Z</time>
      </trkpt>
      <trkpt lat="44.2359" lon="6.20811">
        <ele>1527</ele>
        <time>2018-06-08T08:48:21Z</time>
      </trkpt>
      <trkpt lat="44.2359" lon="6.20813">
        <ele>1527</ele>
        <time>2018-06-08T08:48:26Z</time>
      </trkpt>
      <trkpt lat="44.2359" lon="6.20811">
        <ele>1527</ele>
        <time>2018-06-08T08:48:31Z</time>
      </trkpt>
      <trkpt lat="44.23591" lon="6.20813">
        <ele>1527</ele>
        <time>2018-06-08T08:48:45Z</time>
      </trkpt>
      <trkpt lat="44.23591" lon="6.20814">
        <ele>1527</ele>
        <time>2018-06-08T08:48:52Z</time>
      </trkpt>
      <trkpt lat="44.23592" lon="6.20813">
        <ele>1529</ele>
        <time>2018-06-08T08:49:11Z</time>
      </trkpt>
      <trkpt lat="44.23592" lon="6.20811">
        <ele>1529</ele>
        <time>2018-06-08T08:49:25Z</time>
      </trkpt>
      <trkpt lat="44.23592" lon="6.2081">
        <ele>1529</ele>
        <time>2018-06-08T08:50:23Z</time>
      </trkpt>
      <trkpt lat="44.23593" lon="6.2081">
        <ele>1529</ele>
        <time>2018-06-08T08:50:45Z</time>
      </trkpt>
      <trkpt lat="44.23592" lon="6.2081">
        <ele>1530</ele>
        <time>2018-06-08T08:51:15Z</time>
      </trkpt>
      <trkpt lat="44.23591" lon="6.20809">
        <ele>1530</ele>
        <time>2018-06-08T08:51:44Z</time>
      </trkpt>
      <trkpt lat="44.23592" lon="6.20807">
        <ele>1530</ele>
        <time>2018-06-08T08:51:48Z</time>
      </trkpt>
      <trkpt lat="44.23592" lon="6.20805">
        <ele>1530</ele>
        <time>2018-06-08T08:51:50Z</time>
      </trkpt>
      <trkpt lat="44.23592" lon="6.20803">
        <ele>1530</ele>
        <time>2018-06-08T08:51:59Z</time>
      </trkpt>
      <trkpt lat="44.23593" lon="6.20801">
        <ele>1530</ele>
        <time>2018-06-08T08:52:02Z</time>
      </trkpt>
      <trkpt lat="44.23594" lon="6.20799">
        <ele>1530</ele>
        <time>2018-06-08T08:52:04Z</time>
      </trkpt>
      <trkpt lat="44.23594" lon="6.20801">
        <ele>1530</ele>
        <time>2018-06-08T08:52:14Z</time>
      </trkpt>
      <trkpt lat="44.23594" lon="6.20804">
        <ele>1530</ele>
        <time>2018-06-08T08:52:16Z</time>
      </trkpt>
      <trkpt lat="44.23593" lon="6.20806">
        <ele>1530</ele>
        <time>2018-06-08T08:52:18Z</time>
      </trkpt>
      <trkpt lat="44.23593" lon="6.20808">
        <ele>1530</ele>
        <time>2018-06-08T08:52:20Z</time>
      </trkpt>
      <trkpt lat="44.23592" lon="6.20809">
        <ele>1530</ele>
        <time>2018-06-08T08:52:34Z</time>
      </trkpt>
      <trkpt lat="44.23594" lon="6.2081">
        <ele>1530</ele>
        <time>2018-06-08T08:53:01Z</time>
      </trkpt>
      <trkpt lat="44.23594" lon="6.20812">
        <ele>1530</ele>
        <time>2018-06-08T08:53:14Z</time>
      </trkpt>
      <trkpt lat="44.23595" lon="6.20815">
        <ele>1530</ele>
        <time>2018-06-08T08:53:16Z</time>
      </trkpt>
      <trkpt lat="44.23595" lon="6.20817">
        <ele>1530</ele>
        <time>2018-06-08T08:53:18Z</time>
      </trkpt>
      <trkpt lat="44.23595" lon="6.20819">
        <ele>1530</ele>
        <time>2018-06-08T08:53:20Z</time>
      </trkpt>
      <trkpt lat="44.23595" lon="6.20822">
        <ele>1530</ele>
        <time>2018-06-08T08:53:22Z</time>
      </trkpt>
      <trkpt lat="44.23596" lon="6.20824">
        <ele>1530</ele>
        <time>2018-06-08T08:53:24Z</time>
      </trkpt>
      <trkpt lat="44.23596" lon="6.20826">
        <ele>1530</ele>
        <time>2018-06-08T08:53:25Z</time>
      </trkpt>
      <trkpt lat="44.23597" lon="6.20828">
        <ele>1530</ele>
        <time>2018-06-08T08:53:27Z</time>
      </trkpt>
      <trkpt lat="44.23597" lon="6.2083">
        <ele>1530</ele>
        <time>2018-06-08T08:53:28Z</time>
      </trkpt>
      <trkpt lat="44.23597" lon="6.20832">
        <ele>1530</ele>
        <time>2018-06-08T08:53:30Z</time>
      </trkpt>
      <trkpt lat="44.23598" lon="6.20835">
        <ele>1530</ele>
        <time>2018-06-08T08:53:32Z</time>
      </trkpt>
      <trkpt lat="44.23599" lon="6.20837">
        <ele>1530</ele>
        <time>2018-06-08T08:53:34Z</time>
      </trkpt>
      <trkpt lat="44.236" lon="6.2084">
        <ele>1530</ele>
        <time>2018-06-08T08:53:36Z</time>
      </trkpt>
      <trkpt lat="44.236" lon="6.20842">
        <ele>1530</ele>
        <time>2018-06-08T08:53:38Z</time>
      </trkpt>
      <trkpt lat="44.23602" lon="6.20844">
        <ele>1530</ele>
        <time>2018-06-08T08:53:40Z</time>
      </trkpt>
      <trkpt lat="44.23603" lon="6.20847">
        <ele>1530</ele>
        <time>2018-06-08T08:53:42Z</time>
      </trkpt>
      <trkpt lat="44.23604" lon="6.20848">
        <ele>1530</ele>
        <time>2018-06-08T08:53:44Z</time>
      </trkpt>
      <trkpt lat="44.23605" lon="6.2085">
        <ele>1530</ele>
        <time>2018-06-08T08:53:46Z</time>
      </trkpt>
      <trkpt lat="44.23606" lon="6.20851">
        <ele>1530</ele>
        <time>2018-06-08T08:53:48Z</time>
      </trkpt>
      <trkpt lat="44.23607" lon="6.20853">
        <ele>1530</ele>
        <time>2018-06-08T08:53:51Z</time>
      </trkpt>
      <trkpt lat="44.23608" lon="6.20855">
        <ele>1530</ele>
        <time>2018-06-08T08:53:54Z</time>
      </trkpt>
      <trkpt lat="44.23609" lon="6.20857">
        <ele>1530</ele>
        <time>2018-06-08T08:53:57Z</time>
      </trkpt>
      <trkpt lat="44.2361" lon="6.20859">
        <ele>1530</ele>
        <time>2018-06-08T08:54:00Z</time>
      </trkpt>
      <trkpt lat="44.2361" lon="6.2086">
        <ele>1530</ele>
        <time>2018-06-08T08:54:02Z</time>
      </trkpt>
      <trkpt lat="44.2361" lon="6.20862">
        <ele>1530</ele>
        <time>2018-06-08T08:54:04Z</time>
      </trkpt>
      <trkpt lat="44.2361" lon="6.20865">
        <ele>1530</ele>
        <time>2018-06-08T08:54:06Z</time>
      </trkpt>
      <trkpt lat="44.2361" lon="6.20867">
        <ele>1530</ele>
        <time>2018-06-08T08:54:08Z</time>
      </trkpt>
      <trkpt lat="44.23609" lon="6.20869">
        <ele>1530</ele>
        <time>2018-06-08T08:54:10Z</time>
      </trkpt>
      <trkpt lat="44.23609" lon="6.2087">
        <ele>1530</ele>
        <time>2018-06-08T08:54:12Z</time>
      </trkpt>
      <trkpt lat="44.23608" lon="6.20872">
        <ele>1530</ele>
        <time>2018-06-08T08:54:14Z</time>
      </trkpt>
      <trkpt lat="44.23607" lon="6.20873">
        <ele>1530</ele>
        <time>2018-06-08T08:54:16Z</time>
      </trkpt>
      <trkpt lat="44.23607" lon="6.20875">
        <ele>1530</ele>
        <time>2018-06-08T08:54:18Z</time>
      </trkpt>
      <trkpt lat="44.23607" lon="6.20877">
        <ele>1530</ele>
        <time>2018-06-08T08:54:20Z</time>
      </trkpt>
      <trkpt lat="44.23607" lon="6.20878">
        <ele>1530</ele>
        <time>2018-06-08T08:54:22Z</time>
      </trkpt>
      <trkpt lat="44.23608" lon="6.2088">
        <ele>1530</ele>
        <time>2018-06-08T08:54:25Z</time>
      </trkpt>
      <trkpt lat="44.23608" lon="6.20882">
        <ele>1530</ele>
        <time>2018-06-08T08:54:28Z</time>
      </trkpt>
      <trkpt lat="44.23608" lon="6.20884">
        <ele>1531</ele>
        <time>2018-06-08T08:54:31Z</time>
      </trkpt>
      <trkpt lat="44.23608" lon="6.20885">
        <ele>1535</ele>
        <time>2018-06-08T08:54:36Z</time>
      </trkpt>
      <trkpt lat="44.23607" lon="6.20887">
        <ele>1537</ele>
        <time>2018-06-08T08:54:38Z</time>
      </trkpt>
      <trkpt lat="44.23606" lon="6.20889">
        <ele>1537</ele>
        <time>2018-06-08T08:54:40Z</time>
      </trkpt>
      <trkpt lat="44.23606" lon="6.20891">
        <ele>1538</ele>
        <time>2018-06-08T08:54:42Z</time>
      </trkpt>
      <trkpt lat="44.23605" lon="6.20893">
        <ele>1538</ele>
        <time>2018-06-08T08:54:44Z</time>
      </trkpt>
      <trkpt lat="44.23604" lon="6.20895">
        <ele>1538</ele>
        <time>2018-06-08T08:54:46Z</time>
      </trkpt>
      <trkpt lat="44.23603" lon="6.20895">
        <ele>1538</ele>
        <time>2018-06-08T08:54:48Z</time>
      </trkpt>
      <trkpt lat="44.23601" lon="6.20895">
        <ele>1538</ele>
        <time>2018-06-08T08:54:52Z</time>
      </trkpt>
      <trkpt lat="44.236" lon="6.20893">
        <ele>1540</ele>
        <time>2018-06-08T08:54:57Z</time>
      </trkpt>
      <trkpt lat="44.23598" lon="6.20893">
        <ele>1541</ele>
        <time>2018-06-08T08:55:00Z</time>
      </trkpt>
      <trkpt lat="44.23596" lon="6.20893">
        <ele>1542</ele>
        <time>2018-06-08T08:55:02Z</time>
      </trkpt>
      <trkpt lat="44.23595" lon="6.20893">
        <ele>1544</ele>
        <time>2018-06-08T08:55:05Z</time>
      </trkpt>
      <trkpt lat="44.23594" lon="6.20894">
        <ele>1545</ele>
        <time>2018-06-08T08:55:07Z</time>
      </trkpt>
      <trkpt lat="44.23592" lon="6.20895">
        <ele>1546</ele>
        <time>2018-06-08T08:55:09Z</time>
      </trkpt>
      <trkpt lat="44.23591" lon="6.20895">
        <ele>1546</ele>
        <time>2018-06-08T08:55:11Z</time>
      </trkpt>
      <trkpt lat="44.23589" lon="6.20895">
        <ele>1546</ele>
        <time>2018-06-08T08:55:14Z</time>
      </trkpt>
      <trkpt lat="44.23588" lon="6.20894">
        <ele>1546</ele>
        <time>2018-06-08T08:55:17Z</time>
      </trkpt>
      <trkpt lat="44.23586" lon="6.20894">
        <ele>1546</ele>
        <time>2018-06-08T08:55:19Z</time>
      </trkpt>
      <trkpt lat="44.23585" lon="6.20894">
        <ele>1546</ele>
        <time>2018-06-08T08:55:22Z</time>
      </trkpt>
      <trkpt lat="44.23583" lon="6.20895">
        <ele>1546</ele>
        <time>2018-06-08T08:55:26Z</time>
      </trkpt>
      <trkpt lat="44.23582" lon="6.20896">
        <ele>1546</ele>
        <time>2018-06-08T08:55:28Z</time>
      </trkpt>
      <trkpt lat="44.23581" lon="6.20896">
        <ele>1547</ele>
        <time>2018-06-08T08:55:31Z</time>
      </trkpt>
      <trkpt lat="44.23579" lon="6.20895">
        <ele>1548</ele>
        <time>2018-06-08T08:55:35Z</time>
      </trkpt>
      <trkpt lat="44.23578" lon="6.20894">
        <ele>1548</ele>
        <time>2018-06-08T08:55:39Z</time>
      </trkpt>
      <trkpt lat="44.23576" lon="6.20894">
        <ele>1548</ele>
        <time>2018-06-08T08:55:41Z</time>
      </trkpt>
      <trkpt lat="44.23575" lon="6.20893">
        <ele>1548</ele>
        <time>2018-06-08T08:55:44Z</time>
      </trkpt>
      <trkpt lat="44.23574" lon="6.20893">
        <ele>1548</ele>
        <time>2018-06-08T08:55:47Z</time>
      </trkpt>
      <trkpt lat="44.23572" lon="6.20893">
        <ele>1548</ele>
        <time>2018-06-08T08:55:50Z</time>
      </trkpt>
      <trkpt lat="44.23571" lon="6.20894">
        <ele>1548</ele>
        <time>2018-06-08T08:55:52Z</time>
      </trkpt>
      <trkpt lat="44.23569" lon="6.20895">
        <ele>1548</ele>
        <time>2018-06-08T08:55:54Z</time>
      </trkpt>
      <trkpt lat="44.23567" lon="6.20896">
        <ele>1548</ele>
        <time>2018-06-08T08:55:56Z</time>
      </trkpt>
      <trkpt lat="44.23565" lon="6.20896">
        <ele>1548</ele>
        <time>2018-06-08T08:55:58Z</time>
      </trkpt>
      <trkpt lat="44.23564" lon="6.20897">
        <ele>1548</ele>
        <time>2018-06-08T08:56:00Z</time>
      </trkpt>
      <trkpt lat="44.23563" lon="6.20899">
        <ele>1548</ele>
        <time>2018-06-08T08:56:02Z</time>
      </trkpt>
      <trkpt lat="44.23563" lon="6.20901">
        <ele>1548</ele>
        <time>2018-06-08T08:56:04Z</time>
      </trkpt>
      <trkpt lat="44.23563" lon="6.20903">
        <ele>1548</ele>
        <time>2018-06-08T08:56:06Z</time>
      </trkpt>
      <trkpt lat="44.23563" lon="6.20905">
        <ele>1548</ele>
        <time>2018-06-08T08:56:08Z</time>
      </trkpt>
      <trkpt lat="44.23563" lon="6.20907">
        <ele>1548</ele>
        <time>2018-06-08T08:56:10Z</time>
      </trkpt>
      <trkpt lat="44.23563" lon="6.20908">
        <ele>1548</ele>
        <time>2018-06-08T08:56:12Z</time>
      </trkpt>
      <trkpt lat="44.23563" lon="6.2091">
        <ele>1548</ele>
        <time>2018-06-08T08:56:14Z</time>
      </trkpt>
      <trkpt lat="44.23563" lon="6.20911">
        <ele>1548</ele>
        <time>2018-06-08T08:56:16Z</time>
      </trkpt>
      <trkpt lat="44.23564" lon="6.20913">
        <ele>1548</ele>
        <time>2018-06-08T08:56:18Z</time>
      </trkpt>
      <trkpt lat="44.23565" lon="6.20915">
        <ele>1548</ele>
        <time>2018-06-08T08:56:20Z</time>
      </trkpt>
      <trkpt lat="44.23566" lon="6.20917">
        <ele>1548</ele>
        <time>2018-06-08T08:56:23Z</time>
      </trkpt>
      <trkpt lat="44.23566" lon="6.20919">
        <ele>1548</ele>
        <time>2018-06-08T08:56:25Z</time>
      </trkpt>
      <trkpt lat="44.23566" lon="6.20922">
        <ele>1548</ele>
        <time>2018-06-08T08:56:28Z</time>
      </trkpt>
      <trkpt lat="44.23566" lon="6.20924">
        <ele>1548</ele>
        <time>2018-06-08T08:56:30Z</time>
      </trkpt>
      <trkpt lat="44.23566" lon="6.20926">
        <ele>1548</ele>
        <time>2018-06-08T08:56:32Z</time>
      </trkpt>
      <trkpt lat="44.23564" lon="6.20927">
        <ele>1549</ele>
        <time>2018-06-08T08:56:34Z</time>
      </trkpt>
      <trkpt lat="44.23562" lon="6.20928">
        <ele>1550</ele>
        <time>2018-06-08T08:56:36Z</time>
      </trkpt>
      <trkpt lat="44.23561" lon="6.2093">
        <ele>1550</ele>
        <time>2018-06-08T08:56:38Z</time>
      </trkpt>
      <trkpt lat="44.23561" lon="6.20932">
        <ele>1550</ele>
        <time>2018-06-08T08:56:40Z</time>
      </trkpt>
      <trkpt lat="44.2356" lon="6.20934">
        <ele>1550</ele>
        <time>2018-06-08T08:56:41Z</time>
      </trkpt>
      <trkpt lat="44.2356" lon="6.20936">
        <ele>1550</ele>
        <time>2018-06-08T08:56:43Z</time>
      </trkpt>
      <trkpt lat="44.2356" lon="6.20938">
        <ele>1550</ele>
        <time>2018-06-08T08:56:45Z</time>
      </trkpt>
      <trkpt lat="44.23559" lon="6.20941">
        <ele>1550</ele>
        <time>2018-06-08T08:56:47Z</time>
      </trkpt>
      <trkpt lat="44.23559" lon="6.20943">
        <ele>1550</ele>
        <time>2018-06-08T08:56:48Z</time>
      </trkpt>
      <trkpt lat="44.23558" lon="6.20946">
        <ele>1550</ele>
        <time>2018-06-08T08:56:50Z</time>
      </trkpt>
      <trkpt lat="44.23558" lon="6.20947">
        <ele>1550</ele>
        <time>2018-06-08T08:56:51Z</time>
      </trkpt>
      <trkpt lat="44.23558" lon="6.20949">
        <ele>1550</ele>
        <time>2018-06-08T08:56:52Z</time>
      </trkpt>
      <trkpt lat="44.23558" lon="6.2095">
        <ele>1550</ele>
        <time>2018-06-08T08:56:53Z</time>
      </trkpt>
      <trkpt lat="44.23558" lon="6.20952">
        <ele>1550</ele>
        <time>2018-06-08T08:56:54Z</time>
      </trkpt>
      <trkpt lat="44.23557" lon="6.20954">
        <ele>1550</ele>
        <time>2018-06-08T08:56:56Z</time>
      </trkpt>
      <trkpt lat="44.23557" lon="6.20956">
        <ele>1550</ele>
        <time>2018-06-08T08:56:57Z</time>
      </trkpt>
      <trkpt lat="44.23557" lon="6.20957">
        <ele>1550</ele>
        <time>2018-06-08T08:56:58Z</time>
      </trkpt>
      <trkpt lat="44.23557" lon="6.2096">
        <ele>1550</ele>
        <time>2018-06-08T08:57:00Z</time>
      </trkpt>
      <trkpt lat="44.23557" lon="6.20962">
        <ele>1550</ele>
        <time>2018-06-08T08:57:01Z</time>
      </trkpt>
      <trkpt lat="44.23556" lon="6.20963">
        <ele>1550</ele>
        <time>2018-06-08T08:57:02Z</time>
      </trkpt>
      <trkpt lat="44.23556" lon="6.20966">
        <ele>1550</ele>
        <time>2018-06-08T08:57:04Z</time>
      </trkpt>
      <trkpt lat="44.23556" lon="6.20967">
        <ele>1550</ele>
        <time>2018-06-08T08:57:05Z</time>
      </trkpt>
      <trkpt lat="44.23555" lon="6.20969">
        <ele>1550</ele>
        <time>2018-06-08T08:57:06Z</time>
      </trkpt>
      <trkpt lat="44.23555" lon="6.2097">
        <ele>1550</ele>
        <time>2018-06-08T08:57:07Z</time>
      </trkpt>
      <trkpt lat="44.23555" lon="6.20972">
        <ele>1550</ele>
        <time>2018-06-08T08:57:08Z</time>
      </trkpt>
      <trkpt lat="44.23554" lon="6.20975">
        <ele>1550</ele>
        <time>2018-06-08T08:57:10Z</time>
      </trkpt>
      <trkpt lat="44.23553" lon="6.20977">
        <ele>1550</ele>
        <time>2018-06-08T08:57:12Z</time>
      </trkpt>
      <trkpt lat="44.23552" lon="6.20979">
        <ele>1550</ele>
        <time>2018-06-08T08:57:14Z</time>
      </trkpt>
      <trkpt lat="44.2355" lon="6.20981">
        <ele>1550</ele>
        <time>2018-06-08T08:57:16Z</time>
      </trkpt>
      <trkpt lat="44.23549" lon="6.20984">
        <ele>1550</ele>
        <time>2018-06-08T08:57:18Z</time>
      </trkpt>
      <trkpt lat="44.23548" lon="6.20986">
        <ele>1550</ele>
        <time>2018-06-08T08:57:20Z</time>
      </trkpt>
      <trkpt lat="44.23547" lon="6.20988">
        <ele>1550</ele>
        <time>2018-06-08T08:57:22Z</time>
      </trkpt>
      <trkpt lat="44.23546" lon="6.2099">
        <ele>1550</ele>
        <time>2018-06-08T08:57:24Z</time>
      </trkpt>
      <trkpt lat="44.23544" lon="6.20991">
        <ele>1550</ele>
        <time>2018-06-08T08:57:26Z</time>
      </trkpt>
      <trkpt lat="44.23543" lon="6.20993">
        <ele>1550</ele>
        <time>2018-06-08T08:57:28Z</time>
      </trkpt>
      <trkpt lat="44.23542" lon="6.20995">
        <ele>1550</ele>
        <time>2018-06-08T08:57:31Z</time>
      </trkpt>
      <trkpt lat="44.23541" lon="6.20996">
        <ele>1550</ele>
        <time>2018-06-08T08:57:33Z</time>
      </trkpt>
      <trkpt lat="44.2354" lon="6.20998">
        <ele>1550</ele>
        <time>2018-06-08T08:57:36Z</time>
      </trkpt>
      <trkpt lat="44.23539" lon="6.20999">
        <ele>1551</ele>
        <time>2018-06-08T08:57:38Z</time>
      </trkpt>
      <trkpt lat="44.23538" lon="6.21001">
        <ele>1552</ele>
        <time>2018-06-08T08:57:40Z</time>
      </trkpt>
      <trkpt lat="44.23537" lon="6.21003">
        <ele>1552</ele>
        <time>2018-06-08T08:57:42Z</time>
      </trkpt>
      <trkpt lat="44.23536" lon="6.21004">
        <ele>1553</ele>
        <time>2018-06-08T08:57:44Z</time>
      </trkpt>
      <trkpt lat="44.23536" lon="6.21006">
        <ele>1553</ele>
        <time>2018-06-08T08:57:46Z</time>
      </trkpt>
      <trkpt lat="44.23535" lon="6.21007">
        <ele>1554</ele>
        <time>2018-06-08T08:57:48Z</time>
      </trkpt>
      <trkpt lat="44.23534" lon="6.21009">
        <ele>1554</ele>
        <time>2018-06-08T08:57:50Z</time>
      </trkpt>
      <trkpt lat="44.23533" lon="6.2101">
        <ele>1554</ele>
        <time>2018-06-08T08:57:52Z</time>
      </trkpt>
      <trkpt lat="44.23532" lon="6.21012">
        <ele>1554</ele>
        <time>2018-06-08T08:57:54Z</time>
      </trkpt>
      <trkpt lat="44.23531" lon="6.21014">
        <ele>1554</ele>
        <time>2018-06-08T08:57:56Z</time>
      </trkpt>
      <trkpt lat="44.23531" lon="6.21016">
        <ele>1554</ele>
        <time>2018-06-08T08:57:58Z</time>
      </trkpt>
      <trkpt lat="44.2353" lon="6.21017">
        <ele>1554</ele>
        <time>2018-06-08T08:58:00Z</time>
      </trkpt>
      <trkpt lat="44.23529" lon="6.21019">
        <ele>1554</ele>
        <time>2018-06-08T08:58:02Z</time>
      </trkpt>
      <trkpt lat="44.23528" lon="6.2102">
        <ele>1555</ele>
        <time>2018-06-08T08:58:04Z</time>
      </trkpt>
      <trkpt lat="44.23526" lon="6.21022">
        <ele>1555</ele>
        <time>2018-06-08T08:58:06Z</time>
      </trkpt>
      <trkpt lat="44.23525" lon="6.21023">
        <ele>1556</ele>
        <time>2018-06-08T08:58:11Z</time>
      </trkpt>
      <trkpt lat="44.23524" lon="6.21024">
        <ele>1557</ele>
        <time>2018-06-08T08:58:15Z</time>
      </trkpt>
      <trkpt lat="44.23523" lon="6.21026">
        <ele>1557</ele>
        <time>2018-06-08T08:58:17Z</time>
      </trkpt>
      <trkpt lat="44.23522" lon="6.21027">
        <ele>1557</ele>
        <time>2018-06-08T08:58:19Z</time>
      </trkpt>
      <trkpt lat="44.23521" lon="6.21029">
        <ele>1557</ele>
        <time>2018-06-08T08:58:21Z</time>
      </trkpt>
      <trkpt lat="44.23519" lon="6.21031">
        <ele>1557</ele>
        <time>2018-06-08T08:58:23Z</time>
      </trkpt>
      <trkpt lat="44.23517" lon="6.21032">
        <ele>1557</ele>
        <time>2018-06-08T08:58:25Z</time>
      </trkpt>
      <trkpt lat="44.23515" lon="6.21034">
        <ele>1557</ele>
        <time>2018-06-08T08:58:27Z</time>
      </trkpt>
      <trkpt lat="44.23513" lon="6.21036">
        <ele>1557</ele>
        <time>2018-06-08T08:58:29Z</time>
      </trkpt>
      <trkpt lat="44.23511" lon="6.21037">
        <ele>1557</ele>
        <time>2018-06-08T08:58:31Z</time>
      </trkpt>
      <trkpt lat="44.2351" lon="6.2104">
        <ele>1557</ele>
        <time>2018-06-08T08:58:33Z</time>
      </trkpt>
      <trkpt lat="44.23509" lon="6.21042">
        <ele>1557</ele>
        <time>2018-06-08T08:58:35Z</time>
      </trkpt>
      <trkpt lat="44.23507" lon="6.21045">
        <ele>1557</ele>
        <time>2018-06-08T08:58:37Z</time>
      </trkpt>
      <trkpt lat="44.23507" lon="6.21047">
        <ele>1557</ele>
        <time>2018-06-08T08:58:38Z</time>
      </trkpt>
      <trkpt lat="44.23506" lon="6.21049">
        <ele>1557</ele>
        <time>2018-06-08T08:58:40Z</time>
      </trkpt>
      <trkpt lat="44.23506" lon="6.21052">
        <ele>1557</ele>
        <time>2018-06-08T08:58:42Z</time>
      </trkpt>
      <trkpt lat="44.23506" lon="6.21054">
        <ele>1557</ele>
        <time>2018-06-08T08:58:44Z</time>
      </trkpt>
      <trkpt lat="44.23506" lon="6.21057">
        <ele>1557</ele>
        <time>2018-06-08T08:58:46Z</time>
      </trkpt>
      <trkpt lat="44.23506" lon="6.21059">
        <ele>1557</ele>
        <time>2018-06-08T08:58:48Z</time>
      </trkpt>
      <trkpt lat="44.23506" lon="6.21062">
        <ele>1558</ele>
        <time>2018-06-08T08:58:50Z</time>
      </trkpt>
      <trkpt lat="44.23506" lon="6.21063">
        <ele>1558</ele>
        <time>2018-06-08T08:58:51Z</time>
      </trkpt>
      <trkpt lat="44.23506" lon="6.21065">
        <ele>1558</ele>
        <time>2018-06-08T08:58:52Z</time>
      </trkpt>
      <trkpt lat="44.23506" lon="6.21067">
        <ele>1558</ele>
        <time>2018-06-08T08:58:54Z</time>
      </trkpt>
      <trkpt lat="44.23506" lon="6.21069">
        <ele>1558</ele>
        <time>2018-06-08T08:58:56Z</time>
      </trkpt>
      <trkpt lat="44.23507" lon="6.21072">
        <ele>1558</ele>
        <time>2018-06-08T08:58:58Z</time>
      </trkpt>
      <trkpt lat="44.23507" lon="6.21073">
        <ele>1558</ele>
        <time>2018-06-08T08:59:00Z</time>
      </trkpt>
      <trkpt lat="44.23508" lon="6.21075">
        <ele>1558</ele>
        <time>2018-06-08T08:59:02Z</time>
      </trkpt>
      <trkpt lat="44.23509" lon="6.21077">
        <ele>1559</ele>
        <time>2018-06-08T08:59:04Z</time>
      </trkpt>
      <trkpt lat="44.23511" lon="6.21078">
        <ele>1559</ele>
        <time>2018-06-08T08:59:07Z</time>
      </trkpt>
      <trkpt lat="44.23512" lon="6.2108">
        <ele>1559</ele>
        <time>2018-06-08T08:59:09Z</time>
      </trkpt>
      <trkpt lat="44.23513" lon="6.21081">
        <ele>1559</ele>
        <time>2018-06-08T08:59:11Z</time>
      </trkpt>
      <trkpt lat="44.23514" lon="6.21083">
        <ele>1560</ele>
        <time>2018-06-08T08:59:13Z</time>
      </trkpt>
      <trkpt lat="44.23515" lon="6.21085">
        <ele>1560</ele>
        <time>2018-06-08T08:59:15Z</time>
      </trkpt>
      <trkpt lat="44.23516" lon="6.21087">
        <ele>1560</ele>
        <time>2018-06-08T08:59:17Z</time>
      </trkpt>
      <trkpt lat="44.23517" lon="6.21089">
        <ele>1560</ele>
        <time>2018-06-08T08:59:19Z</time>
      </trkpt>
      <trkpt lat="44.23518" lon="6.21091">
        <ele>1560</ele>
        <time>2018-06-08T08:59:21Z</time>
      </trkpt>
      <trkpt lat="44.23519" lon="6.21093">
        <ele>1560</ele>
        <time>2018-06-08T08:59:23Z</time>
      </trkpt>
      <trkpt lat="44.2352" lon="6.21095">
        <ele>1561</ele>
        <time>2018-06-08T08:59:25Z</time>
      </trkpt>
      <trkpt lat="44.23521" lon="6.21097">
        <ele>1561</ele>
        <time>2018-06-08T08:59:27Z</time>
      </trkpt>
      <trkpt lat="44.23522" lon="6.21099">
        <ele>1561</ele>
        <time>2018-06-08T08:59:29Z</time>
      </trkpt>
      <trkpt lat="44.23522" lon="6.21101">
        <ele>1561</ele>
        <time>2018-06-08T08:59:31Z</time>
      </trkpt>
      <trkpt lat="44.23523" lon="6.21103">
        <ele>1561</ele>
        <time>2018-06-08T08:59:33Z</time>
      </trkpt>
      <trkpt lat="44.23524" lon="6.21105">
        <ele>1562</ele>
        <time>2018-06-08T08:59:35Z</time>
      </trkpt>
      <trkpt lat="44.23524" lon="6.21107">
        <ele>1562</ele>
        <time>2018-06-08T08:59:37Z</time>
      </trkpt>
      <trkpt lat="44.23525" lon="6.21108">
        <ele>1562</ele>
        <time>2018-06-08T08:59:39Z</time>
      </trkpt>
      <trkpt lat="44.23526" lon="6.2111">
        <ele>1563</ele>
        <time>2018-06-08T08:59:41Z</time>
      </trkpt>
      <trkpt lat="44.23526" lon="6.21112">
        <ele>1563</ele>
        <time>2018-06-08T08:59:43Z</time>
      </trkpt>
      <trkpt lat="44.23527" lon="6.21113">
        <ele>1563</ele>
        <time>2018-06-08T08:59:45Z</time>
      </trkpt>
      <trkpt lat="44.23528" lon="6.21115">
        <ele>1563</ele>
        <time>2018-06-08T08:59:47Z</time>
      </trkpt>
      <trkpt lat="44.23528" lon="6.21117">
        <ele>1564</ele>
        <time>2018-06-08T08:59:49Z</time>
      </trkpt>
      <trkpt lat="44.23529" lon="6.21118">
        <ele>1564</ele>
        <time>2018-06-08T08:59:51Z</time>
      </trkpt>
      <trkpt lat="44.23529" lon="6.2112">
        <ele>1564</ele>
        <time>2018-06-08T08:59:53Z</time>
      </trkpt>
      <trkpt lat="44.2353" lon="6.21122">
        <ele>1564</ele>
        <time>2018-06-08T08:59:55Z</time>
      </trkpt>
      <trkpt lat="44.2353" lon="6.21123">
        <ele>1564</ele>
        <time>2018-06-08T08:59:57Z</time>
      </trkpt>
      <trkpt lat="44.2353" lon="6.21125">
        <ele>1564</ele>
        <time>2018-06-08T08:59:59Z</time>
      </trkpt>
      <trkpt lat="44.2353" lon="6.21127">
        <ele>1565</ele>
        <time>2018-06-08T09:00:01Z</time>
      </trkpt>
      <trkpt lat="44.23529" lon="6.21129">
        <ele>1565</ele>
        <time>2018-06-08T09:00:03Z</time>
      </trkpt>
      <trkpt lat="44.23528" lon="6.21131">
        <ele>1565</ele>
        <time>2018-06-08T09:00:05Z</time>
      </trkpt>
      <trkpt lat="44.23527" lon="6.21134">
        <ele>1565</ele>
        <time>2018-06-08T09:00:07Z</time>
      </trkpt>
      <trkpt lat="44.23526" lon="6.21136">
        <ele>1565</ele>
        <time>2018-06-08T09:00:09Z</time>
      </trkpt>
      <trkpt lat="44.23526" lon="6.21137">
        <ele>1565</ele>
        <time>2018-06-08T09:00:10Z</time>
      </trkpt>
      <trkpt lat="44.23526" lon="6.2114">
        <ele>1565</ele>
        <time>2018-06-08T09:00:12Z</time>
      </trkpt>
      <trkpt lat="44.23526" lon="6.21141">
        <ele>1565</ele>
        <time>2018-06-08T09:00:13Z</time>
      </trkpt>
      <trkpt lat="44.23526" lon="6.21143">
        <ele>1566</ele>
        <time>2018-06-08T09:00:15Z</time>
      </trkpt>
      <trkpt lat="44.23526" lon="6.21145">
        <ele>1566</ele>
        <time>2018-06-08T09:00:17Z</time>
      </trkpt>
      <trkpt lat="44.23527" lon="6.21147">
        <ele>1566</ele>
        <time>2018-06-08T09:00:19Z</time>
      </trkpt>
      <trkpt lat="44.23527" lon="6.21149">
        <ele>1566</ele>
        <time>2018-06-08T09:00:21Z</time>
      </trkpt>
      <trkpt lat="44.23528" lon="6.2115">
        <ele>1566</ele>
        <time>2018-06-08T09:00:23Z</time>
      </trkpt>
      <trkpt lat="44.23528" lon="6.21152">
        <ele>1567</ele>
        <time>2018-06-08T09:00:25Z</time>
      </trkpt>
      <trkpt lat="44.23528" lon="6.21155">
        <ele>1567</ele>
        <time>2018-06-08T09:00:27Z</time>
      </trkpt>
      <trkpt lat="44.23528" lon="6.21157">
        <ele>1567</ele>
        <time>2018-06-08T09:00:28Z</time>
      </trkpt>
      <trkpt lat="44.23529" lon="6.21159">
        <ele>1568</ele>
        <time>2018-06-08T09:00:30Z</time>
      </trkpt>
      <trkpt lat="44.23529" lon="6.21162">
        <ele>1568</ele>
        <time>2018-06-08T09:00:32Z</time>
      </trkpt>
      <trkpt lat="44.23529" lon="6.21163">
        <ele>1568</ele>
        <time>2018-06-08T09:00:33Z</time>
      </trkpt>
      <trkpt lat="44.23529" lon="6.21165">
        <ele>1568</ele>
        <time>2018-06-08T09:00:34Z</time>
      </trkpt>
      <trkpt lat="44.23529" lon="6.21166">
        <ele>1568</ele>
        <time>2018-06-08T09:00:35Z</time>
      </trkpt>
      <trkpt lat="44.23529" lon="6.21169">
        <ele>1568</ele>
        <time>2018-06-08T09:00:37Z</time>
      </trkpt>
      <trkpt lat="44.2353" lon="6.21171">
        <ele>1568</ele>
        <time>2018-06-08T09:00:39Z</time>
      </trkpt>
      <trkpt lat="44.2353" lon="6.21173">
        <ele>1569</ele>
        <time>2018-06-08T09:00:41Z</time>
      </trkpt>
      <trkpt lat="44.2353" lon="6.21175">
        <ele>1569</ele>
        <time>2018-06-08T09:00:43Z</time>
      </trkpt>
      <trkpt lat="44.23531" lon="6.21178">
        <ele>1569</ele>
        <time>2018-06-08T09:00:45Z</time>
      </trkpt>
      <trkpt lat="44.23531" lon="6.2118">
        <ele>1570</ele>
        <time>2018-06-08T09:00:47Z</time>
      </trkpt>
      <trkpt lat="44.23532" lon="6.21182">
        <ele>1570</ele>
        <time>2018-06-08T09:00:49Z</time>
      </trkpt>
      <trkpt lat="44.23532" lon="6.21185">
        <ele>1570</ele>
        <time>2018-06-08T09:00:51Z</time>
      </trkpt>
      <trkpt lat="44.23532" lon="6.21187">
        <ele>1571</ele>
        <time>2018-06-08T09:00:53Z</time>
      </trkpt>
      <trkpt lat="44.23533" lon="6.2119">
        <ele>1571</ele>
        <time>2018-06-08T09:00:55Z</time>
      </trkpt>
      <trkpt lat="44.23533" lon="6.21192">
        <ele>1571</ele>
        <time>2018-06-08T09:00:57Z</time>
      </trkpt>
      <trkpt lat="44.23534" lon="6.21195">
        <ele>1571</ele>
        <time>2018-06-08T09:00:59Z</time>
      </trkpt>
      <trkpt lat="44.23534" lon="6.21196">
        <ele>1571</ele>
        <time>2018-06-08T09:01:00Z</time>
      </trkpt>
      <trkpt lat="44.23534" lon="6.21198">
        <ele>1571</ele>
        <time>2018-06-08T09:01:01Z</time>
      </trkpt>
      <trkpt lat="44.23534" lon="6.212">
        <ele>1571</ele>
        <time>2018-06-08T09:01:03Z</time>
      </trkpt>
      <trkpt lat="44.23533" lon="6.21202">
        <ele>1572</ele>
        <time>2018-06-08T09:01:04Z</time>
      </trkpt>
      <trkpt lat="44.23533" lon="6.21203">
        <ele>1572</ele>
        <time>2018-06-08T09:01:05Z</time>
      </trkpt>
      <trkpt lat="44.23533" lon="6.21205">
        <ele>1572</ele>
        <time>2018-06-08T09:01:06Z</time>
      </trkpt>
      <trkpt lat="44.23533" lon="6.21206">
        <ele>1572</ele>
        <time>2018-06-08T09:01:07Z</time>
      </trkpt>
      <trkpt lat="44.23533" lon="6.21208">
        <ele>1572</ele>
        <time>2018-06-08T09:01:08Z</time>
      </trkpt>
      <trkpt lat="44.23533" lon="6.2121">
        <ele>1572</ele>
        <time>2018-06-08T09:01:10Z</time>
      </trkpt>
      <trkpt lat="44.23533" lon="6.21213">
        <ele>1572</ele>
        <time>2018-06-08T09:01:12Z</time>
      </trkpt>
      <trkpt lat="44.23533" lon="6.21215">
        <ele>1572</ele>
        <time>2018-06-08T09:01:13Z</time>
      </trkpt>
      <trkpt lat="44.23533" lon="6.21217">
        <ele>1572</ele>
        <time>2018-06-08T09:01:15Z</time>
      </trkpt>
      <trkpt lat="44.23533" lon="6.2122">
        <ele>1572</ele>
        <time>2018-06-08T09:01:17Z</time>
      </trkpt>
      <trkpt lat="44.23533" lon="6.21221">
        <ele>1572</ele>
        <time>2018-06-08T09:01:18Z</time>
      </trkpt>
      <trkpt lat="44.23533" lon="6.21223">
        <ele>1572</ele>
        <time>2018-06-08T09:01:19Z</time>
      </trkpt>
      <trkpt lat="44.23534" lon="6.21225">
        <ele>1572</ele>
        <time>2018-06-08T09:01:21Z</time>
      </trkpt>
      <trkpt lat="44.23534" lon="6.21227">
        <ele>1572</ele>
        <time>2018-06-08T09:01:22Z</time>
      </trkpt>
      <trkpt lat="44.23534" lon="6.21228">
        <ele>1572</ele>
        <time>2018-06-08T09:01:23Z</time>
      </trkpt>
      <trkpt lat="44.23534" lon="6.21231">
        <ele>1572</ele>
        <time>2018-06-08T09:01:25Z</time>
      </trkpt>
      <trkpt lat="44.23535" lon="6.21233">
        <ele>1572</ele>
        <time>2018-06-08T09:01:27Z</time>
      </trkpt>
      <trkpt lat="44.23536" lon="6.21236">
        <ele>1572</ele>
        <time>2018-06-08T09:01:29Z</time>
      </trkpt>
      <trkpt lat="44.23537" lon="6.21238">
        <ele>1572</ele>
        <time>2018-06-08T09:01:31Z</time>
      </trkpt>
      <trkpt lat="44.23537" lon="6.2124">
        <ele>1572</ele>
        <time>2018-06-08T09:01:32Z</time>
      </trkpt>
      <trkpt lat="44.23537" lon="6.21242">
        <ele>1572</ele>
        <time>2018-06-08T09:01:33Z</time>
      </trkpt>
      <trkpt lat="44.23537" lon="6.21243">
        <ele>1572</ele>
        <time>2018-06-08T09:01:34Z</time>
      </trkpt>
      <trkpt lat="44.23536" lon="6.21245">
        <ele>1572</ele>
        <time>2018-06-08T09:01:36Z</time>
      </trkpt>
      <trkpt lat="44.23536" lon="6.21247">
        <ele>1572</ele>
        <time>2018-06-08T09:01:37Z</time>
      </trkpt>
      <trkpt lat="44.23535" lon="6.21248">
        <ele>1572</ele>
        <time>2018-06-08T09:01:38Z</time>
      </trkpt>
      <trkpt lat="44.23534" lon="6.2125">
        <ele>1572</ele>
        <time>2018-06-08T09:01:39Z</time>
      </trkpt>
      <trkpt lat="44.23533" lon="6.21252">
        <ele>1572</ele>
        <time>2018-06-08T09:01:41Z</time>
      </trkpt>
      <trkpt lat="44.23531" lon="6.21253">
        <ele>1572</ele>
        <time>2018-06-08T09:01:43Z</time>
      </trkpt>
      <trkpt lat="44.23529" lon="6.21255">
        <ele>1572</ele>
        <time>2018-06-08T09:01:45Z</time>
      </trkpt>
      <trkpt lat="44.23528" lon="6.21256">
        <ele>1572</ele>
        <time>2018-06-08T09:01:47Z</time>
      </trkpt>
      <trkpt lat="44.23526" lon="6.21258">
        <ele>1572</ele>
        <time>2018-06-08T09:01:49Z</time>
      </trkpt>
      <trkpt lat="44.23524" lon="6.2126">
        <ele>1572</ele>
        <time>2018-06-08T09:01:51Z</time>
      </trkpt>
      <trkpt lat="44.23523" lon="6.21261">
        <ele>1572</ele>
        <time>2018-06-08T09:01:55Z</time>
      </trkpt>
      <trkpt lat="44.23523" lon="6.21264">
        <ele>1572</ele>
        <time>2018-06-08T09:01:58Z</time>
      </trkpt>
      <trkpt lat="44.23523" lon="6.21266">
        <ele>1572</ele>
        <time>2018-06-08T09:01:59Z</time>
      </trkpt>
      <trkpt lat="44.23522" lon="6.21267">
        <ele>1572</ele>
        <time>2018-06-08T09:02:00Z</time>
      </trkpt>
      <trkpt lat="44.23521" lon="6.21269">
        <ele>1572</ele>
        <time>2018-06-08T09:02:01Z</time>
      </trkpt>
      <trkpt lat="44.2352" lon="6.21271">
        <ele>1572</ele>
        <time>2018-06-08T09:02:02Z</time>
      </trkpt>
      <trkpt lat="44.23519" lon="6.21273">
        <ele>1572</ele>
        <time>2018-06-08T09:02:04Z</time>
      </trkpt>
      <trkpt lat="44.23517" lon="6.21275">
        <ele>1572</ele>
        <time>2018-06-08T09:02:06Z</time>
      </trkpt>
      <trkpt lat="44.23516" lon="6.21277">
        <ele>1572</ele>
        <time>2018-06-08T09:02:07Z</time>
      </trkpt>
      <trkpt lat="44.23516" lon="6.21278">
        <ele>1572</ele>
        <time>2018-06-08T09:02:08Z</time>
      </trkpt>
      <trkpt lat="44.23515" lon="6.2128">
        <ele>1572</ele>
        <time>2018-06-08T09:02:09Z</time>
      </trkpt>
      <trkpt lat="44.23515" lon="6.21282">
        <ele>1572</ele>
        <time>2018-06-08T09:02:10Z</time>
      </trkpt>
      <trkpt lat="44.23514" lon="6.21283">
        <ele>1572</ele>
        <time>2018-06-08T09:02:11Z</time>
      </trkpt>
      <trkpt lat="44.23513" lon="6.21285">
        <ele>1572</ele>
        <time>2018-06-08T09:02:12Z</time>
      </trkpt>
      <trkpt lat="44.23512" lon="6.21288">
        <ele>1572</ele>
        <time>2018-06-08T09:02:14Z</time>
      </trkpt>
      <trkpt lat="44.23512" lon="6.21289">
        <ele>1572</ele>
        <time>2018-06-08T09:02:15Z</time>
      </trkpt>
      <trkpt lat="44.23511" lon="6.21291">
        <ele>1572</ele>
        <time>2018-06-08T09:02:16Z</time>
      </trkpt>
      <trkpt lat="44.2351" lon="6.21294">
        <ele>1572</ele>
        <time>2018-06-08T09:02:18Z</time>
      </trkpt>
      <trkpt lat="44.23509" lon="6.21295">
        <ele>1572</ele>
        <time>2018-06-08T09:02:19Z</time>
      </trkpt>
      <trkpt lat="44.23509" lon="6.21297">
        <ele>1572</ele>
        <time>2018-06-08T09:02:20Z</time>
      </trkpt>
      <trkpt lat="44.23508" lon="6.21299">
        <ele>1572</ele>
        <time>2018-06-08T09:02:21Z</time>
      </trkpt>
      <trkpt lat="44.23508" lon="6.213">
        <ele>1572</ele>
        <time>2018-06-08T09:02:22Z</time>
      </trkpt>
      <trkpt lat="44.23508" lon="6.21302">
        <ele>1572</ele>
        <time>2018-06-08T09:02:23Z</time>
      </trkpt>
      <trkpt lat="44.23508" lon="6.21304">
        <ele>1572</ele>
        <time>2018-06-08T09:02:24Z</time>
      </trkpt>
      <trkpt lat="44.23507" lon="6.21306">
        <ele>1572</ele>
        <time>2018-06-08T09:02:25Z</time>
      </trkpt>
      <trkpt lat="44.23507" lon="6.21307">
        <ele>1572</ele>
        <time>2018-06-08T09:02:26Z</time>
      </trkpt>
      <trkpt lat="44.23507" lon="6.21309">
        <ele>1571</ele>
        <time>2018-06-08T09:02:27Z</time>
      </trkpt>
      <trkpt lat="44.23507" lon="6.2131">
        <ele>1571</ele>
        <time>2018-06-08T09:02:28Z</time>
      </trkpt>
      <trkpt lat="44.23507" lon="6.21312">
        <ele>1571</ele>
        <time>2018-06-08T09:02:29Z</time>
      </trkpt>
      <trkpt lat="44.23506" lon="6.21315">
        <ele>1571</ele>
        <time>2018-06-08T09:02:31Z</time>
      </trkpt>
      <trkpt lat="44.23505" lon="6.21316">
        <ele>1571</ele>
        <time>2018-06-08T09:02:32Z</time>
      </trkpt>
      <trkpt lat="44.23505" lon="6.21318">
        <ele>1571</ele>
        <time>2018-06-08T09:02:33Z</time>
      </trkpt>
      <trkpt lat="44.23505" lon="6.2132">
        <ele>1571</ele>
        <time>2018-06-08T09:02:34Z</time>
      </trkpt>
      <trkpt lat="44.23504" lon="6.21321">
        <ele>1571</ele>
        <time>2018-06-08T09:02:35Z</time>
      </trkpt>
      <trkpt lat="44.23504" lon="6.21323">
        <ele>1571</ele>
        <time>2018-06-08T09:02:36Z</time>
      </trkpt>
      <trkpt lat="44.23503" lon="6.21325">
        <ele>1571</ele>
        <time>2018-06-08T09:02:38Z</time>
      </trkpt>
      <trkpt lat="44.23502" lon="6.21327">
        <ele>1571</ele>
        <time>2018-06-08T09:02:40Z</time>
      </trkpt>
      <trkpt lat="44.23502" lon="6.21329">
        <ele>1571</ele>
        <time>2018-06-08T09:02:42Z</time>
      </trkpt>
      <trkpt lat="44.23502" lon="6.21331">
        <ele>1571</ele>
        <time>2018-06-08T09:02:43Z</time>
      </trkpt>
      <trkpt lat="44.23501" lon="6.21332">
        <ele>1571</ele>
        <time>2018-06-08T09:02:44Z</time>
      </trkpt>
      <trkpt lat="44.235" lon="6.21334">
        <ele>1571</ele>
        <time>2018-06-08T09:02:45Z</time>
      </trkpt>
      <trkpt lat="44.235" lon="6.21336">
        <ele>1571</ele>
        <time>2018-06-08T09:02:47Z</time>
      </trkpt>
      <trkpt lat="44.23499" lon="6.21338">
        <ele>1571</ele>
        <time>2018-06-08T09:02:48Z</time>
      </trkpt>
      <trkpt lat="44.23499" lon="6.21339">
        <ele>1571</ele>
        <time>2018-06-08T09:02:49Z</time>
      </trkpt>
      <trkpt lat="44.23499" lon="6.21341">
        <ele>1571</ele>
        <time>2018-06-08T09:02:50Z</time>
      </trkpt>
      <trkpt lat="44.23498" lon="6.21343">
        <ele>1571</ele>
        <time>2018-06-08T09:02:51Z</time>
      </trkpt>
      <trkpt lat="44.23497" lon="6.21346">
        <ele>1571</ele>
        <time>2018-06-08T09:02:53Z</time>
      </trkpt>
      <trkpt lat="44.23497" lon="6.21347">
        <ele>1571</ele>
        <time>2018-06-08T09:02:54Z</time>
      </trkpt>
      <trkpt lat="44.23496" lon="6.21349">
        <ele>1571</ele>
        <time>2018-06-08T09:02:56Z</time>
      </trkpt>
      <trkpt lat="44.23495" lon="6.21352">
        <ele>1571</ele>
        <time>2018-06-08T09:02:58Z</time>
      </trkpt>
      <trkpt lat="44.23494" lon="6.21354">
        <ele>1571</ele>
        <time>2018-06-08T09:03:00Z</time>
      </trkpt>
      <trkpt lat="44.23493" lon="6.21356">
        <ele>1571</ele>
        <time>2018-06-08T09:03:02Z</time>
      </trkpt>
      <trkpt lat="44.23492" lon="6.21358">
        <ele>1571</ele>
        <time>2018-06-08T09:03:04Z</time>
      </trkpt>
      <trkpt lat="44.23492" lon="6.2136">
        <ele>1571</ele>
        <time>2018-06-08T09:03:06Z</time>
      </trkpt>
      <trkpt lat="44.23491" lon="6.21362">
        <ele>1571</ele>
        <time>2018-06-08T09:03:08Z</time>
      </trkpt>
      <trkpt lat="44.23491" lon="6.21364">
        <ele>1571</ele>
        <time>2018-06-08T09:03:10Z</time>
      </trkpt>
      <trkpt lat="44.23491" lon="6.21365">
        <ele>1571</ele>
        <time>2018-06-08T09:03:12Z</time>
      </trkpt>
      <trkpt lat="44.23491" lon="6.21367">
        <ele>1571</ele>
        <time>2018-06-08T09:03:14Z</time>
      </trkpt>
      <trkpt lat="44.2349" lon="6.21369">
        <ele>1571</ele>
        <time>2018-06-08T09:03:16Z</time>
      </trkpt>
      <trkpt lat="44.2349" lon="6.21371">
        <ele>1571</ele>
        <time>2018-06-08T09:03:18Z</time>
      </trkpt>
      <trkpt lat="44.2349" lon="6.21373">
        <ele>1571</ele>
        <time>2018-06-08T09:03:20Z</time>
      </trkpt>
      <trkpt lat="44.23489" lon="6.21374">
        <ele>1571</ele>
        <time>2018-06-08T09:03:22Z</time>
      </trkpt>
      <trkpt lat="44.23489" lon="6.21376">
        <ele>1571</ele>
        <time>2018-06-08T09:03:24Z</time>
      </trkpt>
      <trkpt lat="44.23489" lon="6.21378">
        <ele>1571</ele>
        <time>2018-06-08T09:03:27Z</time>
      </trkpt>
      <trkpt lat="44.23489" lon="6.2138">
        <ele>1571</ele>
        <time>2018-06-08T09:03:29Z</time>
      </trkpt>
      <trkpt lat="44.23489" lon="6.21382">
        <ele>1572</ele>
        <time>2018-06-08T09:03:31Z</time>
      </trkpt>
      <trkpt lat="44.2349" lon="6.21383">
        <ele>1572</ele>
        <time>2018-06-08T09:03:33Z</time>
      </trkpt>
      <trkpt lat="44.23491" lon="6.21385">
        <ele>1572</ele>
        <time>2018-06-08T09:03:35Z</time>
      </trkpt>
      <trkpt lat="44.23491" lon="6.21387">
        <ele>1572</ele>
        <time>2018-06-08T09:03:37Z</time>
      </trkpt>
      <trkpt lat="44.23492" lon="6.21389">
        <ele>1572</ele>
        <time>2018-06-08T09:03:40Z</time>
      </trkpt>
      <trkpt lat="44.23492" lon="6.21391">
        <ele>1573</ele>
        <time>2018-06-08T09:03:43Z</time>
      </trkpt>
      <trkpt lat="44.23493" lon="6.21393">
        <ele>1573</ele>
        <time>2018-06-08T09:03:46Z</time>
      </trkpt>
      <trkpt lat="44.23494" lon="6.21395">
        <ele>1574</ele>
        <time>2018-06-08T09:03:49Z</time>
      </trkpt>
      <trkpt lat="44.23494" lon="6.21396">
        <ele>1575</ele>
        <time>2018-06-08T09:03:51Z</time>
      </trkpt>
      <trkpt lat="44.23495" lon="6.21398">
        <ele>1575</ele>
        <time>2018-06-08T09:03:54Z</time>
      </trkpt>
      <trkpt lat="44.23495" lon="6.214">
        <ele>1576</ele>
        <time>2018-06-08T09:03:57Z</time>
      </trkpt>
      <trkpt lat="44.23495" lon="6.21402">
        <ele>1576</ele>
        <time>2018-06-08T09:03:59Z</time>
      </trkpt>
      <trkpt lat="44.23495" lon="6.21404">
        <ele>1576</ele>
        <time>2018-06-08T09:04:02Z</time>
      </trkpt>
      <trkpt lat="44.23496" lon="6.21406">
        <ele>1577</ele>
        <time>2018-06-08T09:04:05Z</time>
      </trkpt>
      <trkpt lat="44.23496" lon="6.21407">
        <ele>1578</ele>
        <time>2018-06-08T09:04:08Z</time>
      </trkpt>
      <trkpt lat="44.23496" lon="6.21409">
        <ele>1579</ele>
        <time>2018-06-08T09:04:10Z</time>
      </trkpt>
      <trkpt lat="44.23497" lon="6.21411">
        <ele>1579</ele>
        <time>2018-06-08T09:04:13Z</time>
      </trkpt>
      <trkpt lat="44.23499" lon="6.21413">
        <ele>1580</ele>
        <time>2018-06-08T09:04:16Z</time>
      </trkpt>
      <trkpt lat="44.235" lon="6.21414">
        <ele>1580</ele>
        <time>2018-06-08T09:04:18Z</time>
      </trkpt>
      <trkpt lat="44.23501" lon="6.21415">
        <ele>1580</ele>
        <time>2018-06-08T09:04:20Z</time>
      </trkpt>
      <trkpt lat="44.23503" lon="6.21416">
        <ele>1581</ele>
        <time>2018-06-08T09:04:22Z</time>
      </trkpt>
      <trkpt lat="44.23504" lon="6.21417">
        <ele>1581</ele>
        <time>2018-06-08T09:04:24Z</time>
      </trkpt>
      <trkpt lat="44.23505" lon="6.21419">
        <ele>1581</ele>
        <time>2018-06-08T09:04:26Z</time>
      </trkpt>
      <trkpt lat="44.23506" lon="6.21421">
        <ele>1581</ele>
        <time>2018-06-08T09:04:28Z</time>
      </trkpt>
      <trkpt lat="44.23506" lon="6.21423">
        <ele>1582</ele>
        <time>2018-06-08T09:04:30Z</time>
      </trkpt>
      <trkpt lat="44.23505" lon="6.21425">
        <ele>1582</ele>
        <time>2018-06-08T09:04:32Z</time>
      </trkpt>
      <trkpt lat="44.23505" lon="6.21426">
        <ele>1583</ele>
        <time>2018-06-08T09:04:34Z</time>
      </trkpt>
      <trkpt lat="44.23504" lon="6.21428">
        <ele>1583</ele>
        <time>2018-06-08T09:04:36Z</time>
      </trkpt>
      <trkpt lat="44.23503" lon="6.2143">
        <ele>1584</ele>
        <time>2018-06-08T09:04:38Z</time>
      </trkpt>
      <trkpt lat="44.23503" lon="6.21432">
        <ele>1584</ele>
        <time>2018-06-08T09:04:40Z</time>
      </trkpt>
      <trkpt lat="44.23503" lon="6.21434">
        <ele>1585</ele>
        <time>2018-06-08T09:04:42Z</time>
      </trkpt>
      <trkpt lat="44.23504" lon="6.21437">
        <ele>1585</ele>
        <time>2018-06-08T09:04:44Z</time>
      </trkpt>
      <trkpt lat="44.23504" lon="6.2144">
        <ele>1585</ele>
        <time>2018-06-08T09:04:46Z</time>
      </trkpt>
      <trkpt lat="44.23505" lon="6.21442">
        <ele>1585</ele>
        <time>2018-06-08T09:04:48Z</time>
      </trkpt>
      <trkpt lat="44.23505" lon="6.21444">
        <ele>1585</ele>
        <time>2018-06-08T09:04:49Z</time>
      </trkpt>
      <trkpt lat="44.23505" lon="6.21446">
        <ele>1585</ele>
        <time>2018-06-08T09:04:51Z</time>
      </trkpt>
      <trkpt lat="44.23506" lon="6.21449">
        <ele>1585</ele>
        <time>2018-06-08T09:04:53Z</time>
      </trkpt>
      <trkpt lat="44.23507" lon="6.21451">
        <ele>1585</ele>
        <time>2018-06-08T09:04:55Z</time>
      </trkpt>
      <trkpt lat="44.23508" lon="6.21453">
        <ele>1585</ele>
        <time>2018-06-08T09:04:57Z</time>
      </trkpt>
      <trkpt lat="44.2351" lon="6.21455">
        <ele>1585</ele>
        <time>2018-06-08T09:04:59Z</time>
      </trkpt>
      <trkpt lat="44.23511" lon="6.21456">
        <ele>1585</ele>
        <time>2018-06-08T09:05:01Z</time>
      </trkpt>
      <trkpt lat="44.23513" lon="6.21458">
        <ele>1585</ele>
        <time>2018-06-08T09:05:03Z</time>
      </trkpt>
      <trkpt lat="44.23513" lon="6.21461">
        <ele>1585</ele>
        <time>2018-06-08T09:05:05Z</time>
      </trkpt>
      <trkpt lat="44.23513" lon="6.21463">
        <ele>1586</ele>
        <time>2018-06-08T09:05:07Z</time>
      </trkpt>
      <trkpt lat="44.23512" lon="6.21465">
        <ele>1586</ele>
        <time>2018-06-08T09:05:09Z</time>
      </trkpt>
      <trkpt lat="44.23512" lon="6.21467">
        <ele>1586</ele>
        <time>2018-06-08T09:05:11Z</time>
      </trkpt>
      <trkpt lat="44.23512" lon="6.2147">
        <ele>1586</ele>
        <time>2018-06-08T09:05:13Z</time>
      </trkpt>
      <trkpt lat="44.23512" lon="6.21472">
        <ele>1586</ele>
        <time>2018-06-08T09:05:15Z</time>
      </trkpt>
      <trkpt lat="44.23513" lon="6.21474">
        <ele>1587</ele>
        <time>2018-06-08T09:05:17Z</time>
      </trkpt>
      <trkpt lat="44.23514" lon="6.21477">
        <ele>1587</ele>
        <time>2018-06-08T09:05:19Z</time>
      </trkpt>
      <trkpt lat="44.23515" lon="6.21479">
        <ele>1587</ele>
        <time>2018-06-08T09:05:21Z</time>
      </trkpt>
      <trkpt lat="44.23515" lon="6.21481">
        <ele>1587</ele>
        <time>2018-06-08T09:05:22Z</time>
      </trkpt>
      <trkpt lat="44.23516" lon="6.21482">
        <ele>1587</ele>
        <time>2018-06-08T09:05:23Z</time>
      </trkpt>
      <trkpt lat="44.23516" lon="6.21484">
        <ele>1587</ele>
        <time>2018-06-08T09:05:24Z</time>
      </trkpt>
      <trkpt lat="44.23516" lon="6.21486">
        <ele>1587</ele>
        <time>2018-06-08T09:05:26Z</time>
      </trkpt>
      <trkpt lat="44.23516" lon="6.21488">
        <ele>1587</ele>
        <time>2018-06-08T09:05:27Z</time>
      </trkpt>
      <trkpt lat="44.23516" lon="6.21489">
        <ele>1587</ele>
        <time>2018-06-08T09:05:28Z</time>
      </trkpt>
      <trkpt lat="44.23516" lon="6.21491">
        <ele>1587</ele>
        <time>2018-06-08T09:05:29Z</time>
      </trkpt>
      <trkpt lat="44.23517" lon="6.21493">
        <ele>1587</ele>
        <time>2018-06-08T09:05:31Z</time>
      </trkpt>
      <trkpt lat="44.23518" lon="6.21495">
        <ele>1587</ele>
        <time>2018-06-08T09:05:33Z</time>
      </trkpt>
      <trkpt lat="44.2352" lon="6.21496">
        <ele>1587</ele>
        <time>2018-06-08T09:05:35Z</time>
      </trkpt>
      <trkpt lat="44.23522" lon="6.21498">
        <ele>1587</ele>
        <time>2018-06-08T09:05:37Z</time>
      </trkpt>
      <trkpt lat="44.23523" lon="6.21499">
        <ele>1587</ele>
        <time>2018-06-08T09:05:39Z</time>
      </trkpt>
      <trkpt lat="44.23524" lon="6.215">
        <ele>1587</ele>
        <time>2018-06-08T09:05:42Z</time>
      </trkpt>
      <trkpt lat="44.23526" lon="6.21501">
        <ele>1587</ele>
        <time>2018-06-08T09:05:44Z</time>
      </trkpt>
      <trkpt lat="44.23527" lon="6.21503">
        <ele>1587</ele>
        <time>2018-06-08T09:05:47Z</time>
      </trkpt>
      <trkpt lat="44.23528" lon="6.21504">
        <ele>1587</ele>
        <time>2018-06-08T09:05:50Z</time>
      </trkpt>
      <trkpt lat="44.23528" lon="6.21507">
        <ele>1587</ele>
        <time>2018-06-08T09:05:52Z</time>
      </trkpt>
      <trkpt lat="44.23528" lon="6.21508">
        <ele>1587</ele>
        <time>2018-06-08T09:05:54Z</time>
      </trkpt>
      <trkpt lat="44.23528" lon="6.2151">
        <ele>1587</ele>
        <time>2018-06-08T09:05:58Z</time>
      </trkpt>
      <trkpt lat="44.23527" lon="6.21512">
        <ele>1587</ele>
        <time>2018-06-08T09:06:00Z</time>
      </trkpt>
      <trkpt lat="44.23526" lon="6.21514">
        <ele>1587</ele>
        <time>2018-06-08T09:06:02Z</time>
      </trkpt>
      <trkpt lat="44.23526" lon="6.21516">
        <ele>1587</ele>
        <time>2018-06-08T09:06:04Z</time>
      </trkpt>
      <trkpt lat="44.23524" lon="6.21518">
        <ele>1587</ele>
        <time>2018-06-08T09:06:06Z</time>
      </trkpt>
      <trkpt lat="44.23523" lon="6.21519">
        <ele>1587</ele>
        <time>2018-06-08T09:06:08Z</time>
      </trkpt>
      <trkpt lat="44.23521" lon="6.2152">
        <ele>1587</ele>
        <time>2018-06-08T09:06:10Z</time>
      </trkpt>
      <trkpt lat="44.2352" lon="6.21521">
        <ele>1588</ele>
        <time>2018-06-08T09:06:12Z</time>
      </trkpt>
      <trkpt lat="44.23518" lon="6.21523">
        <ele>1588</ele>
        <time>2018-06-08T09:06:15Z</time>
      </trkpt>
      <trkpt lat="44.23518" lon="6.21525">
        <ele>1588</ele>
        <time>2018-06-08T09:06:17Z</time>
      </trkpt>
      <trkpt lat="44.23517" lon="6.21527">
        <ele>1588</ele>
        <time>2018-06-08T09:06:19Z</time>
      </trkpt>
      <trkpt lat="44.23518" lon="6.2153">
        <ele>1589</ele>
        <time>2018-06-08T09:06:21Z</time>
      </trkpt>
      <trkpt lat="44.23518" lon="6.21532">
        <ele>1589</ele>
        <time>2018-06-08T09:06:23Z</time>
      </trkpt>
      <trkpt lat="44.23519" lon="6.21534">
        <ele>1589</ele>
        <time>2018-06-08T09:06:25Z</time>
      </trkpt>
      <trkpt lat="44.2352" lon="6.21536">
        <ele>1589</ele>
        <time>2018-06-08T09:06:27Z</time>
      </trkpt>
      <trkpt lat="44.23521" lon="6.21539">
        <ele>1590</ele>
        <time>2018-06-08T09:06:29Z</time>
      </trkpt>
      <trkpt lat="44.23521" lon="6.21541">
        <ele>1590</ele>
        <time>2018-06-08T09:06:31Z</time>
      </trkpt>
      <trkpt lat="44.23522" lon="6.21543">
        <ele>1591</ele>
        <time>2018-06-08T09:06:33Z</time>
      </trkpt>
      <trkpt lat="44.23522" lon="6.21545">
        <ele>1591</ele>
        <time>2018-06-08T09:06:35Z</time>
      </trkpt>
      <trkpt lat="44.23523" lon="6.21546">
        <ele>1591</ele>
        <time>2018-06-08T09:06:37Z</time>
      </trkpt>
      <trkpt lat="44.23523" lon="6.21548">
        <ele>1591</ele>
        <time>2018-06-08T09:06:40Z</time>
      </trkpt>
      <trkpt lat="44.23524" lon="6.2155">
        <ele>1592</ele>
        <time>2018-06-08T09:06:43Z</time>
      </trkpt>
      <trkpt lat="44.23525" lon="6.21551">
        <ele>1593</ele>
        <time>2018-06-08T09:06:46Z</time>
      </trkpt>
      <trkpt lat="44.23526" lon="6.21552">
        <ele>1594</ele>
        <time>2018-06-08T09:06:50Z</time>
      </trkpt>
      <trkpt lat="44.23528" lon="6.21554">
        <ele>1595</ele>
        <time>2018-06-08T09:06:53Z</time>
      </trkpt>
      <trkpt lat="44.23529" lon="6.21556">
        <ele>1595</ele>
        <time>2018-06-08T09:06:55Z</time>
      </trkpt>
      <trkpt lat="44.23529" lon="6.21558">
        <ele>1595</ele>
        <time>2018-06-08T09:06:59Z</time>
      </trkpt>
      <trkpt lat="44.23531" lon="6.21559">
        <ele>1595</ele>
        <time>2018-06-08T09:07:01Z</time>
      </trkpt>
      <trkpt lat="44.23531" lon="6.21561">
        <ele>1595</ele>
        <time>2018-06-08T09:07:03Z</time>
      </trkpt>
      <trkpt lat="44.23532" lon="6.21562">
        <ele>1595</ele>
        <time>2018-06-08T09:07:05Z</time>
      </trkpt>
      <trkpt lat="44.23533" lon="6.21564">
        <ele>1595</ele>
        <time>2018-06-08T09:07:07Z</time>
      </trkpt>
      <trkpt lat="44.23534" lon="6.21566">
        <ele>1595</ele>
        <time>2018-06-08T09:07:10Z</time>
      </trkpt>
      <trkpt lat="44.23535" lon="6.21567">
        <ele>1596</ele>
        <time>2018-06-08T09:07:12Z</time>
      </trkpt>
      <trkpt lat="44.23536" lon="6.21569">
        <ele>1597</ele>
        <time>2018-06-08T09:07:15Z</time>
      </trkpt>
      <trkpt lat="44.23537" lon="6.21571">
        <ele>1597</ele>
        <time>2018-06-08T09:07:17Z</time>
      </trkpt>
      <trkpt lat="44.23537" lon="6.21573">
        <ele>1598</ele>
        <time>2018-06-08T09:07:19Z</time>
      </trkpt>
      <trkpt lat="44.23538" lon="6.21575">
        <ele>1598</ele>
        <time>2018-06-08T09:07:21Z</time>
      </trkpt>
      <trkpt lat="44.23538" lon="6.21578">
        <ele>1599</ele>
        <time>2018-06-08T09:07:24Z</time>
      </trkpt>
      <trkpt lat="44.23539" lon="6.2158">
        <ele>1600</ele>
        <time>2018-06-08T09:07:26Z</time>
      </trkpt>
      <trkpt lat="44.23539" lon="6.21581">
        <ele>1600</ele>
        <time>2018-06-08T09:07:28Z</time>
      </trkpt>
      <trkpt lat="44.23539" lon="6.21583">
        <ele>1601</ele>
        <time>2018-06-08T09:07:30Z</time>
      </trkpt>
      <trkpt lat="44.23539" lon="6.21585">
        <ele>1601</ele>
        <time>2018-06-08T09:07:31Z</time>
      </trkpt>
      <trkpt lat="44.23539" lon="6.21587">
        <ele>1601</ele>
        <time>2018-06-08T09:07:33Z</time>
      </trkpt>
      <trkpt lat="44.2354" lon="6.21589">
        <ele>1601</ele>
        <time>2018-06-08T09:07:34Z</time>
      </trkpt>
      <trkpt lat="44.2354" lon="6.21591">
        <ele>1601</ele>
        <time>2018-06-08T09:07:36Z</time>
      </trkpt>
      <trkpt lat="44.23539" lon="6.21593">
        <ele>1601</ele>
        <time>2018-06-08T09:07:37Z</time>
      </trkpt>
      <trkpt lat="44.23539" lon="6.21595">
        <ele>1601</ele>
        <time>2018-06-08T09:07:39Z</time>
      </trkpt>
      <trkpt lat="44.23538" lon="6.21597">
        <ele>1601</ele>
        <time>2018-06-08T09:07:41Z</time>
      </trkpt>
      <trkpt lat="44.23537" lon="6.21599">
        <ele>1601</ele>
        <time>2018-06-08T09:07:43Z</time>
      </trkpt>
      <trkpt lat="44.23537" lon="6.21601">
        <ele>1601</ele>
        <time>2018-06-08T09:07:45Z</time>
      </trkpt>
      <trkpt lat="44.23538" lon="6.21604">
        <ele>1601</ele>
        <time>2018-06-08T09:07:47Z</time>
      </trkpt>
      <trkpt lat="44.23538" lon="6.21606">
        <ele>1601</ele>
        <time>2018-06-08T09:07:48Z</time>
      </trkpt>
      <trkpt lat="44.23539" lon="6.21608">
        <ele>1601</ele>
        <time>2018-06-08T09:07:50Z</time>
      </trkpt>
      <trkpt lat="44.23539" lon="6.2161">
        <ele>1601</ele>
        <time>2018-06-08T09:07:52Z</time>
      </trkpt>
      <trkpt lat="44.23539" lon="6.21613">
        <ele>1601</ele>
        <time>2018-06-08T09:07:54Z</time>
      </trkpt>
      <trkpt lat="44.23539" lon="6.21614">
        <ele>1601</ele>
        <time>2018-06-08T09:07:55Z</time>
      </trkpt>
      <trkpt lat="44.2354" lon="6.21617">
        <ele>1601</ele>
        <time>2018-06-08T09:07:57Z</time>
      </trkpt>
      <trkpt lat="44.2354" lon="6.21619">
        <ele>1601</ele>
        <time>2018-06-08T09:07:59Z</time>
      </trkpt>
      <trkpt lat="44.23541" lon="6.21621">
        <ele>1602</ele>
        <time>2018-06-08T09:08:01Z</time>
      </trkpt>
      <trkpt lat="44.23541" lon="6.21624">
        <ele>1602</ele>
        <time>2018-06-08T09:08:03Z</time>
      </trkpt>
      <trkpt lat="44.23542" lon="6.21626">
        <ele>1602</ele>
        <time>2018-06-08T09:08:05Z</time>
      </trkpt>
      <trkpt lat="44.23542" lon="6.21627">
        <ele>1602</ele>
        <time>2018-06-08T09:08:07Z</time>
      </trkpt>
      <trkpt lat="44.23543" lon="6.21629">
        <ele>1602</ele>
        <time>2018-06-08T09:08:09Z</time>
      </trkpt>
      <trkpt lat="44.23544" lon="6.21631">
        <ele>1602</ele>
        <time>2018-06-08T09:08:11Z</time>
      </trkpt>
      <trkpt lat="44.23544" lon="6.21633">
        <ele>1602</ele>
        <time>2018-06-08T09:08:13Z</time>
      </trkpt>
      <trkpt lat="44.23545" lon="6.21635">
        <ele>1602</ele>
        <time>2018-06-08T09:08:15Z</time>
      </trkpt>
      <trkpt lat="44.23546" lon="6.21637">
        <ele>1602</ele>
        <time>2018-06-08T09:08:17Z</time>
      </trkpt>
      <trkpt lat="44.23547" lon="6.21638">
        <ele>1603</ele>
        <time>2018-06-08T09:08:19Z</time>
      </trkpt>
      <trkpt lat="44.23547" lon="6.2164">
        <ele>1603</ele>
        <time>2018-06-08T09:08:21Z</time>
      </trkpt>
      <trkpt lat="44.23548" lon="6.21641">
        <ele>1603</ele>
        <time>2018-06-08T09:08:23Z</time>
      </trkpt>
      <trkpt lat="44.23549" lon="6.21643">
        <ele>1603</ele>
        <time>2018-06-08T09:08:25Z</time>
      </trkpt>
      <trkpt lat="44.23549" lon="6.21645">
        <ele>1604</ele>
        <time>2018-06-08T09:08:27Z</time>
      </trkpt>
      <trkpt lat="44.23549" lon="6.21647">
        <ele>1604</ele>
        <time>2018-06-08T09:08:29Z</time>
      </trkpt>
      <trkpt lat="44.23549" lon="6.21649">
        <ele>1605</ele>
        <time>2018-06-08T09:08:31Z</time>
      </trkpt>
      <trkpt lat="44.23549" lon="6.21651">
        <ele>1605</ele>
        <time>2018-06-08T09:08:33Z</time>
      </trkpt>
      <trkpt lat="44.23549" lon="6.21652">
        <ele>1605</ele>
        <time>2018-06-08T09:08:35Z</time>
      </trkpt>
      <trkpt lat="44.2355" lon="6.21654">
        <ele>1605</ele>
        <time>2018-06-08T09:08:37Z</time>
      </trkpt>
      <trkpt lat="44.2355" lon="6.21656">
        <ele>1606</ele>
        <time>2018-06-08T09:08:39Z</time>
      </trkpt>
      <trkpt lat="44.23551" lon="6.21658">
        <ele>1606</ele>
        <time>2018-06-08T09:08:41Z</time>
      </trkpt>
      <trkpt lat="44.23552" lon="6.2166">
        <ele>1606</ele>
        <time>2018-06-08T09:08:43Z</time>
      </trkpt>
      <trkpt lat="44.23552" lon="6.21662">
        <ele>1606</ele>
        <time>2018-06-08T09:08:45Z</time>
      </trkpt>
      <trkpt lat="44.23553" lon="6.21664">
        <ele>1607</ele>
        <time>2018-06-08T09:08:47Z</time>
      </trkpt>
      <trkpt lat="44.23553" lon="6.21665">
        <ele>1607</ele>
        <time>2018-06-08T09:08:49Z</time>
      </trkpt>
      <trkpt lat="44.23554" lon="6.21667">
        <ele>1607</ele>
        <time>2018-06-08T09:08:51Z</time>
      </trkpt>
      <trkpt lat="44.23554" lon="6.21669">
        <ele>1607</ele>
        <time>2018-06-08T09:08:53Z</time>
      </trkpt>
      <trkpt lat="44.23555" lon="6.21671">
        <ele>1608</ele>
        <time>2018-06-08T09:08:55Z</time>
      </trkpt>
      <trkpt lat="44.23555" lon="6.21672">
        <ele>1608</ele>
        <time>2018-06-08T09:08:57Z</time>
      </trkpt>
      <trkpt lat="44.23555" lon="6.21674">
        <ele>1608</ele>
        <time>2018-06-08T09:08:59Z</time>
      </trkpt>
      <trkpt lat="44.23556" lon="6.21676">
        <ele>1609</ele>
        <time>2018-06-08T09:09:01Z</time>
      </trkpt>
      <trkpt lat="44.23557" lon="6.21678">
        <ele>1609</ele>
        <time>2018-06-08T09:09:03Z</time>
      </trkpt>
      <trkpt lat="44.23557" lon="6.2168">
        <ele>1609</ele>
        <time>2018-06-08T09:09:04Z</time>
      </trkpt>
      <trkpt lat="44.23557" lon="6.21682">
        <ele>1610</ele>
        <time>2018-06-08T09:09:06Z</time>
      </trkpt>
      <trkpt lat="44.23557" lon="6.21684">
        <ele>1610</ele>
        <time>2018-06-08T09:09:08Z</time>
      </trkpt>
      <trkpt lat="44.23557" lon="6.21686">
        <ele>1611</ele>
        <time>2018-06-08T09:09:10Z</time>
      </trkpt>
      <trkpt lat="44.23558" lon="6.21688">
        <ele>1611</ele>
        <time>2018-06-08T09:09:12Z</time>
      </trkpt>
      <trkpt lat="44.23558" lon="6.2169">
        <ele>1611</ele>
        <time>2018-06-08T09:09:14Z</time>
      </trkpt>
      <trkpt lat="44.23559" lon="6.21692">
        <ele>1612</ele>
        <time>2018-06-08T09:09:16Z</time>
      </trkpt>
      <trkpt lat="44.2356" lon="6.21693">
        <ele>1612</ele>
        <time>2018-06-08T09:09:18Z</time>
      </trkpt>
      <trkpt lat="44.23561" lon="6.21696">
        <ele>1612</ele>
        <time>2018-06-08T09:09:20Z</time>
      </trkpt>
      <trkpt lat="44.23561" lon="6.21697">
        <ele>1612</ele>
        <time>2018-06-08T09:09:22Z</time>
      </trkpt>
      <trkpt lat="44.23562" lon="6.21699">
        <ele>1613</ele>
        <time>2018-06-08T09:09:24Z</time>
      </trkpt>
      <trkpt lat="44.23563" lon="6.21701">
        <ele>1613</ele>
        <time>2018-06-08T09:09:26Z</time>
      </trkpt>
      <trkpt lat="44.23563" lon="6.21703">
        <ele>1613</ele>
        <time>2018-06-08T09:09:28Z</time>
      </trkpt>
      <trkpt lat="44.23563" lon="6.21705">
        <ele>1614</ele>
        <time>2018-06-08T09:09:30Z</time>
      </trkpt>
      <trkpt lat="44.23563" lon="6.21707">
        <ele>1614</ele>
        <time>2018-06-08T09:09:32Z</time>
      </trkpt>
      <trkpt lat="44.23563" lon="6.21709">
        <ele>1614</ele>
        <time>2018-06-08T09:09:34Z</time>
      </trkpt>
      <trkpt lat="44.23564" lon="6.21711">
        <ele>1614</ele>
        <time>2018-06-08T09:09:36Z</time>
      </trkpt>
      <trkpt lat="44.23564" lon="6.21712">
        <ele>1615</ele>
        <time>2018-06-08T09:09:38Z</time>
      </trkpt>
      <trkpt lat="44.23564" lon="6.21714">
        <ele>1615</ele>
        <time>2018-06-08T09:09:40Z</time>
      </trkpt>
      <trkpt lat="44.23564" lon="6.21716">
        <ele>1615</ele>
        <time>2018-06-08T09:09:42Z</time>
      </trkpt>
      <trkpt lat="44.23565" lon="6.21718">
        <ele>1616</ele>
        <time>2018-06-08T09:09:44Z</time>
      </trkpt>
      <trkpt lat="44.23565" lon="6.2172">
        <ele>1616</ele>
        <time>2018-06-08T09:09:46Z</time>
      </trkpt>
      <trkpt lat="44.23566" lon="6.21722">
        <ele>1616</ele>
        <time>2018-06-08T09:09:48Z</time>
      </trkpt>
      <trkpt lat="44.23566" lon="6.21724">
        <ele>1617</ele>
        <time>2018-06-08T09:09:50Z</time>
      </trkpt>
      <trkpt lat="44.23567" lon="6.21726">
        <ele>1617</ele>
        <time>2018-06-08T09:09:52Z</time>
      </trkpt>
      <trkpt lat="44.23567" lon="6.21728">
        <ele>1617</ele>
        <time>2018-06-08T09:09:54Z</time>
      </trkpt>
      <trkpt lat="44.23568" lon="6.21729">
        <ele>1617</ele>
        <time>2018-06-08T09:09:56Z</time>
      </trkpt>
      <trkpt lat="44.23569" lon="6.21731">
        <ele>1617</ele>
        <time>2018-06-08T09:09:59Z</time>
      </trkpt>
      <trkpt lat="44.23569" lon="6.21733">
        <ele>1618</ele>
        <time>2018-06-08T09:10:01Z</time>
      </trkpt>
      <trkpt lat="44.23569" lon="6.21734">
        <ele>1618</ele>
        <time>2018-06-08T09:10:03Z</time>
      </trkpt>
      <trkpt lat="44.2357" lon="6.21736">
        <ele>1618</ele>
        <time>2018-06-08T09:10:05Z</time>
      </trkpt>
      <trkpt lat="44.23569" lon="6.21737">
        <ele>1619</ele>
        <time>2018-06-08T09:10:07Z</time>
      </trkpt>
      <trkpt lat="44.23569" lon="6.21739">
        <ele>1619</ele>
        <time>2018-06-08T09:10:09Z</time>
      </trkpt>
      <trkpt lat="44.23569" lon="6.2174">
        <ele>1619</ele>
        <time>2018-06-08T09:10:11Z</time>
      </trkpt>
      <trkpt lat="44.23569" lon="6.21742">
        <ele>1620</ele>
        <time>2018-06-08T09:10:13Z</time>
      </trkpt>
      <trkpt lat="44.23569" lon="6.21743">
        <ele>1620</ele>
        <time>2018-06-08T09:10:15Z</time>
      </trkpt>
      <trkpt lat="44.2357" lon="6.21745">
        <ele>1620</ele>
        <time>2018-06-08T09:10:17Z</time>
      </trkpt>
      <trkpt lat="44.2357" lon="6.21747">
        <ele>1621</ele>
        <time>2018-06-08T09:10:19Z</time>
      </trkpt>
      <trkpt lat="44.23571" lon="6.21749">
        <ele>1621</ele>
        <time>2018-06-08T09:10:21Z</time>
      </trkpt>
      <trkpt lat="44.23571" lon="6.2175">
        <ele>1621</ele>
        <time>2018-06-08T09:10:23Z</time>
      </trkpt>
      <trkpt lat="44.23572" lon="6.21752">
        <ele>1621</ele>
        <time>2018-06-08T09:10:25Z</time>
      </trkpt>
      <trkpt lat="44.23573" lon="6.21754">
        <ele>1622</ele>
        <time>2018-06-08T09:10:28Z</time>
      </trkpt>
      <trkpt lat="44.23573" lon="6.21756">
        <ele>1622</ele>
        <time>2018-06-08T09:10:30Z</time>
      </trkpt>
      <trkpt lat="44.23574" lon="6.21758">
        <ele>1623</ele>
        <time>2018-06-08T09:10:32Z</time>
      </trkpt>
      <trkpt lat="44.23574" lon="6.21759">
        <ele>1623</ele>
        <time>2018-06-08T09:10:34Z</time>
      </trkpt>
      <trkpt lat="44.23575" lon="6.21761">
        <ele>1624</ele>
        <time>2018-06-08T09:10:36Z</time>
      </trkpt>
      <trkpt lat="44.23575" lon="6.21763">
        <ele>1624</ele>
        <time>2018-06-08T09:10:39Z</time>
      </trkpt>
      <trkpt lat="44.23576" lon="6.21765">
        <ele>1625</ele>
        <time>2018-06-08T09:10:42Z</time>
      </trkpt>
      <trkpt lat="44.23577" lon="6.21766">
        <ele>1625</ele>
        <time>2018-06-08T09:10:44Z</time>
      </trkpt>
      <trkpt lat="44.23578" lon="6.21768">
        <ele>1625</ele>
        <time>2018-06-08T09:10:46Z</time>
      </trkpt>
      <trkpt lat="44.23579" lon="6.21769">
        <ele>1626</ele>
        <time>2018-06-08T09:10:49Z</time>
      </trkpt>
      <trkpt lat="44.23581" lon="6.2177">
        <ele>1626</ele>
        <time>2018-06-08T09:10:52Z</time>
      </trkpt>
      <trkpt lat="44.23581" lon="6.21772">
        <ele>1626</ele>
        <time>2018-06-08T09:10:54Z</time>
      </trkpt>
      <trkpt lat="44.23583" lon="6.21774">
        <ele>1627</ele>
        <time>2018-06-08T09:10:57Z</time>
      </trkpt>
      <trkpt lat="44.23583" lon="6.21776">
        <ele>1627</ele>
        <time>2018-06-08T09:10:59Z</time>
      </trkpt>
      <trkpt lat="44.23583" lon="6.21778">
        <ele>1627</ele>
        <time>2018-06-08T09:11:00Z</time>
      </trkpt>
      <trkpt lat="44.23583" lon="6.2178">
        <ele>1627</ele>
        <time>2018-06-08T09:11:02Z</time>
      </trkpt>
      <trkpt lat="44.23583" lon="6.21782">
        <ele>1627</ele>
        <time>2018-06-08T09:11:04Z</time>
      </trkpt>
      <trkpt lat="44.23582" lon="6.21783">
        <ele>1627</ele>
        <time>2018-06-08T09:11:06Z</time>
      </trkpt>
      <trkpt lat="44.23582" lon="6.21785">
        <ele>1628</ele>
        <time>2018-06-08T09:11:09Z</time>
      </trkpt>
      <trkpt lat="44.23581" lon="6.21786">
        <ele>1628</ele>
        <time>2018-06-08T09:11:15Z</time>
      </trkpt>
      <trkpt lat="44.23582" lon="6.21788">
        <ele>1628</ele>
        <time>2018-06-08T09:11:22Z</time>
      </trkpt>
      <trkpt lat="44.23581" lon="6.21788">
        <ele>1628</ele>
        <time>2018-06-08T09:11:28Z</time>
      </trkpt>
      <trkpt lat="44.23579" lon="6.21787">
        <ele>1629</ele>
        <time>2018-06-08T09:11:31Z</time>
      </trkpt>
      <trkpt lat="44.23581" lon="6.21788">
        <ele>1632</ele>
        <time>2018-06-08T09:11:39Z</time>
      </trkpt>
      <trkpt lat="44.23582" lon="6.21789">
        <ele>1632</ele>
        <time>2018-06-08T09:11:44Z</time>
      </trkpt>
      <trkpt lat="44.2358" lon="6.21788">
        <ele>1630</ele>
        <time>2018-06-08T09:11:54Z</time>
      </trkpt>
      <trkpt lat="44.23579" lon="6.21789">
        <ele>1630</ele>
        <time>2018-06-08T09:12:08Z</time>
      </trkpt>
      <trkpt lat="44.23581" lon="6.21789">
        <ele>1630</ele>
        <time>2018-06-08T09:12:19Z</time>
      </trkpt>
      <trkpt lat="44.23582" lon="6.21788">
        <ele>1630</ele>
        <time>2018-06-08T09:12:24Z</time>
      </trkpt>
      <trkpt lat="44.2358" lon="6.2179">
        <ele>1630</ele>
        <time>2018-06-08T09:12:39Z</time>
      </trkpt>
      <trkpt lat="44.23579" lon="6.21792">
        <ele>1630</ele>
        <time>2018-06-08T09:12:41Z</time>
      </trkpt>
      <trkpt lat="44.23579" lon="6.21795">
        <ele>1630</ele>
        <time>2018-06-08T09:12:43Z</time>
      </trkpt>
      <trkpt lat="44.23579" lon="6.21797">
        <ele>1630</ele>
        <time>2018-06-08T09:12:44Z</time>
      </trkpt>
      <trkpt lat="44.23579" lon="6.21799">
        <ele>1630</ele>
        <time>2018-06-08T09:12:45Z</time>
      </trkpt>
      <trkpt lat="44.23579" lon="6.218">
        <ele>1630</ele>
        <time>2018-06-08T09:12:46Z</time>
      </trkpt>
      <trkpt lat="44.23578" lon="6.21802">
        <ele>1630</ele>
        <time>2018-06-08T09:12:47Z</time>
      </trkpt>
      <trkpt lat="44.23578" lon="6.21804">
        <ele>1630</ele>
        <time>2018-06-08T09:12:49Z</time>
      </trkpt>
      <trkpt lat="44.23578" lon="6.21806">
        <ele>1630</ele>
        <time>2018-06-08T09:12:51Z</time>
      </trkpt>
      <trkpt lat="44.23578" lon="6.21808">
        <ele>1630</ele>
        <time>2018-06-08T09:12:53Z</time>
      </trkpt>
      <trkpt lat="44.23579" lon="6.2181">
        <ele>1630</ele>
        <time>2018-06-08T09:12:55Z</time>
      </trkpt>
      <trkpt lat="44.23579" lon="6.21812">
        <ele>1630</ele>
        <time>2018-06-08T09:12:57Z</time>
      </trkpt>
      <trkpt lat="44.2358" lon="6.21814">
        <ele>1630</ele>
        <time>2018-06-08T09:12:59Z</time>
      </trkpt>
      <trkpt lat="44.23581" lon="6.21816">
        <ele>1631</ele>
        <time>2018-06-08T09:13:01Z</time>
      </trkpt>
      <trkpt lat="44.23582" lon="6.21817">
        <ele>1631</ele>
        <time>2018-06-08T09:13:03Z</time>
      </trkpt>
      <trkpt lat="44.23583" lon="6.21819">
        <ele>1632</ele>
        <time>2018-06-08T09:13:05Z</time>
      </trkpt>
      <trkpt lat="44.23583" lon="6.21821">
        <ele>1632</ele>
        <time>2018-06-08T09:13:07Z</time>
      </trkpt>
      <trkpt lat="44.23582" lon="6.21823">
        <ele>1633</ele>
        <time>2018-06-08T09:13:09Z</time>
      </trkpt>
      <trkpt lat="44.23581" lon="6.21825">
        <ele>1633</ele>
        <time>2018-06-08T09:13:11Z</time>
      </trkpt>
      <trkpt lat="44.23581" lon="6.21827">
        <ele>1634</ele>
        <time>2018-06-08T09:13:13Z</time>
      </trkpt>
      <trkpt lat="44.23581" lon="6.21829">
        <ele>1634</ele>
        <time>2018-06-08T09:13:15Z</time>
      </trkpt>
      <trkpt lat="44.23581" lon="6.2183">
        <ele>1634</ele>
        <time>2018-06-08T09:13:16Z</time>
      </trkpt>
      <trkpt lat="44.23581" lon="6.21832">
        <ele>1635</ele>
        <time>2018-06-08T09:13:17Z</time>
      </trkpt>
      <trkpt lat="44.23582" lon="6.21834">
        <ele>1635</ele>
        <time>2018-06-08T09:13:19Z</time>
      </trkpt>
      <trkpt lat="44.23582" lon="6.21836">
        <ele>1635</ele>
        <time>2018-06-08T09:13:20Z</time>
      </trkpt>
      <trkpt lat="44.23582" lon="6.21837">
        <ele>1635</ele>
        <time>2018-06-08T09:13:21Z</time>
      </trkpt>
      <trkpt lat="44.23581" lon="6.2184">
        <ele>1635</ele>
        <time>2018-06-08T09:13:23Z</time>
      </trkpt>
      <trkpt lat="44.23581" lon="6.21841">
        <ele>1635</ele>
        <time>2018-06-08T09:13:25Z</time>
      </trkpt>
      <trkpt lat="44.2358" lon="6.21843">
        <ele>1635</ele>
        <time>2018-06-08T09:13:27Z</time>
      </trkpt>
      <trkpt lat="44.2358" lon="6.21845">
        <ele>1636</ele>
        <time>2018-06-08T09:13:30Z</time>
      </trkpt>
      <trkpt lat="44.23579" lon="6.21847">
        <ele>1636</ele>
        <time>2018-06-08T09:13:32Z</time>
      </trkpt>
      <trkpt lat="44.2358" lon="6.21849">
        <ele>1636</ele>
        <time>2018-06-08T09:13:34Z</time>
      </trkpt>
      <trkpt lat="44.2358" lon="6.21851">
        <ele>1637</ele>
        <time>2018-06-08T09:13:36Z</time>
      </trkpt>
      <trkpt lat="44.23581" lon="6.21853">
        <ele>1637</ele>
        <time>2018-06-08T09:13:38Z</time>
      </trkpt>
      <trkpt lat="44.23582" lon="6.21855">
        <ele>1637</ele>
        <time>2018-06-08T09:13:40Z</time>
      </trkpt>
      <trkpt lat="44.23583" lon="6.21857">
        <ele>1637</ele>
        <time>2018-06-08T09:13:42Z</time>
      </trkpt>
      <trkpt lat="44.23584" lon="6.21859">
        <ele>1637</ele>
        <time>2018-06-08T09:13:44Z</time>
      </trkpt>
      <trkpt lat="44.23584" lon="6.21861">
        <ele>1638</ele>
        <time>2018-06-08T09:13:46Z</time>
      </trkpt>
      <trkpt lat="44.23585" lon="6.21863">
        <ele>1638</ele>
        <time>2018-06-08T09:13:48Z</time>
      </trkpt>
      <trkpt lat="44.23586" lon="6.21865">
        <ele>1638</ele>
        <time>2018-06-08T09:13:50Z</time>
      </trkpt>
      <trkpt lat="44.23586" lon="6.21867">
        <ele>1639</ele>
        <time>2018-06-08T09:13:52Z</time>
      </trkpt>
      <trkpt lat="44.23587" lon="6.21869">
        <ele>1639</ele>
        <time>2018-06-08T09:13:54Z</time>
      </trkpt>
      <trkpt lat="44.23587" lon="6.21872">
        <ele>1639</ele>
        <time>2018-06-08T09:13:56Z</time>
      </trkpt>
      <trkpt lat="44.23588" lon="6.21874">
        <ele>1640</ele>
        <time>2018-06-08T09:13:58Z</time>
      </trkpt>
      <trkpt lat="44.23588" lon="6.21876">
        <ele>1640</ele>
        <time>2018-06-08T09:14:00Z</time>
      </trkpt>
      <trkpt lat="44.23589" lon="6.21879">
        <ele>1640</ele>
        <time>2018-06-08T09:14:02Z</time>
      </trkpt>
      <trkpt lat="44.23589" lon="6.21882">
        <ele>1640</ele>
        <time>2018-06-08T09:14:04Z</time>
      </trkpt>
      <trkpt lat="44.23589" lon="6.21883">
        <ele>1640</ele>
        <time>2018-06-08T09:14:05Z</time>
      </trkpt>
      <trkpt lat="44.2359" lon="6.21886">
        <ele>1640</ele>
        <time>2018-06-08T09:14:07Z</time>
      </trkpt>
      <trkpt lat="44.23591" lon="6.21888">
        <ele>1640</ele>
        <time>2018-06-08T09:14:09Z</time>
      </trkpt>
      <trkpt lat="44.23593" lon="6.21889">
        <ele>1640</ele>
        <time>2018-06-08T09:14:11Z</time>
      </trkpt>
      <trkpt lat="44.23594" lon="6.21891">
        <ele>1640</ele>
        <time>2018-06-08T09:14:13Z</time>
      </trkpt>
      <trkpt lat="44.23595" lon="6.21893">
        <ele>1640</ele>
        <time>2018-06-08T09:14:15Z</time>
      </trkpt>
      <trkpt lat="44.23597" lon="6.21894">
        <ele>1640</ele>
        <time>2018-06-08T09:14:17Z</time>
      </trkpt>
      <trkpt lat="44.23598" lon="6.21896">
        <ele>1640</ele>
        <time>2018-06-08T09:14:19Z</time>
      </trkpt>
      <trkpt lat="44.236" lon="6.21898">
        <ele>1640</ele>
        <time>2018-06-08T09:14:21Z</time>
      </trkpt>
      <trkpt lat="44.236" lon="6.219">
        <ele>1640</ele>
        <time>2018-06-08T09:14:23Z</time>
      </trkpt>
      <trkpt lat="44.23601" lon="6.21902">
        <ele>1640</ele>
        <time>2018-06-08T09:14:25Z</time>
      </trkpt>
      <trkpt lat="44.23603" lon="6.21904">
        <ele>1640</ele>
        <time>2018-06-08T09:14:27Z</time>
      </trkpt>
      <trkpt lat="44.23603" lon="6.21906">
        <ele>1640</ele>
        <time>2018-06-08T09:14:29Z</time>
      </trkpt>
      <trkpt lat="44.23605" lon="6.21908">
        <ele>1640</ele>
        <time>2018-06-08T09:14:31Z</time>
      </trkpt>
      <trkpt lat="44.23606" lon="6.2191">
        <ele>1640</ele>
        <time>2018-06-08T09:14:33Z</time>
      </trkpt>
      <trkpt lat="44.23607" lon="6.21911">
        <ele>1640</ele>
        <time>2018-06-08T09:14:35Z</time>
      </trkpt>
      <trkpt lat="44.23608" lon="6.21913">
        <ele>1640</ele>
        <time>2018-06-08T09:14:37Z</time>
      </trkpt>
      <trkpt lat="44.2361" lon="6.21915">
        <ele>1640</ele>
        <time>2018-06-08T09:14:39Z</time>
      </trkpt>
      <trkpt lat="44.23611" lon="6.21917">
        <ele>1640</ele>
        <time>2018-06-08T09:14:41Z</time>
      </trkpt>
      <trkpt lat="44.23612" lon="6.2192">
        <ele>1640</ele>
        <time>2018-06-08T09:14:43Z</time>
      </trkpt>
      <trkpt lat="44.23612" lon="6.21922">
        <ele>1641</ele>
        <time>2018-06-08T09:14:45Z</time>
      </trkpt>
      <trkpt lat="44.23611" lon="6.21924">
        <ele>1641</ele>
        <time>2018-06-08T09:14:46Z</time>
      </trkpt>
      <trkpt lat="44.2361" lon="6.21926">
        <ele>1641</ele>
        <time>2018-06-08T09:14:48Z</time>
      </trkpt>
      <trkpt lat="44.23609" lon="6.21928">
        <ele>1642</ele>
        <time>2018-06-08T09:14:50Z</time>
      </trkpt>
      <trkpt lat="44.23607" lon="6.2193">
        <ele>1642</ele>
        <time>2018-06-08T09:14:52Z</time>
      </trkpt>
      <trkpt lat="44.23605" lon="6.21931">
        <ele>1642</ele>
        <time>2018-06-08T09:14:54Z</time>
      </trkpt>
      <trkpt lat="44.23604" lon="6.21933">
        <ele>1642</ele>
        <time>2018-06-08T09:14:56Z</time>
      </trkpt>
      <trkpt lat="44.23603" lon="6.21934">
        <ele>1642</ele>
        <time>2018-06-08T09:14:58Z</time>
      </trkpt>
      <trkpt lat="44.23602" lon="6.21936">
        <ele>1643</ele>
        <time>2018-06-08T09:15:00Z</time>
      </trkpt>
      <trkpt lat="44.236" lon="6.21938">
        <ele>1643</ele>
        <time>2018-06-08T09:15:02Z</time>
      </trkpt>
      <trkpt lat="44.236" lon="6.21941">
        <ele>1643</ele>
        <time>2018-06-08T09:15:04Z</time>
      </trkpt>
      <trkpt lat="44.23598" lon="6.21943">
        <ele>1644</ele>
        <time>2018-06-08T09:15:06Z</time>
      </trkpt>
      <trkpt lat="44.23598" lon="6.21945">
        <ele>1644</ele>
        <time>2018-06-08T09:15:07Z</time>
      </trkpt>
      <trkpt lat="44.23597" lon="6.21947">
        <ele>1644</ele>
        <time>2018-06-08T09:15:09Z</time>
      </trkpt>
      <trkpt lat="44.23597" lon="6.21949">
        <ele>1644</ele>
        <time>2018-06-08T09:15:10Z</time>
      </trkpt>
      <trkpt lat="44.23596" lon="6.21951">
        <ele>1644</ele>
        <time>2018-06-08T09:15:12Z</time>
      </trkpt>
      <trkpt lat="44.23595" lon="6.21953">
        <ele>1645</ele>
        <time>2018-06-08T09:15:14Z</time>
      </trkpt>
      <trkpt lat="44.23595" lon="6.21955">
        <ele>1645</ele>
        <time>2018-06-08T09:15:16Z</time>
      </trkpt>
      <trkpt lat="44.23594" lon="6.21958">
        <ele>1645</ele>
        <time>2018-06-08T09:15:18Z</time>
      </trkpt>
      <trkpt lat="44.23594" lon="6.2196">
        <ele>1645</ele>
        <time>2018-06-08T09:15:20Z</time>
      </trkpt>
      <trkpt lat="44.23594" lon="6.21963">
        <ele>1645</ele>
        <time>2018-06-08T09:15:22Z</time>
      </trkpt>
      <trkpt lat="44.23593" lon="6.21965">
        <ele>1646</ele>
        <time>2018-06-08T09:15:24Z</time>
      </trkpt>
      <trkpt lat="44.23593" lon="6.21968">
        <ele>1646</ele>
        <time>2018-06-08T09:15:26Z</time>
      </trkpt>
      <trkpt lat="44.23592" lon="6.2197">
        <ele>1646</ele>
        <time>2018-06-08T09:15:28Z</time>
      </trkpt>
      <trkpt lat="44.23592" lon="6.21973">
        <ele>1646</ele>
        <time>2018-06-08T09:15:30Z</time>
      </trkpt>
      <trkpt lat="44.23591" lon="6.21975">
        <ele>1646</ele>
        <time>2018-06-08T09:15:31Z</time>
      </trkpt>
      <trkpt lat="44.23591" lon="6.21976">
        <ele>1646</ele>
        <time>2018-06-08T09:15:32Z</time>
      </trkpt>
      <trkpt lat="44.2359" lon="6.21979">
        <ele>1646</ele>
        <time>2018-06-08T09:15:34Z</time>
      </trkpt>
      <trkpt lat="44.2359" lon="6.2198">
        <ele>1646</ele>
        <time>2018-06-08T09:15:35Z</time>
      </trkpt>
      <trkpt lat="44.2359" lon="6.21982">
        <ele>1646</ele>
        <time>2018-06-08T09:15:36Z</time>
      </trkpt>
      <trkpt lat="44.2359" lon="6.21983">
        <ele>1646</ele>
        <time>2018-06-08T09:15:37Z</time>
      </trkpt>
      <trkpt lat="44.2359" lon="6.21985">
        <ele>1646</ele>
        <time>2018-06-08T09:15:38Z</time>
      </trkpt>
      <trkpt lat="44.2359" lon="6.21987">
        <ele>1647</ele>
        <time>2018-06-08T09:15:40Z</time>
      </trkpt>
      <trkpt lat="44.2359" lon="6.2199">
        <ele>1647</ele>
        <time>2018-06-08T09:15:42Z</time>
      </trkpt>
      <trkpt lat="44.23591" lon="6.21991">
        <ele>1647</ele>
        <time>2018-06-08T09:15:43Z</time>
      </trkpt>
      <trkpt lat="44.23591" lon="6.21993">
        <ele>1647</ele>
        <time>2018-06-08T09:15:44Z</time>
      </trkpt>
      <trkpt lat="44.23591" lon="6.21994">
        <ele>1647</ele>
        <time>2018-06-08T09:15:45Z</time>
      </trkpt>
      <trkpt lat="44.23591" lon="6.21996">
        <ele>1647</ele>
        <time>2018-06-08T09:15:46Z</time>
      </trkpt>
      <trkpt lat="44.23591" lon="6.21997">
        <ele>1647</ele>
        <time>2018-06-08T09:15:47Z</time>
      </trkpt>
      <trkpt lat="44.23592" lon="6.22">
        <ele>1647</ele>
        <time>2018-06-08T09:15:49Z</time>
      </trkpt>
      <trkpt lat="44.23592" lon="6.22003">
        <ele>1647</ele>
        <time>2018-06-08T09:15:51Z</time>
      </trkpt>
      <trkpt lat="44.23592" lon="6.22004">
        <ele>1647</ele>
        <time>2018-06-08T09:16:10Z</time>
      </trkpt>
      <trkpt lat="44.23592" lon="6.22006">
        <ele>1647</ele>
        <time>2018-06-08T09:16:12Z</time>
      </trkpt>
      <trkpt lat="44.23592" lon="6.22008">
        <ele>1647</ele>
        <time>2018-06-08T09:16:14Z</time>
      </trkpt>
      <trkpt lat="44.23593" lon="6.2201">
        <ele>1647</ele>
        <time>2018-06-08T09:16:19Z</time>
      </trkpt>
      <trkpt lat="44.23594" lon="6.22012">
        <ele>1648</ele>
        <time>2018-06-08T09:16:21Z</time>
      </trkpt>
      <trkpt lat="44.23594" lon="6.22015">
        <ele>1648</ele>
        <time>2018-06-08T09:16:23Z</time>
      </trkpt>
      <trkpt lat="44.23595" lon="6.22017">
        <ele>1648</ele>
        <time>2018-06-08T09:16:25Z</time>
      </trkpt>
      <trkpt lat="44.23595" lon="6.22019">
        <ele>1648</ele>
        <time>2018-06-08T09:16:26Z</time>
      </trkpt>
      <trkpt lat="44.23595" lon="6.22021">
        <ele>1648</ele>
        <time>2018-06-08T09:16:27Z</time>
      </trkpt>
      <trkpt lat="44.23596" lon="6.22022">
        <ele>1648</ele>
        <time>2018-06-08T09:16:28Z</time>
      </trkpt>
      <trkpt lat="44.23596" lon="6.22024">
        <ele>1648</ele>
        <time>2018-06-08T09:16:29Z</time>
      </trkpt>
      <trkpt lat="44.23597" lon="6.22026">
        <ele>1648</ele>
        <time>2018-06-08T09:16:31Z</time>
      </trkpt>
      <trkpt lat="44.23597" lon="6.22028">
        <ele>1648</ele>
        <time>2018-06-08T09:16:32Z</time>
      </trkpt>
      <trkpt lat="44.23597" lon="6.2203">
        <ele>1648</ele>
        <time>2018-06-08T09:16:34Z</time>
      </trkpt>
      <trkpt lat="44.23598" lon="6.22032">
        <ele>1648</ele>
        <time>2018-06-08T09:16:36Z</time>
      </trkpt>
      <trkpt lat="44.23599" lon="6.22034">
        <ele>1649</ele>
        <time>2018-06-08T09:16:44Z</time>
      </trkpt>
      <trkpt lat="44.236" lon="6.22037">
        <ele>1649</ele>
        <time>2018-06-08T09:16:46Z</time>
      </trkpt>
      <trkpt lat="44.236" lon="6.22038">
        <ele>1649</ele>
        <time>2018-06-08T09:16:47Z</time>
      </trkpt>
      <trkpt lat="44.23601" lon="6.2204">
        <ele>1649</ele>
        <time>2018-06-08T09:16:48Z</time>
      </trkpt>
      <trkpt lat="44.23602" lon="6.22041">
        <ele>1649</ele>
        <time>2018-06-08T09:16:49Z</time>
      </trkpt>
      <trkpt lat="44.23602" lon="6.22043">
        <ele>1649</ele>
        <time>2018-06-08T09:16:50Z</time>
      </trkpt>
      <trkpt lat="44.23603" lon="6.22045">
        <ele>1649</ele>
        <time>2018-06-08T09:16:51Z</time>
      </trkpt>
      <trkpt lat="44.23603" lon="6.22046">
        <ele>1649</ele>
        <time>2018-06-08T09:16:52Z</time>
      </trkpt>
      <trkpt lat="44.23604" lon="6.22048">
        <ele>1649</ele>
        <time>2018-06-08T09:16:53Z</time>
      </trkpt>
      <trkpt lat="44.23605" lon="6.22049">
        <ele>1649</ele>
        <time>2018-06-08T09:16:54Z</time>
      </trkpt>
      <trkpt lat="44.23605" lon="6.22051">
        <ele>1649</ele>
        <time>2018-06-08T09:16:55Z</time>
      </trkpt>
      <trkpt lat="44.23606" lon="6.22052">
        <ele>1649</ele>
        <time>2018-06-08T09:16:56Z</time>
      </trkpt>
      <trkpt lat="44.23606" lon="6.22054">
        <ele>1649</ele>
        <time>2018-06-08T09:16:57Z</time>
      </trkpt>
      <trkpt lat="44.23607" lon="6.22056">
        <ele>1649</ele>
        <time>2018-06-08T09:16:58Z</time>
      </trkpt>
      <trkpt lat="44.23607" lon="6.22057">
        <ele>1649</ele>
        <time>2018-06-08T09:16:59Z</time>
      </trkpt>
      <trkpt lat="44.23608" lon="6.22059">
        <ele>1649</ele>
        <time>2018-06-08T09:17:00Z</time>
      </trkpt>
      <trkpt lat="44.23608" lon="6.22061">
        <ele>1649</ele>
        <time>2018-06-08T09:17:01Z</time>
      </trkpt>
      <trkpt lat="44.23609" lon="6.22062">
        <ele>1649</ele>
        <time>2018-06-08T09:17:02Z</time>
      </trkpt>
      <trkpt lat="44.2361" lon="6.22064">
        <ele>1649</ele>
        <time>2018-06-08T09:17:03Z</time>
      </trkpt>
      <trkpt lat="44.2361" lon="6.22065">
        <ele>1649</ele>
        <time>2018-06-08T09:17:04Z</time>
      </trkpt>
      <trkpt lat="44.23611" lon="6.22067">
        <ele>1649</ele>
        <time>2018-06-08T09:17:06Z</time>
      </trkpt>
      <trkpt lat="44.23612" lon="6.22069">
        <ele>1649</ele>
        <time>2018-06-08T09:17:11Z</time>
      </trkpt>
      <trkpt lat="44.23613" lon="6.22071">
        <ele>1649</ele>
        <time>2018-06-08T09:17:13Z</time>
      </trkpt>
      <trkpt lat="44.23613" lon="6.22073">
        <ele>1649</ele>
        <time>2018-06-08T09:17:14Z</time>
      </trkpt>
      <trkpt lat="44.23615" lon="6.22075">
        <ele>1649</ele>
        <time>2018-06-08T09:17:16Z</time>
      </trkpt>
      <trkpt lat="44.23616" lon="6.22077">
        <ele>1649</ele>
        <time>2018-06-08T09:17:18Z</time>
      </trkpt>
      <trkpt lat="44.23618" lon="6.22079">
        <ele>1649</ele>
        <time>2018-06-08T09:17:20Z</time>
      </trkpt>
      <trkpt lat="44.23619" lon="6.22081">
        <ele>1649</ele>
        <time>2018-06-08T09:17:22Z</time>
      </trkpt>
      <trkpt lat="44.23621" lon="6.22083">
        <ele>1649</ele>
        <time>2018-06-08T09:17:25Z</time>
      </trkpt>
      <trkpt lat="44.23622" lon="6.22084">
        <ele>1649</ele>
        <time>2018-06-08T09:17:27Z</time>
      </trkpt>
      <trkpt lat="44.23623" lon="6.22086">
        <ele>1649</ele>
        <time>2018-06-08T09:17:29Z</time>
      </trkpt>
      <trkpt lat="44.23624" lon="6.22088">
        <ele>1649</ele>
        <time>2018-06-08T09:17:31Z</time>
      </trkpt>
      <trkpt lat="44.23625" lon="6.2209">
        <ele>1649</ele>
        <time>2018-06-08T09:17:33Z</time>
      </trkpt>
      <trkpt lat="44.23626" lon="6.22092">
        <ele>1650</ele>
        <time>2018-06-08T09:17:35Z</time>
      </trkpt>
      <trkpt lat="44.23627" lon="6.22093">
        <ele>1650</ele>
        <time>2018-06-08T09:17:37Z</time>
      </trkpt>
      <trkpt lat="44.23628" lon="6.22095">
        <ele>1650</ele>
        <time>2018-06-08T09:17:39Z</time>
      </trkpt>
      <trkpt lat="44.23629" lon="6.22097">
        <ele>1650</ele>
        <time>2018-06-08T09:17:41Z</time>
      </trkpt>
      <trkpt lat="44.23631" lon="6.22099">
        <ele>1651</ele>
        <time>2018-06-08T09:17:43Z</time>
      </trkpt>
      <trkpt lat="44.23632" lon="6.221">
        <ele>1651</ele>
        <time>2018-06-08T09:17:45Z</time>
      </trkpt>
      <trkpt lat="44.23634" lon="6.22102">
        <ele>1651</ele>
        <time>2018-06-08T09:17:47Z</time>
      </trkpt>
      <trkpt lat="44.23635" lon="6.22104">
        <ele>1652</ele>
        <time>2018-06-08T09:17:49Z</time>
      </trkpt>
      <trkpt lat="44.23637" lon="6.22106">
        <ele>1652</ele>
        <time>2018-06-08T09:17:51Z</time>
      </trkpt>
      <trkpt lat="44.23638" lon="6.22109">
        <ele>1652</ele>
        <time>2018-06-08T09:17:53Z</time>
      </trkpt>
      <trkpt lat="44.23639" lon="6.22111">
        <ele>1652</ele>
        <time>2018-06-08T09:17:55Z</time>
      </trkpt>
      <trkpt lat="44.23639" lon="6.22114">
        <ele>1652</ele>
        <time>2018-06-08T09:17:57Z</time>
      </trkpt>
      <trkpt lat="44.2364" lon="6.22115">
        <ele>1652</ele>
        <time>2018-06-08T09:17:59Z</time>
      </trkpt>
      <trkpt lat="44.2364" lon="6.22118">
        <ele>1653</ele>
        <time>2018-06-08T09:18:01Z</time>
      </trkpt>
      <trkpt lat="44.23642" lon="6.2212">
        <ele>1653</ele>
        <time>2018-06-08T09:18:03Z</time>
      </trkpt>
      <trkpt lat="44.23642" lon="6.22122">
        <ele>1653</ele>
        <time>2018-06-08T09:18:05Z</time>
      </trkpt>
      <trkpt lat="44.23643" lon="6.22124">
        <ele>1654</ele>
        <time>2018-06-08T09:18:07Z</time>
      </trkpt>
      <trkpt lat="44.23643" lon="6.22126">
        <ele>1654</ele>
        <time>2018-06-08T09:18:09Z</time>
      </trkpt>
      <trkpt lat="44.23644" lon="6.22127">
        <ele>1654</ele>
        <time>2018-06-08T09:18:10Z</time>
      </trkpt>
      <trkpt lat="44.23645" lon="6.22129">
        <ele>1655</ele>
        <time>2018-06-08T09:18:12Z</time>
      </trkpt>
      <trkpt lat="44.23645" lon="6.22131">
        <ele>1655</ele>
        <time>2018-06-08T09:18:14Z</time>
      </trkpt>
      <trkpt lat="44.23646" lon="6.22134">
        <ele>1655</ele>
        <time>2018-06-08T09:18:16Z</time>
      </trkpt>
      <trkpt lat="44.23647" lon="6.22135">
        <ele>1655</ele>
        <time>2018-06-08T09:18:17Z</time>
      </trkpt>
      <trkpt lat="44.23647" lon="6.22138">
        <ele>1655</ele>
        <time>2018-06-08T09:18:19Z</time>
      </trkpt>
      <trkpt lat="44.23648" lon="6.22141">
        <ele>1655</ele>
        <time>2018-06-08T09:18:21Z</time>
      </trkpt>
      <trkpt lat="44.23648" lon="6.22143">
        <ele>1655</ele>
        <time>2018-06-08T09:18:23Z</time>
      </trkpt>
      <trkpt lat="44.23649" lon="6.22145">
        <ele>1655</ele>
        <time>2018-06-08T09:18:24Z</time>
      </trkpt>
      <trkpt lat="44.2365" lon="6.22147">
        <ele>1655</ele>
        <time>2018-06-08T09:18:26Z</time>
      </trkpt>
      <trkpt lat="44.2365" lon="6.2215">
        <ele>1655</ele>
        <time>2018-06-08T09:18:28Z</time>
      </trkpt>
      <trkpt lat="44.23651" lon="6.22152">
        <ele>1655</ele>
        <time>2018-06-08T09:18:30Z</time>
      </trkpt>
      <trkpt lat="44.23651" lon="6.22154">
        <ele>1655</ele>
        <time>2018-06-08T09:18:31Z</time>
      </trkpt>
      <trkpt lat="44.23652" lon="6.22156">
        <ele>1656</ele>
        <time>2018-06-08T09:18:33Z</time>
      </trkpt>
      <trkpt lat="44.23652" lon="6.22158">
        <ele>1656</ele>
        <time>2018-06-08T09:18:34Z</time>
      </trkpt>
      <trkpt lat="44.23653" lon="6.2216">
        <ele>1656</ele>
        <time>2018-06-08T09:18:36Z</time>
      </trkpt>
      <trkpt lat="44.23653" lon="6.22163">
        <ele>1656</ele>
        <time>2018-06-08T09:18:38Z</time>
      </trkpt>
      <trkpt lat="44.23655" lon="6.22165">
        <ele>1656</ele>
        <time>2018-06-08T09:18:40Z</time>
      </trkpt>
      <trkpt lat="44.23655" lon="6.22168">
        <ele>1656</ele>
        <time>2018-06-08T09:18:42Z</time>
      </trkpt>
      <trkpt lat="44.23655" lon="6.22169">
        <ele>1656</ele>
        <time>2018-06-08T09:18:43Z</time>
      </trkpt>
      <trkpt lat="44.23656" lon="6.22171">
        <ele>1656</ele>
        <time>2018-06-08T09:18:45Z</time>
      </trkpt>
      <trkpt lat="44.23657" lon="6.22173">
        <ele>1657</ele>
        <time>2018-06-08T09:18:47Z</time>
      </trkpt>
      <trkpt lat="44.23658" lon="6.22175">
        <ele>1657</ele>
        <time>2018-06-08T09:18:49Z</time>
      </trkpt>
      <trkpt lat="44.23658" lon="6.22178">
        <ele>1657</ele>
        <time>2018-06-08T09:18:51Z</time>
      </trkpt>
      <trkpt lat="44.23659" lon="6.2218">
        <ele>1657</ele>
        <time>2018-06-08T09:18:53Z</time>
      </trkpt>
      <trkpt lat="44.2366" lon="6.22182">
        <ele>1658</ele>
        <time>2018-06-08T09:18:55Z</time>
      </trkpt>
      <trkpt lat="44.2366" lon="6.22184">
        <ele>1658</ele>
        <time>2018-06-08T09:18:56Z</time>
      </trkpt>
      <trkpt lat="44.23661" lon="6.22185">
        <ele>1658</ele>
        <time>2018-06-08T09:18:57Z</time>
      </trkpt>
      <trkpt lat="44.23661" lon="6.22187">
        <ele>1658</ele>
        <time>2018-06-08T09:18:59Z</time>
      </trkpt>
      <trkpt lat="44.23661" lon="6.2219">
        <ele>1658</ele>
        <time>2018-06-08T09:19:01Z</time>
      </trkpt>
      <trkpt lat="44.23662" lon="6.22192">
        <ele>1658</ele>
        <time>2018-06-08T09:19:03Z</time>
      </trkpt>
      <trkpt lat="44.23663" lon="6.22194">
        <ele>1659</ele>
        <time>2018-06-08T09:19:05Z</time>
      </trkpt>
      <trkpt lat="44.23663" lon="6.22196">
        <ele>1659</ele>
        <time>2018-06-08T09:19:07Z</time>
      </trkpt>
      <trkpt lat="44.23664" lon="6.22198">
        <ele>1659</ele>
        <time>2018-06-08T09:19:09Z</time>
      </trkpt>
      <trkpt lat="44.23665" lon="6.222">
        <ele>1659</ele>
        <time>2018-06-08T09:19:11Z</time>
      </trkpt>
      <trkpt lat="44.23666" lon="6.22202">
        <ele>1660</ele>
        <time>2018-06-08T09:19:13Z</time>
      </trkpt>
      <trkpt lat="44.23666" lon="6.22203">
        <ele>1660</ele>
        <time>2018-06-08T09:19:15Z</time>
      </trkpt>
      <trkpt lat="44.23667" lon="6.22205">
        <ele>1660</ele>
        <time>2018-06-08T09:19:17Z</time>
      </trkpt>
      <trkpt lat="44.23668" lon="6.22207">
        <ele>1660</ele>
        <time>2018-06-08T09:19:19Z</time>
      </trkpt>
      <trkpt lat="44.23669" lon="6.22209">
        <ele>1660</ele>
        <time>2018-06-08T09:19:21Z</time>
      </trkpt>
      <trkpt lat="44.23669" lon="6.22211">
        <ele>1661</ele>
        <time>2018-06-08T09:19:23Z</time>
      </trkpt>
      <trkpt lat="44.23669" lon="6.22213">
        <ele>1661</ele>
        <time>2018-06-08T09:19:25Z</time>
      </trkpt>
      <trkpt lat="44.2367" lon="6.22215">
        <ele>1661</ele>
        <time>2018-06-08T09:19:27Z</time>
      </trkpt>
      <trkpt lat="44.23671" lon="6.22217">
        <ele>1661</ele>
        <time>2018-06-08T09:19:29Z</time>
      </trkpt>
      <trkpt lat="44.23671" lon="6.22219">
        <ele>1662</ele>
        <time>2018-06-08T09:19:31Z</time>
      </trkpt>
      <trkpt lat="44.23672" lon="6.22221">
        <ele>1662</ele>
        <time>2018-06-08T09:19:33Z</time>
      </trkpt>
      <trkpt lat="44.23673" lon="6.22223">
        <ele>1662</ele>
        <time>2018-06-08T09:19:35Z</time>
      </trkpt>
      <trkpt lat="44.23674" lon="6.22224">
        <ele>1663</ele>
        <time>2018-06-08T09:19:37Z</time>
      </trkpt>
      <trkpt lat="44.23674" lon="6.22226">
        <ele>1663</ele>
        <time>2018-06-08T09:19:39Z</time>
      </trkpt>
      <trkpt lat="44.23675" lon="6.22228">
        <ele>1663</ele>
        <time>2018-06-08T09:19:41Z</time>
      </trkpt>
      <trkpt lat="44.23675" lon="6.22229">
        <ele>1663</ele>
        <time>2018-06-08T09:19:43Z</time>
      </trkpt>
      <trkpt lat="44.23676" lon="6.22232">
        <ele>1663</ele>
        <time>2018-06-08T09:19:45Z</time>
      </trkpt>
      <trkpt lat="44.23677" lon="6.22234">
        <ele>1664</ele>
        <time>2018-06-08T09:19:47Z</time>
      </trkpt>
      <trkpt lat="44.23677" lon="6.22236">
        <ele>1664</ele>
        <time>2018-06-08T09:19:49Z</time>
      </trkpt>
      <trkpt lat="44.23678" lon="6.22238">
        <ele>1664</ele>
        <time>2018-06-08T09:19:51Z</time>
      </trkpt>
      <trkpt lat="44.23679" lon="6.22241">
        <ele>1664</ele>
        <time>2018-06-08T09:19:53Z</time>
      </trkpt>
      <trkpt lat="44.2368" lon="6.22243">
        <ele>1665</ele>
        <time>2018-06-08T09:19:55Z</time>
      </trkpt>
      <trkpt lat="44.23681" lon="6.22245">
        <ele>1665</ele>
        <time>2018-06-08T09:19:57Z</time>
      </trkpt>
      <trkpt lat="44.23682" lon="6.22247">
        <ele>1665</ele>
        <time>2018-06-08T09:19:59Z</time>
      </trkpt>
      <trkpt lat="44.23682" lon="6.22249">
        <ele>1665</ele>
        <time>2018-06-08T09:20:01Z</time>
      </trkpt>
      <trkpt lat="44.23684" lon="6.22251">
        <ele>1665</ele>
        <time>2018-06-08T09:20:03Z</time>
      </trkpt>
      <trkpt lat="44.23684" lon="6.22253">
        <ele>1666</ele>
        <time>2018-06-08T09:20:05Z</time>
      </trkpt>
      <trkpt lat="44.23685" lon="6.22255">
        <ele>1666</ele>
        <time>2018-06-08T09:20:07Z</time>
      </trkpt>
      <trkpt lat="44.23686" lon="6.22258">
        <ele>1666</ele>
        <time>2018-06-08T09:20:09Z</time>
      </trkpt>
      <trkpt lat="44.23687" lon="6.2226">
        <ele>1666</ele>
        <time>2018-06-08T09:20:11Z</time>
      </trkpt>
      <trkpt lat="44.23687" lon="6.22262">
        <ele>1667</ele>
        <time>2018-06-08T09:20:13Z</time>
      </trkpt>
      <trkpt lat="44.23688" lon="6.22265">
        <ele>1667</ele>
        <time>2018-06-08T09:20:15Z</time>
      </trkpt>
      <trkpt lat="44.23689" lon="6.22267">
        <ele>1667</ele>
        <time>2018-06-08T09:20:17Z</time>
      </trkpt>
      <trkpt lat="44.2369" lon="6.22269">
        <ele>1667</ele>
        <time>2018-06-08T09:20:19Z</time>
      </trkpt>
      <trkpt lat="44.2369" lon="6.22272">
        <ele>1667</ele>
        <time>2018-06-08T09:20:21Z</time>
      </trkpt>
      <trkpt lat="44.23691" lon="6.22274">
        <ele>1667</ele>
        <time>2018-06-08T09:20:23Z</time>
      </trkpt>
      <trkpt lat="44.23692" lon="6.22276">
        <ele>1668</ele>
        <time>2018-06-08T09:20:24Z</time>
      </trkpt>
      <trkpt lat="44.23692" lon="6.22278">
        <ele>1668</ele>
        <time>2018-06-08T09:20:26Z</time>
      </trkpt>
      <trkpt lat="44.23693" lon="6.22281">
        <ele>1668</ele>
        <time>2018-06-08T09:20:28Z</time>
      </trkpt>
      <trkpt lat="44.23694" lon="6.22283">
        <ele>1668</ele>
        <time>2018-06-08T09:20:30Z</time>
      </trkpt>
      <trkpt lat="44.23695" lon="6.22285">
        <ele>1668</ele>
        <time>2018-06-08T09:20:32Z</time>
      </trkpt>
      <trkpt lat="44.23695" lon="6.22287">
        <ele>1669</ele>
        <time>2018-06-08T09:20:34Z</time>
      </trkpt>
      <trkpt lat="44.23696" lon="6.22289">
        <ele>1669</ele>
        <time>2018-06-08T09:20:36Z</time>
      </trkpt>
      <trkpt lat="44.23697" lon="6.22291">
        <ele>1669</ele>
        <time>2018-06-08T09:20:38Z</time>
      </trkpt>
      <trkpt lat="44.23698" lon="6.22294">
        <ele>1669</ele>
        <time>2018-06-08T09:20:40Z</time>
      </trkpt>
      <trkpt lat="44.23699" lon="6.22296">
        <ele>1670</ele>
        <time>2018-06-08T09:20:42Z</time>
      </trkpt>
      <trkpt lat="44.237" lon="6.22297">
        <ele>1670</ele>
        <time>2018-06-08T09:20:44Z</time>
      </trkpt>
      <trkpt lat="44.23701" lon="6.223">
        <ele>1670</ele>
        <time>2018-06-08T09:20:46Z</time>
      </trkpt>
      <trkpt lat="44.23701" lon="6.22301">
        <ele>1671</ele>
        <time>2018-06-08T09:20:48Z</time>
      </trkpt>
      <trkpt lat="44.23702" lon="6.22303">
        <ele>1671</ele>
        <time>2018-06-08T09:20:50Z</time>
      </trkpt>
      <trkpt lat="44.23703" lon="6.22305">
        <ele>1671</ele>
        <time>2018-06-08T09:20:52Z</time>
      </trkpt>
      <trkpt lat="44.23704" lon="6.22307">
        <ele>1671</ele>
        <time>2018-06-08T09:20:55Z</time>
      </trkpt>
      <trkpt lat="44.23705" lon="6.22309">
        <ele>1672</ele>
        <time>2018-06-08T09:20:57Z</time>
      </trkpt>
      <trkpt lat="44.23706" lon="6.22311">
        <ele>1672</ele>
        <time>2018-06-08T09:21:00Z</time>
      </trkpt>
      <trkpt lat="44.23708" lon="6.22313">
        <ele>1672</ele>
        <time>2018-06-08T09:21:03Z</time>
      </trkpt>
      <trkpt lat="44.23709" lon="6.22315">
        <ele>1673</ele>
        <time>2018-06-08T09:21:06Z</time>
      </trkpt>
      <trkpt lat="44.2371" lon="6.22316">
        <ele>1673</ele>
        <time>2018-06-08T09:21:09Z</time>
      </trkpt>
      <trkpt lat="44.23711" lon="6.22318">
        <ele>1674</ele>
        <time>2018-06-08T09:21:13Z</time>
      </trkpt>
      <trkpt lat="44.23712" lon="6.2232">
        <ele>1674</ele>
        <time>2018-06-08T09:21:16Z</time>
      </trkpt>
      <trkpt lat="44.23713" lon="6.22321">
        <ele>1674</ele>
        <time>2018-06-08T09:21:18Z</time>
      </trkpt>
      <trkpt lat="44.23714" lon="6.22323">
        <ele>1674</ele>
        <time>2018-06-08T09:21:21Z</time>
      </trkpt>
      <trkpt lat="44.23715" lon="6.22326">
        <ele>1675</ele>
        <time>2018-06-08T09:21:23Z</time>
      </trkpt>
      <trkpt lat="44.23716" lon="6.22327">
        <ele>1675</ele>
        <time>2018-06-08T09:21:25Z</time>
      </trkpt>
      <trkpt lat="44.23716" lon="6.22329">
        <ele>1675</ele>
        <time>2018-06-08T09:21:28Z</time>
      </trkpt>
      <trkpt lat="44.23717" lon="6.22331">
        <ele>1676</ele>
        <time>2018-06-08T09:21:31Z</time>
      </trkpt>
      <trkpt lat="44.23718" lon="6.22332">
        <ele>1676</ele>
        <time>2018-06-08T09:21:34Z</time>
      </trkpt>
      <trkpt lat="44.23719" lon="6.22334">
        <ele>1677</ele>
        <time>2018-06-08T09:21:37Z</time>
      </trkpt>
      <trkpt lat="44.2372" lon="6.22335">
        <ele>1677</ele>
        <time>2018-06-08T09:21:40Z</time>
      </trkpt>
      <trkpt lat="44.23722" lon="6.22337">
        <ele>1677</ele>
        <time>2018-06-08T09:21:43Z</time>
      </trkpt>
      <trkpt lat="44.23723" lon="6.22338">
        <ele>1677</ele>
        <time>2018-06-08T09:21:45Z</time>
      </trkpt>
      <trkpt lat="44.23724" lon="6.2234">
        <ele>1678</ele>
        <time>2018-06-08T09:21:49Z</time>
      </trkpt>
      <trkpt lat="44.23725" lon="6.22341">
        <ele>1678</ele>
        <time>2018-06-08T09:21:53Z</time>
      </trkpt>
      <trkpt lat="44.23726" lon="6.22343">
        <ele>1678</ele>
        <time>2018-06-08T09:21:56Z</time>
      </trkpt>
      <trkpt lat="44.23728" lon="6.22344">
        <ele>1679</ele>
        <time>2018-06-08T09:21:59Z</time>
      </trkpt>
      <trkpt lat="44.23729" lon="6.22346">
        <ele>1679</ele>
        <time>2018-06-08T09:22:01Z</time>
      </trkpt>
      <trkpt lat="44.23729" lon="6.22347">
        <ele>1679</ele>
        <time>2018-06-08T09:22:03Z</time>
      </trkpt>
      <trkpt lat="44.2373" lon="6.22349">
        <ele>1680</ele>
        <time>2018-06-08T09:22:05Z</time>
      </trkpt>
      <trkpt lat="44.23731" lon="6.22351">
        <ele>1680</ele>
        <time>2018-06-08T09:22:07Z</time>
      </trkpt>
      <trkpt lat="44.23731" lon="6.22353">
        <ele>1680</ele>
        <time>2018-06-08T09:22:09Z</time>
      </trkpt>
      <trkpt lat="44.23732" lon="6.22355">
        <ele>1680</ele>
        <time>2018-06-08T09:22:11Z</time>
      </trkpt>
      <trkpt lat="44.23732" lon="6.22356">
        <ele>1681</ele>
        <time>2018-06-08T09:22:13Z</time>
      </trkpt>
      <trkpt lat="44.23732" lon="6.22358">
        <ele>1681</ele>
        <time>2018-06-08T09:22:15Z</time>
      </trkpt>
      <trkpt lat="44.23733" lon="6.2236">
        <ele>1681</ele>
        <time>2018-06-08T09:22:17Z</time>
      </trkpt>
      <trkpt lat="44.23734" lon="6.22361">
        <ele>1682</ele>
        <time>2018-06-08T09:22:19Z</time>
      </trkpt>
      <trkpt lat="44.23735" lon="6.22363">
        <ele>1682</ele>
        <time>2018-06-08T09:22:22Z</time>
      </trkpt>
      <trkpt lat="44.23736" lon="6.22365">
        <ele>1683</ele>
        <time>2018-06-08T09:22:25Z</time>
      </trkpt>
      <trkpt lat="44.23737" lon="6.22367">
        <ele>1683</ele>
        <time>2018-06-08T09:22:28Z</time>
      </trkpt>
      <trkpt lat="44.23738" lon="6.22369">
        <ele>1684</ele>
        <time>2018-06-08T09:22:31Z</time>
      </trkpt>
      <trkpt lat="44.23739" lon="6.2237">
        <ele>1684</ele>
        <time>2018-06-08T09:22:34Z</time>
      </trkpt>
      <trkpt lat="44.2374" lon="6.22372">
        <ele>1684</ele>
        <time>2018-06-08T09:22:37Z</time>
      </trkpt>
      <trkpt lat="44.23742" lon="6.22373">
        <ele>1685</ele>
        <time>2018-06-08T09:22:41Z</time>
      </trkpt>
      <trkpt lat="44.23743" lon="6.22374">
        <ele>1685</ele>
        <time>2018-06-08T09:22:44Z</time>
      </trkpt>
      <trkpt lat="44.23744" lon="6.22376">
        <ele>1685</ele>
        <time>2018-06-08T09:22:48Z</time>
      </trkpt>
      <trkpt lat="44.23745" lon="6.22378">
        <ele>1686</ele>
        <time>2018-06-08T09:22:52Z</time>
      </trkpt>
      <trkpt lat="44.23745" lon="6.2238">
        <ele>1686</ele>
        <time>2018-06-08T09:22:55Z</time>
      </trkpt>
      <trkpt lat="44.23746" lon="6.22382">
        <ele>1686</ele>
        <time>2018-06-08T09:22:58Z</time>
      </trkpt>
      <trkpt lat="44.23747" lon="6.22384">
        <ele>1687</ele>
        <time>2018-06-08T09:23:01Z</time>
      </trkpt>
      <trkpt lat="44.23748" lon="6.22386">
        <ele>1688</ele>
        <time>2018-06-08T09:23:04Z</time>
      </trkpt>
      <trkpt lat="44.23749" lon="6.22387">
        <ele>1688</ele>
        <time>2018-06-08T09:23:07Z</time>
      </trkpt>
      <trkpt lat="44.2375" lon="6.22389">
        <ele>1688</ele>
        <time>2018-06-08T09:23:09Z</time>
      </trkpt>
      <trkpt lat="44.23751" lon="6.22391">
        <ele>1689</ele>
        <time>2018-06-08T09:23:12Z</time>
      </trkpt>
      <trkpt lat="44.23751" lon="6.22392">
        <ele>1690</ele>
        <time>2018-06-08T09:23:15Z</time>
      </trkpt>
      <trkpt lat="44.23752" lon="6.22394">
        <ele>1690</ele>
        <time>2018-06-08T09:23:17Z</time>
      </trkpt>
      <trkpt lat="44.23753" lon="6.22395">
        <ele>1690</ele>
        <time>2018-06-08T09:23:19Z</time>
      </trkpt>
      <trkpt lat="44.23753" lon="6.22397">
        <ele>1690</ele>
        <time>2018-06-08T09:23:22Z</time>
      </trkpt>
      <trkpt lat="44.23754" lon="6.22399">
        <ele>1691</ele>
        <time>2018-06-08T09:23:25Z</time>
      </trkpt>
      <trkpt lat="44.23755" lon="6.224">
        <ele>1691</ele>
        <time>2018-06-08T09:23:28Z</time>
      </trkpt>
      <trkpt lat="44.23756" lon="6.22402">
        <ele>1692</ele>
        <time>2018-06-08T09:23:31Z</time>
      </trkpt>
      <trkpt lat="44.23756" lon="6.22403">
        <ele>1692</ele>
        <time>2018-06-08T09:23:34Z</time>
      </trkpt>
      <trkpt lat="44.23757" lon="6.22405">
        <ele>1693</ele>
        <time>2018-06-08T09:23:37Z</time>
      </trkpt>
      <trkpt lat="44.23758" lon="6.22407">
        <ele>1693</ele>
        <time>2018-06-08T09:23:39Z</time>
      </trkpt>
      <trkpt lat="44.23758" lon="6.22408">
        <ele>1694</ele>
        <time>2018-06-08T09:23:41Z</time>
      </trkpt>
      <trkpt lat="44.23759" lon="6.2241">
        <ele>1694</ele>
        <time>2018-06-08T09:23:44Z</time>
      </trkpt>
      <trkpt lat="44.2376" lon="6.22412">
        <ele>1695</ele>
        <time>2018-06-08T09:23:47Z</time>
      </trkpt>
      <trkpt lat="44.2376" lon="6.22413">
        <ele>1695</ele>
        <time>2018-06-08T09:23:49Z</time>
      </trkpt>
      <trkpt lat="44.23761" lon="6.22415">
        <ele>1696</ele>
        <time>2018-06-08T09:23:52Z</time>
      </trkpt>
      <trkpt lat="44.23761" lon="6.22416">
        <ele>1696</ele>
        <time>2018-06-08T09:23:55Z</time>
      </trkpt>
      <trkpt lat="44.23762" lon="6.22418">
        <ele>1697</ele>
        <time>2018-06-08T09:23:58Z</time>
      </trkpt>
      <trkpt lat="44.23763" lon="6.2242">
        <ele>1698</ele>
        <time>2018-06-08T09:24:01Z</time>
      </trkpt>
      <trkpt lat="44.23763" lon="6.22422">
        <ele>1698</ele>
        <time>2018-06-08T09:24:04Z</time>
      </trkpt>
      <trkpt lat="44.23764" lon="6.22423">
        <ele>1698</ele>
        <time>2018-06-08T09:24:07Z</time>
      </trkpt>
      <trkpt lat="44.23764" lon="6.22425">
        <ele>1699</ele>
        <time>2018-06-08T09:24:10Z</time>
      </trkpt>
      <trkpt lat="44.23765" lon="6.22426">
        <ele>1699</ele>
        <time>2018-06-08T09:24:12Z</time>
      </trkpt>
      <trkpt lat="44.23766" lon="6.22428">
        <ele>1699</ele>
        <time>2018-06-08T09:24:15Z</time>
      </trkpt>
      <trkpt lat="44.23766" lon="6.2243">
        <ele>1700</ele>
        <time>2018-06-08T09:24:17Z</time>
      </trkpt>
      <trkpt lat="44.23767" lon="6.22432">
        <ele>1700</ele>
        <time>2018-06-08T09:24:20Z</time>
      </trkpt>
      <trkpt lat="44.23768" lon="6.22434">
        <ele>1701</ele>
        <time>2018-06-08T09:24:22Z</time>
      </trkpt>
      <trkpt lat="44.23768" lon="6.22435">
        <ele>1701</ele>
        <time>2018-06-08T09:24:24Z</time>
      </trkpt>
      <trkpt lat="44.23769" lon="6.22437">
        <ele>1702</ele>
        <time>2018-06-08T09:24:27Z</time>
      </trkpt>
      <trkpt lat="44.23769" lon="6.22438">
        <ele>1703</ele>
        <time>2018-06-08T09:24:30Z</time>
      </trkpt>
      <trkpt lat="44.2377" lon="6.2244">
        <ele>1703</ele>
        <time>2018-06-08T09:24:32Z</time>
      </trkpt>
      <trkpt lat="44.23771" lon="6.22441">
        <ele>1704</ele>
        <time>2018-06-08T09:24:35Z</time>
      </trkpt>
      <trkpt lat="44.23771" lon="6.22443">
        <ele>1704</ele>
        <time>2018-06-08T09:24:38Z</time>
      </trkpt>
      <trkpt lat="44.23772" lon="6.22445">
        <ele>1705</ele>
        <time>2018-06-08T09:24:41Z</time>
      </trkpt>
      <trkpt lat="44.23772" lon="6.22447">
        <ele>1705</ele>
        <time>2018-06-08T09:24:44Z</time>
      </trkpt>
      <trkpt lat="44.23773" lon="6.22448">
        <ele>1706</ele>
        <time>2018-06-08T09:24:48Z</time>
      </trkpt>
      <trkpt lat="44.23774" lon="6.2245">
        <ele>1706</ele>
        <time>2018-06-08T09:24:51Z</time>
      </trkpt>
      <trkpt lat="44.23774" lon="6.22452">
        <ele>1706</ele>
        <time>2018-06-08T09:24:53Z</time>
      </trkpt>
      <trkpt lat="44.23775" lon="6.22453">
        <ele>1707</ele>
        <time>2018-06-08T09:24:56Z</time>
      </trkpt>
      <trkpt lat="44.23776" lon="6.22456">
        <ele>1708</ele>
        <time>2018-06-08T09:24:59Z</time>
      </trkpt>
      <trkpt lat="44.23777" lon="6.22457">
        <ele>1708</ele>
        <time>2018-06-08T09:25:02Z</time>
      </trkpt>
      <trkpt lat="44.23777" lon="6.22459">
        <ele>1709</ele>
        <time>2018-06-08T09:25:04Z</time>
      </trkpt>
      <trkpt lat="44.23778" lon="6.22461">
        <ele>1709</ele>
        <time>2018-06-08T09:25:08Z</time>
      </trkpt>
      <trkpt lat="44.23779" lon="6.22462">
        <ele>1709</ele>
        <time>2018-06-08T09:25:11Z</time>
      </trkpt>
      <trkpt lat="44.2378" lon="6.22464">
        <ele>1710</ele>
        <time>2018-06-08T09:25:14Z</time>
      </trkpt>
      <trkpt lat="44.2378" lon="6.22466">
        <ele>1710</ele>
        <time>2018-06-08T09:25:17Z</time>
      </trkpt>
      <trkpt lat="44.23781" lon="6.22468">
        <ele>1711</ele>
        <time>2018-06-08T09:25:20Z</time>
      </trkpt>
      <trkpt lat="44.23781" lon="6.22469">
        <ele>1711</ele>
        <time>2018-06-08T09:25:23Z</time>
      </trkpt>
      <trkpt lat="44.23781" lon="6.22471">
        <ele>1712</ele>
        <time>2018-06-08T09:25:27Z</time>
      </trkpt>
      <trkpt lat="44.23782" lon="6.22473">
        <ele>1712</ele>
        <time>2018-06-08T09:25:30Z</time>
      </trkpt>
      <trkpt lat="44.23782" lon="6.22474">
        <ele>1713</ele>
        <time>2018-06-08T09:25:33Z</time>
      </trkpt>
      <trkpt lat="44.23783" lon="6.22476">
        <ele>1713</ele>
        <time>2018-06-08T09:25:36Z</time>
      </trkpt>
      <trkpt lat="44.23783" lon="6.22478">
        <ele>1714</ele>
        <time>2018-06-08T09:25:39Z</time>
      </trkpt>
      <trkpt lat="44.23784" lon="6.2248">
        <ele>1714</ele>
        <time>2018-06-08T09:25:42Z</time>
      </trkpt>
      <trkpt lat="44.23785" lon="6.22482">
        <ele>1714</ele>
        <time>2018-06-08T09:25:44Z</time>
      </trkpt>
      <trkpt lat="44.23785" lon="6.22483">
        <ele>1715</ele>
        <time>2018-06-08T09:25:46Z</time>
      </trkpt>
      <trkpt lat="44.23785" lon="6.22485">
        <ele>1715</ele>
        <time>2018-06-08T09:25:48Z</time>
      </trkpt>
      <trkpt lat="44.23785" lon="6.22486">
        <ele>1715</ele>
        <time>2018-06-08T09:25:51Z</time>
      </trkpt>
      <trkpt lat="44.23786" lon="6.22488">
        <ele>1716</ele>
        <time>2018-06-08T09:25:54Z</time>
      </trkpt>
      <trkpt lat="44.23786" lon="6.2249">
        <ele>1716</ele>
        <time>2018-06-08T09:25:57Z</time>
      </trkpt>
      <trkpt lat="44.23787" lon="6.22492">
        <ele>1717</ele>
        <time>2018-06-08T09:25:59Z</time>
      </trkpt>
      <trkpt lat="44.23787" lon="6.22493">
        <ele>1717</ele>
        <time>2018-06-08T09:26:01Z</time>
      </trkpt>
      <trkpt lat="44.23787" lon="6.22495">
        <ele>1717</ele>
        <time>2018-06-08T09:26:03Z</time>
      </trkpt>
      <trkpt lat="44.23787" lon="6.22497">
        <ele>1718</ele>
        <time>2018-06-08T09:26:05Z</time>
      </trkpt>
      <trkpt lat="44.23788" lon="6.22498">
        <ele>1718</ele>
        <time>2018-06-08T09:26:07Z</time>
      </trkpt>
      <trkpt lat="44.23788" lon="6.225">
        <ele>1718</ele>
        <time>2018-06-08T09:26:09Z</time>
      </trkpt>
      <trkpt lat="44.23788" lon="6.22501">
        <ele>1718</ele>
        <time>2018-06-08T09:26:11Z</time>
      </trkpt>
      <trkpt lat="44.23788" lon="6.22503">
        <ele>1718</ele>
        <time>2018-06-08T09:26:13Z</time>
      </trkpt>
      <trkpt lat="44.23788" lon="6.22504">
        <ele>1718</ele>
        <time>2018-06-08T09:26:15Z</time>
      </trkpt>
      <trkpt lat="44.23788" lon="6.22506">
        <ele>1718</ele>
        <time>2018-06-08T09:26:17Z</time>
      </trkpt>
      <trkpt lat="44.23789" lon="6.22508">
        <ele>1719</ele>
        <time>2018-06-08T09:26:19Z</time>
      </trkpt>
      <trkpt lat="44.23789" lon="6.22509">
        <ele>1719</ele>
        <time>2018-06-08T09:26:21Z</time>
      </trkpt>
      <trkpt lat="44.23789" lon="6.22511">
        <ele>1719</ele>
        <time>2018-06-08T09:26:23Z</time>
      </trkpt>
      <trkpt lat="44.2379" lon="6.22512">
        <ele>1719</ele>
        <time>2018-06-08T09:26:25Z</time>
      </trkpt>
      <trkpt lat="44.2379" lon="6.22515">
        <ele>1720</ele>
        <time>2018-06-08T09:26:28Z</time>
      </trkpt>
      <trkpt lat="44.23791" lon="6.22516">
        <ele>1720</ele>
        <time>2018-06-08T09:26:31Z</time>
      </trkpt>
      <trkpt lat="44.23792" lon="6.22516">
        <ele>1720</ele>
        <time>2018-06-08T09:26:34Z</time>
      </trkpt>
      <trkpt lat="44.23793" lon="6.22515">
        <ele>1721</ele>
        <time>2018-06-08T09:26:37Z</time>
      </trkpt>
      <trkpt lat="44.23794" lon="6.22513">
        <ele>1721</ele>
        <time>2018-06-08T09:26:40Z</time>
      </trkpt>
      <trkpt lat="44.23795" lon="6.22511">
        <ele>1722</ele>
        <time>2018-06-08T09:26:42Z</time>
      </trkpt>
      <trkpt lat="44.23796" lon="6.2251">
        <ele>1723</ele>
        <time>2018-06-08T09:26:45Z</time>
      </trkpt>
      <trkpt lat="44.23798" lon="6.22508">
        <ele>1723</ele>
        <time>2018-06-08T09:26:48Z</time>
      </trkpt>
      <trkpt lat="44.23799" lon="6.22507">
        <ele>1724</ele>
        <time>2018-06-08T09:26:51Z</time>
      </trkpt>
      <trkpt lat="44.23801" lon="6.22505">
        <ele>1724</ele>
        <time>2018-06-08T09:26:54Z</time>
      </trkpt>
      <trkpt lat="44.23802" lon="6.22503">
        <ele>1724</ele>
        <time>2018-06-08T09:26:58Z</time>
      </trkpt>
      <trkpt lat="44.23803" lon="6.22502">
        <ele>1725</ele>
        <time>2018-06-08T09:27:00Z</time>
      </trkpt>
      <trkpt lat="44.23804" lon="6.225">
        <ele>1726</ele>
        <time>2018-06-08T09:27:03Z</time>
      </trkpt>
      <trkpt lat="44.23804" lon="6.22498">
        <ele>1726</ele>
        <time>2018-06-08T09:27:06Z</time>
      </trkpt>
      <trkpt lat="44.23806" lon="6.22496">
        <ele>1727</ele>
        <time>2018-06-08T09:27:09Z</time>
      </trkpt>
      <trkpt lat="44.23807" lon="6.22495">
        <ele>1727</ele>
        <time>2018-06-08T09:27:12Z</time>
      </trkpt>
      <trkpt lat="44.23808" lon="6.22493">
        <ele>1727</ele>
        <time>2018-06-08T09:27:15Z</time>
      </trkpt>
      <trkpt lat="44.23809" lon="6.22492">
        <ele>1728</ele>
        <time>2018-06-08T09:27:17Z</time>
      </trkpt>
      <trkpt lat="44.23811" lon="6.22492">
        <ele>1728</ele>
        <time>2018-06-08T09:27:19Z</time>
      </trkpt>
      <trkpt lat="44.23812" lon="6.22492">
        <ele>1728</ele>
        <time>2018-06-08T09:27:21Z</time>
      </trkpt>
      <trkpt lat="44.23813" lon="6.22491">
        <ele>1729</ele>
        <time>2018-06-08T09:27:23Z</time>
      </trkpt>
      <trkpt lat="44.23814" lon="6.2249">
        <ele>1729</ele>
        <time>2018-06-08T09:27:26Z</time>
      </trkpt>
      <trkpt lat="44.23816" lon="6.22489">
        <ele>1729</ele>
        <time>2018-06-08T09:27:29Z</time>
      </trkpt>
      <trkpt lat="44.23817" lon="6.22488">
        <ele>1730</ele>
        <time>2018-06-08T09:27:32Z</time>
      </trkpt>
      <trkpt lat="44.23819" lon="6.22488">
        <ele>1730</ele>
        <time>2018-06-08T09:27:34Z</time>
      </trkpt>
      <trkpt lat="44.2382" lon="6.22487">
        <ele>1730</ele>
        <time>2018-06-08T09:27:36Z</time>
      </trkpt>
      <trkpt lat="44.23822" lon="6.22486">
        <ele>1731</ele>
        <time>2018-06-08T09:27:39Z</time>
      </trkpt>
      <trkpt lat="44.23823" lon="6.22486">
        <ele>1731</ele>
        <time>2018-06-08T09:27:41Z</time>
      </trkpt>
      <trkpt lat="44.23824" lon="6.22486">
        <ele>1732</ele>
        <time>2018-06-08T09:27:43Z</time>
      </trkpt>
      <trkpt lat="44.23825" lon="6.22487">
        <ele>1732</ele>
        <time>2018-06-08T09:27:45Z</time>
      </trkpt>
      <trkpt lat="44.23826" lon="6.22489">
        <ele>1732</ele>
        <time>2018-06-08T09:27:48Z</time>
      </trkpt>
      <trkpt lat="44.23827" lon="6.22491">
        <ele>1732</ele>
        <time>2018-06-08T09:27:51Z</time>
      </trkpt>
      <trkpt lat="44.23829" lon="6.22492">
        <ele>1733</ele>
        <time>2018-06-08T09:27:55Z</time>
      </trkpt>
      <trkpt lat="44.23831" lon="6.22491">
        <ele>1733</ele>
        <time>2018-06-08T09:28:32Z</time>
      </trkpt>
      <trkpt lat="44.23832" lon="6.22488">
        <ele>1733</ele>
        <time>2018-06-08T09:28:34Z</time>
      </trkpt>
      <trkpt lat="44.23832" lon="6.22486">
        <ele>1733</ele>
        <time>2018-06-08T09:28:35Z</time>
      </trkpt>
      <trkpt lat="44.23833" lon="6.22484">
        <ele>1733</ele>
        <time>2018-06-08T09:28:36Z</time>
      </trkpt>
      <trkpt lat="44.23835" lon="6.22482">
        <ele>1733</ele>
        <time>2018-06-08T09:28:37Z</time>
      </trkpt>
      <trkpt lat="44.23836" lon="6.2248">
        <ele>1733</ele>
        <time>2018-06-08T09:28:39Z</time>
      </trkpt>
      <trkpt lat="44.23837" lon="6.22478">
        <ele>1733</ele>
        <time>2018-06-08T09:28:43Z</time>
      </trkpt>
      <trkpt lat="44.23838" lon="6.2248">
        <ele>1733</ele>
        <time>2018-06-08T09:29:04Z</time>
      </trkpt>
      <trkpt lat="44.23837" lon="6.22481">
        <ele>1733</ele>
        <time>2018-06-08T09:29:06Z</time>
      </trkpt>
      <trkpt lat="44.23835" lon="6.22483">
        <ele>1733</ele>
        <time>2018-06-08T09:29:08Z</time>
      </trkpt>
      <trkpt lat="44.23834" lon="6.22483">
        <ele>1733</ele>
        <time>2018-06-08T09:29:12Z</time>
      </trkpt>
      <trkpt lat="44.23832" lon="6.22484">
        <ele>1733</ele>
        <time>2018-06-08T09:29:21Z</time>
      </trkpt>
      <trkpt lat="44.2383" lon="6.22486">
        <ele>1733</ele>
        <time>2018-06-08T09:29:23Z</time>
      </trkpt>
      <trkpt lat="44.23829" lon="6.22486">
        <ele>1733</ele>
        <time>2018-06-08T09:29:25Z</time>
      </trkpt>
      <trkpt lat="44.23828" lon="6.22487">
        <ele>1733</ele>
        <time>2018-06-08T09:29:27Z</time>
      </trkpt>
      <trkpt lat="44.23827" lon="6.22488">
        <ele>1733</ele>
        <time>2018-06-08T09:29:32Z</time>
      </trkpt>
      <trkpt lat="44.23827" lon="6.22486">
        <ele>1733</ele>
        <time>2018-06-08T09:29:37Z</time>
      </trkpt>
      <trkpt lat="44.23827" lon="6.22484">
        <ele>1733</ele>
        <time>2018-06-08T09:29:41Z</time>
      </trkpt>
      <trkpt lat="44.23828" lon="6.22486">
        <ele>1733</ele>
        <time>2018-06-08T09:29:58Z</time>
      </trkpt>
      <trkpt lat="44.23827" lon="6.22488">
        <ele>1733</ele>
        <time>2018-06-08T09:30:10Z</time>
      </trkpt>
      <trkpt lat="44.23828" lon="6.22489">
        <ele>1733</ele>
        <time>2018-06-08T09:30:12Z</time>
      </trkpt>
      <trkpt lat="44.23829" lon="6.22491">
        <ele>1733</ele>
        <time>2018-06-08T09:30:29Z</time>
      </trkpt>
      <trkpt lat="44.23829" lon="6.22492">
        <ele>1733</ele>
        <time>2018-06-08T09:30:32Z</time>
      </trkpt>
      <trkpt lat="44.2383" lon="6.22492">
        <ele>1733</ele>
        <time>2018-06-08T09:30:59Z</time>
      </trkpt>
      <trkpt lat="44.2383" lon="6.2249">
        <ele>1733</ele>
        <time>2018-06-08T09:31:20Z</time>
      </trkpt>
      <trkpt lat="44.23831" lon="6.22488">
        <ele>1733</ele>
        <time>2018-06-08T09:31:22Z</time>
      </trkpt>
      <trkpt lat="44.2383" lon="6.22486">
        <ele>1733</ele>
        <time>2018-06-08T09:31:24Z</time>
      </trkpt>
      <trkpt lat="44.23829" lon="6.22484">
        <ele>1733</ele>
        <time>2018-06-08T09:31:27Z</time>
      </trkpt>
      <trkpt lat="44.23829" lon="6.22483">
        <ele>1733</ele>
        <time>2018-06-08T09:31:31Z</time>
      </trkpt>
      <trkpt lat="44.23828" lon="6.22484">
        <ele>1733</ele>
        <time>2018-06-08T09:31:53Z</time>
      </trkpt>
      <trkpt lat="44.23828" lon="6.22483">
        <ele>1733</ele>
        <time>2018-06-08T09:32:14Z</time>
      </trkpt>
      <trkpt lat="44.23829" lon="6.22485">
        <ele>1733</ele>
        <time>2018-06-08T09:32:24Z</time>
      </trkpt>
      <trkpt lat="44.23829" lon="6.22487">
        <ele>1733</ele>
        <time>2018-06-08T09:32:26Z</time>
      </trkpt>
      <trkpt lat="44.2383" lon="6.22489">
        <ele>1733</ele>
        <time>2018-06-08T09:32:28Z</time>
      </trkpt>
      <trkpt lat="44.23831" lon="6.2249">
        <ele>1733</ele>
        <time>2018-06-08T09:32:30Z</time>
      </trkpt>
      <trkpt lat="44.2383" lon="6.22491">
        <ele>1733</ele>
        <time>2018-06-08T09:32:42Z</time>
      </trkpt>
      <trkpt lat="44.23829" lon="6.22493">
        <ele>1733</ele>
        <time>2018-06-08T09:32:47Z</time>
      </trkpt>
      <trkpt lat="44.23828" lon="6.22495">
        <ele>1733</ele>
        <time>2018-06-08T09:32:49Z</time>
      </trkpt>
      <trkpt lat="44.23827" lon="6.22497">
        <ele>1733</ele>
        <time>2018-06-08T09:32:51Z</time>
      </trkpt>
      <trkpt lat="44.23825" lon="6.22498">
        <ele>1733</ele>
        <time>2018-06-08T09:32:53Z</time>
      </trkpt>
      <trkpt lat="44.23824" lon="6.225">
        <ele>1733</ele>
        <time>2018-06-08T09:32:55Z</time>
      </trkpt>
      <trkpt lat="44.23823" lon="6.22502">
        <ele>1733</ele>
        <time>2018-06-08T09:32:57Z</time>
      </trkpt>
      <trkpt lat="44.23823" lon="6.22504">
        <ele>1733</ele>
        <time>2018-06-08T09:32:59Z</time>
      </trkpt>
      <trkpt lat="44.23822" lon="6.22506">
        <ele>1733</ele>
        <time>2018-06-08T09:33:01Z</time>
      </trkpt>
      <trkpt lat="44.23822" lon="6.22508">
        <ele>1733</ele>
        <time>2018-06-08T09:33:03Z</time>
      </trkpt>
      <trkpt lat="44.2382" lon="6.2251">
        <ele>1733</ele>
        <time>2018-06-08T09:33:05Z</time>
      </trkpt>
      <trkpt lat="44.23819" lon="6.22511">
        <ele>1733</ele>
        <time>2018-06-08T09:33:07Z</time>
      </trkpt>
      <trkpt lat="44.23818" lon="6.22513">
        <ele>1734</ele>
        <time>2018-06-08T09:33:10Z</time>
      </trkpt>
      <trkpt lat="44.23818" lon="6.22515">
        <ele>1734</ele>
        <time>2018-06-08T09:33:13Z</time>
      </trkpt>
      <trkpt lat="44.23817" lon="6.22517">
        <ele>1734</ele>
        <time>2018-06-08T09:33:16Z</time>
      </trkpt>
      <trkpt lat="44.23816" lon="6.22519">
        <ele>1734</ele>
        <time>2018-06-08T09:33:18Z</time>
      </trkpt>
      <trkpt lat="44.23815" lon="6.2252">
        <ele>1734</ele>
        <time>2018-06-08T09:33:20Z</time>
      </trkpt>
      <trkpt lat="44.23815" lon="6.22522">
        <ele>1734</ele>
        <time>2018-06-08T09:33:22Z</time>
      </trkpt>
      <trkpt lat="44.23814" lon="6.22524">
        <ele>1735</ele>
        <time>2018-06-08T09:33:24Z</time>
      </trkpt>
      <trkpt lat="44.23813" lon="6.22526">
        <ele>1735</ele>
        <time>2018-06-08T09:33:26Z</time>
      </trkpt>
      <trkpt lat="44.23812" lon="6.22527">
        <ele>1735</ele>
        <time>2018-06-08T09:33:28Z</time>
      </trkpt>
      <trkpt lat="44.23812" lon="6.22529">
        <ele>1735</ele>
        <time>2018-06-08T09:33:30Z</time>
      </trkpt>
      <trkpt lat="44.23811" lon="6.22532">
        <ele>1735</ele>
        <time>2018-06-08T09:33:32Z</time>
      </trkpt>
      <trkpt lat="44.2381" lon="6.22534">
        <ele>1735</ele>
        <time>2018-06-08T09:33:34Z</time>
      </trkpt>
      <trkpt lat="44.23809" lon="6.22536">
        <ele>1735</ele>
        <time>2018-06-08T09:33:36Z</time>
      </trkpt>
      <trkpt lat="44.23809" lon="6.22538">
        <ele>1735</ele>
        <time>2018-06-08T09:33:38Z</time>
      </trkpt>
      <trkpt lat="44.23808" lon="6.2254">
        <ele>1735</ele>
        <time>2018-06-08T09:33:40Z</time>
      </trkpt>
      <trkpt lat="44.23807" lon="6.22541">
        <ele>1735</ele>
        <time>2018-06-08T09:33:41Z</time>
      </trkpt>
      <trkpt lat="44.23807" lon="6.22544">
        <ele>1735</ele>
        <time>2018-06-08T09:33:43Z</time>
      </trkpt>
      <trkpt lat="44.23806" lon="6.22546">
        <ele>1735</ele>
        <time>2018-06-08T09:33:45Z</time>
      </trkpt>
      <trkpt lat="44.23806" lon="6.22548">
        <ele>1735</ele>
        <time>2018-06-08T09:33:47Z</time>
      </trkpt>
      <trkpt lat="44.23806" lon="6.22551">
        <ele>1735</ele>
        <time>2018-06-08T09:33:49Z</time>
      </trkpt>
      <trkpt lat="44.23805" lon="6.22553">
        <ele>1735</ele>
        <time>2018-06-08T09:33:51Z</time>
      </trkpt>
      <trkpt lat="44.23804" lon="6.22555">
        <ele>1735</ele>
        <time>2018-06-08T09:33:53Z</time>
      </trkpt>
      <trkpt lat="44.23804" lon="6.22557">
        <ele>1735</ele>
        <time>2018-06-08T09:33:55Z</time>
      </trkpt>
      <trkpt lat="44.23804" lon="6.22559">
        <ele>1735</ele>
        <time>2018-06-08T09:33:57Z</time>
      </trkpt>
      <trkpt lat="44.23804" lon="6.22561">
        <ele>1735</ele>
        <time>2018-06-08T09:33:58Z</time>
      </trkpt>
      <trkpt lat="44.23803" lon="6.22563">
        <ele>1735</ele>
        <time>2018-06-08T09:34:00Z</time>
      </trkpt>
      <trkpt lat="44.23803" lon="6.22565">
        <ele>1735</ele>
        <time>2018-06-08T09:34:02Z</time>
      </trkpt>
      <trkpt lat="44.23802" lon="6.22567">
        <ele>1735</ele>
        <time>2018-06-08T09:34:04Z</time>
      </trkpt>
      <trkpt lat="44.23802" lon="6.22569">
        <ele>1736</ele>
        <time>2018-06-08T09:34:06Z</time>
      </trkpt>
      <trkpt lat="44.23802" lon="6.22571">
        <ele>1736</ele>
        <time>2018-06-08T09:34:08Z</time>
      </trkpt>
      <trkpt lat="44.23801" lon="6.22573">
        <ele>1736</ele>
        <time>2018-06-08T09:34:10Z</time>
      </trkpt>
      <trkpt lat="44.23801" lon="6.22575">
        <ele>1736</ele>
        <time>2018-06-08T09:34:12Z</time>
      </trkpt>
      <trkpt lat="44.238" lon="6.22577">
        <ele>1736</ele>
        <time>2018-06-08T09:34:14Z</time>
      </trkpt>
      <trkpt lat="44.23799" lon="6.22579">
        <ele>1736</ele>
        <time>2018-06-08T09:34:16Z</time>
      </trkpt>
      <trkpt lat="44.23798" lon="6.22582">
        <ele>1736</ele>
        <time>2018-06-08T09:34:18Z</time>
      </trkpt>
      <trkpt lat="44.23798" lon="6.22585">
        <ele>1736</ele>
        <time>2018-06-08T09:34:20Z</time>
      </trkpt>
      <trkpt lat="44.23797" lon="6.22587">
        <ele>1736</ele>
        <time>2018-06-08T09:34:22Z</time>
      </trkpt>
      <trkpt lat="44.23797" lon="6.22589">
        <ele>1736</ele>
        <time>2018-06-08T09:34:23Z</time>
      </trkpt>
      <trkpt lat="44.23797" lon="6.2259">
        <ele>1736</ele>
        <time>2018-06-08T09:34:24Z</time>
      </trkpt>
      <trkpt lat="44.23796" lon="6.22593">
        <ele>1736</ele>
        <time>2018-06-08T09:34:26Z</time>
      </trkpt>
      <trkpt lat="44.23796" lon="6.22594">
        <ele>1736</ele>
        <time>2018-06-08T09:34:27Z</time>
      </trkpt>
      <trkpt lat="44.23795" lon="6.22597">
        <ele>1736</ele>
        <time>2018-06-08T09:34:29Z</time>
      </trkpt>
      <trkpt lat="44.23795" lon="6.22598">
        <ele>1736</ele>
        <time>2018-06-08T09:34:31Z</time>
      </trkpt>
      <trkpt lat="44.23795" lon="6.226">
        <ele>1736</ele>
        <time>2018-06-08T09:34:41Z</time>
      </trkpt>
      <trkpt lat="44.23795" lon="6.22602">
        <ele>1737</ele>
        <time>2018-06-08T09:34:43Z</time>
      </trkpt>
      <trkpt lat="44.23795" lon="6.22603">
        <ele>1737</ele>
        <time>2018-06-08T09:34:54Z</time>
      </trkpt>
      <trkpt lat="44.23794" lon="6.22605">
        <ele>1737</ele>
        <time>2018-06-08T09:35:10Z</time>
      </trkpt>
      <trkpt lat="44.23795" lon="6.22606">
        <ele>1737</ele>
        <time>2018-06-08T09:35:12Z</time>
      </trkpt>
      <trkpt lat="44.23795" lon="6.22609">
        <ele>1737</ele>
        <time>2018-06-08T09:35:14Z</time>
      </trkpt>
      <trkpt lat="44.23794" lon="6.22612">
        <ele>1737</ele>
        <time>2018-06-08T09:35:16Z</time>
      </trkpt>
      <trkpt lat="44.23793" lon="6.22614">
        <ele>1737</ele>
        <time>2018-06-08T09:35:18Z</time>
      </trkpt>
      <trkpt lat="44.23793" lon="6.22616">
        <ele>1737</ele>
        <time>2018-06-08T09:35:19Z</time>
      </trkpt>
      <trkpt lat="44.23792" lon="6.22617">
        <ele>1737</ele>
        <time>2018-06-08T09:35:20Z</time>
      </trkpt>
      <trkpt lat="44.23792" lon="6.22619">
        <ele>1737</ele>
        <time>2018-06-08T09:35:21Z</time>
      </trkpt>
      <trkpt lat="44.23792" lon="6.2262">
        <ele>1737</ele>
        <time>2018-06-08T09:35:22Z</time>
      </trkpt>
      <trkpt lat="44.23792" lon="6.22622">
        <ele>1737</ele>
        <time>2018-06-08T09:35:23Z</time>
      </trkpt>
      <trkpt lat="44.23792" lon="6.22623">
        <ele>1737</ele>
        <time>2018-06-08T09:35:24Z</time>
      </trkpt>
      <trkpt lat="44.23791" lon="6.22625">
        <ele>1737</ele>
        <time>2018-06-08T09:35:25Z</time>
      </trkpt>
      <trkpt lat="44.23791" lon="6.22626">
        <ele>1737</ele>
        <time>2018-06-08T09:35:26Z</time>
      </trkpt>
      <trkpt lat="44.2379" lon="6.22629">
        <ele>1737</ele>
        <time>2018-06-08T09:35:28Z</time>
      </trkpt>
      <trkpt lat="44.2379" lon="6.22631">
        <ele>1737</ele>
        <time>2018-06-08T09:35:29Z</time>
      </trkpt>
      <trkpt lat="44.23789" lon="6.22632">
        <ele>1737</ele>
        <time>2018-06-08T09:35:30Z</time>
      </trkpt>
      <trkpt lat="44.23789" lon="6.22634">
        <ele>1737</ele>
        <time>2018-06-08T09:35:31Z</time>
      </trkpt>
      <trkpt lat="44.23789" lon="6.22635">
        <ele>1737</ele>
        <time>2018-06-08T09:35:32Z</time>
      </trkpt>
      <trkpt lat="44.23788" lon="6.22637">
        <ele>1737</ele>
        <time>2018-06-08T09:35:33Z</time>
      </trkpt>
      <trkpt lat="44.23788" lon="6.22638">
        <ele>1737</ele>
        <time>2018-06-08T09:35:34Z</time>
      </trkpt>
      <trkpt lat="44.23788" lon="6.2264">
        <ele>1737</ele>
        <time>2018-06-08T09:35:35Z</time>
      </trkpt>
      <trkpt lat="44.23787" lon="6.22641">
        <ele>1737</ele>
        <time>2018-06-08T09:35:36Z</time>
      </trkpt>
      <trkpt lat="44.23787" lon="6.22643">
        <ele>1737</ele>
        <time>2018-06-08T09:35:37Z</time>
      </trkpt>
      <trkpt lat="44.23787" lon="6.22644">
        <ele>1737</ele>
        <time>2018-06-08T09:35:38Z</time>
      </trkpt>
      <trkpt lat="44.23787" lon="6.22646">
        <ele>1737</ele>
        <time>2018-06-08T09:35:39Z</time>
      </trkpt>
      <trkpt lat="44.23787" lon="6.22647">
        <ele>1737</ele>
        <time>2018-06-08T09:35:40Z</time>
      </trkpt>
      <trkpt lat="44.23786" lon="6.22649">
        <ele>1737</ele>
        <time>2018-06-08T09:35:41Z</time>
      </trkpt>
      <trkpt lat="44.23786" lon="6.22651">
        <ele>1737</ele>
        <time>2018-06-08T09:35:42Z</time>
      </trkpt>
      <trkpt lat="44.23786" lon="6.22652">
        <ele>1737</ele>
        <time>2018-06-08T09:35:43Z</time>
      </trkpt>
      <trkpt lat="44.23785" lon="6.22654">
        <ele>1737</ele>
        <time>2018-06-08T09:35:44Z</time>
      </trkpt>
      <trkpt lat="44.23785" lon="6.22655">
        <ele>1737</ele>
        <time>2018-06-08T09:35:45Z</time>
      </trkpt>
      <trkpt lat="44.23785" lon="6.22657">
        <ele>1737</ele>
        <time>2018-06-08T09:35:46Z</time>
      </trkpt>
      <trkpt lat="44.23784" lon="6.22658">
        <ele>1737</ele>
        <time>2018-06-08T09:35:47Z</time>
      </trkpt>
      <trkpt lat="44.23784" lon="6.2266">
        <ele>1737</ele>
        <time>2018-06-08T09:35:48Z</time>
      </trkpt>
      <trkpt lat="44.23783" lon="6.22662">
        <ele>1737</ele>
        <time>2018-06-08T09:35:49Z</time>
      </trkpt>
      <trkpt lat="44.23783" lon="6.22663">
        <ele>1737</ele>
        <time>2018-06-08T09:35:50Z</time>
      </trkpt>
      <trkpt lat="44.23783" lon="6.22665">
        <ele>1737</ele>
        <time>2018-06-08T09:35:51Z</time>
      </trkpt>
      <trkpt lat="44.23782" lon="6.22667">
        <ele>1737</ele>
        <time>2018-06-08T09:35:52Z</time>
      </trkpt>
      <trkpt lat="44.23782" lon="6.22669">
        <ele>1737</ele>
        <time>2018-06-08T09:35:54Z</time>
      </trkpt>
      <trkpt lat="44.2378" lon="6.22672">
        <ele>1737</ele>
        <time>2018-06-08T09:35:56Z</time>
      </trkpt>
      <trkpt lat="44.2378" lon="6.22675">
        <ele>1737</ele>
        <time>2018-06-08T09:35:58Z</time>
      </trkpt>
      <trkpt lat="44.23779" lon="6.22676">
        <ele>1737</ele>
        <time>2018-06-08T09:35:59Z</time>
      </trkpt>
      <trkpt lat="44.23779" lon="6.22678">
        <ele>1737</ele>
        <time>2018-06-08T09:36:00Z</time>
      </trkpt>
      <trkpt lat="44.23778" lon="6.22679">
        <ele>1737</ele>
        <time>2018-06-08T09:36:01Z</time>
      </trkpt>
      <trkpt lat="44.23778" lon="6.22682">
        <ele>1737</ele>
        <time>2018-06-08T09:36:03Z</time>
      </trkpt>
      <trkpt lat="44.23777" lon="6.22683">
        <ele>1737</ele>
        <time>2018-06-08T09:36:04Z</time>
      </trkpt>
      <trkpt lat="44.23777" lon="6.22686">
        <ele>1737</ele>
        <time>2018-06-08T09:36:06Z</time>
      </trkpt>
      <trkpt lat="44.23776" lon="6.22687">
        <ele>1737</ele>
        <time>2018-06-08T09:36:07Z</time>
      </trkpt>
      <trkpt lat="44.23775" lon="6.22689">
        <ele>1737</ele>
        <time>2018-06-08T09:36:08Z</time>
      </trkpt>
      <trkpt lat="44.23775" lon="6.2269">
        <ele>1737</ele>
        <time>2018-06-08T09:36:09Z</time>
      </trkpt>
      <trkpt lat="44.23774" lon="6.22693">
        <ele>1737</ele>
        <time>2018-06-08T09:36:11Z</time>
      </trkpt>
      <trkpt lat="44.23773" lon="6.22696">
        <ele>1737</ele>
        <time>2018-06-08T09:36:13Z</time>
      </trkpt>
      <trkpt lat="44.23772" lon="6.22698">
        <ele>1737</ele>
        <time>2018-06-08T09:36:15Z</time>
      </trkpt>
      <trkpt lat="44.23771" lon="6.22701">
        <ele>1737</ele>
        <time>2018-06-08T09:36:17Z</time>
      </trkpt>
      <trkpt lat="44.2377" lon="6.22703">
        <ele>1737</ele>
        <time>2018-06-08T09:36:19Z</time>
      </trkpt>
      <trkpt lat="44.23769" lon="6.22706">
        <ele>1737</ele>
        <time>2018-06-08T09:36:21Z</time>
      </trkpt>
      <trkpt lat="44.23768" lon="6.22707">
        <ele>1737</ele>
        <time>2018-06-08T09:36:22Z</time>
      </trkpt>
      <trkpt lat="44.23768" lon="6.22709">
        <ele>1737</ele>
        <time>2018-06-08T09:36:23Z</time>
      </trkpt>
      <trkpt lat="44.23767" lon="6.22711">
        <ele>1737</ele>
        <time>2018-06-08T09:36:25Z</time>
      </trkpt>
      <trkpt lat="44.23766" lon="6.22714">
        <ele>1737</ele>
        <time>2018-06-08T09:36:27Z</time>
      </trkpt>
      <trkpt lat="44.23766" lon="6.22715">
        <ele>1737</ele>
        <time>2018-06-08T09:36:28Z</time>
      </trkpt>
      <trkpt lat="44.23766" lon="6.22717">
        <ele>1737</ele>
        <time>2018-06-08T09:36:29Z</time>
      </trkpt>
      <trkpt lat="44.23766" lon="6.22719">
        <ele>1737</ele>
        <time>2018-06-08T09:36:31Z</time>
      </trkpt>
      <trkpt lat="44.23765" lon="6.22721">
        <ele>1737</ele>
        <time>2018-06-08T09:36:32Z</time>
      </trkpt>
      <trkpt lat="44.23765" lon="6.22723">
        <ele>1737</ele>
        <time>2018-06-08T09:36:34Z</time>
      </trkpt>
      <trkpt lat="44.23765" lon="6.22725">
        <ele>1737</ele>
        <time>2018-06-08T09:36:35Z</time>
      </trkpt>
      <trkpt lat="44.23765" lon="6.22727">
        <ele>1737</ele>
        <time>2018-06-08T09:36:37Z</time>
      </trkpt>
      <trkpt lat="44.23764" lon="6.22728">
        <ele>1737</ele>
        <time>2018-06-08T09:36:39Z</time>
      </trkpt>
      <trkpt lat="44.23764" lon="6.2273">
        <ele>1737</ele>
        <time>2018-06-08T09:36:41Z</time>
      </trkpt>
      <trkpt lat="44.23764" lon="6.22732">
        <ele>1737</ele>
        <time>2018-06-08T09:36:43Z</time>
      </trkpt>
      <trkpt lat="44.23764" lon="6.22734">
        <ele>1737</ele>
        <time>2018-06-08T09:36:44Z</time>
      </trkpt>
      <trkpt lat="44.23764" lon="6.22736">
        <ele>1737</ele>
        <time>2018-06-08T09:36:46Z</time>
      </trkpt>
      <trkpt lat="44.23764" lon="6.22738">
        <ele>1737</ele>
        <time>2018-06-08T09:36:48Z</time>
      </trkpt>
      <trkpt lat="44.23763" lon="6.2274">
        <ele>1737</ele>
        <time>2018-06-08T09:36:50Z</time>
      </trkpt>
      <trkpt lat="44.23763" lon="6.22742">
        <ele>1737</ele>
        <time>2018-06-08T09:37:05Z</time>
      </trkpt>
      <trkpt lat="44.23762" lon="6.22744">
        <ele>1737</ele>
        <time>2018-06-08T09:37:07Z</time>
      </trkpt>
      <trkpt lat="44.23761" lon="6.22746">
        <ele>1737</ele>
        <time>2018-06-08T09:37:09Z</time>
      </trkpt>
      <trkpt lat="44.23761" lon="6.22748">
        <ele>1737</ele>
        <time>2018-06-08T09:37:11Z</time>
      </trkpt>
      <trkpt lat="44.2376" lon="6.2275">
        <ele>1737</ele>
        <time>2018-06-08T09:37:13Z</time>
      </trkpt>
      <trkpt lat="44.2376" lon="6.22752">
        <ele>1737</ele>
        <time>2018-06-08T09:37:15Z</time>
      </trkpt>
      <trkpt lat="44.2376" lon="6.22755">
        <ele>1737</ele>
        <time>2018-06-08T09:37:17Z</time>
      </trkpt>
      <trkpt lat="44.23759" lon="6.22757">
        <ele>1737</ele>
        <time>2018-06-08T09:37:19Z</time>
      </trkpt>
      <trkpt lat="44.23759" lon="6.22758">
        <ele>1737</ele>
        <time>2018-06-08T09:37:21Z</time>
      </trkpt>
      <trkpt lat="44.23758" lon="6.2276">
        <ele>1737</ele>
        <time>2018-06-08T09:37:23Z</time>
      </trkpt>
      <trkpt lat="44.23758" lon="6.22762">
        <ele>1737</ele>
        <time>2018-06-08T09:37:25Z</time>
      </trkpt>
      <trkpt lat="44.23757" lon="6.22764">
        <ele>1737</ele>
        <time>2018-06-08T09:37:27Z</time>
      </trkpt>
      <trkpt lat="44.23756" lon="6.22766">
        <ele>1737</ele>
        <time>2018-06-08T09:37:29Z</time>
      </trkpt>
      <trkpt lat="44.23756" lon="6.22768">
        <ele>1737</ele>
        <time>2018-06-08T09:37:31Z</time>
      </trkpt>
      <trkpt lat="44.23755" lon="6.22769">
        <ele>1738</ele>
        <time>2018-06-08T09:37:33Z</time>
      </trkpt>
      <trkpt lat="44.23754" lon="6.22771">
        <ele>1738</ele>
        <time>2018-06-08T09:37:35Z</time>
      </trkpt>
      <trkpt lat="44.23753" lon="6.22773">
        <ele>1739</ele>
        <time>2018-06-08T09:37:37Z</time>
      </trkpt>
      <trkpt lat="44.23752" lon="6.22774">
        <ele>1739</ele>
        <time>2018-06-08T09:37:39Z</time>
      </trkpt>
      <trkpt lat="44.23751" lon="6.22775">
        <ele>1739</ele>
        <time>2018-06-08T09:37:41Z</time>
      </trkpt>
      <trkpt lat="44.2375" lon="6.22777">
        <ele>1739</ele>
        <time>2018-06-08T09:37:43Z</time>
      </trkpt>
      <trkpt lat="44.23749" lon="6.22778">
        <ele>1739</ele>
        <time>2018-06-08T09:37:45Z</time>
      </trkpt>
      <trkpt lat="44.23749" lon="6.2278">
        <ele>1739</ele>
        <time>2018-06-08T09:37:47Z</time>
      </trkpt>
      <trkpt lat="44.23748" lon="6.22782">
        <ele>1740</ele>
        <time>2018-06-08T09:37:49Z</time>
      </trkpt>
      <trkpt lat="44.23748" lon="6.22784">
        <ele>1740</ele>
        <time>2018-06-08T09:37:51Z</time>
      </trkpt>
      <trkpt lat="44.23748" lon="6.22785">
        <ele>1740</ele>
        <time>2018-06-08T09:37:53Z</time>
      </trkpt>
      <trkpt lat="44.23748" lon="6.22787">
        <ele>1741</ele>
        <time>2018-06-08T09:37:55Z</time>
      </trkpt>
      <trkpt lat="44.23747" lon="6.22789">
        <ele>1741</ele>
        <time>2018-06-08T09:37:57Z</time>
      </trkpt>
      <trkpt lat="44.23747" lon="6.2279">
        <ele>1741</ele>
        <time>2018-06-08T09:37:59Z</time>
      </trkpt>
      <trkpt lat="44.23746" lon="6.22792">
        <ele>1741</ele>
        <time>2018-06-08T09:38:01Z</time>
      </trkpt>
      <trkpt lat="44.23746" lon="6.22793">
        <ele>1742</ele>
        <time>2018-06-08T09:38:04Z</time>
      </trkpt>
      <trkpt lat="44.23745" lon="6.22795">
        <ele>1742</ele>
        <time>2018-06-08T09:38:06Z</time>
      </trkpt>
      <trkpt lat="44.23745" lon="6.22796">
        <ele>1743</ele>
        <time>2018-06-08T09:38:08Z</time>
      </trkpt>
      <trkpt lat="44.23745" lon="6.22798">
        <ele>1744</ele>
        <time>2018-06-08T09:38:12Z</time>
      </trkpt>
      <trkpt lat="44.23745" lon="6.228">
        <ele>1744</ele>
        <time>2018-06-08T09:38:15Z</time>
      </trkpt>
      <trkpt lat="44.23745" lon="6.22802">
        <ele>1744</ele>
        <time>2018-06-08T09:38:18Z</time>
      </trkpt>
      <trkpt lat="44.23745" lon="6.22804">
        <ele>1744</ele>
        <time>2018-06-08T09:38:21Z</time>
      </trkpt>
      <trkpt lat="44.23745" lon="6.22805">
        <ele>1745</ele>
        <time>2018-06-08T09:38:24Z</time>
      </trkpt>
      <trkpt lat="44.23745" lon="6.22807">
        <ele>1745</ele>
        <time>2018-06-08T09:38:27Z</time>
      </trkpt>
      <trkpt lat="44.23745" lon="6.22809">
        <ele>1746</ele>
        <time>2018-06-08T09:38:30Z</time>
      </trkpt>
      <trkpt lat="44.23745" lon="6.2281">
        <ele>1746</ele>
        <time>2018-06-08T09:38:33Z</time>
      </trkpt>
      <trkpt lat="44.23745" lon="6.22812">
        <ele>1747</ele>
        <time>2018-06-08T09:38:36Z</time>
      </trkpt>
      <trkpt lat="44.23745" lon="6.22814">
        <ele>1747</ele>
        <time>2018-06-08T09:38:38Z</time>
      </trkpt>
      <trkpt lat="44.23744" lon="6.22815">
        <ele>1748</ele>
        <time>2018-06-08T09:38:41Z</time>
      </trkpt>
      <trkpt lat="44.23744" lon="6.22817">
        <ele>1748</ele>
        <time>2018-06-08T09:38:45Z</time>
      </trkpt>
      <trkpt lat="44.23745" lon="6.22819">
        <ele>1749</ele>
        <time>2018-06-08T09:38:50Z</time>
      </trkpt>
      <trkpt lat="44.23745" lon="6.22821">
        <ele>1750</ele>
        <time>2018-06-08T09:38:54Z</time>
      </trkpt>
      <trkpt lat="44.23744" lon="6.22822">
        <ele>1751</ele>
        <time>2018-06-08T09:38:58Z</time>
      </trkpt>
      <trkpt lat="44.23744" lon="6.22824">
        <ele>1751</ele>
        <time>2018-06-08T09:39:03Z</time>
      </trkpt>
      <trkpt lat="44.23744" lon="6.22826">
        <ele>1752</ele>
        <time>2018-06-08T09:39:05Z</time>
      </trkpt>
      <trkpt lat="44.23744" lon="6.22827">
        <ele>1752</ele>
        <time>2018-06-08T09:39:09Z</time>
      </trkpt>
      <trkpt lat="44.23744" lon="6.22829">
        <ele>1754</ele>
        <time>2018-06-08T09:39:16Z</time>
      </trkpt>
      <trkpt lat="44.23744" lon="6.22831">
        <ele>1754</ele>
        <time>2018-06-08T09:39:19Z</time>
      </trkpt>
      <trkpt lat="44.23744" lon="6.22832">
        <ele>1754</ele>
        <time>2018-06-08T09:39:22Z</time>
      </trkpt>
      <trkpt lat="44.23745" lon="6.22834">
        <ele>1755</ele>
        <time>2018-06-08T09:39:26Z</time>
      </trkpt>
      <trkpt lat="44.23745" lon="6.22836">
        <ele>1756</ele>
        <time>2018-06-08T09:39:39Z</time>
      </trkpt>
      <trkpt lat="44.23746" lon="6.22837">
        <ele>1757</ele>
        <time>2018-06-08T09:39:43Z</time>
      </trkpt>
      <trkpt lat="44.23747" lon="6.22839">
        <ele>1757</ele>
        <time>2018-06-08T09:39:46Z</time>
      </trkpt>
      <trkpt lat="44.23748" lon="6.2284">
        <ele>1757</ele>
        <time>2018-06-08T09:39:49Z</time>
      </trkpt>
      <trkpt lat="44.23748" lon="6.22842">
        <ele>1757</ele>
        <time>2018-06-08T09:39:52Z</time>
      </trkpt>
      <trkpt lat="44.23748" lon="6.22844">
        <ele>1758</ele>
        <time>2018-06-08T09:39:55Z</time>
      </trkpt>
      <trkpt lat="44.23749" lon="6.22846">
        <ele>1758</ele>
        <time>2018-06-08T09:39:58Z</time>
      </trkpt>
      <trkpt lat="44.2375" lon="6.22848">
        <ele>1758</ele>
        <time>2018-06-08T09:40:01Z</time>
      </trkpt>
      <trkpt lat="44.23751" lon="6.2285">
        <ele>1759</ele>
        <time>2018-06-08T09:40:04Z</time>
      </trkpt>
      <trkpt lat="44.23752" lon="6.22851">
        <ele>1759</ele>
        <time>2018-06-08T09:40:06Z</time>
      </trkpt>
      <trkpt lat="44.23753" lon="6.22853">
        <ele>1759</ele>
        <time>2018-06-08T09:40:08Z</time>
      </trkpt>
      <trkpt lat="44.23753" lon="6.22855">
        <ele>1760</ele>
        <time>2018-06-08T09:40:11Z</time>
      </trkpt>
      <trkpt lat="44.23753" lon="6.22856">
        <ele>1760</ele>
        <time>2018-06-08T09:40:14Z</time>
      </trkpt>
      <trkpt lat="44.23754" lon="6.22858">
        <ele>1761</ele>
        <time>2018-06-08T09:40:17Z</time>
      </trkpt>
      <trkpt lat="44.23755" lon="6.22859">
        <ele>1761</ele>
        <time>2018-06-08T09:40:20Z</time>
      </trkpt>
      <trkpt lat="44.23755" lon="6.22861">
        <ele>1762</ele>
        <time>2018-06-08T09:40:23Z</time>
      </trkpt>
      <trkpt lat="44.23756" lon="6.22863">
        <ele>1762</ele>
        <time>2018-06-08T09:40:26Z</time>
      </trkpt>
      <trkpt lat="44.23756" lon="6.22864">
        <ele>1763</ele>
        <time>2018-06-08T09:40:30Z</time>
      </trkpt>
      <trkpt lat="44.23757" lon="6.22866">
        <ele>1763</ele>
        <time>2018-06-08T09:40:33Z</time>
      </trkpt>
      <trkpt lat="44.23757" lon="6.22868">
        <ele>1764</ele>
        <time>2018-06-08T09:40:36Z</time>
      </trkpt>
      <trkpt lat="44.23758" lon="6.2287">
        <ele>1764</ele>
        <time>2018-06-08T09:40:39Z</time>
      </trkpt>
      <trkpt lat="44.23758" lon="6.22871">
        <ele>1764</ele>
        <time>2018-06-08T09:40:42Z</time>
      </trkpt>
      <trkpt lat="44.2376" lon="6.22873">
        <ele>1765</ele>
        <time>2018-06-08T09:40:46Z</time>
      </trkpt>
      <trkpt lat="44.23761" lon="6.22875">
        <ele>1766</ele>
        <time>2018-06-08T09:40:49Z</time>
      </trkpt>
      <trkpt lat="44.23762" lon="6.22877">
        <ele>1766</ele>
        <time>2018-06-08T09:40:52Z</time>
      </trkpt>
      <trkpt lat="44.23763" lon="6.22879">
        <ele>1766</ele>
        <time>2018-06-08T09:40:55Z</time>
      </trkpt>
      <trkpt lat="44.23763" lon="6.2288">
        <ele>1767</ele>
        <time>2018-06-08T09:40:58Z</time>
      </trkpt>
      <trkpt lat="44.23763" lon="6.22882">
        <ele>1767</ele>
        <time>2018-06-08T09:41:00Z</time>
      </trkpt>
      <trkpt lat="44.23763" lon="6.22883">
        <ele>1767</ele>
        <time>2018-06-08T09:41:03Z</time>
      </trkpt>
      <trkpt lat="44.23764" lon="6.22885">
        <ele>1768</ele>
        <time>2018-06-08T09:41:06Z</time>
      </trkpt>
      <trkpt lat="44.23764" lon="6.22886">
        <ele>1768</ele>
        <time>2018-06-08T09:41:08Z</time>
      </trkpt>
      <trkpt lat="44.23764" lon="6.22888">
        <ele>1768</ele>
        <time>2018-06-08T09:41:11Z</time>
      </trkpt>
      <trkpt lat="44.23765" lon="6.2289">
        <ele>1769</ele>
        <time>2018-06-08T09:41:14Z</time>
      </trkpt>
      <trkpt lat="44.23766" lon="6.22892">
        <ele>1769</ele>
        <time>2018-06-08T09:41:17Z</time>
      </trkpt>
      <trkpt lat="44.23767" lon="6.22893">
        <ele>1770</ele>
        <time>2018-06-08T09:41:20Z</time>
      </trkpt>
      <trkpt lat="44.23767" lon="6.22895">
        <ele>1770</ele>
        <time>2018-06-08T09:41:26Z</time>
      </trkpt>
      <trkpt lat="44.23767" lon="6.22897">
        <ele>1771</ele>
        <time>2018-06-08T09:41:28Z</time>
      </trkpt>
      <trkpt lat="44.23767" lon="6.22898">
        <ele>1771</ele>
        <time>2018-06-08T09:41:31Z</time>
      </trkpt>
      <trkpt lat="44.23768" lon="6.229">
        <ele>1772</ele>
        <time>2018-06-08T09:41:33Z</time>
      </trkpt>
      <trkpt lat="44.23769" lon="6.22901">
        <ele>1772</ele>
        <time>2018-06-08T09:41:35Z</time>
      </trkpt>
      <trkpt lat="44.23769" lon="6.22903">
        <ele>1772</ele>
        <time>2018-06-08T09:41:37Z</time>
      </trkpt>
      <trkpt lat="44.2377" lon="6.22904">
        <ele>1773</ele>
        <time>2018-06-08T09:41:40Z</time>
      </trkpt>
      <trkpt lat="44.23771" lon="6.22906">
        <ele>1773</ele>
        <time>2018-06-08T09:41:42Z</time>
      </trkpt>
      <trkpt lat="44.23771" lon="6.22908">
        <ele>1774</ele>
        <time>2018-06-08T09:41:44Z</time>
      </trkpt>
      <trkpt lat="44.23772" lon="6.22909">
        <ele>1774</ele>
        <time>2018-06-08T09:41:48Z</time>
      </trkpt>
      <trkpt lat="44.23772" lon="6.22911">
        <ele>1774</ele>
        <time>2018-06-08T09:41:50Z</time>
      </trkpt>
      <trkpt lat="44.23772" lon="6.22913">
        <ele>1775</ele>
        <time>2018-06-08T09:41:54Z</time>
      </trkpt>
      <trkpt lat="44.23772" lon="6.22914">
        <ele>1776</ele>
        <time>2018-06-08T09:42:00Z</time>
      </trkpt>
      <trkpt lat="44.23773" lon="6.22916">
        <ele>1776</ele>
        <time>2018-06-08T09:42:04Z</time>
      </trkpt>
      <trkpt lat="44.23774" lon="6.22918">
        <ele>1776</ele>
        <time>2018-06-08T09:42:08Z</time>
      </trkpt>
      <trkpt lat="44.23774" lon="6.22919">
        <ele>1776</ele>
        <time>2018-06-08T09:42:10Z</time>
      </trkpt>
      <trkpt lat="44.23775" lon="6.22921">
        <ele>1776</ele>
        <time>2018-06-08T09:42:12Z</time>
      </trkpt>
      <trkpt lat="44.23775" lon="6.22922">
        <ele>1776</ele>
        <time>2018-06-08T09:42:14Z</time>
      </trkpt>
      <trkpt lat="44.23775" lon="6.22924">
        <ele>1777</ele>
        <time>2018-06-08T09:42:17Z</time>
      </trkpt>
      <trkpt lat="44.23776" lon="6.22925">
        <ele>1777</ele>
        <time>2018-06-08T09:42:20Z</time>
      </trkpt>
      <trkpt lat="44.23776" lon="6.22927">
        <ele>1778</ele>
        <time>2018-06-08T09:42:24Z</time>
      </trkpt>
      <trkpt lat="44.23777" lon="6.2293">
        <ele>1779</ele>
        <time>2018-06-08T09:42:27Z</time>
      </trkpt>
      <trkpt lat="44.23775" lon="6.22931">
        <ele>1779</ele>
        <time>2018-06-08T09:42:31Z</time>
      </trkpt>
      <trkpt lat="44.23774" lon="6.22931">
        <ele>1780</ele>
        <time>2018-06-08T09:42:34Z</time>
      </trkpt>
      <trkpt lat="44.23773" lon="6.22931">
        <ele>1781</ele>
        <time>2018-06-08T09:42:38Z</time>
      </trkpt>
      <trkpt lat="44.23772" lon="6.22932">
        <ele>1781</ele>
        <time>2018-06-08T09:42:43Z</time>
      </trkpt>
      <trkpt lat="44.23771" lon="6.22932">
        <ele>1782</ele>
        <time>2018-06-08T09:42:48Z</time>
      </trkpt>
      <trkpt lat="44.23769" lon="6.22932">
        <ele>1783</ele>
        <time>2018-06-08T09:42:51Z</time>
      </trkpt>
      <trkpt lat="44.23768" lon="6.22931">
        <ele>1783</ele>
        <time>2018-06-08T09:42:54Z</time>
      </trkpt>
      <trkpt lat="44.23768" lon="6.22933">
        <ele>1783</ele>
        <time>2018-06-08T09:42:58Z</time>
      </trkpt>
      <trkpt lat="44.23769" lon="6.22934">
        <ele>1783</ele>
        <time>2018-06-08T09:43:01Z</time>
      </trkpt>
      <trkpt lat="44.23768" lon="6.22936">
        <ele>1784</ele>
        <time>2018-06-08T09:43:04Z</time>
      </trkpt>
      <trkpt lat="44.23768" lon="6.22938">
        <ele>1785</ele>
        <time>2018-06-08T09:43:08Z</time>
      </trkpt>
      <trkpt lat="44.23769" lon="6.22939">
        <ele>1785</ele>
        <time>2018-06-08T09:43:10Z</time>
      </trkpt>
      <trkpt lat="44.23769" lon="6.22941">
        <ele>1786</ele>
        <time>2018-06-08T09:43:12Z</time>
      </trkpt>
      <trkpt lat="44.23769" lon="6.22942">
        <ele>1786</ele>
        <time>2018-06-08T09:43:15Z</time>
      </trkpt>
      <trkpt lat="44.23769" lon="6.22944">
        <ele>1787</ele>
        <time>2018-06-08T09:43:19Z</time>
      </trkpt>
      <trkpt lat="44.23769" lon="6.22946">
        <ele>1788</ele>
        <time>2018-06-08T09:43:22Z</time>
      </trkpt>
      <trkpt lat="44.23769" lon="6.22948">
        <ele>1788</ele>
        <time>2018-06-08T09:43:25Z</time>
      </trkpt>
      <trkpt lat="44.2377" lon="6.22949">
        <ele>1789</ele>
        <time>2018-06-08T09:43:27Z</time>
      </trkpt>
      <trkpt lat="44.2377" lon="6.22951">
        <ele>1789</ele>
        <time>2018-06-08T09:43:30Z</time>
      </trkpt>
      <trkpt lat="44.23771" lon="6.22952">
        <ele>1790</ele>
        <time>2018-06-08T09:43:33Z</time>
      </trkpt>
      <trkpt lat="44.23771" lon="6.22954">
        <ele>1790</ele>
        <time>2018-06-08T09:43:35Z</time>
      </trkpt>
      <trkpt lat="44.23771" lon="6.22955">
        <ele>1790</ele>
        <time>2018-06-08T09:43:37Z</time>
      </trkpt>
      <trkpt lat="44.23771" lon="6.22957">
        <ele>1791</ele>
        <time>2018-06-08T09:43:40Z</time>
      </trkpt>
      <trkpt lat="44.23771" lon="6.22959">
        <ele>1792</ele>
        <time>2018-06-08T09:43:44Z</time>
      </trkpt>
      <trkpt lat="44.23772" lon="6.2296">
        <ele>1792</ele>
        <time>2018-06-08T09:43:47Z</time>
      </trkpt>
      <trkpt lat="44.23773" lon="6.22962">
        <ele>1793</ele>
        <time>2018-06-08T09:43:50Z</time>
      </trkpt>
      <trkpt lat="44.23774" lon="6.22964">
        <ele>1793</ele>
        <time>2018-06-08T09:43:52Z</time>
      </trkpt>
      <trkpt lat="44.23775" lon="6.22966">
        <ele>1793</ele>
        <time>2018-06-08T09:43:55Z</time>
      </trkpt>
      <trkpt lat="44.23775" lon="6.22967">
        <ele>1794</ele>
        <time>2018-06-08T09:43:58Z</time>
      </trkpt>
      <trkpt lat="44.23775" lon="6.22969">
        <ele>1794</ele>
        <time>2018-06-08T09:44:01Z</time>
      </trkpt>
      <trkpt lat="44.23776" lon="6.22971">
        <ele>1795</ele>
        <time>2018-06-08T09:44:04Z</time>
      </trkpt>
      <trkpt lat="44.23777" lon="6.22972">
        <ele>1795</ele>
        <time>2018-06-08T09:44:07Z</time>
      </trkpt>
      <trkpt lat="44.23778" lon="6.22974">
        <ele>1796</ele>
        <time>2018-06-08T09:44:10Z</time>
      </trkpt>
      <trkpt lat="44.23778" lon="6.22976">
        <ele>1796</ele>
        <time>2018-06-08T09:44:15Z</time>
      </trkpt>
      <trkpt lat="44.23779" lon="6.22978">
        <ele>1797</ele>
        <time>2018-06-08T09:44:18Z</time>
      </trkpt>
      <trkpt lat="44.23779" lon="6.22979">
        <ele>1797</ele>
        <time>2018-06-08T09:44:20Z</time>
      </trkpt>
      <trkpt lat="44.2378" lon="6.22981">
        <ele>1797</ele>
        <time>2018-06-08T09:44:22Z</time>
      </trkpt>
      <trkpt lat="44.23781" lon="6.22983">
        <ele>1798</ele>
        <time>2018-06-08T09:44:24Z</time>
      </trkpt>
      <trkpt lat="44.23782" lon="6.22984">
        <ele>1798</ele>
        <time>2018-06-08T09:44:26Z</time>
      </trkpt>
      <trkpt lat="44.23782" lon="6.22986">
        <ele>1798</ele>
        <time>2018-06-08T09:44:28Z</time>
      </trkpt>
      <trkpt lat="44.23783" lon="6.22988">
        <ele>1798</ele>
        <time>2018-06-08T09:44:30Z</time>
      </trkpt>
      <trkpt lat="44.23785" lon="6.2299">
        <ele>1799</ele>
        <time>2018-06-08T09:44:33Z</time>
      </trkpt>
      <trkpt lat="44.23785" lon="6.22991">
        <ele>1799</ele>
        <time>2018-06-08T09:44:35Z</time>
      </trkpt>
      <trkpt lat="44.23785" lon="6.22993">
        <ele>1799</ele>
        <time>2018-06-08T09:44:37Z</time>
      </trkpt>
      <trkpt lat="44.23786" lon="6.22995">
        <ele>1800</ele>
        <time>2018-06-08T09:44:40Z</time>
      </trkpt>
      <trkpt lat="44.23787" lon="6.22996">
        <ele>1800</ele>
        <time>2018-06-08T09:44:43Z</time>
      </trkpt>
      <trkpt lat="44.23787" lon="6.22998">
        <ele>1800</ele>
        <time>2018-06-08T09:44:47Z</time>
      </trkpt>
      <trkpt lat="44.23788" lon="6.23">
        <ele>1801</ele>
        <time>2018-06-08T09:44:50Z</time>
      </trkpt>
      <trkpt lat="44.23789" lon="6.23002">
        <ele>1801</ele>
        <time>2018-06-08T09:44:53Z</time>
      </trkpt>
      <trkpt lat="44.23789" lon="6.23003">
        <ele>1801</ele>
        <time>2018-06-08T09:44:56Z</time>
      </trkpt>
      <trkpt lat="44.2379" lon="6.23005">
        <ele>1802</ele>
        <time>2018-06-08T09:44:58Z</time>
      </trkpt>
      <trkpt lat="44.2379" lon="6.23007">
        <ele>1802</ele>
        <time>2018-06-08T09:45:01Z</time>
      </trkpt>
      <trkpt lat="44.23791" lon="6.23009">
        <ele>1803</ele>
        <time>2018-06-08T09:45:03Z</time>
      </trkpt>
      <trkpt lat="44.23792" lon="6.23011">
        <ele>1803</ele>
        <time>2018-06-08T09:45:05Z</time>
      </trkpt>
      <trkpt lat="44.23793" lon="6.23012">
        <ele>1803</ele>
        <time>2018-06-08T09:45:07Z</time>
      </trkpt>
      <trkpt lat="44.23793" lon="6.23014">
        <ele>1803</ele>
        <time>2018-06-08T09:45:09Z</time>
      </trkpt>
      <trkpt lat="44.23794" lon="6.23016">
        <ele>1804</ele>
        <time>2018-06-08T09:45:12Z</time>
      </trkpt>
      <trkpt lat="44.23794" lon="6.23018">
        <ele>1804</ele>
        <time>2018-06-08T09:45:15Z</time>
      </trkpt>
      <trkpt lat="44.23793" lon="6.23019">
        <ele>1805</ele>
        <time>2018-06-08T09:45:18Z</time>
      </trkpt>
      <trkpt lat="44.23793" lon="6.23021">
        <ele>1806</ele>
        <time>2018-06-08T09:45:21Z</time>
      </trkpt>
      <trkpt lat="44.23793" lon="6.23023">
        <ele>1806</ele>
        <time>2018-06-08T09:45:24Z</time>
      </trkpt>
      <trkpt lat="44.23793" lon="6.23024">
        <ele>1806</ele>
        <time>2018-06-08T09:45:27Z</time>
      </trkpt>
      <trkpt lat="44.23794" lon="6.23026">
        <ele>1807</ele>
        <time>2018-06-08T09:45:30Z</time>
      </trkpt>
      <trkpt lat="44.23794" lon="6.23028">
        <ele>1807</ele>
        <time>2018-06-08T09:45:32Z</time>
      </trkpt>
      <trkpt lat="44.23795" lon="6.2303">
        <ele>1807</ele>
        <time>2018-06-08T09:45:34Z</time>
      </trkpt>
      <trkpt lat="44.23795" lon="6.23031">
        <ele>1808</ele>
        <time>2018-06-08T09:45:37Z</time>
      </trkpt>
      <trkpt lat="44.23796" lon="6.23033">
        <ele>1808</ele>
        <time>2018-06-08T09:45:40Z</time>
      </trkpt>
      <trkpt lat="44.23796" lon="6.23035">
        <ele>1808</ele>
        <time>2018-06-08T09:45:42Z</time>
      </trkpt>
      <trkpt lat="44.23796" lon="6.23036">
        <ele>1809</ele>
        <time>2018-06-08T09:45:45Z</time>
      </trkpt>
      <trkpt lat="44.23796" lon="6.23038">
        <ele>1809</ele>
        <time>2018-06-08T09:45:48Z</time>
      </trkpt>
      <trkpt lat="44.23796" lon="6.2304">
        <ele>1809</ele>
        <time>2018-06-08T09:45:50Z</time>
      </trkpt>
      <trkpt lat="44.23796" lon="6.23041">
        <ele>1810</ele>
        <time>2018-06-08T09:45:52Z</time>
      </trkpt>
      <trkpt lat="44.23796" lon="6.23043">
        <ele>1810</ele>
        <time>2018-06-08T09:45:55Z</time>
      </trkpt>
      <trkpt lat="44.23796" lon="6.23045">
        <ele>1811</ele>
        <time>2018-06-08T09:45:58Z</time>
      </trkpt>
      <trkpt lat="44.23796" lon="6.23047">
        <ele>1811</ele>
        <time>2018-06-08T09:46:01Z</time>
      </trkpt>
      <trkpt lat="44.23796" lon="6.23049">
        <ele>1811</ele>
        <time>2018-06-08T09:46:05Z</time>
      </trkpt>
      <trkpt lat="44.23797" lon="6.23051">
        <ele>1812</ele>
        <time>2018-06-08T09:46:08Z</time>
      </trkpt>
      <trkpt lat="44.23796" lon="6.23053">
        <ele>1812</ele>
        <time>2018-06-08T09:46:13Z</time>
      </trkpt>
      <trkpt lat="44.23795" lon="6.23054">
        <ele>1814</ele>
        <time>2018-06-08T09:46:18Z</time>
      </trkpt>
      <trkpt lat="44.23793" lon="6.23053">
        <ele>1814</ele>
        <time>2018-06-08T09:46:23Z</time>
      </trkpt>
      <trkpt lat="44.23792" lon="6.23053">
        <ele>1815</ele>
        <time>2018-06-08T09:46:31Z</time>
      </trkpt>
      <trkpt lat="44.23792" lon="6.23055">
        <ele>1815</ele>
        <time>2018-06-08T09:46:34Z</time>
      </trkpt>
      <trkpt lat="44.23792" lon="6.23056">
        <ele>1816</ele>
        <time>2018-06-08T09:46:37Z</time>
      </trkpt>
      <trkpt lat="44.23791" lon="6.23058">
        <ele>1816</ele>
        <time>2018-06-08T09:46:40Z</time>
      </trkpt>
      <trkpt lat="44.23791" lon="6.2306">
        <ele>1817</ele>
        <time>2018-06-08T09:46:45Z</time>
      </trkpt>
      <trkpt lat="44.23791" lon="6.23061">
        <ele>1817</ele>
        <time>2018-06-08T09:46:48Z</time>
      </trkpt>
      <trkpt lat="44.23791" lon="6.23063">
        <ele>1818</ele>
        <time>2018-06-08T09:46:50Z</time>
      </trkpt>
      <trkpt lat="44.23791" lon="6.23064">
        <ele>1818</ele>
        <time>2018-06-08T09:46:53Z</time>
      </trkpt>
      <trkpt lat="44.23791" lon="6.23066">
        <ele>1818</ele>
        <time>2018-06-08T09:46:55Z</time>
      </trkpt>
      <trkpt lat="44.23791" lon="6.23068">
        <ele>1819</ele>
        <time>2018-06-08T09:46:57Z</time>
      </trkpt>
      <trkpt lat="44.2379" lon="6.23069">
        <ele>1819</ele>
        <time>2018-06-08T09:47:00Z</time>
      </trkpt>
      <trkpt lat="44.2379" lon="6.23071">
        <ele>1820</ele>
        <time>2018-06-08T09:47:03Z</time>
      </trkpt>
      <trkpt lat="44.2379" lon="6.23072">
        <ele>1820</ele>
        <time>2018-06-08T09:47:07Z</time>
      </trkpt>
      <trkpt lat="44.2379" lon="6.23074">
        <ele>1820</ele>
        <time>2018-06-08T09:47:10Z</time>
      </trkpt>
      <trkpt lat="44.2379" lon="6.23075">
        <ele>1821</ele>
        <time>2018-06-08T09:47:14Z</time>
      </trkpt>
      <trkpt lat="44.2379" lon="6.23077">
        <ele>1821</ele>
        <time>2018-06-08T09:47:17Z</time>
      </trkpt>
      <trkpt lat="44.23791" lon="6.23079">
        <ele>1822</ele>
        <time>2018-06-08T09:47:19Z</time>
      </trkpt>
      <trkpt lat="44.2379" lon="6.2308">
        <ele>1822</ele>
        <time>2018-06-08T09:47:26Z</time>
      </trkpt>
      <trkpt lat="44.2379" lon="6.23082">
        <ele>1824</ele>
        <time>2018-06-08T09:47:37Z</time>
      </trkpt>
      <trkpt lat="44.2379" lon="6.23081">
        <ele>1825</ele>
        <time>2018-06-08T09:48:08Z</time>
      </trkpt>
      <trkpt lat="44.2379" lon="6.23082">
        <ele>1825</ele>
        <time>2018-06-08T09:48:32Z</time>
      </trkpt>
      <trkpt lat="44.2379" lon="6.23081">
        <ele>1825</ele>
        <time>2018-06-08T09:48:43Z</time>
      </trkpt>
      <trkpt lat="44.23788" lon="6.2308">
        <ele>1825</ele>
        <time>2018-06-08T09:48:48Z</time>
      </trkpt>
      <trkpt lat="44.23787" lon="6.23079">
        <ele>1825</ele>
        <time>2018-06-08T09:49:01Z</time>
      </trkpt>
      <trkpt lat="44.23786" lon="6.23077">
        <ele>1825</ele>
        <time>2018-06-08T09:49:07Z</time>
      </trkpt>
      <trkpt lat="44.23785" lon="6.23076">
        <ele>1825</ele>
        <time>2018-06-08T09:49:13Z</time>
      </trkpt>
      <trkpt lat="44.23783" lon="6.23076">
        <ele>1825</ele>
        <time>2018-06-08T09:49:17Z</time>
      </trkpt>
      <trkpt lat="44.23782" lon="6.23076">
        <ele>1825</ele>
        <time>2018-06-08T09:49:20Z</time>
      </trkpt>
      <trkpt lat="44.23781" lon="6.23075">
        <ele>1825</ele>
        <time>2018-06-08T09:49:23Z</time>
      </trkpt>
      <trkpt lat="44.2378" lon="6.23075">
        <ele>1825</ele>
        <time>2018-06-08T09:49:25Z</time>
      </trkpt>
      <trkpt lat="44.23779" lon="6.23074">
        <ele>1825</ele>
        <time>2018-06-08T09:49:28Z</time>
      </trkpt>
      <trkpt lat="44.23777" lon="6.23073">
        <ele>1825</ele>
        <time>2018-06-08T09:49:31Z</time>
      </trkpt>
      <trkpt lat="44.23776" lon="6.23072">
        <ele>1825</ele>
        <time>2018-06-08T09:49:35Z</time>
      </trkpt>
      <trkpt lat="44.23774" lon="6.2307">
        <ele>1825</ele>
        <time>2018-06-08T09:49:38Z</time>
      </trkpt>
      <trkpt lat="44.23773" lon="6.2307">
        <ele>1825</ele>
        <time>2018-06-08T09:49:41Z</time>
      </trkpt>
      <trkpt lat="44.23772" lon="6.23069">
        <ele>1826</ele>
        <time>2018-06-08T09:49:44Z</time>
      </trkpt>
      <trkpt lat="44.23771" lon="6.23069">
        <ele>1826</ele>
        <time>2018-06-08T09:49:47Z</time>
      </trkpt>
      <trkpt lat="44.23769" lon="6.23068">
        <ele>1827</ele>
        <time>2018-06-08T09:49:50Z</time>
      </trkpt>
      <trkpt lat="44.23768" lon="6.23067">
        <ele>1828</ele>
        <time>2018-06-08T09:49:53Z</time>
      </trkpt>
      <trkpt lat="44.23767" lon="6.23067">
        <ele>1828</ele>
        <time>2018-06-08T09:49:56Z</time>
      </trkpt>
      <trkpt lat="44.23766" lon="6.23066">
        <ele>1828</ele>
        <time>2018-06-08T09:49:59Z</time>
      </trkpt>
      <trkpt lat="44.23764" lon="6.23065">
        <ele>1830</ele>
        <time>2018-06-08T09:50:06Z</time>
      </trkpt>
      <trkpt lat="44.23763" lon="6.23064">
        <ele>1830</ele>
        <time>2018-06-08T09:50:10Z</time>
      </trkpt>
      <trkpt lat="44.23762" lon="6.23064">
        <ele>1830</ele>
        <time>2018-06-08T09:50:14Z</time>
      </trkpt>
      <trkpt lat="44.23761" lon="6.23062">
        <ele>1831</ele>
        <time>2018-06-08T09:50:23Z</time>
      </trkpt>
      <trkpt lat="44.23759" lon="6.23061">
        <ele>1831</ele>
        <time>2018-06-08T09:50:28Z</time>
      </trkpt>
      <trkpt lat="44.23758" lon="6.2306">
        <ele>1832</ele>
        <time>2018-06-08T09:50:32Z</time>
      </trkpt>
      <trkpt lat="44.23757" lon="6.2306">
        <ele>1832</ele>
        <time>2018-06-08T09:50:35Z</time>
      </trkpt>
      <trkpt lat="44.23756" lon="6.2306">
        <ele>1833</ele>
        <time>2018-06-08T09:50:38Z</time>
      </trkpt>
      <trkpt lat="44.23754" lon="6.2306">
        <ele>1833</ele>
        <time>2018-06-08T09:50:41Z</time>
      </trkpt>
      <trkpt lat="44.23753" lon="6.23059">
        <ele>1834</ele>
        <time>2018-06-08T09:50:44Z</time>
      </trkpt>
      <trkpt lat="44.23752" lon="6.2306">
        <ele>1835</ele>
        <time>2018-06-08T09:50:48Z</time>
      </trkpt>
      <trkpt lat="44.2375" lon="6.23059">
        <ele>1835</ele>
        <time>2018-06-08T09:50:51Z</time>
      </trkpt>
      <trkpt lat="44.23749" lon="6.23059">
        <ele>1836</ele>
        <time>2018-06-08T09:50:55Z</time>
      </trkpt>
      <trkpt lat="44.23748" lon="6.23059">
        <ele>1836</ele>
        <time>2018-06-08T09:50:59Z</time>
      </trkpt>
      <trkpt lat="44.23746" lon="6.23059">
        <ele>1836</ele>
        <time>2018-06-08T09:51:02Z</time>
      </trkpt>
      <trkpt lat="44.23745" lon="6.2306">
        <ele>1837</ele>
        <time>2018-06-08T09:51:07Z</time>
      </trkpt>
      <trkpt lat="44.23743" lon="6.23061">
        <ele>1837</ele>
        <time>2018-06-08T09:51:10Z</time>
      </trkpt>
      <trkpt lat="44.23742" lon="6.2306">
        <ele>1838</ele>
        <time>2018-06-08T09:51:13Z</time>
      </trkpt>
      <trkpt lat="44.23741" lon="6.23059">
        <ele>1839</ele>
        <time>2018-06-08T09:51:18Z</time>
      </trkpt>
      <trkpt lat="44.2374" lon="6.23058">
        <ele>1839</ele>
        <time>2018-06-08T09:51:21Z</time>
      </trkpt>
      <trkpt lat="44.23739" lon="6.2306">
        <ele>1839</ele>
        <time>2018-06-08T09:51:25Z</time>
      </trkpt>
      <trkpt lat="44.23738" lon="6.23059">
        <ele>1840</ele>
        <time>2018-06-08T09:51:29Z</time>
      </trkpt>
      <trkpt lat="44.23737" lon="6.23058">
        <ele>1840</ele>
        <time>2018-06-08T09:51:33Z</time>
      </trkpt>
      <trkpt lat="44.23735" lon="6.23058">
        <ele>1840</ele>
        <time>2018-06-08T09:51:36Z</time>
      </trkpt>
      <trkpt lat="44.23734" lon="6.23058">
        <ele>1841</ele>
        <time>2018-06-08T09:51:39Z</time>
      </trkpt>
      <trkpt lat="44.23733" lon="6.23057">
        <ele>1841</ele>
        <time>2018-06-08T09:51:42Z</time>
      </trkpt>
      <trkpt lat="44.23732" lon="6.23057">
        <ele>1842</ele>
        <time>2018-06-08T09:51:46Z</time>
      </trkpt>
      <trkpt lat="44.2373" lon="6.23056">
        <ele>1842</ele>
        <time>2018-06-08T09:51:49Z</time>
      </trkpt>
      <trkpt lat="44.23729" lon="6.23056">
        <ele>1843</ele>
        <time>2018-06-08T09:51:54Z</time>
      </trkpt>
      <trkpt lat="44.23728" lon="6.23055">
        <ele>1843</ele>
        <time>2018-06-08T09:52:00Z</time>
      </trkpt>
      <trkpt lat="44.23727" lon="6.23054">
        <ele>1843</ele>
        <time>2018-06-08T09:52:03Z</time>
      </trkpt>
      <trkpt lat="44.23725" lon="6.23054">
        <ele>1844</ele>
        <time>2018-06-08T09:52:06Z</time>
      </trkpt>
      <trkpt lat="44.23724" lon="6.23054">
        <ele>1844</ele>
        <time>2018-06-08T09:52:09Z</time>
      </trkpt>
      <trkpt lat="44.23722" lon="6.23054">
        <ele>1845</ele>
        <time>2018-06-08T09:52:14Z</time>
      </trkpt>
      <trkpt lat="44.23721" lon="6.23054">
        <ele>1846</ele>
        <time>2018-06-08T09:52:16Z</time>
      </trkpt>
      <trkpt lat="44.2372" lon="6.23053">
        <ele>1846</ele>
        <time>2018-06-08T09:52:19Z</time>
      </trkpt>
      <trkpt lat="44.23719" lon="6.23053">
        <ele>1847</ele>
        <time>2018-06-08T09:52:21Z</time>
      </trkpt>
      <trkpt lat="44.23717" lon="6.23053">
        <ele>1847</ele>
        <time>2018-06-08T09:52:24Z</time>
      </trkpt>
      <trkpt lat="44.23716" lon="6.23053">
        <ele>1847</ele>
        <time>2018-06-08T09:52:27Z</time>
      </trkpt>
      <trkpt lat="44.23714" lon="6.23052">
        <ele>1848</ele>
        <time>2018-06-08T09:52:30Z</time>
      </trkpt>
      <trkpt lat="44.23713" lon="6.23052">
        <ele>1848</ele>
        <time>2018-06-08T09:52:32Z</time>
      </trkpt>
      <trkpt lat="44.23712" lon="6.23052">
        <ele>1848</ele>
        <time>2018-06-08T09:52:35Z</time>
      </trkpt>
      <trkpt lat="44.2371" lon="6.23051">
        <ele>1848</ele>
        <time>2018-06-08T09:52:37Z</time>
      </trkpt>
      <trkpt lat="44.23709" lon="6.2305">
        <ele>1849</ele>
        <time>2018-06-08T09:52:39Z</time>
      </trkpt>
      <trkpt lat="44.23707" lon="6.23049">
        <ele>1849</ele>
        <time>2018-06-08T09:52:41Z</time>
      </trkpt>
      <trkpt lat="44.23706" lon="6.23049">
        <ele>1849</ele>
        <time>2018-06-08T09:52:43Z</time>
      </trkpt>
      <trkpt lat="44.23705" lon="6.23048">
        <ele>1849</ele>
        <time>2018-06-08T09:52:45Z</time>
      </trkpt>
      <trkpt lat="44.23703" lon="6.23047">
        <ele>1850</ele>
        <time>2018-06-08T09:52:47Z</time>
      </trkpt>
      <trkpt lat="44.23702" lon="6.23047">
        <ele>1851</ele>
        <time>2018-06-08T09:52:49Z</time>
      </trkpt>
      <trkpt lat="44.23701" lon="6.23046">
        <ele>1851</ele>
        <time>2018-06-08T09:52:51Z</time>
      </trkpt>
      <trkpt lat="44.23699" lon="6.23045">
        <ele>1851</ele>
        <time>2018-06-08T09:52:53Z</time>
      </trkpt>
      <trkpt lat="44.23559" lon="6.23035">
        <ele>1890</ele>
        <time>2018-06-08T10:05:05Z</time>
      </trkpt>
      <trkpt lat="44.23559" lon="6.23035">
        <ele>1890</ele>
        <time>2018-06-08T10:05:10Z</time>
      </trkpt>
      <trkpt lat="44.23561" lon="6.23035">
        <ele>1890</ele>
        <time>2018-06-08T10:05:11Z</time>
      </trkpt>
      <trkpt lat="44.23562" lon="6.23034">
        <ele>1890</ele>
        <time>2018-06-08T10:05:13Z</time>
      </trkpt>
      <trkpt lat="44.23564" lon="6.23033">
        <ele>1889</ele>
        <time>2018-06-08T10:05:15Z</time>
      </trkpt>
      <trkpt lat="44.23564" lon="6.23033">
        <ele>1889</ele>
        <time>2018-06-08T10:05:16Z</time>
      </trkpt>
      <trkpt lat="44.23565" lon="6.23033">
        <ele>1889</ele>
        <time>2018-06-08T10:05:17Z</time>
      </trkpt>
      <trkpt lat="44.23567" lon="6.23032">
        <ele>1889</ele>
        <time>2018-06-08T10:05:19Z</time>
      </trkpt>
      <trkpt lat="44.23568" lon="6.23032">
        <ele>1889</ele>
        <time>2018-06-08T10:05:21Z</time>
      </trkpt>
      <trkpt lat="44.23569" lon="6.23032">
        <ele>1889</ele>
        <time>2018-06-08T10:05:23Z</time>
      </trkpt>
      <trkpt lat="44.23571" lon="6.23032">
        <ele>1888</ele>
        <time>2018-06-08T10:05:26Z</time>
      </trkpt>
      <trkpt lat="44.23572" lon="6.23032">
        <ele>1888</ele>
        <time>2018-06-08T10:05:28Z</time>
      </trkpt>
      <trkpt lat="44.23574" lon="6.23033">
        <ele>1888</ele>
        <time>2018-06-08T10:05:30Z</time>
      </trkpt>
      <trkpt lat="44.23575" lon="6.23032">
        <ele>1888</ele>
        <time>2018-06-08T10:05:32Z</time>
      </trkpt>
      <trkpt lat="44.23575" lon="6.23032">
        <ele>1888</ele>
        <time>2018-06-08T10:05:35Z</time>
      </trkpt>
      <trkpt lat="44.23575" lon="6.23032">
        <ele>1888</ele>
        <time>2018-06-08T10:05:36Z</time>
      </trkpt>
      <trkpt lat="44.23576" lon="6.23032">
        <ele>1888</ele>
        <time>2018-06-08T10:05:38Z</time>
      </trkpt>
      <trkpt lat="44.23578" lon="6.23032">
        <ele>1888</ele>
        <time>2018-06-08T10:05:40Z</time>
      </trkpt>
      <trkpt lat="44.23579" lon="6.23033">
        <ele>1888</ele>
        <time>2018-06-08T10:05:41Z</time>
      </trkpt>
      <trkpt lat="44.23581" lon="6.23033">
        <ele>1888</ele>
        <time>2018-06-08T10:05:43Z</time>
      </trkpt>
      <trkpt lat="44.23582" lon="6.23033">
        <ele>1888</ele>
        <time>2018-06-08T10:05:44Z</time>
      </trkpt>
      <trkpt lat="44.23583" lon="6.23033">
        <ele>1888</ele>
        <time>2018-06-08T10:05:45Z</time>
      </trkpt>
      <trkpt lat="44.23584" lon="6.23033">
        <ele>1888</ele>
        <time>2018-06-08T10:05:46Z</time>
      </trkpt>
      <trkpt lat="44.23586" lon="6.23034">
        <ele>1888</ele>
        <time>2018-06-08T10:05:48Z</time>
      </trkpt>
      <trkpt lat="44.23588" lon="6.23034">
        <ele>1887</ele>
        <time>2018-06-08T10:05:50Z</time>
      </trkpt>
      <trkpt lat="44.2359" lon="6.23034">
        <ele>1887</ele>
        <time>2018-06-08T10:05:52Z</time>
      </trkpt>
      <trkpt lat="44.23591" lon="6.23033">
        <ele>1886</ele>
        <time>2018-06-08T10:05:54Z</time>
      </trkpt>
      <trkpt lat="44.23593" lon="6.23033">
        <ele>1886</ele>
        <time>2018-06-08T10:05:56Z</time>
      </trkpt>
      <trkpt lat="44.23594" lon="6.23033">
        <ele>1885</ele>
        <time>2018-06-08T10:05:58Z</time>
      </trkpt>
      <trkpt lat="44.23595" lon="6.23032">
        <ele>1884</ele>
        <time>2018-06-08T10:06:01Z</time>
      </trkpt>
      <trkpt lat="44.23597" lon="6.23032">
        <ele>1883</ele>
        <time>2018-06-08T10:06:04Z</time>
      </trkpt>
      <trkpt lat="44.23598" lon="6.23031">
        <ele>1882</ele>
        <time>2018-06-08T10:06:07Z</time>
      </trkpt>
      <trkpt lat="44.236" lon="6.2303">
        <ele>1882</ele>
        <time>2018-06-08T10:06:09Z</time>
      </trkpt>
      <trkpt lat="44.23601" lon="6.23029">
        <ele>1881</ele>
        <time>2018-06-08T10:06:11Z</time>
      </trkpt>
      <trkpt lat="44.23602" lon="6.23029">
        <ele>1881</ele>
        <time>2018-06-08T10:06:13Z</time>
      </trkpt>
      <trkpt lat="44.23603" lon="6.23028">
        <ele>1880</ele>
        <time>2018-06-08T10:06:16Z</time>
      </trkpt>
      <trkpt lat="44.23605" lon="6.23027">
        <ele>1879</ele>
        <time>2018-06-08T10:06:18Z</time>
      </trkpt>
      <trkpt lat="44.23607" lon="6.23027">
        <ele>1878</ele>
        <time>2018-06-08T10:06:20Z</time>
      </trkpt>
      <trkpt lat="44.23608" lon="6.23027">
        <ele>1878</ele>
        <time>2018-06-08T10:06:22Z</time>
      </trkpt>
      <trkpt lat="44.23609" lon="6.23026">
        <ele>1877</ele>
        <time>2018-06-08T10:06:24Z</time>
      </trkpt>
      <trkpt lat="44.23611" lon="6.23026">
        <ele>1876</ele>
        <time>2018-06-08T10:06:26Z</time>
      </trkpt>
      <trkpt lat="44.23612" lon="6.23026">
        <ele>1876</ele>
        <time>2018-06-08T10:06:28Z</time>
      </trkpt>
      <trkpt lat="44.23613" lon="6.23025">
        <ele>1875</ele>
        <time>2018-06-08T10:06:30Z</time>
      </trkpt>
      <trkpt lat="44.23615" lon="6.23025">
        <ele>1874</ele>
        <time>2018-06-08T10:06:32Z</time>
      </trkpt>
      <trkpt lat="44.23616" lon="6.23025">
        <ele>1874</ele>
        <time>2018-06-08T10:06:34Z</time>
      </trkpt>
      <trkpt lat="44.23617" lon="6.23025">
        <ele>1873</ele>
        <time>2018-06-08T10:06:36Z</time>
      </trkpt>
      <trkpt lat="44.23618" lon="6.23025">
        <ele>1873</ele>
        <time>2018-06-08T10:06:38Z</time>
      </trkpt>
      <trkpt lat="44.2362" lon="6.23025">
        <ele>1872</ele>
        <time>2018-06-08T10:06:40Z</time>
      </trkpt>
      <trkpt lat="44.23621" lon="6.23024">
        <ele>1872</ele>
        <time>2018-06-08T10:06:42Z</time>
      </trkpt>
      <trkpt lat="44.23623" lon="6.23024">
        <ele>1871</ele>
        <time>2018-06-08T10:06:44Z</time>
      </trkpt>
      <trkpt lat="44.23625" lon="6.23024">
        <ele>1870</ele>
        <time>2018-06-08T10:06:46Z</time>
      </trkpt>
      <trkpt lat="44.23627" lon="6.23024">
        <ele>1870</ele>
        <time>2018-06-08T10:06:48Z</time>
      </trkpt>
      <trkpt lat="44.23629" lon="6.23024">
        <ele>1869</ele>
        <time>2018-06-08T10:06:50Z</time>
      </trkpt>
      <trkpt lat="44.2363" lon="6.23024">
        <ele>1868</ele>
        <time>2018-06-08T10:06:52Z</time>
      </trkpt>
      <trkpt lat="44.23632" lon="6.23023">
        <ele>1868</ele>
        <time>2018-06-08T10:06:54Z</time>
      </trkpt>
      <trkpt lat="44.23634" lon="6.23023">
        <ele>1867</ele>
        <time>2018-06-08T10:06:56Z</time>
      </trkpt>
      <trkpt lat="44.23636" lon="6.23023">
        <ele>1867</ele>
        <time>2018-06-08T10:06:58Z</time>
      </trkpt>
      <trkpt lat="44.23638" lon="6.23023">
        <ele>1866</ele>
        <time>2018-06-08T10:07:00Z</time>
      </trkpt>
      <trkpt lat="44.2364" lon="6.23024">
        <ele>1865</ele>
        <time>2018-06-08T10:07:02Z</time>
      </trkpt>
      <trkpt lat="44.23641" lon="6.23023">
        <ele>1865</ele>
        <time>2018-06-08T10:07:03Z</time>
      </trkpt>
      <trkpt lat="44.23643" lon="6.23024">
        <ele>1864</ele>
        <time>2018-06-08T10:07:05Z</time>
      </trkpt>
      <trkpt lat="44.23645" lon="6.23024">
        <ele>1864</ele>
        <time>2018-06-08T10:07:07Z</time>
      </trkpt>
      <trkpt lat="44.23647" lon="6.23024">
        <ele>1863</ele>
        <time>2018-06-08T10:07:09Z</time>
      </trkpt>
      <trkpt lat="44.23648" lon="6.23025">
        <ele>1863</ele>
        <time>2018-06-08T10:07:11Z</time>
      </trkpt>
      <trkpt lat="44.2365" lon="6.23025">
        <ele>1862</ele>
        <time>2018-06-08T10:07:13Z</time>
      </trkpt>
      <trkpt lat="44.23652" lon="6.23025">
        <ele>1862</ele>
        <time>2018-06-08T10:07:15Z</time>
      </trkpt>
      <trkpt lat="44.23653" lon="6.23025">
        <ele>1862</ele>
        <time>2018-06-08T10:07:16Z</time>
      </trkpt>
      <trkpt lat="44.23654" lon="6.23025">
        <ele>1861</ele>
        <time>2018-06-08T10:07:17Z</time>
      </trkpt>
      <trkpt lat="44.23655" lon="6.23025">
        <ele>1861</ele>
        <time>2018-06-08T10:07:18Z</time>
      </trkpt>
      <trkpt lat="44.23657" lon="6.23025">
        <ele>1861</ele>
        <time>2018-06-08T10:07:19Z</time>
      </trkpt>
      <trkpt lat="44.23658" lon="6.23026">
        <ele>1861</ele>
        <time>2018-06-08T10:07:20Z</time>
      </trkpt>
      <trkpt lat="44.23659" lon="6.23026">
        <ele>1861</ele>
        <time>2018-06-08T10:07:21Z</time>
      </trkpt>
      <trkpt lat="44.2366" lon="6.23026">
        <ele>1860</ele>
        <time>2018-06-08T10:07:22Z</time>
      </trkpt>
      <trkpt lat="44.23661" lon="6.23027">
        <ele>1860</ele>
        <time>2018-06-08T10:07:23Z</time>
      </trkpt>
      <trkpt lat="44.23663" lon="6.23028">
        <ele>1860</ele>
        <time>2018-06-08T10:07:25Z</time>
      </trkpt>
      <trkpt lat="44.23664" lon="6.23028">
        <ele>1860</ele>
        <time>2018-06-08T10:07:26Z</time>
      </trkpt>
      <trkpt lat="44.23666" lon="6.23028">
        <ele>1860</ele>
        <time>2018-06-08T10:07:27Z</time>
      </trkpt>
      <trkpt lat="44.23667" lon="6.23028">
        <ele>1859</ele>
        <time>2018-06-08T10:07:28Z</time>
      </trkpt>
      <trkpt lat="44.23668" lon="6.23029">
        <ele>1859</ele>
        <time>2018-06-08T10:07:29Z</time>
      </trkpt>
      <trkpt lat="44.23669" lon="6.23029">
        <ele>1859</ele>
        <time>2018-06-08T10:07:30Z</time>
      </trkpt>
      <trkpt lat="44.2367" lon="6.23029">
        <ele>1859</ele>
        <time>2018-06-08T10:07:31Z</time>
      </trkpt>
      <trkpt lat="44.23671" lon="6.2303">
        <ele>1859</ele>
        <time>2018-06-08T10:07:32Z</time>
      </trkpt>
      <trkpt lat="44.23674" lon="6.2303">
        <ele>1858</ele>
        <time>2018-06-08T10:07:34Z</time>
      </trkpt>
      <trkpt lat="44.23675" lon="6.2303">
        <ele>1858</ele>
        <time>2018-06-08T10:07:35Z</time>
      </trkpt>
      <trkpt lat="44.23677" lon="6.23031">
        <ele>1858</ele>
        <time>2018-06-08T10:07:37Z</time>
      </trkpt>
      <trkpt lat="44.23679" lon="6.23032">
        <ele>1858</ele>
        <time>2018-06-08T10:07:39Z</time>
      </trkpt>
      <trkpt lat="44.23681" lon="6.23032">
        <ele>1857</ele>
        <time>2018-06-08T10:07:41Z</time>
      </trkpt>
      <trkpt lat="44.23683" lon="6.23034">
        <ele>1857</ele>
        <time>2018-06-08T10:07:43Z</time>
      </trkpt>
      <trkpt lat="44.23685" lon="6.23035">
        <ele>1856</ele>
        <time>2018-06-08T10:07:45Z</time>
      </trkpt>
      <trkpt lat="44.23687" lon="6.23036">
        <ele>1856</ele>
        <time>2018-06-08T10:07:47Z</time>
      </trkpt>
      <trkpt lat="44.23689" lon="6.23038">
        <ele>1856</ele>
        <time>2018-06-08T10:07:49Z</time>
      </trkpt>
      <trkpt lat="44.23691" lon="6.2304">
        <ele>1856</ele>
        <time>2018-06-08T10:07:51Z</time>
      </trkpt>
      <trkpt lat="44.23692" lon="6.23042">
        <ele>1856</ele>
        <time>2018-06-08T10:07:53Z</time>
      </trkpt>
      <trkpt lat="44.23694" lon="6.23043">
        <ele>1855</ele>
        <time>2018-06-08T10:07:55Z</time>
      </trkpt>
      <trkpt lat="44.23696" lon="6.23045">
        <ele>1855</ele>
        <time>2018-06-08T10:07:57Z</time>
      </trkpt>
      <trkpt lat="44.23698" lon="6.23046">
        <ele>1855</ele>
        <time>2018-06-08T10:07:59Z</time>
      </trkpt>
      <trkpt lat="44.237" lon="6.23048">
        <ele>1855</ele>
        <time>2018-06-08T10:08:01Z</time>
      </trkpt>
      <trkpt lat="44.23701" lon="6.23049">
        <ele>1854</ele>
        <time>2018-06-08T10:08:03Z</time>
      </trkpt>
      <trkpt lat="44.23703" lon="6.2305">
        <ele>1854</ele>
        <time>2018-06-08T10:08:05Z</time>
      </trkpt>
      <trkpt lat="44.23705" lon="6.23051">
        <ele>1853</ele>
        <time>2018-06-08T10:08:07Z</time>
      </trkpt>
      <trkpt lat="44.23707" lon="6.23052">
        <ele>1853</ele>
        <time>2018-06-08T10:08:09Z</time>
      </trkpt>
      <trkpt lat="44.23708" lon="6.23053">
        <ele>1853</ele>
        <time>2018-06-08T10:08:11Z</time>
      </trkpt>
      <trkpt lat="44.2371" lon="6.23053">
        <ele>1852</ele>
        <time>2018-06-08T10:08:13Z</time>
      </trkpt>
      <trkpt lat="44.23711" lon="6.23054">
        <ele>1852</ele>
        <time>2018-06-08T10:08:15Z</time>
      </trkpt>
      <trkpt lat="44.23713" lon="6.23054">
        <ele>1851</ele>
        <time>2018-06-08T10:08:17Z</time>
      </trkpt>
      <trkpt lat="44.23714" lon="6.23054">
        <ele>1851</ele>
        <time>2018-06-08T10:08:19Z</time>
      </trkpt>
      <trkpt lat="44.23715" lon="6.23055">
        <ele>1850</ele>
        <time>2018-06-08T10:08:23Z</time>
      </trkpt>
      <trkpt lat="44.23716" lon="6.23055">
        <ele>1850</ele>
        <time>2018-06-08T10:08:26Z</time>
      </trkpt>
      <trkpt lat="44.23717" lon="6.23057">
        <ele>1850</ele>
        <time>2018-06-08T10:08:29Z</time>
      </trkpt>
      <trkpt lat="44.23718" lon="6.23058">
        <ele>1850</ele>
        <time>2018-06-08T10:08:32Z</time>
      </trkpt>
      <trkpt lat="44.23719" lon="6.23058">
        <ele>1850</ele>
        <time>2018-06-08T10:08:35Z</time>
      </trkpt>
      <trkpt lat="44.2372" lon="6.23056">
        <ele>1850</ele>
        <time>2018-06-08T10:08:37Z</time>
      </trkpt>
      <trkpt lat="44.23722" lon="6.23055">
        <ele>1849</ele>
        <time>2018-06-08T10:08:40Z</time>
      </trkpt>
      <trkpt lat="44.23723" lon="6.23055">
        <ele>1849</ele>
        <time>2018-06-08T10:08:43Z</time>
      </trkpt>
      <trkpt lat="44.23724" lon="6.23056">
        <ele>1848</ele>
        <time>2018-06-08T10:08:46Z</time>
      </trkpt>
      <trkpt lat="44.23726" lon="6.23056">
        <ele>1848</ele>
        <time>2018-06-08T10:08:49Z</time>
      </trkpt>
      <trkpt lat="44.23728" lon="6.23057">
        <ele>1847</ele>
        <time>2018-06-08T10:08:52Z</time>
      </trkpt>
      <trkpt lat="44.23729" lon="6.23057">
        <ele>1846</ele>
        <time>2018-06-08T10:08:54Z</time>
      </trkpt>
      <trkpt lat="44.2373" lon="6.23058">
        <ele>1846</ele>
        <time>2018-06-08T10:08:57Z</time>
      </trkpt>
      <trkpt lat="44.23732" lon="6.23059">
        <ele>1845</ele>
        <time>2018-06-08T10:09:00Z</time>
      </trkpt>
      <trkpt lat="44.23734" lon="6.23059">
        <ele>1844</ele>
        <time>2018-06-08T10:09:03Z</time>
      </trkpt>
      <trkpt lat="44.23735" lon="6.23059">
        <ele>1844</ele>
        <time>2018-06-08T10:09:06Z</time>
      </trkpt>
      <trkpt lat="44.23737" lon="6.2306">
        <ele>1843</ele>
        <time>2018-06-08T10:09:09Z</time>
      </trkpt>
      <trkpt lat="44.23737" lon="6.23059">
        <ele>1843</ele>
        <time>2018-06-08T10:09:12Z</time>
      </trkpt>
      <trkpt lat="44.23738" lon="6.23057">
        <ele>1842</ele>
        <time>2018-06-08T10:09:15Z</time>
      </trkpt>
      <trkpt lat="44.2374" lon="6.23057">
        <ele>1842</ele>
        <time>2018-06-08T10:09:17Z</time>
      </trkpt>
      <trkpt lat="44.23742" lon="6.23057">
        <ele>1841</ele>
        <time>2018-06-08T10:09:20Z</time>
      </trkpt>
      <trkpt lat="44.23743" lon="6.23057">
        <ele>1840</ele>
        <time>2018-06-08T10:09:22Z</time>
      </trkpt>
      <trkpt lat="44.23744" lon="6.23058">
        <ele>1839</ele>
        <time>2018-06-08T10:09:25Z</time>
      </trkpt>
      <trkpt lat="44.23745" lon="6.23059">
        <ele>1839</ele>
        <time>2018-06-08T10:09:27Z</time>
      </trkpt>
      <trkpt lat="44.23747" lon="6.23059">
        <ele>1838</ele>
        <time>2018-06-08T10:09:30Z</time>
      </trkpt>
      <trkpt lat="44.23749" lon="6.2306">
        <ele>1838</ele>
        <time>2018-06-08T10:09:33Z</time>
      </trkpt>
      <trkpt lat="44.2375" lon="6.23061">
        <ele>1838</ele>
        <time>2018-06-08T10:09:35Z</time>
      </trkpt>
      <trkpt lat="44.23751" lon="6.23062">
        <ele>1837</ele>
        <time>2018-06-08T10:09:38Z</time>
      </trkpt>
      <trkpt lat="44.23753" lon="6.23061">
        <ele>1837</ele>
        <time>2018-06-08T10:09:42Z</time>
      </trkpt>
      <trkpt lat="44.23753" lon="6.23059">
        <ele>1836</ele>
        <time>2018-06-08T10:09:44Z</time>
      </trkpt>
      <trkpt lat="44.23755" lon="6.23059">
        <ele>1836</ele>
        <time>2018-06-08T10:09:46Z</time>
      </trkpt>
      <trkpt lat="44.23756" lon="6.2306">
        <ele>1835</ele>
        <time>2018-06-08T10:09:52Z</time>
      </trkpt>
      <trkpt lat="44.23757" lon="6.2306">
        <ele>1835</ele>
        <time>2018-06-08T10:09:56Z</time>
      </trkpt>
      <trkpt lat="44.23758" lon="6.23061">
        <ele>1834</ele>
        <time>2018-06-08T10:09:59Z</time>
      </trkpt>
      <trkpt lat="44.2376" lon="6.23063">
        <ele>1833</ele>
        <time>2018-06-08T10:10:02Z</time>
      </trkpt>
      <trkpt lat="44.23761" lon="6.23064">
        <ele>1833</ele>
        <time>2018-06-08T10:10:05Z</time>
      </trkpt>
      <trkpt lat="44.23762" lon="6.23064">
        <ele>1833</ele>
        <time>2018-06-08T10:10:09Z</time>
      </trkpt>
      <trkpt lat="44.23763" lon="6.23062">
        <ele>1833</ele>
        <time>2018-06-08T10:10:12Z</time>
      </trkpt>
      <trkpt lat="44.23763" lon="6.2306">
        <ele>1832</ele>
        <time>2018-06-08T10:10:14Z</time>
      </trkpt>
      <trkpt lat="44.23764" lon="6.23061">
        <ele>1832</ele>
        <time>2018-06-08T10:10:17Z</time>
      </trkpt>
      <trkpt lat="44.23766" lon="6.23062">
        <ele>1831</ele>
        <time>2018-06-08T10:10:20Z</time>
      </trkpt>
      <trkpt lat="44.23767" lon="6.23063">
        <ele>1830</ele>
        <time>2018-06-08T10:10:23Z</time>
      </trkpt>
      <trkpt lat="44.23768" lon="6.23062">
        <ele>1830</ele>
        <time>2018-06-08T10:10:25Z</time>
      </trkpt>
      <trkpt lat="44.23769" lon="6.23061">
        <ele>1829</ele>
        <time>2018-06-08T10:10:28Z</time>
      </trkpt>
      <trkpt lat="44.23771" lon="6.23061">
        <ele>1829</ele>
        <time>2018-06-08T10:10:30Z</time>
      </trkpt>
      <trkpt lat="44.23772" lon="6.23062">
        <ele>1828</ele>
        <time>2018-06-08T10:10:33Z</time>
      </trkpt>
      <trkpt lat="44.23773" lon="6.23063">
        <ele>1827</ele>
        <time>2018-06-08T10:10:35Z</time>
      </trkpt>
      <trkpt lat="44.23774" lon="6.23064">
        <ele>1827</ele>
        <time>2018-06-08T10:10:37Z</time>
      </trkpt>
      <trkpt lat="44.23776" lon="6.23065">
        <ele>1826</ele>
        <time>2018-06-08T10:10:40Z</time>
      </trkpt>
      <trkpt lat="44.23777" lon="6.23064">
        <ele>1826</ele>
        <time>2018-06-08T10:10:42Z</time>
      </trkpt>
      <trkpt lat="44.23778" lon="6.23062">
        <ele>1826</ele>
        <time>2018-06-08T10:10:44Z</time>
      </trkpt>
      <trkpt lat="44.23778" lon="6.2306">
        <ele>1826</ele>
        <time>2018-06-08T10:10:46Z</time>
      </trkpt>
      <trkpt lat="44.23779" lon="6.23058">
        <ele>1825</ele>
        <time>2018-06-08T10:10:48Z</time>
      </trkpt>
      <trkpt lat="44.23781" lon="6.23056">
        <ele>1824</ele>
        <time>2018-06-08T10:10:52Z</time>
      </trkpt>
      <trkpt lat="44.23781" lon="6.23054">
        <ele>1823</ele>
        <time>2018-06-08T10:10:55Z</time>
      </trkpt>
      <trkpt lat="44.23782" lon="6.23053">
        <ele>1822</ele>
        <time>2018-06-08T10:10:58Z</time>
      </trkpt>
      <trkpt lat="44.23784" lon="6.23053">
        <ele>1821</ele>
        <time>2018-06-08T10:11:02Z</time>
      </trkpt>
      <trkpt lat="44.23785" lon="6.23053">
        <ele>1819</ele>
        <time>2018-06-08T10:11:05Z</time>
      </trkpt>
      <trkpt lat="44.23786" lon="6.23053">
        <ele>1818</ele>
        <time>2018-06-08T10:11:08Z</time>
      </trkpt>
      <trkpt lat="44.23788" lon="6.23053">
        <ele>1818</ele>
        <time>2018-06-08T10:11:11Z</time>
      </trkpt>
      <trkpt lat="44.23788" lon="6.23051">
        <ele>1817</ele>
        <time>2018-06-08T10:11:13Z</time>
      </trkpt>
      <trkpt lat="44.23789" lon="6.2305">
        <ele>1816</ele>
        <time>2018-06-08T10:11:15Z</time>
      </trkpt>
      <trkpt lat="44.2379" lon="6.23051">
        <ele>1816</ele>
        <time>2018-06-08T10:11:17Z</time>
      </trkpt>
      <trkpt lat="44.23792" lon="6.23051">
        <ele>1815</ele>
        <time>2018-06-08T10:11:19Z</time>
      </trkpt>
      <trkpt lat="44.23793" lon="6.23052">
        <ele>1814</ele>
        <time>2018-06-08T10:11:21Z</time>
      </trkpt>
      <trkpt lat="44.23794" lon="6.2305">
        <ele>1813</ele>
        <time>2018-06-08T10:11:25Z</time>
      </trkpt>
      <trkpt lat="44.23795" lon="6.23048">
        <ele>1812</ele>
        <time>2018-06-08T10:11:27Z</time>
      </trkpt>
      <trkpt lat="44.23795" lon="6.23046">
        <ele>1812</ele>
        <time>2018-06-08T10:11:29Z</time>
      </trkpt>
      <trkpt lat="44.23795" lon="6.23044">
        <ele>1811</ele>
        <time>2018-06-08T10:11:31Z</time>
      </trkpt>
      <trkpt lat="44.23795" lon="6.23042">
        <ele>1811</ele>
        <time>2018-06-08T10:11:33Z</time>
      </trkpt>
      <trkpt lat="44.23794" lon="6.2304">
        <ele>1810</ele>
        <time>2018-06-08T10:11:35Z</time>
      </trkpt>
      <trkpt lat="44.23794" lon="6.23038">
        <ele>1810</ele>
        <time>2018-06-08T10:11:37Z</time>
      </trkpt>
      <trkpt lat="44.23794" lon="6.23036">
        <ele>1809</ele>
        <time>2018-06-08T10:11:39Z</time>
      </trkpt>
      <trkpt lat="44.23794" lon="6.23034">
        <ele>1808</ele>
        <time>2018-06-08T10:11:41Z</time>
      </trkpt>
      <trkpt lat="44.23794" lon="6.23032">
        <ele>1807</ele>
        <time>2018-06-08T10:11:44Z</time>
      </trkpt>
      <trkpt lat="44.23793" lon="6.23029">
        <ele>1807</ele>
        <time>2018-06-08T10:11:46Z</time>
      </trkpt>
      <trkpt lat="44.23793" lon="6.23027">
        <ele>1806</ele>
        <time>2018-06-08T10:11:48Z</time>
      </trkpt>
      <trkpt lat="44.23792" lon="6.23025">
        <ele>1806</ele>
        <time>2018-06-08T10:11:50Z</time>
      </trkpt>
      <trkpt lat="44.23792" lon="6.23022">
        <ele>1806</ele>
        <time>2018-06-08T10:11:52Z</time>
      </trkpt>
      <trkpt lat="44.23791" lon="6.23021">
        <ele>1806</ele>
        <time>2018-06-08T10:11:53Z</time>
      </trkpt>
      <trkpt lat="44.23791" lon="6.23018">
        <ele>1806</ele>
        <time>2018-06-08T10:11:55Z</time>
      </trkpt>
      <trkpt lat="44.23791" lon="6.23016">
        <ele>1805</ele>
        <time>2018-06-08T10:11:57Z</time>
      </trkpt>
      <trkpt lat="44.23791" lon="6.23015">
        <ele>1805</ele>
        <time>2018-06-08T10:11:59Z</time>
      </trkpt>
      <trkpt lat="44.23792" lon="6.23013">
        <ele>1805</ele>
        <time>2018-06-08T10:12:01Z</time>
      </trkpt>
      <trkpt lat="44.23792" lon="6.23011">
        <ele>1804</ele>
        <time>2018-06-08T10:12:03Z</time>
      </trkpt>
      <trkpt lat="44.23791" lon="6.23009">
        <ele>1804</ele>
        <time>2018-06-08T10:12:05Z</time>
      </trkpt>
      <trkpt lat="44.2379" lon="6.23007">
        <ele>1804</ele>
        <time>2018-06-08T10:12:07Z</time>
      </trkpt>
      <trkpt lat="44.23789" lon="6.23005">
        <ele>1803</ele>
        <time>2018-06-08T10:12:09Z</time>
      </trkpt>
      <trkpt lat="44.23788" lon="6.23002">
        <ele>1803</ele>
        <time>2018-06-08T10:12:11Z</time>
      </trkpt>
      <trkpt lat="44.23788" lon="6.23001">
        <ele>1803</ele>
        <time>2018-06-08T10:12:13Z</time>
      </trkpt>
      <trkpt lat="44.23787" lon="6.22999">
        <ele>1802</ele>
        <time>2018-06-08T10:12:15Z</time>
      </trkpt>
      <trkpt lat="44.23786" lon="6.22997">
        <ele>1802</ele>
        <time>2018-06-08T10:12:17Z</time>
      </trkpt>
      <trkpt lat="44.23785" lon="6.22995">
        <ele>1801</ele>
        <time>2018-06-08T10:12:20Z</time>
      </trkpt>
      <trkpt lat="44.23784" lon="6.22993">
        <ele>1801</ele>
        <time>2018-06-08T10:12:23Z</time>
      </trkpt>
      <trkpt lat="44.23784" lon="6.22991">
        <ele>1801</ele>
        <time>2018-06-08T10:12:25Z</time>
      </trkpt>
      <trkpt lat="44.23783" lon="6.22989">
        <ele>1800</ele>
        <time>2018-06-08T10:12:27Z</time>
      </trkpt>
      <trkpt lat="44.23782" lon="6.22987">
        <ele>1800</ele>
        <time>2018-06-08T10:12:29Z</time>
      </trkpt>
      <trkpt lat="44.23781" lon="6.22985">
        <ele>1799</ele>
        <time>2018-06-08T10:12:31Z</time>
      </trkpt>
      <trkpt lat="44.2378" lon="6.22982">
        <ele>1799</ele>
        <time>2018-06-08T10:12:33Z</time>
      </trkpt>
      <trkpt lat="44.2378" lon="6.22981">
        <ele>1799</ele>
        <time>2018-06-08T10:12:34Z</time>
      </trkpt>
      <trkpt lat="44.23778" lon="6.22979">
        <ele>1799</ele>
        <time>2018-06-08T10:12:36Z</time>
      </trkpt>
      <trkpt lat="44.23777" lon="6.22976">
        <ele>1798</ele>
        <time>2018-06-08T10:12:38Z</time>
      </trkpt>
      <trkpt lat="44.23776" lon="6.22974">
        <ele>1798</ele>
        <time>2018-06-08T10:12:40Z</time>
      </trkpt>
      <trkpt lat="44.23776" lon="6.22972">
        <ele>1797</ele>
        <time>2018-06-08T10:12:43Z</time>
      </trkpt>
      <trkpt lat="44.23775" lon="6.22971">
        <ele>1797</ele>
        <time>2018-06-08T10:12:45Z</time>
      </trkpt>
      <trkpt lat="44.23774" lon="6.22969">
        <ele>1796</ele>
        <time>2018-06-08T10:12:47Z</time>
      </trkpt>
      <trkpt lat="44.23774" lon="6.22967">
        <ele>1796</ele>
        <time>2018-06-08T10:12:49Z</time>
      </trkpt>
      <trkpt lat="44.23774" lon="6.22966">
        <ele>1796</ele>
        <time>2018-06-08T10:12:51Z</time>
      </trkpt>
      <trkpt lat="44.23773" lon="6.22963">
        <ele>1795</ele>
        <time>2018-06-08T10:12:53Z</time>
      </trkpt>
      <trkpt lat="44.23772" lon="6.22961">
        <ele>1795</ele>
        <time>2018-06-08T10:12:55Z</time>
      </trkpt>
      <trkpt lat="44.23771" lon="6.22959">
        <ele>1795</ele>
        <time>2018-06-08T10:12:57Z</time>
      </trkpt>
      <trkpt lat="44.2377" lon="6.22957">
        <ele>1794</ele>
        <time>2018-06-08T10:12:59Z</time>
      </trkpt>
      <trkpt lat="44.23769" lon="6.22956">
        <ele>1794</ele>
        <time>2018-06-08T10:13:01Z</time>
      </trkpt>
      <trkpt lat="44.23769" lon="6.22954">
        <ele>1794</ele>
        <time>2018-06-08T10:13:03Z</time>
      </trkpt>
      <trkpt lat="44.23769" lon="6.22951">
        <ele>1793</ele>
        <time>2018-06-08T10:13:06Z</time>
      </trkpt>
      <trkpt lat="44.23768" lon="6.22949">
        <ele>1792</ele>
        <time>2018-06-08T10:13:09Z</time>
      </trkpt>
      <trkpt lat="44.23768" lon="6.22947">
        <ele>1792</ele>
        <time>2018-06-08T10:13:12Z</time>
      </trkpt>
      <trkpt lat="44.23767" lon="6.22945">
        <ele>1791</ele>
        <time>2018-06-08T10:13:14Z</time>
      </trkpt>
      <trkpt lat="44.23767" lon="6.22943">
        <ele>1791</ele>
        <time>2018-06-08T10:13:16Z</time>
      </trkpt>
      <trkpt lat="44.23766" lon="6.22942">
        <ele>1790</ele>
        <time>2018-06-08T10:13:18Z</time>
      </trkpt>
      <trkpt lat="44.23766" lon="6.22939">
        <ele>1790</ele>
        <time>2018-06-08T10:13:20Z</time>
      </trkpt>
      <trkpt lat="44.23766" lon="6.22937">
        <ele>1789</ele>
        <time>2018-06-08T10:13:22Z</time>
      </trkpt>
      <trkpt lat="44.23766" lon="6.22935">
        <ele>1789</ele>
        <time>2018-06-08T10:13:24Z</time>
      </trkpt>
      <trkpt lat="44.23766" lon="6.22934">
        <ele>1788</ele>
        <time>2018-06-08T10:13:26Z</time>
      </trkpt>
      <trkpt lat="44.23766" lon="6.22932">
        <ele>1787</ele>
        <time>2018-06-08T10:13:30Z</time>
      </trkpt>
      <trkpt lat="44.23765" lon="6.22929">
        <ele>1786</ele>
        <time>2018-06-08T10:13:33Z</time>
      </trkpt>
      <trkpt lat="44.23765" lon="6.22928">
        <ele>1786</ele>
        <time>2018-06-08T10:13:35Z</time>
      </trkpt>
      <trkpt lat="44.23764" lon="6.22926">
        <ele>1785</ele>
        <time>2018-06-08T10:13:37Z</time>
      </trkpt>
      <trkpt lat="44.23764" lon="6.22924">
        <ele>1785</ele>
        <time>2018-06-08T10:13:39Z</time>
      </trkpt>
      <trkpt lat="44.23764" lon="6.22922">
        <ele>1784</ele>
        <time>2018-06-08T10:13:41Z</time>
      </trkpt>
      <trkpt lat="44.23763" lon="6.2292">
        <ele>1783</ele>
        <time>2018-06-08T10:13:43Z</time>
      </trkpt>
      <trkpt lat="44.23763" lon="6.22918">
        <ele>1783</ele>
        <time>2018-06-08T10:13:45Z</time>
      </trkpt>
      <trkpt lat="44.23763" lon="6.22916">
        <ele>1782</ele>
        <time>2018-06-08T10:13:48Z</time>
      </trkpt>
      <trkpt lat="44.23763" lon="6.22915">
        <ele>1782</ele>
        <time>2018-06-08T10:13:50Z</time>
      </trkpt>
      <trkpt lat="44.23762" lon="6.22913">
        <ele>1781</ele>
        <time>2018-06-08T10:13:52Z</time>
      </trkpt>
      <trkpt lat="44.23761" lon="6.2291">
        <ele>1781</ele>
        <time>2018-06-08T10:13:54Z</time>
      </trkpt>
      <trkpt lat="44.23761" lon="6.22908">
        <ele>1780</ele>
        <time>2018-06-08T10:13:56Z</time>
      </trkpt>
      <trkpt lat="44.2376" lon="6.22906">
        <ele>1779</ele>
        <time>2018-06-08T10:13:58Z</time>
      </trkpt>
      <trkpt lat="44.23759" lon="6.22904">
        <ele>1779</ele>
        <time>2018-06-08T10:14:00Z</time>
      </trkpt>
      <trkpt lat="44.23759" lon="6.22902">
        <ele>1779</ele>
        <time>2018-06-08T10:14:01Z</time>
      </trkpt>
      <trkpt lat="44.23758" lon="6.22901">
        <ele>1778</ele>
        <time>2018-06-08T10:14:02Z</time>
      </trkpt>
      <trkpt lat="44.23758" lon="6.22898">
        <ele>1778</ele>
        <time>2018-06-08T10:14:04Z</time>
      </trkpt>
      <trkpt lat="44.23758" lon="6.22897">
        <ele>1777</ele>
        <time>2018-06-08T10:14:06Z</time>
      </trkpt>
      <trkpt lat="44.23757" lon="6.22895">
        <ele>1777</ele>
        <time>2018-06-08T10:14:08Z</time>
      </trkpt>
      <trkpt lat="44.23757" lon="6.22895">
        <ele>1777</ele>
        <time>2018-06-08T10:14:11Z</time>
      </trkpt>
      <trkpt lat="44.23758" lon="6.22894">
        <ele>1776</ele>
        <time>2018-06-08T10:14:13Z</time>
      </trkpt>
      <trkpt lat="44.23758" lon="6.22892">
        <ele>1775</ele>
        <time>2018-06-08T10:14:15Z</time>
      </trkpt>
      <trkpt lat="44.23757" lon="6.2289">
        <ele>1775</ele>
        <time>2018-06-08T10:14:17Z</time>
      </trkpt>
      <trkpt lat="44.23756" lon="6.22888">
        <ele>1774</ele>
        <time>2018-06-08T10:14:19Z</time>
      </trkpt>
      <trkpt lat="44.23755" lon="6.22886">
        <ele>1774</ele>
        <time>2018-06-08T10:14:21Z</time>
      </trkpt>
      <trkpt lat="44.23755" lon="6.22884">
        <ele>1773</ele>
        <time>2018-06-08T10:14:23Z</time>
      </trkpt>
      <trkpt lat="44.23753" lon="6.22882">
        <ele>1772</ele>
        <time>2018-06-08T10:14:25Z</time>
      </trkpt>
      <trkpt lat="44.23753" lon="6.2288">
        <ele>1772</ele>
        <time>2018-06-08T10:14:27Z</time>
      </trkpt>
      <trkpt lat="44.23752" lon="6.22877">
        <ele>1771</ele>
        <time>2018-06-08T10:14:29Z</time>
      </trkpt>
      <trkpt lat="44.23752" lon="6.22875">
        <ele>1771</ele>
        <time>2018-06-08T10:14:31Z</time>
      </trkpt>
      <trkpt lat="44.23751" lon="6.22873">
        <ele>1770</ele>
        <time>2018-06-08T10:14:33Z</time>
      </trkpt>
      <trkpt lat="44.23751" lon="6.22872">
        <ele>1769</ele>
        <time>2018-06-08T10:14:35Z</time>
      </trkpt>
      <trkpt lat="44.23751" lon="6.22869">
        <ele>1768</ele>
        <time>2018-06-08T10:14:37Z</time>
      </trkpt>
      <trkpt lat="44.23751" lon="6.22867">
        <ele>1767</ele>
        <time>2018-06-08T10:14:39Z</time>
      </trkpt>
      <trkpt lat="44.23749" lon="6.22866">
        <ele>1765</ele>
        <time>2018-06-08T10:14:42Z</time>
      </trkpt>
      <trkpt lat="44.23748" lon="6.22864">
        <ele>1764</ele>
        <time>2018-06-08T10:14:43Z</time>
      </trkpt>
      <trkpt lat="44.23747" lon="6.22862">
        <ele>1764</ele>
        <time>2018-06-08T10:14:45Z</time>
      </trkpt>
      <trkpt lat="44.23746" lon="6.2286">
        <ele>1763</ele>
        <time>2018-06-08T10:14:47Z</time>
      </trkpt>
      <trkpt lat="44.23745" lon="6.22858">
        <ele>1763</ele>
        <time>2018-06-08T10:14:49Z</time>
      </trkpt>
      <trkpt lat="44.23745" lon="6.22856">
        <ele>1762</ele>
        <time>2018-06-08T10:14:51Z</time>
      </trkpt>
      <trkpt lat="44.23743" lon="6.22854">
        <ele>1762</ele>
        <time>2018-06-08T10:14:54Z</time>
      </trkpt>
      <trkpt lat="44.23743" lon="6.22852">
        <ele>1762</ele>
        <time>2018-06-08T10:14:56Z</time>
      </trkpt>
      <trkpt lat="44.23743" lon="6.22851">
        <ele>1761</ele>
        <time>2018-06-08T10:14:58Z</time>
      </trkpt>
      <trkpt lat="44.23742" lon="6.22848">
        <ele>1761</ele>
        <time>2018-06-08T10:15:01Z</time>
      </trkpt>
      <trkpt lat="44.23742" lon="6.22846">
        <ele>1760</ele>
        <time>2018-06-08T10:15:03Z</time>
      </trkpt>
      <trkpt lat="44.23741" lon="6.22845">
        <ele>1760</ele>
        <time>2018-06-08T10:15:05Z</time>
      </trkpt>
      <trkpt lat="44.2374" lon="6.22842">
        <ele>1760</ele>
        <time>2018-06-08T10:15:07Z</time>
      </trkpt>
      <trkpt lat="44.23741" lon="6.2284">
        <ele>1760</ele>
        <time>2018-06-08T10:15:09Z</time>
      </trkpt>
      <trkpt lat="44.23741" lon="6.22838">
        <ele>1760</ele>
        <time>2018-06-08T10:15:11Z</time>
      </trkpt>
      <trkpt lat="44.2374" lon="6.22836">
        <ele>1759</ele>
        <time>2018-06-08T10:15:13Z</time>
      </trkpt>
      <trkpt lat="44.2374" lon="6.22834">
        <ele>1759</ele>
        <time>2018-06-08T10:15:15Z</time>
      </trkpt>
      <trkpt lat="44.23739" lon="6.22832">
        <ele>1758</ele>
        <time>2018-06-08T10:15:17Z</time>
      </trkpt>
      <trkpt lat="44.23738" lon="6.2283">
        <ele>1757</ele>
        <time>2018-06-08T10:15:19Z</time>
      </trkpt>
      <trkpt lat="44.23739" lon="6.22829">
        <ele>1756</ele>
        <time>2018-06-08T10:15:21Z</time>
      </trkpt>
      <trkpt lat="44.23739" lon="6.22827">
        <ele>1755</ele>
        <time>2018-06-08T10:15:24Z</time>
      </trkpt>
      <trkpt lat="44.23739" lon="6.22825">
        <ele>1755</ele>
        <time>2018-06-08T10:15:26Z</time>
      </trkpt>
      <trkpt lat="44.23739" lon="6.22823">
        <ele>1755</ele>
        <time>2018-06-08T10:15:28Z</time>
      </trkpt>
      <trkpt lat="44.23739" lon="6.22822">
        <ele>1755</ele>
        <time>2018-06-08T10:15:30Z</time>
      </trkpt>
      <trkpt lat="44.23739" lon="6.22819">
        <ele>1754</ele>
        <time>2018-06-08T10:15:32Z</time>
      </trkpt>
      <trkpt lat="44.2374" lon="6.22817">
        <ele>1754</ele>
        <time>2018-06-08T10:15:35Z</time>
      </trkpt>
      <trkpt lat="44.2374" lon="6.22816">
        <ele>1753</ele>
        <time>2018-06-08T10:15:37Z</time>
      </trkpt>
      <trkpt lat="44.23741" lon="6.22814">
        <ele>1751</ele>
        <time>2018-06-08T10:15:41Z</time>
      </trkpt>
      <trkpt lat="44.23741" lon="6.22812">
        <ele>1750</ele>
        <time>2018-06-08T10:15:43Z</time>
      </trkpt>
      <trkpt lat="44.23742" lon="6.2281">
        <ele>1749</ele>
        <time>2018-06-08T10:15:45Z</time>
      </trkpt>
      <trkpt lat="44.23742" lon="6.22809">
        <ele>1748</ele>
        <time>2018-06-08T10:15:47Z</time>
      </trkpt>
      <trkpt lat="44.23742" lon="6.22807">
        <ele>1748</ele>
        <time>2018-06-08T10:15:49Z</time>
      </trkpt>
      <trkpt lat="44.23742" lon="6.22804">
        <ele>1748</ele>
        <time>2018-06-08T10:15:51Z</time>
      </trkpt>
      <trkpt lat="44.23742" lon="6.22802">
        <ele>1748</ele>
        <time>2018-06-08T10:15:53Z</time>
      </trkpt>
      <trkpt lat="44.23742" lon="6.22799">
        <ele>1748</ele>
        <time>2018-06-08T10:15:55Z</time>
      </trkpt>
      <trkpt lat="44.23742" lon="6.22797">
        <ele>1748</ele>
        <time>2018-06-08T10:15:56Z</time>
      </trkpt>
      <trkpt lat="44.23742" lon="6.22795">
        <ele>1748</ele>
        <time>2018-06-08T10:15:57Z</time>
      </trkpt>
      <trkpt lat="44.23744" lon="6.22793">
        <ele>1747</ele>
        <time>2018-06-08T10:15:59Z</time>
      </trkpt>
      <trkpt lat="44.23744" lon="6.22791">
        <ele>1747</ele>
        <time>2018-06-08T10:16:01Z</time>
      </trkpt>
      <trkpt lat="44.23744" lon="6.2279">
        <ele>1746</ele>
        <time>2018-06-08T10:16:02Z</time>
      </trkpt>
      <trkpt lat="44.23744" lon="6.22788">
        <ele>1746</ele>
        <time>2018-06-08T10:16:03Z</time>
      </trkpt>
      <trkpt lat="44.23744" lon="6.22787">
        <ele>1746</ele>
        <time>2018-06-08T10:16:04Z</time>
      </trkpt>
      <trkpt lat="44.23744" lon="6.22784">
        <ele>1745</ele>
        <time>2018-06-08T10:16:06Z</time>
      </trkpt>
      <trkpt lat="44.23745" lon="6.22782">
        <ele>1744</ele>
        <time>2018-06-08T10:16:08Z</time>
      </trkpt>
      <trkpt lat="44.23745" lon="6.22779">
        <ele>1743</ele>
        <time>2018-06-08T10:16:10Z</time>
      </trkpt>
      <trkpt lat="44.23745" lon="6.22777">
        <ele>1743</ele>
        <time>2018-06-08T10:16:11Z</time>
      </trkpt>
      <trkpt lat="44.23745" lon="6.22775">
        <ele>1743</ele>
        <time>2018-06-08T10:16:13Z</time>
      </trkpt>
      <trkpt lat="44.23746" lon="6.22772">
        <ele>1743</ele>
        <time>2018-06-08T10:16:15Z</time>
      </trkpt>
      <trkpt lat="44.23746" lon="6.22771">
        <ele>1743</ele>
        <time>2018-06-08T10:16:16Z</time>
      </trkpt>
      <trkpt lat="44.23747" lon="6.22769">
        <ele>1743</ele>
        <time>2018-06-08T10:16:17Z</time>
      </trkpt>
      <trkpt lat="44.23748" lon="6.22767">
        <ele>1743</ele>
        <time>2018-06-08T10:16:19Z</time>
      </trkpt>
      <trkpt lat="44.23749" lon="6.22765">
        <ele>1743</ele>
        <time>2018-06-08T10:16:21Z</time>
      </trkpt>
      <trkpt lat="44.2375" lon="6.22764">
        <ele>1743</ele>
        <time>2018-06-08T10:16:23Z</time>
      </trkpt>
      <trkpt lat="44.23752" lon="6.22763">
        <ele>1742</ele>
        <time>2018-06-08T10:16:25Z</time>
      </trkpt>
      <trkpt lat="44.23753" lon="6.22761">
        <ele>1742</ele>
        <time>2018-06-08T10:16:27Z</time>
      </trkpt>
      <trkpt lat="44.23754" lon="6.22759">
        <ele>1742</ele>
        <time>2018-06-08T10:16:29Z</time>
      </trkpt>
      <trkpt lat="44.23755" lon="6.22757">
        <ele>1741</ele>
        <time>2018-06-08T10:16:31Z</time>
      </trkpt>
      <trkpt lat="44.23755" lon="6.22755">
        <ele>1741</ele>
        <time>2018-06-08T10:16:33Z</time>
      </trkpt>
      <trkpt lat="44.23755" lon="6.22753">
        <ele>1740</ele>
        <time>2018-06-08T10:16:35Z</time>
      </trkpt>
      <trkpt lat="44.23756" lon="6.2275">
        <ele>1740</ele>
        <time>2018-06-08T10:16:37Z</time>
      </trkpt>
      <trkpt lat="44.23756" lon="6.22748">
        <ele>1740</ele>
        <time>2018-06-08T10:16:39Z</time>
      </trkpt>
      <trkpt lat="44.23757" lon="6.22746">
        <ele>1740</ele>
        <time>2018-06-08T10:16:41Z</time>
      </trkpt>
      <trkpt lat="44.23757" lon="6.22744">
        <ele>1739</ele>
        <time>2018-06-08T10:16:43Z</time>
      </trkpt>
      <trkpt lat="44.23758" lon="6.22742">
        <ele>1739</ele>
        <time>2018-06-08T10:16:45Z</time>
      </trkpt>
      <trkpt lat="44.23758" lon="6.22739">
        <ele>1738</ele>
        <time>2018-06-08T10:16:47Z</time>
      </trkpt>
      <trkpt lat="44.23759" lon="6.22736">
        <ele>1738</ele>
        <time>2018-06-08T10:16:49Z</time>
      </trkpt>
      <trkpt lat="44.23759" lon="6.22734">
        <ele>1738</ele>
        <time>2018-06-08T10:16:51Z</time>
      </trkpt>
      <trkpt lat="44.23759" lon="6.22731">
        <ele>1738</ele>
        <time>2018-06-08T10:16:53Z</time>
      </trkpt>
      <trkpt lat="44.2376" lon="6.22729">
        <ele>1737</ele>
        <time>2018-06-08T10:16:55Z</time>
      </trkpt>
      <trkpt lat="44.2376" lon="6.22727">
        <ele>1737</ele>
        <time>2018-06-08T10:16:57Z</time>
      </trkpt>
      <trkpt lat="44.23761" lon="6.22725">
        <ele>1737</ele>
        <time>2018-06-08T10:16:59Z</time>
      </trkpt>
      <trkpt lat="44.23761" lon="6.22723">
        <ele>1737</ele>
        <time>2018-06-08T10:17:01Z</time>
      </trkpt>
      <trkpt lat="44.23762" lon="6.22721">
        <ele>1737</ele>
        <time>2018-06-08T10:17:03Z</time>
      </trkpt>
      <trkpt lat="44.23762" lon="6.22719">
        <ele>1737</ele>
        <time>2018-06-08T10:17:05Z</time>
      </trkpt>
      <trkpt lat="44.23762" lon="6.22718">
        <ele>1737</ele>
        <time>2018-06-08T10:17:06Z</time>
      </trkpt>
      <trkpt lat="44.23763" lon="6.22716">
        <ele>1737</ele>
        <time>2018-06-08T10:17:08Z</time>
      </trkpt>
      <trkpt lat="44.23763" lon="6.22714">
        <ele>1737</ele>
        <time>2018-06-08T10:17:10Z</time>
      </trkpt>
      <trkpt lat="44.23763" lon="6.22712">
        <ele>1737</ele>
        <time>2018-06-08T10:17:12Z</time>
      </trkpt>
      <trkpt lat="44.23764" lon="6.22709">
        <ele>1737</ele>
        <time>2018-06-08T10:17:14Z</time>
      </trkpt>
      <trkpt lat="44.23764" lon="6.22707">
        <ele>1737</ele>
        <time>2018-06-08T10:17:16Z</time>
      </trkpt>
      <trkpt lat="44.23766" lon="6.22705">
        <ele>1736</ele>
        <time>2018-06-08T10:17:18Z</time>
      </trkpt>
      <trkpt lat="44.23767" lon="6.22703">
        <ele>1736</ele>
        <time>2018-06-08T10:17:20Z</time>
      </trkpt>
      <trkpt lat="44.23768" lon="6.22701">
        <ele>1736</ele>
        <time>2018-06-08T10:17:22Z</time>
      </trkpt>
      <trkpt lat="44.23769" lon="6.22699">
        <ele>1736</ele>
        <time>2018-06-08T10:17:24Z</time>
      </trkpt>
      <trkpt lat="44.2377" lon="6.22697">
        <ele>1736</ele>
        <time>2018-06-08T10:17:26Z</time>
      </trkpt>
      <trkpt lat="44.23771" lon="6.22694">
        <ele>1736</ele>
        <time>2018-06-08T10:17:28Z</time>
      </trkpt>
      <trkpt lat="44.23772" lon="6.22692">
        <ele>1736</ele>
        <time>2018-06-08T10:17:30Z</time>
      </trkpt>
      <trkpt lat="44.23773" lon="6.2269">
        <ele>1736</ele>
        <time>2018-06-08T10:17:32Z</time>
      </trkpt>
      <trkpt lat="44.23773" lon="6.22688">
        <ele>1736</ele>
        <time>2018-06-08T10:17:33Z</time>
      </trkpt>
      <trkpt lat="44.23774" lon="6.22686">
        <ele>1736</ele>
        <time>2018-06-08T10:17:34Z</time>
      </trkpt>
      <trkpt lat="44.23774" lon="6.22684">
        <ele>1736</ele>
        <time>2018-06-08T10:17:36Z</time>
      </trkpt>
      <trkpt lat="44.23775" lon="6.22683">
        <ele>1736</ele>
        <time>2018-06-08T10:17:37Z</time>
      </trkpt>
      <trkpt lat="44.23775" lon="6.2268">
        <ele>1736</ele>
        <time>2018-06-08T10:17:39Z</time>
      </trkpt>
      <trkpt lat="44.23775" lon="6.22678">
        <ele>1736</ele>
        <time>2018-06-08T10:17:41Z</time>
      </trkpt>
      <trkpt lat="44.23776" lon="6.22675">
        <ele>1736</ele>
        <time>2018-06-08T10:17:43Z</time>
      </trkpt>
      <trkpt lat="44.23777" lon="6.22673">
        <ele>1736</ele>
        <time>2018-06-08T10:17:45Z</time>
      </trkpt>
      <trkpt lat="44.23777" lon="6.22671">
        <ele>1736</ele>
        <time>2018-06-08T10:17:46Z</time>
      </trkpt>
      <trkpt lat="44.23778" lon="6.22668">
        <ele>1736</ele>
        <time>2018-06-08T10:17:48Z</time>
      </trkpt>
      <trkpt lat="44.23779" lon="6.22666">
        <ele>1736</ele>
        <time>2018-06-08T10:17:50Z</time>
      </trkpt>
      <trkpt lat="44.2378" lon="6.22664">
        <ele>1736</ele>
        <time>2018-06-08T10:17:52Z</time>
      </trkpt>
      <trkpt lat="44.23781" lon="6.22662">
        <ele>1736</ele>
        <time>2018-06-08T10:17:55Z</time>
      </trkpt>
      <trkpt lat="44.23781" lon="6.2266">
        <ele>1736</ele>
        <time>2018-06-08T10:17:57Z</time>
      </trkpt>
      <trkpt lat="44.23782" lon="6.22659">
        <ele>1736</ele>
        <time>2018-06-08T10:17:59Z</time>
      </trkpt>
      <trkpt lat="44.23783" lon="6.22657">
        <ele>1736</ele>
        <time>2018-06-08T10:18:01Z</time>
      </trkpt>
      <trkpt lat="44.23783" lon="6.22655">
        <ele>1736</ele>
        <time>2018-06-08T10:18:03Z</time>
      </trkpt>
      <trkpt lat="44.23783" lon="6.22653">
        <ele>1736</ele>
        <time>2018-06-08T10:18:05Z</time>
      </trkpt>
      <trkpt lat="44.23784" lon="6.2265">
        <ele>1736</ele>
        <time>2018-06-08T10:18:07Z</time>
      </trkpt>
      <trkpt lat="44.23784" lon="6.22648">
        <ele>1736</ele>
        <time>2018-06-08T10:18:09Z</time>
      </trkpt>
      <trkpt lat="44.23785" lon="6.22646">
        <ele>1736</ele>
        <time>2018-06-08T10:18:11Z</time>
      </trkpt>
      <trkpt lat="44.23785" lon="6.22644">
        <ele>1736</ele>
        <time>2018-06-08T10:18:13Z</time>
      </trkpt>
      <trkpt lat="44.23785" lon="6.22641">
        <ele>1736</ele>
        <time>2018-06-08T10:18:15Z</time>
      </trkpt>
      <trkpt lat="44.23786" lon="6.22639">
        <ele>1736</ele>
        <time>2018-06-08T10:18:17Z</time>
      </trkpt>
      <trkpt lat="44.23786" lon="6.22637">
        <ele>1736</ele>
        <time>2018-06-08T10:18:19Z</time>
      </trkpt>
      <trkpt lat="44.23787" lon="6.22635">
        <ele>1736</ele>
        <time>2018-06-08T10:18:21Z</time>
      </trkpt>
      <trkpt lat="44.23787" lon="6.22632">
        <ele>1736</ele>
        <time>2018-06-08T10:18:23Z</time>
      </trkpt>
      <trkpt lat="44.23787" lon="6.2263">
        <ele>1736</ele>
        <time>2018-06-08T10:18:25Z</time>
      </trkpt>
      <trkpt lat="44.23788" lon="6.22628">
        <ele>1736</ele>
        <time>2018-06-08T10:18:27Z</time>
      </trkpt>
      <trkpt lat="44.23789" lon="6.22627">
        <ele>1736</ele>
        <time>2018-06-08T10:18:30Z</time>
      </trkpt>
      <trkpt lat="44.23791" lon="6.22626">
        <ele>1736</ele>
        <time>2018-06-08T10:18:32Z</time>
      </trkpt>
      <trkpt lat="44.2379" lon="6.22625">
        <ele>1736</ele>
        <time>2018-06-08T10:18:39Z</time>
      </trkpt>
      <trkpt lat="44.23789" lon="6.22624">
        <ele>1736</ele>
        <time>2018-06-08T10:18:51Z</time>
      </trkpt>
      <trkpt lat="44.23789" lon="6.22624">
        <ele>1736</ele>
        <time>2018-06-08T10:19:33Z</time>
      </trkpt>
      <trkpt lat="44.23788" lon="6.22626">
        <ele>1736</ele>
        <time>2018-06-08T10:19:59Z</time>
      </trkpt>
      <trkpt lat="44.23794" lon="6.2262">
        <ele>1736</ele>
        <time>2018-06-08T10:20:03Z</time>
      </trkpt>
      <trkpt lat="44.23794" lon="6.22618">
        <ele>1736</ele>
        <time>2018-06-08T10:20:08Z</time>
      </trkpt>
      <trkpt lat="44.23793" lon="6.22617">
        <ele>1736</ele>
        <time>2018-06-08T10:20:11Z</time>
      </trkpt>
      <trkpt lat="44.23793" lon="6.22615">
        <ele>1736</ele>
        <time>2018-06-08T10:20:13Z</time>
      </trkpt>
      <trkpt lat="44.23794" lon="6.22613">
        <ele>1736</ele>
        <time>2018-06-08T10:20:16Z</time>
      </trkpt>
      <trkpt lat="44.23794" lon="6.22611">
        <ele>1736</ele>
        <time>2018-06-08T10:20:19Z</time>
      </trkpt>
      <trkpt lat="44.23795" lon="6.22609">
        <ele>1736</ele>
        <time>2018-06-08T10:20:21Z</time>
      </trkpt>
      <trkpt lat="44.23795" lon="6.22607">
        <ele>1736</ele>
        <time>2018-06-08T10:20:23Z</time>
      </trkpt>
      <trkpt lat="44.23795" lon="6.22606">
        <ele>1736</ele>
        <time>2018-06-08T10:20:25Z</time>
      </trkpt>
      <trkpt lat="44.23795" lon="6.22604">
        <ele>1736</ele>
        <time>2018-06-08T10:20:27Z</time>
      </trkpt>
      <trkpt lat="44.23795" lon="6.22601">
        <ele>1736</ele>
        <time>2018-06-08T10:20:29Z</time>
      </trkpt>
      <trkpt lat="44.23796" lon="6.22599">
        <ele>1736</ele>
        <time>2018-06-08T10:20:31Z</time>
      </trkpt>
      <trkpt lat="44.23796" lon="6.22597">
        <ele>1736</ele>
        <time>2018-06-08T10:20:33Z</time>
      </trkpt>
      <trkpt lat="44.23796" lon="6.22595">
        <ele>1736</ele>
        <time>2018-06-08T10:20:34Z</time>
      </trkpt>
      <trkpt lat="44.23797" lon="6.22593">
        <ele>1736</ele>
        <time>2018-06-08T10:20:36Z</time>
      </trkpt>
      <trkpt lat="44.23797" lon="6.22592">
        <ele>1736</ele>
        <time>2018-06-08T10:20:38Z</time>
      </trkpt>
      <trkpt lat="44.23798" lon="6.2259">
        <ele>1736</ele>
        <time>2018-06-08T10:20:40Z</time>
      </trkpt>
      <trkpt lat="44.23799" lon="6.22588">
        <ele>1736</ele>
        <time>2018-06-08T10:20:42Z</time>
      </trkpt>
      <trkpt lat="44.238" lon="6.22586">
        <ele>1736</ele>
        <time>2018-06-08T10:20:44Z</time>
      </trkpt>
      <trkpt lat="44.23801" lon="6.22584">
        <ele>1736</ele>
        <time>2018-06-08T10:20:46Z</time>
      </trkpt>
      <trkpt lat="44.23801" lon="6.22583">
        <ele>1736</ele>
        <time>2018-06-08T10:20:48Z</time>
      </trkpt>
      <trkpt lat="44.23801" lon="6.22581">
        <ele>1736</ele>
        <time>2018-06-08T10:20:50Z</time>
      </trkpt>
      <trkpt lat="44.23802" lon="6.22579">
        <ele>1736</ele>
        <time>2018-06-08T10:20:52Z</time>
      </trkpt>
      <trkpt lat="44.23803" lon="6.22577">
        <ele>1736</ele>
        <time>2018-06-08T10:20:54Z</time>
      </trkpt>
      <trkpt lat="44.23803" lon="6.22575">
        <ele>1736</ele>
        <time>2018-06-08T10:20:56Z</time>
      </trkpt>
      <trkpt lat="44.23804" lon="6.22573">
        <ele>1736</ele>
        <time>2018-06-08T10:20:58Z</time>
      </trkpt>
      <trkpt lat="44.23804" lon="6.22571">
        <ele>1736</ele>
        <time>2018-06-08T10:21:00Z</time>
      </trkpt>
      <trkpt lat="44.23804" lon="6.22569">
        <ele>1736</ele>
        <time>2018-06-08T10:21:02Z</time>
      </trkpt>
      <trkpt lat="44.23804" lon="6.22567">
        <ele>1736</ele>
        <time>2018-06-08T10:21:03Z</time>
      </trkpt>
      <trkpt lat="44.23804" lon="6.22566">
        <ele>1736</ele>
        <time>2018-06-08T10:21:04Z</time>
      </trkpt>
      <trkpt lat="44.23805" lon="6.22563">
        <ele>1736</ele>
        <time>2018-06-08T10:21:06Z</time>
      </trkpt>
      <trkpt lat="44.23805" lon="6.22561">
        <ele>1736</ele>
        <time>2018-06-08T10:21:08Z</time>
      </trkpt>
      <trkpt lat="44.23805" lon="6.2256">
        <ele>1736</ele>
        <time>2018-06-08T10:21:09Z</time>
      </trkpt>
      <trkpt lat="44.23805" lon="6.22557">
        <ele>1736</ele>
        <time>2018-06-08T10:21:11Z</time>
      </trkpt>
      <trkpt lat="44.23806" lon="6.22555">
        <ele>1736</ele>
        <time>2018-06-08T10:21:12Z</time>
      </trkpt>
      <trkpt lat="44.23806" lon="6.22553">
        <ele>1736</ele>
        <time>2018-06-08T10:21:14Z</time>
      </trkpt>
      <trkpt lat="44.23806" lon="6.22551">
        <ele>1736</ele>
        <time>2018-06-08T10:21:15Z</time>
      </trkpt>
      <trkpt lat="44.23807" lon="6.22548">
        <ele>1736</ele>
        <time>2018-06-08T10:21:17Z</time>
      </trkpt>
      <trkpt lat="44.23807" lon="6.22546">
        <ele>1736</ele>
        <time>2018-06-08T10:21:19Z</time>
      </trkpt>
      <trkpt lat="44.23807" lon="6.22543">
        <ele>1736</ele>
        <time>2018-06-08T10:21:21Z</time>
      </trkpt>
      <trkpt lat="44.23808" lon="6.22542">
        <ele>1736</ele>
        <time>2018-06-08T10:21:22Z</time>
      </trkpt>
      <trkpt lat="44.23808" lon="6.22539">
        <ele>1736</ele>
        <time>2018-06-08T10:21:24Z</time>
      </trkpt>
      <trkpt lat="44.23809" lon="6.22537">
        <ele>1736</ele>
        <time>2018-06-08T10:21:26Z</time>
      </trkpt>
      <trkpt lat="44.23809" lon="6.22535">
        <ele>1736</ele>
        <time>2018-06-08T10:21:28Z</time>
      </trkpt>
      <trkpt lat="44.2381" lon="6.22533">
        <ele>1736</ele>
        <time>2018-06-08T10:21:30Z</time>
      </trkpt>
      <trkpt lat="44.23811" lon="6.22532">
        <ele>1736</ele>
        <time>2018-06-08T10:21:32Z</time>
      </trkpt>
      <trkpt lat="44.23812" lon="6.2253">
        <ele>1736</ele>
        <time>2018-06-08T10:21:35Z</time>
      </trkpt>
      <trkpt lat="44.23813" lon="6.22528">
        <ele>1736</ele>
        <time>2018-06-08T10:21:37Z</time>
      </trkpt>
      <trkpt lat="44.23814" lon="6.22526">
        <ele>1736</ele>
        <time>2018-06-08T10:21:39Z</time>
      </trkpt>
      <trkpt lat="44.23815" lon="6.22524">
        <ele>1736</ele>
        <time>2018-06-08T10:21:41Z</time>
      </trkpt>
      <trkpt lat="44.23816" lon="6.22522">
        <ele>1736</ele>
        <time>2018-06-08T10:21:43Z</time>
      </trkpt>
      <trkpt lat="44.23817" lon="6.2252">
        <ele>1736</ele>
        <time>2018-06-08T10:21:45Z</time>
      </trkpt>
      <trkpt lat="44.23818" lon="6.22518">
        <ele>1736</ele>
        <time>2018-06-08T10:21:47Z</time>
      </trkpt>
      <trkpt lat="44.23819" lon="6.22516">
        <ele>1736</ele>
        <time>2018-06-08T10:21:49Z</time>
      </trkpt>
      <trkpt lat="44.23819" lon="6.22514">
        <ele>1736</ele>
        <time>2018-06-08T10:21:51Z</time>
      </trkpt>
      <trkpt lat="44.2382" lon="6.22512">
        <ele>1736</ele>
        <time>2018-06-08T10:21:53Z</time>
      </trkpt>
      <trkpt lat="44.23821" lon="6.22509">
        <ele>1736</ele>
        <time>2018-06-08T10:21:55Z</time>
      </trkpt>
      <trkpt lat="44.23822" lon="6.22507">
        <ele>1736</ele>
        <time>2018-06-08T10:21:57Z</time>
      </trkpt>
      <trkpt lat="44.23823" lon="6.22505">
        <ele>1736</ele>
        <time>2018-06-08T10:21:59Z</time>
      </trkpt>
      <trkpt lat="44.23824" lon="6.22503">
        <ele>1736</ele>
        <time>2018-06-08T10:22:01Z</time>
      </trkpt>
      <trkpt lat="44.23824" lon="6.225">
        <ele>1736</ele>
        <time>2018-06-08T10:22:03Z</time>
      </trkpt>
      <trkpt lat="44.23825" lon="6.22498">
        <ele>1736</ele>
        <time>2018-06-08T10:22:04Z</time>
      </trkpt>
      <trkpt lat="44.23825" lon="6.22497">
        <ele>1736</ele>
        <time>2018-06-08T10:22:05Z</time>
      </trkpt>
      <trkpt lat="44.23826" lon="6.22494">
        <ele>1736</ele>
        <time>2018-06-08T10:22:07Z</time>
      </trkpt>
      <trkpt lat="44.23826" lon="6.22492">
        <ele>1736</ele>
        <time>2018-06-08T10:22:09Z</time>
      </trkpt>
      <trkpt lat="44.23827" lon="6.2249">
        <ele>1736</ele>
        <time>2018-06-08T10:22:11Z</time>
      </trkpt>
      <trkpt lat="44.23827" lon="6.22487">
        <ele>1736</ele>
        <time>2018-06-08T10:22:13Z</time>
      </trkpt>
      <trkpt lat="44.23827" lon="6.22486">
        <ele>1736</ele>
        <time>2018-06-08T10:22:18Z</time>
      </trkpt>
      <trkpt lat="44.23827" lon="6.22484">
        <ele>1736</ele>
        <time>2018-06-08T10:22:20Z</time>
      </trkpt>
      <trkpt lat="44.23827" lon="6.22482">
        <ele>1736</ele>
        <time>2018-06-08T10:22:22Z</time>
      </trkpt>
      <trkpt lat="44.23827" lon="6.2248">
        <ele>1736</ele>
        <time>2018-06-08T10:22:24Z</time>
      </trkpt>
      <trkpt lat="44.23827" lon="6.22478">
        <ele>1736</ele>
        <time>2018-06-08T10:22:26Z</time>
      </trkpt>
      <trkpt lat="44.23827" lon="6.22476">
        <ele>1736</ele>
        <time>2018-06-08T10:22:28Z</time>
      </trkpt>
      <trkpt lat="44.23827" lon="6.22475">
        <ele>1736</ele>
        <time>2018-06-08T10:22:30Z</time>
      </trkpt>
      <trkpt lat="44.23827" lon="6.22473">
        <ele>1736</ele>
        <time>2018-06-08T10:22:32Z</time>
      </trkpt>
      <trkpt lat="44.23828" lon="6.22471">
        <ele>1736</ele>
        <time>2018-06-08T10:22:34Z</time>
      </trkpt>
      <trkpt lat="44.23828" lon="6.2247">
        <ele>1736</ele>
        <time>2018-06-08T10:22:36Z</time>
      </trkpt>
      <trkpt lat="44.23829" lon="6.22468">
        <ele>1736</ele>
        <time>2018-06-08T10:22:38Z</time>
      </trkpt>
      <trkpt lat="44.23829" lon="6.22466">
        <ele>1736</ele>
        <time>2018-06-08T10:22:40Z</time>
      </trkpt>
      <trkpt lat="44.2383" lon="6.22464">
        <ele>1736</ele>
        <time>2018-06-08T10:22:42Z</time>
      </trkpt>
      <trkpt lat="44.2383" lon="6.22463">
        <ele>1736</ele>
        <time>2018-06-08T10:22:44Z</time>
      </trkpt>
      <trkpt lat="44.23831" lon="6.22461">
        <ele>1736</ele>
        <time>2018-06-08T10:22:46Z</time>
      </trkpt>
      <trkpt lat="44.23832" lon="6.22459">
        <ele>1736</ele>
        <time>2018-06-08T10:22:48Z</time>
      </trkpt>
      <trkpt lat="44.23832" lon="6.22458">
        <ele>1736</ele>
        <time>2018-06-08T10:22:50Z</time>
      </trkpt>
      <trkpt lat="44.23833" lon="6.22456">
        <ele>1736</ele>
        <time>2018-06-08T10:22:52Z</time>
      </trkpt>
      <trkpt lat="44.23834" lon="6.22454">
        <ele>1736</ele>
        <time>2018-06-08T10:22:54Z</time>
      </trkpt>
      <trkpt lat="44.23834" lon="6.22452">
        <ele>1737</ele>
        <time>2018-06-08T10:22:56Z</time>
      </trkpt>
      <trkpt lat="44.23835" lon="6.22449">
        <ele>1737</ele>
        <time>2018-06-08T10:22:58Z</time>
      </trkpt>
      <trkpt lat="44.23835" lon="6.22447">
        <ele>1738</ele>
        <time>2018-06-08T10:23:00Z</time>
      </trkpt>
      <trkpt lat="44.23835" lon="6.22445">
        <ele>1738</ele>
        <time>2018-06-08T10:23:03Z</time>
      </trkpt>
      <trkpt lat="44.23836" lon="6.22443">
        <ele>1738</ele>
        <time>2018-06-08T10:23:05Z</time>
      </trkpt>
      <trkpt lat="44.23836" lon="6.22441">
        <ele>1738</ele>
        <time>2018-06-08T10:23:07Z</time>
      </trkpt>
      <trkpt lat="44.23836" lon="6.22439">
        <ele>1738</ele>
        <time>2018-06-08T10:23:09Z</time>
      </trkpt>
      <trkpt lat="44.23835" lon="6.22437">
        <ele>1738</ele>
        <time>2018-06-08T10:23:11Z</time>
      </trkpt>
      <trkpt lat="44.23835" lon="6.22434">
        <ele>1738</ele>
        <time>2018-06-08T10:23:13Z</time>
      </trkpt>
      <trkpt lat="44.23835" lon="6.22432">
        <ele>1738</ele>
        <time>2018-06-08T10:23:15Z</time>
      </trkpt>
      <trkpt lat="44.23835" lon="6.2243">
        <ele>1738</ele>
        <time>2018-06-08T10:23:16Z</time>
      </trkpt>
      <trkpt lat="44.23834" lon="6.22428">
        <ele>1738</ele>
        <time>2018-06-08T10:23:18Z</time>
      </trkpt>
      <trkpt lat="44.23834" lon="6.22425">
        <ele>1738</ele>
        <time>2018-06-08T10:23:20Z</time>
      </trkpt>
      <trkpt lat="44.23834" lon="6.22424">
        <ele>1738</ele>
        <time>2018-06-08T10:23:21Z</time>
      </trkpt>
      <trkpt lat="44.23834" lon="6.22421">
        <ele>1738</ele>
        <time>2018-06-08T10:23:23Z</time>
      </trkpt>
      <trkpt lat="44.23833" lon="6.2242">
        <ele>1738</ele>
        <time>2018-06-08T10:23:24Z</time>
      </trkpt>
      <trkpt lat="44.23833" lon="6.22418">
        <ele>1738</ele>
        <time>2018-06-08T10:23:25Z</time>
      </trkpt>
      <trkpt lat="44.23833" lon="6.22416">
        <ele>1738</ele>
        <time>2018-06-08T10:23:27Z</time>
      </trkpt>
      <trkpt lat="44.23833" lon="6.22414">
        <ele>1739</ele>
        <time>2018-06-08T10:23:29Z</time>
      </trkpt>
      <trkpt lat="44.23833" lon="6.22412">
        <ele>1739</ele>
        <time>2018-06-08T10:23:31Z</time>
      </trkpt>
      <trkpt lat="44.23832" lon="6.2241">
        <ele>1739</ele>
        <time>2018-06-08T10:23:33Z</time>
      </trkpt>
      <trkpt lat="44.23831" lon="6.22408">
        <ele>1739</ele>
        <time>2018-06-08T10:23:35Z</time>
      </trkpt>
      <trkpt lat="44.23831" lon="6.22406">
        <ele>1739</ele>
        <time>2018-06-08T10:23:37Z</time>
      </trkpt>
      <trkpt lat="44.2383" lon="6.22404">
        <ele>1740</ele>
        <time>2018-06-08T10:23:39Z</time>
      </trkpt>
      <trkpt lat="44.2383" lon="6.22401">
        <ele>1740</ele>
        <time>2018-06-08T10:23:41Z</time>
      </trkpt>
      <trkpt lat="44.2383" lon="6.22399">
        <ele>1740</ele>
        <time>2018-06-08T10:23:43Z</time>
      </trkpt>
      <trkpt lat="44.2383" lon="6.22397">
        <ele>1740</ele>
        <time>2018-06-08T10:23:44Z</time>
      </trkpt>
      <trkpt lat="44.2383" lon="6.22395">
        <ele>1740</ele>
        <time>2018-06-08T10:23:46Z</time>
      </trkpt>
      <trkpt lat="44.2383" lon="6.22393">
        <ele>1740</ele>
        <time>2018-06-08T10:23:47Z</time>
      </trkpt>
      <trkpt lat="44.2383" lon="6.22392">
        <ele>1740</ele>
        <time>2018-06-08T10:23:48Z</time>
      </trkpt>
      <trkpt lat="44.2383" lon="6.22389">
        <ele>1740</ele>
        <time>2018-06-08T10:23:50Z</time>
      </trkpt>
      <trkpt lat="44.2383" lon="6.22387">
        <ele>1740</ele>
        <time>2018-06-08T10:23:52Z</time>
      </trkpt>
      <trkpt lat="44.2383" lon="6.22385">
        <ele>1740</ele>
        <time>2018-06-08T10:23:53Z</time>
      </trkpt>
      <trkpt lat="44.2383" lon="6.22384">
        <ele>1741</ele>
        <time>2018-06-08T10:23:54Z</time>
      </trkpt>
      <trkpt lat="44.2383" lon="6.22381">
        <ele>1741</ele>
        <time>2018-06-08T10:23:56Z</time>
      </trkpt>
      <trkpt lat="44.2383" lon="6.22378">
        <ele>1741</ele>
        <time>2018-06-08T10:23:58Z</time>
      </trkpt>
      <trkpt lat="44.23831" lon="6.22376">
        <ele>1741</ele>
        <time>2018-06-08T10:24:00Z</time>
      </trkpt>
      <trkpt lat="44.23831" lon="6.22373">
        <ele>1741</ele>
        <time>2018-06-08T10:24:02Z</time>
      </trkpt>
      <trkpt lat="44.23832" lon="6.22371">
        <ele>1741</ele>
        <time>2018-06-08T10:24:04Z</time>
      </trkpt>
      <trkpt lat="44.23832" lon="6.22369">
        <ele>1742</ele>
        <time>2018-06-08T10:24:05Z</time>
      </trkpt>
      <trkpt lat="44.23832" lon="6.22367">
        <ele>1742</ele>
        <time>2018-06-08T10:24:07Z</time>
      </trkpt>
      <trkpt lat="44.23833" lon="6.22364">
        <ele>1742</ele>
        <time>2018-06-08T10:24:09Z</time>
      </trkpt>
      <trkpt lat="44.23834" lon="6.22362">
        <ele>1742</ele>
        <time>2018-06-08T10:24:11Z</time>
      </trkpt>
      <trkpt lat="44.23834" lon="6.2236">
        <ele>1743</ele>
        <time>2018-06-08T10:24:13Z</time>
      </trkpt>
      <trkpt lat="44.23835" lon="6.22358">
        <ele>1743</ele>
        <time>2018-06-08T10:24:15Z</time>
      </trkpt>
      <trkpt lat="44.23835" lon="6.22355">
        <ele>1744</ele>
        <time>2018-06-08T10:24:17Z</time>
      </trkpt>
      <trkpt lat="44.23835" lon="6.22353">
        <ele>1744</ele>
        <time>2018-06-08T10:24:19Z</time>
      </trkpt>
      <trkpt lat="44.23835" lon="6.22351">
        <ele>1744</ele>
        <time>2018-06-08T10:24:21Z</time>
      </trkpt>
      <trkpt lat="44.23835" lon="6.22349">
        <ele>1745</ele>
        <time>2018-06-08T10:24:23Z</time>
      </trkpt>
      <trkpt lat="44.23836" lon="6.22347">
        <ele>1745</ele>
        <time>2018-06-08T10:24:25Z</time>
      </trkpt>
      <trkpt lat="44.23836" lon="6.22344">
        <ele>1745</ele>
        <time>2018-06-08T10:24:27Z</time>
      </trkpt>
      <trkpt lat="44.23836" lon="6.22342">
        <ele>1745</ele>
        <time>2018-06-08T10:24:29Z</time>
      </trkpt>
      <trkpt lat="44.23837" lon="6.2234">
        <ele>1746</ele>
        <time>2018-06-08T10:24:31Z</time>
      </trkpt>
      <trkpt lat="44.23837" lon="6.22338">
        <ele>1746</ele>
        <time>2018-06-08T10:24:33Z</time>
      </trkpt>
      <trkpt lat="44.23837" lon="6.22336">
        <ele>1746</ele>
        <time>2018-06-08T10:24:35Z</time>
      </trkpt>
      <trkpt lat="44.23837" lon="6.22333">
        <ele>1746</ele>
        <time>2018-06-08T10:24:37Z</time>
      </trkpt>
      <trkpt lat="44.23837" lon="6.22331">
        <ele>1747</ele>
        <time>2018-06-08T10:24:39Z</time>
      </trkpt>
      <trkpt lat="44.23838" lon="6.2233">
        <ele>1747</ele>
        <time>2018-06-08T10:24:41Z</time>
      </trkpt>
      <trkpt lat="44.23838" lon="6.22328">
        <ele>1748</ele>
        <time>2018-06-08T10:24:44Z</time>
      </trkpt>
      <trkpt lat="44.23838" lon="6.22326">
        <ele>1748</ele>
        <time>2018-06-08T10:24:46Z</time>
      </trkpt>
      <trkpt lat="44.23839" lon="6.22324">
        <ele>1748</ele>
        <time>2018-06-08T10:24:48Z</time>
      </trkpt>
      <trkpt lat="44.23839" lon="6.22321">
        <ele>1748</ele>
        <time>2018-06-08T10:24:50Z</time>
      </trkpt>
      <trkpt lat="44.23839" lon="6.22319">
        <ele>1748</ele>
        <time>2018-06-08T10:24:52Z</time>
      </trkpt>
      <trkpt lat="44.2384" lon="6.22317">
        <ele>1748</ele>
        <time>2018-06-08T10:24:54Z</time>
      </trkpt>
      <trkpt lat="44.2384" lon="6.22314">
        <ele>1749</ele>
        <time>2018-06-08T10:24:56Z</time>
      </trkpt>
      <trkpt lat="44.2384" lon="6.22312">
        <ele>1749</ele>
        <time>2018-06-08T10:24:58Z</time>
      </trkpt>
      <trkpt lat="44.2384" lon="6.22311">
        <ele>1749</ele>
        <time>2018-06-08T10:24:59Z</time>
      </trkpt>
      <trkpt lat="44.2384" lon="6.22309">
        <ele>1749</ele>
        <time>2018-06-08T10:25:01Z</time>
      </trkpt>
      <trkpt lat="44.2384" lon="6.22307">
        <ele>1749</ele>
        <time>2018-06-08T10:25:03Z</time>
      </trkpt>
      <trkpt lat="44.2384" lon="6.22305">
        <ele>1750</ele>
        <time>2018-06-08T10:25:05Z</time>
      </trkpt>
      <trkpt lat="44.2384" lon="6.22303">
        <ele>1750</ele>
        <time>2018-06-08T10:25:07Z</time>
      </trkpt>
      <trkpt lat="44.23841" lon="6.22301">
        <ele>1750</ele>
        <time>2018-06-08T10:25:09Z</time>
      </trkpt>
      <trkpt lat="44.23842" lon="6.223">
        <ele>1750</ele>
        <time>2018-06-08T10:25:11Z</time>
      </trkpt>
      <trkpt lat="44.23842" lon="6.22298">
        <ele>1750</ele>
        <time>2018-06-08T10:25:13Z</time>
      </trkpt>
      <trkpt lat="44.23843" lon="6.22296">
        <ele>1750</ele>
        <time>2018-06-08T10:25:15Z</time>
      </trkpt>
      <trkpt lat="44.23843" lon="6.22295">
        <ele>1750</ele>
        <time>2018-06-08T10:25:17Z</time>
      </trkpt>
      <trkpt lat="44.23844" lon="6.22292">
        <ele>1751</ele>
        <time>2018-06-08T10:25:19Z</time>
      </trkpt>
      <trkpt lat="44.23844" lon="6.22291">
        <ele>1751</ele>
        <time>2018-06-08T10:25:21Z</time>
      </trkpt>
      <trkpt lat="44.23845" lon="6.22289">
        <ele>1751</ele>
        <time>2018-06-08T10:25:23Z</time>
      </trkpt>
      <trkpt lat="44.23846" lon="6.22287">
        <ele>1752</ele>
        <time>2018-06-08T10:25:25Z</time>
      </trkpt>
      <trkpt lat="44.23846" lon="6.22285">
        <ele>1753</ele>
        <time>2018-06-08T10:25:28Z</time>
      </trkpt>
      <trkpt lat="44.23847" lon="6.22284">
        <ele>1753</ele>
        <time>2018-06-08T10:25:30Z</time>
      </trkpt>
      <trkpt lat="44.23848" lon="6.22282">
        <ele>1754</ele>
        <time>2018-06-08T10:25:32Z</time>
      </trkpt>
      <trkpt lat="44.23848" lon="6.22282">
        <ele>1754</ele>
        <time>2018-06-08T10:25:33Z</time>
      </trkpt>
      <trkpt lat="44.23848" lon="6.22281">
        <ele>1754</ele>
        <time>2018-06-08T10:25:34Z</time>
      </trkpt>
      <trkpt lat="44.23848" lon="6.22279">
        <ele>1754</ele>
        <time>2018-06-08T10:25:36Z</time>
      </trkpt>
      <trkpt lat="44.23849" lon="6.22277">
        <ele>1755</ele>
        <time>2018-06-08T10:25:38Z</time>
      </trkpt>
      <trkpt lat="44.2385" lon="6.22275">
        <ele>1755</ele>
        <time>2018-06-08T10:25:40Z</time>
      </trkpt>
      <trkpt lat="44.23851" lon="6.22274">
        <ele>1755</ele>
        <time>2018-06-08T10:25:42Z</time>
      </trkpt>
      <trkpt lat="44.23852" lon="6.22272">
        <ele>1756</ele>
        <time>2018-06-08T10:25:44Z</time>
      </trkpt>
      <trkpt lat="44.23853" lon="6.22271">
        <ele>1756</ele>
        <time>2018-06-08T10:25:46Z</time>
      </trkpt>
      <trkpt lat="44.23854" lon="6.22269">
        <ele>1757</ele>
        <time>2018-06-08T10:25:48Z</time>
      </trkpt>
      <trkpt lat="44.23854" lon="6.22267">
        <ele>1757</ele>
        <time>2018-06-08T10:25:50Z</time>
      </trkpt>
      <trkpt lat="44.23855" lon="6.22266">
        <ele>1757</ele>
        <time>2018-06-08T10:25:52Z</time>
      </trkpt>
      <trkpt lat="44.23856" lon="6.22264">
        <ele>1757</ele>
        <time>2018-06-08T10:25:54Z</time>
      </trkpt>
      <trkpt lat="44.23857" lon="6.22262">
        <ele>1758</ele>
        <time>2018-06-08T10:25:56Z</time>
      </trkpt>
      <trkpt lat="44.23857" lon="6.22261">
        <ele>1758</ele>
        <time>2018-06-08T10:25:58Z</time>
      </trkpt>
      <trkpt lat="44.23858" lon="6.2226">
        <ele>1759</ele>
        <time>2018-06-08T10:26:00Z</time>
      </trkpt>
      <trkpt lat="44.23859" lon="6.22258">
        <ele>1759</ele>
        <time>2018-06-08T10:26:02Z</time>
      </trkpt>
      <trkpt lat="44.23859" lon="6.22257">
        <ele>1759</ele>
        <time>2018-06-08T10:26:04Z</time>
      </trkpt>
      <trkpt lat="44.2386" lon="6.22255">
        <ele>1760</ele>
        <time>2018-06-08T10:26:06Z</time>
      </trkpt>
      <trkpt lat="44.2386" lon="6.22253">
        <ele>1760</ele>
        <time>2018-06-08T10:26:08Z</time>
      </trkpt>
      <trkpt lat="44.2386" lon="6.22251">
        <ele>1761</ele>
        <time>2018-06-08T10:26:11Z</time>
      </trkpt>
      <trkpt lat="44.23861" lon="6.2225">
        <ele>1761</ele>
        <time>2018-06-08T10:26:13Z</time>
      </trkpt>
      <trkpt lat="44.23861" lon="6.22248">
        <ele>1762</ele>
        <time>2018-06-08T10:26:15Z</time>
      </trkpt>
      <trkpt lat="44.23861" lon="6.22246">
        <ele>1762</ele>
        <time>2018-06-08T10:26:18Z</time>
      </trkpt>
      <trkpt lat="44.23861" lon="6.22244">
        <ele>1763</ele>
        <time>2018-06-08T10:26:20Z</time>
      </trkpt>
      <trkpt lat="44.23862" lon="6.22243">
        <ele>1763</ele>
        <time>2018-06-08T10:26:22Z</time>
      </trkpt>
      <trkpt lat="44.23862" lon="6.22241">
        <ele>1764</ele>
        <time>2018-06-08T10:26:24Z</time>
      </trkpt>
      <trkpt lat="44.23863" lon="6.22239">
        <ele>1764</ele>
        <time>2018-06-08T10:26:27Z</time>
      </trkpt>
      <trkpt lat="44.23863" lon="6.22238">
        <ele>1764</ele>
        <time>2018-06-08T10:26:29Z</time>
      </trkpt>
      <trkpt lat="44.23863" lon="6.22236">
        <ele>1765</ele>
        <time>2018-06-08T10:26:32Z</time>
      </trkpt>
      <trkpt lat="44.23864" lon="6.22234">
        <ele>1766</ele>
        <time>2018-06-08T10:26:35Z</time>
      </trkpt>
      <trkpt lat="44.23864" lon="6.22232">
        <ele>1766</ele>
        <time>2018-06-08T10:26:37Z</time>
      </trkpt>
      <trkpt lat="44.23864" lon="6.22231">
        <ele>1766</ele>
        <time>2018-06-08T10:26:39Z</time>
      </trkpt>
      <trkpt lat="44.23864" lon="6.22229">
        <ele>1767</ele>
        <time>2018-06-08T10:26:41Z</time>
      </trkpt>
      <trkpt lat="44.23865" lon="6.22228">
        <ele>1767</ele>
        <time>2018-06-08T10:26:43Z</time>
      </trkpt>
      <trkpt lat="44.23866" lon="6.22226">
        <ele>1768</ele>
        <time>2018-06-08T10:26:45Z</time>
      </trkpt>
      <trkpt lat="44.23867" lon="6.22224">
        <ele>1768</ele>
        <time>2018-06-08T10:26:48Z</time>
      </trkpt>
      <trkpt lat="44.23867" lon="6.22223">
        <ele>1769</ele>
        <time>2018-06-08T10:26:50Z</time>
      </trkpt>
      <trkpt lat="44.23867" lon="6.22221">
        <ele>1769</ele>
        <time>2018-06-08T10:26:52Z</time>
      </trkpt>
      <trkpt lat="44.23868" lon="6.22219">
        <ele>1770</ele>
        <time>2018-06-08T10:26:55Z</time>
      </trkpt>
      <trkpt lat="44.23868" lon="6.22218">
        <ele>1770</ele>
        <time>2018-06-08T10:26:57Z</time>
      </trkpt>
      <trkpt lat="44.23869" lon="6.22216">
        <ele>1771</ele>
        <time>2018-06-08T10:26:59Z</time>
      </trkpt>
      <trkpt lat="44.23869" lon="6.22215">
        <ele>1771</ele>
        <time>2018-06-08T10:27:01Z</time>
      </trkpt>
      <trkpt lat="44.2387" lon="6.22212">
        <ele>1771</ele>
        <time>2018-06-08T10:27:04Z</time>
      </trkpt>
      <trkpt lat="44.23871" lon="6.22211">
        <ele>1772</ele>
        <time>2018-06-08T10:27:07Z</time>
      </trkpt>
      <trkpt lat="44.23871" lon="6.22209">
        <ele>1772</ele>
        <time>2018-06-08T10:27:09Z</time>
      </trkpt>
      <trkpt lat="44.23872" lon="6.22207">
        <ele>1772</ele>
        <time>2018-06-08T10:27:11Z</time>
      </trkpt>
      <trkpt lat="44.23872" lon="6.22206">
        <ele>1773</ele>
        <time>2018-06-08T10:27:13Z</time>
      </trkpt>
      <trkpt lat="44.23873" lon="6.22204">
        <ele>1773</ele>
        <time>2018-06-08T10:27:16Z</time>
      </trkpt>
      <trkpt lat="44.23874" lon="6.22202">
        <ele>1773</ele>
        <time>2018-06-08T10:27:18Z</time>
      </trkpt>
      <trkpt lat="44.23874" lon="6.22201">
        <ele>1774</ele>
        <time>2018-06-08T10:27:20Z</time>
      </trkpt>
      <trkpt lat="44.23875" lon="6.22199">
        <ele>1774</ele>
        <time>2018-06-08T10:27:22Z</time>
      </trkpt>
      <trkpt lat="44.23875" lon="6.22197">
        <ele>1774</ele>
        <time>2018-06-08T10:27:24Z</time>
      </trkpt>
      <trkpt lat="44.23876" lon="6.22195">
        <ele>1775</ele>
        <time>2018-06-08T10:27:26Z</time>
      </trkpt>
      <trkpt lat="44.23876" lon="6.22194">
        <ele>1775</ele>
        <time>2018-06-08T10:27:28Z</time>
      </trkpt>
      <trkpt lat="44.23876" lon="6.22192">
        <ele>1775</ele>
        <time>2018-06-08T10:27:30Z</time>
      </trkpt>
      <trkpt lat="44.23876" lon="6.2219">
        <ele>1776</ele>
        <time>2018-06-08T10:27:32Z</time>
      </trkpt>
      <trkpt lat="44.23877" lon="6.22188">
        <ele>1776</ele>
        <time>2018-06-08T10:27:34Z</time>
      </trkpt>
      <trkpt lat="44.23877" lon="6.22186">
        <ele>1777</ele>
        <time>2018-06-08T10:27:36Z</time>
      </trkpt>
      <trkpt lat="44.23877" lon="6.22185">
        <ele>1777</ele>
        <time>2018-06-08T10:27:38Z</time>
      </trkpt>
      <trkpt lat="44.23877" lon="6.22183">
        <ele>1777</ele>
        <time>2018-06-08T10:27:40Z</time>
      </trkpt>
      <trkpt lat="44.23877" lon="6.22181">
        <ele>1778</ele>
        <time>2018-06-08T10:27:42Z</time>
      </trkpt>
      <trkpt lat="44.23876" lon="6.22179">
        <ele>1778</ele>
        <time>2018-06-08T10:27:44Z</time>
      </trkpt>
      <trkpt lat="44.23876" lon="6.22178">
        <ele>1778</ele>
        <time>2018-06-08T10:27:46Z</time>
      </trkpt>
      <trkpt lat="44.23877" lon="6.22175">
        <ele>1778</ele>
        <time>2018-06-08T10:27:48Z</time>
      </trkpt>
      <trkpt lat="44.23877" lon="6.22173">
        <ele>1779</ele>
        <time>2018-06-08T10:27:50Z</time>
      </trkpt>
      <trkpt lat="44.23877" lon="6.22171">
        <ele>1779</ele>
        <time>2018-06-08T10:27:52Z</time>
      </trkpt>
      <trkpt lat="44.23877" lon="6.22169">
        <ele>1779</ele>
        <time>2018-06-08T10:27:54Z</time>
      </trkpt>
      <trkpt lat="44.23877" lon="6.22167">
        <ele>1780</ele>
        <time>2018-06-08T10:27:56Z</time>
      </trkpt>
      <trkpt lat="44.23877" lon="6.22165">
        <ele>1780</ele>
        <time>2018-06-08T10:27:58Z</time>
      </trkpt>
      <trkpt lat="44.23877" lon="6.22163">
        <ele>1780</ele>
        <time>2018-06-08T10:28:00Z</time>
      </trkpt>
      <trkpt lat="44.23877" lon="6.22161">
        <ele>1780</ele>
        <time>2018-06-08T10:28:02Z</time>
      </trkpt>
      <trkpt lat="44.23877" lon="6.2216">
        <ele>1780</ele>
        <time>2018-06-08T10:28:04Z</time>
      </trkpt>
      <trkpt lat="44.23877" lon="6.22158">
        <ele>1780</ele>
        <time>2018-06-08T10:28:05Z</time>
      </trkpt>
      <trkpt lat="44.23877" lon="6.22156">
        <ele>1781</ele>
        <time>2018-06-08T10:28:07Z</time>
      </trkpt>
      <trkpt lat="44.23877" lon="6.22154">
        <ele>1781</ele>
        <time>2018-06-08T10:28:09Z</time>
      </trkpt>
      <trkpt lat="44.23877" lon="6.22152">
        <ele>1782</ele>
        <time>2018-06-08T10:28:11Z</time>
      </trkpt>
      <trkpt lat="44.23878" lon="6.2215">
        <ele>1782</ele>
        <time>2018-06-08T10:28:13Z</time>
      </trkpt>
      <trkpt lat="44.23878" lon="6.22148">
        <ele>1782</ele>
        <time>2018-06-08T10:28:15Z</time>
      </trkpt>
      <trkpt lat="44.23878" lon="6.22146">
        <ele>1783</ele>
        <time>2018-06-08T10:28:17Z</time>
      </trkpt>
      <trkpt lat="44.23878" lon="6.22144">
        <ele>1783</ele>
        <time>2018-06-08T10:28:19Z</time>
      </trkpt>
      <trkpt lat="44.23878" lon="6.22142">
        <ele>1783</ele>
        <time>2018-06-08T10:28:21Z</time>
      </trkpt>
      <trkpt lat="44.23879" lon="6.2214">
        <ele>1783</ele>
        <time>2018-06-08T10:28:23Z</time>
      </trkpt>
      <trkpt lat="44.23879" lon="6.22137">
        <ele>1784</ele>
        <time>2018-06-08T10:28:25Z</time>
      </trkpt>
      <trkpt lat="44.23879" lon="6.22135">
        <ele>1784</ele>
        <time>2018-06-08T10:28:27Z</time>
      </trkpt>
      <trkpt lat="44.23879" lon="6.22133">
        <ele>1785</ele>
        <time>2018-06-08T10:28:29Z</time>
      </trkpt>
      <trkpt lat="44.23879" lon="6.22131">
        <ele>1785</ele>
        <time>2018-06-08T10:28:31Z</time>
      </trkpt>
      <trkpt lat="44.23878" lon="6.2213">
        <ele>1785</ele>
        <time>2018-06-08T10:28:33Z</time>
      </trkpt>
      <trkpt lat="44.23878" lon="6.22128">
        <ele>1786</ele>
        <time>2018-06-08T10:28:36Z</time>
      </trkpt>
      <trkpt lat="44.23878" lon="6.22126">
        <ele>1786</ele>
        <time>2018-06-08T10:28:42Z</time>
      </trkpt>
      <trkpt lat="44.23878" lon="6.22124">
        <ele>1786</ele>
        <time>2018-06-08T10:28:44Z</time>
      </trkpt>
      <trkpt lat="44.23878" lon="6.22122">
        <ele>1786</ele>
        <time>2018-06-08T10:28:46Z</time>
      </trkpt>
      <trkpt lat="44.23878" lon="6.2212">
        <ele>1787</ele>
        <time>2018-06-08T10:28:48Z</time>
      </trkpt>
      <trkpt lat="44.23878" lon="6.22118">
        <ele>1787</ele>
        <time>2018-06-08T10:28:50Z</time>
      </trkpt>
      <trkpt lat="44.23877" lon="6.22116">
        <ele>1787</ele>
        <time>2018-06-08T10:28:52Z</time>
      </trkpt>
      <trkpt lat="44.23877" lon="6.22114">
        <ele>1787</ele>
        <time>2018-06-08T10:28:54Z</time>
      </trkpt>
      <trkpt lat="44.23877" lon="6.22112">
        <ele>1788</ele>
        <time>2018-06-08T10:28:56Z</time>
      </trkpt>
      <trkpt lat="44.23877" lon="6.2211">
        <ele>1788</ele>
        <time>2018-06-08T10:28:58Z</time>
      </trkpt>
      <trkpt lat="44.23877" lon="6.22108">
        <ele>1788</ele>
        <time>2018-06-08T10:29:00Z</time>
      </trkpt>
      <trkpt lat="44.23876" lon="6.22106">
        <ele>1788</ele>
        <time>2018-06-08T10:29:02Z</time>
      </trkpt>
      <trkpt lat="44.23876" lon="6.22104">
        <ele>1789</ele>
        <time>2018-06-08T10:29:04Z</time>
      </trkpt>
      <trkpt lat="44.23877" lon="6.22102">
        <ele>1789</ele>
        <time>2018-06-08T10:29:06Z</time>
      </trkpt>
      <trkpt lat="44.23877" lon="6.221">
        <ele>1790</ele>
        <time>2018-06-08T10:29:08Z</time>
      </trkpt>
      <trkpt lat="44.23876" lon="6.22098">
        <ele>1790</ele>
        <time>2018-06-08T10:29:10Z</time>
      </trkpt>
      <trkpt lat="44.23876" lon="6.22096">
        <ele>1790</ele>
        <time>2018-06-08T10:29:12Z</time>
      </trkpt>
      <trkpt lat="44.23876" lon="6.22094">
        <ele>1790</ele>
        <time>2018-06-08T10:29:14Z</time>
      </trkpt>
      <trkpt lat="44.23876" lon="6.22092">
        <ele>1791</ele>
        <time>2018-06-08T10:29:16Z</time>
      </trkpt>
      <trkpt lat="44.23876" lon="6.22091">
        <ele>1791</ele>
        <time>2018-06-08T10:29:17Z</time>
      </trkpt>
      <trkpt lat="44.23876" lon="6.22089">
        <ele>1791</ele>
        <time>2018-06-08T10:29:19Z</time>
      </trkpt>
      <trkpt lat="44.23876" lon="6.22087">
        <ele>1791</ele>
        <time>2018-06-08T10:29:21Z</time>
      </trkpt>
      <trkpt lat="44.23876" lon="6.22085">
        <ele>1792</ele>
        <time>2018-06-08T10:29:23Z</time>
      </trkpt>
      <trkpt lat="44.23877" lon="6.22083">
        <ele>1792</ele>
        <time>2018-06-08T10:29:26Z</time>
      </trkpt>
      <trkpt lat="44.23877" lon="6.22081">
        <ele>1793</ele>
        <time>2018-06-08T10:29:28Z</time>
      </trkpt>
      <trkpt lat="44.23877" lon="6.2208">
        <ele>1793</ele>
        <time>2018-06-08T10:29:30Z</time>
      </trkpt>
      <trkpt lat="44.23878" lon="6.22078">
        <ele>1793</ele>
        <time>2018-06-08T10:29:32Z</time>
      </trkpt>
      <trkpt lat="44.23878" lon="6.22076">
        <ele>1793</ele>
        <time>2018-06-08T10:29:34Z</time>
      </trkpt>
      <trkpt lat="44.23879" lon="6.22075">
        <ele>1794</ele>
        <time>2018-06-08T10:29:36Z</time>
      </trkpt>
      <trkpt lat="44.23879" lon="6.22073">
        <ele>1794</ele>
        <time>2018-06-08T10:29:38Z</time>
      </trkpt>
      <trkpt lat="44.23879" lon="6.22071">
        <ele>1795</ele>
        <time>2018-06-08T10:29:42Z</time>
      </trkpt>
      <trkpt lat="44.23878" lon="6.2207">
        <ele>1795</ele>
        <time>2018-06-08T10:29:45Z</time>
      </trkpt>
      <trkpt lat="44.23878" lon="6.22068">
        <ele>1795</ele>
        <time>2018-06-08T10:29:48Z</time>
      </trkpt>
      <trkpt lat="44.23878" lon="6.22066">
        <ele>1795</ele>
        <time>2018-06-08T10:29:50Z</time>
      </trkpt>
      <trkpt lat="44.23878" lon="6.22064">
        <ele>1795</ele>
        <time>2018-06-08T10:29:53Z</time>
      </trkpt>
      <trkpt lat="44.23877" lon="6.22062">
        <ele>1795</ele>
        <time>2018-06-08T10:29:55Z</time>
      </trkpt>
      <trkpt lat="44.23877" lon="6.2206">
        <ele>1795</ele>
        <time>2018-06-08T10:29:57Z</time>
      </trkpt>
      <trkpt lat="44.23877" lon="6.22059">
        <ele>1795</ele>
        <time>2018-06-08T10:29:59Z</time>
      </trkpt>
      <trkpt lat="44.23877" lon="6.22057">
        <ele>1796</ele>
        <time>2018-06-08T10:30:01Z</time>
      </trkpt>
      <trkpt lat="44.23877" lon="6.22055">
        <ele>1796</ele>
        <time>2018-06-08T10:30:03Z</time>
      </trkpt>
      <trkpt lat="44.23876" lon="6.22053">
        <ele>1797</ele>
        <time>2018-06-08T10:30:05Z</time>
      </trkpt>
      <trkpt lat="44.23875" lon="6.22051">
        <ele>1797</ele>
        <time>2018-06-08T10:30:08Z</time>
      </trkpt>
      <trkpt lat="44.23874" lon="6.2205">
        <ele>1798</ele>
        <time>2018-06-08T10:30:10Z</time>
      </trkpt>
      <trkpt lat="44.23873" lon="6.22048">
        <ele>1798</ele>
        <time>2018-06-08T10:30:12Z</time>
      </trkpt>
      <trkpt lat="44.23873" lon="6.22047">
        <ele>1798</ele>
        <time>2018-06-08T10:30:14Z</time>
      </trkpt>
      <trkpt lat="44.23872" lon="6.22045">
        <ele>1799</ele>
        <time>2018-06-08T10:30:16Z</time>
      </trkpt>
      <trkpt lat="44.23871" lon="6.22043">
        <ele>1799</ele>
        <time>2018-06-08T10:30:18Z</time>
      </trkpt>
      <trkpt lat="44.2387" lon="6.22042">
        <ele>1799</ele>
        <time>2018-06-08T10:30:20Z</time>
      </trkpt>
      <trkpt lat="44.23869" lon="6.2204">
        <ele>1800</ele>
        <time>2018-06-08T10:30:22Z</time>
      </trkpt>
      <trkpt lat="44.23869" lon="6.22038">
        <ele>1800</ele>
        <time>2018-06-08T10:30:24Z</time>
      </trkpt>
      <trkpt lat="44.23868" lon="6.22036">
        <ele>1800</ele>
        <time>2018-06-08T10:30:26Z</time>
      </trkpt>
      <trkpt lat="44.23868" lon="6.22034">
        <ele>1800</ele>
        <time>2018-06-08T10:30:28Z</time>
      </trkpt>
      <trkpt lat="44.23868" lon="6.22031">
        <ele>1800</ele>
        <time>2018-06-08T10:30:30Z</time>
      </trkpt>
      <trkpt lat="44.23867" lon="6.22029">
        <ele>1801</ele>
        <time>2018-06-08T10:30:32Z</time>
      </trkpt>
      <trkpt lat="44.23867" lon="6.22027">
        <ele>1801</ele>
        <time>2018-06-08T10:30:34Z</time>
      </trkpt>
      <trkpt lat="44.23867" lon="6.22025">
        <ele>1801</ele>
        <time>2018-06-08T10:30:36Z</time>
      </trkpt>
      <trkpt lat="44.23867" lon="6.22023">
        <ele>1801</ele>
        <time>2018-06-08T10:30:38Z</time>
      </trkpt>
      <trkpt lat="44.23867" lon="6.22022">
        <ele>1801</ele>
        <time>2018-06-08T10:30:40Z</time>
      </trkpt>
      <trkpt lat="44.23867" lon="6.2202">
        <ele>1801</ele>
        <time>2018-06-08T10:30:49Z</time>
      </trkpt>
      <trkpt lat="44.23867" lon="6.22018">
        <ele>1801</ele>
        <time>2018-06-08T10:30:51Z</time>
      </trkpt>
      <trkpt lat="44.23869" lon="6.22017">
        <ele>1801</ele>
        <time>2018-06-08T10:30:53Z</time>
      </trkpt>
      <trkpt lat="44.2387" lon="6.22016">
        <ele>1801</ele>
        <time>2018-06-08T10:30:56Z</time>
      </trkpt>
      <trkpt lat="44.2387" lon="6.22014">
        <ele>1802</ele>
        <time>2018-06-08T10:30:58Z</time>
      </trkpt>
      <trkpt lat="44.2387" lon="6.22012">
        <ele>1802</ele>
        <time>2018-06-08T10:31:00Z</time>
      </trkpt>
      <trkpt lat="44.2387" lon="6.2201">
        <ele>1802</ele>
        <time>2018-06-08T10:31:02Z</time>
      </trkpt>
      <trkpt lat="44.2387" lon="6.22008">
        <ele>1802</ele>
        <time>2018-06-08T10:31:04Z</time>
      </trkpt>
      <trkpt lat="44.23871" lon="6.22006">
        <ele>1803</ele>
        <time>2018-06-08T10:31:06Z</time>
      </trkpt>
      <trkpt lat="44.23872" lon="6.22004">
        <ele>1803</ele>
        <time>2018-06-08T10:31:09Z</time>
      </trkpt>
      <trkpt lat="44.23872" lon="6.22004">
        <ele>1804</ele>
        <time>2018-06-08T10:31:24Z</time>
      </trkpt>
      <trkpt lat="44.23872" lon="6.22004">
        <ele>1804</ele>
        <time>2018-06-08T10:31:31Z</time>
      </trkpt>
      <trkpt lat="44.23872" lon="6.22004">
        <ele>1804</ele>
        <time>2018-06-08T10:31:45Z</time>
      </trkpt>
      <trkpt lat="44.23872" lon="6.22005">
        <ele>1804</ele>
        <time>2018-06-08T10:31:53Z</time>
      </trkpt>
      <trkpt lat="44.23871" lon="6.22007">
        <ele>1803</ele>
        <time>2018-06-08T10:32:02Z</time>
      </trkpt>
      <trkpt lat="44.2387" lon="6.22007">
        <ele>1803</ele>
        <time>2018-06-08T10:32:09Z</time>
      </trkpt>
      <trkpt lat="44.23869" lon="6.22006">
        <ele>1806</ele>
        <time>2018-06-08T10:32:15Z</time>
      </trkpt>
      <trkpt lat="44.2387" lon="6.22006">
        <ele>1809</ele>
        <time>2018-06-08T10:32:23Z</time>
      </trkpt>
      <trkpt lat="44.23871" lon="6.22007">
        <ele>1809</ele>
        <time>2018-06-08T10:32:26Z</time>
      </trkpt>
      <trkpt lat="44.23872" lon="6.22008">
        <ele>1808</ele>
        <time>2018-06-08T10:32:36Z</time>
      </trkpt>
      <trkpt lat="44.23874" lon="6.22009">
        <ele>1805</ele>
        <time>2018-06-08T10:32:42Z</time>
      </trkpt>
      <trkpt lat="44.23875" lon="6.22008">
        <ele>1803</ele>
        <time>2018-06-08T10:33:03Z</time>
      </trkpt>
      <trkpt lat="44.23876" lon="6.22006">
        <ele>1803</ele>
        <time>2018-06-08T10:33:05Z</time>
      </trkpt>
      <trkpt lat="44.23877" lon="6.22004">
        <ele>1803</ele>
        <time>2018-06-08T10:33:09Z</time>
      </trkpt>
      <trkpt lat="44.23875" lon="6.22004">
        <ele>1803</ele>
        <time>2018-06-08T10:33:13Z</time>
      </trkpt>
      <trkpt lat="44.23876" lon="6.22003">
        <ele>1803</ele>
        <time>2018-06-08T10:33:18Z</time>
      </trkpt>
      <trkpt lat="44.23877" lon="6.22001">
        <ele>1803</ele>
        <time>2018-06-08T10:33:20Z</time>
      </trkpt>
      <trkpt lat="44.23878" lon="6.21999">
        <ele>1803</ele>
        <time>2018-06-08T10:33:24Z</time>
      </trkpt>
      <trkpt lat="44.23878" lon="6.21996">
        <ele>1803</ele>
        <time>2018-06-08T10:33:26Z</time>
      </trkpt>
      <trkpt lat="44.23879" lon="6.21994">
        <ele>1804</ele>
        <time>2018-06-08T10:33:28Z</time>
      </trkpt>
      <trkpt lat="44.2388" lon="6.21992">
        <ele>1805</ele>
        <time>2018-06-08T10:33:31Z</time>
      </trkpt>
      <trkpt lat="44.23881" lon="6.21991">
        <ele>1805</ele>
        <time>2018-06-08T10:33:33Z</time>
      </trkpt>
      <trkpt lat="44.23882" lon="6.21989">
        <ele>1806</ele>
        <time>2018-06-08T10:33:36Z</time>
      </trkpt>
      <trkpt lat="44.23882" lon="6.21986">
        <ele>1806</ele>
        <time>2018-06-08T10:33:38Z</time>
      </trkpt>
      <trkpt lat="44.23883" lon="6.21984">
        <ele>1806</ele>
        <time>2018-06-08T10:33:40Z</time>
      </trkpt>
      <trkpt lat="44.23884" lon="6.21982">
        <ele>1807</ele>
        <time>2018-06-08T10:33:43Z</time>
      </trkpt>
      <trkpt lat="44.23885" lon="6.21981">
        <ele>1808</ele>
        <time>2018-06-08T10:33:46Z</time>
      </trkpt>
      <trkpt lat="44.23886" lon="6.21982">
        <ele>1809</ele>
        <time>2018-06-08T10:33:49Z</time>
      </trkpt>
      <trkpt lat="44.23888" lon="6.21982">
        <ele>1810</ele>
        <time>2018-06-08T10:33:52Z</time>
      </trkpt>
      <trkpt lat="44.23889" lon="6.21981">
        <ele>1811</ele>
        <time>2018-06-08T10:33:55Z</time>
      </trkpt>
      <trkpt lat="44.2389" lon="6.21979">
        <ele>1812</ele>
        <time>2018-06-08T10:33:58Z</time>
      </trkpt>
      <trkpt lat="44.2389" lon="6.21978">
        <ele>1812</ele>
        <time>2018-06-08T10:34:01Z</time>
      </trkpt>
      <trkpt lat="44.2389" lon="6.21976">
        <ele>1813</ele>
        <time>2018-06-08T10:34:03Z</time>
      </trkpt>
      <trkpt lat="44.23891" lon="6.21974">
        <ele>1813</ele>
        <time>2018-06-08T10:34:05Z</time>
      </trkpt>
      <trkpt lat="44.23891" lon="6.21972">
        <ele>1813</ele>
        <time>2018-06-08T10:34:08Z</time>
      </trkpt>
      <trkpt lat="44.23892" lon="6.21971">
        <ele>1813</ele>
        <time>2018-06-08T10:34:11Z</time>
      </trkpt>
      <trkpt lat="44.23893" lon="6.2197">
        <ele>1814</ele>
        <time>2018-06-08T10:34:15Z</time>
      </trkpt>
      <trkpt lat="44.23894" lon="6.21968">
        <ele>1815</ele>
        <time>2018-06-08T10:34:19Z</time>
      </trkpt>
      <trkpt lat="44.23895" lon="6.21967">
        <ele>1816</ele>
        <time>2018-06-08T10:34:23Z</time>
      </trkpt>
      <trkpt lat="44.23896" lon="6.21967">
        <ele>1816</ele>
        <time>2018-06-08T10:34:26Z</time>
      </trkpt>
      <trkpt lat="44.23898" lon="6.21967">
        <ele>1817</ele>
        <time>2018-06-08T10:34:29Z</time>
      </trkpt>
      <trkpt lat="44.23899" lon="6.21968">
        <ele>1818</ele>
        <time>2018-06-08T10:34:32Z</time>
      </trkpt>
      <trkpt lat="44.239" lon="6.21969">
        <ele>1818</ele>
        <time>2018-06-08T10:34:35Z</time>
      </trkpt>
      <trkpt lat="44.23901" lon="6.21971">
        <ele>1818</ele>
        <time>2018-06-08T10:34:37Z</time>
      </trkpt>
      <trkpt lat="44.23902" lon="6.21971">
        <ele>1819</ele>
        <time>2018-06-08T10:34:41Z</time>
      </trkpt>
      <trkpt lat="44.23903" lon="6.21969">
        <ele>1819</ele>
        <time>2018-06-08T10:34:44Z</time>
      </trkpt>
      <trkpt lat="44.23903" lon="6.21968">
        <ele>1820</ele>
        <time>2018-06-08T10:34:48Z</time>
      </trkpt>
      <trkpt lat="44.23903" lon="6.21966">
        <ele>1820</ele>
        <time>2018-06-08T10:34:50Z</time>
      </trkpt>
      <trkpt lat="44.23904" lon="6.21965">
        <ele>1820</ele>
        <time>2018-06-08T10:34:52Z</time>
      </trkpt>
      <trkpt lat="44.23904" lon="6.21962">
        <ele>1820</ele>
        <time>2018-06-08T10:34:55Z</time>
      </trkpt>
      <trkpt lat="44.23906" lon="6.21962">
        <ele>1820</ele>
        <time>2018-06-08T10:34:58Z</time>
      </trkpt>
      <trkpt lat="44.23907" lon="6.21964">
        <ele>1821</ele>
        <time>2018-06-08T10:35:01Z</time>
      </trkpt>
      <trkpt lat="44.23908" lon="6.21964">
        <ele>1822</ele>
        <time>2018-06-08T10:35:07Z</time>
      </trkpt>
      <trkpt lat="44.2391" lon="6.21965">
        <ele>1823</ele>
        <time>2018-06-08T10:35:11Z</time>
      </trkpt>
      <trkpt lat="44.23911" lon="6.21966">
        <ele>1825</ele>
        <time>2018-06-08T10:35:22Z</time>
      </trkpt>
      <trkpt lat="44.23912" lon="6.21965">
        <ele>1825</ele>
        <time>2018-06-08T10:35:29Z</time>
      </trkpt>
      <trkpt lat="44.23912" lon="6.21963">
        <ele>1825</ele>
        <time>2018-06-08T10:35:32Z</time>
      </trkpt>
      <trkpt lat="44.23914" lon="6.21962">
        <ele>1825</ele>
        <time>2018-06-08T10:35:35Z</time>
      </trkpt>
      <trkpt lat="44.23915" lon="6.21961">
        <ele>1826</ele>
        <time>2018-06-08T10:35:41Z</time>
      </trkpt>
      <trkpt lat="44.23915" lon="6.21959">
        <ele>1826</ele>
        <time>2018-06-08T10:35:44Z</time>
      </trkpt>
      <trkpt lat="44.23915" lon="6.21957">
        <ele>1827</ele>
        <time>2018-06-08T10:35:46Z</time>
      </trkpt>
      <trkpt lat="44.23917" lon="6.21956">
        <ele>1828</ele>
        <time>2018-06-08T10:35:49Z</time>
      </trkpt>
      <trkpt lat="44.23918" lon="6.21957">
        <ele>1828</ele>
        <time>2018-06-08T10:35:52Z</time>
      </trkpt>
      <trkpt lat="44.23919" lon="6.21958">
        <ele>1829</ele>
        <time>2018-06-08T10:35:55Z</time>
      </trkpt>
      <trkpt lat="44.2392" lon="6.21959">
        <ele>1829</ele>
        <time>2018-06-08T10:35:59Z</time>
      </trkpt>
      <trkpt lat="44.23921" lon="6.21958">
        <ele>1830</ele>
        <time>2018-06-08T10:36:06Z</time>
      </trkpt>
      <trkpt lat="44.23922" lon="6.21959">
        <ele>1831</ele>
        <time>2018-06-08T10:36:10Z</time>
      </trkpt>
      <trkpt lat="44.23923" lon="6.21957">
        <ele>1832</ele>
        <time>2018-06-08T10:36:15Z</time>
      </trkpt>
      <trkpt lat="44.23924" lon="6.21955">
        <ele>1833</ele>
        <time>2018-06-08T10:36:20Z</time>
      </trkpt>
      <trkpt lat="44.23925" lon="6.21954">
        <ele>1834</ele>
        <time>2018-06-08T10:36:24Z</time>
      </trkpt>
      <trkpt lat="44.23926" lon="6.21956">
        <ele>1834</ele>
        <time>2018-06-08T10:36:27Z</time>
      </trkpt>
      <trkpt lat="44.23927" lon="6.21957">
        <ele>1834</ele>
        <time>2018-06-08T10:36:30Z</time>
      </trkpt>
      <trkpt lat="44.23928" lon="6.21958">
        <ele>1835</ele>
        <time>2018-06-08T10:36:34Z</time>
      </trkpt>
      <trkpt lat="44.2393" lon="6.21959">
        <ele>1836</ele>
        <time>2018-06-08T10:36:38Z</time>
      </trkpt>
      <trkpt lat="44.23931" lon="6.21961">
        <ele>1837</ele>
        <time>2018-06-08T10:36:41Z</time>
      </trkpt>
      <trkpt lat="44.23932" lon="6.21962">
        <ele>1837</ele>
        <time>2018-06-08T10:36:44Z</time>
      </trkpt>
      <trkpt lat="44.23934" lon="6.21963">
        <ele>1838</ele>
        <time>2018-06-08T10:36:54Z</time>
      </trkpt>
      <trkpt lat="44.23935" lon="6.21962">
        <ele>1839</ele>
        <time>2018-06-08T10:36:58Z</time>
      </trkpt>
      <trkpt lat="44.23936" lon="6.21962">
        <ele>1839</ele>
        <time>2018-06-08T10:37:02Z</time>
      </trkpt>
      <trkpt lat="44.23937" lon="6.21961">
        <ele>1840</ele>
        <time>2018-06-08T10:37:09Z</time>
      </trkpt>
      <trkpt lat="44.23937" lon="6.21959">
        <ele>1841</ele>
        <time>2018-06-08T10:37:12Z</time>
      </trkpt>
      <trkpt lat="44.23937" lon="6.21957">
        <ele>1841</ele>
        <time>2018-06-08T10:37:16Z</time>
      </trkpt>
      <trkpt lat="44.23938" lon="6.21955">
        <ele>1841</ele>
        <time>2018-06-08T10:37:20Z</time>
      </trkpt>
      <trkpt lat="44.23938" lon="6.21954">
        <ele>1842</ele>
        <time>2018-06-08T10:37:23Z</time>
      </trkpt>
      <trkpt lat="44.23938" lon="6.21952">
        <ele>1843</ele>
        <time>2018-06-08T10:37:27Z</time>
      </trkpt>
      <trkpt lat="44.23938" lon="6.2195">
        <ele>1843</ele>
        <time>2018-06-08T10:37:30Z</time>
      </trkpt>
      <trkpt lat="44.23939" lon="6.21949">
        <ele>1844</ele>
        <time>2018-06-08T10:37:33Z</time>
      </trkpt>
      <trkpt lat="44.2394" lon="6.21948">
        <ele>1845</ele>
        <time>2018-06-08T10:37:37Z</time>
      </trkpt>
      <trkpt lat="44.23941" lon="6.21946">
        <ele>1846</ele>
        <time>2018-06-08T10:37:41Z</time>
      </trkpt>
      <trkpt lat="44.23941" lon="6.21944">
        <ele>1847</ele>
        <time>2018-06-08T10:37:44Z</time>
      </trkpt>
      <trkpt lat="44.23942" lon="6.21943">
        <ele>1847</ele>
        <time>2018-06-08T10:37:47Z</time>
      </trkpt>
      <trkpt lat="44.23943" lon="6.21942">
        <ele>1848</ele>
        <time>2018-06-08T10:37:50Z</time>
      </trkpt>
      <trkpt lat="44.23944" lon="6.21943">
        <ele>1848</ele>
        <time>2018-06-08T10:37:54Z</time>
      </trkpt>
      <trkpt lat="44.23945" lon="6.21945">
        <ele>1849</ele>
        <time>2018-06-08T10:37:57Z</time>
      </trkpt>
      <trkpt lat="44.23945" lon="6.21946">
        <ele>1850</ele>
        <time>2018-06-08T10:38:01Z</time>
      </trkpt>
      <trkpt lat="44.23946" lon="6.21948">
        <ele>1850</ele>
        <time>2018-06-08T10:38:04Z</time>
      </trkpt>
      <trkpt lat="44.23946" lon="6.21949">
        <ele>1851</ele>
        <time>2018-06-08T10:38:06Z</time>
      </trkpt>
      <trkpt lat="44.23946" lon="6.21951">
        <ele>1851</ele>
        <time>2018-06-08T10:38:08Z</time>
      </trkpt>
      <trkpt lat="44.23947" lon="6.21951">
        <ele>1852</ele>
        <time>2018-06-08T10:38:13Z</time>
      </trkpt>
      <trkpt lat="44.23948" lon="6.2195">
        <ele>1852</ele>
        <time>2018-06-08T10:38:20Z</time>
      </trkpt>
      <trkpt lat="44.23949" lon="6.21949">
        <ele>1854</ele>
        <time>2018-06-08T10:38:25Z</time>
      </trkpt>
      <trkpt lat="44.2395" lon="6.2195">
        <ele>1854</ele>
        <time>2018-06-08T10:38:30Z</time>
      </trkpt>
      <trkpt lat="44.23951" lon="6.21948">
        <ele>1855</ele>
        <time>2018-06-08T10:38:37Z</time>
      </trkpt>
      <trkpt lat="44.23951" lon="6.21947">
        <ele>1855</ele>
        <time>2018-06-08T10:38:40Z</time>
      </trkpt>
      <trkpt lat="44.23953" lon="6.21946">
        <ele>1855</ele>
        <time>2018-06-08T10:38:44Z</time>
      </trkpt>
      <trkpt lat="44.23954" lon="6.21947">
        <ele>1855</ele>
        <time>2018-06-08T10:38:48Z</time>
      </trkpt>
      <trkpt lat="44.23955" lon="6.21949">
        <ele>1856</ele>
        <time>2018-06-08T10:38:53Z</time>
      </trkpt>
      <trkpt lat="44.23956" lon="6.2195">
        <ele>1856</ele>
        <time>2018-06-08T10:38:57Z</time>
      </trkpt>
      <trkpt lat="44.23956" lon="6.21949">
        <ele>1857</ele>
        <time>2018-06-08T10:39:04Z</time>
      </trkpt>
      <trkpt lat="44.23956" lon="6.21949">
        <ele>1858</ele>
        <time>2018-06-08T10:39:15Z</time>
      </trkpt>
      <trkpt lat="44.23957" lon="6.21948">
        <ele>1858</ele>
        <time>2018-06-08T10:39:18Z</time>
      </trkpt>
      <trkpt lat="44.23958" lon="6.21946">
        <ele>1859</ele>
        <time>2018-06-08T10:39:27Z</time>
      </trkpt>
      <trkpt lat="44.23959" lon="6.21945">
        <ele>1860</ele>
        <time>2018-06-08T10:39:35Z</time>
      </trkpt>
      <trkpt lat="44.2396" lon="6.21944">
        <ele>1860</ele>
        <time>2018-06-08T10:39:39Z</time>
      </trkpt>
      <trkpt lat="44.23961" lon="6.21943">
        <ele>1861</ele>
        <time>2018-06-08T10:39:44Z</time>
      </trkpt>
      <trkpt lat="44.23962" lon="6.21941">
        <ele>1862</ele>
        <time>2018-06-08T10:39:48Z</time>
      </trkpt>
      <trkpt lat="44.23963" lon="6.2194">
        <ele>1862</ele>
        <time>2018-06-08T10:39:51Z</time>
      </trkpt>
      <trkpt lat="44.23964" lon="6.2194">
        <ele>1863</ele>
        <time>2018-06-08T10:39:57Z</time>
      </trkpt>
      <trkpt lat="44.23965" lon="6.21938">
        <ele>1864</ele>
        <time>2018-06-08T10:40:06Z</time>
      </trkpt>
      <trkpt lat="44.23965" lon="6.21937">
        <ele>1865</ele>
        <time>2018-06-08T10:40:11Z</time>
      </trkpt>
      <trkpt lat="44.23966" lon="6.21936">
        <ele>1865</ele>
        <time>2018-06-08T10:40:28Z</time>
      </trkpt>
      <trkpt lat="44.23966" lon="6.21934">
        <ele>1866</ele>
        <time>2018-06-08T10:40:33Z</time>
      </trkpt>
      <trkpt lat="44.23967" lon="6.21933">
        <ele>1867</ele>
        <time>2018-06-08T10:40:37Z</time>
      </trkpt>
      <trkpt lat="44.23969" lon="6.21933">
        <ele>1868</ele>
        <time>2018-06-08T10:40:48Z</time>
      </trkpt>
      <trkpt lat="44.23969" lon="6.21931">
        <ele>1868</ele>
        <time>2018-06-08T10:40:56Z</time>
      </trkpt>
      <trkpt lat="44.2397" lon="6.2193">
        <ele>1869</ele>
        <time>2018-06-08T10:41:03Z</time>
      </trkpt>
      <trkpt lat="44.23971" lon="6.21929">
        <ele>1870</ele>
        <time>2018-06-08T10:41:07Z</time>
      </trkpt>
      <trkpt lat="44.23972" lon="6.21931">
        <ele>1871</ele>
        <time>2018-06-08T10:41:15Z</time>
      </trkpt>
      <trkpt lat="44.23973" lon="6.21931">
        <ele>1872</ele>
        <time>2018-06-08T10:41:22Z</time>
      </trkpt>
      <trkpt lat="44.23974" lon="6.21932">
        <ele>1873</ele>
        <time>2018-06-08T10:41:26Z</time>
      </trkpt>
      <trkpt lat="44.23975" lon="6.21933">
        <ele>1874</ele>
        <time>2018-06-08T10:41:30Z</time>
      </trkpt>
      <trkpt lat="44.23976" lon="6.21934">
        <ele>1875</ele>
        <time>2018-06-08T10:41:33Z</time>
      </trkpt>
      <trkpt lat="44.23978" lon="6.21936">
        <ele>1875</ele>
        <time>2018-06-08T10:41:36Z</time>
      </trkpt>
      <trkpt lat="44.23979" lon="6.21936">
        <ele>1876</ele>
        <time>2018-06-08T10:41:43Z</time>
      </trkpt>
      <trkpt lat="44.2398" lon="6.21937">
        <ele>1876</ele>
        <time>2018-06-08T10:41:47Z</time>
      </trkpt>
      <trkpt lat="44.23981" lon="6.21938">
        <ele>1877</ele>
        <time>2018-06-08T10:41:53Z</time>
      </trkpt>
      <trkpt lat="44.23981" lon="6.21938">
        <ele>1878</ele>
        <time>2018-06-08T10:42:01Z</time>
      </trkpt>
      <trkpt lat="44.23982" lon="6.21939">
        <ele>1878</ele>
        <time>2018-06-08T10:42:03Z</time>
      </trkpt>
      <trkpt lat="44.23984" lon="6.21939">
        <ele>1878</ele>
        <time>2018-06-08T10:42:11Z</time>
      </trkpt>
      <trkpt lat="44.23985" lon="6.21939">
        <ele>1878</ele>
        <time>2018-06-08T10:42:15Z</time>
      </trkpt>
      <trkpt lat="44.23985" lon="6.21941">
        <ele>1879</ele>
        <time>2018-06-08T10:42:19Z</time>
      </trkpt>
      <trkpt lat="44.23987" lon="6.21942">
        <ele>1880</ele>
        <time>2018-06-08T10:42:22Z</time>
      </trkpt>
      <trkpt lat="44.23986" lon="6.21944">
        <ele>1880</ele>
        <time>2018-06-08T10:42:24Z</time>
      </trkpt>
      <trkpt lat="44.23986" lon="6.21945">
        <ele>1880</ele>
        <time>2018-06-08T10:42:26Z</time>
      </trkpt>
      <trkpt lat="44.23987" lon="6.21947">
        <ele>1881</ele>
        <time>2018-06-08T10:42:28Z</time>
      </trkpt>
      <trkpt lat="44.23987" lon="6.21948">
        <ele>1881</ele>
        <time>2018-06-08T10:42:30Z</time>
      </trkpt>
      <trkpt lat="44.23987" lon="6.2195">
        <ele>1881</ele>
        <time>2018-06-08T10:42:32Z</time>
      </trkpt>
      <trkpt lat="44.23987" lon="6.21952">
        <ele>1882</ele>
        <time>2018-06-08T10:42:34Z</time>
      </trkpt>
      <trkpt lat="44.23986" lon="6.21954">
        <ele>1883</ele>
        <time>2018-06-08T10:42:37Z</time>
      </trkpt>
      <trkpt lat="44.23987" lon="6.21956">
        <ele>1883</ele>
        <time>2018-06-08T10:42:40Z</time>
      </trkpt>
      <trkpt lat="44.23988" lon="6.21957">
        <ele>1884</ele>
        <time>2018-06-08T10:42:42Z</time>
      </trkpt>
      <trkpt lat="44.23989" lon="6.21959">
        <ele>1884</ele>
        <time>2018-06-08T10:42:45Z</time>
      </trkpt>
      <trkpt lat="44.23989" lon="6.21959">
        <ele>1885</ele>
        <time>2018-06-08T10:42:55Z</time>
      </trkpt>
      <trkpt lat="44.23989" lon="6.21961">
        <ele>1885</ele>
        <time>2018-06-08T10:43:03Z</time>
      </trkpt>
      <trkpt lat="44.23989" lon="6.21962">
        <ele>1885</ele>
        <time>2018-06-08T10:43:10Z</time>
      </trkpt>
      <trkpt lat="44.23991" lon="6.21963">
        <ele>1885</ele>
        <time>2018-06-08T10:43:14Z</time>
      </trkpt>
      <trkpt lat="44.23991" lon="6.21961">
        <ele>1887</ele>
        <time>2018-06-08T10:43:23Z</time>
      </trkpt>
      <trkpt lat="44.23991" lon="6.21959">
        <ele>1887</ele>
        <time>2018-06-08T10:43:26Z</time>
      </trkpt>
      <trkpt lat="44.23991" lon="6.21958">
        <ele>1887</ele>
        <time>2018-06-08T10:43:29Z</time>
      </trkpt>
      <trkpt lat="44.23991" lon="6.21956">
        <ele>1887</ele>
        <time>2018-06-08T10:43:31Z</time>
      </trkpt>
      <trkpt lat="44.23992" lon="6.21955">
        <ele>1889</ele>
        <time>2018-06-08T10:43:37Z</time>
      </trkpt>
      <trkpt lat="44.23993" lon="6.21953">
        <ele>1890</ele>
        <time>2018-06-08T10:43:48Z</time>
      </trkpt>
      <trkpt lat="44.23994" lon="6.21952">
        <ele>1890</ele>
        <time>2018-06-08T10:43:52Z</time>
      </trkpt>
      <trkpt lat="44.23993" lon="6.2195">
        <ele>1890</ele>
        <time>2018-06-08T10:43:59Z</time>
      </trkpt>
      <trkpt lat="44.23994" lon="6.21948">
        <ele>1890</ele>
        <time>2018-06-08T10:44:01Z</time>
      </trkpt>
      <trkpt lat="44.23994" lon="6.21947">
        <ele>1890</ele>
        <time>2018-06-08T10:44:03Z</time>
      </trkpt>
      <trkpt lat="44.23995" lon="6.21945">
        <ele>1890</ele>
        <time>2018-06-08T10:44:06Z</time>
      </trkpt>
      <trkpt lat="44.23995" lon="6.21945">
        <ele>1891</ele>
        <time>2018-06-08T10:44:09Z</time>
      </trkpt>
      <trkpt lat="44.23995" lon="6.21945">
        <ele>1891</ele>
        <time>2018-06-08T10:44:11Z</time>
      </trkpt>
      <trkpt lat="44.23996" lon="6.21944">
        <ele>1891</ele>
        <time>2018-06-08T10:44:14Z</time>
      </trkpt>
      <trkpt lat="44.23997" lon="6.21943">
        <ele>1892</ele>
        <time>2018-06-08T10:44:22Z</time>
      </trkpt>
      <trkpt lat="44.23997" lon="6.21941">
        <ele>1893</ele>
        <time>2018-06-08T10:44:28Z</time>
      </trkpt>
      <trkpt lat="44.23997" lon="6.2194">
        <ele>1894</ele>
        <time>2018-06-08T10:44:35Z</time>
      </trkpt>
      <trkpt lat="44.23999" lon="6.21938">
        <ele>1894</ele>
        <time>2018-06-08T10:44:40Z</time>
      </trkpt>
      <trkpt lat="44.24" lon="6.21938">
        <ele>1895</ele>
        <time>2018-06-08T10:44:56Z</time>
      </trkpt>
      <trkpt lat="44.24" lon="6.21938">
        <ele>1895</ele>
        <time>2018-06-08T10:45:00Z</time>
      </trkpt>
      <trkpt lat="44.24" lon="6.21938">
        <ele>1895</ele>
        <time>2018-06-08T10:45:07Z</time>
      </trkpt>
      <trkpt lat="44.24001" lon="6.21938">
        <ele>1895</ele>
        <time>2018-06-08T10:45:09Z</time>
      </trkpt>
      <trkpt lat="44.24002" lon="6.21936">
        <ele>1896</ele>
        <time>2018-06-08T10:45:15Z</time>
      </trkpt>
      <trkpt lat="44.24002" lon="6.21935">
        <ele>1897</ele>
        <time>2018-06-08T10:45:17Z</time>
      </trkpt>
      <trkpt lat="44.24002" lon="6.21933">
        <ele>1897</ele>
        <time>2018-06-08T10:45:21Z</time>
      </trkpt>
      <trkpt lat="44.24003" lon="6.21932">
        <ele>1898</ele>
        <time>2018-06-08T10:45:25Z</time>
      </trkpt>
      <trkpt lat="44.24004" lon="6.21932">
        <ele>1899</ele>
        <time>2018-06-08T10:45:29Z</time>
      </trkpt>
      <trkpt lat="44.24005" lon="6.2193">
        <ele>1899</ele>
        <time>2018-06-08T10:45:34Z</time>
      </trkpt>
      <trkpt lat="44.24004" lon="6.21929">
        <ele>1900</ele>
        <time>2018-06-08T10:45:38Z</time>
      </trkpt>
      <trkpt lat="44.24004" lon="6.21928">
        <ele>1900</ele>
        <time>2018-06-08T10:45:40Z</time>
      </trkpt>
      <trkpt lat="44.24003" lon="6.21926">
        <ele>1900</ele>
        <time>2018-06-08T10:45:42Z</time>
      </trkpt>
      <trkpt lat="44.24003" lon="6.21925">
        <ele>1900</ele>
        <time>2018-06-08T10:45:44Z</time>
      </trkpt>
      <trkpt lat="44.24004" lon="6.21923">
        <ele>1901</ele>
        <time>2018-06-08T10:45:47Z</time>
      </trkpt>
      <trkpt lat="44.24005" lon="6.21921">
        <ele>1902</ele>
        <time>2018-06-08T10:45:53Z</time>
      </trkpt>
      <trkpt lat="44.24007" lon="6.21921">
        <ele>1903</ele>
        <time>2018-06-08T10:46:01Z</time>
      </trkpt>
      <trkpt lat="44.24008" lon="6.2192">
        <ele>1903</ele>
        <time>2018-06-08T10:46:03Z</time>
      </trkpt>
      <trkpt lat="44.24009" lon="6.21918">
        <ele>1903</ele>
        <time>2018-06-08T10:46:06Z</time>
      </trkpt>
      <trkpt lat="44.24011" lon="6.21917">
        <ele>1903</ele>
        <time>2018-06-08T10:46:13Z</time>
      </trkpt>
      <trkpt lat="44.24012" lon="6.21916">
        <ele>1903</ele>
        <time>2018-06-08T10:46:17Z</time>
      </trkpt>
      <trkpt lat="44.24014" lon="6.21914">
        <ele>1903</ele>
        <time>2018-06-08T10:46:19Z</time>
      </trkpt>
      <trkpt lat="44.24015" lon="6.21913">
        <ele>1903</ele>
        <time>2018-06-08T10:46:21Z</time>
      </trkpt>
      <trkpt lat="44.24017" lon="6.21912">
        <ele>1903</ele>
        <time>2018-06-08T10:46:23Z</time>
      </trkpt>
      <trkpt lat="44.24018" lon="6.21911">
        <ele>1903</ele>
        <time>2018-06-08T10:46:25Z</time>
      </trkpt>
      <trkpt lat="44.2402" lon="6.2191">
        <ele>1903</ele>
        <time>2018-06-08T10:46:27Z</time>
      </trkpt>
      <trkpt lat="44.24021" lon="6.2191">
        <ele>1903</ele>
        <time>2018-06-08T10:46:29Z</time>
      </trkpt>
      <trkpt lat="44.24022" lon="6.21909">
        <ele>1903</ele>
        <time>2018-06-08T10:46:32Z</time>
      </trkpt>
      <trkpt lat="44.24023" lon="6.21908">
        <ele>1903</ele>
        <time>2018-06-08T10:46:34Z</time>
      </trkpt>
      <trkpt lat="44.24025" lon="6.21907">
        <ele>1903</ele>
        <time>2018-06-08T10:46:36Z</time>
      </trkpt>
      <trkpt lat="44.24026" lon="6.21906">
        <ele>1903</ele>
        <time>2018-06-08T10:46:38Z</time>
      </trkpt>
      <trkpt lat="44.24027" lon="6.21905">
        <ele>1903</ele>
        <time>2018-06-08T10:46:41Z</time>
      </trkpt>
      <trkpt lat="44.24028" lon="6.21904">
        <ele>1903</ele>
        <time>2018-06-08T10:46:44Z</time>
      </trkpt>
      <trkpt lat="44.24029" lon="6.21902">
        <ele>1903</ele>
        <time>2018-06-08T10:46:47Z</time>
      </trkpt>
      <trkpt lat="44.24031" lon="6.21902">
        <ele>1903</ele>
        <time>2018-06-08T10:47:02Z</time>
      </trkpt>
      <trkpt lat="44.24031" lon="6.219">
        <ele>1904</ele>
        <time>2018-06-08T10:47:16Z</time>
      </trkpt>
      <trkpt lat="44.24033" lon="6.21899">
        <ele>1904</ele>
        <time>2018-06-08T10:47:18Z</time>
      </trkpt>
      <trkpt lat="44.24034" lon="6.21898">
        <ele>1905</ele>
        <time>2018-06-08T10:47:20Z</time>
      </trkpt>
      <trkpt lat="44.24035" lon="6.21897">
        <ele>1905</ele>
        <time>2018-06-08T10:47:22Z</time>
      </trkpt>
      <trkpt lat="44.24036" lon="6.21896">
        <ele>1905</ele>
        <time>2018-06-08T10:47:25Z</time>
      </trkpt>
      <trkpt lat="44.24037" lon="6.21896">
        <ele>1906</ele>
        <time>2018-06-08T10:47:29Z</time>
      </trkpt>
      <trkpt lat="44.24038" lon="6.21896">
        <ele>1906</ele>
        <time>2018-06-08T10:47:34Z</time>
      </trkpt>
      <trkpt lat="44.2404" lon="6.21895">
        <ele>1906</ele>
        <time>2018-06-08T10:47:36Z</time>
      </trkpt>
      <trkpt lat="44.24041" lon="6.21895">
        <ele>1906</ele>
        <time>2018-06-08T10:47:38Z</time>
      </trkpt>
      <trkpt lat="44.24043" lon="6.21895">
        <ele>1906</ele>
        <time>2018-06-08T10:47:40Z</time>
      </trkpt>
      <trkpt lat="44.24044" lon="6.21896">
        <ele>1906</ele>
        <time>2018-06-08T10:47:42Z</time>
      </trkpt>
      <trkpt lat="44.24045" lon="6.21898">
        <ele>1906</ele>
        <time>2018-06-08T10:47:45Z</time>
      </trkpt>
      <trkpt lat="44.24047" lon="6.21897">
        <ele>1906</ele>
        <time>2018-06-08T10:47:50Z</time>
      </trkpt>
      <trkpt lat="44.24048" lon="6.21895">
        <ele>1906</ele>
        <time>2018-06-08T10:47:53Z</time>
      </trkpt>
      <trkpt lat="44.24049" lon="6.21895">
        <ele>1906</ele>
        <time>2018-06-08T10:48:06Z</time>
      </trkpt>
      <trkpt lat="44.24051" lon="6.21894">
        <ele>1906</ele>
        <time>2018-06-08T10:48:08Z</time>
      </trkpt>
      <trkpt lat="44.24053" lon="6.21894">
        <ele>1906</ele>
        <time>2018-06-08T10:48:10Z</time>
      </trkpt>
      <trkpt lat="44.24055" lon="6.21894">
        <ele>1906</ele>
        <time>2018-06-08T10:48:12Z</time>
      </trkpt>
      <trkpt lat="44.24057" lon="6.21893">
        <ele>1906</ele>
        <time>2018-06-08T10:48:14Z</time>
      </trkpt>
      <trkpt lat="44.24058" lon="6.21892">
        <ele>1906</ele>
        <time>2018-06-08T10:48:16Z</time>
      </trkpt>
      <trkpt lat="44.2406" lon="6.21891">
        <ele>1906</ele>
        <time>2018-06-08T10:48:18Z</time>
      </trkpt>
      <trkpt lat="44.24061" lon="6.21889">
        <ele>1906</ele>
        <time>2018-06-08T10:48:20Z</time>
      </trkpt>
      <trkpt lat="44.24063" lon="6.21888">
        <ele>1906</ele>
        <time>2018-06-08T10:48:22Z</time>
      </trkpt>
      <trkpt lat="44.24065" lon="6.21888">
        <ele>1906</ele>
        <time>2018-06-08T10:48:24Z</time>
      </trkpt>
      <trkpt lat="44.24066" lon="6.21888">
        <ele>1906</ele>
        <time>2018-06-08T10:48:26Z</time>
      </trkpt>
      <trkpt lat="44.24068" lon="6.21887">
        <ele>1906</ele>
        <time>2018-06-08T10:48:28Z</time>
      </trkpt>
      <trkpt lat="44.24069" lon="6.21886">
        <ele>1906</ele>
        <time>2018-06-08T10:48:31Z</time>
      </trkpt>
      <trkpt lat="44.24071" lon="6.21885">
        <ele>1906</ele>
        <time>2018-06-08T10:48:33Z</time>
      </trkpt>
      <trkpt lat="44.24072" lon="6.21885">
        <ele>1906</ele>
        <time>2018-06-08T10:48:39Z</time>
      </trkpt>
      <trkpt lat="44.24073" lon="6.21885">
        <ele>1906</ele>
        <time>2018-06-08T10:49:04Z</time>
      </trkpt>
      <trkpt lat="44.24075" lon="6.21884">
        <ele>1906</ele>
        <time>2018-06-08T10:49:07Z</time>
      </trkpt>
      <trkpt lat="44.24077" lon="6.21883">
        <ele>1906</ele>
        <time>2018-06-08T10:49:10Z</time>
      </trkpt>
      <trkpt lat="44.24078" lon="6.21883">
        <ele>1906</ele>
        <time>2018-06-08T10:49:12Z</time>
      </trkpt>
      <trkpt lat="44.2408" lon="6.21882">
        <ele>1906</ele>
        <time>2018-06-08T10:49:15Z</time>
      </trkpt>
      <trkpt lat="44.24081" lon="6.21881">
        <ele>1906</ele>
        <time>2018-06-08T10:49:17Z</time>
      </trkpt>
      <trkpt lat="44.24082" lon="6.21879">
        <ele>1906</ele>
        <time>2018-06-08T10:49:20Z</time>
      </trkpt>
      <trkpt lat="44.24084" lon="6.21879">
        <ele>1906</ele>
        <time>2018-06-08T10:49:22Z</time>
      </trkpt>
      <trkpt lat="44.24085" lon="6.21878">
        <ele>1906</ele>
        <time>2018-06-08T10:49:24Z</time>
      </trkpt>
      <trkpt lat="44.24087" lon="6.21877">
        <ele>1906</ele>
        <time>2018-06-08T10:49:26Z</time>
      </trkpt>
      <trkpt lat="44.24088" lon="6.21876">
        <ele>1906</ele>
        <time>2018-06-08T10:49:28Z</time>
      </trkpt>
      <trkpt lat="44.24089" lon="6.21876">
        <ele>1906</ele>
        <time>2018-06-08T10:49:30Z</time>
      </trkpt>
      <trkpt lat="44.24091" lon="6.21875">
        <ele>1906</ele>
        <time>2018-06-08T10:49:32Z</time>
      </trkpt>
      <trkpt lat="44.24092" lon="6.21874">
        <ele>1906</ele>
        <time>2018-06-08T10:49:34Z</time>
      </trkpt>
      <trkpt lat="44.24093" lon="6.21873">
        <ele>1906</ele>
        <time>2018-06-08T10:49:37Z</time>
      </trkpt>
      <trkpt lat="44.24094" lon="6.21871">
        <ele>1905</ele>
        <time>2018-06-08T10:49:42Z</time>
      </trkpt>
      <trkpt lat="44.24096" lon="6.21869">
        <ele>1905</ele>
        <time>2018-06-08T10:49:46Z</time>
      </trkpt>
      <trkpt lat="44.24097" lon="6.21868">
        <ele>1904</ele>
        <time>2018-06-08T10:49:49Z</time>
      </trkpt>
      <trkpt lat="44.24099" lon="6.21867">
        <ele>1904</ele>
        <time>2018-06-08T10:49:51Z</time>
      </trkpt>
      <trkpt lat="44.241" lon="6.21867">
        <ele>1904</ele>
        <time>2018-06-08T10:49:53Z</time>
      </trkpt>
      <trkpt lat="44.24101" lon="6.21867">
        <ele>1904</ele>
        <time>2018-06-08T10:49:55Z</time>
      </trkpt>
      <trkpt lat="44.24102" lon="6.21866">
        <ele>1904</ele>
        <time>2018-06-08T10:49:57Z</time>
      </trkpt>
      <trkpt lat="44.24104" lon="6.21866">
        <ele>1904</ele>
        <time>2018-06-08T10:50:00Z</time>
      </trkpt>
      <trkpt lat="44.24105" lon="6.21865">
        <ele>1904</ele>
        <time>2018-06-08T10:50:02Z</time>
      </trkpt>
      <trkpt lat="44.24107" lon="6.21863">
        <ele>1904</ele>
        <time>2018-06-08T10:50:05Z</time>
      </trkpt>
      <trkpt lat="44.24108" lon="6.21862">
        <ele>1904</ele>
        <time>2018-06-08T10:50:07Z</time>
      </trkpt>
      <trkpt lat="44.2411" lon="6.21862">
        <ele>1904</ele>
        <time>2018-06-08T10:50:09Z</time>
      </trkpt>
      <trkpt lat="44.24111" lon="6.21861">
        <ele>1904</ele>
        <time>2018-06-08T10:50:12Z</time>
      </trkpt>
      <trkpt lat="44.24112" lon="6.2186">
        <ele>1904</ele>
        <time>2018-06-08T10:50:14Z</time>
      </trkpt>
      <trkpt lat="44.24114" lon="6.21859">
        <ele>1903</ele>
        <time>2018-06-08T10:50:17Z</time>
      </trkpt>
      <trkpt lat="44.24115" lon="6.21858">
        <ele>1903</ele>
        <time>2018-06-08T10:50:19Z</time>
      </trkpt>
      <trkpt lat="44.24116" lon="6.21857">
        <ele>1903</ele>
        <time>2018-06-08T10:50:22Z</time>
      </trkpt>
      <trkpt lat="44.24118" lon="6.21855">
        <ele>1902</ele>
        <time>2018-06-08T10:50:24Z</time>
      </trkpt>
      <trkpt lat="44.24119" lon="6.21854">
        <ele>1902</ele>
        <time>2018-06-08T10:50:26Z</time>
      </trkpt>
      <trkpt lat="44.24121" lon="6.21853">
        <ele>1902</ele>
        <time>2018-06-08T10:50:28Z</time>
      </trkpt>
      <trkpt lat="44.24122" lon="6.21852">
        <ele>1901</ele>
        <time>2018-06-08T10:50:30Z</time>
      </trkpt>
      <trkpt lat="44.24123" lon="6.21851">
        <ele>1901</ele>
        <time>2018-06-08T10:50:33Z</time>
      </trkpt>
      <trkpt lat="44.24124" lon="6.2185">
        <ele>1901</ele>
        <time>2018-06-08T10:50:35Z</time>
      </trkpt>
      <trkpt lat="44.24126" lon="6.21849">
        <ele>1900</ele>
        <time>2018-06-08T10:50:38Z</time>
      </trkpt>
      <trkpt lat="44.24127" lon="6.21848">
        <ele>1900</ele>
        <time>2018-06-08T10:50:40Z</time>
      </trkpt>
      <trkpt lat="44.24128" lon="6.21848">
        <ele>1899</ele>
        <time>2018-06-08T10:50:52Z</time>
      </trkpt>
      <trkpt lat="44.24129" lon="6.21847">
        <ele>1899</ele>
        <time>2018-06-08T10:50:58Z</time>
      </trkpt>
      <trkpt lat="44.24131" lon="6.21846">
        <ele>1899</ele>
        <time>2018-06-08T10:51:04Z</time>
      </trkpt>
      <trkpt lat="44.24132" lon="6.21844">
        <ele>1898</ele>
        <time>2018-06-08T10:51:08Z</time>
      </trkpt>
      <trkpt lat="44.24133" lon="6.21843">
        <ele>1898</ele>
        <time>2018-06-08T10:51:11Z</time>
      </trkpt>
      <trkpt lat="44.24135" lon="6.21842">
        <ele>1897</ele>
        <time>2018-06-08T10:51:13Z</time>
      </trkpt>
      <trkpt lat="44.24136" lon="6.21842">
        <ele>1897</ele>
        <time>2018-06-08T10:51:17Z</time>
      </trkpt>
      <trkpt lat="44.24137" lon="6.21841">
        <ele>1897</ele>
        <time>2018-06-08T10:51:25Z</time>
      </trkpt>
      <trkpt lat="44.24139" lon="6.2184">
        <ele>1897</ele>
        <time>2018-06-08T10:51:28Z</time>
      </trkpt>
      <trkpt lat="44.2414" lon="6.21839">
        <ele>1896</ele>
        <time>2018-06-08T10:51:30Z</time>
      </trkpt>
      <trkpt lat="44.24142" lon="6.21837">
        <ele>1896</ele>
        <time>2018-06-08T10:51:32Z</time>
      </trkpt>
      <trkpt lat="44.24143" lon="6.21836">
        <ele>1896</ele>
        <time>2018-06-08T10:51:34Z</time>
      </trkpt>
      <trkpt lat="44.24144" lon="6.21835">
        <ele>1895</ele>
        <time>2018-06-08T10:51:36Z</time>
      </trkpt>
      <trkpt lat="44.24146" lon="6.21834">
        <ele>1895</ele>
        <time>2018-06-08T10:51:38Z</time>
      </trkpt>
      <trkpt lat="44.24147" lon="6.21833">
        <ele>1895</ele>
        <time>2018-06-08T10:51:40Z</time>
      </trkpt>
      <trkpt lat="44.24149" lon="6.21832">
        <ele>1894</ele>
        <time>2018-06-08T10:51:42Z</time>
      </trkpt>
      <trkpt lat="44.2415" lon="6.21831">
        <ele>1894</ele>
        <time>2018-06-08T10:51:45Z</time>
      </trkpt>
      <trkpt lat="44.24151" lon="6.21829">
        <ele>1893</ele>
        <time>2018-06-08T10:51:48Z</time>
      </trkpt>
      <trkpt lat="44.24152" lon="6.21828">
        <ele>1893</ele>
        <time>2018-06-08T10:51:52Z</time>
      </trkpt>
      <trkpt lat="44.24153" lon="6.21828">
        <ele>1893</ele>
        <time>2018-06-08T10:51:54Z</time>
      </trkpt>
      <trkpt lat="44.24155" lon="6.21827">
        <ele>1893</ele>
        <time>2018-06-08T10:51:57Z</time>
      </trkpt>
      <trkpt lat="44.24156" lon="6.21826">
        <ele>1892</ele>
        <time>2018-06-08T10:51:59Z</time>
      </trkpt>
      <trkpt lat="44.24157" lon="6.21825">
        <ele>1892</ele>
        <time>2018-06-08T10:52:01Z</time>
      </trkpt>
      <trkpt lat="44.24158" lon="6.21825">
        <ele>1892</ele>
        <time>2018-06-08T10:52:03Z</time>
      </trkpt>
      <trkpt lat="44.2416" lon="6.21824">
        <ele>1891</ele>
        <time>2018-06-08T10:52:06Z</time>
      </trkpt>
      <trkpt lat="44.24161" lon="6.21823">
        <ele>1891</ele>
        <time>2018-06-08T10:52:09Z</time>
      </trkpt>
      <trkpt lat="44.24162" lon="6.21823">
        <ele>1891</ele>
        <time>2018-06-08T10:52:15Z</time>
      </trkpt>
      <trkpt lat="44.24164" lon="6.21823">
        <ele>1891</ele>
        <time>2018-06-08T10:52:18Z</time>
      </trkpt>
      <trkpt lat="44.24165" lon="6.21822">
        <ele>1891</ele>
        <time>2018-06-08T10:52:22Z</time>
      </trkpt>
      <trkpt lat="44.24166" lon="6.21821">
        <ele>1891</ele>
        <time>2018-06-08T10:52:24Z</time>
      </trkpt>
      <trkpt lat="44.24168" lon="6.21821">
        <ele>1891</ele>
        <time>2018-06-08T10:52:26Z</time>
      </trkpt>
      <trkpt lat="44.24169" lon="6.21822">
        <ele>1891</ele>
        <time>2018-06-08T10:52:29Z</time>
      </trkpt>
      <trkpt lat="44.2417" lon="6.21822">
        <ele>1890</ele>
        <time>2018-06-08T10:52:41Z</time>
      </trkpt>
      <trkpt lat="44.24171" lon="6.21822">
        <ele>1890</ele>
        <time>2018-06-08T10:52:45Z</time>
      </trkpt>
      <trkpt lat="44.24172" lon="6.21822">
        <ele>1890</ele>
        <time>2018-06-08T10:52:48Z</time>
      </trkpt>
      <trkpt lat="44.24174" lon="6.21821">
        <ele>1890</ele>
        <time>2018-06-08T10:52:53Z</time>
      </trkpt>
      <trkpt lat="44.24176" lon="6.2182">
        <ele>1890</ele>
        <time>2018-06-08T10:52:56Z</time>
      </trkpt>
      <trkpt lat="44.24177" lon="6.21819">
        <ele>1890</ele>
        <time>2018-06-08T10:53:00Z</time>
      </trkpt>
      <trkpt lat="44.24177" lon="6.21818">
        <ele>1890</ele>
        <time>2018-06-08T10:53:02Z</time>
      </trkpt>
      <trkpt lat="44.24178" lon="6.21817">
        <ele>1890</ele>
        <time>2018-06-08T10:53:07Z</time>
      </trkpt>
      <trkpt lat="44.2418" lon="6.21815">
        <ele>1890</ele>
        <time>2018-06-08T10:53:10Z</time>
      </trkpt>
      <trkpt lat="44.24181" lon="6.21813">
        <ele>1890</ele>
        <time>2018-06-08T10:53:12Z</time>
      </trkpt>
      <trkpt lat="44.24181" lon="6.21812">
        <ele>1890</ele>
        <time>2018-06-08T10:53:14Z</time>
      </trkpt>
      <trkpt lat="44.24183" lon="6.21811">
        <ele>1890</ele>
        <time>2018-06-08T10:53:26Z</time>
      </trkpt>
      <trkpt lat="44.24184" lon="6.21809">
        <ele>1890</ele>
        <time>2018-06-08T10:53:30Z</time>
      </trkpt>
      <trkpt lat="44.24185" lon="6.21807">
        <ele>1890</ele>
        <time>2018-06-08T10:53:32Z</time>
      </trkpt>
      <trkpt lat="44.24186" lon="6.21806">
        <ele>1890</ele>
        <time>2018-06-08T10:53:35Z</time>
      </trkpt>
      <trkpt lat="44.24187" lon="6.21805">
        <ele>1890</ele>
        <time>2018-06-08T10:53:39Z</time>
      </trkpt>
      <trkpt lat="44.24188" lon="6.21804">
        <ele>1890</ele>
        <time>2018-06-08T10:54:34Z</time>
      </trkpt>
      <trkpt lat="44.24188" lon="6.21804">
        <ele>1890</ele>
        <time>2018-06-08T10:54:52Z</time>
      </trkpt>
      <trkpt lat="44.24189" lon="6.21805">
        <ele>1890</ele>
        <time>2018-06-08T10:55:05Z</time>
      </trkpt>
      <trkpt lat="44.24189" lon="6.21805">
        <ele>1890</ele>
        <time>2018-06-08T10:55:13Z</time>
      </trkpt>
      <trkpt lat="44.24189" lon="6.21805">
        <ele>1890</ele>
        <time>2018-06-08T10:55:26Z</time>
      </trkpt>
      <trkpt lat="44.2419" lon="6.21805">
        <ele>1890</ele>
        <time>2018-06-08T10:55:33Z</time>
      </trkpt>
      <trkpt lat="44.24191" lon="6.21805">
        <ele>1890</ele>
        <time>2018-06-08T10:55:36Z</time>
      </trkpt>
      <trkpt lat="44.24192" lon="6.21805">
        <ele>1890</ele>
        <time>2018-06-08T10:55:38Z</time>
      </trkpt>
      <trkpt lat="44.24194" lon="6.21804">
        <ele>1889</ele>
        <time>2018-06-08T10:55:40Z</time>
      </trkpt>
      <trkpt lat="44.24195" lon="6.21803">
        <ele>1889</ele>
        <time>2018-06-08T10:55:43Z</time>
      </trkpt>
      <trkpt lat="44.24196" lon="6.21803">
        <ele>1888</ele>
        <time>2018-06-08T10:55:46Z</time>
      </trkpt>
      <trkpt lat="44.24197" lon="6.21803">
        <ele>1887</ele>
        <time>2018-06-08T10:55:51Z</time>
      </trkpt>
      <trkpt lat="44.24199" lon="6.218">
        <ele>1887</ele>
        <time>2018-06-08T10:55:55Z</time>
      </trkpt>
      <trkpt lat="44.242" lon="6.21799">
        <ele>1887</ele>
        <time>2018-06-08T10:55:59Z</time>
      </trkpt>
      <trkpt lat="44.24201" lon="6.21798">
        <ele>1887</ele>
        <time>2018-06-08T10:56:05Z</time>
      </trkpt>
      <trkpt lat="44.24202" lon="6.21797">
        <ele>1886</ele>
        <time>2018-06-08T10:56:08Z</time>
      </trkpt>
      <trkpt lat="44.24204" lon="6.21796">
        <ele>1886</ele>
        <time>2018-06-08T10:56:12Z</time>
      </trkpt>
      <trkpt lat="44.24205" lon="6.21797">
        <ele>1885</ele>
        <time>2018-06-08T10:56:17Z</time>
      </trkpt>
      <trkpt lat="44.24205" lon="6.21799">
        <ele>1884</ele>
        <time>2018-06-08T10:56:19Z</time>
      </trkpt>
      <trkpt lat="44.24206" lon="6.21799">
        <ele>1883</ele>
        <time>2018-06-08T10:56:26Z</time>
      </trkpt>
      <trkpt lat="44.24208" lon="6.21798">
        <ele>1882</ele>
        <time>2018-06-08T10:56:30Z</time>
      </trkpt>
      <trkpt lat="44.24208" lon="6.21796">
        <ele>1881</ele>
        <time>2018-06-08T10:56:32Z</time>
      </trkpt>
      <trkpt lat="44.2421" lon="6.21795">
        <ele>1881</ele>
        <time>2018-06-08T10:56:35Z</time>
      </trkpt>
      <trkpt lat="44.24212" lon="6.21796">
        <ele>1880</ele>
        <time>2018-06-08T10:56:37Z</time>
      </trkpt>
      <trkpt lat="44.24213" lon="6.21797">
        <ele>1880</ele>
        <time>2018-06-08T10:56:40Z</time>
      </trkpt>
      <trkpt lat="44.24215" lon="6.21798">
        <ele>1879</ele>
        <time>2018-06-08T10:56:42Z</time>
      </trkpt>
      <trkpt lat="44.24216" lon="6.21799">
        <ele>1878</ele>
        <time>2018-06-08T10:56:44Z</time>
      </trkpt>
      <trkpt lat="44.24218" lon="6.21799">
        <ele>1877</ele>
        <time>2018-06-08T10:56:46Z</time>
      </trkpt>
      <trkpt lat="44.24219" lon="6.21798">
        <ele>1876</ele>
        <time>2018-06-08T10:56:50Z</time>
      </trkpt>
      <trkpt lat="44.2422" lon="6.21796">
        <ele>1875</ele>
        <time>2018-06-08T10:56:53Z</time>
      </trkpt>
      <trkpt lat="44.2422" lon="6.21795">
        <ele>1874</ele>
        <time>2018-06-08T10:56:58Z</time>
      </trkpt>
      <trkpt lat="44.24221" lon="6.21793">
        <ele>1873</ele>
        <time>2018-06-08T10:57:02Z</time>
      </trkpt>
      <trkpt lat="44.24222" lon="6.21791">
        <ele>1872</ele>
        <time>2018-06-08T10:57:05Z</time>
      </trkpt>
      <trkpt lat="44.24222" lon="6.21789">
        <ele>1872</ele>
        <time>2018-06-08T10:57:08Z</time>
      </trkpt>
      <trkpt lat="44.24223" lon="6.21787">
        <ele>1871</ele>
        <time>2018-06-08T10:57:11Z</time>
      </trkpt>
      <trkpt lat="44.24222" lon="6.21785">
        <ele>1870</ele>
        <time>2018-06-08T10:57:14Z</time>
      </trkpt>
      <trkpt lat="44.24223" lon="6.21784">
        <ele>1870</ele>
        <time>2018-06-08T10:57:16Z</time>
      </trkpt>
      <trkpt lat="44.24223" lon="6.21782">
        <ele>1870</ele>
        <time>2018-06-08T10:57:18Z</time>
      </trkpt>
      <trkpt lat="44.24224" lon="6.2178">
        <ele>1869</ele>
        <time>2018-06-08T10:57:22Z</time>
      </trkpt>
      <trkpt lat="44.24226" lon="6.21778">
        <ele>1868</ele>
        <time>2018-06-08T10:57:26Z</time>
      </trkpt>
      <trkpt lat="44.24226" lon="6.21776">
        <ele>1868</ele>
        <time>2018-06-08T10:57:29Z</time>
      </trkpt>
      <trkpt lat="44.24227" lon="6.21775">
        <ele>1867</ele>
        <time>2018-06-08T10:57:31Z</time>
      </trkpt>
      <trkpt lat="44.24229" lon="6.21774">
        <ele>1867</ele>
        <time>2018-06-08T10:57:33Z</time>
      </trkpt>
      <trkpt lat="44.2423" lon="6.21774">
        <ele>1866</ele>
        <time>2018-06-08T10:57:36Z</time>
      </trkpt>
      <trkpt lat="44.24231" lon="6.21772">
        <ele>1865</ele>
        <time>2018-06-08T10:57:39Z</time>
      </trkpt>
      <trkpt lat="44.24232" lon="6.21772">
        <ele>1864</ele>
        <time>2018-06-08T10:57:43Z</time>
      </trkpt>
      <trkpt lat="44.24234" lon="6.2177">
        <ele>1863</ele>
        <time>2018-06-08T10:57:47Z</time>
      </trkpt>
      <trkpt lat="44.24235" lon="6.21769">
        <ele>1863</ele>
        <time>2018-06-08T10:57:49Z</time>
      </trkpt>
      <trkpt lat="44.24237" lon="6.21769">
        <ele>1862</ele>
        <time>2018-06-08T10:57:52Z</time>
      </trkpt>
      <trkpt lat="44.24238" lon="6.21768">
        <ele>1861</ele>
        <time>2018-06-08T10:57:54Z</time>
      </trkpt>
      <trkpt lat="44.24239" lon="6.21767">
        <ele>1861</ele>
        <time>2018-06-08T10:57:57Z</time>
      </trkpt>
      <trkpt lat="44.2424" lon="6.21766">
        <ele>1860</ele>
        <time>2018-06-08T10:57:59Z</time>
      </trkpt>
      <trkpt lat="44.24242" lon="6.21765">
        <ele>1860</ele>
        <time>2018-06-08T10:58:00Z</time>
      </trkpt>
      <trkpt lat="44.24243" lon="6.21764">
        <ele>1859</ele>
        <time>2018-06-08T10:58:02Z</time>
      </trkpt>
      <trkpt lat="44.24244" lon="6.21763">
        <ele>1859</ele>
        <time>2018-06-08T10:58:04Z</time>
      </trkpt>
      <trkpt lat="44.24245" lon="6.21761">
        <ele>1858</ele>
        <time>2018-06-08T10:58:07Z</time>
      </trkpt>
      <trkpt lat="44.24247" lon="6.2176">
        <ele>1858</ele>
        <time>2018-06-08T10:58:12Z</time>
      </trkpt>
      <trkpt lat="44.24248" lon="6.21759">
        <ele>1857</ele>
        <time>2018-06-08T10:58:16Z</time>
      </trkpt>
      <trkpt lat="44.2425" lon="6.21759">
        <ele>1856</ele>
        <time>2018-06-08T10:58:20Z</time>
      </trkpt>
      <trkpt lat="44.24251" lon="6.21759">
        <ele>1855</ele>
        <time>2018-06-08T10:58:23Z</time>
      </trkpt>
      <trkpt lat="44.24252" lon="6.21757">
        <ele>1854</ele>
        <time>2018-06-08T10:58:28Z</time>
      </trkpt>
      <trkpt lat="44.24253" lon="6.21756">
        <ele>1853</ele>
        <time>2018-06-08T10:58:33Z</time>
      </trkpt>
      <trkpt lat="44.24255" lon="6.21754">
        <ele>1852</ele>
        <time>2018-06-08T10:58:37Z</time>
      </trkpt>
      <trkpt lat="44.24257" lon="6.21755">
        <ele>1849</ele>
        <time>2018-06-08T10:58:43Z</time>
      </trkpt>
      <trkpt lat="44.24258" lon="6.21755">
        <ele>1849</ele>
        <time>2018-06-08T10:58:45Z</time>
      </trkpt>
      <trkpt lat="44.24259" lon="6.21755">
        <ele>1849</ele>
        <time>2018-06-08T10:58:48Z</time>
      </trkpt>
      <trkpt lat="44.24259" lon="6.21753">
        <ele>1848</ele>
        <time>2018-06-08T10:58:50Z</time>
      </trkpt>
      <trkpt lat="44.24261" lon="6.21752">
        <ele>1848</ele>
        <time>2018-06-08T10:58:53Z</time>
      </trkpt>
      <trkpt lat="44.24262" lon="6.21751">
        <ele>1847</ele>
        <time>2018-06-08T10:58:55Z</time>
      </trkpt>
      <trkpt lat="44.24263" lon="6.2175">
        <ele>1847</ele>
        <time>2018-06-08T10:58:57Z</time>
      </trkpt>
      <trkpt lat="44.24264" lon="6.21749">
        <ele>1846</ele>
        <time>2018-06-08T10:59:00Z</time>
      </trkpt>
      <trkpt lat="44.24266" lon="6.21747">
        <ele>1846</ele>
        <time>2018-06-08T10:59:04Z</time>
      </trkpt>
      <trkpt lat="44.24267" lon="6.21746">
        <ele>1845</ele>
        <time>2018-06-08T10:59:07Z</time>
      </trkpt>
      <trkpt lat="44.24268" lon="6.21745">
        <ele>1844</ele>
        <time>2018-06-08T10:59:12Z</time>
      </trkpt>
      <trkpt lat="44.24269" lon="6.21744">
        <ele>1844</ele>
        <time>2018-06-08T10:59:14Z</time>
      </trkpt>
      <trkpt lat="44.24271" lon="6.21743">
        <ele>1843</ele>
        <time>2018-06-08T10:59:16Z</time>
      </trkpt>
      <trkpt lat="44.24272" lon="6.21742">
        <ele>1843</ele>
        <time>2018-06-08T10:59:18Z</time>
      </trkpt>
      <trkpt lat="44.24273" lon="6.21741">
        <ele>1841</ele>
        <time>2018-06-08T10:59:21Z</time>
      </trkpt>
      <trkpt lat="44.24274" lon="6.2174">
        <ele>1841</ele>
        <time>2018-06-08T10:59:24Z</time>
      </trkpt>
      <trkpt lat="44.24275" lon="6.21738">
        <ele>1840</ele>
        <time>2018-06-08T10:59:27Z</time>
      </trkpt>
      <trkpt lat="44.24276" lon="6.21738">
        <ele>1840</ele>
        <time>2018-06-08T10:59:31Z</time>
      </trkpt>
      <trkpt lat="44.24277" lon="6.21737">
        <ele>1839</ele>
        <time>2018-06-08T10:59:34Z</time>
      </trkpt>
      <trkpt lat="44.24278" lon="6.21735">
        <ele>1837</ele>
        <time>2018-06-08T10:59:37Z</time>
      </trkpt>
      <trkpt lat="44.24279" lon="6.21734">
        <ele>1837</ele>
        <time>2018-06-08T10:59:42Z</time>
      </trkpt>
      <trkpt lat="44.2428" lon="6.21733">
        <ele>1837</ele>
        <time>2018-06-08T10:59:44Z</time>
      </trkpt>
      <trkpt lat="44.24281" lon="6.21732">
        <ele>1836</ele>
        <time>2018-06-08T10:59:47Z</time>
      </trkpt>
      <trkpt lat="44.24282" lon="6.21731">
        <ele>1836</ele>
        <time>2018-06-08T10:59:51Z</time>
      </trkpt>
      <trkpt lat="44.24284" lon="6.21731">
        <ele>1835</ele>
        <time>2018-06-08T10:59:54Z</time>
      </trkpt>
      <trkpt lat="44.24285" lon="6.2173">
        <ele>1835</ele>
        <time>2018-06-08T10:59:56Z</time>
      </trkpt>
      <trkpt lat="44.24286" lon="6.2173">
        <ele>1834</ele>
        <time>2018-06-08T11:00:06Z</time>
      </trkpt>
      <trkpt lat="44.24286" lon="6.2173">
        <ele>1834</ele>
        <time>2018-06-08T11:00:16Z</time>
      </trkpt>
      <trkpt lat="44.24287" lon="6.21731">
        <ele>1834</ele>
        <time>2018-06-08T11:00:27Z</time>
      </trkpt>
      <trkpt lat="44.24287" lon="6.21731">
        <ele>1834</ele>
        <time>2018-06-08T11:00:49Z</time>
      </trkpt>
      <trkpt lat="44.24287" lon="6.21731">
        <ele>1834</ele>
        <time>2018-06-08T11:00:54Z</time>
      </trkpt>
      <trkpt lat="44.24289" lon="6.21731">
        <ele>1834</ele>
        <time>2018-06-08T11:00:55Z</time>
      </trkpt>
      <trkpt lat="44.24287" lon="6.21731">
        <ele>1834</ele>
        <time>2018-06-08T11:01:03Z</time>
      </trkpt>
      <trkpt lat="44.24288" lon="6.21731">
        <ele>1834</ele>
        <time>2018-06-08T11:01:28Z</time>
      </trkpt>
      <trkpt lat="44.2429" lon="6.2173">
        <ele>1834</ele>
        <time>2018-06-08T11:01:35Z</time>
      </trkpt>
      <trkpt lat="44.24291" lon="6.2173">
        <ele>1834</ele>
        <time>2018-06-08T11:01:38Z</time>
      </trkpt>
      <trkpt lat="44.24292" lon="6.21729">
        <ele>1833</ele>
        <time>2018-06-08T11:01:41Z</time>
      </trkpt>
      <trkpt lat="44.24293" lon="6.21728">
        <ele>1832</ele>
        <time>2018-06-08T11:01:44Z</time>
      </trkpt>
      <trkpt lat="44.24294" lon="6.21726">
        <ele>1832</ele>
        <time>2018-06-08T11:01:48Z</time>
      </trkpt>
      <trkpt lat="44.24295" lon="6.21725">
        <ele>1831</ele>
        <time>2018-06-08T11:01:51Z</time>
      </trkpt>
      <trkpt lat="44.24296" lon="6.21724">
        <ele>1830</ele>
        <time>2018-06-08T11:01:55Z</time>
      </trkpt>
      <trkpt lat="44.24298" lon="6.21723">
        <ele>1829</ele>
        <time>2018-06-08T11:01:58Z</time>
      </trkpt>
      <trkpt lat="44.24299" lon="6.21722">
        <ele>1828</ele>
        <time>2018-06-08T11:02:00Z</time>
      </trkpt>
      <trkpt lat="44.243" lon="6.2172">
        <ele>1827</ele>
        <time>2018-06-08T11:02:03Z</time>
      </trkpt>
      <trkpt lat="44.24302" lon="6.21719">
        <ele>1827</ele>
        <time>2018-06-08T11:02:05Z</time>
      </trkpt>
      <trkpt lat="44.24303" lon="6.21717">
        <ele>1826</ele>
        <time>2018-06-08T11:02:08Z</time>
      </trkpt>
      <trkpt lat="44.24304" lon="6.21716">
        <ele>1825</ele>
        <time>2018-06-08T11:02:11Z</time>
      </trkpt>
      <trkpt lat="44.24306" lon="6.21715">
        <ele>1825</ele>
        <time>2018-06-08T11:02:14Z</time>
      </trkpt>
      <trkpt lat="44.24307" lon="6.21713">
        <ele>1825</ele>
        <time>2018-06-08T11:02:16Z</time>
      </trkpt>
      <trkpt lat="44.24309" lon="6.21711">
        <ele>1824</ele>
        <time>2018-06-08T11:02:18Z</time>
      </trkpt>
      <trkpt lat="44.2431" lon="6.2171">
        <ele>1824</ele>
        <time>2018-06-08T11:02:20Z</time>
      </trkpt>
      <trkpt lat="44.24311" lon="6.21709">
        <ele>1824</ele>
        <time>2018-06-08T11:02:23Z</time>
      </trkpt>
      <trkpt lat="44.24313" lon="6.21707">
        <ele>1823</ele>
        <time>2018-06-08T11:02:25Z</time>
      </trkpt>
      <trkpt lat="44.24314" lon="6.21707">
        <ele>1823</ele>
        <time>2018-06-08T11:02:27Z</time>
      </trkpt>
      <trkpt lat="44.24315" lon="6.21706">
        <ele>1822</ele>
        <time>2018-06-08T11:02:31Z</time>
      </trkpt>
      <trkpt lat="44.24316" lon="6.21705">
        <ele>1821</ele>
        <time>2018-06-08T11:02:40Z</time>
      </trkpt>
      <trkpt lat="44.24318" lon="6.21706">
        <ele>1821</ele>
        <time>2018-06-08T11:02:43Z</time>
      </trkpt>
      <trkpt lat="44.24319" lon="6.21705">
        <ele>1821</ele>
        <time>2018-06-08T11:02:45Z</time>
      </trkpt>
      <trkpt lat="44.24321" lon="6.21705">
        <ele>1820</ele>
        <time>2018-06-08T11:02:47Z</time>
      </trkpt>
      <trkpt lat="44.24322" lon="6.21704">
        <ele>1819</ele>
        <time>2018-06-08T11:02:49Z</time>
      </trkpt>
      <trkpt lat="44.24323" lon="6.21704">
        <ele>1819</ele>
        <time>2018-06-08T11:02:51Z</time>
      </trkpt>
      <trkpt lat="44.24325" lon="6.21702">
        <ele>1818</ele>
        <time>2018-06-08T11:02:54Z</time>
      </trkpt>
      <trkpt lat="44.24326" lon="6.21701">
        <ele>1818</ele>
        <time>2018-06-08T11:02:56Z</time>
      </trkpt>
      <trkpt lat="44.24327" lon="6.217">
        <ele>1817</ele>
        <time>2018-06-08T11:02:59Z</time>
      </trkpt>
      <trkpt lat="44.24328" lon="6.217">
        <ele>1816</ele>
        <time>2018-06-08T11:03:02Z</time>
      </trkpt>
      <trkpt lat="44.24329" lon="6.21699">
        <ele>1815</ele>
        <time>2018-06-08T11:03:04Z</time>
      </trkpt>
      <trkpt lat="44.24331" lon="6.21698">
        <ele>1814</ele>
        <time>2018-06-08T11:03:07Z</time>
      </trkpt>
      <trkpt lat="44.24332" lon="6.21699">
        <ele>1813</ele>
        <time>2018-06-08T11:03:11Z</time>
      </trkpt>
      <trkpt lat="44.24333" lon="6.21697">
        <ele>1812</ele>
        <time>2018-06-08T11:03:16Z</time>
      </trkpt>
      <trkpt lat="44.24334" lon="6.21696">
        <ele>1811</ele>
        <time>2018-06-08T11:03:19Z</time>
      </trkpt>
      <trkpt lat="44.24335" lon="6.21694">
        <ele>1811</ele>
        <time>2018-06-08T11:03:23Z</time>
      </trkpt>
      <trkpt lat="44.24336" lon="6.21692">
        <ele>1811</ele>
        <time>2018-06-08T11:03:26Z</time>
      </trkpt>
      <trkpt lat="44.24337" lon="6.21691">
        <ele>1811</ele>
        <time>2018-06-08T11:03:28Z</time>
      </trkpt>
      <trkpt lat="44.24337" lon="6.21691">
        <ele>1811</ele>
        <time>2018-06-08T11:03:30Z</time>
      </trkpt>
      <trkpt lat="44.24338" lon="6.21689">
        <ele>1811</ele>
        <time>2018-06-08T11:03:31Z</time>
      </trkpt>
      <trkpt lat="44.24339" lon="6.21688">
        <ele>1810</ele>
        <time>2018-06-08T11:03:34Z</time>
      </trkpt>
      <trkpt lat="44.24339" lon="6.21688">
        <ele>1810</ele>
        <time>2018-06-08T11:03:42Z</time>
      </trkpt>
      <trkpt lat="44.24341" lon="6.21686">
        <ele>1810</ele>
        <time>2018-06-08T11:03:44Z</time>
      </trkpt>
      <trkpt lat="44.24342" lon="6.21685">
        <ele>1809</ele>
        <time>2018-06-08T11:03:47Z</time>
      </trkpt>
      <trkpt lat="44.24344" lon="6.21684">
        <ele>1808</ele>
        <time>2018-06-08T11:03:50Z</time>
      </trkpt>
      <trkpt lat="44.24345" lon="6.21683">
        <ele>1807</ele>
        <time>2018-06-08T11:03:54Z</time>
      </trkpt>
      <trkpt lat="44.24346" lon="6.21681">
        <ele>1807</ele>
        <time>2018-06-08T11:03:57Z</time>
      </trkpt>
      <trkpt lat="44.24346" lon="6.21681">
        <ele>1806</ele>
        <time>2018-06-08T11:03:59Z</time>
      </trkpt>
      <trkpt lat="44.24348" lon="6.2168">
        <ele>1806</ele>
        <time>2018-06-08T11:04:00Z</time>
      </trkpt>
      <trkpt lat="44.24349" lon="6.21678">
        <ele>1805</ele>
        <time>2018-06-08T11:04:04Z</time>
      </trkpt>
      <trkpt lat="44.2435" lon="6.21678">
        <ele>1804</ele>
        <time>2018-06-08T11:04:07Z</time>
      </trkpt>
      <trkpt lat="44.24351" lon="6.21677">
        <ele>1803</ele>
        <time>2018-06-08T11:04:10Z</time>
      </trkpt>
      <trkpt lat="44.24353" lon="6.21675">
        <ele>1802</ele>
        <time>2018-06-08T11:04:13Z</time>
      </trkpt>
      <trkpt lat="44.24354" lon="6.21673">
        <ele>1801</ele>
        <time>2018-06-08T11:04:15Z</time>
      </trkpt>
      <trkpt lat="44.24355" lon="6.21671">
        <ele>1801</ele>
        <time>2018-06-08T11:04:18Z</time>
      </trkpt>
      <trkpt lat="44.24356" lon="6.21669">
        <ele>1800</ele>
        <time>2018-06-08T11:04:20Z</time>
      </trkpt>
      <trkpt lat="44.24357" lon="6.21668">
        <ele>1799</ele>
        <time>2018-06-08T11:04:22Z</time>
      </trkpt>
      <trkpt lat="44.24359" lon="6.21666">
        <ele>1799</ele>
        <time>2018-06-08T11:04:24Z</time>
      </trkpt>
      <trkpt lat="44.24361" lon="6.21665">
        <ele>1798</ele>
        <time>2018-06-08T11:04:26Z</time>
      </trkpt>
      <trkpt lat="44.24361" lon="6.21663">
        <ele>1797</ele>
        <time>2018-06-08T11:04:28Z</time>
      </trkpt>
      <trkpt lat="44.24362" lon="6.21661">
        <ele>1796</ele>
        <time>2018-06-08T11:04:31Z</time>
      </trkpt>
      <trkpt lat="44.24363" lon="6.2166">
        <ele>1795</ele>
        <time>2018-06-08T11:04:33Z</time>
      </trkpt>
      <trkpt lat="44.24364" lon="6.21659">
        <ele>1795</ele>
        <time>2018-06-08T11:04:35Z</time>
      </trkpt>
      <trkpt lat="44.24365" lon="6.21657">
        <ele>1794</ele>
        <time>2018-06-08T11:04:37Z</time>
      </trkpt>
      <trkpt lat="44.24366" lon="6.21655">
        <ele>1794</ele>
        <time>2018-06-08T11:04:39Z</time>
      </trkpt>
      <trkpt lat="44.24366" lon="6.21653">
        <ele>1794</ele>
        <time>2018-06-08T11:04:41Z</time>
      </trkpt>
      <trkpt lat="44.24367" lon="6.21651">
        <ele>1793</ele>
        <time>2018-06-08T11:04:43Z</time>
      </trkpt>
      <trkpt lat="44.24369" lon="6.21649">
        <ele>1793</ele>
        <time>2018-06-08T11:04:45Z</time>
      </trkpt>
      <trkpt lat="44.24371" lon="6.21647">
        <ele>1793</ele>
        <time>2018-06-08T11:04:47Z</time>
      </trkpt>
      <trkpt lat="44.24372" lon="6.21646">
        <ele>1792</ele>
        <time>2018-06-08T11:04:49Z</time>
      </trkpt>
      <trkpt lat="44.24372" lon="6.21644">
        <ele>1792</ele>
        <time>2018-06-08T11:04:51Z</time>
      </trkpt>
      <trkpt lat="44.24373" lon="6.21642">
        <ele>1792</ele>
        <time>2018-06-08T11:04:53Z</time>
      </trkpt>
      <trkpt lat="44.24374" lon="6.21641">
        <ele>1791</ele>
        <time>2018-06-08T11:04:55Z</time>
      </trkpt>
      <trkpt lat="44.24376" lon="6.2164">
        <ele>1791</ele>
        <time>2018-06-08T11:04:57Z</time>
      </trkpt>
      <trkpt lat="44.24377" lon="6.2164">
        <ele>1791</ele>
        <time>2018-06-08T11:04:59Z</time>
      </trkpt>
      <trkpt lat="44.24379" lon="6.21639">
        <ele>1790</ele>
        <time>2018-06-08T11:05:01Z</time>
      </trkpt>
      <trkpt lat="44.2438" lon="6.21637">
        <ele>1790</ele>
        <time>2018-06-08T11:05:03Z</time>
      </trkpt>
      <trkpt lat="44.24382" lon="6.21636">
        <ele>1789</ele>
        <time>2018-06-08T11:05:05Z</time>
      </trkpt>
      <trkpt lat="44.24383" lon="6.21634">
        <ele>1789</ele>
        <time>2018-06-08T11:05:07Z</time>
      </trkpt>
      <trkpt lat="44.24385" lon="6.21632">
        <ele>1789</ele>
        <time>2018-06-08T11:05:09Z</time>
      </trkpt>
      <trkpt lat="44.24386" lon="6.21631">
        <ele>1788</ele>
        <time>2018-06-08T11:05:11Z</time>
      </trkpt>
      <trkpt lat="44.24387" lon="6.2163">
        <ele>1788</ele>
        <time>2018-06-08T11:05:13Z</time>
      </trkpt>
      <trkpt lat="44.24389" lon="6.21628">
        <ele>1787</ele>
        <time>2018-06-08T11:05:15Z</time>
      </trkpt>
      <trkpt lat="44.24391" lon="6.21626">
        <ele>1787</ele>
        <time>2018-06-08T11:05:17Z</time>
      </trkpt>
      <trkpt lat="44.24392" lon="6.21624">
        <ele>1786</ele>
        <time>2018-06-08T11:05:19Z</time>
      </trkpt>
      <trkpt lat="44.24393" lon="6.21621">
        <ele>1786</ele>
        <time>2018-06-08T11:05:21Z</time>
      </trkpt>
      <trkpt lat="44.24395" lon="6.21618">
        <ele>1785</ele>
        <time>2018-06-08T11:05:23Z</time>
      </trkpt>
      <trkpt lat="44.24396" lon="6.21616">
        <ele>1785</ele>
        <time>2018-06-08T11:05:25Z</time>
      </trkpt>
      <trkpt lat="44.24398" lon="6.21614">
        <ele>1785</ele>
        <time>2018-06-08T11:05:27Z</time>
      </trkpt>
      <trkpt lat="44.24399" lon="6.21613">
        <ele>1784</ele>
        <time>2018-06-08T11:05:30Z</time>
      </trkpt>
      <trkpt lat="44.244" lon="6.21611">
        <ele>1783</ele>
        <time>2018-06-08T11:05:32Z</time>
      </trkpt>
      <trkpt lat="44.24402" lon="6.21609">
        <ele>1783</ele>
        <time>2018-06-08T11:05:34Z</time>
      </trkpt>
      <trkpt lat="44.24404" lon="6.21606">
        <ele>1782</ele>
        <time>2018-06-08T11:05:36Z</time>
      </trkpt>
      <trkpt lat="44.24405" lon="6.21604">
        <ele>1782</ele>
        <time>2018-06-08T11:05:38Z</time>
      </trkpt>
      <trkpt lat="44.24406" lon="6.21602">
        <ele>1782</ele>
        <time>2018-06-08T11:05:40Z</time>
      </trkpt>
      <trkpt lat="44.24408" lon="6.216">
        <ele>1781</ele>
        <time>2018-06-08T11:05:42Z</time>
      </trkpt>
      <trkpt lat="44.24409" lon="6.21598">
        <ele>1781</ele>
        <time>2018-06-08T11:05:44Z</time>
      </trkpt>
      <trkpt lat="44.2441" lon="6.21596">
        <ele>1780</ele>
        <time>2018-06-08T11:05:46Z</time>
      </trkpt>
      <trkpt lat="44.24411" lon="6.21594">
        <ele>1779</ele>
        <time>2018-06-08T11:05:49Z</time>
      </trkpt>
      <trkpt lat="44.24412" lon="6.21592">
        <ele>1779</ele>
        <time>2018-06-08T11:05:51Z</time>
      </trkpt>
      <trkpt lat="44.24413" lon="6.2159">
        <ele>1778</ele>
        <time>2018-06-08T11:05:53Z</time>
      </trkpt>
      <trkpt lat="44.24414" lon="6.21588">
        <ele>1778</ele>
        <time>2018-06-08T11:05:55Z</time>
      </trkpt>
      <trkpt lat="44.24415" lon="6.21587">
        <ele>1777</ele>
        <time>2018-06-08T11:05:57Z</time>
      </trkpt>
      <trkpt lat="44.24417" lon="6.21585">
        <ele>1776</ele>
        <time>2018-06-08T11:06:00Z</time>
      </trkpt>
      <trkpt lat="44.24417" lon="6.21583">
        <ele>1776</ele>
        <time>2018-06-08T11:06:02Z</time>
      </trkpt>
      <trkpt lat="44.24419" lon="6.21582">
        <ele>1775</ele>
        <time>2018-06-08T11:06:05Z</time>
      </trkpt>
      <trkpt lat="44.2442" lon="6.2158">
        <ele>1774</ele>
        <time>2018-06-08T11:06:07Z</time>
      </trkpt>
      <trkpt lat="44.24421" lon="6.21579">
        <ele>1773</ele>
        <time>2018-06-08T11:06:10Z</time>
      </trkpt>
      <trkpt lat="44.24422" lon="6.21578">
        <ele>1772</ele>
        <time>2018-06-08T11:06:13Z</time>
      </trkpt>
      <trkpt lat="44.24424" lon="6.21576">
        <ele>1772</ele>
        <time>2018-06-08T11:06:16Z</time>
      </trkpt>
      <trkpt lat="44.24425" lon="6.21574">
        <ele>1771</ele>
        <time>2018-06-08T11:06:20Z</time>
      </trkpt>
      <trkpt lat="44.24426" lon="6.21572">
        <ele>1770</ele>
        <time>2018-06-08T11:06:22Z</time>
      </trkpt>
      <trkpt lat="44.24427" lon="6.21571">
        <ele>1770</ele>
        <time>2018-06-08T11:06:24Z</time>
      </trkpt>
      <trkpt lat="44.24427" lon="6.21569">
        <ele>1769</ele>
        <time>2018-06-08T11:06:27Z</time>
      </trkpt>
      <trkpt lat="44.24429" lon="6.21567">
        <ele>1769</ele>
        <time>2018-06-08T11:06:30Z</time>
      </trkpt>
      <trkpt lat="44.24429" lon="6.21565">
        <ele>1768</ele>
        <time>2018-06-08T11:06:33Z</time>
      </trkpt>
      <trkpt lat="44.24431" lon="6.21565">
        <ele>1767</ele>
        <time>2018-06-08T11:06:35Z</time>
      </trkpt>
      <trkpt lat="44.24432" lon="6.21565">
        <ele>1767</ele>
        <time>2018-06-08T11:06:37Z</time>
      </trkpt>
      <trkpt lat="44.24434" lon="6.21565">
        <ele>1766</ele>
        <time>2018-06-08T11:06:39Z</time>
      </trkpt>
      <trkpt lat="44.24435" lon="6.21563">
        <ele>1765</ele>
        <time>2018-06-08T11:06:42Z</time>
      </trkpt>
      <trkpt lat="44.24435" lon="6.21561">
        <ele>1765</ele>
        <time>2018-06-08T11:06:44Z</time>
      </trkpt>
      <trkpt lat="44.24436" lon="6.2156">
        <ele>1764</ele>
        <time>2018-06-08T11:06:46Z</time>
      </trkpt>
      <trkpt lat="44.24438" lon="6.21558">
        <ele>1764</ele>
        <time>2018-06-08T11:06:48Z</time>
      </trkpt>
      <trkpt lat="44.24439" lon="6.21556">
        <ele>1764</ele>
        <time>2018-06-08T11:06:50Z</time>
      </trkpt>
      <trkpt lat="44.24441" lon="6.21555">
        <ele>1763</ele>
        <time>2018-06-08T11:06:52Z</time>
      </trkpt>
      <trkpt lat="44.24442" lon="6.21553">
        <ele>1763</ele>
        <time>2018-06-08T11:06:59Z</time>
      </trkpt>
      <trkpt lat="44.24442" lon="6.21553">
        <ele>1763</ele>
        <time>2018-06-08T11:07:27Z</time>
      </trkpt>
      <trkpt lat="44.24443" lon="6.21555">
        <ele>1763</ele>
        <time>2018-06-08T11:07:38Z</time>
      </trkpt>
      <trkpt lat="44.24443" lon="6.21553">
        <ele>1763</ele>
        <time>2018-06-08T11:07:51Z</time>
      </trkpt>
      <trkpt lat="44.24443" lon="6.21552">
        <ele>1763</ele>
        <time>2018-06-08T11:07:54Z</time>
      </trkpt>
      <trkpt lat="44.24442" lon="6.21552">
        <ele>1763</ele>
        <time>2018-06-08T11:07:58Z</time>
      </trkpt>
      <trkpt lat="44.2444" lon="6.21553">
        <ele>1762</ele>
        <time>2018-06-08T11:08:02Z</time>
      </trkpt>
      <trkpt lat="44.24439" lon="6.21553">
        <ele>1761</ele>
        <time>2018-06-08T11:08:04Z</time>
      </trkpt>
      <trkpt lat="44.24438" lon="6.21554">
        <ele>1761</ele>
        <time>2018-06-08T11:08:06Z</time>
      </trkpt>
      <trkpt lat="44.24436" lon="6.21555">
        <ele>1761</ele>
        <time>2018-06-08T11:08:08Z</time>
      </trkpt>
      <trkpt lat="44.24434" lon="6.21555">
        <ele>1761</ele>
        <time>2018-06-08T11:08:10Z</time>
      </trkpt>
      <trkpt lat="44.24433" lon="6.21555">
        <ele>1761</ele>
        <time>2018-06-08T11:08:12Z</time>
      </trkpt>
      <trkpt lat="44.24431" lon="6.21556">
        <ele>1760</ele>
        <time>2018-06-08T11:08:14Z</time>
      </trkpt>
      <trkpt lat="44.24429" lon="6.21557">
        <ele>1760</ele>
        <time>2018-06-08T11:08:16Z</time>
      </trkpt>
      <trkpt lat="44.24428" lon="6.21558">
        <ele>1760</ele>
        <time>2018-06-08T11:08:18Z</time>
      </trkpt>
      <trkpt lat="44.24427" lon="6.21559">
        <ele>1760</ele>
        <time>2018-06-08T11:08:20Z</time>
      </trkpt>
      <trkpt lat="44.24425" lon="6.2156">
        <ele>1759</ele>
        <time>2018-06-08T11:08:22Z</time>
      </trkpt>
      <trkpt lat="44.24424" lon="6.2156">
        <ele>1759</ele>
        <time>2018-06-08T11:08:24Z</time>
      </trkpt>
      <trkpt lat="44.24422" lon="6.2156">
        <ele>1758</ele>
        <time>2018-06-08T11:08:26Z</time>
      </trkpt>
      <trkpt lat="44.24421" lon="6.21559">
        <ele>1758</ele>
        <time>2018-06-08T11:08:28Z</time>
      </trkpt>
      <trkpt lat="44.24419" lon="6.21559">
        <ele>1758</ele>
        <time>2018-06-08T11:08:30Z</time>
      </trkpt>
      <trkpt lat="44.24418" lon="6.21559">
        <ele>1758</ele>
        <time>2018-06-08T11:08:32Z</time>
      </trkpt>
      <trkpt lat="44.24417" lon="6.21558">
        <ele>1758</ele>
        <time>2018-06-08T11:08:34Z</time>
      </trkpt>
      <trkpt lat="44.24416" lon="6.21558">
        <ele>1758</ele>
        <time>2018-06-08T11:08:37Z</time>
      </trkpt>
      <trkpt lat="44.24414" lon="6.21557">
        <ele>1758</ele>
        <time>2018-06-08T11:08:40Z</time>
      </trkpt>
      <trkpt lat="44.24413" lon="6.21557">
        <ele>1757</ele>
        <time>2018-06-08T11:08:46Z</time>
      </trkpt>
      <trkpt lat="44.24411" lon="6.21557">
        <ele>1757</ele>
        <time>2018-06-08T11:08:48Z</time>
      </trkpt>
      <trkpt lat="44.2441" lon="6.21557">
        <ele>1757</ele>
        <time>2018-06-08T11:08:50Z</time>
      </trkpt>
      <trkpt lat="44.24408" lon="6.21557">
        <ele>1756</ele>
        <time>2018-06-08T11:08:52Z</time>
      </trkpt>
      <trkpt lat="44.24407" lon="6.21557">
        <ele>1756</ele>
        <time>2018-06-08T11:08:54Z</time>
      </trkpt>
      <trkpt lat="44.24406" lon="6.21556">
        <ele>1756</ele>
        <time>2018-06-08T11:08:57Z</time>
      </trkpt>
      <trkpt lat="44.24405" lon="6.21555">
        <ele>1755</ele>
        <time>2018-06-08T11:09:00Z</time>
      </trkpt>
      <trkpt lat="44.24403" lon="6.21554">
        <ele>1753</ele>
        <time>2018-06-08T11:09:03Z</time>
      </trkpt>
      <trkpt lat="44.24402" lon="6.21553">
        <ele>1753</ele>
        <time>2018-06-08T11:09:06Z</time>
      </trkpt>
      <trkpt lat="44.244" lon="6.21554">
        <ele>1752</ele>
        <time>2018-06-08T11:09:08Z</time>
      </trkpt>
      <trkpt lat="44.24399" lon="6.21553">
        <ele>1751</ele>
        <time>2018-06-08T11:09:11Z</time>
      </trkpt>
      <trkpt lat="44.24397" lon="6.21551">
        <ele>1751</ele>
        <time>2018-06-08T11:09:13Z</time>
      </trkpt>
      <trkpt lat="44.24396" lon="6.21551">
        <ele>1751</ele>
        <time>2018-06-08T11:09:14Z</time>
      </trkpt>
      <trkpt lat="44.24395" lon="6.21552">
        <ele>1751</ele>
        <time>2018-06-08T11:09:16Z</time>
      </trkpt>
      <trkpt lat="44.24392" lon="6.21553">
        <ele>1751</ele>
        <time>2018-06-08T11:09:18Z</time>
      </trkpt>
      <trkpt lat="44.24391" lon="6.21554">
        <ele>1750</ele>
        <time>2018-06-08T11:09:20Z</time>
      </trkpt>
      <trkpt lat="44.2439" lon="6.21555">
        <ele>1750</ele>
        <time>2018-06-08T11:09:22Z</time>
      </trkpt>
      <trkpt lat="44.24388" lon="6.21555">
        <ele>1750</ele>
        <time>2018-06-08T11:09:24Z</time>
      </trkpt>
      <trkpt lat="44.24386" lon="6.21557">
        <ele>1750</ele>
        <time>2018-06-08T11:09:26Z</time>
      </trkpt>
      <trkpt lat="44.24384" lon="6.21558">
        <ele>1750</ele>
        <time>2018-06-08T11:09:28Z</time>
      </trkpt>
      <trkpt lat="44.24382" lon="6.21558">
        <ele>1750</ele>
        <time>2018-06-08T11:09:30Z</time>
      </trkpt>
      <trkpt lat="44.2438" lon="6.21559">
        <ele>1750</ele>
        <time>2018-06-08T11:09:32Z</time>
      </trkpt>
      <trkpt lat="44.24379" lon="6.2156">
        <ele>1749</ele>
        <time>2018-06-08T11:09:34Z</time>
      </trkpt>
      <trkpt lat="44.24377" lon="6.21561">
        <ele>1749</ele>
        <time>2018-06-08T11:09:36Z</time>
      </trkpt>
      <trkpt lat="44.24375" lon="6.21561">
        <ele>1749</ele>
        <time>2018-06-08T11:09:38Z</time>
      </trkpt>
      <trkpt lat="44.24374" lon="6.21562">
        <ele>1749</ele>
        <time>2018-06-08T11:09:39Z</time>
      </trkpt>
      <trkpt lat="44.24372" lon="6.21563">
        <ele>1749</ele>
        <time>2018-06-08T11:09:41Z</time>
      </trkpt>
      <trkpt lat="44.24371" lon="6.21563">
        <ele>1749</ele>
        <time>2018-06-08T11:09:42Z</time>
      </trkpt>
      <trkpt lat="44.24369" lon="6.21564">
        <ele>1749</ele>
        <time>2018-06-08T11:09:44Z</time>
      </trkpt>
      <trkpt lat="44.24367" lon="6.21564">
        <ele>1749</ele>
        <time>2018-06-08T11:09:46Z</time>
      </trkpt>
      <trkpt lat="44.24364" lon="6.21564">
        <ele>1749</ele>
        <time>2018-06-08T11:09:47Z</time>
      </trkpt>
      <trkpt lat="44.24363" lon="6.21564">
        <ele>1749</ele>
        <time>2018-06-08T11:09:49Z</time>
      </trkpt>
      <trkpt lat="44.24362" lon="6.21563">
        <ele>1749</ele>
        <time>2018-06-08T11:09:50Z</time>
      </trkpt>
      <trkpt lat="44.2436" lon="6.21563">
        <ele>1749</ele>
        <time>2018-06-08T11:09:52Z</time>
      </trkpt>
      <trkpt lat="44.24358" lon="6.21563">
        <ele>1749</ele>
        <time>2018-06-08T11:09:54Z</time>
      </trkpt>
      <trkpt lat="44.24357" lon="6.21564">
        <ele>1749</ele>
        <time>2018-06-08T11:09:56Z</time>
      </trkpt>
      <trkpt lat="44.24356" lon="6.21565">
        <ele>1749</ele>
        <time>2018-06-08T11:09:58Z</time>
      </trkpt>
      <trkpt lat="44.24354" lon="6.21566">
        <ele>1748</ele>
        <time>2018-06-08T11:10:02Z</time>
      </trkpt>
      <trkpt lat="44.24353" lon="6.21566">
        <ele>1747</ele>
        <time>2018-06-08T11:10:04Z</time>
      </trkpt>
      <trkpt lat="44.24351" lon="6.21565">
        <ele>1746</ele>
        <time>2018-06-08T11:10:06Z</time>
      </trkpt>
      <trkpt lat="44.24349" lon="6.21565">
        <ele>1746</ele>
        <time>2018-06-08T11:10:08Z</time>
      </trkpt>
      <trkpt lat="44.24348" lon="6.21564">
        <ele>1746</ele>
        <time>2018-06-08T11:10:10Z</time>
      </trkpt>
      <trkpt lat="44.24346" lon="6.21563">
        <ele>1746</ele>
        <time>2018-06-08T11:10:12Z</time>
      </trkpt>
      <trkpt lat="44.24344" lon="6.21563">
        <ele>1746</ele>
        <time>2018-06-08T11:10:14Z</time>
      </trkpt>
      <trkpt lat="44.24343" lon="6.21564">
        <ele>1746</ele>
        <time>2018-06-08T11:10:16Z</time>
      </trkpt>
      <trkpt lat="44.24341" lon="6.21564">
        <ele>1746</ele>
        <time>2018-06-08T11:10:18Z</time>
      </trkpt>
      <trkpt lat="44.2434" lon="6.21564">
        <ele>1746</ele>
        <time>2018-06-08T11:10:20Z</time>
      </trkpt>
      <trkpt lat="44.24338" lon="6.21564">
        <ele>1746</ele>
        <time>2018-06-08T11:10:22Z</time>
      </trkpt>
      <trkpt lat="44.24337" lon="6.21563">
        <ele>1746</ele>
        <time>2018-06-08T11:10:23Z</time>
      </trkpt>
      <trkpt lat="44.24336" lon="6.21563">
        <ele>1746</ele>
        <time>2018-06-08T11:10:24Z</time>
      </trkpt>
      <trkpt lat="44.24334" lon="6.21563">
        <ele>1746</ele>
        <time>2018-06-08T11:10:26Z</time>
      </trkpt>
      <trkpt lat="44.24332" lon="6.21563">
        <ele>1746</ele>
        <time>2018-06-08T11:10:28Z</time>
      </trkpt>
      <trkpt lat="44.2433" lon="6.21562">
        <ele>1746</ele>
        <time>2018-06-08T11:10:31Z</time>
      </trkpt>
      <trkpt lat="44.24328" lon="6.21561">
        <ele>1746</ele>
        <time>2018-06-08T11:10:32Z</time>
      </trkpt>
      <trkpt lat="44.24327" lon="6.21559">
        <ele>1746</ele>
        <time>2018-06-08T11:10:34Z</time>
      </trkpt>
      <trkpt lat="44.24325" lon="6.21559">
        <ele>1747</ele>
        <time>2018-06-08T11:10:36Z</time>
      </trkpt>
      <trkpt lat="44.24323" lon="6.21558">
        <ele>1748</ele>
        <time>2018-06-08T11:10:39Z</time>
      </trkpt>
      <trkpt lat="44.24321" lon="6.21558">
        <ele>1748</ele>
        <time>2018-06-08T11:10:41Z</time>
      </trkpt>
      <trkpt lat="44.2432" lon="6.21559">
        <ele>1748</ele>
        <time>2018-06-08T11:10:43Z</time>
      </trkpt>
      <trkpt lat="44.24319" lon="6.2156">
        <ele>1748</ele>
        <time>2018-06-08T11:10:46Z</time>
      </trkpt>
      <trkpt lat="44.24317" lon="6.2156">
        <ele>1748</ele>
        <time>2018-06-08T11:10:48Z</time>
      </trkpt>
      <trkpt lat="44.24316" lon="6.2156">
        <ele>1748</ele>
        <time>2018-06-08T11:10:51Z</time>
      </trkpt>
      <trkpt lat="44.24314" lon="6.2156">
        <ele>1748</ele>
        <time>2018-06-08T11:10:53Z</time>
      </trkpt>
      <trkpt lat="44.24312" lon="6.21559">
        <ele>1748</ele>
        <time>2018-06-08T11:10:55Z</time>
      </trkpt>
      <trkpt lat="44.24311" lon="6.21559">
        <ele>1748</ele>
        <time>2018-06-08T11:10:57Z</time>
      </trkpt>
      <trkpt lat="44.2431" lon="6.21559">
        <ele>1748</ele>
        <time>2018-06-08T11:10:59Z</time>
      </trkpt>
      <trkpt lat="44.24308" lon="6.2156">
        <ele>1747</ele>
        <time>2018-06-08T11:11:01Z</time>
      </trkpt>
      <trkpt lat="44.24307" lon="6.2156">
        <ele>1747</ele>
        <time>2018-06-08T11:11:03Z</time>
      </trkpt>
      <trkpt lat="44.24305" lon="6.21561">
        <ele>1746</ele>
        <time>2018-06-08T11:11:05Z</time>
      </trkpt>
      <trkpt lat="44.24303" lon="6.21561">
        <ele>1746</ele>
        <time>2018-06-08T11:11:07Z</time>
      </trkpt>
      <trkpt lat="44.24301" lon="6.21561">
        <ele>1745</ele>
        <time>2018-06-08T11:11:09Z</time>
      </trkpt>
      <trkpt lat="44.24299" lon="6.21562">
        <ele>1744</ele>
        <time>2018-06-08T11:11:11Z</time>
      </trkpt>
      <trkpt lat="44.24297" lon="6.21561">
        <ele>1744</ele>
        <time>2018-06-08T11:11:13Z</time>
      </trkpt>
      <trkpt lat="44.24296" lon="6.21561">
        <ele>1743</ele>
        <time>2018-06-08T11:11:15Z</time>
      </trkpt>
      <trkpt lat="44.24294" lon="6.21561">
        <ele>1742</ele>
        <time>2018-06-08T11:11:17Z</time>
      </trkpt>
      <trkpt lat="44.24292" lon="6.2156">
        <ele>1742</ele>
        <time>2018-06-08T11:11:19Z</time>
      </trkpt>
      <trkpt lat="44.24291" lon="6.21558">
        <ele>1742</ele>
        <time>2018-06-08T11:11:21Z</time>
      </trkpt>
      <trkpt lat="44.24289" lon="6.21557">
        <ele>1741</ele>
        <time>2018-06-08T11:11:23Z</time>
      </trkpt>
      <trkpt lat="44.24288" lon="6.21555">
        <ele>1741</ele>
        <time>2018-06-08T11:11:25Z</time>
      </trkpt>
      <trkpt lat="44.24286" lon="6.21554">
        <ele>1741</ele>
        <time>2018-06-08T11:11:27Z</time>
      </trkpt>
      <trkpt lat="44.24284" lon="6.21553">
        <ele>1741</ele>
        <time>2018-06-08T11:11:29Z</time>
      </trkpt>
      <trkpt lat="44.24283" lon="6.21551">
        <ele>1741</ele>
        <time>2018-06-08T11:11:31Z</time>
      </trkpt>
      <trkpt lat="44.24281" lon="6.2155">
        <ele>1741</ele>
        <time>2018-06-08T11:11:33Z</time>
      </trkpt>
      <trkpt lat="44.24279" lon="6.2155">
        <ele>1741</ele>
        <time>2018-06-08T11:11:35Z</time>
      </trkpt>
      <trkpt lat="44.24277" lon="6.21549">
        <ele>1740</ele>
        <time>2018-06-08T11:11:37Z</time>
      </trkpt>
      <trkpt lat="44.24276" lon="6.21547">
        <ele>1740</ele>
        <time>2018-06-08T11:11:39Z</time>
      </trkpt>
      <trkpt lat="44.24274" lon="6.21546">
        <ele>1740</ele>
        <time>2018-06-08T11:11:41Z</time>
      </trkpt>
      <trkpt lat="44.24273" lon="6.21546">
        <ele>1740</ele>
        <time>2018-06-08T11:11:42Z</time>
      </trkpt>
      <trkpt lat="44.24271" lon="6.21546">
        <ele>1740</ele>
        <time>2018-06-08T11:11:43Z</time>
      </trkpt>
      <trkpt lat="44.2427" lon="6.21546">
        <ele>1740</ele>
        <time>2018-06-08T11:11:44Z</time>
      </trkpt>
      <trkpt lat="44.24268" lon="6.21546">
        <ele>1740</ele>
        <time>2018-06-08T11:11:46Z</time>
      </trkpt>
      <trkpt lat="44.24267" lon="6.21546">
        <ele>1740</ele>
        <time>2018-06-08T11:11:47Z</time>
      </trkpt>
      <trkpt lat="44.24265" lon="6.21545">
        <ele>1740</ele>
        <time>2018-06-08T11:11:48Z</time>
      </trkpt>
      <trkpt lat="44.24263" lon="6.21545">
        <ele>1740</ele>
        <time>2018-06-08T11:11:49Z</time>
      </trkpt>
      <trkpt lat="44.24262" lon="6.21545">
        <ele>1741</ele>
        <time>2018-06-08T11:11:51Z</time>
      </trkpt>
      <trkpt lat="44.2426" lon="6.21544">
        <ele>1741</ele>
        <time>2018-06-08T11:11:53Z</time>
      </trkpt>
      <trkpt lat="44.24259" lon="6.21543">
        <ele>1741</ele>
        <time>2018-06-08T11:11:54Z</time>
      </trkpt>
      <trkpt lat="44.24258" lon="6.21542">
        <ele>1741</ele>
        <time>2018-06-08T11:11:56Z</time>
      </trkpt>
      <trkpt lat="44.24256" lon="6.21541">
        <ele>1741</ele>
        <time>2018-06-08T11:11:59Z</time>
      </trkpt>
      <trkpt lat="44.24254" lon="6.21539">
        <ele>1741</ele>
        <time>2018-06-08T11:12:11Z</time>
      </trkpt>
      <trkpt lat="44.24253" lon="6.21539">
        <ele>1741</ele>
        <time>2018-06-08T11:12:12Z</time>
      </trkpt>
      <trkpt lat="44.24252" lon="6.21539">
        <ele>1741</ele>
        <time>2018-06-08T11:12:13Z</time>
      </trkpt>
      <trkpt lat="44.24251" lon="6.21538">
        <ele>1741</ele>
        <time>2018-06-08T11:12:14Z</time>
      </trkpt>
      <trkpt lat="44.24249" lon="6.21538">
        <ele>1741</ele>
        <time>2018-06-08T11:12:16Z</time>
      </trkpt>
      <trkpt lat="44.24247" lon="6.21536">
        <ele>1741</ele>
        <time>2018-06-08T11:12:18Z</time>
      </trkpt>
      <trkpt lat="44.24246" lon="6.21536">
        <ele>1741</ele>
        <time>2018-06-08T11:12:20Z</time>
      </trkpt>
      <trkpt lat="44.24245" lon="6.21536">
        <ele>1741</ele>
        <time>2018-06-08T11:12:21Z</time>
      </trkpt>
      <trkpt lat="44.24243" lon="6.21536">
        <ele>1741</ele>
        <time>2018-06-08T11:12:22Z</time>
      </trkpt>
      <trkpt lat="44.24241" lon="6.21536">
        <ele>1741</ele>
        <time>2018-06-08T11:12:24Z</time>
      </trkpt>
      <trkpt lat="44.2424" lon="6.21535">
        <ele>1741</ele>
        <time>2018-06-08T11:12:26Z</time>
      </trkpt>
      <trkpt lat="44.24238" lon="6.21535">
        <ele>1741</ele>
        <time>2018-06-08T11:12:28Z</time>
      </trkpt>
      <trkpt lat="44.24237" lon="6.21535">
        <ele>1741</ele>
        <time>2018-06-08T11:12:30Z</time>
      </trkpt>
      <trkpt lat="44.24235" lon="6.21535">
        <ele>1740</ele>
        <time>2018-06-08T11:12:32Z</time>
      </trkpt>
      <trkpt lat="44.24234" lon="6.21536">
        <ele>1739</ele>
        <time>2018-06-08T11:12:33Z</time>
      </trkpt>
      <trkpt lat="44.24231" lon="6.21536">
        <ele>1739</ele>
        <time>2018-06-08T11:12:35Z</time>
      </trkpt>
      <trkpt lat="44.24229" lon="6.21536">
        <ele>1738</ele>
        <time>2018-06-08T11:12:37Z</time>
      </trkpt>
      <trkpt lat="44.24228" lon="6.21536">
        <ele>1738</ele>
        <time>2018-06-08T11:12:38Z</time>
      </trkpt>
      <trkpt lat="44.24226" lon="6.21536">
        <ele>1738</ele>
        <time>2018-06-08T11:12:40Z</time>
      </trkpt>
      <trkpt lat="44.24224" lon="6.21535">
        <ele>1738</ele>
        <time>2018-06-08T11:12:42Z</time>
      </trkpt>
      <trkpt lat="44.24223" lon="6.21534">
        <ele>1737</ele>
        <time>2018-06-08T11:12:46Z</time>
      </trkpt>
      <trkpt lat="44.24221" lon="6.21534">
        <ele>1737</ele>
        <time>2018-06-08T11:12:47Z</time>
      </trkpt>
      <trkpt lat="44.24219" lon="6.21534">
        <ele>1736</ele>
        <time>2018-06-08T11:12:49Z</time>
      </trkpt>
      <trkpt lat="44.24218" lon="6.21535">
        <ele>1736</ele>
        <time>2018-06-08T11:12:50Z</time>
      </trkpt>
      <trkpt lat="44.24217" lon="6.21535">
        <ele>1736</ele>
        <time>2018-06-08T11:12:51Z</time>
      </trkpt>
      <trkpt lat="44.24215" lon="6.21535">
        <ele>1736</ele>
        <time>2018-06-08T11:12:52Z</time>
      </trkpt>
      <trkpt lat="44.24214" lon="6.21535">
        <ele>1736</ele>
        <time>2018-06-08T11:12:53Z</time>
      </trkpt>
      <trkpt lat="44.24213" lon="6.21534">
        <ele>1736</ele>
        <time>2018-06-08T11:12:54Z</time>
      </trkpt>
      <trkpt lat="44.24211" lon="6.21534">
        <ele>1736</ele>
        <time>2018-06-08T11:12:55Z</time>
      </trkpt>
      <trkpt lat="44.2421" lon="6.21533">
        <ele>1736</ele>
        <time>2018-06-08T11:12:57Z</time>
      </trkpt>
      <trkpt lat="44.24208" lon="6.21533">
        <ele>1736</ele>
        <time>2018-06-08T11:12:58Z</time>
      </trkpt>
      <trkpt lat="44.24207" lon="6.21533">
        <ele>1736</ele>
        <time>2018-06-08T11:13:00Z</time>
      </trkpt>
      <trkpt lat="44.24205" lon="6.21532">
        <ele>1736</ele>
        <time>2018-06-08T11:13:01Z</time>
      </trkpt>
      <trkpt lat="44.24204" lon="6.21532">
        <ele>1736</ele>
        <time>2018-06-08T11:13:04Z</time>
      </trkpt>
      <trkpt lat="44.24202" lon="6.21531">
        <ele>1736</ele>
        <time>2018-06-08T11:13:06Z</time>
      </trkpt>
      <trkpt lat="44.242" lon="6.21532">
        <ele>1736</ele>
        <time>2018-06-08T11:13:09Z</time>
      </trkpt>
      <trkpt lat="44.24199" lon="6.21532">
        <ele>1736</ele>
        <time>2018-06-08T11:13:10Z</time>
      </trkpt>
      <trkpt lat="44.24198" lon="6.21532">
        <ele>1736</ele>
        <time>2018-06-08T11:13:11Z</time>
      </trkpt>
      <trkpt lat="44.24197" lon="6.21532">
        <ele>1736</ele>
        <time>2018-06-08T11:13:12Z</time>
      </trkpt>
      <trkpt lat="44.24195" lon="6.21531">
        <ele>1736</ele>
        <time>2018-06-08T11:13:14Z</time>
      </trkpt>
      <trkpt lat="44.24194" lon="6.21531">
        <ele>1736</ele>
        <time>2018-06-08T11:13:16Z</time>
      </trkpt>
      <trkpt lat="44.24192" lon="6.21531">
        <ele>1736</ele>
        <time>2018-06-08T11:13:18Z</time>
      </trkpt>
      <trkpt lat="44.24191" lon="6.2153">
        <ele>1736</ele>
        <time>2018-06-08T11:13:20Z</time>
      </trkpt>
      <trkpt lat="44.2419" lon="6.21529">
        <ele>1736</ele>
        <time>2018-06-08T11:13:22Z</time>
      </trkpt>
      <trkpt lat="44.24189" lon="6.21527">
        <ele>1736</ele>
        <time>2018-06-08T11:13:25Z</time>
      </trkpt>
      <trkpt lat="44.24188" lon="6.21525">
        <ele>1736</ele>
        <time>2018-06-08T11:13:27Z</time>
      </trkpt>
      <trkpt lat="44.24188" lon="6.21523">
        <ele>1736</ele>
        <time>2018-06-08T11:13:28Z</time>
      </trkpt>
      <trkpt lat="44.24186" lon="6.21522">
        <ele>1736</ele>
        <time>2018-06-08T11:13:31Z</time>
      </trkpt>
      <trkpt lat="44.24184" lon="6.21522">
        <ele>1736</ele>
        <time>2018-06-08T11:13:33Z</time>
      </trkpt>
      <trkpt lat="44.24182" lon="6.2152">
        <ele>1736</ele>
        <time>2018-06-08T11:13:35Z</time>
      </trkpt>
      <trkpt lat="44.2418" lon="6.2152">
        <ele>1736</ele>
        <time>2018-06-08T11:13:37Z</time>
      </trkpt>
      <trkpt lat="44.24179" lon="6.2152">
        <ele>1736</ele>
        <time>2018-06-08T11:13:38Z</time>
      </trkpt>
      <trkpt lat="44.24178" lon="6.2152">
        <ele>1736</ele>
        <time>2018-06-08T11:13:40Z</time>
      </trkpt>
      <trkpt lat="44.24176" lon="6.21521">
        <ele>1736</ele>
        <time>2018-06-08T11:13:42Z</time>
      </trkpt>
      <trkpt lat="44.24174" lon="6.21522">
        <ele>1736</ele>
        <time>2018-06-08T11:13:44Z</time>
      </trkpt>
      <trkpt lat="44.24172" lon="6.21522">
        <ele>1736</ele>
        <time>2018-06-08T11:13:45Z</time>
      </trkpt>
      <trkpt lat="44.24171" lon="6.21521">
        <ele>1736</ele>
        <time>2018-06-08T11:13:46Z</time>
      </trkpt>
      <trkpt lat="44.2417" lon="6.21519">
        <ele>1736</ele>
        <time>2018-06-08T11:13:49Z</time>
      </trkpt>
      <trkpt lat="44.24168" lon="6.21517">
        <ele>1736</ele>
        <time>2018-06-08T11:13:51Z</time>
      </trkpt>
      <trkpt lat="44.24166" lon="6.21518">
        <ele>1729</ele>
        <time>2018-06-08T11:13:58Z</time>
      </trkpt>
      <trkpt lat="44.24165" lon="6.21518">
        <ele>1729</ele>
        <time>2018-06-08T11:13:59Z</time>
      </trkpt>
      <trkpt lat="44.24163" lon="6.21519">
        <ele>1728</ele>
        <time>2018-06-08T11:14:01Z</time>
      </trkpt>
      <trkpt lat="44.24162" lon="6.21518">
        <ele>1728</ele>
        <time>2018-06-08T11:14:03Z</time>
      </trkpt>
      <trkpt lat="44.2416" lon="6.21517">
        <ele>1727</ele>
        <time>2018-06-08T11:14:05Z</time>
      </trkpt>
      <trkpt lat="44.2416" lon="6.21515">
        <ele>1727</ele>
        <time>2018-06-08T11:14:08Z</time>
      </trkpt>
      <trkpt lat="44.24159" lon="6.21514">
        <ele>1726</ele>
        <time>2018-06-08T11:14:10Z</time>
      </trkpt>
      <trkpt lat="44.24158" lon="6.21513">
        <ele>1726</ele>
        <time>2018-06-08T11:14:12Z</time>
      </trkpt>
      <trkpt lat="44.24156" lon="6.21513">
        <ele>1726</ele>
        <time>2018-06-08T11:14:15Z</time>
      </trkpt>
      <trkpt lat="44.24155" lon="6.21512">
        <ele>1726</ele>
        <time>2018-06-08T11:14:17Z</time>
      </trkpt>
      <trkpt lat="44.24152" lon="6.21512">
        <ele>1726</ele>
        <time>2018-06-08T11:14:19Z</time>
      </trkpt>
      <trkpt lat="44.24151" lon="6.21512">
        <ele>1726</ele>
        <time>2018-06-08T11:14:20Z</time>
      </trkpt>
      <trkpt lat="44.24149" lon="6.21513">
        <ele>1726</ele>
        <time>2018-06-08T11:14:22Z</time>
      </trkpt>
      <trkpt lat="44.24147" lon="6.21513">
        <ele>1726</ele>
        <time>2018-06-08T11:14:23Z</time>
      </trkpt>
      <trkpt lat="44.24146" lon="6.21513">
        <ele>1726</ele>
        <time>2018-06-08T11:14:25Z</time>
      </trkpt>
      <trkpt lat="44.24144" lon="6.21512">
        <ele>1726</ele>
        <time>2018-06-08T11:14:28Z</time>
      </trkpt>
      <trkpt lat="44.24143" lon="6.21512">
        <ele>1726</ele>
        <time>2018-06-08T11:14:29Z</time>
      </trkpt>
      <trkpt lat="44.24141" lon="6.2151">
        <ele>1726</ele>
        <time>2018-06-08T11:14:31Z</time>
      </trkpt>
      <trkpt lat="44.2414" lon="6.21508">
        <ele>1726</ele>
        <time>2018-06-08T11:14:33Z</time>
      </trkpt>
      <trkpt lat="44.24139" lon="6.21507">
        <ele>1725</ele>
        <time>2018-06-08T11:14:35Z</time>
      </trkpt>
      <trkpt lat="44.24137" lon="6.21505">
        <ele>1725</ele>
        <time>2018-06-08T11:14:37Z</time>
      </trkpt>
      <trkpt lat="44.24136" lon="6.21504">
        <ele>1725</ele>
        <time>2018-06-08T11:14:39Z</time>
      </trkpt>
      <trkpt lat="44.24135" lon="6.21503">
        <ele>1724</ele>
        <time>2018-06-08T11:14:41Z</time>
      </trkpt>
      <trkpt lat="44.24133" lon="6.21501">
        <ele>1724</ele>
        <time>2018-06-08T11:14:43Z</time>
      </trkpt>
      <trkpt lat="44.24132" lon="6.21499">
        <ele>1723</ele>
        <time>2018-06-08T11:14:45Z</time>
      </trkpt>
      <trkpt lat="44.24131" lon="6.21498">
        <ele>1723</ele>
        <time>2018-06-08T11:14:47Z</time>
      </trkpt>
      <trkpt lat="44.24129" lon="6.21497">
        <ele>1723</ele>
        <time>2018-06-08T11:14:48Z</time>
      </trkpt>
      <trkpt lat="44.24128" lon="6.21497">
        <ele>1723</ele>
        <time>2018-06-08T11:14:49Z</time>
      </trkpt>
      <trkpt lat="44.24127" lon="6.21497">
        <ele>1723</ele>
        <time>2018-06-08T11:14:50Z</time>
      </trkpt>
      <trkpt lat="44.24126" lon="6.21496">
        <ele>1723</ele>
        <time>2018-06-08T11:14:51Z</time>
      </trkpt>
      <trkpt lat="44.24124" lon="6.21495">
        <ele>1723</ele>
        <time>2018-06-08T11:14:53Z</time>
      </trkpt>
      <trkpt lat="44.24123" lon="6.21493">
        <ele>1723</ele>
        <time>2018-06-08T11:14:55Z</time>
      </trkpt>
      <trkpt lat="44.24121" lon="6.21491">
        <ele>1723</ele>
        <time>2018-06-08T11:14:58Z</time>
      </trkpt>
      <trkpt lat="44.24121" lon="6.21488">
        <ele>1722</ele>
        <time>2018-06-08T11:15:00Z</time>
      </trkpt>
      <trkpt lat="44.24121" lon="6.21487">
        <ele>1722</ele>
        <time>2018-06-08T11:15:01Z</time>
      </trkpt>
      <trkpt lat="44.2412" lon="6.21485">
        <ele>1721</ele>
        <time>2018-06-08T11:15:03Z</time>
      </trkpt>
      <trkpt lat="44.24119" lon="6.21483">
        <ele>1721</ele>
        <time>2018-06-08T11:15:04Z</time>
      </trkpt>
      <trkpt lat="44.24118" lon="6.2148">
        <ele>1720</ele>
        <time>2018-06-08T11:15:06Z</time>
      </trkpt>
      <trkpt lat="44.24117" lon="6.21479">
        <ele>1719</ele>
        <time>2018-06-08T11:15:07Z</time>
      </trkpt>
      <trkpt lat="44.24116" lon="6.21477">
        <ele>1719</ele>
        <time>2018-06-08T11:15:08Z</time>
      </trkpt>
      <trkpt lat="44.24115" lon="6.21476">
        <ele>1719</ele>
        <time>2018-06-08T11:15:09Z</time>
      </trkpt>
      <trkpt lat="44.24114" lon="6.21473">
        <ele>1719</ele>
        <time>2018-06-08T11:15:11Z</time>
      </trkpt>
      <trkpt lat="44.24113" lon="6.21472">
        <ele>1719</ele>
        <time>2018-06-08T11:15:12Z</time>
      </trkpt>
      <trkpt lat="44.24112" lon="6.21469">
        <ele>1719</ele>
        <time>2018-06-08T11:15:14Z</time>
      </trkpt>
      <trkpt lat="44.24111" lon="6.21467">
        <ele>1719</ele>
        <time>2018-06-08T11:15:16Z</time>
      </trkpt>
      <trkpt lat="44.24111" lon="6.21466">
        <ele>1718</ele>
        <time>2018-06-08T11:15:21Z</time>
      </trkpt>
      <trkpt lat="44.2411" lon="6.21464">
        <ele>1718</ele>
        <time>2018-06-08T11:15:25Z</time>
      </trkpt>
      <trkpt lat="44.24109" lon="6.21463">
        <ele>1717</ele>
        <time>2018-06-08T11:15:35Z</time>
      </trkpt>
      <trkpt lat="44.2411" lon="6.21463">
        <ele>1717</ele>
        <time>2018-06-08T11:15:41Z</time>
      </trkpt>
      <trkpt lat="44.24109" lon="6.21462">
        <ele>1717</ele>
        <time>2018-06-08T11:15:47Z</time>
      </trkpt>
      <trkpt lat="44.2411" lon="6.21463">
        <ele>1717</ele>
        <time>2018-06-08T11:15:52Z</time>
      </trkpt>
      <trkpt lat="44.24109" lon="6.21463">
        <ele>1717</ele>
        <time>2018-06-08T11:15:54Z</time>
      </trkpt>
      <trkpt lat="44.24108" lon="6.21463">
        <ele>1717</ele>
        <time>2018-06-08T11:16:03Z</time>
      </trkpt>
      <trkpt lat="44.24107" lon="6.21462">
        <ele>1717</ele>
        <time>2018-06-08T11:16:12Z</time>
      </trkpt>
      <trkpt lat="44.24107" lon="6.21461">
        <ele>1717</ele>
        <time>2018-06-08T11:16:44Z</time>
      </trkpt>
      <trkpt lat="44.24106" lon="6.2146">
        <ele>1717</ele>
        <time>2018-06-08T11:16:46Z</time>
      </trkpt>
      <trkpt lat="44.24105" lon="6.2146">
        <ele>1717</ele>
        <time>2018-06-08T11:16:48Z</time>
      </trkpt>
      <trkpt lat="44.24103" lon="6.21459">
        <ele>1717</ele>
        <time>2018-06-08T11:16:50Z</time>
      </trkpt>
      <trkpt lat="44.24102" lon="6.21459">
        <ele>1717</ele>
        <time>2018-06-08T11:16:52Z</time>
      </trkpt>
      <trkpt lat="44.241" lon="6.21459">
        <ele>1717</ele>
        <time>2018-06-08T11:16:54Z</time>
      </trkpt>
      <trkpt lat="44.24099" lon="6.21459">
        <ele>1717</ele>
        <time>2018-06-08T11:16:56Z</time>
      </trkpt>
      <trkpt lat="44.24097" lon="6.21458">
        <ele>1717</ele>
        <time>2018-06-08T11:16:58Z</time>
      </trkpt>
      <trkpt lat="44.24095" lon="6.21458">
        <ele>1717</ele>
        <time>2018-06-08T11:16:59Z</time>
      </trkpt>
      <trkpt lat="44.24094" lon="6.21458">
        <ele>1717</ele>
        <time>2018-06-08T11:17:07Z</time>
      </trkpt>
      <trkpt lat="44.24091" lon="6.2146">
        <ele>1717</ele>
        <time>2018-06-08T11:17:09Z</time>
      </trkpt>
      <trkpt lat="44.2409" lon="6.2146">
        <ele>1717</ele>
        <time>2018-06-08T11:17:10Z</time>
      </trkpt>
      <trkpt lat="44.24089" lon="6.21462">
        <ele>1717</ele>
        <time>2018-06-08T11:17:12Z</time>
      </trkpt>
      <trkpt lat="44.24088" lon="6.21464">
        <ele>1717</ele>
        <time>2018-06-08T11:17:14Z</time>
      </trkpt>
      <trkpt lat="44.24086" lon="6.21465">
        <ele>1717</ele>
        <time>2018-06-08T11:17:16Z</time>
      </trkpt>
      <trkpt lat="44.24084" lon="6.21467">
        <ele>1717</ele>
        <time>2018-06-08T11:17:18Z</time>
      </trkpt>
      <trkpt lat="44.24082" lon="6.21468">
        <ele>1717</ele>
        <time>2018-06-08T11:17:20Z</time>
      </trkpt>
      <trkpt lat="44.24081" lon="6.2147">
        <ele>1717</ele>
        <time>2018-06-08T11:17:22Z</time>
      </trkpt>
      <trkpt lat="44.2408" lon="6.21471">
        <ele>1717</ele>
        <time>2018-06-08T11:17:24Z</time>
      </trkpt>
      <trkpt lat="44.24078" lon="6.21473">
        <ele>1717</ele>
        <time>2018-06-08T11:17:26Z</time>
      </trkpt>
      <trkpt lat="44.24077" lon="6.21474">
        <ele>1717</ele>
        <time>2018-06-08T11:17:27Z</time>
      </trkpt>
      <trkpt lat="44.24075" lon="6.21476">
        <ele>1717</ele>
        <time>2018-06-08T11:17:29Z</time>
      </trkpt>
      <trkpt lat="44.24074" lon="6.21476">
        <ele>1717</ele>
        <time>2018-06-08T11:17:30Z</time>
      </trkpt>
      <trkpt lat="44.24073" lon="6.21476">
        <ele>1717</ele>
        <time>2018-06-08T11:17:31Z</time>
      </trkpt>
      <trkpt lat="44.24071" lon="6.21476">
        <ele>1717</ele>
        <time>2018-06-08T11:17:32Z</time>
      </trkpt>
      <trkpt lat="44.2407" lon="6.21476">
        <ele>1717</ele>
        <time>2018-06-08T11:17:33Z</time>
      </trkpt>
      <trkpt lat="44.24068" lon="6.21475">
        <ele>1717</ele>
        <time>2018-06-08T11:17:34Z</time>
      </trkpt>
      <trkpt lat="44.24067" lon="6.21474">
        <ele>1717</ele>
        <time>2018-06-08T11:17:35Z</time>
      </trkpt>
      <trkpt lat="44.24065" lon="6.21474">
        <ele>1718</ele>
        <time>2018-06-08T11:17:37Z</time>
      </trkpt>
      <trkpt lat="44.24064" lon="6.21473">
        <ele>1718</ele>
        <time>2018-06-08T11:17:38Z</time>
      </trkpt>
      <trkpt lat="44.24063" lon="6.21473">
        <ele>1718</ele>
        <time>2018-06-08T11:17:39Z</time>
      </trkpt>
      <trkpt lat="44.24062" lon="6.21472">
        <ele>1718</ele>
        <time>2018-06-08T11:17:41Z</time>
      </trkpt>
      <trkpt lat="44.2406" lon="6.21472">
        <ele>1718</ele>
        <time>2018-06-08T11:17:43Z</time>
      </trkpt>
      <trkpt lat="44.24059" lon="6.21471">
        <ele>1718</ele>
        <time>2018-06-08T11:17:45Z</time>
      </trkpt>
      <trkpt lat="44.24057" lon="6.21469">
        <ele>1719</ele>
        <time>2018-06-08T11:17:48Z</time>
      </trkpt>
      <trkpt lat="44.24056" lon="6.21468">
        <ele>1719</ele>
        <time>2018-06-08T11:17:50Z</time>
      </trkpt>
      <trkpt lat="44.24055" lon="6.21467">
        <ele>1719</ele>
        <time>2018-06-08T11:17:52Z</time>
      </trkpt>
      <trkpt lat="44.24053" lon="6.21467">
        <ele>1719</ele>
        <time>2018-06-08T11:17:55Z</time>
      </trkpt>
      <trkpt lat="44.24052" lon="6.21467">
        <ele>1719</ele>
        <time>2018-06-08T11:17:57Z</time>
      </trkpt>
      <trkpt lat="44.2405" lon="6.21467">
        <ele>1719</ele>
        <time>2018-06-08T11:18:01Z</time>
      </trkpt>
      <trkpt lat="44.24049" lon="6.21467">
        <ele>1719</ele>
        <time>2018-06-08T11:18:03Z</time>
      </trkpt>
      <trkpt lat="44.24048" lon="6.21468">
        <ele>1719</ele>
        <time>2018-06-08T11:18:05Z</time>
      </trkpt>
      <trkpt lat="44.24046" lon="6.21468">
        <ele>1719</ele>
        <time>2018-06-08T11:18:07Z</time>
      </trkpt>
      <trkpt lat="44.24045" lon="6.21469">
        <ele>1719</ele>
        <time>2018-06-08T11:18:09Z</time>
      </trkpt>
      <trkpt lat="44.24044" lon="6.2147">
        <ele>1719</ele>
        <time>2018-06-08T11:18:11Z</time>
      </trkpt>
      <trkpt lat="44.24042" lon="6.21471">
        <ele>1719</ele>
        <time>2018-06-08T11:18:14Z</time>
      </trkpt>
      <trkpt lat="44.24041" lon="6.21473">
        <ele>1719</ele>
        <time>2018-06-08T11:18:18Z</time>
      </trkpt>
      <trkpt lat="44.2404" lon="6.21472">
        <ele>1719</ele>
        <time>2018-06-08T11:18:21Z</time>
      </trkpt>
      <trkpt lat="44.24038" lon="6.21472">
        <ele>1719</ele>
        <time>2018-06-08T11:18:23Z</time>
      </trkpt>
      <trkpt lat="44.24037" lon="6.21473">
        <ele>1719</ele>
        <time>2018-06-08T11:18:25Z</time>
      </trkpt>
      <trkpt lat="44.24036" lon="6.21474">
        <ele>1719</ele>
        <time>2018-06-08T11:18:27Z</time>
      </trkpt>
      <trkpt lat="44.24035" lon="6.21474">
        <ele>1719</ele>
        <time>2018-06-08T11:18:29Z</time>
      </trkpt>
      <trkpt lat="44.24033" lon="6.21474">
        <ele>1719</ele>
        <time>2018-06-08T11:18:37Z</time>
      </trkpt>
      <trkpt lat="44.24032" lon="6.21475">
        <ele>1719</ele>
        <time>2018-06-08T11:18:42Z</time>
      </trkpt>
      <trkpt lat="44.24031" lon="6.21477">
        <ele>1719</ele>
        <time>2018-06-08T11:18:45Z</time>
      </trkpt>
      <trkpt lat="44.24032" lon="6.21478">
        <ele>1719</ele>
        <time>2018-06-08T11:18:48Z</time>
      </trkpt>
      <trkpt lat="44.24032" lon="6.2148">
        <ele>1719</ele>
        <time>2018-06-08T11:18:52Z</time>
      </trkpt>
      <trkpt lat="44.24033" lon="6.21481">
        <ele>1719</ele>
        <time>2018-06-08T11:18:56Z</time>
      </trkpt>
      <trkpt lat="44.24033" lon="6.21483">
        <ele>1719</ele>
        <time>2018-06-08T11:18:59Z</time>
      </trkpt>
      <trkpt lat="44.24033" lon="6.21485">
        <ele>1719</ele>
        <time>2018-06-08T11:19:02Z</time>
      </trkpt>
      <trkpt lat="44.24033" lon="6.21486">
        <ele>1721</ele>
        <time>2018-06-08T11:19:05Z</time>
      </trkpt>
      <trkpt lat="44.24033" lon="6.21488">
        <ele>1722</ele>
        <time>2018-06-08T11:19:08Z</time>
      </trkpt>
      <trkpt lat="44.24031" lon="6.21489">
        <ele>1722</ele>
        <time>2018-06-08T11:19:10Z</time>
      </trkpt>
      <trkpt lat="44.2403" lon="6.2149">
        <ele>1724</ele>
        <time>2018-06-08T11:19:13Z</time>
      </trkpt>
      <trkpt lat="44.24029" lon="6.21492">
        <ele>1726</ele>
        <time>2018-06-08T11:19:15Z</time>
      </trkpt>
      <trkpt lat="44.24028" lon="6.21493">
        <ele>1727</ele>
        <time>2018-06-08T11:19:18Z</time>
      </trkpt>
      <trkpt lat="44.24027" lon="6.21495">
        <ele>1727</ele>
        <time>2018-06-08T11:19:21Z</time>
      </trkpt>
      <trkpt lat="44.24025" lon="6.21497">
        <ele>1728</ele>
        <time>2018-06-08T11:19:25Z</time>
      </trkpt>
      <trkpt lat="44.24024" lon="6.21498">
        <ele>1729</ele>
        <time>2018-06-08T11:19:29Z</time>
      </trkpt>
      <trkpt lat="44.24025" lon="6.215">
        <ele>1730</ele>
        <time>2018-06-08T11:19:32Z</time>
      </trkpt>
      <trkpt lat="44.24024" lon="6.21501">
        <ele>1730</ele>
        <time>2018-06-08T11:19:35Z</time>
      </trkpt>
      <trkpt lat="44.24024" lon="6.21503">
        <ele>1731</ele>
        <time>2018-06-08T11:19:39Z</time>
      </trkpt>
      <trkpt lat="44.24024" lon="6.21505">
        <ele>1731</ele>
        <time>2018-06-08T11:19:42Z</time>
      </trkpt>
      <trkpt lat="44.24023" lon="6.21506">
        <ele>1731</ele>
        <time>2018-06-08T11:19:47Z</time>
      </trkpt>
      <trkpt lat="44.24023" lon="6.21508">
        <ele>1732</ele>
        <time>2018-06-08T11:19:51Z</time>
      </trkpt>
      <trkpt lat="44.24022" lon="6.2151">
        <ele>1732</ele>
        <time>2018-06-08T11:19:54Z</time>
      </trkpt>
      <trkpt lat="44.24024" lon="6.2151">
        <ele>1732</ele>
        <time>2018-06-08T11:19:57Z</time>
      </trkpt>
      <trkpt lat="44.24025" lon="6.21511">
        <ele>1732</ele>
        <time>2018-06-08T11:19:58Z</time>
      </trkpt>
      <trkpt lat="44.24025" lon="6.21512">
        <ele>1732</ele>
        <time>2018-06-08T11:20:00Z</time>
      </trkpt>
      <trkpt lat="44.24024" lon="6.21514">
        <ele>1732</ele>
        <time>2018-06-08T11:20:03Z</time>
      </trkpt>
      <trkpt lat="44.24024" lon="6.21516">
        <ele>1732</ele>
        <time>2018-06-08T11:20:05Z</time>
      </trkpt>
      <trkpt lat="44.24024" lon="6.21518">
        <ele>1734</ele>
        <time>2018-06-08T11:20:08Z</time>
      </trkpt>
      <trkpt lat="44.24023" lon="6.2152">
        <ele>1735</ele>
        <time>2018-06-08T11:20:11Z</time>
      </trkpt>
      <trkpt lat="44.24023" lon="6.21521">
        <ele>1735</ele>
        <time>2018-06-08T11:20:14Z</time>
      </trkpt>
      <trkpt lat="44.24023" lon="6.21523">
        <ele>1736</ele>
        <time>2018-06-08T11:20:17Z</time>
      </trkpt>
      <trkpt lat="44.24022" lon="6.21525">
        <ele>1736</ele>
        <time>2018-06-08T11:20:20Z</time>
      </trkpt>
      <trkpt lat="44.24021" lon="6.21526">
        <ele>1736</ele>
        <time>2018-06-08T11:20:22Z</time>
      </trkpt>
      <trkpt lat="44.2402" lon="6.21528">
        <ele>1737</ele>
        <time>2018-06-08T11:20:25Z</time>
      </trkpt>
      <trkpt lat="44.24018" lon="6.2153">
        <ele>1738</ele>
        <time>2018-06-08T11:20:28Z</time>
      </trkpt>
      <trkpt lat="44.24018" lon="6.21532">
        <ele>1739</ele>
        <time>2018-06-08T11:20:31Z</time>
      </trkpt>
      <trkpt lat="44.24018" lon="6.21534">
        <ele>1739</ele>
        <time>2018-06-08T11:20:34Z</time>
      </trkpt>
      <trkpt lat="44.24017" lon="6.21535">
        <ele>1740</ele>
        <time>2018-06-08T11:20:37Z</time>
      </trkpt>
      <trkpt lat="44.24017" lon="6.21537">
        <ele>1740</ele>
        <time>2018-06-08T11:20:39Z</time>
      </trkpt>
      <trkpt lat="44.24016" lon="6.21539">
        <ele>1740</ele>
        <time>2018-06-08T11:20:42Z</time>
      </trkpt>
      <trkpt lat="44.24016" lon="6.21541">
        <ele>1741</ele>
        <time>2018-06-08T11:20:45Z</time>
      </trkpt>
      <trkpt lat="44.24016" lon="6.21542">
        <ele>1742</ele>
        <time>2018-06-08T11:20:47Z</time>
      </trkpt>
      <trkpt lat="44.24015" lon="6.21544">
        <ele>1742</ele>
        <time>2018-06-08T11:20:50Z</time>
      </trkpt>
      <trkpt lat="44.24014" lon="6.21545">
        <ele>1742</ele>
        <time>2018-06-08T11:20:53Z</time>
      </trkpt>
      <trkpt lat="44.24014" lon="6.21547">
        <ele>1742</ele>
        <time>2018-06-08T11:20:56Z</time>
      </trkpt>
      <trkpt lat="44.24013" lon="6.21548">
        <ele>1742</ele>
        <time>2018-06-08T11:20:58Z</time>
      </trkpt>
      <trkpt lat="44.24012" lon="6.2155">
        <ele>1743</ele>
        <time>2018-06-08T11:21:01Z</time>
      </trkpt>
      <trkpt lat="44.2401" lon="6.21551">
        <ele>1744</ele>
        <time>2018-06-08T11:21:04Z</time>
      </trkpt>
      <trkpt lat="44.24009" lon="6.21552">
        <ele>1745</ele>
        <time>2018-06-08T11:21:07Z</time>
      </trkpt>
      <trkpt lat="44.24009" lon="6.21554">
        <ele>1745</ele>
        <time>2018-06-08T11:21:10Z</time>
      </trkpt>
      <trkpt lat="44.24009" lon="6.21556">
        <ele>1746</ele>
        <time>2018-06-08T11:21:13Z</time>
      </trkpt>
      <trkpt lat="44.24008" lon="6.21557">
        <ele>1746</ele>
        <time>2018-06-08T11:21:16Z</time>
      </trkpt>
      <trkpt lat="44.24008" lon="6.21559">
        <ele>1746</ele>
        <time>2018-06-08T11:21:18Z</time>
      </trkpt>
      <trkpt lat="44.24007" lon="6.21561">
        <ele>1746</ele>
        <time>2018-06-08T11:21:21Z</time>
      </trkpt>
      <trkpt lat="44.24006" lon="6.21562">
        <ele>1746</ele>
        <time>2018-06-08T11:21:24Z</time>
      </trkpt>
      <trkpt lat="44.24007" lon="6.21564">
        <ele>1746</ele>
        <time>2018-06-08T11:21:27Z</time>
      </trkpt>
      <trkpt lat="44.24006" lon="6.21566">
        <ele>1746</ele>
        <time>2018-06-08T11:21:32Z</time>
      </trkpt>
      <trkpt lat="44.24005" lon="6.21567">
        <ele>1747</ele>
        <time>2018-06-08T11:21:35Z</time>
      </trkpt>
      <trkpt lat="44.24004" lon="6.21569">
        <ele>1748</ele>
        <time>2018-06-08T11:21:38Z</time>
      </trkpt>
      <trkpt lat="44.24003" lon="6.2157">
        <ele>1749</ele>
        <time>2018-06-08T11:21:40Z</time>
      </trkpt>
      <trkpt lat="44.24002" lon="6.21572">
        <ele>1750</ele>
        <time>2018-06-08T11:21:43Z</time>
      </trkpt>
      <trkpt lat="44.24" lon="6.21574">
        <ele>1751</ele>
        <time>2018-06-08T11:21:46Z</time>
      </trkpt>
      <trkpt lat="44.23999" lon="6.21575">
        <ele>1751</ele>
        <time>2018-06-08T11:21:48Z</time>
      </trkpt>
      <trkpt lat="44.23999" lon="6.21578">
        <ele>1751</ele>
        <time>2018-06-08T11:21:51Z</time>
      </trkpt>
      <trkpt lat="44.23998" lon="6.21579">
        <ele>1751</ele>
        <time>2018-06-08T11:21:54Z</time>
      </trkpt>
      <trkpt lat="44.23998" lon="6.21579">
        <ele>1752</ele>
        <time>2018-06-08T11:21:56Z</time>
      </trkpt>
      <trkpt lat="44.23997" lon="6.21581">
        <ele>1752</ele>
        <time>2018-06-08T11:21:57Z</time>
      </trkpt>
      <trkpt lat="44.23996" lon="6.21582">
        <ele>1752</ele>
        <time>2018-06-08T11:22:00Z</time>
      </trkpt>
      <trkpt lat="44.23995" lon="6.21584">
        <ele>1752</ele>
        <time>2018-06-08T11:22:03Z</time>
      </trkpt>
      <trkpt lat="44.23994" lon="6.21585">
        <ele>1752</ele>
        <time>2018-06-08T11:22:06Z</time>
      </trkpt>
      <trkpt lat="44.23993" lon="6.21587">
        <ele>1752</ele>
        <time>2018-06-08T11:22:09Z</time>
      </trkpt>
      <trkpt lat="44.23992" lon="6.21588">
        <ele>1752</ele>
        <time>2018-06-08T11:22:13Z</time>
      </trkpt>
      <trkpt lat="44.23991" lon="6.2159">
        <ele>1752</ele>
        <time>2018-06-08T11:22:15Z</time>
      </trkpt>
      <trkpt lat="44.23989" lon="6.21592">
        <ele>1752</ele>
        <time>2018-06-08T11:22:18Z</time>
      </trkpt>
      <trkpt lat="44.23988" lon="6.21593">
        <ele>1752</ele>
        <time>2018-06-08T11:22:21Z</time>
      </trkpt>
      <trkpt lat="44.23987" lon="6.21595">
        <ele>1752</ele>
        <time>2018-06-08T11:22:27Z</time>
      </trkpt>
      <trkpt lat="44.23986" lon="6.21596">
        <ele>1752</ele>
        <time>2018-06-08T11:22:31Z</time>
      </trkpt>
      <trkpt lat="44.23985" lon="6.21598">
        <ele>1752</ele>
        <time>2018-06-08T11:22:37Z</time>
      </trkpt>
      <trkpt lat="44.23985" lon="6.216">
        <ele>1752</ele>
        <time>2018-06-08T11:22:41Z</time>
      </trkpt>
      <trkpt lat="44.23985" lon="6.216">
        <ele>1752</ele>
        <time>2018-06-08T11:22:44Z</time>
      </trkpt>
      <trkpt lat="44.23984" lon="6.21598">
        <ele>1752</ele>
        <time>2018-06-08T11:22:45Z</time>
      </trkpt>
      <trkpt lat="44.23984" lon="6.21598">
        <ele>1752</ele>
        <time>2018-06-08T11:22:48Z</time>
      </trkpt>
      <trkpt lat="44.23982" lon="6.21599">
        <ele>1752</ele>
        <time>2018-06-08T11:22:49Z</time>
      </trkpt>
      <trkpt lat="44.23981" lon="6.21601">
        <ele>1753</ele>
        <time>2018-06-08T11:22:52Z</time>
      </trkpt>
      <trkpt lat="44.2398" lon="6.21602">
        <ele>1753</ele>
        <time>2018-06-08T11:22:55Z</time>
      </trkpt>
      <trkpt lat="44.23978" lon="6.21603">
        <ele>1753</ele>
        <time>2018-06-08T11:22:58Z</time>
      </trkpt>
      <trkpt lat="44.23977" lon="6.21604">
        <ele>1753</ele>
        <time>2018-06-08T11:23:03Z</time>
      </trkpt>
      <trkpt lat="44.23975" lon="6.21605">
        <ele>1753</ele>
        <time>2018-06-08T11:23:10Z</time>
      </trkpt>
      <trkpt lat="44.23974" lon="6.21607">
        <ele>1753</ele>
        <time>2018-06-08T11:23:12Z</time>
      </trkpt>
      <trkpt lat="44.23974" lon="6.21608">
        <ele>1753</ele>
        <time>2018-06-08T11:23:15Z</time>
      </trkpt>
      <trkpt lat="44.23973" lon="6.2161">
        <ele>1753</ele>
        <time>2018-06-08T11:23:18Z</time>
      </trkpt>
      <trkpt lat="44.23972" lon="6.21612">
        <ele>1753</ele>
        <time>2018-06-08T11:23:26Z</time>
      </trkpt>
      <trkpt lat="44.23971" lon="6.21613">
        <ele>1753</ele>
        <time>2018-06-08T11:23:32Z</time>
      </trkpt>
      <trkpt lat="44.2397" lon="6.21613">
        <ele>1753</ele>
        <time>2018-06-08T11:23:40Z</time>
      </trkpt>
      <trkpt lat="44.23968" lon="6.21613">
        <ele>1752</ele>
        <time>2018-06-08T11:23:58Z</time>
      </trkpt>
      <trkpt lat="44.23967" lon="6.21614">
        <ele>1752</ele>
        <time>2018-06-08T11:24:01Z</time>
      </trkpt>
      <trkpt lat="44.23966" lon="6.21614">
        <ele>1751</ele>
        <time>2018-06-08T11:24:07Z</time>
      </trkpt>
      <trkpt lat="44.23964" lon="6.21613">
        <ele>1750</ele>
        <time>2018-06-08T11:24:16Z</time>
      </trkpt>
      <trkpt lat="44.23963" lon="6.21614">
        <ele>1750</ele>
        <time>2018-06-08T11:24:23Z</time>
      </trkpt>
      <trkpt lat="44.23962" lon="6.21615">
        <ele>1749</ele>
        <time>2018-06-08T11:24:28Z</time>
      </trkpt>
      <trkpt lat="44.2396" lon="6.21615">
        <ele>1749</ele>
        <time>2018-06-08T11:24:31Z</time>
      </trkpt>
      <trkpt lat="44.23959" lon="6.21616">
        <ele>1749</ele>
        <time>2018-06-08T11:24:33Z</time>
      </trkpt>
      <trkpt lat="44.23958" lon="6.21617">
        <ele>1749</ele>
        <time>2018-06-08T11:24:35Z</time>
      </trkpt>
      <trkpt lat="44.23957" lon="6.21618">
        <ele>1749</ele>
        <time>2018-06-08T11:24:37Z</time>
      </trkpt>
      <trkpt lat="44.23956" lon="6.2162">
        <ele>1749</ele>
        <time>2018-06-08T11:24:39Z</time>
      </trkpt>
      <trkpt lat="44.23954" lon="6.21621">
        <ele>1749</ele>
        <time>2018-06-08T11:24:42Z</time>
      </trkpt>
      <trkpt lat="44.23953" lon="6.2162">
        <ele>1749</ele>
        <time>2018-06-08T11:24:45Z</time>
      </trkpt>
      <trkpt lat="44.23952" lon="6.21621">
        <ele>1748</ele>
        <time>2018-06-08T11:24:48Z</time>
      </trkpt>
      <trkpt lat="44.23951" lon="6.21621">
        <ele>1748</ele>
        <time>2018-06-08T11:24:53Z</time>
      </trkpt>
      <trkpt lat="44.23949" lon="6.2162">
        <ele>1747</ele>
        <time>2018-06-08T11:25:00Z</time>
      </trkpt>
      <trkpt lat="44.23948" lon="6.21621">
        <ele>1745</ele>
        <time>2018-06-08T11:25:04Z</time>
      </trkpt>
      <trkpt lat="44.23947" lon="6.2162">
        <ele>1745</ele>
        <time>2018-06-08T11:25:07Z</time>
      </trkpt>
      <trkpt lat="44.23945" lon="6.21617">
        <ele>1743</ele>
        <time>2018-06-08T11:25:09Z</time>
      </trkpt>
      <trkpt lat="44.23945" lon="6.21615">
        <ele>1743</ele>
        <time>2018-06-08T11:25:10Z</time>
      </trkpt>
      <trkpt lat="44.23943" lon="6.21612">
        <ele>1741</ele>
        <time>2018-06-08T11:25:12Z</time>
      </trkpt>
      <trkpt lat="44.23943" lon="6.2161">
        <ele>1740</ele>
        <time>2018-06-08T11:25:13Z</time>
      </trkpt>
      <trkpt lat="44.23941" lon="6.21608">
        <ele>1738</ele>
        <time>2018-06-08T11:25:15Z</time>
      </trkpt>
      <trkpt lat="44.2394" lon="6.21607">
        <ele>1736</ele>
        <time>2018-06-08T11:25:17Z</time>
      </trkpt>
      <trkpt lat="44.23938" lon="6.21606">
        <ele>1735</ele>
        <time>2018-06-08T11:25:19Z</time>
      </trkpt>
      <trkpt lat="44.23937" lon="6.21605">
        <ele>1734</ele>
        <time>2018-06-08T11:25:22Z</time>
      </trkpt>
      <trkpt lat="44.23935" lon="6.21605">
        <ele>1733</ele>
        <time>2018-06-08T11:25:24Z</time>
      </trkpt>
      <trkpt lat="44.23934" lon="6.21604">
        <ele>1733</ele>
        <time>2018-06-08T11:25:26Z</time>
      </trkpt>
      <trkpt lat="44.23933" lon="6.21602">
        <ele>1732</ele>
        <time>2018-06-08T11:25:40Z</time>
      </trkpt>
      <trkpt lat="44.23933" lon="6.21602">
        <ele>1732</ele>
        <time>2018-06-08T11:25:51Z</time>
      </trkpt>
      <trkpt lat="44.23931" lon="6.21603">
        <ele>1732</ele>
        <time>2018-06-08T11:25:55Z</time>
      </trkpt>
      <trkpt lat="44.2393" lon="6.21602">
        <ele>1732</ele>
        <time>2018-06-08T11:26:00Z</time>
      </trkpt>
      <trkpt lat="44.2393" lon="6.21601">
        <ele>1732</ele>
        <time>2018-06-08T11:26:11Z</time>
      </trkpt>
      <trkpt lat="44.2393" lon="6.21602">
        <ele>1732</ele>
        <time>2018-06-08T11:26:41Z</time>
      </trkpt>
      <trkpt lat="44.23931" lon="6.21602">
        <ele>1732</ele>
        <time>2018-06-08T11:26:46Z</time>
      </trkpt>
      <trkpt lat="44.2393" lon="6.21602">
        <ele>1732</ele>
        <time>2018-06-08T11:26:56Z</time>
      </trkpt>
      <trkpt lat="44.23931" lon="6.21603">
        <ele>1732</ele>
        <time>2018-06-08T11:27:02Z</time>
      </trkpt>
      <trkpt lat="44.2393" lon="6.21604">
        <ele>1732</ele>
        <time>2018-06-08T11:27:08Z</time>
      </trkpt>
      <trkpt lat="44.23928" lon="6.21605">
        <ele>1733</ele>
        <time>2018-06-08T11:27:11Z</time>
      </trkpt>
      <trkpt lat="44.2393" lon="6.21605">
        <ele>1737</ele>
        <time>2018-06-08T11:27:17Z</time>
      </trkpt>
      <trkpt lat="44.23928" lon="6.21603">
        <ele>1737</ele>
        <time>2018-06-08T11:27:22Z</time>
      </trkpt>
      <trkpt lat="44.23928" lon="6.21602">
        <ele>1737</ele>
        <time>2018-06-08T11:27:33Z</time>
      </trkpt>
      <trkpt lat="44.2393" lon="6.21601">
        <ele>1734</ele>
        <time>2018-06-08T11:27:49Z</time>
      </trkpt>
      <trkpt lat="44.2393" lon="6.21602">
        <ele>1732</ele>
        <time>2018-06-08T11:27:52Z</time>
      </trkpt>
      <trkpt lat="44.23931" lon="6.21604">
        <ele>1731</ele>
        <time>2018-06-08T11:27:55Z</time>
      </trkpt>
      <trkpt lat="44.2393" lon="6.21602">
        <ele>1731</ele>
        <time>2018-06-08T11:28:04Z</time>
      </trkpt>
      <trkpt lat="44.23929" lon="6.21601">
        <ele>1731</ele>
        <time>2018-06-08T11:28:09Z</time>
      </trkpt>
      <trkpt lat="44.23927" lon="6.21599">
        <ele>1731</ele>
        <time>2018-06-08T11:28:17Z</time>
      </trkpt>
      <trkpt lat="44.23926" lon="6.21599">
        <ele>1731</ele>
        <time>2018-06-08T11:28:20Z</time>
      </trkpt>
      <trkpt lat="44.23925" lon="6.21599">
        <ele>1731</ele>
        <time>2018-06-08T11:28:23Z</time>
      </trkpt>
      <trkpt lat="44.23923" lon="6.21598">
        <ele>1731</ele>
        <time>2018-06-08T11:28:26Z</time>
      </trkpt>
      <trkpt lat="44.23922" lon="6.21597">
        <ele>1731</ele>
        <time>2018-06-08T11:28:29Z</time>
      </trkpt>
      <trkpt lat="44.23922" lon="6.21595">
        <ele>1731</ele>
        <time>2018-06-08T11:28:31Z</time>
      </trkpt>
      <trkpt lat="44.23922" lon="6.21593">
        <ele>1731</ele>
        <time>2018-06-08T11:28:32Z</time>
      </trkpt>
      <trkpt lat="44.23922" lon="6.21591">
        <ele>1731</ele>
        <time>2018-06-08T11:28:34Z</time>
      </trkpt>
      <trkpt lat="44.23922" lon="6.21589">
        <ele>1731</ele>
        <time>2018-06-08T11:28:36Z</time>
      </trkpt>
      <trkpt lat="44.23922" lon="6.21587">
        <ele>1731</ele>
        <time>2018-06-08T11:28:38Z</time>
      </trkpt>
      <trkpt lat="44.23921" lon="6.21586">
        <ele>1730</ele>
        <time>2018-06-08T11:28:40Z</time>
      </trkpt>
      <trkpt lat="44.2392" lon="6.21584">
        <ele>1730</ele>
        <time>2018-06-08T11:28:42Z</time>
      </trkpt>
      <trkpt lat="44.23919" lon="6.21582">
        <ele>1729</ele>
        <time>2018-06-08T11:28:44Z</time>
      </trkpt>
      <trkpt lat="44.23919" lon="6.2158">
        <ele>1728</ele>
        <time>2018-06-08T11:28:46Z</time>
      </trkpt>
      <trkpt lat="44.23919" lon="6.21578">
        <ele>1728</ele>
        <time>2018-06-08T11:28:48Z</time>
      </trkpt>
      <trkpt lat="44.23918" lon="6.21575">
        <ele>1727</ele>
        <time>2018-06-08T11:28:50Z</time>
      </trkpt>
      <trkpt lat="44.23918" lon="6.21574">
        <ele>1727</ele>
        <time>2018-06-08T11:28:52Z</time>
      </trkpt>
      <trkpt lat="44.23917" lon="6.21572">
        <ele>1727</ele>
        <time>2018-06-08T11:28:54Z</time>
      </trkpt>
      <trkpt lat="44.23916" lon="6.21571">
        <ele>1726</ele>
        <time>2018-06-08T11:28:57Z</time>
      </trkpt>
      <trkpt lat="44.23914" lon="6.2157">
        <ele>1725</ele>
        <time>2018-06-08T11:29:00Z</time>
      </trkpt>
      <trkpt lat="44.23913" lon="6.21569">
        <ele>1725</ele>
        <time>2018-06-08T11:29:02Z</time>
      </trkpt>
      <trkpt lat="44.23911" lon="6.21568">
        <ele>1725</ele>
        <time>2018-06-08T11:29:04Z</time>
      </trkpt>
      <trkpt lat="44.23911" lon="6.21566">
        <ele>1724</ele>
        <time>2018-06-08T11:29:05Z</time>
      </trkpt>
      <trkpt lat="44.2391" lon="6.21565">
        <ele>1724</ele>
        <time>2018-06-08T11:29:06Z</time>
      </trkpt>
      <trkpt lat="44.2391" lon="6.21562">
        <ele>1724</ele>
        <time>2018-06-08T11:29:08Z</time>
      </trkpt>
      <trkpt lat="44.23911" lon="6.2156">
        <ele>1723</ele>
        <time>2018-06-08T11:29:10Z</time>
      </trkpt>
      <trkpt lat="44.23911" lon="6.21558">
        <ele>1723</ele>
        <time>2018-06-08T11:29:11Z</time>
      </trkpt>
      <trkpt lat="44.23912" lon="6.21556">
        <ele>1722</ele>
        <time>2018-06-08T11:29:13Z</time>
      </trkpt>
      <trkpt lat="44.23913" lon="6.21554">
        <ele>1722</ele>
        <time>2018-06-08T11:29:15Z</time>
      </trkpt>
      <trkpt lat="44.23914" lon="6.21551">
        <ele>1722</ele>
        <time>2018-06-08T11:29:17Z</time>
      </trkpt>
      <trkpt lat="44.23914" lon="6.21549">
        <ele>1721</ele>
        <time>2018-06-08T11:29:19Z</time>
      </trkpt>
      <trkpt lat="44.23915" lon="6.21548">
        <ele>1721</ele>
        <time>2018-06-08T11:29:21Z</time>
      </trkpt>
      <trkpt lat="44.23914" lon="6.21546">
        <ele>1720</ele>
        <time>2018-06-08T11:29:23Z</time>
      </trkpt>
      <trkpt lat="44.23914" lon="6.21544">
        <ele>1720</ele>
        <time>2018-06-08T11:29:25Z</time>
      </trkpt>
      <trkpt lat="44.23914" lon="6.21542">
        <ele>1720</ele>
        <time>2018-06-08T11:29:26Z</time>
      </trkpt>
      <trkpt lat="44.23913" lon="6.2154">
        <ele>1719</ele>
        <time>2018-06-08T11:29:28Z</time>
      </trkpt>
      <trkpt lat="44.23913" lon="6.21537">
        <ele>1719</ele>
        <time>2018-06-08T11:29:30Z</time>
      </trkpt>
      <trkpt lat="44.23914" lon="6.21535">
        <ele>1718</ele>
        <time>2018-06-08T11:29:32Z</time>
      </trkpt>
      <trkpt lat="44.23914" lon="6.21534">
        <ele>1717</ele>
        <time>2018-06-08T11:29:34Z</time>
      </trkpt>
      <trkpt lat="44.23914" lon="6.21532">
        <ele>1717</ele>
        <time>2018-06-08T11:29:36Z</time>
      </trkpt>
      <trkpt lat="44.23914" lon="6.2153">
        <ele>1717</ele>
        <time>2018-06-08T11:29:37Z</time>
      </trkpt>
      <trkpt lat="44.23915" lon="6.21529">
        <ele>1716</ele>
        <time>2018-06-08T11:29:39Z</time>
      </trkpt>
      <trkpt lat="44.23915" lon="6.21527">
        <ele>1716</ele>
        <time>2018-06-08T11:29:41Z</time>
      </trkpt>
      <trkpt lat="44.23915" lon="6.21525">
        <ele>1715</ele>
        <time>2018-06-08T11:29:43Z</time>
      </trkpt>
      <trkpt lat="44.23914" lon="6.21523">
        <ele>1714</ele>
        <time>2018-06-08T11:29:45Z</time>
      </trkpt>
      <trkpt lat="44.23913" lon="6.21521">
        <ele>1714</ele>
        <time>2018-06-08T11:29:47Z</time>
      </trkpt>
      <trkpt lat="44.23912" lon="6.21519">
        <ele>1713</ele>
        <time>2018-06-08T11:29:49Z</time>
      </trkpt>
      <trkpt lat="44.23911" lon="6.21517">
        <ele>1713</ele>
        <time>2018-06-08T11:29:51Z</time>
      </trkpt>
      <trkpt lat="44.23909" lon="6.21515">
        <ele>1712</ele>
        <time>2018-06-08T11:29:53Z</time>
      </trkpt>
      <trkpt lat="44.23909" lon="6.21512">
        <ele>1712</ele>
        <time>2018-06-08T11:29:55Z</time>
      </trkpt>
      <trkpt lat="44.23909" lon="6.2151">
        <ele>1712</ele>
        <time>2018-06-08T11:29:57Z</time>
      </trkpt>
      <trkpt lat="44.23908" lon="6.21508">
        <ele>1712</ele>
        <time>2018-06-08T11:29:59Z</time>
      </trkpt>
      <trkpt lat="44.23908" lon="6.21506">
        <ele>1711</ele>
        <time>2018-06-08T11:30:02Z</time>
      </trkpt>
      <trkpt lat="44.23907" lon="6.21504">
        <ele>1710</ele>
        <time>2018-06-08T11:30:05Z</time>
      </trkpt>
      <trkpt lat="44.23906" lon="6.21502">
        <ele>1710</ele>
        <time>2018-06-08T11:30:08Z</time>
      </trkpt>
      <trkpt lat="44.23906" lon="6.21501">
        <ele>1709</ele>
        <time>2018-06-08T11:30:10Z</time>
      </trkpt>
      <trkpt lat="44.23906" lon="6.21499">
        <ele>1708</ele>
        <time>2018-06-08T11:30:14Z</time>
      </trkpt>
      <trkpt lat="44.23906" lon="6.21497">
        <ele>1706</ele>
        <time>2018-06-08T11:30:17Z</time>
      </trkpt>
      <trkpt lat="44.23906" lon="6.21495">
        <ele>1705</ele>
        <time>2018-06-08T11:30:19Z</time>
      </trkpt>
      <trkpt lat="44.23904" lon="6.21494">
        <ele>1704</ele>
        <time>2018-06-08T11:30:22Z</time>
      </trkpt>
      <trkpt lat="44.23903" lon="6.21491">
        <ele>1704</ele>
        <time>2018-06-08T11:30:24Z</time>
      </trkpt>
      <trkpt lat="44.23903" lon="6.21489">
        <ele>1703</ele>
        <time>2018-06-08T11:30:26Z</time>
      </trkpt>
      <trkpt lat="44.23902" lon="6.21487">
        <ele>1703</ele>
        <time>2018-06-08T11:30:28Z</time>
      </trkpt>
      <trkpt lat="44.23902" lon="6.21485">
        <ele>1703</ele>
        <time>2018-06-08T11:30:30Z</time>
      </trkpt>
      <trkpt lat="44.23901" lon="6.21483">
        <ele>1703</ele>
        <time>2018-06-08T11:30:31Z</time>
      </trkpt>
      <trkpt lat="44.23901" lon="6.21482">
        <ele>1702</ele>
        <time>2018-06-08T11:30:32Z</time>
      </trkpt>
      <trkpt lat="44.239" lon="6.2148">
        <ele>1702</ele>
        <time>2018-06-08T11:30:33Z</time>
      </trkpt>
      <trkpt lat="44.239" lon="6.21478">
        <ele>1702</ele>
        <time>2018-06-08T11:30:35Z</time>
      </trkpt>
      <trkpt lat="44.23899" lon="6.21476">
        <ele>1702</ele>
        <time>2018-06-08T11:30:37Z</time>
      </trkpt>
      <trkpt lat="44.23899" lon="6.21474">
        <ele>1702</ele>
        <time>2018-06-08T11:30:39Z</time>
      </trkpt>
      <trkpt lat="44.23898" lon="6.21472">
        <ele>1702</ele>
        <time>2018-06-08T11:30:40Z</time>
      </trkpt>
      <trkpt lat="44.23898" lon="6.2147">
        <ele>1702</ele>
        <time>2018-06-08T11:30:42Z</time>
      </trkpt>
      <trkpt lat="44.23898" lon="6.21468">
        <ele>1702</ele>
        <time>2018-06-08T11:30:44Z</time>
      </trkpt>
      <trkpt lat="44.23897" lon="6.21466">
        <ele>1702</ele>
        <time>2018-06-08T11:30:46Z</time>
      </trkpt>
      <trkpt lat="44.23896" lon="6.21463">
        <ele>1701</ele>
        <time>2018-06-08T11:30:48Z</time>
      </trkpt>
      <trkpt lat="44.23896" lon="6.21461">
        <ele>1701</ele>
        <time>2018-06-08T11:30:50Z</time>
      </trkpt>
      <trkpt lat="44.23895" lon="6.21459">
        <ele>1701</ele>
        <time>2018-06-08T11:30:52Z</time>
      </trkpt>
      <trkpt lat="44.23894" lon="6.21457">
        <ele>1701</ele>
        <time>2018-06-08T11:30:54Z</time>
      </trkpt>
      <trkpt lat="44.23894" lon="6.21455">
        <ele>1701</ele>
        <time>2018-06-08T11:30:56Z</time>
      </trkpt>
      <trkpt lat="44.23893" lon="6.21453">
        <ele>1701</ele>
        <time>2018-06-08T11:30:58Z</time>
      </trkpt>
      <trkpt lat="44.23893" lon="6.21451">
        <ele>1701</ele>
        <time>2018-06-08T11:31:00Z</time>
      </trkpt>
      <trkpt lat="44.23893" lon="6.21449">
        <ele>1701</ele>
        <time>2018-06-08T11:31:02Z</time>
      </trkpt>
      <trkpt lat="44.23893" lon="6.21446">
        <ele>1701</ele>
        <time>2018-06-08T11:31:04Z</time>
      </trkpt>
      <trkpt lat="44.23892" lon="6.21444">
        <ele>1701</ele>
        <time>2018-06-08T11:31:06Z</time>
      </trkpt>
      <trkpt lat="44.23892" lon="6.21442">
        <ele>1701</ele>
        <time>2018-06-08T11:31:08Z</time>
      </trkpt>
      <trkpt lat="44.23891" lon="6.2144">
        <ele>1701</ele>
        <time>2018-06-08T11:31:10Z</time>
      </trkpt>
      <trkpt lat="44.23891" lon="6.21438">
        <ele>1701</ele>
        <time>2018-06-08T11:31:12Z</time>
      </trkpt>
      <trkpt lat="44.23891" lon="6.21435">
        <ele>1701</ele>
        <time>2018-06-08T11:31:14Z</time>
      </trkpt>
      <trkpt lat="44.2389" lon="6.21434">
        <ele>1701</ele>
        <time>2018-06-08T11:31:15Z</time>
      </trkpt>
      <trkpt lat="44.2389" lon="6.21431">
        <ele>1701</ele>
        <time>2018-06-08T11:31:17Z</time>
      </trkpt>
      <trkpt lat="44.23889" lon="6.2143">
        <ele>1701</ele>
        <time>2018-06-08T11:31:18Z</time>
      </trkpt>
      <trkpt lat="44.23888" lon="6.21427">
        <ele>1701</ele>
        <time>2018-06-08T11:31:20Z</time>
      </trkpt>
      <trkpt lat="44.23888" lon="6.21425">
        <ele>1701</ele>
        <time>2018-06-08T11:31:22Z</time>
      </trkpt>
      <trkpt lat="44.23888" lon="6.21422">
        <ele>1701</ele>
        <time>2018-06-08T11:31:24Z</time>
      </trkpt>
      <trkpt lat="44.23887" lon="6.21419">
        <ele>1701</ele>
        <time>2018-06-08T11:31:26Z</time>
      </trkpt>
      <trkpt lat="44.23887" lon="6.21418">
        <ele>1701</ele>
        <time>2018-06-08T11:31:27Z</time>
      </trkpt>
      <trkpt lat="44.23887" lon="6.21416">
        <ele>1701</ele>
        <time>2018-06-08T11:31:28Z</time>
      </trkpt>
      <trkpt lat="44.23886" lon="6.21415">
        <ele>1701</ele>
        <time>2018-06-08T11:31:29Z</time>
      </trkpt>
      <trkpt lat="44.23886" lon="6.21413">
        <ele>1701</ele>
        <time>2018-06-08T11:31:30Z</time>
      </trkpt>
      <trkpt lat="44.23887" lon="6.21412">
        <ele>1701</ele>
        <time>2018-06-08T11:31:31Z</time>
      </trkpt>
      <trkpt lat="44.23887" lon="6.2141">
        <ele>1700</ele>
        <time>2018-06-08T11:31:32Z</time>
      </trkpt>
      <trkpt lat="44.23887" lon="6.21407">
        <ele>1700</ele>
        <time>2018-06-08T11:31:34Z</time>
      </trkpt>
      <trkpt lat="44.23887" lon="6.21406">
        <ele>1700</ele>
        <time>2018-06-08T11:31:35Z</time>
      </trkpt>
      <trkpt lat="44.23886" lon="6.21404">
        <ele>1700</ele>
        <time>2018-06-08T11:31:36Z</time>
      </trkpt>
      <trkpt lat="44.23886" lon="6.21402">
        <ele>1700</ele>
        <time>2018-06-08T11:31:38Z</time>
      </trkpt>
      <trkpt lat="44.23886" lon="6.21399">
        <ele>1700</ele>
        <time>2018-06-08T11:31:40Z</time>
      </trkpt>
      <trkpt lat="44.23885" lon="6.21397">
        <ele>1699</ele>
        <time>2018-06-08T11:31:42Z</time>
      </trkpt>
      <trkpt lat="44.23885" lon="6.21395">
        <ele>1699</ele>
        <time>2018-06-08T11:31:44Z</time>
      </trkpt>
      <trkpt lat="44.23884" lon="6.21393">
        <ele>1699</ele>
        <time>2018-06-08T11:31:46Z</time>
      </trkpt>
      <trkpt lat="44.23883" lon="6.21391">
        <ele>1698</ele>
        <time>2018-06-08T11:31:48Z</time>
      </trkpt>
      <trkpt lat="44.23883" lon="6.21389">
        <ele>1698</ele>
        <time>2018-06-08T11:31:50Z</time>
      </trkpt>
      <trkpt lat="44.23882" lon="6.21387">
        <ele>1697</ele>
        <time>2018-06-08T11:31:52Z</time>
      </trkpt>
      <trkpt lat="44.23881" lon="6.21385">
        <ele>1697</ele>
        <time>2018-06-08T11:31:54Z</time>
      </trkpt>
      <trkpt lat="44.23881" lon="6.21384">
        <ele>1697</ele>
        <time>2018-06-08T11:31:56Z</time>
      </trkpt>
      <trkpt lat="44.2388" lon="6.21382">
        <ele>1696</ele>
        <time>2018-06-08T11:31:58Z</time>
      </trkpt>
      <trkpt lat="44.2388" lon="6.21381">
        <ele>1696</ele>
        <time>2018-06-08T11:32:00Z</time>
      </trkpt>
      <trkpt lat="44.23878" lon="6.21379">
        <ele>1695</ele>
        <time>2018-06-08T11:32:03Z</time>
      </trkpt>
      <trkpt lat="44.23877" lon="6.21377">
        <ele>1695</ele>
        <time>2018-06-08T11:32:05Z</time>
      </trkpt>
      <trkpt lat="44.23876" lon="6.21374">
        <ele>1694</ele>
        <time>2018-06-08T11:32:07Z</time>
      </trkpt>
      <trkpt lat="44.23875" lon="6.21373">
        <ele>1694</ele>
        <time>2018-06-08T11:32:08Z</time>
      </trkpt>
      <trkpt lat="44.23875" lon="6.2137">
        <ele>1694</ele>
        <time>2018-06-08T11:32:10Z</time>
      </trkpt>
      <trkpt lat="44.23874" lon="6.21368">
        <ele>1694</ele>
        <time>2018-06-08T11:32:12Z</time>
      </trkpt>
      <trkpt lat="44.23873" lon="6.21366">
        <ele>1694</ele>
        <time>2018-06-08T11:32:14Z</time>
      </trkpt>
      <trkpt lat="44.23872" lon="6.21364">
        <ele>1694</ele>
        <time>2018-06-08T11:32:16Z</time>
      </trkpt>
      <trkpt lat="44.23871" lon="6.21362">
        <ele>1693</ele>
        <time>2018-06-08T11:32:18Z</time>
      </trkpt>
      <trkpt lat="44.2387" lon="6.21361">
        <ele>1693</ele>
        <time>2018-06-08T11:32:20Z</time>
      </trkpt>
      <trkpt lat="44.23869" lon="6.21359">
        <ele>1692</ele>
        <time>2018-06-08T11:32:22Z</time>
      </trkpt>
      <trkpt lat="44.23868" lon="6.21357">
        <ele>1692</ele>
        <time>2018-06-08T11:32:24Z</time>
      </trkpt>
      <trkpt lat="44.23866" lon="6.21355">
        <ele>1691</ele>
        <time>2018-06-08T11:32:26Z</time>
      </trkpt>
      <trkpt lat="44.23864" lon="6.21353">
        <ele>1691</ele>
        <time>2018-06-08T11:32:28Z</time>
      </trkpt>
      <trkpt lat="44.23864" lon="6.21352">
        <ele>1691</ele>
        <time>2018-06-08T11:32:29Z</time>
      </trkpt>
      <trkpt lat="44.23862" lon="6.21349">
        <ele>1690</ele>
        <time>2018-06-08T11:32:31Z</time>
      </trkpt>
      <trkpt lat="44.23861" lon="6.21347">
        <ele>1690</ele>
        <time>2018-06-08T11:32:33Z</time>
      </trkpt>
      <trkpt lat="44.2386" lon="6.21345">
        <ele>1689</ele>
        <time>2018-06-08T11:32:35Z</time>
      </trkpt>
      <trkpt lat="44.23859" lon="6.21343">
        <ele>1689</ele>
        <time>2018-06-08T11:32:37Z</time>
      </trkpt>
      <trkpt lat="44.23859" lon="6.2134">
        <ele>1688</ele>
        <time>2018-06-08T11:32:39Z</time>
      </trkpt>
      <trkpt lat="44.23858" lon="6.21338">
        <ele>1688</ele>
        <time>2018-06-08T11:32:41Z</time>
      </trkpt>
      <trkpt lat="44.23857" lon="6.21335">
        <ele>1688</ele>
        <time>2018-06-08T11:32:43Z</time>
      </trkpt>
      <trkpt lat="44.23856" lon="6.21334">
        <ele>1687</ele>
        <time>2018-06-08T11:32:44Z</time>
      </trkpt>
      <trkpt lat="44.23855" lon="6.21332">
        <ele>1687</ele>
        <time>2018-06-08T11:32:46Z</time>
      </trkpt>
      <trkpt lat="44.23855" lon="6.2133">
        <ele>1687</ele>
        <time>2018-06-08T11:32:48Z</time>
      </trkpt>
      <trkpt lat="44.23855" lon="6.21328">
        <ele>1686</ele>
        <time>2018-06-08T11:32:50Z</time>
      </trkpt>
      <trkpt lat="44.23854" lon="6.21326">
        <ele>1686</ele>
        <time>2018-06-08T11:32:52Z</time>
      </trkpt>
      <trkpt lat="44.23854" lon="6.21324">
        <ele>1686</ele>
        <time>2018-06-08T11:32:54Z</time>
      </trkpt>
      <trkpt lat="44.23853" lon="6.21322">
        <ele>1685</ele>
        <time>2018-06-08T11:32:56Z</time>
      </trkpt>
      <trkpt lat="44.23853" lon="6.2132">
        <ele>1685</ele>
        <time>2018-06-08T11:32:58Z</time>
      </trkpt>
      <trkpt lat="44.23853" lon="6.21318">
        <ele>1685</ele>
        <time>2018-06-08T11:32:59Z</time>
      </trkpt>
      <trkpt lat="44.23853" lon="6.21316">
        <ele>1684</ele>
        <time>2018-06-08T11:33:01Z</time>
      </trkpt>
      <trkpt lat="44.23853" lon="6.21313">
        <ele>1684</ele>
        <time>2018-06-08T11:33:03Z</time>
      </trkpt>
      <trkpt lat="44.23852" lon="6.21311">
        <ele>1683</ele>
        <time>2018-06-08T11:33:05Z</time>
      </trkpt>
      <trkpt lat="44.23852" lon="6.21309">
        <ele>1683</ele>
        <time>2018-06-08T11:33:07Z</time>
      </trkpt>
      <trkpt lat="44.23851" lon="6.21307">
        <ele>1683</ele>
        <time>2018-06-08T11:33:08Z</time>
      </trkpt>
      <trkpt lat="44.2385" lon="6.21305">
        <ele>1683</ele>
        <time>2018-06-08T11:33:10Z</time>
      </trkpt>
      <trkpt lat="44.2385" lon="6.21303">
        <ele>1683</ele>
        <time>2018-06-08T11:33:12Z</time>
      </trkpt>
      <trkpt lat="44.23849" lon="6.21301">
        <ele>1683</ele>
        <time>2018-06-08T11:33:13Z</time>
      </trkpt>
      <trkpt lat="44.23848" lon="6.21299">
        <ele>1683</ele>
        <time>2018-06-08T11:33:15Z</time>
      </trkpt>
      <trkpt lat="44.23847" lon="6.21297">
        <ele>1682</ele>
        <time>2018-06-08T11:33:17Z</time>
      </trkpt>
      <trkpt lat="44.23847" lon="6.21295">
        <ele>1682</ele>
        <time>2018-06-08T11:33:19Z</time>
      </trkpt>
      <trkpt lat="44.23846" lon="6.21293">
        <ele>1681</ele>
        <time>2018-06-08T11:33:21Z</time>
      </trkpt>
      <trkpt lat="44.23845" lon="6.2129">
        <ele>1681</ele>
        <time>2018-06-08T11:33:23Z</time>
      </trkpt>
      <trkpt lat="44.23844" lon="6.21289">
        <ele>1681</ele>
        <time>2018-06-08T11:33:24Z</time>
      </trkpt>
      <trkpt lat="44.23843" lon="6.21286">
        <ele>1680</ele>
        <time>2018-06-08T11:33:26Z</time>
      </trkpt>
      <trkpt lat="44.23843" lon="6.21285">
        <ele>1680</ele>
        <time>2018-06-08T11:33:28Z</time>
      </trkpt>
      <trkpt lat="44.23842" lon="6.21282">
        <ele>1680</ele>
        <time>2018-06-08T11:33:30Z</time>
      </trkpt>
      <trkpt lat="44.23841" lon="6.2128">
        <ele>1679</ele>
        <time>2018-06-08T11:33:32Z</time>
      </trkpt>
      <trkpt lat="44.23841" lon="6.21277">
        <ele>1679</ele>
        <time>2018-06-08T11:33:34Z</time>
      </trkpt>
      <trkpt lat="44.2384" lon="6.21275">
        <ele>1678</ele>
        <time>2018-06-08T11:33:36Z</time>
      </trkpt>
      <trkpt lat="44.23839" lon="6.21273">
        <ele>1678</ele>
        <time>2018-06-08T11:33:38Z</time>
      </trkpt>
      <trkpt lat="44.23838" lon="6.21271">
        <ele>1677</ele>
        <time>2018-06-08T11:33:40Z</time>
      </trkpt>
      <trkpt lat="44.23837" lon="6.21268">
        <ele>1677</ele>
        <time>2018-06-08T11:33:42Z</time>
      </trkpt>
      <trkpt lat="44.23837" lon="6.21266">
        <ele>1676</ele>
        <time>2018-06-08T11:33:44Z</time>
      </trkpt>
      <trkpt lat="44.23837" lon="6.21264">
        <ele>1676</ele>
        <time>2018-06-08T11:33:46Z</time>
      </trkpt>
      <trkpt lat="44.23837" lon="6.21262">
        <ele>1675</ele>
        <time>2018-06-08T11:33:48Z</time>
      </trkpt>
      <trkpt lat="44.23836" lon="6.2126">
        <ele>1675</ele>
        <time>2018-06-08T11:33:50Z</time>
      </trkpt>
      <trkpt lat="44.23836" lon="6.21258">
        <ele>1674</ele>
        <time>2018-06-08T11:33:52Z</time>
      </trkpt>
      <trkpt lat="44.23835" lon="6.21256">
        <ele>1674</ele>
        <time>2018-06-08T11:33:54Z</time>
      </trkpt>
      <trkpt lat="44.23835" lon="6.21253">
        <ele>1674</ele>
        <time>2018-06-08T11:33:56Z</time>
      </trkpt>
      <trkpt lat="44.23835" lon="6.21251">
        <ele>1673</ele>
        <time>2018-06-08T11:33:58Z</time>
      </trkpt>
      <trkpt lat="44.23835" lon="6.21249">
        <ele>1673</ele>
        <time>2018-06-08T11:34:00Z</time>
      </trkpt>
      <trkpt lat="44.23833" lon="6.21246">
        <ele>1673</ele>
        <time>2018-06-08T11:34:02Z</time>
      </trkpt>
      <trkpt lat="44.23833" lon="6.21244">
        <ele>1673</ele>
        <time>2018-06-08T11:34:04Z</time>
      </trkpt>
      <trkpt lat="44.23832" lon="6.21242">
        <ele>1672</ele>
        <time>2018-06-08T11:34:06Z</time>
      </trkpt>
      <trkpt lat="44.23832" lon="6.2124">
        <ele>1672</ele>
        <time>2018-06-08T11:34:08Z</time>
      </trkpt>
      <trkpt lat="44.23831" lon="6.21237">
        <ele>1672</ele>
        <time>2018-06-08T11:34:10Z</time>
      </trkpt>
      <trkpt lat="44.2383" lon="6.21235">
        <ele>1671</ele>
        <time>2018-06-08T11:34:12Z</time>
      </trkpt>
      <trkpt lat="44.2383" lon="6.21233">
        <ele>1671</ele>
        <time>2018-06-08T11:34:14Z</time>
      </trkpt>
      <trkpt lat="44.2383" lon="6.21231">
        <ele>1671</ele>
        <time>2018-06-08T11:34:16Z</time>
      </trkpt>
      <trkpt lat="44.2383" lon="6.21228">
        <ele>1671</ele>
        <time>2018-06-08T11:34:19Z</time>
      </trkpt>
      <trkpt lat="44.23829" lon="6.21226">
        <ele>1670</ele>
        <time>2018-06-08T11:34:21Z</time>
      </trkpt>
      <trkpt lat="44.23829" lon="6.21224">
        <ele>1670</ele>
        <time>2018-06-08T11:34:23Z</time>
      </trkpt>
      <trkpt lat="44.23828" lon="6.21222">
        <ele>1670</ele>
        <time>2018-06-08T11:34:25Z</time>
      </trkpt>
      <trkpt lat="44.23828" lon="6.2122">
        <ele>1669</ele>
        <time>2018-06-08T11:34:27Z</time>
      </trkpt>
      <trkpt lat="44.23828" lon="6.21218">
        <ele>1669</ele>
        <time>2018-06-08T11:34:29Z</time>
      </trkpt>
      <trkpt lat="44.23828" lon="6.21216">
        <ele>1668</ele>
        <time>2018-06-08T11:34:31Z</time>
      </trkpt>
      <trkpt lat="44.23828" lon="6.21215">
        <ele>1668</ele>
        <time>2018-06-08T11:34:33Z</time>
      </trkpt>
      <trkpt lat="44.23829" lon="6.21213">
        <ele>1667</ele>
        <time>2018-06-08T11:34:35Z</time>
      </trkpt>
      <trkpt lat="44.2383" lon="6.21213">
        <ele>1667</ele>
        <time>2018-06-08T11:34:36Z</time>
      </trkpt>
      <trkpt lat="44.23831" lon="6.21211">
        <ele>1667</ele>
        <time>2018-06-08T11:34:38Z</time>
      </trkpt>
      <trkpt lat="44.23831" lon="6.21209">
        <ele>1666</ele>
        <time>2018-06-08T11:34:40Z</time>
      </trkpt>
      <trkpt lat="44.23831" lon="6.21206">
        <ele>1666</ele>
        <time>2018-06-08T11:34:42Z</time>
      </trkpt>
      <trkpt lat="44.23831" lon="6.21204">
        <ele>1665</ele>
        <time>2018-06-08T11:34:44Z</time>
      </trkpt>
      <trkpt lat="44.23832" lon="6.21203">
        <ele>1665</ele>
        <time>2018-06-08T11:34:46Z</time>
      </trkpt>
      <trkpt lat="44.23832" lon="6.212">
        <ele>1664</ele>
        <time>2018-06-08T11:34:48Z</time>
      </trkpt>
      <trkpt lat="44.23833" lon="6.21199">
        <ele>1663</ele>
        <time>2018-06-08T11:34:50Z</time>
      </trkpt>
      <trkpt lat="44.23832" lon="6.21196">
        <ele>1662</ele>
        <time>2018-06-08T11:34:52Z</time>
      </trkpt>
      <trkpt lat="44.23833" lon="6.21195">
        <ele>1662</ele>
        <time>2018-06-08T11:34:54Z</time>
      </trkpt>
      <trkpt lat="44.23835" lon="6.21194">
        <ele>1661</ele>
        <time>2018-06-08T11:34:56Z</time>
      </trkpt>
      <trkpt lat="44.23836" lon="6.21194">
        <ele>1660</ele>
        <time>2018-06-08T11:34:59Z</time>
      </trkpt>
      <trkpt lat="44.23836" lon="6.21192">
        <ele>1659</ele>
        <time>2018-06-08T11:35:02Z</time>
      </trkpt>
      <trkpt lat="44.23836" lon="6.21191">
        <ele>1659</ele>
        <time>2018-06-08T11:35:04Z</time>
      </trkpt>
      <trkpt lat="44.23836" lon="6.21188">
        <ele>1658</ele>
        <time>2018-06-08T11:35:06Z</time>
      </trkpt>
      <trkpt lat="44.23836" lon="6.21186">
        <ele>1658</ele>
        <time>2018-06-08T11:35:08Z</time>
      </trkpt>
      <trkpt lat="44.23837" lon="6.21185">
        <ele>1657</ele>
        <time>2018-06-08T11:35:10Z</time>
      </trkpt>
      <trkpt lat="44.23838" lon="6.21184">
        <ele>1657</ele>
        <time>2018-06-08T11:35:12Z</time>
      </trkpt>
      <trkpt lat="44.2384" lon="6.21182">
        <ele>1656</ele>
        <time>2018-06-08T11:35:15Z</time>
      </trkpt>
      <trkpt lat="44.2384" lon="6.2118">
        <ele>1656</ele>
        <time>2018-06-08T11:35:17Z</time>
      </trkpt>
      <trkpt lat="44.2384" lon="6.21179">
        <ele>1656</ele>
        <time>2018-06-08T11:35:19Z</time>
      </trkpt>
      <trkpt lat="44.2384" lon="6.21177">
        <ele>1655</ele>
        <time>2018-06-08T11:35:22Z</time>
      </trkpt>
      <trkpt lat="44.2384" lon="6.21175">
        <ele>1654</ele>
        <time>2018-06-08T11:35:25Z</time>
      </trkpt>
      <trkpt lat="44.23841" lon="6.21174">
        <ele>1654</ele>
        <time>2018-06-08T11:35:28Z</time>
      </trkpt>
      <trkpt lat="44.23841" lon="6.21172">
        <ele>1653</ele>
        <time>2018-06-08T11:35:31Z</time>
      </trkpt>
      <trkpt lat="44.23841" lon="6.2117">
        <ele>1652</ele>
        <time>2018-06-08T11:35:33Z</time>
      </trkpt>
      <trkpt lat="44.23843" lon="6.21169">
        <ele>1652</ele>
        <time>2018-06-08T11:35:36Z</time>
      </trkpt>
      <trkpt lat="44.23844" lon="6.21167">
        <ele>1651</ele>
        <time>2018-06-08T11:35:39Z</time>
      </trkpt>
      <trkpt lat="44.23846" lon="6.21166">
        <ele>1651</ele>
        <time>2018-06-08T11:35:41Z</time>
      </trkpt>
      <trkpt lat="44.23847" lon="6.21165">
        <ele>1650</ele>
        <time>2018-06-08T11:35:43Z</time>
      </trkpt>
      <trkpt lat="44.23848" lon="6.21164">
        <ele>1650</ele>
        <time>2018-06-08T11:35:45Z</time>
      </trkpt>
      <trkpt lat="44.23849" lon="6.21163">
        <ele>1649</ele>
        <time>2018-06-08T11:35:47Z</time>
      </trkpt>
      <trkpt lat="44.23849" lon="6.21161">
        <ele>1648</ele>
        <time>2018-06-08T11:35:49Z</time>
      </trkpt>
      <trkpt lat="44.23849" lon="6.21159">
        <ele>1647</ele>
        <time>2018-06-08T11:35:52Z</time>
      </trkpt>
      <trkpt lat="44.23851" lon="6.21157">
        <ele>1647</ele>
        <time>2018-06-08T11:35:54Z</time>
      </trkpt>
      <trkpt lat="44.23852" lon="6.21157">
        <ele>1647</ele>
        <time>2018-06-08T11:35:55Z</time>
      </trkpt>
      <trkpt lat="44.23854" lon="6.21156">
        <ele>1646</ele>
        <time>2018-06-08T11:35:58Z</time>
      </trkpt>
      <trkpt lat="44.23854" lon="6.21154">
        <ele>1645</ele>
        <time>2018-06-08T11:36:00Z</time>
      </trkpt>
      <trkpt lat="44.23855" lon="6.21153">
        <ele>1644</ele>
        <time>2018-06-08T11:36:02Z</time>
      </trkpt>
      <trkpt lat="44.23856" lon="6.21151">
        <ele>1644</ele>
        <time>2018-06-08T11:36:04Z</time>
      </trkpt>
      <trkpt lat="44.23856" lon="6.21149">
        <ele>1643</ele>
        <time>2018-06-08T11:36:06Z</time>
      </trkpt>
      <trkpt lat="44.23857" lon="6.21146">
        <ele>1643</ele>
        <time>2018-06-08T11:36:08Z</time>
      </trkpt>
      <trkpt lat="44.23857" lon="6.21144">
        <ele>1642</ele>
        <time>2018-06-08T11:36:10Z</time>
      </trkpt>
      <trkpt lat="44.23856" lon="6.21141">
        <ele>1641</ele>
        <time>2018-06-08T11:36:12Z</time>
      </trkpt>
      <trkpt lat="44.23856" lon="6.21139">
        <ele>1640</ele>
        <time>2018-06-08T11:36:14Z</time>
      </trkpt>
      <trkpt lat="44.23856" lon="6.21137">
        <ele>1640</ele>
        <time>2018-06-08T11:36:16Z</time>
      </trkpt>
      <trkpt lat="44.23856" lon="6.21134">
        <ele>1639</ele>
        <time>2018-06-08T11:36:18Z</time>
      </trkpt>
      <trkpt lat="44.23857" lon="6.21132">
        <ele>1638</ele>
        <time>2018-06-08T11:36:20Z</time>
      </trkpt>
      <trkpt lat="44.23858" lon="6.2113">
        <ele>1638</ele>
        <time>2018-06-08T11:36:21Z</time>
      </trkpt>
      <trkpt lat="44.23857" lon="6.21128">
        <ele>1637</ele>
        <time>2018-06-08T11:36:23Z</time>
      </trkpt>
      <trkpt lat="44.23856" lon="6.21127">
        <ele>1637</ele>
        <time>2018-06-08T11:36:26Z</time>
      </trkpt>
      <trkpt lat="44.23856" lon="6.21125">
        <ele>1636</ele>
        <time>2018-06-08T11:36:28Z</time>
      </trkpt>
      <trkpt lat="44.23857" lon="6.21123">
        <ele>1636</ele>
        <time>2018-06-08T11:36:30Z</time>
      </trkpt>
      <trkpt lat="44.23856" lon="6.21121">
        <ele>1635</ele>
        <time>2018-06-08T11:36:33Z</time>
      </trkpt>
      <trkpt lat="44.23855" lon="6.2112">
        <ele>1634</ele>
        <time>2018-06-08T11:36:35Z</time>
      </trkpt>
      <trkpt lat="44.23854" lon="6.21118">
        <ele>1634</ele>
        <time>2018-06-08T11:36:37Z</time>
      </trkpt>
      <trkpt lat="44.23853" lon="6.21117">
        <ele>1633</ele>
        <time>2018-06-08T11:36:39Z</time>
      </trkpt>
      <trkpt lat="44.23852" lon="6.21115">
        <ele>1633</ele>
        <time>2018-06-08T11:36:41Z</time>
      </trkpt>
      <trkpt lat="44.23851" lon="6.21114">
        <ele>1632</ele>
        <time>2018-06-08T11:36:44Z</time>
      </trkpt>
      <trkpt lat="44.23851" lon="6.21112">
        <ele>1632</ele>
        <time>2018-06-08T11:36:47Z</time>
      </trkpt>
      <trkpt lat="44.23849" lon="6.21111">
        <ele>1631</ele>
        <time>2018-06-08T11:36:50Z</time>
      </trkpt>
      <trkpt lat="44.23848" lon="6.21111">
        <ele>1630</ele>
        <time>2018-06-08T11:36:54Z</time>
      </trkpt>
      <trkpt lat="44.23846" lon="6.2111">
        <ele>1630</ele>
        <time>2018-06-08T11:36:57Z</time>
      </trkpt>
      <trkpt lat="44.23845" lon="6.21109">
        <ele>1629</ele>
        <time>2018-06-08T11:36:59Z</time>
      </trkpt>
      <trkpt lat="44.23845" lon="6.21108">
        <ele>1628</ele>
        <time>2018-06-08T11:37:02Z</time>
      </trkpt>
      <trkpt lat="44.23845" lon="6.21106">
        <ele>1627</ele>
        <time>2018-06-08T11:37:06Z</time>
      </trkpt>
      <trkpt lat="44.23844" lon="6.21105">
        <ele>1626</ele>
        <time>2018-06-08T11:37:09Z</time>
      </trkpt>
      <trkpt lat="44.23842" lon="6.21104">
        <ele>1625</ele>
        <time>2018-06-08T11:37:12Z</time>
      </trkpt>
      <trkpt lat="44.23841" lon="6.21103">
        <ele>1625</ele>
        <time>2018-06-08T11:37:15Z</time>
      </trkpt>
      <trkpt lat="44.2384" lon="6.21101">
        <ele>1624</ele>
        <time>2018-06-08T11:37:18Z</time>
      </trkpt>
      <trkpt lat="44.23839" lon="6.211">
        <ele>1623</ele>
        <time>2018-06-08T11:37:21Z</time>
      </trkpt>
      <trkpt lat="44.23837" lon="6.211">
        <ele>1623</ele>
        <time>2018-06-08T11:37:24Z</time>
      </trkpt>
      <trkpt lat="44.23835" lon="6.21098">
        <ele>1622</ele>
        <time>2018-06-08T11:37:27Z</time>
      </trkpt>
      <trkpt lat="44.23834" lon="6.21097">
        <ele>1621</ele>
        <time>2018-06-08T11:37:30Z</time>
      </trkpt>
      <trkpt lat="44.23832" lon="6.21096">
        <ele>1620</ele>
        <time>2018-06-08T11:37:32Z</time>
      </trkpt>
      <trkpt lat="44.23831" lon="6.21095">
        <ele>1620</ele>
        <time>2018-06-08T11:37:35Z</time>
      </trkpt>
      <trkpt lat="44.2383" lon="6.21094">
        <ele>1620</ele>
        <time>2018-06-08T11:37:38Z</time>
      </trkpt>
      <trkpt lat="44.23829" lon="6.21092">
        <ele>1619</ele>
        <time>2018-06-08T11:37:40Z</time>
      </trkpt>
      <trkpt lat="44.23828" lon="6.2109">
        <ele>1619</ele>
        <time>2018-06-08T11:37:42Z</time>
      </trkpt>
      <trkpt lat="44.23827" lon="6.21089">
        <ele>1618</ele>
        <time>2018-06-08T11:37:45Z</time>
      </trkpt>
      <trkpt lat="44.23827" lon="6.21087">
        <ele>1618</ele>
        <time>2018-06-08T11:37:49Z</time>
      </trkpt>
      <trkpt lat="44.23826" lon="6.21086">
        <ele>1618</ele>
        <time>2018-06-08T11:37:53Z</time>
      </trkpt>
      <trkpt lat="44.23825" lon="6.21084">
        <ele>1618</ele>
        <time>2018-06-08T11:37:56Z</time>
      </trkpt>
      <trkpt lat="44.23824" lon="6.21082">
        <ele>1618</ele>
        <time>2018-06-08T11:37:59Z</time>
      </trkpt>
      <trkpt lat="44.23822" lon="6.21081">
        <ele>1618</ele>
        <time>2018-06-08T11:38:03Z</time>
      </trkpt>
      <trkpt lat="44.23821" lon="6.21081">
        <ele>1618</ele>
        <time>2018-06-08T11:38:06Z</time>
      </trkpt>
      <trkpt lat="44.2382" lon="6.2108">
        <ele>1618</ele>
        <time>2018-06-08T11:38:09Z</time>
      </trkpt>
      <trkpt lat="44.23819" lon="6.21079">
        <ele>1617</ele>
        <time>2018-06-08T11:38:14Z</time>
      </trkpt>
      <trkpt lat="44.23818" lon="6.21077">
        <ele>1616</ele>
        <time>2018-06-08T11:38:17Z</time>
      </trkpt>
      <trkpt lat="44.23817" lon="6.21076">
        <ele>1615</ele>
        <time>2018-06-08T11:38:21Z</time>
      </trkpt>
      <trkpt lat="44.23816" lon="6.21074">
        <ele>1614</ele>
        <time>2018-06-08T11:38:24Z</time>
      </trkpt>
      <trkpt lat="44.23815" lon="6.21073">
        <ele>1614</ele>
        <time>2018-06-08T11:38:26Z</time>
      </trkpt>
      <trkpt lat="44.23814" lon="6.21071">
        <ele>1614</ele>
        <time>2018-06-08T11:38:29Z</time>
      </trkpt>
      <trkpt lat="44.23813" lon="6.21069">
        <ele>1613</ele>
        <time>2018-06-08T11:38:32Z</time>
      </trkpt>
      <trkpt lat="44.23812" lon="6.21068">
        <ele>1612</ele>
        <time>2018-06-08T11:38:34Z</time>
      </trkpt>
      <trkpt lat="44.2381" lon="6.21067">
        <ele>1612</ele>
        <time>2018-06-08T11:38:37Z</time>
      </trkpt>
      <trkpt lat="44.2381" lon="6.21067">
        <ele>1611</ele>
        <time>2018-06-08T11:38:40Z</time>
      </trkpt>
      <trkpt lat="44.2381" lon="6.21065">
        <ele>1610</ele>
        <time>2018-06-08T11:38:41Z</time>
      </trkpt>
      <trkpt lat="44.23808" lon="6.21064">
        <ele>1610</ele>
        <time>2018-06-08T11:38:43Z</time>
      </trkpt>
      <trkpt lat="44.23807" lon="6.21062">
        <ele>1609</ele>
        <time>2018-06-08T11:38:46Z</time>
      </trkpt>
      <trkpt lat="44.23807" lon="6.21061">
        <ele>1609</ele>
        <time>2018-06-08T11:38:48Z</time>
      </trkpt>
      <trkpt lat="44.23806" lon="6.21059">
        <ele>1608</ele>
        <time>2018-06-08T11:38:50Z</time>
      </trkpt>
      <trkpt lat="44.23806" lon="6.21059">
        <ele>1608</ele>
        <time>2018-06-08T11:38:52Z</time>
      </trkpt>
      <trkpt lat="44.23805" lon="6.21058">
        <ele>1608</ele>
        <time>2018-06-08T11:38:53Z</time>
      </trkpt>
      <trkpt lat="44.23803" lon="6.21057">
        <ele>1607</ele>
        <time>2018-06-08T11:38:56Z</time>
      </trkpt>
      <trkpt lat="44.23802" lon="6.21055">
        <ele>1607</ele>
        <time>2018-06-08T11:38:59Z</time>
      </trkpt>
      <trkpt lat="44.23801" lon="6.21054">
        <ele>1606</ele>
        <time>2018-06-08T11:39:02Z</time>
      </trkpt>
      <trkpt lat="44.23799" lon="6.21053">
        <ele>1606</ele>
        <time>2018-06-08T11:39:04Z</time>
      </trkpt>
      <trkpt lat="44.23798" lon="6.21052">
        <ele>1605</ele>
        <time>2018-06-08T11:39:07Z</time>
      </trkpt>
      <trkpt lat="44.23797" lon="6.21051">
        <ele>1604</ele>
        <time>2018-06-08T11:39:11Z</time>
      </trkpt>
      <trkpt lat="44.23795" lon="6.21049">
        <ele>1604</ele>
        <time>2018-06-08T11:39:14Z</time>
      </trkpt>
      <trkpt lat="44.23794" lon="6.21047">
        <ele>1603</ele>
        <time>2018-06-08T11:39:17Z</time>
      </trkpt>
      <trkpt lat="44.23793" lon="6.21046">
        <ele>1602</ele>
        <time>2018-06-08T11:39:19Z</time>
      </trkpt>
      <trkpt lat="44.23791" lon="6.21045">
        <ele>1602</ele>
        <time>2018-06-08T11:39:21Z</time>
      </trkpt>
      <trkpt lat="44.2379" lon="6.21043">
        <ele>1601</ele>
        <time>2018-06-08T11:39:23Z</time>
      </trkpt>
      <trkpt lat="44.23789" lon="6.21041">
        <ele>1600</ele>
        <time>2018-06-08T11:39:25Z</time>
      </trkpt>
      <trkpt lat="44.23787" lon="6.2104">
        <ele>1600</ele>
        <time>2018-06-08T11:39:27Z</time>
      </trkpt>
      <trkpt lat="44.23785" lon="6.2104">
        <ele>1600</ele>
        <time>2018-06-08T11:39:29Z</time>
      </trkpt>
      <trkpt lat="44.23783" lon="6.21039">
        <ele>1599</ele>
        <time>2018-06-08T11:39:31Z</time>
      </trkpt>
      <trkpt lat="44.23781" lon="6.2104">
        <ele>1599</ele>
        <time>2018-06-08T11:39:33Z</time>
      </trkpt>
      <trkpt lat="44.2378" lon="6.21041">
        <ele>1599</ele>
        <time>2018-06-08T11:39:35Z</time>
      </trkpt>
      <trkpt lat="44.23778" lon="6.2104">
        <ele>1599</ele>
        <time>2018-06-08T11:39:37Z</time>
      </trkpt>
      <trkpt lat="44.23776" lon="6.2104">
        <ele>1599</ele>
        <time>2018-06-08T11:39:39Z</time>
      </trkpt>
      <trkpt lat="44.23774" lon="6.21039">
        <ele>1599</ele>
        <time>2018-06-08T11:39:41Z</time>
      </trkpt>
      <trkpt lat="44.23772" lon="6.21039">
        <ele>1599</ele>
        <time>2018-06-08T11:39:43Z</time>
      </trkpt>
      <trkpt lat="44.2377" lon="6.21038">
        <ele>1599</ele>
        <time>2018-06-08T11:39:45Z</time>
      </trkpt>
      <trkpt lat="44.23768" lon="6.21038">
        <ele>1599</ele>
        <time>2018-06-08T11:39:47Z</time>
      </trkpt>
      <trkpt lat="44.23766" lon="6.21038">
        <ele>1599</ele>
        <time>2018-06-08T11:39:49Z</time>
      </trkpt>
      <trkpt lat="44.23763" lon="6.21038">
        <ele>1599</ele>
        <time>2018-06-08T11:39:51Z</time>
      </trkpt>
      <trkpt lat="44.23761" lon="6.21037">
        <ele>1599</ele>
        <time>2018-06-08T11:39:53Z</time>
      </trkpt>
      <trkpt lat="44.23759" lon="6.21037">
        <ele>1599</ele>
        <time>2018-06-08T11:39:55Z</time>
      </trkpt>
      <trkpt lat="44.23757" lon="6.21037">
        <ele>1599</ele>
        <time>2018-06-08T11:39:57Z</time>
      </trkpt>
      <trkpt lat="44.23756" lon="6.21037">
        <ele>1599</ele>
        <time>2018-06-08T11:39:58Z</time>
      </trkpt>
      <trkpt lat="44.23754" lon="6.21037">
        <ele>1599</ele>
        <time>2018-06-08T11:40:00Z</time>
      </trkpt>
      <trkpt lat="44.23753" lon="6.21037">
        <ele>1599</ele>
        <time>2018-06-08T11:40:01Z</time>
      </trkpt>
      <trkpt lat="44.2375" lon="6.21037">
        <ele>1599</ele>
        <time>2018-06-08T11:40:03Z</time>
      </trkpt>
      <trkpt lat="44.23748" lon="6.21037">
        <ele>1599</ele>
        <time>2018-06-08T11:40:05Z</time>
      </trkpt>
      <trkpt lat="44.23746" lon="6.21036">
        <ele>1598</ele>
        <time>2018-06-08T11:40:07Z</time>
      </trkpt>
      <trkpt lat="44.23745" lon="6.21035">
        <ele>1598</ele>
        <time>2018-06-08T11:40:09Z</time>
      </trkpt>
      <trkpt lat="44.23743" lon="6.21034">
        <ele>1597</ele>
        <time>2018-06-08T11:40:11Z</time>
      </trkpt>
      <trkpt lat="44.23742" lon="6.21033">
        <ele>1597</ele>
        <time>2018-06-08T11:40:13Z</time>
      </trkpt>
      <trkpt lat="44.2374" lon="6.21032">
        <ele>1596</ele>
        <time>2018-06-08T11:40:15Z</time>
      </trkpt>
      <trkpt lat="44.23738" lon="6.21033">
        <ele>1596</ele>
        <time>2018-06-08T11:40:17Z</time>
      </trkpt>
      <trkpt lat="44.23736" lon="6.21034">
        <ele>1595</ele>
        <time>2018-06-08T11:40:19Z</time>
      </trkpt>
      <trkpt lat="44.23735" lon="6.21034">
        <ele>1595</ele>
        <time>2018-06-08T11:40:20Z</time>
      </trkpt>
      <trkpt lat="44.23733" lon="6.21035">
        <ele>1595</ele>
        <time>2018-06-08T11:40:22Z</time>
      </trkpt>
      <trkpt lat="44.23731" lon="6.21035">
        <ele>1595</ele>
        <time>2018-06-08T11:40:24Z</time>
      </trkpt>
      <trkpt lat="44.2373" lon="6.21034">
        <ele>1595</ele>
        <time>2018-06-08T11:40:25Z</time>
      </trkpt>
      <trkpt lat="44.23728" lon="6.21034">
        <ele>1594</ele>
        <time>2018-06-08T11:40:27Z</time>
      </trkpt>
      <trkpt lat="44.23726" lon="6.21033">
        <ele>1594</ele>
        <time>2018-06-08T11:40:29Z</time>
      </trkpt>
      <trkpt lat="44.23724" lon="6.21032">
        <ele>1593</ele>
        <time>2018-06-08T11:40:31Z</time>
      </trkpt>
      <trkpt lat="44.23723" lon="6.21031">
        <ele>1593</ele>
        <time>2018-06-08T11:40:33Z</time>
      </trkpt>
      <trkpt lat="44.23721" lon="6.2103">
        <ele>1592</ele>
        <time>2018-06-08T11:40:35Z</time>
      </trkpt>
      <trkpt lat="44.2372" lon="6.21029">
        <ele>1592</ele>
        <time>2018-06-08T11:40:37Z</time>
      </trkpt>
      <trkpt lat="44.23719" lon="6.21028">
        <ele>1591</ele>
        <time>2018-06-08T11:40:39Z</time>
      </trkpt>
      <trkpt lat="44.23717" lon="6.21028">
        <ele>1591</ele>
        <time>2018-06-08T11:40:41Z</time>
      </trkpt>
      <trkpt lat="44.23715" lon="6.21029">
        <ele>1591</ele>
        <time>2018-06-08T11:40:43Z</time>
      </trkpt>
      <trkpt lat="44.23713" lon="6.2103">
        <ele>1590</ele>
        <time>2018-06-08T11:40:45Z</time>
      </trkpt>
      <trkpt lat="44.23712" lon="6.2103">
        <ele>1590</ele>
        <time>2018-06-08T11:40:46Z</time>
      </trkpt>
      <trkpt lat="44.2371" lon="6.21031">
        <ele>1590</ele>
        <time>2018-06-08T11:40:48Z</time>
      </trkpt>
      <trkpt lat="44.23708" lon="6.21031">
        <ele>1590</ele>
        <time>2018-06-08T11:40:50Z</time>
      </trkpt>
      <trkpt lat="44.23707" lon="6.2103">
        <ele>1590</ele>
        <time>2018-06-08T11:40:52Z</time>
      </trkpt>
      <trkpt lat="44.23705" lon="6.21029">
        <ele>1590</ele>
        <time>2018-06-08T11:40:54Z</time>
      </trkpt>
      <trkpt lat="44.23703" lon="6.21029">
        <ele>1589</ele>
        <time>2018-06-08T11:40:56Z</time>
      </trkpt>
      <trkpt lat="44.23702" lon="6.21028">
        <ele>1589</ele>
        <time>2018-06-08T11:40:58Z</time>
      </trkpt>
      <trkpt lat="44.23701" lon="6.21026">
        <ele>1588</ele>
        <time>2018-06-08T11:41:00Z</time>
      </trkpt>
      <trkpt lat="44.237" lon="6.21025">
        <ele>1587</ele>
        <time>2018-06-08T11:41:02Z</time>
      </trkpt>
      <trkpt lat="44.23698" lon="6.21024">
        <ele>1587</ele>
        <time>2018-06-08T11:41:04Z</time>
      </trkpt>
      <trkpt lat="44.23697" lon="6.21022">
        <ele>1587</ele>
        <time>2018-06-08T11:41:06Z</time>
      </trkpt>
      <trkpt lat="44.23696" lon="6.2102">
        <ele>1586</ele>
        <time>2018-06-08T11:41:08Z</time>
      </trkpt>
      <trkpt lat="44.23695" lon="6.21019">
        <ele>1586</ele>
        <time>2018-06-08T11:41:10Z</time>
      </trkpt>
      <trkpt lat="44.23693" lon="6.21018">
        <ele>1585</ele>
        <time>2018-06-08T11:41:12Z</time>
      </trkpt>
      <trkpt lat="44.23691" lon="6.21017">
        <ele>1585</ele>
        <time>2018-06-08T11:41:14Z</time>
      </trkpt>
      <trkpt lat="44.2369" lon="6.21016">
        <ele>1584</ele>
        <time>2018-06-08T11:41:16Z</time>
      </trkpt>
      <trkpt lat="44.23689" lon="6.21015">
        <ele>1583</ele>
        <time>2018-06-08T11:41:18Z</time>
      </trkpt>
      <trkpt lat="44.23687" lon="6.21013">
        <ele>1583</ele>
        <time>2018-06-08T11:41:20Z</time>
      </trkpt>
      <trkpt lat="44.23686" lon="6.21011">
        <ele>1582</ele>
        <time>2018-06-08T11:41:22Z</time>
      </trkpt>
      <trkpt lat="44.23684" lon="6.2101">
        <ele>1582</ele>
        <time>2018-06-08T11:41:24Z</time>
      </trkpt>
      <trkpt lat="44.23683" lon="6.21008">
        <ele>1581</ele>
        <time>2018-06-08T11:41:26Z</time>
      </trkpt>
      <trkpt lat="44.23682" lon="6.21006">
        <ele>1581</ele>
        <time>2018-06-08T11:41:28Z</time>
      </trkpt>
      <trkpt lat="44.2368" lon="6.21004">
        <ele>1581</ele>
        <time>2018-06-08T11:41:30Z</time>
      </trkpt>
      <trkpt lat="44.23679" lon="6.21003">
        <ele>1581</ele>
        <time>2018-06-08T11:41:31Z</time>
      </trkpt>
      <trkpt lat="44.23677" lon="6.21002">
        <ele>1580</ele>
        <time>2018-06-08T11:41:33Z</time>
      </trkpt>
      <trkpt lat="44.23675" lon="6.21001">
        <ele>1580</ele>
        <time>2018-06-08T11:41:35Z</time>
      </trkpt>
      <trkpt lat="44.23674" lon="6.21">
        <ele>1580</ele>
        <time>2018-06-08T11:41:37Z</time>
      </trkpt>
      <trkpt lat="44.23671" lon="6.21">
        <ele>1579</ele>
        <time>2018-06-08T11:41:39Z</time>
      </trkpt>
      <trkpt lat="44.2367" lon="6.21">
        <ele>1579</ele>
        <time>2018-06-08T11:41:41Z</time>
      </trkpt>
      <trkpt lat="44.23669" lon="6.21">
        <ele>1579</ele>
        <time>2018-06-08T11:41:43Z</time>
      </trkpt>
      <trkpt lat="44.23667" lon="6.20998">
        <ele>1579</ele>
        <time>2018-06-08T11:41:45Z</time>
      </trkpt>
      <trkpt lat="44.23666" lon="6.20997">
        <ele>1578</ele>
        <time>2018-06-08T11:41:48Z</time>
      </trkpt>
      <trkpt lat="44.23664" lon="6.20996">
        <ele>1578</ele>
        <time>2018-06-08T11:41:50Z</time>
      </trkpt>
      <trkpt lat="44.23663" lon="6.20995">
        <ele>1577</ele>
        <time>2018-06-08T11:41:52Z</time>
      </trkpt>
      <trkpt lat="44.23662" lon="6.20995">
        <ele>1577</ele>
        <time>2018-06-08T11:41:54Z</time>
      </trkpt>
      <trkpt lat="44.23661" lon="6.20994">
        <ele>1576</ele>
        <time>2018-06-08T11:41:56Z</time>
      </trkpt>
      <trkpt lat="44.23659" lon="6.20994">
        <ele>1576</ele>
        <time>2018-06-08T11:41:58Z</time>
      </trkpt>
      <trkpt lat="44.23658" lon="6.20995">
        <ele>1575</ele>
        <time>2018-06-08T11:42:00Z</time>
      </trkpt>
      <trkpt lat="44.23656" lon="6.20994">
        <ele>1575</ele>
        <time>2018-06-08T11:42:02Z</time>
      </trkpt>
      <trkpt lat="44.23655" lon="6.20994">
        <ele>1575</ele>
        <time>2018-06-08T11:42:04Z</time>
      </trkpt>
      <trkpt lat="44.23654" lon="6.20993">
        <ele>1574</ele>
        <time>2018-06-08T11:42:08Z</time>
      </trkpt>
      <trkpt lat="44.23653" lon="6.20992">
        <ele>1573</ele>
        <time>2018-06-08T11:42:11Z</time>
      </trkpt>
      <trkpt lat="44.23651" lon="6.2099">
        <ele>1572</ele>
        <time>2018-06-08T11:42:14Z</time>
      </trkpt>
      <trkpt lat="44.2365" lon="6.20989">
        <ele>1572</ele>
        <time>2018-06-08T11:42:17Z</time>
      </trkpt>
      <trkpt lat="44.23649" lon="6.20987">
        <ele>1571</ele>
        <time>2018-06-08T11:42:20Z</time>
      </trkpt>
      <trkpt lat="44.23649" lon="6.20985">
        <ele>1571</ele>
        <time>2018-06-08T11:42:23Z</time>
      </trkpt>
      <trkpt lat="44.23649" lon="6.20983">
        <ele>1571</ele>
        <time>2018-06-08T11:42:25Z</time>
      </trkpt>
      <trkpt lat="44.23649" lon="6.20981">
        <ele>1570</ele>
        <time>2018-06-08T11:42:28Z</time>
      </trkpt>
      <trkpt lat="44.2365" lon="6.20979">
        <ele>1570</ele>
        <time>2018-06-08T11:42:30Z</time>
      </trkpt>
      <trkpt lat="44.2365" lon="6.20978">
        <ele>1569</ele>
        <time>2018-06-08T11:42:32Z</time>
      </trkpt>
      <trkpt lat="44.2365" lon="6.20976">
        <ele>1569</ele>
        <time>2018-06-08T11:42:34Z</time>
      </trkpt>
      <trkpt lat="44.2365" lon="6.20974">
        <ele>1569</ele>
        <time>2018-06-08T11:42:37Z</time>
      </trkpt>
      <trkpt lat="44.23649" lon="6.20973">
        <ele>1569</ele>
        <time>2018-06-08T11:42:41Z</time>
      </trkpt>
      <trkpt lat="44.23648" lon="6.20972">
        <ele>1569</ele>
        <time>2018-06-08T11:42:44Z</time>
      </trkpt>
      <trkpt lat="44.23647" lon="6.20971">
        <ele>1569</ele>
        <time>2018-06-08T11:42:47Z</time>
      </trkpt>
      <trkpt lat="44.23646" lon="6.2097">
        <ele>1569</ele>
        <time>2018-06-08T11:42:49Z</time>
      </trkpt>
      <trkpt lat="44.23645" lon="6.20969">
        <ele>1569</ele>
        <time>2018-06-08T11:42:51Z</time>
      </trkpt>
      <trkpt lat="44.23644" lon="6.20967">
        <ele>1569</ele>
        <time>2018-06-08T11:42:58Z</time>
      </trkpt>
      <trkpt lat="44.23643" lon="6.20966">
        <ele>1569</ele>
        <time>2018-06-08T11:43:03Z</time>
      </trkpt>
      <trkpt lat="44.23641" lon="6.20964">
        <ele>1569</ele>
        <time>2018-06-08T11:43:05Z</time>
      </trkpt>
      <trkpt lat="44.2364" lon="6.20962">
        <ele>1569</ele>
        <time>2018-06-08T11:43:14Z</time>
      </trkpt>
      <trkpt lat="44.23641" lon="6.2096">
        <ele>1569</ele>
        <time>2018-06-08T11:43:17Z</time>
      </trkpt>
      <trkpt lat="44.23642" lon="6.20959">
        <ele>1568</ele>
        <time>2018-06-08T11:43:20Z</time>
      </trkpt>
      <trkpt lat="44.23642" lon="6.20957">
        <ele>1567</ele>
        <time>2018-06-08T11:43:22Z</time>
      </trkpt>
      <trkpt lat="44.23643" lon="6.20956">
        <ele>1566</ele>
        <time>2018-06-08T11:43:24Z</time>
      </trkpt>
      <trkpt lat="44.23643" lon="6.20954">
        <ele>1565</ele>
        <time>2018-06-08T11:43:26Z</time>
      </trkpt>
      <trkpt lat="44.23645" lon="6.20952">
        <ele>1564</ele>
        <time>2018-06-08T11:43:29Z</time>
      </trkpt>
      <trkpt lat="44.23646" lon="6.2095">
        <ele>1563</ele>
        <time>2018-06-08T11:43:32Z</time>
      </trkpt>
      <trkpt lat="44.23647" lon="6.20948">
        <ele>1563</ele>
        <time>2018-06-08T11:43:35Z</time>
      </trkpt>
      <trkpt lat="44.23647" lon="6.20947">
        <ele>1563</ele>
        <time>2018-06-08T11:43:37Z</time>
      </trkpt>
      <trkpt lat="44.23647" lon="6.20945">
        <ele>1562</ele>
        <time>2018-06-08T11:43:39Z</time>
      </trkpt>
      <trkpt lat="44.23648" lon="6.20943">
        <ele>1562</ele>
        <time>2018-06-08T11:43:41Z</time>
      </trkpt>
      <trkpt lat="44.23648" lon="6.20941">
        <ele>1561</ele>
        <time>2018-06-08T11:43:43Z</time>
      </trkpt>
      <trkpt lat="44.23649" lon="6.2094">
        <ele>1561</ele>
        <time>2018-06-08T11:43:45Z</time>
      </trkpt>
      <trkpt lat="44.2365" lon="6.20939">
        <ele>1561</ele>
        <time>2018-06-08T11:43:47Z</time>
      </trkpt>
      <trkpt lat="44.23651" lon="6.20937">
        <ele>1561</ele>
        <time>2018-06-08T11:43:50Z</time>
      </trkpt>
      <trkpt lat="44.23652" lon="6.20935">
        <ele>1560</ele>
        <time>2018-06-08T11:43:56Z</time>
      </trkpt>
      <trkpt lat="44.23653" lon="6.20934">
        <ele>1559</ele>
        <time>2018-06-08T11:44:01Z</time>
      </trkpt>
      <trkpt lat="44.23654" lon="6.20933">
        <ele>1559</ele>
        <time>2018-06-08T11:44:03Z</time>
      </trkpt>
      <trkpt lat="44.23654" lon="6.20931">
        <ele>1559</ele>
        <time>2018-06-08T11:44:05Z</time>
      </trkpt>
      <trkpt lat="44.23655" lon="6.2093">
        <ele>1559</ele>
        <time>2018-06-08T11:44:08Z</time>
      </trkpt>
      <trkpt lat="44.23655" lon="6.20928">
        <ele>1559</ele>
        <time>2018-06-08T11:44:10Z</time>
      </trkpt>
      <trkpt lat="44.23656" lon="6.20927">
        <ele>1558</ele>
        <time>2018-06-08T11:44:14Z</time>
      </trkpt>
      <trkpt lat="44.23657" lon="6.20925">
        <ele>1558</ele>
        <time>2018-06-08T11:44:17Z</time>
      </trkpt>
      <trkpt lat="44.23657" lon="6.20923">
        <ele>1557</ele>
        <time>2018-06-08T11:44:19Z</time>
      </trkpt>
      <trkpt lat="44.23657" lon="6.20921">
        <ele>1556</ele>
        <time>2018-06-08T11:44:23Z</time>
      </trkpt>
      <trkpt lat="44.23657" lon="6.20919">
        <ele>1556</ele>
        <time>2018-06-08T11:44:25Z</time>
      </trkpt>
      <trkpt lat="44.23656" lon="6.20918">
        <ele>1556</ele>
        <time>2018-06-08T11:44:27Z</time>
      </trkpt>
      <trkpt lat="44.23655" lon="6.20916">
        <ele>1555</ele>
        <time>2018-06-08T11:44:29Z</time>
      </trkpt>
      <trkpt lat="44.23653" lon="6.20914">
        <ele>1554</ele>
        <time>2018-06-08T11:44:31Z</time>
      </trkpt>
      <trkpt lat="44.23653" lon="6.20912">
        <ele>1553</ele>
        <time>2018-06-08T11:44:33Z</time>
      </trkpt>
      <trkpt lat="44.23655" lon="6.20911">
        <ele>1553</ele>
        <time>2018-06-08T11:44:35Z</time>
      </trkpt>
      <trkpt lat="44.23655" lon="6.20909">
        <ele>1553</ele>
        <time>2018-06-08T11:44:37Z</time>
      </trkpt>
      <trkpt lat="44.23656" lon="6.20907">
        <ele>1553</ele>
        <time>2018-06-08T11:44:39Z</time>
      </trkpt>
      <trkpt lat="44.23657" lon="6.20905">
        <ele>1553</ele>
        <time>2018-06-08T11:44:42Z</time>
      </trkpt>
      <trkpt lat="44.23656" lon="6.20903">
        <ele>1553</ele>
        <time>2018-06-08T11:44:44Z</time>
      </trkpt>
      <trkpt lat="44.23656" lon="6.20901">
        <ele>1553</ele>
        <time>2018-06-08T11:44:46Z</time>
      </trkpt>
      <trkpt lat="44.23654" lon="6.20898">
        <ele>1553</ele>
        <time>2018-06-08T11:44:48Z</time>
      </trkpt>
      <trkpt lat="44.23654" lon="6.20896">
        <ele>1553</ele>
        <time>2018-06-08T11:44:49Z</time>
      </trkpt>
      <trkpt lat="44.23652" lon="6.20895">
        <ele>1552</ele>
        <time>2018-06-08T11:44:51Z</time>
      </trkpt>
      <trkpt lat="44.2365" lon="6.20894">
        <ele>1551</ele>
        <time>2018-06-08T11:44:53Z</time>
      </trkpt>
      <trkpt lat="44.23648" lon="6.20892">
        <ele>1550</ele>
        <time>2018-06-08T11:44:55Z</time>
      </trkpt>
      <trkpt lat="44.23647" lon="6.2089">
        <ele>1549</ele>
        <time>2018-06-08T11:44:57Z</time>
      </trkpt>
      <trkpt lat="44.23647" lon="6.20889">
        <ele>1549</ele>
        <time>2018-06-08T11:44:58Z</time>
      </trkpt>
      <trkpt lat="44.23647" lon="6.20886">
        <ele>1548</ele>
        <time>2018-06-08T11:45:00Z</time>
      </trkpt>
      <trkpt lat="44.23647" lon="6.20884">
        <ele>1547</ele>
        <time>2018-06-08T11:45:02Z</time>
      </trkpt>
      <trkpt lat="44.23648" lon="6.20882">
        <ele>1547</ele>
        <time>2018-06-08T11:45:04Z</time>
      </trkpt>
      <trkpt lat="44.23646" lon="6.20881">
        <ele>1545</ele>
        <time>2018-06-08T11:45:08Z</time>
      </trkpt>
      <trkpt lat="44.23645" lon="6.2088">
        <ele>1545</ele>
        <time>2018-06-08T11:45:10Z</time>
      </trkpt>
      <trkpt lat="44.23644" lon="6.20877">
        <ele>1545</ele>
        <time>2018-06-08T11:45:12Z</time>
      </trkpt>
      <trkpt lat="44.23644" lon="6.20875">
        <ele>1544</ele>
        <time>2018-06-08T11:45:14Z</time>
      </trkpt>
      <trkpt lat="44.23644" lon="6.20873">
        <ele>1544</ele>
        <time>2018-06-08T11:45:16Z</time>
      </trkpt>
      <trkpt lat="44.23643" lon="6.20871">
        <ele>1543</ele>
        <time>2018-06-08T11:45:18Z</time>
      </trkpt>
      <trkpt lat="44.23642" lon="6.20869">
        <ele>1542</ele>
        <time>2018-06-08T11:45:20Z</time>
      </trkpt>
      <trkpt lat="44.23642" lon="6.20867">
        <ele>1541</ele>
        <time>2018-06-08T11:45:22Z</time>
      </trkpt>
      <trkpt lat="44.23642" lon="6.20865">
        <ele>1541</ele>
        <time>2018-06-08T11:45:24Z</time>
      </trkpt>
      <trkpt lat="44.2364" lon="6.20864">
        <ele>1540</ele>
        <time>2018-06-08T11:45:27Z</time>
      </trkpt>
      <trkpt lat="44.23639" lon="6.20863">
        <ele>1539</ele>
        <time>2018-06-08T11:45:29Z</time>
      </trkpt>
      <trkpt lat="44.23637" lon="6.20863">
        <ele>1539</ele>
        <time>2018-06-08T11:45:31Z</time>
      </trkpt>
      <trkpt lat="44.23636" lon="6.20862">
        <ele>1538</ele>
        <time>2018-06-08T11:45:33Z</time>
      </trkpt>
      <trkpt lat="44.23634" lon="6.20863">
        <ele>1538</ele>
        <time>2018-06-08T11:45:35Z</time>
      </trkpt>
      <trkpt lat="44.23633" lon="6.20865">
        <ele>1537</ele>
        <time>2018-06-08T11:45:37Z</time>
      </trkpt>
      <trkpt lat="44.23632" lon="6.20867">
        <ele>1536</ele>
        <time>2018-06-08T11:45:39Z</time>
      </trkpt>
      <trkpt lat="44.2363" lon="6.20868">
        <ele>1535</ele>
        <time>2018-06-08T11:45:41Z</time>
      </trkpt>
      <trkpt lat="44.2363" lon="6.2087">
        <ele>1534</ele>
        <time>2018-06-08T11:45:45Z</time>
      </trkpt>
      <trkpt lat="44.23631" lon="6.20871">
        <ele>1533</ele>
        <time>2018-06-08T11:45:47Z</time>
      </trkpt>
      <trkpt lat="44.23631" lon="6.20873">
        <ele>1530</ele>
        <time>2018-06-08T11:45:50Z</time>
      </trkpt>
      <trkpt lat="44.23631" lon="6.20874">
        <ele>1528</ele>
        <time>2018-06-08T11:45:54Z</time>
      </trkpt>
      <trkpt lat="44.23631" lon="6.20874">
        <ele>1528</ele>
        <time>2018-06-08T11:46:03Z</time>
      </trkpt>
      <trkpt lat="44.23631" lon="6.20874">
        <ele>1528</ele>
        <time>2018-06-08T11:46:06Z</time>
      </trkpt>
      <trkpt lat="44.23632" lon="6.20873">
        <ele>1528</ele>
        <time>2018-06-08T11:46:08Z</time>
      </trkpt>
      <trkpt lat="44.23632" lon="6.20872">
        <ele>1528</ele>
        <time>2018-06-08T11:46:10Z</time>
      </trkpt>
      <trkpt lat="44.23631" lon="6.20869">
        <ele>1528</ele>
        <time>2018-06-08T11:46:12Z</time>
      </trkpt>
      <trkpt lat="44.2363" lon="6.20867">
        <ele>1528</ele>
        <time>2018-06-08T11:46:13Z</time>
      </trkpt>
      <trkpt lat="44.23629" lon="6.20865">
        <ele>1528</ele>
        <time>2018-06-08T11:46:15Z</time>
      </trkpt>
      <trkpt lat="44.23627" lon="6.20864">
        <ele>1528</ele>
        <time>2018-06-08T11:46:17Z</time>
      </trkpt>
      <trkpt lat="44.23626" lon="6.20861">
        <ele>1528</ele>
        <time>2018-06-08T11:46:19Z</time>
      </trkpt>
      <trkpt lat="44.23624" lon="6.2086">
        <ele>1528</ele>
        <time>2018-06-08T11:46:21Z</time>
      </trkpt>
      <trkpt lat="44.23623" lon="6.20858">
        <ele>1528</ele>
        <time>2018-06-08T11:46:22Z</time>
      </trkpt>
      <trkpt lat="44.23621" lon="6.20856">
        <ele>1528</ele>
        <time>2018-06-08T11:46:24Z</time>
      </trkpt>
      <trkpt lat="44.2362" lon="6.20855">
        <ele>1528</ele>
        <time>2018-06-08T11:46:25Z</time>
      </trkpt>
      <trkpt lat="44.2362" lon="6.20853">
        <ele>1528</ele>
        <time>2018-06-08T11:46:26Z</time>
      </trkpt>
      <trkpt lat="44.23618" lon="6.2085">
        <ele>1528</ele>
        <time>2018-06-08T11:46:28Z</time>
      </trkpt>
      <trkpt lat="44.23617" lon="6.20849">
        <ele>1528</ele>
        <time>2018-06-08T11:46:29Z</time>
      </trkpt>
      <trkpt lat="44.23616" lon="6.20847">
        <ele>1528</ele>
        <time>2018-06-08T11:46:31Z</time>
      </trkpt>
      <trkpt lat="44.23615" lon="6.20844">
        <ele>1528</ele>
        <time>2018-06-08T11:46:33Z</time>
      </trkpt>
      <trkpt lat="44.23613" lon="6.20842">
        <ele>1528</ele>
        <time>2018-06-08T11:46:35Z</time>
      </trkpt>
      <trkpt lat="44.23611" lon="6.2084">
        <ele>1528</ele>
        <time>2018-06-08T11:46:37Z</time>
      </trkpt>
      <trkpt lat="44.2361" lon="6.20837">
        <ele>1528</ele>
        <time>2018-06-08T11:46:39Z</time>
      </trkpt>
      <trkpt lat="44.23608" lon="6.20835">
        <ele>1528</ele>
        <time>2018-06-08T11:46:41Z</time>
      </trkpt>
      <trkpt lat="44.23607" lon="6.20833">
        <ele>1528</ele>
        <time>2018-06-08T11:46:43Z</time>
      </trkpt>
      <trkpt lat="44.23605" lon="6.20831">
        <ele>1528</ele>
        <time>2018-06-08T11:46:45Z</time>
      </trkpt>
      <trkpt lat="44.23605" lon="6.2083">
        <ele>1528</ele>
        <time>2018-06-08T11:46:46Z</time>
      </trkpt>
      <trkpt lat="44.23604" lon="6.20828">
        <ele>1528</ele>
        <time>2018-06-08T11:46:48Z</time>
      </trkpt>
      <trkpt lat="44.23603" lon="6.20826">
        <ele>1528</ele>
        <time>2018-06-08T11:46:50Z</time>
      </trkpt>
      <trkpt lat="44.23601" lon="6.20824">
        <ele>1528</ele>
        <time>2018-06-08T11:46:52Z</time>
      </trkpt>
      <trkpt lat="44.236" lon="6.20823">
        <ele>1528</ele>
        <time>2018-06-08T11:46:54Z</time>
      </trkpt>
      <trkpt lat="44.23598" lon="6.20822">
        <ele>1528</ele>
        <time>2018-06-08T11:46:56Z</time>
      </trkpt>
      <trkpt lat="44.23597" lon="6.20821">
        <ele>1528</ele>
        <time>2018-06-08T11:46:58Z</time>
      </trkpt>
      <trkpt lat="44.23595" lon="6.20819">
        <ele>1528</ele>
        <time>2018-06-08T11:47:01Z</time>
      </trkpt>
      <trkpt lat="44.23594" lon="6.20818">
        <ele>1528</ele>
        <time>2018-06-08T11:47:05Z</time>
      </trkpt>
      <trkpt lat="44.23595" lon="6.20819">
        <ele>1528</ele>
        <time>2018-06-08T11:47:13Z</time>
      </trkpt>
      <trkpt lat="44.23595" lon="6.20819">
        <ele>1528</ele>
        <time>2018-06-08T11:47:20Z</time>
      </trkpt>
      <trkpt lat="44.23596" lon="6.20817">
        <ele>1528</ele>
        <time>2018-06-08T11:47:21Z</time>
      </trkpt>
      <trkpt lat="44.23596" lon="6.20817">
        <ele>1528</ele>
        <time>2018-06-08T11:47:25Z</time>
      </trkpt>
      <trkpt lat="44.23597" lon="6.20818">
        <ele>1528</ele>
        <time>2018-06-08T11:47:29Z</time>
      </trkpt>
      <trkpt lat="44.23597" lon="6.20818">
        <ele>1529</ele>
        <time>2018-06-08T11:47:41Z</time>
      </trkpt>
      <trkpt lat="44.23597" lon="6.20819">
        <ele>1529</ele>
        <time>2018-06-08T11:47:46Z</time>
      </trkpt>
      <trkpt lat="44.23597" lon="6.20819">
        <ele>1529</ele>
        <time>2018-06-08T11:47:54Z</time>
      </trkpt>
      <trkpt lat="44.23597" lon="6.20819">
        <ele>1529</ele>
        <time>2018-06-08T11:48:04Z</time>
      </trkpt>
      <trkpt lat="44.23597" lon="6.20819">
        <ele>1529</ele>
        <time>2018-06-08T11:48:14Z</time>
      </trkpt>
      <trkpt lat="44.23597" lon="6.20819">
        <ele>1529</ele>
        <time>2018-06-08T11:48:31Z</time>
      </trkpt>
      <trkpt lat="44.23597" lon="6.20819">
        <ele>1529</ele>
        <time>2018-06-08T11:48:47Z</time>
      </trkpt>
      <trkpt lat="44.23597" lon="6.20819">
        <ele>1529</ele>
        <time>2018-06-08T11:48:52Z</time>
      </trkpt>
      <trkpt lat="44.23597" lon="6.20819">
        <ele>1530</ele>
        <time>2018-06-08T11:48:55Z</time>
      </trkpt>
      <trkpt lat="44.23597" lon="6.20819">
        <ele>1530</ele>
        <time>2018-06-08T11:48:58Z</time>
      </trkpt>
      <trkpt lat="44.23596" lon="6.20818">
        <ele>1531</ele>
        <time>2018-06-08T11:49:00Z</time>
      </trkpt>
      <trkpt lat="44.23595" lon="6.2082">
        <ele>1531</ele>
        <time>2018-06-08T11:49:24Z</time>
      </trkpt>
      <trkpt lat="44.23596" lon="6.20821">
        <ele>1531</ele>
        <time>2018-06-08T11:49:31Z</time>
      </trkpt>
      <trkpt lat="44.23595" lon="6.20822">
        <ele>1531</ele>
        <time>2018-06-08T11:49:46Z</time>
      </trkpt>
      <trkpt lat="44.23594" lon="6.20823">
        <ele>1531</ele>
        <time>2018-06-08T11:49:50Z</time>
      </trkpt>
      <trkpt lat="44.23593" lon="6.20824">
        <ele>1531</ele>
        <time>2018-06-08T11:49:57Z</time>
      </trkpt>
      <trkpt lat="44.23593" lon="6.20823">
        <ele>1531</ele>
        <time>2018-06-08T11:50:02Z</time>
      </trkpt>
      <trkpt lat="44.23594" lon="6.20822">
        <ele>1531</ele>
        <time>2018-06-08T11:50:11Z</time>
      </trkpt>
      <trkpt lat="44.23595" lon="6.2082">
        <ele>1531</ele>
        <time>2018-06-08T11:50:26Z</time>
      </trkpt>
      <trkpt lat="44.23592" lon="6.20819">
        <ele>1531</ele>
        <time>2018-06-08T11:50:33Z</time>
      </trkpt>
      <trkpt lat="44.23595" lon="6.20819">
        <ele>1531</ele>
        <time>2018-06-08T11:50:37Z</time>
      </trkpt>
      <trkpt lat="44.23596" lon="6.2082">
        <ele>1531</ele>
        <time>2018-06-08T11:50:41Z</time>
      </trkpt>
      <trkpt lat="44.23597" lon="6.20821">
        <ele>1531</ele>
        <time>2018-06-08T11:50:48Z</time>
      </trkpt>
      <trkpt lat="44.23598" lon="6.20821">
        <ele>1531</ele>
        <time>2018-06-08T11:51:00Z</time>
      </trkpt>
      <trkpt lat="44.23599" lon="6.20821">
        <ele>1530</ele>
        <time>2018-06-08T11:51:02Z</time>
      </trkpt>
      <trkpt lat="44.23601" lon="6.2082">
        <ele>1529</ele>
        <time>2018-06-08T11:51:04Z</time>
      </trkpt>
      <trkpt lat="44.236" lon="6.20819">
        <ele>1526</ele>
        <time>2018-06-08T11:51:07Z</time>
      </trkpt>
      <trkpt lat="44.23598" lon="6.20818">
        <ele>1524</ele>
        <time>2018-06-08T11:51:09Z</time>
      </trkpt>
      <trkpt lat="44.23597" lon="6.20818">
        <ele>1522</ele>
        <time>2018-06-08T11:51:13Z</time>
      </trkpt>
      <trkpt lat="44.23595" lon="6.20817">
        <ele>1522</ele>
        <time>2018-06-08T11:51:16Z</time>
      </trkpt>
      <trkpt lat="44.23594" lon="6.20816">
        <ele>1522</ele>
        <time>2018-06-08T11:51:18Z</time>
      </trkpt>
      <trkpt lat="44.23593" lon="6.20815">
        <ele>1522</ele>
        <time>2018-06-08T11:51:20Z</time>
      </trkpt>
      <trkpt lat="44.23592" lon="6.20814">
        <ele>1522</ele>
        <time>2018-06-08T11:51:22Z</time>
      </trkpt>
      <trkpt lat="44.2359" lon="6.20812">
        <ele>1522</ele>
        <time>2018-06-08T11:51:24Z</time>
      </trkpt>
      <trkpt lat="44.23589" lon="6.2081">
        <ele>1522</ele>
        <time>2018-06-08T11:51:26Z</time>
      </trkpt>
      <trkpt lat="44.23589" lon="6.20808">
        <ele>1522</ele>
        <time>2018-06-08T11:51:28Z</time>
      </trkpt>
      <trkpt lat="44.23588" lon="6.20806">
        <ele>1522</ele>
        <time>2018-06-08T11:51:30Z</time>
      </trkpt>
      <trkpt lat="44.23587" lon="6.20803">
        <ele>1522</ele>
        <time>2018-06-08T11:51:32Z</time>
      </trkpt>
      <trkpt lat="44.23586" lon="6.20802">
        <ele>1522</ele>
        <time>2018-06-08T11:51:34Z</time>
      </trkpt>
      <trkpt lat="44.23585" lon="6.208">
        <ele>1522</ele>
        <time>2018-06-08T11:51:37Z</time>
      </trkpt>
      <trkpt lat="44.23583" lon="6.20799">
        <ele>1522</ele>
        <time>2018-06-08T11:51:39Z</time>
      </trkpt>
      <trkpt lat="44.23581" lon="6.20798">
        <ele>1523</ele>
        <time>2018-06-08T11:51:41Z</time>
      </trkpt>
      <trkpt lat="44.23579" lon="6.20797">
        <ele>1523</ele>
        <time>2018-06-08T11:51:43Z</time>
      </trkpt>
      <trkpt lat="44.23578" lon="6.20796">
        <ele>1523</ele>
        <time>2018-06-08T11:51:45Z</time>
      </trkpt>
      <trkpt lat="44.23577" lon="6.20796">
        <ele>1523</ele>
        <time>2018-06-08T11:51:47Z</time>
      </trkpt>
      <trkpt lat="44.23575" lon="6.20795">
        <ele>1523</ele>
        <time>2018-06-08T11:51:49Z</time>
      </trkpt>
      <trkpt lat="44.23574" lon="6.20795">
        <ele>1523</ele>
        <time>2018-06-08T11:51:51Z</time>
      </trkpt>
      <trkpt lat="44.23573" lon="6.20794">
        <ele>1524</ele>
        <time>2018-06-08T11:51:53Z</time>
      </trkpt>
      <trkpt lat="44.23571" lon="6.20793">
        <ele>1524</ele>
        <time>2018-06-08T11:51:55Z</time>
      </trkpt>
      <trkpt lat="44.2357" lon="6.20791">
        <ele>1524</ele>
        <time>2018-06-08T11:51:57Z</time>
      </trkpt>
      <trkpt lat="44.23568" lon="6.20789">
        <ele>1524</ele>
        <time>2018-06-08T11:51:59Z</time>
      </trkpt>
      <trkpt lat="44.23567" lon="6.20787">
        <ele>1524</ele>
        <time>2018-06-08T11:52:01Z</time>
      </trkpt>
      <trkpt lat="44.23565" lon="6.20785">
        <ele>1524</ele>
        <time>2018-06-08T11:52:03Z</time>
      </trkpt>
      <trkpt lat="44.23564" lon="6.20783">
        <ele>1524</ele>
        <time>2018-06-08T11:52:05Z</time>
      </trkpt>
      <trkpt lat="44.23562" lon="6.20781">
        <ele>1524</ele>
        <time>2018-06-08T11:52:07Z</time>
      </trkpt>
      <trkpt lat="44.23561" lon="6.20779">
        <ele>1524</ele>
        <time>2018-06-08T11:52:09Z</time>
      </trkpt>
      <trkpt lat="44.23559" lon="6.20777">
        <ele>1524</ele>
        <time>2018-06-08T11:52:11Z</time>
      </trkpt>
      <trkpt lat="44.23558" lon="6.20776">
        <ele>1524</ele>
        <time>2018-06-08T11:52:13Z</time>
      </trkpt>
      <trkpt lat="44.23558" lon="6.20774">
        <ele>1524</ele>
        <time>2018-06-08T11:52:15Z</time>
      </trkpt>
      <trkpt lat="44.23557" lon="6.20772">
        <ele>1524</ele>
        <time>2018-06-08T11:52:17Z</time>
      </trkpt>
      <trkpt lat="44.23556" lon="6.2077">
        <ele>1524</ele>
        <time>2018-06-08T11:52:19Z</time>
      </trkpt>
      <trkpt lat="44.23555" lon="6.20768">
        <ele>1524</ele>
        <time>2018-06-08T11:52:21Z</time>
      </trkpt>
      <trkpt lat="44.23554" lon="6.20766">
        <ele>1524</ele>
        <time>2018-06-08T11:52:23Z</time>
      </trkpt>
      <trkpt lat="44.23553" lon="6.20764">
        <ele>1524</ele>
        <time>2018-06-08T11:52:25Z</time>
      </trkpt>
      <trkpt lat="44.23552" lon="6.20763">
        <ele>1524</ele>
        <time>2018-06-08T11:52:26Z</time>
      </trkpt>
      <trkpt lat="44.2355" lon="6.20761">
        <ele>1524</ele>
        <time>2018-06-08T11:52:28Z</time>
      </trkpt>
      <trkpt lat="44.23549" lon="6.2076">
        <ele>1524</ele>
        <time>2018-06-08T11:52:29Z</time>
      </trkpt>
      <trkpt lat="44.23548" lon="6.2076">
        <ele>1524</ele>
        <time>2018-06-08T11:52:30Z</time>
      </trkpt>
      <trkpt lat="44.23545" lon="6.20761">
        <ele>1524</ele>
        <time>2018-06-08T11:52:32Z</time>
      </trkpt>
      <trkpt lat="44.23544" lon="6.20761">
        <ele>1524</ele>
        <time>2018-06-08T11:52:33Z</time>
      </trkpt>
      <trkpt lat="44.23543" lon="6.20762">
        <ele>1524</ele>
        <time>2018-06-08T11:52:34Z</time>
      </trkpt>
      <trkpt lat="44.23541" lon="6.20762">
        <ele>1524</ele>
        <time>2018-06-08T11:52:35Z</time>
      </trkpt>
      <trkpt lat="44.23539" lon="6.20761">
        <ele>1524</ele>
        <time>2018-06-08T11:52:37Z</time>
      </trkpt>
      <trkpt lat="44.23538" lon="6.20761">
        <ele>1524</ele>
        <time>2018-06-08T11:52:39Z</time>
      </trkpt>
      <trkpt lat="44.23536" lon="6.20761">
        <ele>1524</ele>
        <time>2018-06-08T11:52:41Z</time>
      </trkpt>
      <trkpt lat="44.23534" lon="6.2076">
        <ele>1523</ele>
        <time>2018-06-08T11:52:43Z</time>
      </trkpt>
      <trkpt lat="44.23532" lon="6.20759">
        <ele>1522</ele>
        <time>2018-06-08T11:52:45Z</time>
      </trkpt>
      <trkpt lat="44.2353" lon="6.20759">
        <ele>1521</ele>
        <time>2018-06-08T11:52:47Z</time>
      </trkpt>
      <trkpt lat="44.23528" lon="6.20759">
        <ele>1521</ele>
        <time>2018-06-08T11:52:49Z</time>
      </trkpt>
      <trkpt lat="44.23526" lon="6.20759">
        <ele>1520</ele>
        <time>2018-06-08T11:52:51Z</time>
      </trkpt>
      <trkpt lat="44.23524" lon="6.20759">
        <ele>1519</ele>
        <time>2018-06-08T11:52:53Z</time>
      </trkpt>
      <trkpt lat="44.23523" lon="6.20759">
        <ele>1519</ele>
        <time>2018-06-08T11:52:54Z</time>
      </trkpt>
      <trkpt lat="44.23521" lon="6.20759">
        <ele>1518</ele>
        <time>2018-06-08T11:52:56Z</time>
      </trkpt>
      <trkpt lat="44.23519" lon="6.20759">
        <ele>1517</ele>
        <time>2018-06-08T11:52:58Z</time>
      </trkpt>
      <trkpt lat="44.23517" lon="6.20759">
        <ele>1516</ele>
        <time>2018-06-08T11:53:00Z</time>
      </trkpt>
      <trkpt lat="44.23515" lon="6.20757">
        <ele>1515</ele>
        <time>2018-06-08T11:53:02Z</time>
      </trkpt>
      <trkpt lat="44.23513" lon="6.20756">
        <ele>1515</ele>
        <time>2018-06-08T11:53:04Z</time>
      </trkpt>
      <trkpt lat="44.23511" lon="6.20754">
        <ele>1514</ele>
        <time>2018-06-08T11:53:06Z</time>
      </trkpt>
      <trkpt lat="44.2351" lon="6.20753">
        <ele>1513</ele>
        <time>2018-06-08T11:53:08Z</time>
      </trkpt>
      <trkpt lat="44.23508" lon="6.20753">
        <ele>1512</ele>
        <time>2018-06-08T11:53:10Z</time>
      </trkpt>
      <trkpt lat="44.23505" lon="6.20752">
        <ele>1512</ele>
        <time>2018-06-08T11:53:12Z</time>
      </trkpt>
      <trkpt lat="44.23503" lon="6.20752">
        <ele>1511</ele>
        <time>2018-06-08T11:53:14Z</time>
      </trkpt>
      <trkpt lat="44.23502" lon="6.20752">
        <ele>1511</ele>
        <time>2018-06-08T11:53:15Z</time>
      </trkpt>
      <trkpt lat="44.235" lon="6.20753">
        <ele>1510</ele>
        <time>2018-06-08T11:53:17Z</time>
      </trkpt>
      <trkpt lat="44.23499" lon="6.20754">
        <ele>1510</ele>
        <time>2018-06-08T11:53:19Z</time>
      </trkpt>
      <trkpt lat="44.23497" lon="6.20754">
        <ele>1508</ele>
        <time>2018-06-08T11:53:21Z</time>
      </trkpt>
      <trkpt lat="44.23495" lon="6.20753">
        <ele>1507</ele>
        <time>2018-06-08T11:53:23Z</time>
      </trkpt>
      <trkpt lat="44.23493" lon="6.20753">
        <ele>1506</ele>
        <time>2018-06-08T11:53:25Z</time>
      </trkpt>
      <trkpt lat="44.23492" lon="6.20753">
        <ele>1505</ele>
        <time>2018-06-08T11:53:26Z</time>
      </trkpt>
      <trkpt lat="44.23491" lon="6.20753">
        <ele>1504</ele>
        <time>2018-06-08T11:53:27Z</time>
      </trkpt>
      <trkpt lat="44.23489" lon="6.20753">
        <ele>1504</ele>
        <time>2018-06-08T11:53:28Z</time>
      </trkpt>
      <trkpt lat="44.23487" lon="6.20754">
        <ele>1503</ele>
        <time>2018-06-08T11:53:29Z</time>
      </trkpt>
      <trkpt lat="44.23486" lon="6.20754">
        <ele>1503</ele>
        <time>2018-06-08T11:53:30Z</time>
      </trkpt>
      <trkpt lat="44.23485" lon="6.20754">
        <ele>1503</ele>
        <time>2018-06-08T11:53:31Z</time>
      </trkpt>
      <trkpt lat="44.23484" lon="6.20755">
        <ele>1503</ele>
        <time>2018-06-08T11:53:32Z</time>
      </trkpt>
      <trkpt lat="44.23482" lon="6.20755">
        <ele>1503</ele>
        <time>2018-06-08T11:53:34Z</time>
      </trkpt>
      <trkpt lat="44.2348" lon="6.20755">
        <ele>1503</ele>
        <time>2018-06-08T11:53:36Z</time>
      </trkpt>
      <trkpt lat="44.23478" lon="6.20755">
        <ele>1503</ele>
        <time>2018-06-08T11:53:38Z</time>
      </trkpt>
      <trkpt lat="44.23476" lon="6.20755">
        <ele>1503</ele>
        <time>2018-06-08T11:53:40Z</time>
      </trkpt>
      <trkpt lat="44.23475" lon="6.20754">
        <ele>1502</ele>
        <time>2018-06-08T11:53:42Z</time>
      </trkpt>
      <trkpt lat="44.23473" lon="6.20753">
        <ele>1502</ele>
        <time>2018-06-08T11:53:44Z</time>
      </trkpt>
      <trkpt lat="44.23472" lon="6.20751">
        <ele>1502</ele>
        <time>2018-06-08T11:53:46Z</time>
      </trkpt>
      <trkpt lat="44.23471" lon="6.2075">
        <ele>1501</ele>
        <time>2018-06-08T11:53:48Z</time>
      </trkpt>
      <trkpt lat="44.23469" lon="6.20749">
        <ele>1501</ele>
        <time>2018-06-08T11:53:50Z</time>
      </trkpt>
      <trkpt lat="44.23468" lon="6.20748">
        <ele>1500</ele>
        <time>2018-06-08T11:53:52Z</time>
      </trkpt>
      <trkpt lat="44.23466" lon="6.20747">
        <ele>1500</ele>
        <time>2018-06-08T11:53:54Z</time>
      </trkpt>
      <trkpt lat="44.23465" lon="6.20748">
        <ele>1499</ele>
        <time>2018-06-08T11:53:56Z</time>
      </trkpt>
      <trkpt lat="44.23463" lon="6.20747">
        <ele>1499</ele>
        <time>2018-06-08T11:53:58Z</time>
      </trkpt>
      <trkpt lat="44.23462" lon="6.20746">
        <ele>1498</ele>
        <time>2018-06-08T11:54:00Z</time>
      </trkpt>
      <trkpt lat="44.2346" lon="6.20744">
        <ele>1498</ele>
        <time>2018-06-08T11:54:02Z</time>
      </trkpt>
      <trkpt lat="44.23458" lon="6.20743">
        <ele>1497</ele>
        <time>2018-06-08T11:54:04Z</time>
      </trkpt>
      <trkpt lat="44.23456" lon="6.20741">
        <ele>1496</ele>
        <time>2018-06-08T11:54:06Z</time>
      </trkpt>
      <trkpt lat="44.23455" lon="6.2074">
        <ele>1496</ele>
        <time>2018-06-08T11:54:08Z</time>
      </trkpt>
      <trkpt lat="44.23453" lon="6.2074">
        <ele>1496</ele>
        <time>2018-06-08T11:54:09Z</time>
      </trkpt>
      <trkpt lat="44.23451" lon="6.20738">
        <ele>1496</ele>
        <time>2018-06-08T11:54:11Z</time>
      </trkpt>
      <trkpt lat="44.23449" lon="6.20737">
        <ele>1495</ele>
        <time>2018-06-08T11:54:13Z</time>
      </trkpt>
      <trkpt lat="44.23448" lon="6.20736">
        <ele>1494</ele>
        <time>2018-06-08T11:54:15Z</time>
      </trkpt>
      <trkpt lat="44.23446" lon="6.20735">
        <ele>1493</ele>
        <time>2018-06-08T11:54:17Z</time>
      </trkpt>
      <trkpt lat="44.23444" lon="6.20733">
        <ele>1493</ele>
        <time>2018-06-08T11:54:19Z</time>
      </trkpt>
      <trkpt lat="44.23442" lon="6.20733">
        <ele>1492</ele>
        <time>2018-06-08T11:54:21Z</time>
      </trkpt>
      <trkpt lat="44.2344" lon="6.20732">
        <ele>1492</ele>
        <time>2018-06-08T11:54:23Z</time>
      </trkpt>
      <trkpt lat="44.23439" lon="6.20731">
        <ele>1492</ele>
        <time>2018-06-08T11:54:25Z</time>
      </trkpt>
      <trkpt lat="44.23436" lon="6.20731">
        <ele>1492</ele>
        <time>2018-06-08T11:54:27Z</time>
      </trkpt>
      <trkpt lat="44.23434" lon="6.20729">
        <ele>1492</ele>
        <time>2018-06-08T11:54:29Z</time>
      </trkpt>
      <trkpt lat="44.23433" lon="6.20728">
        <ele>1491</ele>
        <time>2018-06-08T11:54:31Z</time>
      </trkpt>
      <trkpt lat="44.23431" lon="6.20726">
        <ele>1490</ele>
        <time>2018-06-08T11:54:33Z</time>
      </trkpt>
      <trkpt lat="44.2343" lon="6.20724">
        <ele>1490</ele>
        <time>2018-06-08T11:54:35Z</time>
      </trkpt>
      <trkpt lat="44.23428" lon="6.20721">
        <ele>1489</ele>
        <time>2018-06-08T11:54:37Z</time>
      </trkpt>
      <trkpt lat="44.23428" lon="6.2072">
        <ele>1489</ele>
        <time>2018-06-08T11:54:38Z</time>
      </trkpt>
      <trkpt lat="44.23427" lon="6.20717">
        <ele>1489</ele>
        <time>2018-06-08T11:54:40Z</time>
      </trkpt>
      <trkpt lat="44.23425" lon="6.20716">
        <ele>1488</ele>
        <time>2018-06-08T11:54:42Z</time>
      </trkpt>
      <trkpt lat="44.23424" lon="6.20713">
        <ele>1488</ele>
        <time>2018-06-08T11:54:44Z</time>
      </trkpt>
      <trkpt lat="44.23421" lon="6.20712">
        <ele>1488</ele>
        <time>2018-06-08T11:54:46Z</time>
      </trkpt>
      <trkpt lat="44.2342" lon="6.20712">
        <ele>1487</ele>
        <time>2018-06-08T11:54:47Z</time>
      </trkpt>
      <trkpt lat="44.23419" lon="6.20711">
        <ele>1487</ele>
        <time>2018-06-08T11:54:48Z</time>
      </trkpt>
      <trkpt lat="44.23418" lon="6.20711">
        <ele>1487</ele>
        <time>2018-06-08T11:54:49Z</time>
      </trkpt>
      <trkpt lat="44.23416" lon="6.20709">
        <ele>1486</ele>
        <time>2018-06-08T11:54:51Z</time>
      </trkpt>
      <trkpt lat="44.23415" lon="6.20708">
        <ele>1486</ele>
        <time>2018-06-08T11:54:53Z</time>
      </trkpt>
      <trkpt lat="44.23413" lon="6.20706">
        <ele>1485</ele>
        <time>2018-06-08T11:54:55Z</time>
      </trkpt>
      <trkpt lat="44.23411" lon="6.20704">
        <ele>1485</ele>
        <time>2018-06-08T11:54:57Z</time>
      </trkpt>
      <trkpt lat="44.23409" lon="6.20703">
        <ele>1484</ele>
        <time>2018-06-08T11:54:59Z</time>
      </trkpt>
      <trkpt lat="44.23407" lon="6.20701">
        <ele>1484</ele>
        <time>2018-06-08T11:55:01Z</time>
      </trkpt>
      <trkpt lat="44.23405" lon="6.207">
        <ele>1483</ele>
        <time>2018-06-08T11:55:03Z</time>
      </trkpt>
      <trkpt lat="44.23403" lon="6.20698">
        <ele>1482</ele>
        <time>2018-06-08T11:55:05Z</time>
      </trkpt>
      <trkpt lat="44.23401" lon="6.20697">
        <ele>1482</ele>
        <time>2018-06-08T11:55:07Z</time>
      </trkpt>
      <trkpt lat="44.23399" lon="6.20695">
        <ele>1481</ele>
        <time>2018-06-08T11:55:09Z</time>
      </trkpt>
      <trkpt lat="44.23397" lon="6.20693">
        <ele>1480</ele>
        <time>2018-06-08T11:55:11Z</time>
      </trkpt>
      <trkpt lat="44.23396" lon="6.20691">
        <ele>1480</ele>
        <time>2018-06-08T11:55:13Z</time>
      </trkpt>
      <trkpt lat="44.23394" lon="6.20689">
        <ele>1480</ele>
        <time>2018-06-08T11:55:15Z</time>
      </trkpt>
      <trkpt lat="44.23392" lon="6.20687">
        <ele>1480</ele>
        <time>2018-06-08T11:55:17Z</time>
      </trkpt>
      <trkpt lat="44.2339" lon="6.20684">
        <ele>1479</ele>
        <time>2018-06-08T11:55:19Z</time>
      </trkpt>
      <trkpt lat="44.23389" lon="6.20683">
        <ele>1479</ele>
        <time>2018-06-08T11:55:20Z</time>
      </trkpt>
      <trkpt lat="44.23388" lon="6.20681">
        <ele>1479</ele>
        <time>2018-06-08T11:55:22Z</time>
      </trkpt>
      <trkpt lat="44.23386" lon="6.20678">
        <ele>1478</ele>
        <time>2018-06-08T11:55:24Z</time>
      </trkpt>
      <trkpt lat="44.23384" lon="6.20676">
        <ele>1478</ele>
        <time>2018-06-08T11:55:26Z</time>
      </trkpt>
      <trkpt lat="44.23382" lon="6.20673">
        <ele>1478</ele>
        <time>2018-06-08T11:55:28Z</time>
      </trkpt>
      <trkpt lat="44.2338" lon="6.20671">
        <ele>1478</ele>
        <time>2018-06-08T11:55:30Z</time>
      </trkpt>
      <trkpt lat="44.2338" lon="6.20669">
        <ele>1478</ele>
        <time>2018-06-08T11:55:31Z</time>
      </trkpt>
      <trkpt lat="44.23378" lon="6.20667">
        <ele>1477</ele>
        <time>2018-06-08T11:55:33Z</time>
      </trkpt>
      <trkpt lat="44.23376" lon="6.20666">
        <ele>1477</ele>
        <time>2018-06-08T11:55:35Z</time>
      </trkpt>
      <trkpt lat="44.23375" lon="6.20664">
        <ele>1477</ele>
        <time>2018-06-08T11:55:37Z</time>
      </trkpt>
      <trkpt lat="44.23373" lon="6.20662">
        <ele>1477</ele>
        <time>2018-06-08T11:55:39Z</time>
      </trkpt>
      <trkpt lat="44.23372" lon="6.20661">
        <ele>1476</ele>
        <time>2018-06-08T11:55:40Z</time>
      </trkpt>
      <trkpt lat="44.2337" lon="6.2066">
        <ele>1476</ele>
        <time>2018-06-08T11:55:42Z</time>
      </trkpt>
      <trkpt lat="44.23368" lon="6.20658">
        <ele>1476</ele>
        <time>2018-06-08T11:55:44Z</time>
      </trkpt>
      <trkpt lat="44.23366" lon="6.20656">
        <ele>1476</ele>
        <time>2018-06-08T11:55:46Z</time>
      </trkpt>
      <trkpt lat="44.23364" lon="6.20654">
        <ele>1476</ele>
        <time>2018-06-08T11:55:48Z</time>
      </trkpt>
      <trkpt lat="44.23362" lon="6.20652">
        <ele>1476</ele>
        <time>2018-06-08T11:55:50Z</time>
      </trkpt>
      <trkpt lat="44.23361" lon="6.2065">
        <ele>1474</ele>
        <time>2018-06-08T11:55:52Z</time>
      </trkpt>
      <trkpt lat="44.23359" lon="6.20648">
        <ele>1473</ele>
        <time>2018-06-08T11:55:54Z</time>
      </trkpt>
      <trkpt lat="44.23357" lon="6.20646">
        <ele>1473</ele>
        <time>2018-06-08T11:55:56Z</time>
      </trkpt>
      <trkpt lat="44.23355" lon="6.20644">
        <ele>1472</ele>
        <time>2018-06-08T11:55:58Z</time>
      </trkpt>
      <trkpt lat="44.23354" lon="6.20642">
        <ele>1472</ele>
        <time>2018-06-08T11:56:00Z</time>
      </trkpt>
      <trkpt lat="44.23352" lon="6.2064">
        <ele>1472</ele>
        <time>2018-06-08T11:56:02Z</time>
      </trkpt>
      <trkpt lat="44.2335" lon="6.20638">
        <ele>1472</ele>
        <time>2018-06-08T11:56:04Z</time>
      </trkpt>
      <trkpt lat="44.23348" lon="6.20637">
        <ele>1471</ele>
        <time>2018-06-08T11:56:06Z</time>
      </trkpt>
      <trkpt lat="44.23346" lon="6.20635">
        <ele>1471</ele>
        <time>2018-06-08T11:56:08Z</time>
      </trkpt>
      <trkpt lat="44.23345" lon="6.20633">
        <ele>1471</ele>
        <time>2018-06-08T11:56:10Z</time>
      </trkpt>
      <trkpt lat="44.23343" lon="6.20631">
        <ele>1471</ele>
        <time>2018-06-08T11:56:12Z</time>
      </trkpt>
      <trkpt lat="44.23341" lon="6.20629">
        <ele>1471</ele>
        <time>2018-06-08T11:56:14Z</time>
      </trkpt>
      <trkpt lat="44.23339" lon="6.20627">
        <ele>1471</ele>
        <time>2018-06-08T11:56:16Z</time>
      </trkpt>
      <trkpt lat="44.23338" lon="6.20625">
        <ele>1471</ele>
        <time>2018-06-08T11:56:18Z</time>
      </trkpt>
      <trkpt lat="44.23336" lon="6.20622">
        <ele>1471</ele>
        <time>2018-06-08T11:56:20Z</time>
      </trkpt>
      <trkpt lat="44.23335" lon="6.2062">
        <ele>1471</ele>
        <time>2018-06-08T11:56:22Z</time>
      </trkpt>
      <trkpt lat="44.23333" lon="6.20618">
        <ele>1471</ele>
        <time>2018-06-08T11:56:24Z</time>
      </trkpt>
      <trkpt lat="44.23331" lon="6.20616">
        <ele>1471</ele>
        <time>2018-06-08T11:56:26Z</time>
      </trkpt>
      <trkpt lat="44.2333" lon="6.20614">
        <ele>1471</ele>
        <time>2018-06-08T11:56:28Z</time>
      </trkpt>
      <trkpt lat="44.23328" lon="6.20612">
        <ele>1470</ele>
        <time>2018-06-08T11:56:30Z</time>
      </trkpt>
      <trkpt lat="44.23326" lon="6.2061">
        <ele>1470</ele>
        <time>2018-06-08T11:56:32Z</time>
      </trkpt>
      <trkpt lat="44.23325" lon="6.20609">
        <ele>1470</ele>
        <time>2018-06-08T11:56:33Z</time>
      </trkpt>
      <trkpt lat="44.23323" lon="6.20606">
        <ele>1470</ele>
        <time>2018-06-08T11:56:35Z</time>
      </trkpt>
      <trkpt lat="44.23322" lon="6.20605">
        <ele>1470</ele>
        <time>2018-06-08T11:56:37Z</time>
      </trkpt>
      <trkpt lat="44.2332" lon="6.20604">
        <ele>1470</ele>
        <time>2018-06-08T11:56:38Z</time>
      </trkpt>
      <trkpt lat="44.23319" lon="6.20603">
        <ele>1470</ele>
        <time>2018-06-08T11:56:40Z</time>
      </trkpt>
      <trkpt lat="44.23317" lon="6.20602">
        <ele>1470</ele>
        <time>2018-06-08T11:56:42Z</time>
      </trkpt>
      <trkpt lat="44.23315" lon="6.20601">
        <ele>1470</ele>
        <time>2018-06-08T11:56:44Z</time>
      </trkpt>
      <trkpt lat="44.23314" lon="6.206">
        <ele>1470</ele>
        <time>2018-06-08T11:56:46Z</time>
      </trkpt>
      <trkpt lat="44.23312" lon="6.20599">
        <ele>1470</ele>
        <time>2018-06-08T11:56:48Z</time>
      </trkpt>
      <trkpt lat="44.2331" lon="6.20598">
        <ele>1470</ele>
        <time>2018-06-08T11:56:50Z</time>
      </trkpt>
      <trkpt lat="44.23309" lon="6.20598">
        <ele>1469</ele>
        <time>2018-06-08T11:56:52Z</time>
      </trkpt>
      <trkpt lat="44.23307" lon="6.20596">
        <ele>1469</ele>
        <time>2018-06-08T11:56:54Z</time>
      </trkpt>
      <trkpt lat="44.23305" lon="6.20597">
        <ele>1468</ele>
        <time>2018-06-08T11:56:56Z</time>
      </trkpt>
      <trkpt lat="44.23305" lon="6.20599">
        <ele>1467</ele>
        <time>2018-06-08T11:57:04Z</time>
      </trkpt>
      <trkpt lat="44.23306" lon="6.20597">
        <ele>1467</ele>
        <time>2018-06-08T11:57:15Z</time>
      </trkpt>
      <trkpt lat="44.23304" lon="6.20596">
        <ele>1467</ele>
        <time>2018-06-08T11:57:19Z</time>
      </trkpt>
      <trkpt lat="44.23304" lon="6.20598">
        <ele>1467</ele>
        <time>2018-06-08T11:57:24Z</time>
      </trkpt>
      <trkpt lat="44.23304" lon="6.20596">
        <ele>1467</ele>
        <time>2018-06-08T11:57:25Z</time>
      </trkpt>
      <trkpt lat="44.23302" lon="6.20595">
        <ele>1467</ele>
        <time>2018-06-08T11:57:26Z</time>
      </trkpt>
      <trkpt lat="44.23301" lon="6.20594">
        <ele>1467</ele>
        <time>2018-06-08T11:57:27Z</time>
      </trkpt>
      <trkpt lat="44.23303" lon="6.20596">
        <ele>1467</ele>
        <time>2018-06-08T11:57:30Z</time>
      </trkpt>
      <trkpt lat="44.23305" lon="6.20596">
        <ele>1465</ele>
        <time>2018-06-08T11:57:32Z</time>
      </trkpt>
      <trkpt lat="44.23306" lon="6.20596">
        <ele>1465</ele>
        <time>2018-06-08T11:57:33Z</time>
      </trkpt>
      <trkpt lat="44.23308" lon="6.20595">
        <ele>1465</ele>
        <time>2018-06-08T11:57:35Z</time>
      </trkpt>
      <trkpt lat="44.23308" lon="6.20597">
        <ele>1465</ele>
        <time>2018-06-08T11:57:37Z</time>
      </trkpt>
      <trkpt lat="44.23309" lon="6.20599">
        <ele>1464</ele>
        <time>2018-06-08T11:57:39Z</time>
      </trkpt>
      <trkpt lat="44.23308" lon="6.20597">
        <ele>1460</ele>
        <time>2018-06-08T11:57:49Z</time>
      </trkpt>
      <trkpt lat="44.23307" lon="6.20598">
        <ele>1460</ele>
        <time>2018-06-08T11:57:51Z</time>
      </trkpt>
      <trkpt lat="44.23306" lon="6.20599">
        <ele>1460</ele>
        <time>2018-06-08T11:57:58Z</time>
      </trkpt>
      <trkpt lat="44.23305" lon="6.206">
        <ele>1460</ele>
        <time>2018-06-08T11:58:00Z</time>
      </trkpt>
      <trkpt lat="44.23305" lon="6.206">
        <ele>1460</ele>
        <time>2018-06-08T11:58:03Z</time>
      </trkpt>
      <trkpt lat="44.23304" lon="6.206">
        <ele>1460</ele>
        <time>2018-06-08T11:58:04Z</time>
      </trkpt>
      <trkpt lat="44.23305" lon="6.206">
        <ele>1461</ele>
        <time>2018-06-08T11:58:12Z</time>
      </trkpt>
      <trkpt lat="44.23306" lon="6.20601">
        <ele>1461</ele>
        <time>2018-06-08T11:58:14Z</time>
      </trkpt>
      <trkpt lat="44.23304" lon="6.206">
        <ele>1461</ele>
        <time>2018-06-08T11:58:21Z</time>
      </trkpt>
      <trkpt lat="44.23302" lon="6.20598">
        <ele>1461</ele>
        <time>2018-06-08T11:58:22Z</time>
      </trkpt>
      <trkpt lat="44.23301" lon="6.20597">
        <ele>1461</ele>
        <time>2018-06-08T11:58:23Z</time>
      </trkpt>
      <trkpt lat="44.233" lon="6.20596">
        <ele>1461</ele>
        <time>2018-06-08T11:58:24Z</time>
      </trkpt>
      <trkpt lat="44.23298" lon="6.20595">
        <ele>1461</ele>
        <time>2018-06-08T11:58:25Z</time>
      </trkpt>
      <trkpt lat="44.23297" lon="6.20594">
        <ele>1461</ele>
        <time>2018-06-08T11:58:26Z</time>
      </trkpt>
      <trkpt lat="44.23296" lon="6.20594">
        <ele>1461</ele>
        <time>2018-06-08T11:58:27Z</time>
      </trkpt>
      <trkpt lat="44.23295" lon="6.20593">
        <ele>1461</ele>
        <time>2018-06-08T11:58:28Z</time>
      </trkpt>
      <trkpt lat="44.23293" lon="6.20593">
        <ele>1461</ele>
        <time>2018-06-08T11:58:29Z</time>
      </trkpt>
      <trkpt lat="44.23292" lon="6.20593">
        <ele>1461</ele>
        <time>2018-06-08T11:58:30Z</time>
      </trkpt>
      <trkpt lat="44.23291" lon="6.20593">
        <ele>1461</ele>
        <time>2018-06-08T11:58:31Z</time>
      </trkpt>
      <trkpt lat="44.23289" lon="6.20592">
        <ele>1461</ele>
        <time>2018-06-08T11:58:32Z</time>
      </trkpt>
      <trkpt lat="44.23288" lon="6.20593">
        <ele>1461</ele>
        <time>2018-06-08T11:58:33Z</time>
      </trkpt>
      <trkpt lat="44.23286" lon="6.20592">
        <ele>1461</ele>
        <time>2018-06-08T11:58:34Z</time>
      </trkpt>
      <trkpt lat="44.23284" lon="6.20591">
        <ele>1461</ele>
        <time>2018-06-08T11:58:36Z</time>
      </trkpt>
      <trkpt lat="44.23282" lon="6.2059">
        <ele>1461</ele>
        <time>2018-06-08T11:58:38Z</time>
      </trkpt>
      <trkpt lat="44.2328" lon="6.20589">
        <ele>1461</ele>
        <time>2018-06-08T11:58:39Z</time>
      </trkpt>
      <trkpt lat="44.23279" lon="6.20589">
        <ele>1461</ele>
        <time>2018-06-08T11:58:40Z</time>
      </trkpt>
      <trkpt lat="44.23278" lon="6.2059">
        <ele>1461</ele>
        <time>2018-06-08T11:58:41Z</time>
      </trkpt>
      <trkpt lat="44.23277" lon="6.20591">
        <ele>1461</ele>
        <time>2018-06-08T11:58:43Z</time>
      </trkpt>
      <trkpt lat="44.23275" lon="6.20589">
        <ele>1461</ele>
        <time>2018-06-08T11:58:45Z</time>
      </trkpt>
      <trkpt lat="44.23273" lon="6.20587">
        <ele>1461</ele>
        <time>2018-06-08T11:58:47Z</time>
      </trkpt>
      <trkpt lat="44.23272" lon="6.20585">
        <ele>1461</ele>
        <time>2018-06-08T11:58:48Z</time>
      </trkpt>
      <trkpt lat="44.23271" lon="6.20584">
        <ele>1461</ele>
        <time>2018-06-08T11:58:49Z</time>
      </trkpt>
      <trkpt lat="44.2327" lon="6.20583">
        <ele>1461</ele>
        <time>2018-06-08T11:58:50Z</time>
      </trkpt>
      <trkpt lat="44.23268" lon="6.20582">
        <ele>1461</ele>
        <time>2018-06-08T11:58:51Z</time>
      </trkpt>
      <trkpt lat="44.23267" lon="6.2058">
        <ele>1461</ele>
        <time>2018-06-08T11:58:52Z</time>
      </trkpt>
      <trkpt lat="44.23266" lon="6.20579">
        <ele>1461</ele>
        <time>2018-06-08T11:58:53Z</time>
      </trkpt>
      <trkpt lat="44.23264" lon="6.20578">
        <ele>1460</ele>
        <time>2018-06-08T11:58:54Z</time>
      </trkpt>
      <trkpt lat="44.23263" lon="6.20577">
        <ele>1460</ele>
        <time>2018-06-08T11:58:55Z</time>
      </trkpt>
      <trkpt lat="44.23262" lon="6.20577">
        <ele>1460</ele>
        <time>2018-06-08T11:58:56Z</time>
      </trkpt>
      <trkpt lat="44.2326" lon="6.20576">
        <ele>1460</ele>
        <time>2018-06-08T11:58:57Z</time>
      </trkpt>
      <trkpt lat="44.23259" lon="6.20575">
        <ele>1460</ele>
        <time>2018-06-08T11:58:58Z</time>
      </trkpt>
      <trkpt lat="44.23257" lon="6.20572">
        <ele>1460</ele>
        <time>2018-06-08T11:59:00Z</time>
      </trkpt>
      <trkpt lat="44.23256" lon="6.20571">
        <ele>1460</ele>
        <time>2018-06-08T11:59:01Z</time>
      </trkpt>
      <trkpt lat="44.23254" lon="6.2057">
        <ele>1460</ele>
        <time>2018-06-08T11:59:02Z</time>
      </trkpt>
      <trkpt lat="44.23252" lon="6.2057">
        <ele>1459</ele>
        <time>2018-06-08T11:59:03Z</time>
      </trkpt>
      <trkpt lat="44.23251" lon="6.20569">
        <ele>1459</ele>
        <time>2018-06-08T11:59:04Z</time>
      </trkpt>
      <trkpt lat="44.2325" lon="6.20568">
        <ele>1459</ele>
        <time>2018-06-08T11:59:05Z</time>
      </trkpt>
      <trkpt lat="44.23249" lon="6.20567">
        <ele>1459</ele>
        <time>2018-06-08T11:59:06Z</time>
      </trkpt>
      <trkpt lat="44.23247" lon="6.20567">
        <ele>1458</ele>
        <time>2018-06-08T11:59:07Z</time>
      </trkpt>
      <trkpt lat="44.23246" lon="6.20566">
        <ele>1458</ele>
        <time>2018-06-08T11:59:08Z</time>
      </trkpt>
      <trkpt lat="44.23244" lon="6.20566">
        <ele>1458</ele>
        <time>2018-06-08T11:59:09Z</time>
      </trkpt>
      <trkpt lat="44.23242" lon="6.20565">
        <ele>1457</ele>
        <time>2018-06-08T11:59:10Z</time>
      </trkpt>
      <trkpt lat="44.2324" lon="6.20565">
        <ele>1457</ele>
        <time>2018-06-08T11:59:11Z</time>
      </trkpt>
      <trkpt lat="44.23238" lon="6.20565">
        <ele>1457</ele>
        <time>2018-06-08T11:59:12Z</time>
      </trkpt>
      <trkpt lat="44.23237" lon="6.20564">
        <ele>1457</ele>
        <time>2018-06-08T11:59:13Z</time>
      </trkpt>
      <trkpt lat="44.23235" lon="6.20563">
        <ele>1457</ele>
        <time>2018-06-08T11:59:14Z</time>
      </trkpt>
      <trkpt lat="44.23234" lon="6.20563">
        <ele>1456</ele>
        <time>2018-06-08T11:59:15Z</time>
      </trkpt>
      <trkpt lat="44.23233" lon="6.20562">
        <ele>1456</ele>
        <time>2018-06-08T11:59:16Z</time>
      </trkpt>
      <trkpt lat="44.23231" lon="6.20562">
        <ele>1456</ele>
        <time>2018-06-08T11:59:17Z</time>
      </trkpt>
      <trkpt lat="44.2323" lon="6.20562">
        <ele>1455</ele>
        <time>2018-06-08T11:59:18Z</time>
      </trkpt>
      <trkpt lat="44.23228" lon="6.20563">
        <ele>1455</ele>
        <time>2018-06-08T11:59:19Z</time>
      </trkpt>
      <trkpt lat="44.23227" lon="6.20562">
        <ele>1455</ele>
        <time>2018-06-08T11:59:20Z</time>
      </trkpt>
      <trkpt lat="44.23226" lon="6.20561">
        <ele>1454</ele>
        <time>2018-06-08T11:59:21Z</time>
      </trkpt>
      <trkpt lat="44.23225" lon="6.20561">
        <ele>1454</ele>
        <time>2018-06-08T11:59:22Z</time>
      </trkpt>
      <trkpt lat="44.23223" lon="6.20561">
        <ele>1454</ele>
        <time>2018-06-08T11:59:23Z</time>
      </trkpt>
      <trkpt lat="44.23222" lon="6.20562">
        <ele>1454</ele>
        <time>2018-06-08T11:59:24Z</time>
      </trkpt>
      <trkpt lat="44.23221" lon="6.20562">
        <ele>1453</ele>
        <time>2018-06-08T11:59:25Z</time>
      </trkpt>
      <trkpt lat="44.2322" lon="6.20563">
        <ele>1452</ele>
        <time>2018-06-08T11:59:26Z</time>
      </trkpt>
      <trkpt lat="44.23217" lon="6.20564">
        <ele>1451</ele>
        <time>2018-06-08T11:59:28Z</time>
      </trkpt>
      <trkpt lat="44.23216" lon="6.20565">
        <ele>1450</ele>
        <time>2018-06-08T11:59:29Z</time>
      </trkpt>
      <trkpt lat="44.23215" lon="6.20565">
        <ele>1449</ele>
        <time>2018-06-08T11:59:30Z</time>
      </trkpt>
      <trkpt lat="44.23213" lon="6.20565">
        <ele>1448</ele>
        <time>2018-06-08T11:59:31Z</time>
      </trkpt>
      <trkpt lat="44.23212" lon="6.20565">
        <ele>1447</ele>
        <time>2018-06-08T11:59:32Z</time>
      </trkpt>
      <trkpt lat="44.23211" lon="6.20566">
        <ele>1446</ele>
        <time>2018-06-08T11:59:33Z</time>
      </trkpt>
      <trkpt lat="44.23209" lon="6.20566">
        <ele>1446</ele>
        <time>2018-06-08T11:59:34Z</time>
      </trkpt>
      <trkpt lat="44.23208" lon="6.20567">
        <ele>1445</ele>
        <time>2018-06-08T11:59:35Z</time>
      </trkpt>
      <trkpt lat="44.23206" lon="6.20568">
        <ele>1443</ele>
        <time>2018-06-08T11:59:37Z</time>
      </trkpt>
      <trkpt lat="44.23205" lon="6.20568">
        <ele>1442</ele>
        <time>2018-06-08T11:59:38Z</time>
      </trkpt>
      <trkpt lat="44.23203" lon="6.20568">
        <ele>1441</ele>
        <time>2018-06-08T11:59:39Z</time>
      </trkpt>
      <trkpt lat="44.23202" lon="6.20569">
        <ele>1441</ele>
        <time>2018-06-08T11:59:40Z</time>
      </trkpt>
      <trkpt lat="44.23201" lon="6.2057">
        <ele>1441</ele>
        <time>2018-06-08T11:59:41Z</time>
      </trkpt>
      <trkpt lat="44.23199" lon="6.2057">
        <ele>1441</ele>
        <time>2018-06-08T11:59:42Z</time>
      </trkpt>
      <trkpt lat="44.23198" lon="6.20571">
        <ele>1441</ele>
        <time>2018-06-08T11:59:43Z</time>
      </trkpt>
      <trkpt lat="44.23196" lon="6.20572">
        <ele>1441</ele>
        <time>2018-06-08T11:59:44Z</time>
      </trkpt>
      <trkpt lat="44.23195" lon="6.20573">
        <ele>1441</ele>
        <time>2018-06-08T11:59:45Z</time>
      </trkpt>
      <trkpt lat="44.23193" lon="6.20576">
        <ele>1441</ele>
        <time>2018-06-08T11:59:47Z</time>
      </trkpt>
      <trkpt lat="44.23191" lon="6.20577">
        <ele>1441</ele>
        <time>2018-06-08T11:59:49Z</time>
      </trkpt>
      <trkpt lat="44.2319" lon="6.20578">
        <ele>1441</ele>
        <time>2018-06-08T11:59:50Z</time>
      </trkpt>
      <trkpt lat="44.23188" lon="6.2058">
        <ele>1441</ele>
        <time>2018-06-08T11:59:52Z</time>
      </trkpt>
      <trkpt lat="44.23186" lon="6.20583">
        <ele>1441</ele>
        <time>2018-06-08T11:59:54Z</time>
      </trkpt>
      <trkpt lat="44.23185" lon="6.20585">
        <ele>1441</ele>
        <time>2018-06-08T11:59:55Z</time>
      </trkpt>
      <trkpt lat="44.23185" lon="6.20586">
        <ele>1441</ele>
        <time>2018-06-08T11:59:56Z</time>
      </trkpt>
      <trkpt lat="44.23184" lon="6.20588">
        <ele>1441</ele>
        <time>2018-06-08T11:59:57Z</time>
      </trkpt>
      <trkpt lat="44.23183" lon="6.20589">
        <ele>1441</ele>
        <time>2018-06-08T11:59:58Z</time>
      </trkpt>
      <trkpt lat="44.23183" lon="6.20591">
        <ele>1441</ele>
        <time>2018-06-08T11:59:59Z</time>
      </trkpt>
      <trkpt lat="44.23181" lon="6.20594">
        <ele>1441</ele>
        <time>2018-06-08T12:00:01Z</time>
      </trkpt>
      <trkpt lat="44.2318" lon="6.20596">
        <ele>1440</ele>
        <time>2018-06-08T12:00:03Z</time>
      </trkpt>
      <trkpt lat="44.23179" lon="6.20598">
        <ele>1439</ele>
        <time>2018-06-08T12:00:04Z</time>
      </trkpt>
      <trkpt lat="44.23178" lon="6.20599">
        <ele>1439</ele>
        <time>2018-06-08T12:00:05Z</time>
      </trkpt>
      <trkpt lat="44.23178" lon="6.20601">
        <ele>1438</ele>
        <time>2018-06-08T12:00:06Z</time>
      </trkpt>
      <trkpt lat="44.23177" lon="6.20603">
        <ele>1438</ele>
        <time>2018-06-08T12:00:07Z</time>
      </trkpt>
      <trkpt lat="44.23176" lon="6.20604">
        <ele>1437</ele>
        <time>2018-06-08T12:00:08Z</time>
      </trkpt>
      <trkpt lat="44.23176" lon="6.20606">
        <ele>1436</ele>
        <time>2018-06-08T12:00:09Z</time>
      </trkpt>
      <trkpt lat="44.23175" lon="6.20608">
        <ele>1435</ele>
        <time>2018-06-08T12:00:10Z</time>
      </trkpt>
      <trkpt lat="44.23174" lon="6.20611">
        <ele>1434</ele>
        <time>2018-06-08T12:00:12Z</time>
      </trkpt>
      <trkpt lat="44.23172" lon="6.20613">
        <ele>1434</ele>
        <time>2018-06-08T12:00:14Z</time>
      </trkpt>
      <trkpt lat="44.23172" lon="6.20614">
        <ele>1434</ele>
        <time>2018-06-08T12:00:15Z</time>
      </trkpt>
      <trkpt lat="44.23171" lon="6.20616">
        <ele>1434</ele>
        <time>2018-06-08T12:00:16Z</time>
      </trkpt>
      <trkpt lat="44.2317" lon="6.20618">
        <ele>1434</ele>
        <time>2018-06-08T12:00:17Z</time>
      </trkpt>
      <trkpt lat="44.2317" lon="6.2062">
        <ele>1434</ele>
        <time>2018-06-08T12:00:18Z</time>
      </trkpt>
      <trkpt lat="44.2317" lon="6.20621">
        <ele>1434</ele>
        <time>2018-06-08T12:00:19Z</time>
      </trkpt>
      <trkpt lat="44.23169" lon="6.20623">
        <ele>1434</ele>
        <time>2018-06-08T12:00:20Z</time>
      </trkpt>
      <trkpt lat="44.23168" lon="6.20625">
        <ele>1434</ele>
        <time>2018-06-08T12:00:21Z</time>
      </trkpt>
      <trkpt lat="44.23167" lon="6.20626">
        <ele>1434</ele>
        <time>2018-06-08T12:00:22Z</time>
      </trkpt>
      <trkpt lat="44.23166" lon="6.20628">
        <ele>1434</ele>
        <time>2018-06-08T12:00:23Z</time>
      </trkpt>
      <trkpt lat="44.23166" lon="6.2063">
        <ele>1434</ele>
        <time>2018-06-08T12:00:24Z</time>
      </trkpt>
      <trkpt lat="44.23165" lon="6.20631">
        <ele>1434</ele>
        <time>2018-06-08T12:00:25Z</time>
      </trkpt>
      <trkpt lat="44.23164" lon="6.20633">
        <ele>1434</ele>
        <time>2018-06-08T12:00:26Z</time>
      </trkpt>
      <trkpt lat="44.23164" lon="6.20634">
        <ele>1434</ele>
        <time>2018-06-08T12:00:27Z</time>
      </trkpt>
      <trkpt lat="44.23163" lon="6.20636">
        <ele>1434</ele>
        <time>2018-06-08T12:00:28Z</time>
      </trkpt>
      <trkpt lat="44.23162" lon="6.20637">
        <ele>1434</ele>
        <time>2018-06-08T12:00:29Z</time>
      </trkpt>
      <trkpt lat="44.23161" lon="6.20639">
        <ele>1434</ele>
        <time>2018-06-08T12:00:30Z</time>
      </trkpt>
      <trkpt lat="44.23161" lon="6.20641">
        <ele>1434</ele>
        <time>2018-06-08T12:00:31Z</time>
      </trkpt>
      <trkpt lat="44.23161" lon="6.20643">
        <ele>1434</ele>
        <time>2018-06-08T12:00:32Z</time>
      </trkpt>
      <trkpt lat="44.23161" lon="6.20645">
        <ele>1434</ele>
        <time>2018-06-08T12:00:33Z</time>
      </trkpt>
      <trkpt lat="44.2316" lon="6.20646">
        <ele>1434</ele>
        <time>2018-06-08T12:00:34Z</time>
      </trkpt>
      <trkpt lat="44.23159" lon="6.20648">
        <ele>1434</ele>
        <time>2018-06-08T12:00:35Z</time>
      </trkpt>
      <trkpt lat="44.23159" lon="6.2065">
        <ele>1434</ele>
        <time>2018-06-08T12:00:36Z</time>
      </trkpt>
      <trkpt lat="44.23158" lon="6.20651">
        <ele>1434</ele>
        <time>2018-06-08T12:00:37Z</time>
      </trkpt>
      <trkpt lat="44.23158" lon="6.20653">
        <ele>1434</ele>
        <time>2018-06-08T12:00:38Z</time>
      </trkpt>
      <trkpt lat="44.23157" lon="6.20654">
        <ele>1434</ele>
        <time>2018-06-08T12:00:39Z</time>
      </trkpt>
      <trkpt lat="44.23157" lon="6.20656">
        <ele>1434</ele>
        <time>2018-06-08T12:00:40Z</time>
      </trkpt>
      <trkpt lat="44.23157" lon="6.20657">
        <ele>1434</ele>
        <time>2018-06-08T12:00:41Z</time>
      </trkpt>
      <trkpt lat="44.23156" lon="6.2066">
        <ele>1434</ele>
        <time>2018-06-08T12:00:42Z</time>
      </trkpt>
      <trkpt lat="44.23157" lon="6.20662">
        <ele>1434</ele>
        <time>2018-06-08T12:00:43Z</time>
      </trkpt>
      <trkpt lat="44.23157" lon="6.20663">
        <ele>1434</ele>
        <time>2018-06-08T12:00:44Z</time>
      </trkpt>
      <trkpt lat="44.23156" lon="6.20665">
        <ele>1434</ele>
        <time>2018-06-08T12:00:45Z</time>
      </trkpt>
      <trkpt lat="44.23157" lon="6.20667">
        <ele>1434</ele>
        <time>2018-06-08T12:00:46Z</time>
      </trkpt>
      <trkpt lat="44.23156" lon="6.20669">
        <ele>1434</ele>
        <time>2018-06-08T12:00:47Z</time>
      </trkpt>
      <trkpt lat="44.23156" lon="6.2067">
        <ele>1434</ele>
        <time>2018-06-08T12:00:48Z</time>
      </trkpt>
      <trkpt lat="44.23156" lon="6.20672">
        <ele>1434</ele>
        <time>2018-06-08T12:00:49Z</time>
      </trkpt>
      <trkpt lat="44.23156" lon="6.20674">
        <ele>1434</ele>
        <time>2018-06-08T12:00:50Z</time>
      </trkpt>
      <trkpt lat="44.23155" lon="6.20676">
        <ele>1434</ele>
        <time>2018-06-08T12:00:52Z</time>
      </trkpt>
      <trkpt lat="44.23155" lon="6.20678">
        <ele>1433</ele>
        <time>2018-06-08T12:00:53Z</time>
      </trkpt>
      <trkpt lat="44.23154" lon="6.20679">
        <ele>1433</ele>
        <time>2018-06-08T12:00:54Z</time>
      </trkpt>
      <trkpt lat="44.23154" lon="6.20681">
        <ele>1433</ele>
        <time>2018-06-08T12:00:55Z</time>
      </trkpt>
      <trkpt lat="44.23154" lon="6.20684">
        <ele>1432</ele>
        <time>2018-06-08T12:00:57Z</time>
      </trkpt>
      <trkpt lat="44.23154" lon="6.20685">
        <ele>1432</ele>
        <time>2018-06-08T12:00:58Z</time>
      </trkpt>
      <trkpt lat="44.23153" lon="6.20687">
        <ele>1432</ele>
        <time>2018-06-08T12:00:59Z</time>
      </trkpt>
      <trkpt lat="44.23153" lon="6.20689">
        <ele>1432</ele>
        <time>2018-06-08T12:01:00Z</time>
      </trkpt>
      <trkpt lat="44.23152" lon="6.20691">
        <ele>1432</ele>
        <time>2018-06-08T12:01:01Z</time>
      </trkpt>
      <trkpt lat="44.23152" lon="6.20693">
        <ele>1432</ele>
        <time>2018-06-08T12:01:02Z</time>
      </trkpt>
      <trkpt lat="44.23152" lon="6.20695">
        <ele>1431</ele>
        <time>2018-06-08T12:01:03Z</time>
      </trkpt>
      <trkpt lat="44.23151" lon="6.20697">
        <ele>1431</ele>
        <time>2018-06-08T12:01:04Z</time>
      </trkpt>
      <trkpt lat="44.2315" lon="6.20699">
        <ele>1431</ele>
        <time>2018-06-08T12:01:06Z</time>
      </trkpt>
      <trkpt lat="44.23149" lon="6.20701">
        <ele>1431</ele>
        <time>2018-06-08T12:01:08Z</time>
      </trkpt>
      <trkpt lat="44.23147" lon="6.20703">
        <ele>1431</ele>
        <time>2018-06-08T12:01:10Z</time>
      </trkpt>
      <trkpt lat="44.23146" lon="6.20705">
        <ele>1431</ele>
        <time>2018-06-08T12:01:12Z</time>
      </trkpt>
      <trkpt lat="44.23145" lon="6.20707">
        <ele>1431</ele>
        <time>2018-06-08T12:01:14Z</time>
      </trkpt>
      <trkpt lat="44.23145" lon="6.20708">
        <ele>1430</ele>
        <time>2018-06-08T12:01:15Z</time>
      </trkpt>
      <trkpt lat="44.23145" lon="6.2071">
        <ele>1430</ele>
        <time>2018-06-08T12:01:16Z</time>
      </trkpt>
      <trkpt lat="44.23145" lon="6.20712">
        <ele>1430</ele>
        <time>2018-06-08T12:01:18Z</time>
      </trkpt>
      <trkpt lat="44.23144" lon="6.20714">
        <ele>1430</ele>
        <time>2018-06-08T12:01:20Z</time>
      </trkpt>
      <trkpt lat="44.23143" lon="6.20716">
        <ele>1430</ele>
        <time>2018-06-08T12:01:21Z</time>
      </trkpt>
      <trkpt lat="44.23141" lon="6.20718">
        <ele>1430</ele>
        <time>2018-06-08T12:01:23Z</time>
      </trkpt>
      <trkpt lat="44.2314" lon="6.2072">
        <ele>1430</ele>
        <time>2018-06-08T12:01:24Z</time>
      </trkpt>
      <trkpt lat="44.23138" lon="6.20722">
        <ele>1430</ele>
        <time>2018-06-08T12:01:25Z</time>
      </trkpt>
      <trkpt lat="44.23137" lon="6.20725">
        <ele>1430</ele>
        <time>2018-06-08T12:01:27Z</time>
      </trkpt>
      <trkpt lat="44.23136" lon="6.20727">
        <ele>1430</ele>
        <time>2018-06-08T12:01:28Z</time>
      </trkpt>
      <trkpt lat="44.23136" lon="6.20729">
        <ele>1430</ele>
        <time>2018-06-08T12:01:30Z</time>
      </trkpt>
      <trkpt lat="44.23134" lon="6.20729">
        <ele>1430</ele>
        <time>2018-06-08T12:01:32Z</time>
      </trkpt>
      <trkpt lat="44.23132" lon="6.20731">
        <ele>1430</ele>
        <time>2018-06-08T12:01:34Z</time>
      </trkpt>
      <trkpt lat="44.2313" lon="6.20733">
        <ele>1430</ele>
        <time>2018-06-08T12:01:36Z</time>
      </trkpt>
      <trkpt lat="44.23129" lon="6.20735">
        <ele>1430</ele>
        <time>2018-06-08T12:01:38Z</time>
      </trkpt>
      <trkpt lat="44.23128" lon="6.20736">
        <ele>1430</ele>
        <time>2018-06-08T12:01:39Z</time>
      </trkpt>
      <trkpt lat="44.23127" lon="6.20736">
        <ele>1430</ele>
        <time>2018-06-08T12:01:41Z</time>
      </trkpt>
      <trkpt lat="44.23125" lon="6.20738">
        <ele>1430</ele>
        <time>2018-06-08T12:01:43Z</time>
      </trkpt>
      <trkpt lat="44.23124" lon="6.2074">
        <ele>1430</ele>
        <time>2018-06-08T12:01:45Z</time>
      </trkpt>
      <trkpt lat="44.23124" lon="6.20742">
        <ele>1430</ele>
        <time>2018-06-08T12:01:47Z</time>
      </trkpt>
      <trkpt lat="44.23122" lon="6.20744">
        <ele>1430</ele>
        <time>2018-06-08T12:01:49Z</time>
      </trkpt>
      <trkpt lat="44.23121" lon="6.20746">
        <ele>1430</ele>
        <time>2018-06-08T12:01:51Z</time>
      </trkpt>
      <trkpt lat="44.23121" lon="6.20748">
        <ele>1430</ele>
        <time>2018-06-08T12:01:53Z</time>
      </trkpt>
      <trkpt lat="44.2312" lon="6.20749">
        <ele>1430</ele>
        <time>2018-06-08T12:01:55Z</time>
      </trkpt>
      <trkpt lat="44.23119" lon="6.20751">
        <ele>1430</ele>
        <time>2018-06-08T12:01:57Z</time>
      </trkpt>
      <trkpt lat="44.23119" lon="6.20753">
        <ele>1429</ele>
        <time>2018-06-08T12:01:59Z</time>
      </trkpt>
      <trkpt lat="44.23118" lon="6.20754">
        <ele>1429</ele>
        <time>2018-06-08T12:02:00Z</time>
      </trkpt>
      <trkpt lat="44.23117" lon="6.20757">
        <ele>1429</ele>
        <time>2018-06-08T12:02:02Z</time>
      </trkpt>
      <trkpt lat="44.23117" lon="6.20758">
        <ele>1429</ele>
        <time>2018-06-08T12:02:03Z</time>
      </trkpt>
      <trkpt lat="44.23117" lon="6.2076">
        <ele>1429</ele>
        <time>2018-06-08T12:02:04Z</time>
      </trkpt>
      <trkpt lat="44.23117" lon="6.20761">
        <ele>1428</ele>
        <time>2018-06-08T12:02:06Z</time>
      </trkpt>
      <trkpt lat="44.23117" lon="6.20764">
        <ele>1428</ele>
        <time>2018-06-08T12:02:08Z</time>
      </trkpt>
      <trkpt lat="44.23116" lon="6.20766">
        <ele>1427</ele>
        <time>2018-06-08T12:02:10Z</time>
      </trkpt>
      <trkpt lat="44.23116" lon="6.20768">
        <ele>1427</ele>
        <time>2018-06-08T12:02:11Z</time>
      </trkpt>
      <trkpt lat="44.23116" lon="6.2077">
        <ele>1426</ele>
        <time>2018-06-08T12:02:12Z</time>
      </trkpt>
      <trkpt lat="44.23117" lon="6.20772">
        <ele>1426</ele>
        <time>2018-06-08T12:02:13Z</time>
      </trkpt>
      <trkpt lat="44.23117" lon="6.20775">
        <ele>1425</ele>
        <time>2018-06-08T12:02:16Z</time>
      </trkpt>
      <trkpt lat="44.23116" lon="6.20777">
        <ele>1425</ele>
        <time>2018-06-08T12:02:18Z</time>
      </trkpt>
      <trkpt lat="44.23116" lon="6.20779">
        <ele>1424</ele>
        <time>2018-06-08T12:02:19Z</time>
      </trkpt>
      <trkpt lat="44.23116" lon="6.20781">
        <ele>1423</ele>
        <time>2018-06-08T12:02:21Z</time>
      </trkpt>
      <trkpt lat="44.23117" lon="6.20783">
        <ele>1422</ele>
        <time>2018-06-08T12:02:23Z</time>
      </trkpt>
      <trkpt lat="44.23118" lon="6.20783">
        <ele>1422</ele>
        <time>2018-06-08T12:02:28Z</time>
      </trkpt>
      <trkpt lat="44.23119" lon="6.20784">
        <ele>1422</ele>
        <time>2018-06-08T12:02:30Z</time>
      </trkpt>
      <trkpt lat="44.23119" lon="6.20786">
        <ele>1422</ele>
        <time>2018-06-08T12:02:31Z</time>
      </trkpt>
      <trkpt lat="44.2312" lon="6.20787">
        <ele>1422</ele>
        <time>2018-06-08T12:02:32Z</time>
      </trkpt>
      <trkpt lat="44.2312" lon="6.2079">
        <ele>1421</ele>
        <time>2018-06-08T12:02:34Z</time>
      </trkpt>
      <trkpt lat="44.23118" lon="6.2079">
        <ele>1420</ele>
        <time>2018-06-08T12:02:36Z</time>
      </trkpt>
      <trkpt lat="44.23118" lon="6.20794">
        <ele>1420</ele>
        <time>2018-06-08T12:02:39Z</time>
      </trkpt>
      <trkpt lat="44.23115" lon="6.20797">
        <ele>1420</ele>
        <time>2018-06-08T12:02:41Z</time>
      </trkpt>
      <trkpt lat="44.23114" lon="6.20798">
        <ele>1420</ele>
        <time>2018-06-08T12:02:42Z</time>
      </trkpt>
      <trkpt lat="44.23113" lon="6.20796">
        <ele>1420</ele>
        <time>2018-06-08T12:02:44Z</time>
      </trkpt>
      <trkpt lat="44.23113" lon="6.20795">
        <ele>1420</ele>
        <time>2018-06-08T12:02:45Z</time>
      </trkpt>
      <trkpt lat="44.23114" lon="6.20792">
        <ele>1420</ele>
        <time>2018-06-08T12:02:46Z</time>
      </trkpt>
      <trkpt lat="44.23113" lon="6.2079">
        <ele>1420</ele>
        <time>2018-06-08T12:02:48Z</time>
      </trkpt>
      <trkpt lat="44.23113" lon="6.20788">
        <ele>1420</ele>
        <time>2018-06-08T12:02:49Z</time>
      </trkpt>
      <trkpt lat="44.23113" lon="6.20787">
        <ele>1420</ele>
        <time>2018-06-08T12:02:50Z</time>
      </trkpt>
      <trkpt lat="44.23112" lon="6.20785">
        <ele>1420</ele>
        <time>2018-06-08T12:02:52Z</time>
      </trkpt>
      <trkpt lat="44.23113" lon="6.20782">
        <ele>1418</ele>
        <time>2018-06-08T12:02:54Z</time>
      </trkpt>
      <trkpt lat="44.23113" lon="6.2078">
        <ele>1414</ele>
        <time>2018-06-08T12:02:58Z</time>
      </trkpt>
      <trkpt lat="44.23112" lon="6.20779">
        <ele>1414</ele>
        <time>2018-06-08T12:03:00Z</time>
      </trkpt>
      <trkpt lat="44.23113" lon="6.20777">
        <ele>1414</ele>
        <time>2018-06-08T12:03:01Z</time>
      </trkpt>
      <trkpt lat="44.23112" lon="6.20779">
        <ele>1414</ele>
        <time>2018-06-08T12:03:04Z</time>
      </trkpt>
      <trkpt lat="44.2311" lon="6.20779">
        <ele>1414</ele>
        <time>2018-06-08T12:03:06Z</time>
      </trkpt>
      <trkpt lat="44.2311" lon="6.20781">
        <ele>1416</ele>
        <time>2018-06-08T12:03:08Z</time>
      </trkpt>
      <trkpt lat="44.23109" lon="6.20784">
        <ele>1417</ele>
        <time>2018-06-08T12:03:09Z</time>
      </trkpt>
      <trkpt lat="44.23109" lon="6.20787">
        <ele>1419</ele>
        <time>2018-06-08T12:03:11Z</time>
      </trkpt>
      <trkpt lat="44.23108" lon="6.20789">
        <ele>1420</ele>
        <time>2018-06-08T12:03:12Z</time>
      </trkpt>
      <trkpt lat="44.23109" lon="6.20792">
        <ele>1422</ele>
        <time>2018-06-08T12:03:14Z</time>
      </trkpt>
      <trkpt lat="44.2311" lon="6.20793">
        <ele>1423</ele>
        <time>2018-06-08T12:03:19Z</time>
      </trkpt>
      <trkpt lat="44.23111" lon="6.20795">
        <ele>1423</ele>
        <time>2018-06-08T12:03:23Z</time>
      </trkpt>
      <trkpt lat="44.23112" lon="6.20794">
        <ele>1423</ele>
        <time>2018-06-08T12:03:27Z</time>
      </trkpt>
      <trkpt lat="44.23114" lon="6.20796">
        <ele>1419</ele>
        <time>2018-06-08T12:03:36Z</time>
      </trkpt>
      <trkpt lat="44.23114" lon="6.20798">
        <ele>1419</ele>
        <time>2018-06-08T12:03:37Z</time>
      </trkpt>
      <trkpt lat="44.23114" lon="6.208">
        <ele>1419</ele>
        <time>2018-06-08T12:03:39Z</time>
      </trkpt>
      <trkpt lat="44.23114" lon="6.20802">
        <ele>1419</ele>
        <time>2018-06-08T12:03:41Z</time>
      </trkpt>
      <trkpt lat="44.23115" lon="6.20804">
        <ele>1419</ele>
        <time>2018-06-08T12:03:44Z</time>
      </trkpt>
      <trkpt lat="44.23116" lon="6.20806">
        <ele>1419</ele>
        <time>2018-06-08T12:03:46Z</time>
      </trkpt>
      <trkpt lat="44.23116" lon="6.20807">
        <ele>1419</ele>
        <time>2018-06-08T12:03:48Z</time>
      </trkpt>
      <trkpt lat="44.23117" lon="6.2081">
        <ele>1419</ele>
        <time>2018-06-08T12:03:50Z</time>
      </trkpt>
      <trkpt lat="44.23116" lon="6.2081">
        <ele>1418</ele>
        <time>2018-06-08T12:03:56Z</time>
      </trkpt>
      <trkpt lat="44.23117" lon="6.20812">
        <ele>1416</ele>
        <time>2018-06-08T12:03:58Z</time>
      </trkpt>
      <trkpt lat="44.23117" lon="6.20814">
        <ele>1414</ele>
        <time>2018-06-08T12:04:00Z</time>
      </trkpt>
      <trkpt lat="44.23117" lon="6.20816">
        <ele>1413</ele>
        <time>2018-06-08T12:04:02Z</time>
      </trkpt>
      <trkpt lat="44.23118" lon="6.20817">
        <ele>1413</ele>
        <time>2018-06-08T12:04:04Z</time>
      </trkpt>
      <trkpt lat="44.23119" lon="6.20818">
        <ele>1413</ele>
        <time>2018-06-08T12:04:06Z</time>
      </trkpt>
      <trkpt lat="44.23119" lon="6.2082">
        <ele>1413</ele>
        <time>2018-06-08T12:04:09Z</time>
      </trkpt>
      <trkpt lat="44.23119" lon="6.20821">
        <ele>1413</ele>
        <time>2018-06-08T12:04:12Z</time>
      </trkpt>
      <trkpt lat="44.23119" lon="6.20823">
        <ele>1413</ele>
        <time>2018-06-08T12:04:13Z</time>
      </trkpt>
      <trkpt lat="44.23118" lon="6.20823">
        <ele>1413</ele>
        <time>2018-06-08T12:04:16Z</time>
      </trkpt>
      <trkpt lat="44.23117" lon="6.20821">
        <ele>1412</ele>
        <time>2018-06-08T12:04:22Z</time>
      </trkpt>
      <trkpt lat="44.23118" lon="6.20821">
        <ele>1411</ele>
        <time>2018-06-08T12:04:24Z</time>
      </trkpt>
      <trkpt lat="44.23119" lon="6.2082">
        <ele>1411</ele>
        <time>2018-06-08T12:04:30Z</time>
      </trkpt>
      <trkpt lat="44.23118" lon="6.20823">
        <ele>1411</ele>
        <time>2018-06-08T12:04:38Z</time>
      </trkpt>
      <trkpt lat="44.23118" lon="6.20824">
        <ele>1411</ele>
        <time>2018-06-08T12:04:41Z</time>
      </trkpt>
      <trkpt lat="44.23118" lon="6.20826">
        <ele>1411</ele>
        <time>2018-06-08T12:04:48Z</time>
      </trkpt>
      <trkpt lat="44.23117" lon="6.20828">
        <ele>1411</ele>
        <time>2018-06-08T12:04:52Z</time>
      </trkpt>
      <trkpt lat="44.23116" lon="6.20831">
        <ele>1411</ele>
        <time>2018-06-08T12:05:03Z</time>
      </trkpt>
      <trkpt lat="44.23116" lon="6.20832">
        <ele>1411</ele>
        <time>2018-06-08T12:05:05Z</time>
      </trkpt>
      <trkpt lat="44.23115" lon="6.20834">
        <ele>1413</ele>
        <time>2018-06-08T12:05:11Z</time>
      </trkpt>
      <trkpt lat="44.23114" lon="6.20835">
        <ele>1414</ele>
        <time>2018-06-08T12:05:15Z</time>
      </trkpt>
      <trkpt lat="44.23112" lon="6.20835">
        <ele>1414</ele>
        <time>2018-06-08T12:05:18Z</time>
      </trkpt>
      <trkpt lat="44.23111" lon="6.20835">
        <ele>1414</ele>
        <time>2018-06-08T12:05:20Z</time>
      </trkpt>
      <trkpt lat="44.2311" lon="6.20835">
        <ele>1414</ele>
        <time>2018-06-08T12:05:23Z</time>
      </trkpt>
      <trkpt lat="44.23108" lon="6.20836">
        <ele>1414</ele>
        <time>2018-06-08T12:05:26Z</time>
      </trkpt>
      <trkpt lat="44.23106" lon="6.20837">
        <ele>1414</ele>
        <time>2018-06-08T12:05:29Z</time>
      </trkpt>
      <trkpt lat="44.23106" lon="6.20839">
        <ele>1414</ele>
        <time>2018-06-08T12:05:33Z</time>
      </trkpt>
      <trkpt lat="44.23104" lon="6.20841">
        <ele>1413</ele>
        <time>2018-06-08T12:05:36Z</time>
      </trkpt>
      <trkpt lat="44.23103" lon="6.20842">
        <ele>1411</ele>
        <time>2018-06-08T12:05:41Z</time>
      </trkpt>
      <trkpt lat="44.23101" lon="6.20841">
        <ele>1410</ele>
        <time>2018-06-08T12:05:43Z</time>
      </trkpt>
      <trkpt lat="44.231" lon="6.20841">
        <ele>1409</ele>
        <time>2018-06-08T12:05:45Z</time>
      </trkpt>
      <trkpt lat="44.23098" lon="6.2084">
        <ele>1408</ele>
        <time>2018-06-08T12:05:47Z</time>
      </trkpt>
      <trkpt lat="44.23097" lon="6.2084">
        <ele>1408</ele>
        <time>2018-06-08T12:05:49Z</time>
      </trkpt>
      <trkpt lat="44.23095" lon="6.2084">
        <ele>1407</ele>
        <time>2018-06-08T12:05:52Z</time>
      </trkpt>
      <trkpt lat="44.23094" lon="6.2084">
        <ele>1406</ele>
        <time>2018-06-08T12:05:55Z</time>
      </trkpt>
      <trkpt lat="44.23094" lon="6.20842">
        <ele>1405</ele>
        <time>2018-06-08T12:05:58Z</time>
      </trkpt>
      <trkpt lat="44.23095" lon="6.20844">
        <ele>1404</ele>
        <time>2018-06-08T12:06:00Z</time>
      </trkpt>
      <trkpt lat="44.23095" lon="6.20847">
        <ele>1404</ele>
        <time>2018-06-08T12:06:02Z</time>
      </trkpt>
      <trkpt lat="44.23096" lon="6.20849">
        <ele>1403</ele>
        <time>2018-06-08T12:06:04Z</time>
      </trkpt>
      <trkpt lat="44.23096" lon="6.20851">
        <ele>1403</ele>
        <time>2018-06-08T12:06:06Z</time>
      </trkpt>
      <trkpt lat="44.23095" lon="6.20852">
        <ele>1402</ele>
        <time>2018-06-08T12:06:08Z</time>
      </trkpt>
      <trkpt lat="44.23094" lon="6.20854">
        <ele>1400</ele>
        <time>2018-06-08T12:06:11Z</time>
      </trkpt>
      <trkpt lat="44.23092" lon="6.20855">
        <ele>1400</ele>
        <time>2018-06-08T12:06:13Z</time>
      </trkpt>
      <trkpt lat="44.23091" lon="6.20855">
        <ele>1400</ele>
        <time>2018-06-08T12:06:15Z</time>
      </trkpt>
      <trkpt lat="44.23089" lon="6.20853">
        <ele>1400</ele>
        <time>2018-06-08T12:06:17Z</time>
      </trkpt>
      <trkpt lat="44.23087" lon="6.20853">
        <ele>1400</ele>
        <time>2018-06-08T12:06:19Z</time>
      </trkpt>
      <trkpt lat="44.23085" lon="6.20851">
        <ele>1399</ele>
        <time>2018-06-08T12:06:21Z</time>
      </trkpt>
      <trkpt lat="44.23084" lon="6.20851">
        <ele>1398</ele>
        <time>2018-06-08T12:06:23Z</time>
      </trkpt>
      <trkpt lat="44.23082" lon="6.20851">
        <ele>1397</ele>
        <time>2018-06-08T12:06:25Z</time>
      </trkpt>
      <trkpt lat="44.2308" lon="6.2085">
        <ele>1395</ele>
        <time>2018-06-08T12:06:27Z</time>
      </trkpt>
      <trkpt lat="44.23079" lon="6.20849">
        <ele>1395</ele>
        <time>2018-06-08T12:06:29Z</time>
      </trkpt>
      <trkpt lat="44.23077" lon="6.20849">
        <ele>1394</ele>
        <time>2018-06-08T12:06:30Z</time>
      </trkpt>
      <trkpt lat="44.23076" lon="6.20847">
        <ele>1394</ele>
        <time>2018-06-08T12:06:32Z</time>
      </trkpt>
      <trkpt lat="44.23075" lon="6.20845">
        <ele>1394</ele>
        <time>2018-06-08T12:06:34Z</time>
      </trkpt>
      <trkpt lat="44.23074" lon="6.20843">
        <ele>1393</ele>
        <time>2018-06-08T12:06:36Z</time>
      </trkpt>
      <trkpt lat="44.23072" lon="6.20841">
        <ele>1392</ele>
        <time>2018-06-08T12:06:38Z</time>
      </trkpt>
      <trkpt lat="44.23072" lon="6.20837">
        <ele>1391</ele>
        <time>2018-06-08T12:06:40Z</time>
      </trkpt>
      <trkpt lat="44.23072" lon="6.20836">
        <ele>1390</ele>
        <time>2018-06-08T12:06:41Z</time>
      </trkpt>
      <trkpt lat="44.23072" lon="6.20834">
        <ele>1389</ele>
        <time>2018-06-08T12:06:42Z</time>
      </trkpt>
      <trkpt lat="44.23072" lon="6.20832">
        <ele>1388</ele>
        <time>2018-06-08T12:06:43Z</time>
      </trkpt>
      <trkpt lat="44.23072" lon="6.20831">
        <ele>1387</ele>
        <time>2018-06-08T12:06:44Z</time>
      </trkpt>
      <trkpt lat="44.23072" lon="6.20829">
        <ele>1385</ele>
        <time>2018-06-08T12:06:46Z</time>
      </trkpt>
      <trkpt lat="44.23071" lon="6.20828">
        <ele>1383</ele>
        <time>2018-06-08T12:06:48Z</time>
      </trkpt>
      <trkpt lat="44.23069" lon="6.20828">
        <ele>1382</ele>
        <time>2018-06-08T12:06:50Z</time>
      </trkpt>
      <trkpt lat="44.23068" lon="6.20827">
        <ele>1382</ele>
        <time>2018-06-08T12:06:52Z</time>
      </trkpt>
      <trkpt lat="44.23066" lon="6.20827">
        <ele>1382</ele>
        <time>2018-06-08T12:06:54Z</time>
      </trkpt>
      <trkpt lat="44.23064" lon="6.20828">
        <ele>1382</ele>
        <time>2018-06-08T12:06:56Z</time>
      </trkpt>
      <trkpt lat="44.23063" lon="6.20829">
        <ele>1382</ele>
        <time>2018-06-08T12:06:57Z</time>
      </trkpt>
      <trkpt lat="44.23061" lon="6.2083">
        <ele>1382</ele>
        <time>2018-06-08T12:06:59Z</time>
      </trkpt>
      <trkpt lat="44.2306" lon="6.20831">
        <ele>1382</ele>
        <time>2018-06-08T12:07:01Z</time>
      </trkpt>
      <trkpt lat="44.23059" lon="6.20833">
        <ele>1382</ele>
        <time>2018-06-08T12:07:03Z</time>
      </trkpt>
      <trkpt lat="44.23058" lon="6.20835">
        <ele>1382</ele>
        <time>2018-06-08T12:07:05Z</time>
      </trkpt>
      <trkpt lat="44.23056" lon="6.20837">
        <ele>1382</ele>
        <time>2018-06-08T12:07:07Z</time>
      </trkpt>
      <trkpt lat="44.23055" lon="6.20838">
        <ele>1382</ele>
        <time>2018-06-08T12:07:08Z</time>
      </trkpt>
      <trkpt lat="44.23053" lon="6.20841">
        <ele>1382</ele>
        <time>2018-06-08T12:07:10Z</time>
      </trkpt>
      <trkpt lat="44.23051" lon="6.20843">
        <ele>1382</ele>
        <time>2018-06-08T12:07:11Z</time>
      </trkpt>
      <trkpt lat="44.2305" lon="6.20845">
        <ele>1382</ele>
        <time>2018-06-08T12:07:13Z</time>
      </trkpt>
      <trkpt lat="44.23048" lon="6.20847">
        <ele>1382</ele>
        <time>2018-06-08T12:07:15Z</time>
      </trkpt>
      <trkpt lat="44.23048" lon="6.20849">
        <ele>1382</ele>
        <time>2018-06-08T12:07:16Z</time>
      </trkpt>
      <trkpt lat="44.23047" lon="6.2085">
        <ele>1382</ele>
        <time>2018-06-08T12:07:17Z</time>
      </trkpt>
      <trkpt lat="44.23046" lon="6.20852">
        <ele>1383</ele>
        <time>2018-06-08T12:07:18Z</time>
      </trkpt>
      <trkpt lat="44.23044" lon="6.20853">
        <ele>1383</ele>
        <time>2018-06-08T12:07:20Z</time>
      </trkpt>
      <trkpt lat="44.23043" lon="6.20855">
        <ele>1383</ele>
        <time>2018-06-08T12:07:22Z</time>
      </trkpt>
      <trkpt lat="44.2304" lon="6.20857">
        <ele>1383</ele>
        <time>2018-06-08T12:07:24Z</time>
      </trkpt>
      <trkpt lat="44.23039" lon="6.20858">
        <ele>1383</ele>
        <time>2018-06-08T12:07:25Z</time>
      </trkpt>
      <trkpt lat="44.23037" lon="6.2086">
        <ele>1383</ele>
        <time>2018-06-08T12:07:27Z</time>
      </trkpt>
      <trkpt lat="44.23036" lon="6.20861">
        <ele>1383</ele>
        <time>2018-06-08T12:07:28Z</time>
      </trkpt>
      <trkpt lat="44.23035" lon="6.20863">
        <ele>1383</ele>
        <time>2018-06-08T12:07:29Z</time>
      </trkpt>
      <trkpt lat="44.23033" lon="6.20865">
        <ele>1383</ele>
        <time>2018-06-08T12:07:30Z</time>
      </trkpt>
      <trkpt lat="44.23032" lon="6.20866">
        <ele>1383</ele>
        <time>2018-06-08T12:07:32Z</time>
      </trkpt>
      <trkpt lat="44.2303" lon="6.20868">
        <ele>1383</ele>
        <time>2018-06-08T12:07:33Z</time>
      </trkpt>
      <trkpt lat="44.23029" lon="6.20869">
        <ele>1383</ele>
        <time>2018-06-08T12:07:34Z</time>
      </trkpt>
      <trkpt lat="44.23028" lon="6.2087">
        <ele>1383</ele>
        <time>2018-06-08T12:07:35Z</time>
      </trkpt>
      <trkpt lat="44.23027" lon="6.20872">
        <ele>1383</ele>
        <time>2018-06-08T12:07:37Z</time>
      </trkpt>
      <trkpt lat="44.23025" lon="6.20873">
        <ele>1383</ele>
        <time>2018-06-08T12:07:38Z</time>
      </trkpt>
      <trkpt lat="44.23023" lon="6.20873">
        <ele>1383</ele>
        <time>2018-06-08T12:07:40Z</time>
      </trkpt>
      <trkpt lat="44.23022" lon="6.20873">
        <ele>1383</ele>
        <time>2018-06-08T12:07:41Z</time>
      </trkpt>
      <trkpt lat="44.23021" lon="6.20875">
        <ele>1383</ele>
        <time>2018-06-08T12:07:42Z</time>
      </trkpt>
      <trkpt lat="44.23019" lon="6.20877">
        <ele>1383</ele>
        <time>2018-06-08T12:07:43Z</time>
      </trkpt>
      <trkpt lat="44.23018" lon="6.20878">
        <ele>1383</ele>
        <time>2018-06-08T12:07:44Z</time>
      </trkpt>
      <trkpt lat="44.23016" lon="6.20879">
        <ele>1383</ele>
        <time>2018-06-08T12:07:45Z</time>
      </trkpt>
      <trkpt lat="44.23014" lon="6.2088">
        <ele>1383</ele>
        <time>2018-06-08T12:07:46Z</time>
      </trkpt>
      <trkpt lat="44.23013" lon="6.20882">
        <ele>1383</ele>
        <time>2018-06-08T12:07:48Z</time>
      </trkpt>
      <trkpt lat="44.23011" lon="6.20882">
        <ele>1383</ele>
        <time>2018-06-08T12:07:50Z</time>
      </trkpt>
      <trkpt lat="44.2301" lon="6.20883">
        <ele>1383</ele>
        <time>2018-06-08T12:07:52Z</time>
      </trkpt>
      <trkpt lat="44.23008" lon="6.20884">
        <ele>1383</ele>
        <time>2018-06-08T12:07:54Z</time>
      </trkpt>
      <trkpt lat="44.23007" lon="6.20884">
        <ele>1383</ele>
        <time>2018-06-08T12:07:55Z</time>
      </trkpt>
      <trkpt lat="44.23005" lon="6.20885">
        <ele>1383</ele>
        <time>2018-06-08T12:07:56Z</time>
      </trkpt>
      <trkpt lat="44.23003" lon="6.20885">
        <ele>1383</ele>
        <time>2018-06-08T12:07:58Z</time>
      </trkpt>
      <trkpt lat="44.23001" lon="6.20887">
        <ele>1383</ele>
        <time>2018-06-08T12:08:00Z</time>
      </trkpt>
      <trkpt lat="44.22999" lon="6.20889">
        <ele>1383</ele>
        <time>2018-06-08T12:08:01Z</time>
      </trkpt>
      <trkpt lat="44.22998" lon="6.2089">
        <ele>1383</ele>
        <time>2018-06-08T12:08:02Z</time>
      </trkpt>
      <trkpt lat="44.22996" lon="6.2089">
        <ele>1383</ele>
        <time>2018-06-08T12:08:04Z</time>
      </trkpt>
      <trkpt lat="44.22994" lon="6.2089">
        <ele>1383</ele>
        <time>2018-06-08T12:08:06Z</time>
      </trkpt>
      <trkpt lat="44.22992" lon="6.20891">
        <ele>1382</ele>
        <time>2018-06-08T12:08:07Z</time>
      </trkpt>
      <trkpt lat="44.22991" lon="6.20892">
        <ele>1382</ele>
        <time>2018-06-08T12:08:09Z</time>
      </trkpt>
      <trkpt lat="44.22989" lon="6.20893">
        <ele>1382</ele>
        <time>2018-06-08T12:08:10Z</time>
      </trkpt>
      <trkpt lat="44.22988" lon="6.20895">
        <ele>1382</ele>
        <time>2018-06-08T12:08:11Z</time>
      </trkpt>
      <trkpt lat="44.22987" lon="6.20897">
        <ele>1382</ele>
        <time>2018-06-08T12:08:13Z</time>
      </trkpt>
      <trkpt lat="44.22985" lon="6.20898">
        <ele>1381</ele>
        <time>2018-06-08T12:08:15Z</time>
      </trkpt>
      <trkpt lat="44.22984" lon="6.20899">
        <ele>1381</ele>
        <time>2018-06-08T12:08:16Z</time>
      </trkpt>
      <trkpt lat="44.22983" lon="6.20901">
        <ele>1381</ele>
        <time>2018-06-08T12:08:17Z</time>
      </trkpt>
      <trkpt lat="44.22981" lon="6.20901">
        <ele>1381</ele>
        <time>2018-06-08T12:08:18Z</time>
      </trkpt>
      <trkpt lat="44.22979" lon="6.20903">
        <ele>1380</ele>
        <time>2018-06-08T12:08:20Z</time>
      </trkpt>
      <trkpt lat="44.22978" lon="6.20903">
        <ele>1380</ele>
        <time>2018-06-08T12:08:21Z</time>
      </trkpt>
      <trkpt lat="44.22976" lon="6.20905">
        <ele>1379</ele>
        <time>2018-06-08T12:08:23Z</time>
      </trkpt>
      <trkpt lat="44.22975" lon="6.20906">
        <ele>1379</ele>
        <time>2018-06-08T12:08:24Z</time>
      </trkpt>
      <trkpt lat="44.22974" lon="6.20907">
        <ele>1379</ele>
        <time>2018-06-08T12:08:25Z</time>
      </trkpt>
      <trkpt lat="44.22971" lon="6.2091">
        <ele>1378</ele>
        <time>2018-06-08T12:08:27Z</time>
      </trkpt>
      <trkpt lat="44.2297" lon="6.20913">
        <ele>1378</ele>
        <time>2018-06-08T12:08:28Z</time>
      </trkpt>
      <trkpt lat="44.22968" lon="6.20915">
        <ele>1377</ele>
        <time>2018-06-08T12:08:30Z</time>
      </trkpt>
      <trkpt lat="44.22966" lon="6.20915">
        <ele>1376</ele>
        <time>2018-06-08T12:08:31Z</time>
      </trkpt>
      <trkpt lat="44.22964" lon="6.20916">
        <ele>1376</ele>
        <time>2018-06-08T12:08:32Z</time>
      </trkpt>
      <trkpt lat="44.22963" lon="6.20917">
        <ele>1375</ele>
        <time>2018-06-08T12:08:33Z</time>
      </trkpt>
      <trkpt lat="44.22961" lon="6.20918">
        <ele>1375</ele>
        <time>2018-06-08T12:08:34Z</time>
      </trkpt>
      <trkpt lat="44.22959" lon="6.20918">
        <ele>1375</ele>
        <time>2018-06-08T12:08:35Z</time>
      </trkpt>
      <trkpt lat="44.22958" lon="6.20917">
        <ele>1374</ele>
        <time>2018-06-08T12:08:37Z</time>
      </trkpt>
      <trkpt lat="44.22956" lon="6.20918">
        <ele>1371</ele>
        <time>2018-06-08T12:08:40Z</time>
      </trkpt>
      <trkpt lat="44.22955" lon="6.2092">
        <ele>1369</ele>
        <time>2018-06-08T12:08:42Z</time>
      </trkpt>
      <trkpt lat="44.22954" lon="6.20922">
        <ele>1368</ele>
        <time>2018-06-08T12:08:43Z</time>
      </trkpt>
      <trkpt lat="44.22953" lon="6.20924">
        <ele>1367</ele>
        <time>2018-06-08T12:08:44Z</time>
      </trkpt>
      <trkpt lat="44.22952" lon="6.20925">
        <ele>1367</ele>
        <time>2018-06-08T12:08:45Z</time>
      </trkpt>
      <trkpt lat="44.2295" lon="6.20926">
        <ele>1367</ele>
        <time>2018-06-08T12:08:46Z</time>
      </trkpt>
      <trkpt lat="44.22949" lon="6.20927">
        <ele>1367</ele>
        <time>2018-06-08T12:08:47Z</time>
      </trkpt>
      <trkpt lat="44.22947" lon="6.20927">
        <ele>1367</ele>
        <time>2018-06-08T12:08:48Z</time>
      </trkpt>
      <trkpt lat="44.22945" lon="6.20926">
        <ele>1367</ele>
        <time>2018-06-08T12:08:50Z</time>
      </trkpt>
      <trkpt lat="44.22943" lon="6.20927">
        <ele>1367</ele>
        <time>2018-06-08T12:08:52Z</time>
      </trkpt>
      <trkpt lat="44.22942" lon="6.20928">
        <ele>1367</ele>
        <time>2018-06-08T12:08:54Z</time>
      </trkpt>
      <trkpt lat="44.2294" lon="6.2093">
        <ele>1366</ele>
        <time>2018-06-08T12:08:56Z</time>
      </trkpt>
      <trkpt lat="44.22938" lon="6.20932">
        <ele>1365</ele>
        <time>2018-06-08T12:08:57Z</time>
      </trkpt>
      <trkpt lat="44.22935" lon="6.20934">
        <ele>1364</ele>
        <time>2018-06-08T12:08:59Z</time>
      </trkpt>
      <trkpt lat="44.22934" lon="6.20935">
        <ele>1364</ele>
        <time>2018-06-08T12:09:00Z</time>
      </trkpt>
      <trkpt lat="44.22932" lon="6.20938">
        <ele>1364</ele>
        <time>2018-06-08T12:09:02Z</time>
      </trkpt>
      <trkpt lat="44.22931" lon="6.20939">
        <ele>1364</ele>
        <time>2018-06-08T12:09:03Z</time>
      </trkpt>
      <trkpt lat="44.2293" lon="6.20941">
        <ele>1364</ele>
        <time>2018-06-08T12:09:04Z</time>
      </trkpt>
      <trkpt lat="44.22929" lon="6.20943">
        <ele>1364</ele>
        <time>2018-06-08T12:09:05Z</time>
      </trkpt>
      <trkpt lat="44.22926" lon="6.20944">
        <ele>1364</ele>
        <time>2018-06-08T12:09:07Z</time>
      </trkpt>
      <trkpt lat="44.22924" lon="6.20946">
        <ele>1364</ele>
        <time>2018-06-08T12:09:09Z</time>
      </trkpt>
      <trkpt lat="44.22922" lon="6.20946">
        <ele>1364</ele>
        <time>2018-06-08T12:09:10Z</time>
      </trkpt>
      <trkpt lat="44.22921" lon="6.20946">
        <ele>1364</ele>
        <time>2018-06-08T12:09:11Z</time>
      </trkpt>
      <trkpt lat="44.22918" lon="6.20946">
        <ele>1364</ele>
        <time>2018-06-08T12:09:12Z</time>
      </trkpt>
      <trkpt lat="44.22917" lon="6.20947">
        <ele>1364</ele>
        <time>2018-06-08T12:09:13Z</time>
      </trkpt>
      <trkpt lat="44.22915" lon="6.20948">
        <ele>1364</ele>
        <time>2018-06-08T12:09:14Z</time>
      </trkpt>
      <trkpt lat="44.22913" lon="6.20949">
        <ele>1364</ele>
        <time>2018-06-08T12:09:16Z</time>
      </trkpt>
      <trkpt lat="44.22911" lon="6.2095">
        <ele>1364</ele>
        <time>2018-06-08T12:09:18Z</time>
      </trkpt>
      <trkpt lat="44.2291" lon="6.2095">
        <ele>1364</ele>
        <time>2018-06-08T12:09:19Z</time>
      </trkpt>
      <trkpt lat="44.22908" lon="6.20951">
        <ele>1364</ele>
        <time>2018-06-08T12:09:20Z</time>
      </trkpt>
      <trkpt lat="44.22906" lon="6.20951">
        <ele>1364</ele>
        <time>2018-06-08T12:09:21Z</time>
      </trkpt>
      <trkpt lat="44.22905" lon="6.2095">
        <ele>1364</ele>
        <time>2018-06-08T12:09:22Z</time>
      </trkpt>
      <trkpt lat="44.22903" lon="6.2095">
        <ele>1364</ele>
        <time>2018-06-08T12:09:23Z</time>
      </trkpt>
      <trkpt lat="44.22901" lon="6.2095">
        <ele>1364</ele>
        <time>2018-06-08T12:09:25Z</time>
      </trkpt>
      <trkpt lat="44.229" lon="6.20951">
        <ele>1364</ele>
        <time>2018-06-08T12:09:26Z</time>
      </trkpt>
      <trkpt lat="44.22898" lon="6.20951">
        <ele>1364</ele>
        <time>2018-06-08T12:09:27Z</time>
      </trkpt>
      <trkpt lat="44.22897" lon="6.20951">
        <ele>1364</ele>
        <time>2018-06-08T12:09:28Z</time>
      </trkpt>
      <trkpt lat="44.22896" lon="6.20951">
        <ele>1364</ele>
        <time>2018-06-08T12:09:29Z</time>
      </trkpt>
      <trkpt lat="44.22893" lon="6.20949">
        <ele>1364</ele>
        <time>2018-06-08T12:09:31Z</time>
      </trkpt>
      <trkpt lat="44.22892" lon="6.20949">
        <ele>1364</ele>
        <time>2018-06-08T12:09:33Z</time>
      </trkpt>
      <trkpt lat="44.2289" lon="6.2095">
        <ele>1363</ele>
        <time>2018-06-08T12:09:35Z</time>
      </trkpt>
      <trkpt lat="44.22889" lon="6.2095">
        <ele>1363</ele>
        <time>2018-06-08T12:09:36Z</time>
      </trkpt>
      <trkpt lat="44.22887" lon="6.20951">
        <ele>1363</ele>
        <time>2018-06-08T12:09:37Z</time>
      </trkpt>
      <trkpt lat="44.22886" lon="6.20952">
        <ele>1363</ele>
        <time>2018-06-08T12:09:38Z</time>
      </trkpt>
      <trkpt lat="44.22884" lon="6.20953">
        <ele>1363</ele>
        <time>2018-06-08T12:09:39Z</time>
      </trkpt>
      <trkpt lat="44.22883" lon="6.20954">
        <ele>1363</ele>
        <time>2018-06-08T12:09:40Z</time>
      </trkpt>
      <trkpt lat="44.22881" lon="6.20956">
        <ele>1363</ele>
        <time>2018-06-08T12:09:42Z</time>
      </trkpt>
      <trkpt lat="44.2288" lon="6.20957">
        <ele>1363</ele>
        <time>2018-06-08T12:09:43Z</time>
      </trkpt>
      <trkpt lat="44.22878" lon="6.20957">
        <ele>1363</ele>
        <time>2018-06-08T12:09:45Z</time>
      </trkpt>
      <trkpt lat="44.22876" lon="6.20956">
        <ele>1363</ele>
        <time>2018-06-08T12:09:46Z</time>
      </trkpt>
      <trkpt lat="44.22874" lon="6.20956">
        <ele>1363</ele>
        <time>2018-06-08T12:09:47Z</time>
      </trkpt>
      <trkpt lat="44.22873" lon="6.20957">
        <ele>1363</ele>
        <time>2018-06-08T12:09:48Z</time>
      </trkpt>
      <trkpt lat="44.2287" lon="6.20957">
        <ele>1363</ele>
        <time>2018-06-08T12:09:50Z</time>
      </trkpt>
      <trkpt lat="44.22869" lon="6.20956">
        <ele>1363</ele>
        <time>2018-06-08T12:09:51Z</time>
      </trkpt>
      <trkpt lat="44.22867" lon="6.20956">
        <ele>1363</ele>
        <time>2018-06-08T12:09:52Z</time>
      </trkpt>
      <trkpt lat="44.22866" lon="6.20956">
        <ele>1363</ele>
        <time>2018-06-08T12:09:53Z</time>
      </trkpt>
      <trkpt lat="44.22865" lon="6.20956">
        <ele>1363</ele>
        <time>2018-06-08T12:09:54Z</time>
      </trkpt>
      <trkpt lat="44.22863" lon="6.20956">
        <ele>1363</ele>
        <time>2018-06-08T12:09:55Z</time>
      </trkpt>
      <trkpt lat="44.22862" lon="6.20956">
        <ele>1363</ele>
        <time>2018-06-08T12:09:56Z</time>
      </trkpt>
      <trkpt lat="44.22861" lon="6.20956">
        <ele>1363</ele>
        <time>2018-06-08T12:09:57Z</time>
      </trkpt>
      <trkpt lat="44.2286" lon="6.20956">
        <ele>1363</ele>
        <time>2018-06-08T12:09:58Z</time>
      </trkpt>
      <trkpt lat="44.22858" lon="6.20957">
        <ele>1363</ele>
        <time>2018-06-08T12:09:59Z</time>
      </trkpt>
      <trkpt lat="44.22857" lon="6.20957">
        <ele>1363</ele>
        <time>2018-06-08T12:10:00Z</time>
      </trkpt>
      <trkpt lat="44.22855" lon="6.20957">
        <ele>1363</ele>
        <time>2018-06-08T12:10:01Z</time>
      </trkpt>
      <trkpt lat="44.22854" lon="6.20956">
        <ele>1363</ele>
        <time>2018-06-08T12:10:02Z</time>
      </trkpt>
      <trkpt lat="44.22853" lon="6.20955">
        <ele>1362</ele>
        <time>2018-06-08T12:10:03Z</time>
      </trkpt>
      <trkpt lat="44.22852" lon="6.20955">
        <ele>1362</ele>
        <time>2018-06-08T12:10:04Z</time>
      </trkpt>
      <trkpt lat="44.2285" lon="6.20956">
        <ele>1362</ele>
        <time>2018-06-08T12:10:06Z</time>
      </trkpt>
      <trkpt lat="44.22848" lon="6.20957">
        <ele>1362</ele>
        <time>2018-06-08T12:10:07Z</time>
      </trkpt>
      <trkpt lat="44.22847" lon="6.20957">
        <ele>1362</ele>
        <time>2018-06-08T12:10:08Z</time>
      </trkpt>
      <trkpt lat="44.22845" lon="6.20958">
        <ele>1362</ele>
        <time>2018-06-08T12:10:09Z</time>
      </trkpt>
      <trkpt lat="44.22843" lon="6.20958">
        <ele>1362</ele>
        <time>2018-06-08T12:10:10Z</time>
      </trkpt>
      <trkpt lat="44.22841" lon="6.20957">
        <ele>1362</ele>
        <time>2018-06-08T12:10:11Z</time>
      </trkpt>
      <trkpt lat="44.22839" lon="6.20955">
        <ele>1362</ele>
        <time>2018-06-08T12:10:12Z</time>
      </trkpt>
      <trkpt lat="44.22838" lon="6.20954">
        <ele>1361</ele>
        <time>2018-06-08T12:10:13Z</time>
      </trkpt>
      <trkpt lat="44.22835" lon="6.20955">
        <ele>1360</ele>
        <time>2018-06-08T12:10:15Z</time>
      </trkpt>
      <trkpt lat="44.22834" lon="6.20955">
        <ele>1360</ele>
        <time>2018-06-08T12:10:16Z</time>
      </trkpt>
      <trkpt lat="44.22832" lon="6.20956">
        <ele>1360</ele>
        <time>2018-06-08T12:10:17Z</time>
      </trkpt>
      <trkpt lat="44.22831" lon="6.20955">
        <ele>1360</ele>
        <time>2018-06-08T12:10:18Z</time>
      </trkpt>
      <trkpt lat="44.22829" lon="6.20956">
        <ele>1360</ele>
        <time>2018-06-08T12:10:19Z</time>
      </trkpt>
      <trkpt lat="44.22827" lon="6.20956">
        <ele>1360</ele>
        <time>2018-06-08T12:10:20Z</time>
      </trkpt>
      <trkpt lat="44.22826" lon="6.20955">
        <ele>1360</ele>
        <time>2018-06-08T12:10:21Z</time>
      </trkpt>
      <trkpt lat="44.22824" lon="6.20954">
        <ele>1360</ele>
        <time>2018-06-08T12:10:22Z</time>
      </trkpt>
      <trkpt lat="44.22823" lon="6.20953">
        <ele>1360</ele>
        <time>2018-06-08T12:10:23Z</time>
      </trkpt>
      <trkpt lat="44.22822" lon="6.2095">
        <ele>1360</ele>
        <time>2018-06-08T12:10:24Z</time>
      </trkpt>
      <trkpt lat="44.22821" lon="6.20948">
        <ele>1360</ele>
        <time>2018-06-08T12:10:25Z</time>
      </trkpt>
      <trkpt lat="44.22821" lon="6.20946">
        <ele>1360</ele>
        <time>2018-06-08T12:10:26Z</time>
      </trkpt>
      <trkpt lat="44.22818" lon="6.20944">
        <ele>1357</ele>
        <time>2018-06-08T12:10:29Z</time>
      </trkpt>
      <trkpt lat="44.22817" lon="6.20943">
        <ele>1357</ele>
        <time>2018-06-08T12:10:30Z</time>
      </trkpt>
      <trkpt lat="44.22815" lon="6.20942">
        <ele>1357</ele>
        <time>2018-06-08T12:10:32Z</time>
      </trkpt>
      <trkpt lat="44.22813" lon="6.20941">
        <ele>1357</ele>
        <time>2018-06-08T12:10:34Z</time>
      </trkpt>
      <trkpt lat="44.22812" lon="6.20941">
        <ele>1357</ele>
        <time>2018-06-08T12:10:35Z</time>
      </trkpt>
      <trkpt lat="44.22811" lon="6.20941">
        <ele>1357</ele>
        <time>2018-06-08T12:10:36Z</time>
      </trkpt>
      <trkpt lat="44.22809" lon="6.20941">
        <ele>1357</ele>
        <time>2018-06-08T12:10:37Z</time>
      </trkpt>
      <trkpt lat="44.22807" lon="6.20941">
        <ele>1357</ele>
        <time>2018-06-08T12:10:39Z</time>
      </trkpt>
      <trkpt lat="44.22805" lon="6.2094">
        <ele>1357</ele>
        <time>2018-06-08T12:10:41Z</time>
      </trkpt>
      <trkpt lat="44.22804" lon="6.20941">
        <ele>1357</ele>
        <time>2018-06-08T12:10:44Z</time>
      </trkpt>
      <trkpt lat="44.22802" lon="6.20944">
        <ele>1357</ele>
        <time>2018-06-08T12:10:46Z</time>
      </trkpt>
      <trkpt lat="44.228" lon="6.20945">
        <ele>1357</ele>
        <time>2018-06-08T12:10:47Z</time>
      </trkpt>
      <trkpt lat="44.22799" lon="6.20946">
        <ele>1358</ele>
        <time>2018-06-08T12:10:48Z</time>
      </trkpt>
      <trkpt lat="44.22798" lon="6.20947">
        <ele>1358</ele>
        <time>2018-06-08T12:10:49Z</time>
      </trkpt>
      <trkpt lat="44.22796" lon="6.20949">
        <ele>1359</ele>
        <time>2018-06-08T12:10:51Z</time>
      </trkpt>
      <trkpt lat="44.22794" lon="6.20951">
        <ele>1359</ele>
        <time>2018-06-08T12:10:53Z</time>
      </trkpt>
      <trkpt lat="44.22792" lon="6.20953">
        <ele>1359</ele>
        <time>2018-06-08T12:10:55Z</time>
      </trkpt>
      <trkpt lat="44.22791" lon="6.20954">
        <ele>1359</ele>
        <time>2018-06-08T12:10:56Z</time>
      </trkpt>
      <trkpt lat="44.2279" lon="6.20954">
        <ele>1359</ele>
        <time>2018-06-08T12:10:57Z</time>
      </trkpt>
      <trkpt lat="44.22787" lon="6.20956">
        <ele>1359</ele>
        <time>2018-06-08T12:10:59Z</time>
      </trkpt>
      <trkpt lat="44.22785" lon="6.20957">
        <ele>1358</ele>
        <time>2018-06-08T12:11:01Z</time>
      </trkpt>
      <trkpt lat="44.22784" lon="6.20958">
        <ele>1358</ele>
        <time>2018-06-08T12:11:02Z</time>
      </trkpt>
      <trkpt lat="44.22783" lon="6.20959">
        <ele>1358</ele>
        <time>2018-06-08T12:11:03Z</time>
      </trkpt>
      <trkpt lat="44.22781" lon="6.2096">
        <ele>1358</ele>
        <time>2018-06-08T12:11:04Z</time>
      </trkpt>
      <trkpt lat="44.2278" lon="6.20961">
        <ele>1358</ele>
        <time>2018-06-08T12:11:05Z</time>
      </trkpt>
      <trkpt lat="44.22779" lon="6.20961">
        <ele>1358</ele>
        <time>2018-06-08T12:11:06Z</time>
      </trkpt>
      <trkpt lat="44.22778" lon="6.20961">
        <ele>1358</ele>
        <time>2018-06-08T12:11:07Z</time>
      </trkpt>
      <trkpt lat="44.22776" lon="6.20963">
        <ele>1358</ele>
        <time>2018-06-08T12:11:09Z</time>
      </trkpt>
      <trkpt lat="44.22774" lon="6.20965">
        <ele>1358</ele>
        <time>2018-06-08T12:11:10Z</time>
      </trkpt>
      <trkpt lat="44.22773" lon="6.20965">
        <ele>1358</ele>
        <time>2018-06-08T12:11:11Z</time>
      </trkpt>
      <trkpt lat="44.22772" lon="6.20966">
        <ele>1358</ele>
        <time>2018-06-08T12:11:12Z</time>
      </trkpt>
      <trkpt lat="44.2277" lon="6.20968">
        <ele>1358</ele>
        <time>2018-06-08T12:11:14Z</time>
      </trkpt>
      <trkpt lat="44.22767" lon="6.20969">
        <ele>1358</ele>
        <time>2018-06-08T12:11:16Z</time>
      </trkpt>
      <trkpt lat="44.22765" lon="6.2097">
        <ele>1358</ele>
        <time>2018-06-08T12:11:18Z</time>
      </trkpt>
      <trkpt lat="44.22763" lon="6.20971">
        <ele>1358</ele>
        <time>2018-06-08T12:11:20Z</time>
      </trkpt>
      <trkpt lat="44.22762" lon="6.20973">
        <ele>1358</ele>
        <time>2018-06-08T12:11:21Z</time>
      </trkpt>
      <trkpt lat="44.22759" lon="6.20975">
        <ele>1360</ele>
        <time>2018-06-08T12:11:23Z</time>
      </trkpt>
      <trkpt lat="44.22757" lon="6.20975">
        <ele>1361</ele>
        <time>2018-06-08T12:11:24Z</time>
      </trkpt>
      <trkpt lat="44.22755" lon="6.20976">
        <ele>1362</ele>
        <time>2018-06-08T12:11:25Z</time>
      </trkpt>
      <trkpt lat="44.22754" lon="6.20976">
        <ele>1362</ele>
        <time>2018-06-08T12:11:26Z</time>
      </trkpt>
      <trkpt lat="44.22753" lon="6.20979">
        <ele>1362</ele>
        <time>2018-06-08T12:11:28Z</time>
      </trkpt>
      <trkpt lat="44.22752" lon="6.20979">
        <ele>1362</ele>
        <time>2018-06-08T12:11:29Z</time>
      </trkpt>
      <trkpt lat="44.2275" lon="6.2098">
        <ele>1362</ele>
        <time>2018-06-08T12:11:30Z</time>
      </trkpt>
      <trkpt lat="44.22749" lon="6.20981">
        <ele>1362</ele>
        <time>2018-06-08T12:11:31Z</time>
      </trkpt>
      <trkpt lat="44.22747" lon="6.20982">
        <ele>1361</ele>
        <time>2018-06-08T12:11:32Z</time>
      </trkpt>
      <trkpt lat="44.22746" lon="6.20983">
        <ele>1360</ele>
        <time>2018-06-08T12:11:33Z</time>
      </trkpt>
      <trkpt lat="44.22744" lon="6.20984">
        <ele>1359</ele>
        <time>2018-06-08T12:11:34Z</time>
      </trkpt>
      <trkpt lat="44.22742" lon="6.20986">
        <ele>1358</ele>
        <time>2018-06-08T12:11:35Z</time>
      </trkpt>
      <trkpt lat="44.22741" lon="6.20987">
        <ele>1357</ele>
        <time>2018-06-08T12:11:36Z</time>
      </trkpt>
      <trkpt lat="44.22739" lon="6.20988">
        <ele>1356</ele>
        <time>2018-06-08T12:11:37Z</time>
      </trkpt>
      <trkpt lat="44.22738" lon="6.20988">
        <ele>1355</ele>
        <time>2018-06-08T12:11:38Z</time>
      </trkpt>
      <trkpt lat="44.22736" lon="6.20989">
        <ele>1354</ele>
        <time>2018-06-08T12:11:40Z</time>
      </trkpt>
      <trkpt lat="44.22735" lon="6.2099">
        <ele>1353</ele>
        <time>2018-06-08T12:11:41Z</time>
      </trkpt>
      <trkpt lat="44.22733" lon="6.20991">
        <ele>1352</ele>
        <time>2018-06-08T12:11:42Z</time>
      </trkpt>
      <trkpt lat="44.22731" lon="6.20992">
        <ele>1352</ele>
        <time>2018-06-08T12:11:43Z</time>
      </trkpt>
      <trkpt lat="44.22729" lon="6.20994">
        <ele>1352</ele>
        <time>2018-06-08T12:11:44Z</time>
      </trkpt>
      <trkpt lat="44.22728" lon="6.20994">
        <ele>1352</ele>
        <time>2018-06-08T12:11:46Z</time>
      </trkpt>
      <trkpt lat="44.22726" lon="6.20995">
        <ele>1350</ele>
        <time>2018-06-08T12:11:48Z</time>
      </trkpt>
      <trkpt lat="44.22723" lon="6.20997">
        <ele>1348</ele>
        <time>2018-06-08T12:11:50Z</time>
      </trkpt>
      <trkpt lat="44.22721" lon="6.20998">
        <ele>1347</ele>
        <time>2018-06-08T12:11:51Z</time>
      </trkpt>
      <trkpt lat="44.2272" lon="6.20998">
        <ele>1346</ele>
        <time>2018-06-08T12:11:52Z</time>
      </trkpt>
      <trkpt lat="44.22718" lon="6.20998">
        <ele>1346</ele>
        <time>2018-06-08T12:11:53Z</time>
      </trkpt>
      <trkpt lat="44.22716" lon="6.20998">
        <ele>1346</ele>
        <time>2018-06-08T12:11:54Z</time>
      </trkpt>
      <trkpt lat="44.22714" lon="6.20997">
        <ele>1344</ele>
        <time>2018-06-08T12:11:56Z</time>
      </trkpt>
      <trkpt lat="44.22712" lon="6.20997">
        <ele>1343</ele>
        <time>2018-06-08T12:11:57Z</time>
      </trkpt>
      <trkpt lat="44.22711" lon="6.20998">
        <ele>1342</ele>
        <time>2018-06-08T12:11:58Z</time>
      </trkpt>
      <trkpt lat="44.2271" lon="6.20998">
        <ele>1342</ele>
        <time>2018-06-08T12:11:59Z</time>
      </trkpt>
      <trkpt lat="44.22708" lon="6.20998">
        <ele>1341</ele>
        <time>2018-06-08T12:12:01Z</time>
      </trkpt>
      <trkpt lat="44.22707" lon="6.20999">
        <ele>1338</ele>
        <time>2018-06-08T12:12:05Z</time>
      </trkpt>
      <trkpt lat="44.22707" lon="6.21001">
        <ele>1335</ele>
        <time>2018-06-08T12:12:10Z</time>
      </trkpt>
      <trkpt lat="44.22708" lon="6.21003">
        <ele>1335</ele>
        <time>2018-06-08T12:12:11Z</time>
      </trkpt>
      <trkpt lat="44.22709" lon="6.21004">
        <ele>1335</ele>
        <time>2018-06-08T12:12:12Z</time>
      </trkpt>
      <trkpt lat="44.22708" lon="6.21002">
        <ele>1333</ele>
        <time>2018-06-08T12:12:17Z</time>
      </trkpt>
      <trkpt lat="44.22707" lon="6.21004">
        <ele>1333</ele>
        <time>2018-06-08T12:12:22Z</time>
      </trkpt>
      <trkpt lat="44.22706" lon="6.21006">
        <ele>1333</ele>
        <time>2018-06-08T12:12:24Z</time>
      </trkpt>
      <trkpt lat="44.22705" lon="6.21008">
        <ele>1337</ele>
        <time>2018-06-08T12:12:28Z</time>
      </trkpt>
      <trkpt lat="44.22706" lon="6.2101">
        <ele>1339</ele>
        <time>2018-06-08T12:12:30Z</time>
      </trkpt>
      <trkpt lat="44.22707" lon="6.21011">
        <ele>1341</ele>
        <time>2018-06-08T12:12:31Z</time>
      </trkpt>
      <trkpt lat="44.22707" lon="6.2101">
        <ele>1349</ele>
        <time>2018-06-08T12:12:38Z</time>
      </trkpt>
      <trkpt lat="44.22704" lon="6.2101">
        <ele>1351</ele>
        <time>2018-06-08T12:12:40Z</time>
      </trkpt>
      <trkpt lat="44.22704" lon="6.21012">
        <ele>1352</ele>
        <time>2018-06-08T12:12:43Z</time>
      </trkpt>
      <trkpt lat="44.22704" lon="6.21014">
        <ele>1352</ele>
        <time>2018-06-08T12:12:45Z</time>
      </trkpt>
      <trkpt lat="44.22706" lon="6.21012">
        <ele>1353</ele>
        <time>2018-06-08T12:12:49Z</time>
      </trkpt>
      <trkpt lat="44.22706" lon="6.21011">
        <ele>1355</ele>
        <time>2018-06-08T12:12:52Z</time>
      </trkpt>
      <trkpt lat="44.22708" lon="6.21008">
        <ele>1357</ele>
        <time>2018-06-08T12:12:59Z</time>
      </trkpt>
      <trkpt lat="44.2271" lon="6.21007">
        <ele>1357</ele>
        <time>2018-06-08T12:13:00Z</time>
      </trkpt>
      <trkpt lat="44.22707" lon="6.21008">
        <ele>1354</ele>
        <time>2018-06-08T12:13:03Z</time>
      </trkpt>
      <trkpt lat="44.22706" lon="6.21008">
        <ele>1352</ele>
        <time>2018-06-08T12:13:05Z</time>
      </trkpt>
      <trkpt lat="44.22705" lon="6.2101">
        <ele>1351</ele>
        <time>2018-06-08T12:13:10Z</time>
      </trkpt>
      <trkpt lat="44.22704" lon="6.21011">
        <ele>1351</ele>
        <time>2018-06-08T12:13:13Z</time>
      </trkpt>
      <trkpt lat="44.22704" lon="6.21013">
        <ele>1351</ele>
        <time>2018-06-08T12:13:15Z</time>
      </trkpt>
      <trkpt lat="44.22704" lon="6.21015">
        <ele>1351</ele>
        <time>2018-06-08T12:13:17Z</time>
      </trkpt>
      <trkpt lat="44.22705" lon="6.21015">
        <ele>1351</ele>
        <time>2018-06-08T12:13:19Z</time>
      </trkpt>
      <trkpt lat="44.22706" lon="6.21013">
        <ele>1351</ele>
        <time>2018-06-08T12:13:22Z</time>
      </trkpt>
      <trkpt lat="44.22707" lon="6.21011">
        <ele>1351</ele>
        <time>2018-06-08T12:13:23Z</time>
      </trkpt>
      <trkpt lat="44.22707" lon="6.21009">
        <ele>1350</ele>
        <time>2018-06-08T12:13:25Z</time>
      </trkpt>
      <trkpt lat="44.22701" lon="6.20999">
        <ele>1345</ele>
        <time>2018-06-08T12:13:33Z</time>
      </trkpt>
      <trkpt lat="44.22702" lon="6.21">
        <ele>1341</ele>
        <time>2018-06-08T12:13:37Z</time>
      </trkpt>
      <trkpt lat="44.22702" lon="6.21002">
        <ele>1340</ele>
        <time>2018-06-08T12:13:38Z</time>
      </trkpt>
      <trkpt lat="44.22704" lon="6.21004">
        <ele>1338</ele>
        <time>2018-06-08T12:13:40Z</time>
      </trkpt>
      <trkpt lat="44.22706" lon="6.21004">
        <ele>1336</ele>
        <time>2018-06-08T12:13:42Z</time>
      </trkpt>
      <trkpt lat="44.22705" lon="6.21005">
        <ele>1336</ele>
        <time>2018-06-08T12:13:44Z</time>
      </trkpt>
      <trkpt lat="44.22704" lon="6.21006">
        <ele>1336</ele>
        <time>2018-06-08T12:13:46Z</time>
      </trkpt>
      <trkpt lat="44.22705" lon="6.21008">
        <ele>1336</ele>
        <time>2018-06-08T12:13:49Z</time>
      </trkpt>
      <trkpt lat="44.22704" lon="6.2101">
        <ele>1338</ele>
        <time>2018-06-08T12:13:54Z</time>
      </trkpt>
      <trkpt lat="44.22703" lon="6.21011">
        <ele>1339</ele>
        <time>2018-06-08T12:13:56Z</time>
      </trkpt>
      <trkpt lat="44.22702" lon="6.21012">
        <ele>1339</ele>
        <time>2018-06-08T12:14:00Z</time>
      </trkpt>
      <trkpt lat="44.22702" lon="6.21014">
        <ele>1339</ele>
        <time>2018-06-08T12:14:01Z</time>
      </trkpt>
      <trkpt lat="44.227" lon="6.21015">
        <ele>1339</ele>
        <time>2018-06-08T12:14:06Z</time>
      </trkpt>
      <trkpt lat="44.22699" lon="6.21017">
        <ele>1339</ele>
        <time>2018-06-08T12:14:10Z</time>
      </trkpt>
      <trkpt lat="44.22698" lon="6.21019">
        <ele>1339</ele>
        <time>2018-06-08T12:14:12Z</time>
      </trkpt>
      <trkpt lat="44.22697" lon="6.2102">
        <ele>1339</ele>
        <time>2018-06-08T12:14:14Z</time>
      </trkpt>
      <trkpt lat="44.22696" lon="6.21022">
        <ele>1339</ele>
        <time>2018-06-08T12:14:18Z</time>
      </trkpt>
      <trkpt lat="44.22696" lon="6.21024">
        <ele>1339</ele>
        <time>2018-06-08T12:14:22Z</time>
      </trkpt>
      <trkpt lat="44.22694" lon="6.21025">
        <ele>1339</ele>
        <time>2018-06-08T12:14:24Z</time>
      </trkpt>
      <trkpt lat="44.22692" lon="6.21027">
        <ele>1339</ele>
        <time>2018-06-08T12:14:26Z</time>
      </trkpt>
      <trkpt lat="44.22691" lon="6.21028">
        <ele>1339</ele>
        <time>2018-06-08T12:14:28Z</time>
      </trkpt>
      <trkpt lat="44.2269" lon="6.21029">
        <ele>1339</ele>
        <time>2018-06-08T12:14:29Z</time>
      </trkpt>
      <trkpt lat="44.22688" lon="6.2103">
        <ele>1339</ele>
        <time>2018-06-08T12:14:31Z</time>
      </trkpt>
      <trkpt lat="44.22686" lon="6.21032">
        <ele>1339</ele>
        <time>2018-06-08T12:14:34Z</time>
      </trkpt>
      <trkpt lat="44.22686" lon="6.21034">
        <ele>1339</ele>
        <time>2018-06-08T12:14:36Z</time>
      </trkpt>
      <trkpt lat="44.22686" lon="6.21035">
        <ele>1341</ele>
        <time>2018-06-08T12:14:47Z</time>
      </trkpt>
      <trkpt lat="44.22684" lon="6.21035">
        <ele>1343</ele>
        <time>2018-06-08T12:14:53Z</time>
      </trkpt>
      <trkpt lat="44.22683" lon="6.21035">
        <ele>1343</ele>
        <time>2018-06-08T12:14:57Z</time>
      </trkpt>
      <trkpt lat="44.22684" lon="6.21035">
        <ele>1343</ele>
        <time>2018-06-08T12:15:00Z</time>
      </trkpt>
      <trkpt lat="44.22686" lon="6.21035">
        <ele>1342</ele>
        <time>2018-06-08T12:15:02Z</time>
      </trkpt>
      <trkpt lat="44.22687" lon="6.21035">
        <ele>1340</ele>
        <time>2018-06-08T12:15:04Z</time>
      </trkpt>
      <trkpt lat="44.22688" lon="6.21036">
        <ele>1330</ele>
        <time>2018-06-08T12:15:11Z</time>
      </trkpt>
      <trkpt lat="44.22687" lon="6.21038">
        <ele>1329</ele>
        <time>2018-06-08T12:15:15Z</time>
      </trkpt>
      <trkpt lat="44.22687" lon="6.2104">
        <ele>1329</ele>
        <time>2018-06-08T12:15:17Z</time>
      </trkpt>
      <trkpt lat="44.22686" lon="6.21041">
        <ele>1329</ele>
        <time>2018-06-08T12:15:25Z</time>
      </trkpt>
      <trkpt lat="44.22686" lon="6.21039">
        <ele>1331</ele>
        <time>2018-06-08T12:15:30Z</time>
      </trkpt>
      <trkpt lat="44.22684" lon="6.2104">
        <ele>1331</ele>
        <time>2018-06-08T12:15:37Z</time>
      </trkpt>
      <trkpt lat="44.22683" lon="6.21042">
        <ele>1331</ele>
        <time>2018-06-08T12:15:40Z</time>
      </trkpt>
      <trkpt lat="44.22682" lon="6.21042">
        <ele>1333</ele>
        <time>2018-06-08T12:15:43Z</time>
      </trkpt>
      <trkpt lat="44.22681" lon="6.21044">
        <ele>1336</ele>
        <time>2018-06-08T12:15:46Z</time>
      </trkpt>
      <trkpt lat="44.2268" lon="6.21046">
        <ele>1337</ele>
        <time>2018-06-08T12:15:47Z</time>
      </trkpt>
      <trkpt lat="44.22679" lon="6.21047">
        <ele>1343</ele>
        <time>2018-06-08T12:15:53Z</time>
      </trkpt>
      <trkpt lat="44.22678" lon="6.21047">
        <ele>1343</ele>
        <time>2018-06-08T12:15:56Z</time>
      </trkpt>
      <trkpt lat="44.22677" lon="6.21048">
        <ele>1343</ele>
        <time>2018-06-08T12:15:59Z</time>
      </trkpt>
      <trkpt lat="44.22676" lon="6.2105">
        <ele>1343</ele>
        <time>2018-06-08T12:16:03Z</time>
      </trkpt>
      <trkpt lat="44.22676" lon="6.21052">
        <ele>1343</ele>
        <time>2018-06-08T12:16:06Z</time>
      </trkpt>
      <trkpt lat="44.22676" lon="6.21054">
        <ele>1342</ele>
        <time>2018-06-08T12:16:10Z</time>
      </trkpt>
      <trkpt lat="44.22677" lon="6.21055">
        <ele>1342</ele>
        <time>2018-06-08T12:16:18Z</time>
      </trkpt>
      <trkpt lat="44.22676" lon="6.21054">
        <ele>1342</ele>
        <time>2018-06-08T12:16:30Z</time>
      </trkpt>
      <trkpt lat="44.22675" lon="6.21053">
        <ele>1342</ele>
        <time>2018-06-08T12:16:40Z</time>
      </trkpt>
      <trkpt lat="44.22675" lon="6.21051">
        <ele>1342</ele>
        <time>2018-06-08T12:16:49Z</time>
      </trkpt>
      <trkpt lat="44.22676" lon="6.21053">
        <ele>1342</ele>
        <time>2018-06-08T12:16:51Z</time>
      </trkpt>
      <trkpt lat="44.22678" lon="6.21054">
        <ele>1338</ele>
        <time>2018-06-08T12:16:57Z</time>
      </trkpt>
      <trkpt lat="44.22679" lon="6.21053">
        <ele>1332</ele>
        <time>2018-06-08T12:17:06Z</time>
      </trkpt>
      <trkpt lat="44.22678" lon="6.21053">
        <ele>1329</ele>
        <time>2018-06-08T12:17:11Z</time>
      </trkpt>
      <trkpt lat="44.22676" lon="6.21052">
        <ele>1329</ele>
        <time>2018-06-08T12:17:20Z</time>
      </trkpt>
      <trkpt lat="44.22675" lon="6.21053">
        <ele>1329</ele>
        <time>2018-06-08T12:17:27Z</time>
      </trkpt>
      <trkpt lat="44.22675" lon="6.21055">
        <ele>1329</ele>
        <time>2018-06-08T12:17:30Z</time>
      </trkpt>
      <trkpt lat="44.22674" lon="6.21056">
        <ele>1329</ele>
        <time>2018-06-08T12:17:33Z</time>
      </trkpt>
      <trkpt lat="44.22672" lon="6.21056">
        <ele>1331</ele>
        <time>2018-06-08T12:17:42Z</time>
      </trkpt>
      <trkpt lat="44.22671" lon="6.21056">
        <ele>1331</ele>
        <time>2018-06-08T12:17:44Z</time>
      </trkpt>
      <trkpt lat="44.2267" lon="6.21056">
        <ele>1331</ele>
        <time>2018-06-08T12:17:45Z</time>
      </trkpt>
      <trkpt lat="44.22668" lon="6.21055">
        <ele>1331</ele>
        <time>2018-06-08T12:17:47Z</time>
      </trkpt>
      <trkpt lat="44.22666" lon="6.21054">
        <ele>1331</ele>
        <time>2018-06-08T12:17:49Z</time>
      </trkpt>
      <trkpt lat="44.22664" lon="6.21053">
        <ele>1331</ele>
        <time>2018-06-08T12:17:51Z</time>
      </trkpt>
      <trkpt lat="44.22662" lon="6.21052">
        <ele>1331</ele>
        <time>2018-06-08T12:17:53Z</time>
      </trkpt>
      <trkpt lat="44.2266" lon="6.2105">
        <ele>1331</ele>
        <time>2018-06-08T12:17:55Z</time>
      </trkpt>
      <trkpt lat="44.22658" lon="6.2105">
        <ele>1331</ele>
        <time>2018-06-08T12:17:57Z</time>
      </trkpt>
      <trkpt lat="44.22656" lon="6.21049">
        <ele>1331</ele>
        <time>2018-06-08T12:17:59Z</time>
      </trkpt>
      <trkpt lat="44.22654" lon="6.21048">
        <ele>1331</ele>
        <time>2018-06-08T12:18:01Z</time>
      </trkpt>
      <trkpt lat="44.22653" lon="6.21048">
        <ele>1331</ele>
        <time>2018-06-08T12:18:03Z</time>
      </trkpt>
      <trkpt lat="44.22652" lon="6.21047">
        <ele>1331</ele>
        <time>2018-06-08T12:18:05Z</time>
      </trkpt>
      <trkpt lat="44.2265" lon="6.21047">
        <ele>1331</ele>
        <time>2018-06-08T12:18:07Z</time>
      </trkpt>
      <trkpt lat="44.22649" lon="6.21047">
        <ele>1331</ele>
        <time>2018-06-08T12:18:10Z</time>
      </trkpt>
      <trkpt lat="44.22648" lon="6.21047">
        <ele>1331</ele>
        <time>2018-06-08T12:18:13Z</time>
      </trkpt>
      <trkpt lat="44.22646" lon="6.21047">
        <ele>1331</ele>
        <time>2018-06-08T12:18:15Z</time>
      </trkpt>
      <trkpt lat="44.22645" lon="6.21045">
        <ele>1331</ele>
        <time>2018-06-08T12:18:16Z</time>
      </trkpt>
      <trkpt lat="44.22644" lon="6.21044">
        <ele>1331</ele>
        <time>2018-06-08T12:18:17Z</time>
      </trkpt>
      <trkpt lat="44.22642" lon="6.21044">
        <ele>1331</ele>
        <time>2018-06-08T12:18:18Z</time>
      </trkpt>
      <trkpt lat="44.22641" lon="6.21044">
        <ele>1331</ele>
        <time>2018-06-08T12:18:19Z</time>
      </trkpt>
      <trkpt lat="44.2264" lon="6.21044">
        <ele>1331</ele>
        <time>2018-06-08T12:18:20Z</time>
      </trkpt>
      <trkpt lat="44.22639" lon="6.21044">
        <ele>1331</ele>
        <time>2018-06-08T12:18:21Z</time>
      </trkpt>
      <trkpt lat="44.22638" lon="6.21044">
        <ele>1331</ele>
        <time>2018-06-08T12:18:22Z</time>
      </trkpt>
      <trkpt lat="44.22636" lon="6.21044">
        <ele>1331</ele>
        <time>2018-06-08T12:18:23Z</time>
      </trkpt>
      <trkpt lat="44.22634" lon="6.21044">
        <ele>1331</ele>
        <time>2018-06-08T12:18:25Z</time>
      </trkpt>
      <trkpt lat="44.22632" lon="6.21045">
        <ele>1331</ele>
        <time>2018-06-08T12:18:27Z</time>
      </trkpt>
      <trkpt lat="44.2263" lon="6.21046">
        <ele>1331</ele>
        <time>2018-06-08T12:18:29Z</time>
      </trkpt>
      <trkpt lat="44.2263" lon="6.21048">
        <ele>1331</ele>
        <time>2018-06-08T12:18:32Z</time>
      </trkpt>
      <trkpt lat="44.22629" lon="6.21049">
        <ele>1331</ele>
        <time>2018-06-08T12:18:35Z</time>
      </trkpt>
      <trkpt lat="44.22628" lon="6.2105">
        <ele>1331</ele>
        <time>2018-06-08T12:18:39Z</time>
      </trkpt>
      <trkpt lat="44.22626" lon="6.21049">
        <ele>1331</ele>
        <time>2018-06-08T12:18:43Z</time>
      </trkpt>
      <trkpt lat="44.22625" lon="6.2105">
        <ele>1331</ele>
        <time>2018-06-08T12:18:45Z</time>
      </trkpt>
      <trkpt lat="44.22623" lon="6.21051">
        <ele>1331</ele>
        <time>2018-06-08T12:18:46Z</time>
      </trkpt>
      <trkpt lat="44.22622" lon="6.21052">
        <ele>1331</ele>
        <time>2018-06-08T12:18:47Z</time>
      </trkpt>
      <trkpt lat="44.22621" lon="6.21052">
        <ele>1331</ele>
        <time>2018-06-08T12:18:48Z</time>
      </trkpt>
      <trkpt lat="44.2262" lon="6.21054">
        <ele>1331</ele>
        <time>2018-06-08T12:18:51Z</time>
      </trkpt>
      <trkpt lat="44.22618" lon="6.21054">
        <ele>1331</ele>
        <time>2018-06-08T12:18:55Z</time>
      </trkpt>
      <trkpt lat="44.22617" lon="6.21053">
        <ele>1330</ele>
        <time>2018-06-08T12:18:57Z</time>
      </trkpt>
      <trkpt lat="44.22615" lon="6.21051">
        <ele>1328</ele>
        <time>2018-06-08T12:18:59Z</time>
      </trkpt>
      <trkpt lat="44.22614" lon="6.21049">
        <ele>1326</ele>
        <time>2018-06-08T12:19:01Z</time>
      </trkpt>
      <trkpt lat="44.22613" lon="6.21048">
        <ele>1323</ele>
        <time>2018-06-08T12:19:04Z</time>
      </trkpt>
      <trkpt lat="44.22612" lon="6.21048">
        <ele>1321</ele>
        <time>2018-06-08T12:19:06Z</time>
      </trkpt>
      <trkpt lat="44.2261" lon="6.2105">
        <ele>1320</ele>
        <time>2018-06-08T12:19:09Z</time>
      </trkpt>
      <trkpt lat="44.22609" lon="6.21051">
        <ele>1320</ele>
        <time>2018-06-08T12:19:11Z</time>
      </trkpt>
      <trkpt lat="44.22607" lon="6.21052">
        <ele>1320</ele>
        <time>2018-06-08T12:19:13Z</time>
      </trkpt>
      <trkpt lat="44.22606" lon="6.21052">
        <ele>1320</ele>
        <time>2018-06-08T12:19:15Z</time>
      </trkpt>
      <trkpt lat="44.22605" lon="6.21053">
        <ele>1320</ele>
        <time>2018-06-08T12:19:17Z</time>
      </trkpt>
      <trkpt lat="44.22604" lon="6.21054">
        <ele>1320</ele>
        <time>2018-06-08T12:19:19Z</time>
      </trkpt>
      <trkpt lat="44.22602" lon="6.21055">
        <ele>1320</ele>
        <time>2018-06-08T12:19:21Z</time>
      </trkpt>
      <trkpt lat="44.226" lon="6.21055">
        <ele>1321</ele>
        <time>2018-06-08T12:19:23Z</time>
      </trkpt>
      <trkpt lat="44.22598" lon="6.21056">
        <ele>1321</ele>
        <time>2018-06-08T12:19:25Z</time>
      </trkpt>
      <trkpt lat="44.22597" lon="6.21057">
        <ele>1321</ele>
        <time>2018-06-08T12:19:26Z</time>
      </trkpt>
      <trkpt lat="44.22596" lon="6.21057">
        <ele>1321</ele>
        <time>2018-06-08T12:19:27Z</time>
      </trkpt>
      <trkpt lat="44.22595" lon="6.21057">
        <ele>1321</ele>
        <time>2018-06-08T12:19:28Z</time>
      </trkpt>
      <trkpt lat="44.22593" lon="6.21057">
        <ele>1321</ele>
        <time>2018-06-08T12:19:30Z</time>
      </trkpt>
      <trkpt lat="44.22591" lon="6.21058">
        <ele>1321</ele>
        <time>2018-06-08T12:19:32Z</time>
      </trkpt>
      <trkpt lat="44.22589" lon="6.21059">
        <ele>1321</ele>
        <time>2018-06-08T12:19:34Z</time>
      </trkpt>
      <trkpt lat="44.22587" lon="6.21059">
        <ele>1321</ele>
        <time>2018-06-08T12:19:36Z</time>
      </trkpt>
      <trkpt lat="44.22586" lon="6.21059">
        <ele>1321</ele>
        <time>2018-06-08T12:19:37Z</time>
      </trkpt>
      <trkpt lat="44.22584" lon="6.2106">
        <ele>1321</ele>
        <time>2018-06-08T12:19:39Z</time>
      </trkpt>
      <trkpt lat="44.22582" lon="6.21061">
        <ele>1321</ele>
        <time>2018-06-08T12:19:41Z</time>
      </trkpt>
      <trkpt lat="44.22581" lon="6.21062">
        <ele>1321</ele>
        <time>2018-06-08T12:19:42Z</time>
      </trkpt>
      <trkpt lat="44.2258" lon="6.21062">
        <ele>1321</ele>
        <time>2018-06-08T12:19:43Z</time>
      </trkpt>
      <trkpt lat="44.22578" lon="6.21063">
        <ele>1321</ele>
        <time>2018-06-08T12:19:45Z</time>
      </trkpt>
      <trkpt lat="44.22578" lon="6.21065">
        <ele>1321</ele>
        <time>2018-06-08T12:19:47Z</time>
      </trkpt>
      <trkpt lat="44.22577" lon="6.21067">
        <ele>1321</ele>
        <time>2018-06-08T12:19:48Z</time>
      </trkpt>
      <trkpt lat="44.22576" lon="6.21068">
        <ele>1321</ele>
        <time>2018-06-08T12:19:49Z</time>
      </trkpt>
      <trkpt lat="44.22575" lon="6.21071">
        <ele>1321</ele>
        <time>2018-06-08T12:19:51Z</time>
      </trkpt>
      <trkpt lat="44.22573" lon="6.21073">
        <ele>1321</ele>
        <time>2018-06-08T12:19:53Z</time>
      </trkpt>
      <trkpt lat="44.22571" lon="6.21074">
        <ele>1321</ele>
        <time>2018-06-08T12:19:55Z</time>
      </trkpt>
      <trkpt lat="44.2257" lon="6.21074">
        <ele>1321</ele>
        <time>2018-06-08T12:19:56Z</time>
      </trkpt>
      <trkpt lat="44.22569" lon="6.21076">
        <ele>1321</ele>
        <time>2018-06-08T12:20:00Z</time>
      </trkpt>
      <trkpt lat="44.22569" lon="6.21077">
        <ele>1321</ele>
        <time>2018-06-08T12:20:06Z</time>
      </trkpt>
      <trkpt lat="44.2257" lon="6.21079">
        <ele>1321</ele>
        <time>2018-06-08T12:20:10Z</time>
      </trkpt>
      <trkpt lat="44.2257" lon="6.21077">
        <ele>1319</ele>
        <time>2018-06-08T12:20:13Z</time>
      </trkpt>
      <trkpt lat="44.22571" lon="6.21076">
        <ele>1317</ele>
        <time>2018-06-08T12:20:16Z</time>
      </trkpt>
      <trkpt lat="44.22572" lon="6.21078">
        <ele>1317</ele>
        <time>2018-06-08T12:20:20Z</time>
      </trkpt>
      <trkpt lat="44.22573" lon="6.2108">
        <ele>1319</ele>
        <time>2018-06-08T12:20:22Z</time>
      </trkpt>
      <trkpt lat="44.22572" lon="6.21082">
        <ele>1321</ele>
        <time>2018-06-08T12:20:24Z</time>
      </trkpt>
      <trkpt lat="44.22571" lon="6.21084">
        <ele>1322</ele>
        <time>2018-06-08T12:20:26Z</time>
      </trkpt>
      <trkpt lat="44.22571" lon="6.21087">
        <ele>1322</ele>
        <time>2018-06-08T12:20:28Z</time>
      </trkpt>
      <trkpt lat="44.2257" lon="6.21089">
        <ele>1322</ele>
        <time>2018-06-08T12:20:30Z</time>
      </trkpt>
      <trkpt lat="44.22568" lon="6.2109">
        <ele>1322</ele>
        <time>2018-06-08T12:20:32Z</time>
      </trkpt>
      <trkpt lat="44.22567" lon="6.21091">
        <ele>1322</ele>
        <time>2018-06-08T12:20:34Z</time>
      </trkpt>
      <trkpt lat="44.22565" lon="6.21092">
        <ele>1322</ele>
        <time>2018-06-08T12:20:36Z</time>
      </trkpt>
      <trkpt lat="44.22564" lon="6.21092">
        <ele>1322</ele>
        <time>2018-06-08T12:20:37Z</time>
      </trkpt>
      <trkpt lat="44.22562" lon="6.21093">
        <ele>1322</ele>
        <time>2018-06-08T12:20:39Z</time>
      </trkpt>
      <trkpt lat="44.22561" lon="6.21091">
        <ele>1322</ele>
        <time>2018-06-08T12:20:42Z</time>
      </trkpt>
      <trkpt lat="44.22559" lon="6.21093">
        <ele>1322</ele>
        <time>2018-06-08T12:20:47Z</time>
      </trkpt>
      <trkpt lat="44.22558" lon="6.21096">
        <ele>1322</ele>
        <time>2018-06-08T12:20:49Z</time>
      </trkpt>
      <trkpt lat="44.22556" lon="6.21097">
        <ele>1322</ele>
        <time>2018-06-08T12:20:51Z</time>
      </trkpt>
      <trkpt lat="44.22554" lon="6.21099">
        <ele>1322</ele>
        <time>2018-06-08T12:20:53Z</time>
      </trkpt>
      <trkpt lat="44.22553" lon="6.211">
        <ele>1322</ele>
        <time>2018-06-08T12:20:55Z</time>
      </trkpt>
      <trkpt lat="44.22551" lon="6.21101">
        <ele>1322</ele>
        <time>2018-06-08T12:20:57Z</time>
      </trkpt>
      <trkpt lat="44.2255" lon="6.21103">
        <ele>1322</ele>
        <time>2018-06-08T12:20:59Z</time>
      </trkpt>
      <trkpt lat="44.2255" lon="6.21104">
        <ele>1322</ele>
        <time>2018-06-08T12:21:00Z</time>
      </trkpt>
      <trkpt lat="44.22549" lon="6.21106">
        <ele>1322</ele>
        <time>2018-06-08T12:21:01Z</time>
      </trkpt>
      <trkpt lat="44.22549" lon="6.21108">
        <ele>1322</ele>
        <time>2018-06-08T12:21:03Z</time>
      </trkpt>
      <trkpt lat="44.22548" lon="6.2111">
        <ele>1322</ele>
        <time>2018-06-08T12:21:04Z</time>
      </trkpt>
      <trkpt lat="44.22547" lon="6.21112">
        <ele>1322</ele>
        <time>2018-06-08T12:21:06Z</time>
      </trkpt>
      <trkpt lat="44.22546" lon="6.21115">
        <ele>1322</ele>
        <time>2018-06-08T12:21:08Z</time>
      </trkpt>
      <trkpt lat="44.22546" lon="6.21118">
        <ele>1322</ele>
        <time>2018-06-08T12:21:10Z</time>
      </trkpt>
      <trkpt lat="44.22545" lon="6.21119">
        <ele>1322</ele>
        <time>2018-06-08T12:21:12Z</time>
      </trkpt>
      <trkpt lat="44.22544" lon="6.21122">
        <ele>1322</ele>
        <time>2018-06-08T12:21:14Z</time>
      </trkpt>
      <trkpt lat="44.22543" lon="6.21124">
        <ele>1322</ele>
        <time>2018-06-08T12:21:16Z</time>
      </trkpt>
      <trkpt lat="44.22542" lon="6.21126">
        <ele>1322</ele>
        <time>2018-06-08T12:21:18Z</time>
      </trkpt>
      <trkpt lat="44.2254" lon="6.21127">
        <ele>1322</ele>
        <time>2018-06-08T12:21:20Z</time>
      </trkpt>
      <trkpt lat="44.22538" lon="6.21128">
        <ele>1322</ele>
        <time>2018-06-08T12:21:22Z</time>
      </trkpt>
      <trkpt lat="44.22536" lon="6.21129">
        <ele>1322</ele>
        <time>2018-06-08T12:21:24Z</time>
      </trkpt>
      <trkpt lat="44.22535" lon="6.21129">
        <ele>1322</ele>
        <time>2018-06-08T12:21:25Z</time>
      </trkpt>
      <trkpt lat="44.22533" lon="6.2113">
        <ele>1321</ele>
        <time>2018-06-08T12:21:27Z</time>
      </trkpt>
      <trkpt lat="44.22532" lon="6.21131">
        <ele>1319</ele>
        <time>2018-06-08T12:21:29Z</time>
      </trkpt>
      <trkpt lat="44.2253" lon="6.21132">
        <ele>1318</ele>
        <time>2018-06-08T12:21:31Z</time>
      </trkpt>
      <trkpt lat="44.22527" lon="6.21133">
        <ele>1317</ele>
        <time>2018-06-08T12:21:33Z</time>
      </trkpt>
      <trkpt lat="44.22526" lon="6.21135">
        <ele>1317</ele>
        <time>2018-06-08T12:21:35Z</time>
      </trkpt>
      <trkpt lat="44.22524" lon="6.21137">
        <ele>1316</ele>
        <time>2018-06-08T12:21:37Z</time>
      </trkpt>
      <trkpt lat="44.22522" lon="6.21139">
        <ele>1315</ele>
        <time>2018-06-08T12:21:39Z</time>
      </trkpt>
      <trkpt lat="44.22521" lon="6.2114">
        <ele>1315</ele>
        <time>2018-06-08T12:21:40Z</time>
      </trkpt>
      <trkpt lat="44.2252" lon="6.21141">
        <ele>1315</ele>
        <time>2018-06-08T12:21:41Z</time>
      </trkpt>
      <trkpt lat="44.22517" lon="6.21144">
        <ele>1315</ele>
        <time>2018-06-08T12:21:43Z</time>
      </trkpt>
      <trkpt lat="44.22516" lon="6.21146">
        <ele>1314</ele>
        <time>2018-06-08T12:21:45Z</time>
      </trkpt>
      <trkpt lat="44.22514" lon="6.21147">
        <ele>1314</ele>
        <time>2018-06-08T12:21:46Z</time>
      </trkpt>
      <trkpt lat="44.22512" lon="6.2115">
        <ele>1314</ele>
        <time>2018-06-08T12:21:48Z</time>
      </trkpt>
      <trkpt lat="44.22512" lon="6.21151">
        <ele>1314</ele>
        <time>2018-06-08T12:21:49Z</time>
      </trkpt>
      <trkpt lat="44.22511" lon="6.21153">
        <ele>1314</ele>
        <time>2018-06-08T12:21:50Z</time>
      </trkpt>
      <trkpt lat="44.22511" lon="6.21155">
        <ele>1314</ele>
        <time>2018-06-08T12:21:51Z</time>
      </trkpt>
      <trkpt lat="44.2251" lon="6.21156">
        <ele>1314</ele>
        <time>2018-06-08T12:21:52Z</time>
      </trkpt>
      <trkpt lat="44.2251" lon="6.21158">
        <ele>1314</ele>
        <time>2018-06-08T12:21:53Z</time>
      </trkpt>
      <trkpt lat="44.22509" lon="6.21159">
        <ele>1314</ele>
        <time>2018-06-08T12:21:54Z</time>
      </trkpt>
      <trkpt lat="44.22509" lon="6.21161">
        <ele>1314</ele>
        <time>2018-06-08T12:21:55Z</time>
      </trkpt>
      <trkpt lat="44.22507" lon="6.21163">
        <ele>1314</ele>
        <time>2018-06-08T12:21:57Z</time>
      </trkpt>
      <trkpt lat="44.22505" lon="6.21164">
        <ele>1314</ele>
        <time>2018-06-08T12:21:59Z</time>
      </trkpt>
      <trkpt lat="44.22503" lon="6.21165">
        <ele>1314</ele>
        <time>2018-06-08T12:22:01Z</time>
      </trkpt>
      <trkpt lat="44.22501" lon="6.21165">
        <ele>1314</ele>
        <time>2018-06-08T12:22:03Z</time>
      </trkpt>
      <trkpt lat="44.22499" lon="6.21165">
        <ele>1314</ele>
        <time>2018-06-08T12:22:05Z</time>
      </trkpt>
      <trkpt lat="44.22498" lon="6.21165">
        <ele>1314</ele>
        <time>2018-06-08T12:22:06Z</time>
      </trkpt>
      <trkpt lat="44.22497" lon="6.21165">
        <ele>1314</ele>
        <time>2018-06-08T12:22:07Z</time>
      </trkpt>
      <trkpt lat="44.22496" lon="6.21165">
        <ele>1314</ele>
        <time>2018-06-08T12:22:08Z</time>
      </trkpt>
      <trkpt lat="44.22494" lon="6.21164">
        <ele>1314</ele>
        <time>2018-06-08T12:22:09Z</time>
      </trkpt>
      <trkpt lat="44.22493" lon="6.21163">
        <ele>1314</ele>
        <time>2018-06-08T12:22:11Z</time>
      </trkpt>
      <trkpt lat="44.22491" lon="6.21163">
        <ele>1314</ele>
        <time>2018-06-08T12:22:12Z</time>
      </trkpt>
      <trkpt lat="44.2249" lon="6.21162">
        <ele>1314</ele>
        <time>2018-06-08T12:22:14Z</time>
      </trkpt>
      <trkpt lat="44.22488" lon="6.21161">
        <ele>1314</ele>
        <time>2018-06-08T12:22:15Z</time>
      </trkpt>
      <trkpt lat="44.22487" lon="6.21161">
        <ele>1314</ele>
        <time>2018-06-08T12:22:16Z</time>
      </trkpt>
      <trkpt lat="44.22486" lon="6.21161">
        <ele>1314</ele>
        <time>2018-06-08T12:22:17Z</time>
      </trkpt>
      <trkpt lat="44.22485" lon="6.2116">
        <ele>1314</ele>
        <time>2018-06-08T12:22:18Z</time>
      </trkpt>
      <trkpt lat="44.22483" lon="6.21159">
        <ele>1314</ele>
        <time>2018-06-08T12:22:19Z</time>
      </trkpt>
      <trkpt lat="44.22482" lon="6.21159">
        <ele>1314</ele>
        <time>2018-06-08T12:22:20Z</time>
      </trkpt>
      <trkpt lat="44.22481" lon="6.21158">
        <ele>1314</ele>
        <time>2018-06-08T12:22:21Z</time>
      </trkpt>
      <trkpt lat="44.2248" lon="6.21158">
        <ele>1314</ele>
        <time>2018-06-08T12:22:22Z</time>
      </trkpt>
      <trkpt lat="44.22478" lon="6.21157">
        <ele>1314</ele>
        <time>2018-06-08T12:22:24Z</time>
      </trkpt>
      <trkpt lat="44.22476" lon="6.21156">
        <ele>1314</ele>
        <time>2018-06-08T12:22:26Z</time>
      </trkpt>
      <trkpt lat="44.22475" lon="6.21155">
        <ele>1314</ele>
        <time>2018-06-08T12:22:27Z</time>
      </trkpt>
      <trkpt lat="44.22473" lon="6.21154">
        <ele>1314</ele>
        <time>2018-06-08T12:22:28Z</time>
      </trkpt>
      <trkpt lat="44.22472" lon="6.21154">
        <ele>1314</ele>
        <time>2018-06-08T12:22:29Z</time>
      </trkpt>
      <trkpt lat="44.22471" lon="6.21153">
        <ele>1314</ele>
        <time>2018-06-08T12:22:30Z</time>
      </trkpt>
      <trkpt lat="44.2247" lon="6.21153">
        <ele>1314</ele>
        <time>2018-06-08T12:22:31Z</time>
      </trkpt>
      <trkpt lat="44.22469" lon="6.21152">
        <ele>1314</ele>
        <time>2018-06-08T12:22:32Z</time>
      </trkpt>
      <trkpt lat="44.22467" lon="6.21152">
        <ele>1314</ele>
        <time>2018-06-08T12:22:33Z</time>
      </trkpt>
      <trkpt lat="44.22466" lon="6.21152">
        <ele>1314</ele>
        <time>2018-06-08T12:22:34Z</time>
      </trkpt>
      <trkpt lat="44.22465" lon="6.21152">
        <ele>1314</ele>
        <time>2018-06-08T12:22:35Z</time>
      </trkpt>
      <trkpt lat="44.22464" lon="6.21152">
        <ele>1314</ele>
        <time>2018-06-08T12:22:36Z</time>
      </trkpt>
      <trkpt lat="44.22462" lon="6.21151">
        <ele>1314</ele>
        <time>2018-06-08T12:22:37Z</time>
      </trkpt>
      <trkpt lat="44.22461" lon="6.2115">
        <ele>1314</ele>
        <time>2018-06-08T12:22:38Z</time>
      </trkpt>
      <trkpt lat="44.2246" lon="6.2115">
        <ele>1314</ele>
        <time>2018-06-08T12:22:39Z</time>
      </trkpt>
      <trkpt lat="44.22459" lon="6.21149">
        <ele>1314</ele>
        <time>2018-06-08T12:22:40Z</time>
      </trkpt>
      <trkpt lat="44.22457" lon="6.21148">
        <ele>1314</ele>
        <time>2018-06-08T12:22:42Z</time>
      </trkpt>
      <trkpt lat="44.22456" lon="6.21148">
        <ele>1314</ele>
        <time>2018-06-08T12:22:43Z</time>
      </trkpt>
      <trkpt lat="44.22453" lon="6.21146">
        <ele>1314</ele>
        <time>2018-06-08T12:22:45Z</time>
      </trkpt>
      <trkpt lat="44.22451" lon="6.21144">
        <ele>1314</ele>
        <time>2018-06-08T12:22:47Z</time>
      </trkpt>
      <trkpt lat="44.22449" lon="6.21143">
        <ele>1314</ele>
        <time>2018-06-08T12:22:49Z</time>
      </trkpt>
      <trkpt lat="44.22448" lon="6.21142">
        <ele>1314</ele>
        <time>2018-06-08T12:22:50Z</time>
      </trkpt>
      <trkpt lat="44.22447" lon="6.21141">
        <ele>1314</ele>
        <time>2018-06-08T12:22:51Z</time>
      </trkpt>
      <trkpt lat="44.22445" lon="6.2114">
        <ele>1313</ele>
        <time>2018-06-08T12:22:53Z</time>
      </trkpt>
      <trkpt lat="44.22443" lon="6.21139">
        <ele>1313</ele>
        <time>2018-06-08T12:22:54Z</time>
      </trkpt>
      <trkpt lat="44.22441" lon="6.21138">
        <ele>1313</ele>
        <time>2018-06-08T12:22:56Z</time>
      </trkpt>
      <trkpt lat="44.2244" lon="6.21136">
        <ele>1313</ele>
        <time>2018-06-08T12:22:58Z</time>
      </trkpt>
      <trkpt lat="44.22439" lon="6.21135">
        <ele>1312</ele>
        <time>2018-06-08T12:22:59Z</time>
      </trkpt>
      <trkpt lat="44.22437" lon="6.21134">
        <ele>1312</ele>
        <time>2018-06-08T12:23:00Z</time>
      </trkpt>
      <trkpt lat="44.22436" lon="6.21134">
        <ele>1312</ele>
        <time>2018-06-08T12:23:01Z</time>
      </trkpt>
      <trkpt lat="44.22435" lon="6.21133">
        <ele>1312</ele>
        <time>2018-06-08T12:23:02Z</time>
      </trkpt>
      <trkpt lat="44.22433" lon="6.21132">
        <ele>1312</ele>
        <time>2018-06-08T12:23:04Z</time>
      </trkpt>
      <trkpt lat="44.22432" lon="6.21131">
        <ele>1311</ele>
        <time>2018-06-08T12:23:05Z</time>
      </trkpt>
      <trkpt lat="44.22431" lon="6.2113">
        <ele>1311</ele>
        <time>2018-06-08T12:23:06Z</time>
      </trkpt>
      <trkpt lat="44.22429" lon="6.21129">
        <ele>1311</ele>
        <time>2018-06-08T12:23:08Z</time>
      </trkpt>
      <trkpt lat="44.22427" lon="6.21129">
        <ele>1311</ele>
        <time>2018-06-08T12:23:09Z</time>
      </trkpt>
      <trkpt lat="44.22426" lon="6.21129">
        <ele>1310</ele>
        <time>2018-06-08T12:23:10Z</time>
      </trkpt>
      <trkpt lat="44.22425" lon="6.21128">
        <ele>1310</ele>
        <time>2018-06-08T12:23:11Z</time>
      </trkpt>
      <trkpt lat="44.22424" lon="6.21128">
        <ele>1310</ele>
        <time>2018-06-08T12:23:12Z</time>
      </trkpt>
      <trkpt lat="44.22422" lon="6.21128">
        <ele>1310</ele>
        <time>2018-06-08T12:23:13Z</time>
      </trkpt>
      <trkpt lat="44.22421" lon="6.21128">
        <ele>1309</ele>
        <time>2018-06-08T12:23:14Z</time>
      </trkpt>
      <trkpt lat="44.22419" lon="6.21126">
        <ele>1309</ele>
        <time>2018-06-08T12:23:16Z</time>
      </trkpt>
      <trkpt lat="44.22418" lon="6.21124">
        <ele>1309</ele>
        <time>2018-06-08T12:23:18Z</time>
      </trkpt>
      <trkpt lat="44.22416" lon="6.21123">
        <ele>1308</ele>
        <time>2018-06-08T12:23:20Z</time>
      </trkpt>
      <trkpt lat="44.22415" lon="6.21123">
        <ele>1308</ele>
        <time>2018-06-08T12:23:21Z</time>
      </trkpt>
      <trkpt lat="44.22414" lon="6.21124">
        <ele>1308</ele>
        <time>2018-06-08T12:23:22Z</time>
      </trkpt>
      <trkpt lat="44.22412" lon="6.21124">
        <ele>1308</ele>
        <time>2018-06-08T12:23:23Z</time>
      </trkpt>
      <trkpt lat="44.22411" lon="6.21124">
        <ele>1307</ele>
        <time>2018-06-08T12:23:25Z</time>
      </trkpt>
      <trkpt lat="44.22409" lon="6.21125">
        <ele>1307</ele>
        <time>2018-06-08T12:23:27Z</time>
      </trkpt>
      <trkpt lat="44.22407" lon="6.21127">
        <ele>1307</ele>
        <time>2018-06-08T12:23:29Z</time>
      </trkpt>
      <trkpt lat="44.22406" lon="6.21129">
        <ele>1307</ele>
        <time>2018-06-08T12:23:31Z</time>
      </trkpt>
      <trkpt lat="44.22405" lon="6.21131">
        <ele>1306</ele>
        <time>2018-06-08T12:23:33Z</time>
      </trkpt>
      <trkpt lat="44.22405" lon="6.21133">
        <ele>1306</ele>
        <time>2018-06-08T12:23:34Z</time>
      </trkpt>
      <trkpt lat="44.22403" lon="6.21135">
        <ele>1306</ele>
        <time>2018-06-08T12:23:36Z</time>
      </trkpt>
      <trkpt lat="44.22403" lon="6.21137">
        <ele>1306</ele>
        <time>2018-06-08T12:23:37Z</time>
      </trkpt>
      <trkpt lat="44.22402" lon="6.21138">
        <ele>1306</ele>
        <time>2018-06-08T12:23:38Z</time>
      </trkpt>
      <trkpt lat="44.22401" lon="6.21141">
        <ele>1305</ele>
        <time>2018-06-08T12:23:40Z</time>
      </trkpt>
      <trkpt lat="44.224" lon="6.21143">
        <ele>1305</ele>
        <time>2018-06-08T12:23:42Z</time>
      </trkpt>
      <trkpt lat="44.22399" lon="6.21145">
        <ele>1305</ele>
        <time>2018-06-08T12:23:43Z</time>
      </trkpt>
      <trkpt lat="44.22399" lon="6.21146">
        <ele>1305</ele>
        <time>2018-06-08T12:23:44Z</time>
      </trkpt>
      <trkpt lat="44.22399" lon="6.21148">
        <ele>1304</ele>
        <time>2018-06-08T12:23:45Z</time>
      </trkpt>
      <trkpt lat="44.224" lon="6.2115">
        <ele>1304</ele>
        <time>2018-06-08T12:23:47Z</time>
      </trkpt>
      <trkpt lat="44.22401" lon="6.21151">
        <ele>1303</ele>
        <time>2018-06-08T12:23:49Z</time>
      </trkpt>
      <trkpt lat="44.22401" lon="6.21153">
        <ele>1303</ele>
        <time>2018-06-08T12:23:52Z</time>
      </trkpt>
      <trkpt lat="44.22402" lon="6.21154">
        <ele>1302</ele>
        <time>2018-06-08T12:23:56Z</time>
      </trkpt>
      <trkpt lat="44.22402" lon="6.21157">
        <ele>1302</ele>
        <time>2018-06-08T12:24:01Z</time>
      </trkpt>
      <trkpt lat="44.22401" lon="6.21158">
        <ele>1302</ele>
        <time>2018-06-08T12:24:07Z</time>
      </trkpt>
      <trkpt lat="44.22402" lon="6.2116">
        <ele>1302</ele>
        <time>2018-06-08T12:24:10Z</time>
      </trkpt>
      <trkpt lat="44.22401" lon="6.21162">
        <ele>1302</ele>
        <time>2018-06-08T12:24:12Z</time>
      </trkpt>
      <trkpt lat="44.224" lon="6.21164">
        <ele>1302</ele>
        <time>2018-06-08T12:24:15Z</time>
      </trkpt>
      <trkpt lat="44.22399" lon="6.21164">
        <ele>1302</ele>
        <time>2018-06-08T12:24:17Z</time>
      </trkpt>
      <trkpt lat="44.22397" lon="6.21164">
        <ele>1302</ele>
        <time>2018-06-08T12:24:19Z</time>
      </trkpt>
      <trkpt lat="44.22395" lon="6.21163">
        <ele>1302</ele>
        <time>2018-06-08T12:24:21Z</time>
      </trkpt>
      <trkpt lat="44.22393" lon="6.21164">
        <ele>1302</ele>
        <time>2018-06-08T12:24:23Z</time>
      </trkpt>
      <trkpt lat="44.22391" lon="6.21164">
        <ele>1302</ele>
        <time>2018-06-08T12:24:25Z</time>
      </trkpt>
      <trkpt lat="44.22389" lon="6.21164">
        <ele>1302</ele>
        <time>2018-06-08T12:24:27Z</time>
      </trkpt>
      <trkpt lat="44.22388" lon="6.21164">
        <ele>1302</ele>
        <time>2018-06-08T12:24:28Z</time>
      </trkpt>
      <trkpt lat="44.22387" lon="6.21163">
        <ele>1302</ele>
        <time>2018-06-08T12:24:29Z</time>
      </trkpt>
      <trkpt lat="44.22385" lon="6.21163">
        <ele>1302</ele>
        <time>2018-06-08T12:24:30Z</time>
      </trkpt>
      <trkpt lat="44.22384" lon="6.21162">
        <ele>1302</ele>
        <time>2018-06-08T12:24:31Z</time>
      </trkpt>
      <trkpt lat="44.22383" lon="6.21162">
        <ele>1302</ele>
        <time>2018-06-08T12:24:32Z</time>
      </trkpt>
      <trkpt lat="44.22382" lon="6.21161">
        <ele>1302</ele>
        <time>2018-06-08T12:24:33Z</time>
      </trkpt>
      <trkpt lat="44.2238" lon="6.21161">
        <ele>1302</ele>
        <time>2018-06-08T12:24:34Z</time>
      </trkpt>
      <trkpt lat="44.2238" lon="6.21159">
        <ele>1302</ele>
        <time>2018-06-08T12:24:35Z</time>
      </trkpt>
      <trkpt lat="44.22379" lon="6.21158">
        <ele>1302</ele>
        <time>2018-06-08T12:24:36Z</time>
      </trkpt>
      <trkpt lat="44.22378" lon="6.21156">
        <ele>1302</ele>
        <time>2018-06-08T12:24:37Z</time>
      </trkpt>
      <trkpt lat="44.22377" lon="6.21154">
        <ele>1302</ele>
        <time>2018-06-08T12:24:38Z</time>
      </trkpt>
      <trkpt lat="44.22375" lon="6.21153">
        <ele>1302</ele>
        <time>2018-06-08T12:24:39Z</time>
      </trkpt>
      <trkpt lat="44.22374" lon="6.2115">
        <ele>1302</ele>
        <time>2018-06-08T12:24:41Z</time>
      </trkpt>
      <trkpt lat="44.22372" lon="6.21148">
        <ele>1302</ele>
        <time>2018-06-08T12:24:43Z</time>
      </trkpt>
      <trkpt lat="44.22372" lon="6.21146">
        <ele>1302</ele>
        <time>2018-06-08T12:24:44Z</time>
      </trkpt>
      <trkpt lat="44.2237" lon="6.21144">
        <ele>1301</ele>
        <time>2018-06-08T12:24:46Z</time>
      </trkpt>
      <trkpt lat="44.22369" lon="6.21143">
        <ele>1300</ele>
        <time>2018-06-08T12:24:48Z</time>
      </trkpt>
      <trkpt lat="44.22367" lon="6.21142">
        <ele>1300</ele>
        <time>2018-06-08T12:24:50Z</time>
      </trkpt>
      <trkpt lat="44.22365" lon="6.21141">
        <ele>1299</ele>
        <time>2018-06-08T12:24:52Z</time>
      </trkpt>
      <trkpt lat="44.22363" lon="6.21142">
        <ele>1299</ele>
        <time>2018-06-08T12:24:54Z</time>
      </trkpt>
      <trkpt lat="44.22362" lon="6.21142">
        <ele>1299</ele>
        <time>2018-06-08T12:24:55Z</time>
      </trkpt>
      <trkpt lat="44.2236" lon="6.21141">
        <ele>1298</ele>
        <time>2018-06-08T12:24:57Z</time>
      </trkpt>
      <trkpt lat="44.22359" lon="6.21141">
        <ele>1298</ele>
        <time>2018-06-08T12:24:58Z</time>
      </trkpt>
      <trkpt lat="44.22357" lon="6.21141">
        <ele>1298</ele>
        <time>2018-06-08T12:25:00Z</time>
      </trkpt>
      <trkpt lat="44.22355" lon="6.2114">
        <ele>1298</ele>
        <time>2018-06-08T12:25:01Z</time>
      </trkpt>
      <trkpt lat="44.22353" lon="6.2114">
        <ele>1298</ele>
        <time>2018-06-08T12:25:03Z</time>
      </trkpt>
      <trkpt lat="44.22352" lon="6.2114">
        <ele>1298</ele>
        <time>2018-06-08T12:25:04Z</time>
      </trkpt>
      <trkpt lat="44.22351" lon="6.21141">
        <ele>1298</ele>
        <time>2018-06-08T12:25:05Z</time>
      </trkpt>
      <trkpt lat="44.22349" lon="6.21142">
        <ele>1298</ele>
        <time>2018-06-08T12:25:07Z</time>
      </trkpt>
      <trkpt lat="44.22348" lon="6.21142">
        <ele>1298</ele>
        <time>2018-06-08T12:25:08Z</time>
      </trkpt>
      <trkpt lat="44.22346" lon="6.21142">
        <ele>1298</ele>
        <time>2018-06-08T12:25:09Z</time>
      </trkpt>
      <trkpt lat="44.22345" lon="6.21142">
        <ele>1298</ele>
        <time>2018-06-08T12:25:10Z</time>
      </trkpt>
      <trkpt lat="44.22343" lon="6.21142">
        <ele>1298</ele>
        <time>2018-06-08T12:25:12Z</time>
      </trkpt>
      <trkpt lat="44.2234" lon="6.21142">
        <ele>1298</ele>
        <time>2018-06-08T12:25:14Z</time>
      </trkpt>
      <trkpt lat="44.22339" lon="6.21142">
        <ele>1298</ele>
        <time>2018-06-08T12:25:15Z</time>
      </trkpt>
      <trkpt lat="44.22338" lon="6.21142">
        <ele>1298</ele>
        <time>2018-06-08T12:25:16Z</time>
      </trkpt>
      <trkpt lat="44.22336" lon="6.21142">
        <ele>1298</ele>
        <time>2018-06-08T12:25:17Z</time>
      </trkpt>
      <trkpt lat="44.22335" lon="6.21142">
        <ele>1298</ele>
        <time>2018-06-08T12:25:18Z</time>
      </trkpt>
      <trkpt lat="44.22333" lon="6.21142">
        <ele>1298</ele>
        <time>2018-06-08T12:25:20Z</time>
      </trkpt>
      <trkpt lat="44.22331" lon="6.21142">
        <ele>1298</ele>
        <time>2018-06-08T12:25:22Z</time>
      </trkpt>
      <trkpt lat="44.22329" lon="6.21143">
        <ele>1298</ele>
        <time>2018-06-08T12:25:23Z</time>
      </trkpt>
      <trkpt lat="44.22328" lon="6.21143">
        <ele>1298</ele>
        <time>2018-06-08T12:25:24Z</time>
      </trkpt>
      <trkpt lat="44.22327" lon="6.21143">
        <ele>1298</ele>
        <time>2018-06-08T12:25:25Z</time>
      </trkpt>
      <trkpt lat="44.22326" lon="6.21143">
        <ele>1298</ele>
        <time>2018-06-08T12:25:26Z</time>
      </trkpt>
      <trkpt lat="44.22325" lon="6.21144">
        <ele>1298</ele>
        <time>2018-06-08T12:25:27Z</time>
      </trkpt>
      <trkpt lat="44.22324" lon="6.21144">
        <ele>1298</ele>
        <time>2018-06-08T12:25:28Z</time>
      </trkpt>
      <trkpt lat="44.22322" lon="6.21145">
        <ele>1298</ele>
        <time>2018-06-08T12:25:29Z</time>
      </trkpt>
      <trkpt lat="44.22321" lon="6.21145">
        <ele>1298</ele>
        <time>2018-06-08T12:25:30Z</time>
      </trkpt>
      <trkpt lat="44.2232" lon="6.21146">
        <ele>1298</ele>
        <time>2018-06-08T12:25:31Z</time>
      </trkpt>
      <trkpt lat="44.22319" lon="6.21147">
        <ele>1298</ele>
        <time>2018-06-08T12:25:32Z</time>
      </trkpt>
      <trkpt lat="44.22318" lon="6.21147">
        <ele>1298</ele>
        <time>2018-06-08T12:25:33Z</time>
      </trkpt>
      <trkpt lat="44.22316" lon="6.21148">
        <ele>1298</ele>
        <time>2018-06-08T12:25:34Z</time>
      </trkpt>
      <trkpt lat="44.22314" lon="6.2115">
        <ele>1298</ele>
        <time>2018-06-08T12:25:36Z</time>
      </trkpt>
      <trkpt lat="44.22313" lon="6.21151">
        <ele>1298</ele>
        <time>2018-06-08T12:25:37Z</time>
      </trkpt>
      <trkpt lat="44.22311" lon="6.21152">
        <ele>1298</ele>
        <time>2018-06-08T12:25:38Z</time>
      </trkpt>
      <trkpt lat="44.2231" lon="6.21152">
        <ele>1298</ele>
        <time>2018-06-08T12:25:39Z</time>
      </trkpt>
      <trkpt lat="44.22309" lon="6.21153">
        <ele>1298</ele>
        <time>2018-06-08T12:25:40Z</time>
      </trkpt>
      <trkpt lat="44.22308" lon="6.21152">
        <ele>1298</ele>
        <time>2018-06-08T12:25:41Z</time>
      </trkpt>
      <trkpt lat="44.22306" lon="6.21151">
        <ele>1298</ele>
        <time>2018-06-08T12:25:42Z</time>
      </trkpt>
      <trkpt lat="44.22305" lon="6.21151">
        <ele>1298</ele>
        <time>2018-06-08T12:25:43Z</time>
      </trkpt>
      <trkpt lat="44.22303" lon="6.21149">
        <ele>1298</ele>
        <time>2018-06-08T12:25:44Z</time>
      </trkpt>
      <trkpt lat="44.22302" lon="6.21148">
        <ele>1298</ele>
        <time>2018-06-08T12:25:45Z</time>
      </trkpt>
      <trkpt lat="44.22301" lon="6.21148">
        <ele>1298</ele>
        <time>2018-06-08T12:25:46Z</time>
      </trkpt>
      <trkpt lat="44.22299" lon="6.21147">
        <ele>1298</ele>
        <time>2018-06-08T12:25:47Z</time>
      </trkpt>
      <trkpt lat="44.22298" lon="6.21147">
        <ele>1298</ele>
        <time>2018-06-08T12:25:48Z</time>
      </trkpt>
      <trkpt lat="44.22296" lon="6.21147">
        <ele>1298</ele>
        <time>2018-06-08T12:25:49Z</time>
      </trkpt>
      <trkpt lat="44.22295" lon="6.21147">
        <ele>1298</ele>
        <time>2018-06-08T12:25:50Z</time>
      </trkpt>
      <trkpt lat="44.22294" lon="6.21147">
        <ele>1298</ele>
        <time>2018-06-08T12:25:51Z</time>
      </trkpt>
      <trkpt lat="44.22292" lon="6.21147">
        <ele>1298</ele>
        <time>2018-06-08T12:25:52Z</time>
      </trkpt>
      <trkpt lat="44.22291" lon="6.21147">
        <ele>1298</ele>
        <time>2018-06-08T12:25:53Z</time>
      </trkpt>
      <trkpt lat="44.2229" lon="6.21147">
        <ele>1298</ele>
        <time>2018-06-08T12:25:54Z</time>
      </trkpt>
      <trkpt lat="44.22289" lon="6.21148">
        <ele>1298</ele>
        <time>2018-06-08T12:25:55Z</time>
      </trkpt>
      <trkpt lat="44.22287" lon="6.21148">
        <ele>1298</ele>
        <time>2018-06-08T12:25:56Z</time>
      </trkpt>
      <trkpt lat="44.22286" lon="6.21148">
        <ele>1298</ele>
        <time>2018-06-08T12:25:57Z</time>
      </trkpt>
      <trkpt lat="44.22285" lon="6.21149">
        <ele>1298</ele>
        <time>2018-06-08T12:25:58Z</time>
      </trkpt>
      <trkpt lat="44.22284" lon="6.21149">
        <ele>1298</ele>
        <time>2018-06-08T12:25:59Z</time>
      </trkpt>
      <trkpt lat="44.22282" lon="6.2115">
        <ele>1298</ele>
        <time>2018-06-08T12:26:00Z</time>
      </trkpt>
      <trkpt lat="44.22281" lon="6.2115">
        <ele>1298</ele>
        <time>2018-06-08T12:26:01Z</time>
      </trkpt>
      <trkpt lat="44.2228" lon="6.21151">
        <ele>1298</ele>
        <time>2018-06-08T12:26:02Z</time>
      </trkpt>
      <trkpt lat="44.22278" lon="6.21152">
        <ele>1298</ele>
        <time>2018-06-08T12:26:03Z</time>
      </trkpt>
      <trkpt lat="44.22277" lon="6.21153">
        <ele>1298</ele>
        <time>2018-06-08T12:26:04Z</time>
      </trkpt>
      <trkpt lat="44.22276" lon="6.21153">
        <ele>1298</ele>
        <time>2018-06-08T12:26:05Z</time>
      </trkpt>
      <trkpt lat="44.22275" lon="6.21154">
        <ele>1298</ele>
        <time>2018-06-08T12:26:06Z</time>
      </trkpt>
      <trkpt lat="44.22274" lon="6.21155">
        <ele>1298</ele>
        <time>2018-06-08T12:26:07Z</time>
      </trkpt>
      <trkpt lat="44.22273" lon="6.21157">
        <ele>1298</ele>
        <time>2018-06-08T12:26:08Z</time>
      </trkpt>
      <trkpt lat="44.22272" lon="6.21158">
        <ele>1298</ele>
        <time>2018-06-08T12:26:09Z</time>
      </trkpt>
      <trkpt lat="44.22271" lon="6.2116">
        <ele>1298</ele>
        <time>2018-06-08T12:26:10Z</time>
      </trkpt>
      <trkpt lat="44.22269" lon="6.21161">
        <ele>1298</ele>
        <time>2018-06-08T12:26:11Z</time>
      </trkpt>
      <trkpt lat="44.22268" lon="6.21162">
        <ele>1298</ele>
        <time>2018-06-08T12:26:12Z</time>
      </trkpt>
      <trkpt lat="44.22266" lon="6.21163">
        <ele>1298</ele>
        <time>2018-06-08T12:26:14Z</time>
      </trkpt>
      <trkpt lat="44.22265" lon="6.21165">
        <ele>1298</ele>
        <time>2018-06-08T12:26:15Z</time>
      </trkpt>
      <trkpt lat="44.22265" lon="6.21166">
        <ele>1298</ele>
        <time>2018-06-08T12:26:16Z</time>
      </trkpt>
      <trkpt lat="44.22264" lon="6.21168">
        <ele>1298</ele>
        <time>2018-06-08T12:26:17Z</time>
      </trkpt>
      <trkpt lat="44.22264" lon="6.2117">
        <ele>1298</ele>
        <time>2018-06-08T12:26:18Z</time>
      </trkpt>
      <trkpt lat="44.22263" lon="6.21172">
        <ele>1298</ele>
        <time>2018-06-08T12:26:19Z</time>
      </trkpt>
      <trkpt lat="44.22262" lon="6.21173">
        <ele>1298</ele>
        <time>2018-06-08T12:26:20Z</time>
      </trkpt>
      <trkpt lat="44.22261" lon="6.21175">
        <ele>1298</ele>
        <time>2018-06-08T12:26:22Z</time>
      </trkpt>
      <trkpt lat="44.22259" lon="6.21177">
        <ele>1297</ele>
        <time>2018-06-08T12:26:24Z</time>
      </trkpt>
      <trkpt lat="44.22257" lon="6.21178">
        <ele>1297</ele>
        <time>2018-06-08T12:26:25Z</time>
      </trkpt>
      <trkpt lat="44.22256" lon="6.21179">
        <ele>1297</ele>
        <time>2018-06-08T12:26:26Z</time>
      </trkpt>
      <trkpt lat="44.22254" lon="6.2118">
        <ele>1296</ele>
        <time>2018-06-08T12:26:27Z</time>
      </trkpt>
      <trkpt lat="44.22253" lon="6.21181">
        <ele>1296</ele>
        <time>2018-06-08T12:26:29Z</time>
      </trkpt>
      <trkpt lat="44.2225" lon="6.21181">
        <ele>1296</ele>
        <time>2018-06-08T12:26:31Z</time>
      </trkpt>
      <trkpt lat="44.22249" lon="6.21179">
        <ele>1296</ele>
        <time>2018-06-08T12:26:34Z</time>
      </trkpt>
      <trkpt lat="44.22247" lon="6.21177">
        <ele>1296</ele>
        <time>2018-06-08T12:26:36Z</time>
      </trkpt>
      <trkpt lat="44.22245" lon="6.21176">
        <ele>1296</ele>
        <time>2018-06-08T12:26:38Z</time>
      </trkpt>
      <trkpt lat="44.22244" lon="6.21175">
        <ele>1296</ele>
        <time>2018-06-08T12:26:39Z</time>
      </trkpt>
      <trkpt lat="44.22243" lon="6.21175">
        <ele>1296</ele>
        <time>2018-06-08T12:26:40Z</time>
      </trkpt>
      <trkpt lat="44.22242" lon="6.21175">
        <ele>1296</ele>
        <time>2018-06-08T12:26:41Z</time>
      </trkpt>
      <trkpt lat="44.2224" lon="6.21175">
        <ele>1296</ele>
        <time>2018-06-08T12:26:43Z</time>
      </trkpt>
      <trkpt lat="44.22238" lon="6.21175">
        <ele>1296</ele>
        <time>2018-06-08T12:26:45Z</time>
      </trkpt>
      <trkpt lat="44.22237" lon="6.21175">
        <ele>1296</ele>
        <time>2018-06-08T12:26:46Z</time>
      </trkpt>
      <trkpt lat="44.22235" lon="6.21176">
        <ele>1296</ele>
        <time>2018-06-08T12:26:48Z</time>
      </trkpt>
      <trkpt lat="44.22233" lon="6.21176">
        <ele>1296</ele>
        <time>2018-06-08T12:26:50Z</time>
      </trkpt>
      <trkpt lat="44.22232" lon="6.21176">
        <ele>1296</ele>
        <time>2018-06-08T12:26:52Z</time>
      </trkpt>
      <trkpt lat="44.22231" lon="6.21175">
        <ele>1296</ele>
        <time>2018-06-08T12:26:54Z</time>
      </trkpt>
      <trkpt lat="44.22229" lon="6.21172">
        <ele>1296</ele>
        <time>2018-06-08T12:26:56Z</time>
      </trkpt>
      <trkpt lat="44.22229" lon="6.2117">
        <ele>1296</ele>
        <time>2018-06-08T12:26:58Z</time>
      </trkpt>
      <trkpt lat="44.22227" lon="6.21169">
        <ele>1295</ele>
        <time>2018-06-08T12:27:01Z</time>
      </trkpt>
      <trkpt lat="44.22226" lon="6.21169">
        <ele>1294</ele>
        <time>2018-06-08T12:27:03Z</time>
      </trkpt>
      <trkpt lat="44.22224" lon="6.21169">
        <ele>1294</ele>
        <time>2018-06-08T12:27:05Z</time>
      </trkpt>
      <trkpt lat="44.22223" lon="6.21169">
        <ele>1294</ele>
        <time>2018-06-08T12:27:07Z</time>
      </trkpt>
      <trkpt lat="44.22222" lon="6.21167">
        <ele>1293</ele>
        <time>2018-06-08T12:27:10Z</time>
      </trkpt>
      <trkpt lat="44.2222" lon="6.21165">
        <ele>1292</ele>
        <time>2018-06-08T12:27:12Z</time>
      </trkpt>
      <trkpt lat="44.22219" lon="6.21164">
        <ele>1292</ele>
        <time>2018-06-08T12:27:14Z</time>
      </trkpt>
      <trkpt lat="44.22218" lon="6.21163">
        <ele>1291</ele>
        <time>2018-06-08T12:27:16Z</time>
      </trkpt>
      <trkpt lat="44.22216" lon="6.21163">
        <ele>1290</ele>
        <time>2018-06-08T12:27:18Z</time>
      </trkpt>
      <trkpt lat="44.22215" lon="6.21162">
        <ele>1289</ele>
        <time>2018-06-08T12:27:20Z</time>
      </trkpt>
      <trkpt lat="44.22213" lon="6.2116">
        <ele>1289</ele>
        <time>2018-06-08T12:27:22Z</time>
      </trkpt>
      <trkpt lat="44.22212" lon="6.21158">
        <ele>1288</ele>
        <time>2018-06-08T12:27:24Z</time>
      </trkpt>
      <trkpt lat="44.22211" lon="6.21157">
        <ele>1288</ele>
        <time>2018-06-08T12:27:25Z</time>
      </trkpt>
      <trkpt lat="44.22211" lon="6.21155">
        <ele>1288</ele>
        <time>2018-06-08T12:27:26Z</time>
      </trkpt>
      <trkpt lat="44.22212" lon="6.21153">
        <ele>1287</ele>
        <time>2018-06-08T12:27:28Z</time>
      </trkpt>
      <trkpt lat="44.22212" lon="6.21151">
        <ele>1287</ele>
        <time>2018-06-08T12:27:29Z</time>
      </trkpt>
      <trkpt lat="44.22213" lon="6.21149">
        <ele>1287</ele>
        <time>2018-06-08T12:27:31Z</time>
      </trkpt>
      <trkpt lat="44.22213" lon="6.21147">
        <ele>1286</ele>
        <time>2018-06-08T12:27:33Z</time>
      </trkpt>
      <trkpt lat="44.22213" lon="6.21145">
        <ele>1286</ele>
        <time>2018-06-08T12:27:35Z</time>
      </trkpt>
      <trkpt lat="44.22211" lon="6.21145">
        <ele>1285</ele>
        <time>2018-06-08T12:27:37Z</time>
      </trkpt>
      <trkpt lat="44.22209" lon="6.21145">
        <ele>1285</ele>
        <time>2018-06-08T12:27:39Z</time>
      </trkpt>
      <trkpt lat="44.22208" lon="6.21146">
        <ele>1285</ele>
        <time>2018-06-08T12:27:40Z</time>
      </trkpt>
      <trkpt lat="44.22206" lon="6.21147">
        <ele>1284</ele>
        <time>2018-06-08T12:27:42Z</time>
      </trkpt>
      <trkpt lat="44.22204" lon="6.21148">
        <ele>1284</ele>
        <time>2018-06-08T12:27:44Z</time>
      </trkpt>
      <trkpt lat="44.22202" lon="6.21147">
        <ele>1283</ele>
        <time>2018-06-08T12:27:46Z</time>
      </trkpt>
      <trkpt lat="44.222" lon="6.21147">
        <ele>1283</ele>
        <time>2018-06-08T12:27:48Z</time>
      </trkpt>
      <trkpt lat="44.22199" lon="6.21145">
        <ele>1282</ele>
        <time>2018-06-08T12:27:50Z</time>
      </trkpt>
      <trkpt lat="44.22199" lon="6.21143">
        <ele>1282</ele>
        <time>2018-06-08T12:27:51Z</time>
      </trkpt>
      <trkpt lat="44.22199" lon="6.21142">
        <ele>1282</ele>
        <time>2018-06-08T12:27:52Z</time>
      </trkpt>
      <trkpt lat="44.22199" lon="6.2114">
        <ele>1282</ele>
        <time>2018-06-08T12:27:53Z</time>
      </trkpt>
      <trkpt lat="44.222" lon="6.21138">
        <ele>1281</ele>
        <time>2018-06-08T12:27:55Z</time>
      </trkpt>
      <trkpt lat="44.22201" lon="6.21136">
        <ele>1281</ele>
        <time>2018-06-08T12:27:57Z</time>
      </trkpt>
      <trkpt lat="44.22201" lon="6.21134">
        <ele>1280</ele>
        <time>2018-06-08T12:27:59Z</time>
      </trkpt>
      <trkpt lat="44.22202" lon="6.21131">
        <ele>1280</ele>
        <time>2018-06-08T12:28:01Z</time>
      </trkpt>
      <trkpt lat="44.22203" lon="6.21129">
        <ele>1279</ele>
        <time>2018-06-08T12:28:03Z</time>
      </trkpt>
      <trkpt lat="44.22204" lon="6.21127">
        <ele>1279</ele>
        <time>2018-06-08T12:28:05Z</time>
      </trkpt>
      <trkpt lat="44.22203" lon="6.21125">
        <ele>1279</ele>
        <time>2018-06-08T12:28:07Z</time>
      </trkpt>
      <trkpt lat="44.22202" lon="6.21125">
        <ele>1278</ele>
        <time>2018-06-08T12:28:08Z</time>
      </trkpt>
      <trkpt lat="44.22201" lon="6.21125">
        <ele>1278</ele>
        <time>2018-06-08T12:28:09Z</time>
      </trkpt>
      <trkpt lat="44.22199" lon="6.21125">
        <ele>1277</ele>
        <time>2018-06-08T12:28:11Z</time>
      </trkpt>
      <trkpt lat="44.22197" lon="6.21124">
        <ele>1277</ele>
        <time>2018-06-08T12:28:12Z</time>
      </trkpt>
      <trkpt lat="44.22196" lon="6.21124">
        <ele>1277</ele>
        <time>2018-06-08T12:28:13Z</time>
      </trkpt>
      <trkpt lat="44.22195" lon="6.21124">
        <ele>1276</ele>
        <time>2018-06-08T12:28:14Z</time>
      </trkpt>
      <trkpt lat="44.22194" lon="6.21124">
        <ele>1276</ele>
        <time>2018-06-08T12:28:15Z</time>
      </trkpt>
      <trkpt lat="44.22192" lon="6.21124">
        <ele>1276</ele>
        <time>2018-06-08T12:28:16Z</time>
      </trkpt>
      <trkpt lat="44.22191" lon="6.21125">
        <ele>1275</ele>
        <time>2018-06-08T12:28:17Z</time>
      </trkpt>
      <trkpt lat="44.2219" lon="6.21125">
        <ele>1275</ele>
        <time>2018-06-08T12:28:18Z</time>
      </trkpt>
      <trkpt lat="44.22189" lon="6.21125">
        <ele>1275</ele>
        <time>2018-06-08T12:28:19Z</time>
      </trkpt>
      <trkpt lat="44.22188" lon="6.21125">
        <ele>1275</ele>
        <time>2018-06-08T12:28:20Z</time>
      </trkpt>
      <trkpt lat="44.22186" lon="6.21125">
        <ele>1274</ele>
        <time>2018-06-08T12:28:22Z</time>
      </trkpt>
      <trkpt lat="44.22184" lon="6.21125">
        <ele>1274</ele>
        <time>2018-06-08T12:28:23Z</time>
      </trkpt>
      <trkpt lat="44.22183" lon="6.21126">
        <ele>1274</ele>
        <time>2018-06-08T12:28:24Z</time>
      </trkpt>
      <trkpt lat="44.22182" lon="6.21126">
        <ele>1274</ele>
        <time>2018-06-08T12:28:25Z</time>
      </trkpt>
      <trkpt lat="44.2218" lon="6.21125">
        <ele>1273</ele>
        <time>2018-06-08T12:28:27Z</time>
      </trkpt>
      <trkpt lat="44.22179" lon="6.21124">
        <ele>1273</ele>
        <time>2018-06-08T12:28:28Z</time>
      </trkpt>
      <trkpt lat="44.2218" lon="6.21122">
        <ele>1273</ele>
        <time>2018-06-08T12:28:29Z</time>
      </trkpt>
      <trkpt lat="44.22181" lon="6.2112">
        <ele>1272</ele>
        <time>2018-06-08T12:28:30Z</time>
      </trkpt>
      <trkpt lat="44.22182" lon="6.21119">
        <ele>1272</ele>
        <time>2018-06-08T12:28:31Z</time>
      </trkpt>
      <trkpt lat="44.22183" lon="6.21117">
        <ele>1271</ele>
        <time>2018-06-08T12:28:32Z</time>
      </trkpt>
      <trkpt lat="44.22184" lon="6.21115">
        <ele>1271</ele>
        <time>2018-06-08T12:28:33Z</time>
      </trkpt>
      <trkpt lat="44.22184" lon="6.21114">
        <ele>1270</ele>
        <time>2018-06-08T12:28:34Z</time>
      </trkpt>
      <trkpt lat="44.22185" lon="6.21112">
        <ele>1270</ele>
        <time>2018-06-08T12:28:35Z</time>
      </trkpt>
      <trkpt lat="44.22186" lon="6.21111">
        <ele>1270</ele>
        <time>2018-06-08T12:28:36Z</time>
      </trkpt>
      <trkpt lat="44.22187" lon="6.21108">
        <ele>1269</ele>
        <time>2018-06-08T12:28:38Z</time>
      </trkpt>
      <trkpt lat="44.22186" lon="6.21107">
        <ele>1268</ele>
        <time>2018-06-08T12:28:40Z</time>
      </trkpt>
      <trkpt lat="44.22183" lon="6.21107">
        <ele>1268</ele>
        <time>2018-06-08T12:28:42Z</time>
      </trkpt>
      <trkpt lat="44.22182" lon="6.21107">
        <ele>1267</ele>
        <time>2018-06-08T12:28:43Z</time>
      </trkpt>
      <trkpt lat="44.2218" lon="6.21106">
        <ele>1266</ele>
        <time>2018-06-08T12:28:45Z</time>
      </trkpt>
      <trkpt lat="44.22179" lon="6.21106">
        <ele>1266</ele>
        <time>2018-06-08T12:28:47Z</time>
      </trkpt>
      <trkpt lat="44.22177" lon="6.21105">
        <ele>1265</ele>
        <time>2018-06-08T12:28:49Z</time>
      </trkpt>
      <trkpt lat="44.22175" lon="6.21105">
        <ele>1264</ele>
        <time>2018-06-08T12:28:51Z</time>
      </trkpt>
      <trkpt lat="44.22173" lon="6.21105">
        <ele>1264</ele>
        <time>2018-06-08T12:28:53Z</time>
      </trkpt>
      <trkpt lat="44.22172" lon="6.21105">
        <ele>1264</ele>
        <time>2018-06-08T12:28:54Z</time>
      </trkpt>
      <trkpt lat="44.2217" lon="6.21105">
        <ele>1263</ele>
        <time>2018-06-08T12:28:56Z</time>
      </trkpt>
      <trkpt lat="44.22168" lon="6.21105">
        <ele>1262</ele>
        <time>2018-06-08T12:28:58Z</time>
      </trkpt>
      <trkpt lat="44.22166" lon="6.21104">
        <ele>1262</ele>
        <time>2018-06-08T12:28:59Z</time>
      </trkpt>
      <trkpt lat="44.22165" lon="6.21104">
        <ele>1262</ele>
        <time>2018-06-08T12:29:00Z</time>
      </trkpt>
      <trkpt lat="44.22164" lon="6.21104">
        <ele>1261</ele>
        <time>2018-06-08T12:29:01Z</time>
      </trkpt>
      <trkpt lat="44.22163" lon="6.21104">
        <ele>1261</ele>
        <time>2018-06-08T12:29:02Z</time>
      </trkpt>
      <trkpt lat="44.22162" lon="6.21104">
        <ele>1261</ele>
        <time>2018-06-08T12:29:03Z</time>
      </trkpt>
      <trkpt lat="44.2216" lon="6.21103">
        <ele>1260</ele>
        <time>2018-06-08T12:29:05Z</time>
      </trkpt>
      <trkpt lat="44.22158" lon="6.21103">
        <ele>1260</ele>
        <time>2018-06-08T12:29:07Z</time>
      </trkpt>
      <trkpt lat="44.22157" lon="6.21103">
        <ele>1259</ele>
        <time>2018-06-08T12:29:08Z</time>
      </trkpt>
      <trkpt lat="44.22154" lon="6.21104">
        <ele>1259</ele>
        <time>2018-06-08T12:29:10Z</time>
      </trkpt>
      <trkpt lat="44.22152" lon="6.21105">
        <ele>1258</ele>
        <time>2018-06-08T12:29:12Z</time>
      </trkpt>
      <trkpt lat="44.22151" lon="6.21105">
        <ele>1258</ele>
        <time>2018-06-08T12:29:13Z</time>
      </trkpt>
      <trkpt lat="44.2215" lon="6.21106">
        <ele>1258</ele>
        <time>2018-06-08T12:29:14Z</time>
      </trkpt>
      <trkpt lat="44.22148" lon="6.21107">
        <ele>1258</ele>
        <time>2018-06-08T12:29:16Z</time>
      </trkpt>
      <trkpt lat="44.22146" lon="6.21109">
        <ele>1258</ele>
        <time>2018-06-08T12:29:18Z</time>
      </trkpt>
      <trkpt lat="44.22144" lon="6.21111">
        <ele>1258</ele>
        <time>2018-06-08T12:29:20Z</time>
      </trkpt>
      <trkpt lat="44.22143" lon="6.21114">
        <ele>1258</ele>
        <time>2018-06-08T12:29:22Z</time>
      </trkpt>
      <trkpt lat="44.22141" lon="6.21116">
        <ele>1258</ele>
        <time>2018-06-08T12:29:24Z</time>
      </trkpt>
      <trkpt lat="44.22139" lon="6.21117">
        <ele>1258</ele>
        <time>2018-06-08T12:29:25Z</time>
      </trkpt>
      <trkpt lat="44.22138" lon="6.21118">
        <ele>1258</ele>
        <time>2018-06-08T12:29:26Z</time>
      </trkpt>
      <trkpt lat="44.22137" lon="6.21119">
        <ele>1258</ele>
        <time>2018-06-08T12:29:27Z</time>
      </trkpt>
      <trkpt lat="44.22136" lon="6.2112">
        <ele>1258</ele>
        <time>2018-06-08T12:29:28Z</time>
      </trkpt>
      <trkpt lat="44.22134" lon="6.21122">
        <ele>1257</ele>
        <time>2018-06-08T12:29:30Z</time>
      </trkpt>
      <trkpt lat="44.22132" lon="6.21123">
        <ele>1257</ele>
        <time>2018-06-08T12:29:32Z</time>
      </trkpt>
      <trkpt lat="44.2213" lon="6.21126">
        <ele>1257</ele>
        <time>2018-06-08T12:29:34Z</time>
      </trkpt>
      <trkpt lat="44.22128" lon="6.21128">
        <ele>1256</ele>
        <time>2018-06-08T12:29:36Z</time>
      </trkpt>
      <trkpt lat="44.22126" lon="6.21129">
        <ele>1256</ele>
        <time>2018-06-08T12:29:38Z</time>
      </trkpt>
      <trkpt lat="44.22124" lon="6.2113">
        <ele>1255</ele>
        <time>2018-06-08T12:29:40Z</time>
      </trkpt>
      <trkpt lat="44.22123" lon="6.21131">
        <ele>1255</ele>
        <time>2018-06-08T12:29:42Z</time>
      </trkpt>
      <trkpt lat="44.22121" lon="6.21132">
        <ele>1255</ele>
        <time>2018-06-08T12:29:43Z</time>
      </trkpt>
      <trkpt lat="44.2212" lon="6.21132">
        <ele>1254</ele>
        <time>2018-06-08T12:29:45Z</time>
      </trkpt>
      <trkpt lat="44.22118" lon="6.21132">
        <ele>1254</ele>
        <time>2018-06-08T12:29:47Z</time>
      </trkpt>
      <trkpt lat="44.22117" lon="6.2113">
        <ele>1254</ele>
        <time>2018-06-08T12:29:49Z</time>
      </trkpt>
      <trkpt lat="44.22117" lon="6.21128">
        <ele>1254</ele>
        <time>2018-06-08T12:29:51Z</time>
      </trkpt>
      <trkpt lat="44.22118" lon="6.21125">
        <ele>1253</ele>
        <time>2018-06-08T12:29:53Z</time>
      </trkpt>
      <trkpt lat="44.2212" lon="6.21123">
        <ele>1253</ele>
        <time>2018-06-08T12:29:55Z</time>
      </trkpt>
      <trkpt lat="44.22121" lon="6.21121">
        <ele>1253</ele>
        <time>2018-06-08T12:29:57Z</time>
      </trkpt>
      <trkpt lat="44.22122" lon="6.21118">
        <ele>1252</ele>
        <time>2018-06-08T12:29:59Z</time>
      </trkpt>
      <trkpt lat="44.22123" lon="6.21117">
        <ele>1252</ele>
        <time>2018-06-08T12:30:00Z</time>
      </trkpt>
      <trkpt lat="44.22123" lon="6.21115">
        <ele>1252</ele>
        <time>2018-06-08T12:30:01Z</time>
      </trkpt>
      <trkpt lat="44.22125" lon="6.21112">
        <ele>1251</ele>
        <time>2018-06-08T12:30:03Z</time>
      </trkpt>
      <trkpt lat="44.22126" lon="6.2111">
        <ele>1251</ele>
        <time>2018-06-08T12:30:05Z</time>
      </trkpt>
      <trkpt lat="44.22127" lon="6.21108">
        <ele>1251</ele>
        <time>2018-06-08T12:30:06Z</time>
      </trkpt>
      <trkpt lat="44.22128" lon="6.21106">
        <ele>1250</ele>
        <time>2018-06-08T12:30:08Z</time>
      </trkpt>
      <trkpt lat="44.22128" lon="6.21104">
        <ele>1250</ele>
        <time>2018-06-08T12:30:10Z</time>
      </trkpt>
      <trkpt lat="44.22129" lon="6.21101">
        <ele>1250</ele>
        <time>2018-06-08T12:30:12Z</time>
      </trkpt>
      <trkpt lat="44.22129" lon="6.211">
        <ele>1250</ele>
        <time>2018-06-08T12:30:13Z</time>
      </trkpt>
      <trkpt lat="44.2213" lon="6.21097">
        <ele>1250</ele>
        <time>2018-06-08T12:30:15Z</time>
      </trkpt>
      <trkpt lat="44.22131" lon="6.21095">
        <ele>1250</ele>
        <time>2018-06-08T12:30:16Z</time>
      </trkpt>
      <trkpt lat="44.22132" lon="6.21093">
        <ele>1250</ele>
        <time>2018-06-08T12:30:18Z</time>
      </trkpt>
      <trkpt lat="44.22134" lon="6.21091">
        <ele>1250</ele>
        <time>2018-06-08T12:30:20Z</time>
      </trkpt>
      <trkpt lat="44.22135" lon="6.21088">
        <ele>1249</ele>
        <time>2018-06-08T12:30:22Z</time>
      </trkpt>
      <trkpt lat="44.22137" lon="6.21086">
        <ele>1249</ele>
        <time>2018-06-08T12:30:24Z</time>
      </trkpt>
      <trkpt lat="44.22139" lon="6.21083">
        <ele>1249</ele>
        <time>2018-06-08T12:30:26Z</time>
      </trkpt>
      <trkpt lat="44.2214" lon="6.21081">
        <ele>1248</ele>
        <time>2018-06-08T12:30:28Z</time>
      </trkpt>
      <trkpt lat="44.22141" lon="6.21079">
        <ele>1248</ele>
        <time>2018-06-08T12:30:29Z</time>
      </trkpt>
      <trkpt lat="44.22141" lon="6.21078">
        <ele>1248</ele>
        <time>2018-06-08T12:30:30Z</time>
      </trkpt>
      <trkpt lat="44.22141" lon="6.21076">
        <ele>1248</ele>
        <time>2018-06-08T12:30:31Z</time>
      </trkpt>
      <trkpt lat="44.22142" lon="6.21075">
        <ele>1248</ele>
        <time>2018-06-08T12:30:32Z</time>
      </trkpt>
      <trkpt lat="44.22143" lon="6.21072">
        <ele>1248</ele>
        <time>2018-06-08T12:30:34Z</time>
      </trkpt>
      <trkpt lat="44.22143" lon="6.2107">
        <ele>1247</ele>
        <time>2018-06-08T12:30:36Z</time>
      </trkpt>
      <trkpt lat="44.22142" lon="6.2107">
        <ele>1247</ele>
        <time>2018-06-08T12:30:38Z</time>
      </trkpt>
      <trkpt lat="44.2214" lon="6.21072">
        <ele>1247</ele>
        <time>2018-06-08T12:30:40Z</time>
      </trkpt>
      <trkpt lat="44.22138" lon="6.21075">
        <ele>1247</ele>
        <time>2018-06-08T12:30:42Z</time>
      </trkpt>
      <trkpt lat="44.22137" lon="6.21077">
        <ele>1246</ele>
        <time>2018-06-08T12:30:44Z</time>
      </trkpt>
      <trkpt lat="44.22134" lon="6.21078">
        <ele>1246</ele>
        <time>2018-06-08T12:30:46Z</time>
      </trkpt>
      <trkpt lat="44.22132" lon="6.21079">
        <ele>1246</ele>
        <time>2018-06-08T12:30:48Z</time>
      </trkpt>
      <trkpt lat="44.22131" lon="6.21081">
        <ele>1245</ele>
        <time>2018-06-08T12:30:50Z</time>
      </trkpt>
      <trkpt lat="44.22129" lon="6.21082">
        <ele>1245</ele>
        <time>2018-06-08T12:30:52Z</time>
      </trkpt>
      <trkpt lat="44.22127" lon="6.21083">
        <ele>1244</ele>
        <time>2018-06-08T12:30:54Z</time>
      </trkpt>
      <trkpt lat="44.22124" lon="6.21084">
        <ele>1244</ele>
        <time>2018-06-08T12:30:56Z</time>
      </trkpt>
      <trkpt lat="44.22123" lon="6.21085">
        <ele>1243</ele>
        <time>2018-06-08T12:30:57Z</time>
      </trkpt>
      <trkpt lat="44.22121" lon="6.21087">
        <ele>1243</ele>
        <time>2018-06-08T12:30:59Z</time>
      </trkpt>
      <trkpt lat="44.22119" lon="6.21088">
        <ele>1242</ele>
        <time>2018-06-08T12:31:01Z</time>
      </trkpt>
      <trkpt lat="44.22118" lon="6.2109">
        <ele>1242</ele>
        <time>2018-06-08T12:31:03Z</time>
      </trkpt>
      <trkpt lat="44.22116" lon="6.21091">
        <ele>1242</ele>
        <time>2018-06-08T12:31:05Z</time>
      </trkpt>
      <trkpt lat="44.22115" lon="6.21093">
        <ele>1241</ele>
        <time>2018-06-08T12:31:07Z</time>
      </trkpt>
      <trkpt lat="44.22113" lon="6.21095">
        <ele>1241</ele>
        <time>2018-06-08T12:31:09Z</time>
      </trkpt>
      <trkpt lat="44.22111" lon="6.21096">
        <ele>1241</ele>
        <time>2018-06-08T12:31:11Z</time>
      </trkpt>
      <trkpt lat="44.2211" lon="6.21097">
        <ele>1241</ele>
        <time>2018-06-08T12:31:13Z</time>
      </trkpt>
      <trkpt lat="44.22108" lon="6.21099">
        <ele>1240</ele>
        <time>2018-06-08T12:31:15Z</time>
      </trkpt>
      <trkpt lat="44.22107" lon="6.21101">
        <ele>1240</ele>
        <time>2018-06-08T12:31:17Z</time>
      </trkpt>
      <trkpt lat="44.22105" lon="6.21102">
        <ele>1239</ele>
        <time>2018-06-08T12:31:19Z</time>
      </trkpt>
      <trkpt lat="44.22104" lon="6.21102">
        <ele>1239</ele>
        <time>2018-06-08T12:31:20Z</time>
      </trkpt>
      <trkpt lat="44.22102" lon="6.21103">
        <ele>1239</ele>
        <time>2018-06-08T12:31:22Z</time>
      </trkpt>
      <trkpt lat="44.221" lon="6.21104">
        <ele>1238</ele>
        <time>2018-06-08T12:31:24Z</time>
      </trkpt>
      <trkpt lat="44.22099" lon="6.21104">
        <ele>1238</ele>
        <time>2018-06-08T12:31:25Z</time>
      </trkpt>
      <trkpt lat="44.22097" lon="6.21106">
        <ele>1238</ele>
        <time>2018-06-08T12:31:27Z</time>
      </trkpt>
      <trkpt lat="44.22095" lon="6.21107">
        <ele>1238</ele>
        <time>2018-06-08T12:31:28Z</time>
      </trkpt>
      <trkpt lat="44.22094" lon="6.21108">
        <ele>1237</ele>
        <time>2018-06-08T12:31:29Z</time>
      </trkpt>
      <trkpt lat="44.22092" lon="6.21109">
        <ele>1237</ele>
        <time>2018-06-08T12:31:31Z</time>
      </trkpt>
      <trkpt lat="44.22091" lon="6.21111">
        <ele>1237</ele>
        <time>2018-06-08T12:31:33Z</time>
      </trkpt>
      <trkpt lat="44.22089" lon="6.21113">
        <ele>1236</ele>
        <time>2018-06-08T12:31:35Z</time>
      </trkpt>
      <trkpt lat="44.22088" lon="6.21116">
        <ele>1236</ele>
        <time>2018-06-08T12:31:37Z</time>
      </trkpt>
      <trkpt lat="44.22087" lon="6.21118">
        <ele>1236</ele>
        <time>2018-06-08T12:31:38Z</time>
      </trkpt>
      <trkpt lat="44.22087" lon="6.21119">
        <ele>1236</ele>
        <time>2018-06-08T12:31:39Z</time>
      </trkpt>
      <trkpt lat="44.22086" lon="6.21121">
        <ele>1235</ele>
        <time>2018-06-08T12:31:40Z</time>
      </trkpt>
      <trkpt lat="44.22084" lon="6.21123">
        <ele>1235</ele>
        <time>2018-06-08T12:31:42Z</time>
      </trkpt>
      <trkpt lat="44.22083" lon="6.21123">
        <ele>1235</ele>
        <time>2018-06-08T12:31:43Z</time>
      </trkpt>
      <trkpt lat="44.22081" lon="6.21123">
        <ele>1234</ele>
        <time>2018-06-08T12:31:45Z</time>
      </trkpt>
      <trkpt lat="44.22079" lon="6.21123">
        <ele>1234</ele>
        <time>2018-06-08T12:31:46Z</time>
      </trkpt>
      <trkpt lat="44.22078" lon="6.21124">
        <ele>1233</ele>
        <time>2018-06-08T12:31:48Z</time>
      </trkpt>
      <trkpt lat="44.22076" lon="6.21124">
        <ele>1233</ele>
        <time>2018-06-08T12:31:49Z</time>
      </trkpt>
      <trkpt lat="44.22074" lon="6.21125">
        <ele>1232</ele>
        <time>2018-06-08T12:31:51Z</time>
      </trkpt>
      <trkpt lat="44.22073" lon="6.21126">
        <ele>1232</ele>
        <time>2018-06-08T12:31:52Z</time>
      </trkpt>
      <trkpt lat="44.22072" lon="6.21126">
        <ele>1232</ele>
        <time>2018-06-08T12:31:53Z</time>
      </trkpt>
      <trkpt lat="44.22071" lon="6.21127">
        <ele>1231</ele>
        <time>2018-06-08T12:31:54Z</time>
      </trkpt>
      <trkpt lat="44.2207" lon="6.21127">
        <ele>1231</ele>
        <time>2018-06-08T12:31:55Z</time>
      </trkpt>
      <trkpt lat="44.22068" lon="6.21127">
        <ele>1231</ele>
        <time>2018-06-08T12:31:56Z</time>
      </trkpt>
      <trkpt lat="44.22067" lon="6.21128">
        <ele>1231</ele>
        <time>2018-06-08T12:31:57Z</time>
      </trkpt>
      <trkpt lat="44.22065" lon="6.21128">
        <ele>1230</ele>
        <time>2018-06-08T12:31:59Z</time>
      </trkpt>
      <trkpt lat="44.22063" lon="6.21129">
        <ele>1229</ele>
        <time>2018-06-08T12:32:01Z</time>
      </trkpt>
      <trkpt lat="44.22061" lon="6.21131">
        <ele>1228</ele>
        <time>2018-06-08T12:32:03Z</time>
      </trkpt>
      <trkpt lat="44.2206" lon="6.21131">
        <ele>1228</ele>
        <time>2018-06-08T12:32:04Z</time>
      </trkpt>
      <trkpt lat="44.22058" lon="6.21132">
        <ele>1228</ele>
        <time>2018-06-08T12:32:05Z</time>
      </trkpt>
      <trkpt lat="44.22057" lon="6.21132">
        <ele>1228</ele>
        <time>2018-06-08T12:32:06Z</time>
      </trkpt>
      <trkpt lat="44.22055" lon="6.21133">
        <ele>1227</ele>
        <time>2018-06-08T12:32:08Z</time>
      </trkpt>
      <trkpt lat="44.22053" lon="6.21134">
        <ele>1227</ele>
        <time>2018-06-08T12:32:10Z</time>
      </trkpt>
      <trkpt lat="44.22051" lon="6.21135">
        <ele>1226</ele>
        <time>2018-06-08T12:32:12Z</time>
      </trkpt>
      <trkpt lat="44.22049" lon="6.21135">
        <ele>1225</ele>
        <time>2018-06-08T12:32:14Z</time>
      </trkpt>
      <trkpt lat="44.22047" lon="6.21136">
        <ele>1225</ele>
        <time>2018-06-08T12:32:16Z</time>
      </trkpt>
      <trkpt lat="44.22046" lon="6.21136">
        <ele>1224</ele>
        <time>2018-06-08T12:32:17Z</time>
      </trkpt>
      <trkpt lat="44.22044" lon="6.21136">
        <ele>1224</ele>
        <time>2018-06-08T12:32:18Z</time>
      </trkpt>
      <trkpt lat="44.22043" lon="6.21137">
        <ele>1224</ele>
        <time>2018-06-08T12:32:19Z</time>
      </trkpt>
      <trkpt lat="44.22042" lon="6.21137">
        <ele>1223</ele>
        <time>2018-06-08T12:32:21Z</time>
      </trkpt>
      <trkpt lat="44.2204" lon="6.21138">
        <ele>1223</ele>
        <time>2018-06-08T12:32:23Z</time>
      </trkpt>
      <trkpt lat="44.22038" lon="6.21138">
        <ele>1222</ele>
        <time>2018-06-08T12:32:25Z</time>
      </trkpt>
      <trkpt lat="44.22036" lon="6.21138">
        <ele>1221</ele>
        <time>2018-06-08T12:32:27Z</time>
      </trkpt>
      <trkpt lat="44.22034" lon="6.21138">
        <ele>1220</ele>
        <time>2018-06-08T12:32:29Z</time>
      </trkpt>
      <trkpt lat="44.22033" lon="6.21138">
        <ele>1220</ele>
        <time>2018-06-08T12:32:30Z</time>
      </trkpt>
      <trkpt lat="44.22032" lon="6.21138">
        <ele>1219</ele>
        <time>2018-06-08T12:32:31Z</time>
      </trkpt>
      <trkpt lat="44.2203" lon="6.21138">
        <ele>1219</ele>
        <time>2018-06-08T12:32:33Z</time>
      </trkpt>
      <trkpt lat="44.22029" lon="6.21138">
        <ele>1219</ele>
        <time>2018-06-08T12:32:34Z</time>
      </trkpt>
      <trkpt lat="44.22028" lon="6.21138">
        <ele>1219</ele>
        <time>2018-06-08T12:32:35Z</time>
      </trkpt>
      <trkpt lat="44.22026" lon="6.21138">
        <ele>1219</ele>
        <time>2018-06-08T12:32:36Z</time>
      </trkpt>
      <trkpt lat="44.22025" lon="6.21138">
        <ele>1219</ele>
        <time>2018-06-08T12:32:37Z</time>
      </trkpt>
      <trkpt lat="44.22024" lon="6.21138">
        <ele>1219</ele>
        <time>2018-06-08T12:32:38Z</time>
      </trkpt>
      <trkpt lat="44.22023" lon="6.21139">
        <ele>1219</ele>
        <time>2018-06-08T12:32:39Z</time>
      </trkpt>
      <trkpt lat="44.22021" lon="6.21142">
        <ele>1219</ele>
        <time>2018-06-08T12:32:41Z</time>
      </trkpt>
      <trkpt lat="44.2202" lon="6.21143">
        <ele>1219</ele>
        <time>2018-06-08T12:32:42Z</time>
      </trkpt>
      <trkpt lat="44.2202" lon="6.21145">
        <ele>1219</ele>
        <time>2018-06-08T12:32:43Z</time>
      </trkpt>
      <trkpt lat="44.2202" lon="6.21146">
        <ele>1219</ele>
        <time>2018-06-08T12:32:44Z</time>
      </trkpt>
      <trkpt lat="44.2202" lon="6.21149">
        <ele>1218</ele>
        <time>2018-06-08T12:32:46Z</time>
      </trkpt>
      <trkpt lat="44.2202" lon="6.2115">
        <ele>1218</ele>
        <time>2018-06-08T12:32:47Z</time>
      </trkpt>
      <trkpt lat="44.22019" lon="6.21152">
        <ele>1218</ele>
        <time>2018-06-08T12:32:48Z</time>
      </trkpt>
      <trkpt lat="44.22019" lon="6.21155">
        <ele>1218</ele>
        <time>2018-06-08T12:32:50Z</time>
      </trkpt>
      <trkpt lat="44.22019" lon="6.21157">
        <ele>1217</ele>
        <time>2018-06-08T12:32:52Z</time>
      </trkpt>
      <trkpt lat="44.22019" lon="6.21158">
        <ele>1217</ele>
        <time>2018-06-08T12:32:53Z</time>
      </trkpt>
      <trkpt lat="44.22018" lon="6.21161">
        <ele>1216</ele>
        <time>2018-06-08T12:32:55Z</time>
      </trkpt>
      <trkpt lat="44.22018" lon="6.21162">
        <ele>1216</ele>
        <time>2018-06-08T12:32:56Z</time>
      </trkpt>
      <trkpt lat="44.22018" lon="6.21165">
        <ele>1216</ele>
        <time>2018-06-08T12:32:58Z</time>
      </trkpt>
      <trkpt lat="44.22017" lon="6.21168">
        <ele>1215</ele>
        <time>2018-06-08T12:33:00Z</time>
      </trkpt>
      <trkpt lat="44.22016" lon="6.2117">
        <ele>1215</ele>
        <time>2018-06-08T12:33:01Z</time>
      </trkpt>
      <trkpt lat="44.22016" lon="6.21172">
        <ele>1215</ele>
        <time>2018-06-08T12:33:03Z</time>
      </trkpt>
      <trkpt lat="44.22016" lon="6.21174">
        <ele>1215</ele>
        <time>2018-06-08T12:33:04Z</time>
      </trkpt>
      <trkpt lat="44.22015" lon="6.21176">
        <ele>1214</ele>
        <time>2018-06-08T12:33:06Z</time>
      </trkpt>
      <trkpt lat="44.22015" lon="6.21178">
        <ele>1214</ele>
        <time>2018-06-08T12:33:07Z</time>
      </trkpt>
      <trkpt lat="44.22015" lon="6.2118">
        <ele>1214</ele>
        <time>2018-06-08T12:33:08Z</time>
      </trkpt>
      <trkpt lat="44.22015" lon="6.21181">
        <ele>1214</ele>
        <time>2018-06-08T12:33:09Z</time>
      </trkpt>
      <trkpt lat="44.22015" lon="6.21184">
        <ele>1214</ele>
        <time>2018-06-08T12:33:10Z</time>
      </trkpt>
      <trkpt lat="44.22016" lon="6.21185">
        <ele>1214</ele>
        <time>2018-06-08T12:33:11Z</time>
      </trkpt>
      <trkpt lat="44.22016" lon="6.21187">
        <ele>1214</ele>
        <time>2018-06-08T12:33:12Z</time>
      </trkpt>
      <trkpt lat="44.22016" lon="6.21189">
        <ele>1214</ele>
        <time>2018-06-08T12:33:13Z</time>
      </trkpt>
      <trkpt lat="44.22018" lon="6.21192">
        <ele>1213</ele>
        <time>2018-06-08T12:33:15Z</time>
      </trkpt>
      <trkpt lat="44.22018" lon="6.21193">
        <ele>1213</ele>
        <time>2018-06-08T12:33:16Z</time>
      </trkpt>
      <trkpt lat="44.22018" lon="6.21195">
        <ele>1212</ele>
        <time>2018-06-08T12:33:17Z</time>
      </trkpt>
      <trkpt lat="44.22018" lon="6.21197">
        <ele>1212</ele>
        <time>2018-06-08T12:33:18Z</time>
      </trkpt>
      <trkpt lat="44.22018" lon="6.21199">
        <ele>1211</ele>
        <time>2018-06-08T12:33:19Z</time>
      </trkpt>
      <trkpt lat="44.22018" lon="6.212">
        <ele>1211</ele>
        <time>2018-06-08T12:33:20Z</time>
      </trkpt>
      <trkpt lat="44.22018" lon="6.21202">
        <ele>1211</ele>
        <time>2018-06-08T12:33:21Z</time>
      </trkpt>
      <trkpt lat="44.22018" lon="6.21204">
        <ele>1211</ele>
        <time>2018-06-08T12:33:22Z</time>
      </trkpt>
      <trkpt lat="44.22018" lon="6.21206">
        <ele>1210</ele>
        <time>2018-06-08T12:33:24Z</time>
      </trkpt>
      <trkpt lat="44.22017" lon="6.21209">
        <ele>1210</ele>
        <time>2018-06-08T12:33:26Z</time>
      </trkpt>
      <trkpt lat="44.22016" lon="6.21211">
        <ele>1210</ele>
        <time>2018-06-08T12:33:28Z</time>
      </trkpt>
      <trkpt lat="44.22016" lon="6.21213">
        <ele>1210</ele>
        <time>2018-06-08T12:33:29Z</time>
      </trkpt>
      <trkpt lat="44.22016" lon="6.21215">
        <ele>1210</ele>
        <time>2018-06-08T12:33:31Z</time>
      </trkpt>
      <trkpt lat="44.22016" lon="6.21217">
        <ele>1210</ele>
        <time>2018-06-08T12:33:33Z</time>
      </trkpt>
      <trkpt lat="44.22015" lon="6.2122">
        <ele>1210</ele>
        <time>2018-06-08T12:33:35Z</time>
      </trkpt>
      <trkpt lat="44.22015" lon="6.21221">
        <ele>1209</ele>
        <time>2018-06-08T12:33:36Z</time>
      </trkpt>
      <trkpt lat="44.22014" lon="6.21223">
        <ele>1209</ele>
        <time>2018-06-08T12:33:37Z</time>
      </trkpt>
      <trkpt lat="44.22013" lon="6.21225">
        <ele>1209</ele>
        <time>2018-06-08T12:33:39Z</time>
      </trkpt>
      <trkpt lat="44.22013" lon="6.21228">
        <ele>1209</ele>
        <time>2018-06-08T12:33:41Z</time>
      </trkpt>
      <trkpt lat="44.22012" lon="6.21231">
        <ele>1209</ele>
        <time>2018-06-08T12:33:43Z</time>
      </trkpt>
      <trkpt lat="44.22012" lon="6.21232">
        <ele>1209</ele>
        <time>2018-06-08T12:33:44Z</time>
      </trkpt>
      <trkpt lat="44.2201" lon="6.21235">
        <ele>1209</ele>
        <time>2018-06-08T12:33:46Z</time>
      </trkpt>
      <trkpt lat="44.22009" lon="6.21237">
        <ele>1209</ele>
        <time>2018-06-08T12:33:48Z</time>
      </trkpt>
      <trkpt lat="44.22007" lon="6.2124">
        <ele>1209</ele>
        <time>2018-06-08T12:33:50Z</time>
      </trkpt>
      <trkpt lat="44.22006" lon="6.21242">
        <ele>1209</ele>
        <time>2018-06-08T12:33:52Z</time>
      </trkpt>
      <trkpt lat="44.22004" lon="6.21244">
        <ele>1209</ele>
        <time>2018-06-08T12:33:54Z</time>
      </trkpt>
      <trkpt lat="44.22002" lon="6.21247">
        <ele>1209</ele>
        <time>2018-06-08T12:33:56Z</time>
      </trkpt>
      <trkpt lat="44.22001" lon="6.21249">
        <ele>1209</ele>
        <time>2018-06-08T12:33:57Z</time>
      </trkpt>
      <trkpt lat="44.22" lon="6.21251">
        <ele>1209</ele>
        <time>2018-06-08T12:33:58Z</time>
      </trkpt>
      <trkpt lat="44.21999" lon="6.21252">
        <ele>1209</ele>
        <time>2018-06-08T12:33:59Z</time>
      </trkpt>
      <trkpt lat="44.21998" lon="6.21255">
        <ele>1209</ele>
        <time>2018-06-08T12:34:01Z</time>
      </trkpt>
      <trkpt lat="44.21996" lon="6.21257">
        <ele>1209</ele>
        <time>2018-06-08T12:34:03Z</time>
      </trkpt>
      <trkpt lat="44.21994" lon="6.21259">
        <ele>1208</ele>
        <time>2018-06-08T12:34:05Z</time>
      </trkpt>
      <trkpt lat="44.21992" lon="6.21262">
        <ele>1208</ele>
        <time>2018-06-08T12:34:07Z</time>
      </trkpt>
      <trkpt lat="44.21991" lon="6.21263">
        <ele>1207</ele>
        <time>2018-06-08T12:34:08Z</time>
      </trkpt>
      <trkpt lat="44.21989" lon="6.21265">
        <ele>1207</ele>
        <time>2018-06-08T12:34:10Z</time>
      </trkpt>
      <trkpt lat="44.21987" lon="6.21266">
        <ele>1206</ele>
        <time>2018-06-08T12:34:12Z</time>
      </trkpt>
      <trkpt lat="44.21986" lon="6.21267">
        <ele>1206</ele>
        <time>2018-06-08T12:34:13Z</time>
      </trkpt>
      <trkpt lat="44.21984" lon="6.21267">
        <ele>1206</ele>
        <time>2018-06-08T12:34:14Z</time>
      </trkpt>
      <trkpt lat="44.21983" lon="6.21267">
        <ele>1206</ele>
        <time>2018-06-08T12:34:16Z</time>
      </trkpt>
      <trkpt lat="44.21981" lon="6.21266">
        <ele>1206</ele>
        <time>2018-06-08T12:34:18Z</time>
      </trkpt>
      <trkpt lat="44.21979" lon="6.21264">
        <ele>1206</ele>
        <time>2018-06-08T12:34:20Z</time>
      </trkpt>
      <trkpt lat="44.21978" lon="6.21262">
        <ele>1206</ele>
        <time>2018-06-08T12:34:21Z</time>
      </trkpt>
      <trkpt lat="44.21977" lon="6.2126">
        <ele>1206</ele>
        <time>2018-06-08T12:34:22Z</time>
      </trkpt>
      <trkpt lat="44.21977" lon="6.21258">
        <ele>1205</ele>
        <time>2018-06-08T12:34:23Z</time>
      </trkpt>
      <trkpt lat="44.21976" lon="6.21256">
        <ele>1205</ele>
        <time>2018-06-08T12:34:24Z</time>
      </trkpt>
      <trkpt lat="44.21975" lon="6.21254">
        <ele>1204</ele>
        <time>2018-06-08T12:34:26Z</time>
      </trkpt>
      <trkpt lat="44.21974" lon="6.21251">
        <ele>1204</ele>
        <time>2018-06-08T12:34:28Z</time>
      </trkpt>
      <trkpt lat="44.21974" lon="6.2125">
        <ele>1204</ele>
        <time>2018-06-08T12:34:29Z</time>
      </trkpt>
      <trkpt lat="44.21973" lon="6.21248">
        <ele>1204</ele>
        <time>2018-06-08T12:34:30Z</time>
      </trkpt>
      <trkpt lat="44.21972" lon="6.21246">
        <ele>1203</ele>
        <time>2018-06-08T12:34:32Z</time>
      </trkpt>
      <trkpt lat="44.21971" lon="6.21243">
        <ele>1203</ele>
        <time>2018-06-08T12:34:34Z</time>
      </trkpt>
      <trkpt lat="44.2197" lon="6.21241">
        <ele>1203</ele>
        <time>2018-06-08T12:34:36Z</time>
      </trkpt>
      <trkpt lat="44.21968" lon="6.2124">
        <ele>1202</ele>
        <time>2018-06-08T12:34:38Z</time>
      </trkpt>
      <trkpt lat="44.21966" lon="6.2124">
        <ele>1202</ele>
        <time>2018-06-08T12:34:40Z</time>
      </trkpt>
      <trkpt lat="44.21964" lon="6.21239">
        <ele>1201</ele>
        <time>2018-06-08T12:34:42Z</time>
      </trkpt>
      <trkpt lat="44.21963" lon="6.21239">
        <ele>1201</ele>
        <time>2018-06-08T12:34:43Z</time>
      </trkpt>
      <trkpt lat="44.21962" lon="6.21239">
        <ele>1201</ele>
        <time>2018-06-08T12:34:44Z</time>
      </trkpt>
      <trkpt lat="44.2196" lon="6.21239">
        <ele>1200</ele>
        <time>2018-06-08T12:34:46Z</time>
      </trkpt>
      <trkpt lat="44.21959" lon="6.21239">
        <ele>1200</ele>
        <time>2018-06-08T12:34:47Z</time>
      </trkpt>
      <trkpt lat="44.21958" lon="6.21239">
        <ele>1199</ele>
        <time>2018-06-08T12:34:48Z</time>
      </trkpt>
      <trkpt lat="44.21955" lon="6.2124">
        <ele>1199</ele>
        <time>2018-06-08T12:34:50Z</time>
      </trkpt>
      <trkpt lat="44.21954" lon="6.21242">
        <ele>1199</ele>
        <time>2018-06-08T12:34:52Z</time>
      </trkpt>
      <trkpt lat="44.21953" lon="6.21244">
        <ele>1199</ele>
        <time>2018-06-08T12:34:54Z</time>
      </trkpt>
      <trkpt lat="44.21952" lon="6.21246">
        <ele>1199</ele>
        <time>2018-06-08T12:34:55Z</time>
      </trkpt>
      <trkpt lat="44.21951" lon="6.21248">
        <ele>1199</ele>
        <time>2018-06-08T12:34:56Z</time>
      </trkpt>
      <trkpt lat="44.21951" lon="6.21249">
        <ele>1199</ele>
        <time>2018-06-08T12:34:57Z</time>
      </trkpt>
      <trkpt lat="44.2195" lon="6.21251">
        <ele>1199</ele>
        <time>2018-06-08T12:34:58Z</time>
      </trkpt>
      <trkpt lat="44.21949" lon="6.21253">
        <ele>1199</ele>
        <time>2018-06-08T12:34:59Z</time>
      </trkpt>
      <trkpt lat="44.21947" lon="6.21254">
        <ele>1199</ele>
        <time>2018-06-08T12:35:00Z</time>
      </trkpt>
      <trkpt lat="44.21946" lon="6.21255">
        <ele>1199</ele>
        <time>2018-06-08T12:35:02Z</time>
      </trkpt>
      <trkpt lat="44.21944" lon="6.21255">
        <ele>1199</ele>
        <time>2018-06-08T12:35:04Z</time>
      </trkpt>
      <trkpt lat="44.21944" lon="6.21255">
        <ele>1199</ele>
        <time>2018-06-08T12:35:05Z</time>
      </trkpt>
      <trkpt lat="44.21943" lon="6.21255">
        <ele>1199</ele>
        <time>2018-06-08T12:35:06Z</time>
      </trkpt>
      <trkpt lat="44.21942" lon="6.21255">
        <ele>1199</ele>
        <time>2018-06-08T12:35:08Z</time>
      </trkpt>
      <trkpt lat="44.2194" lon="6.21254">
        <ele>1199</ele>
        <time>2018-06-08T12:35:10Z</time>
      </trkpt>
      <trkpt lat="44.21939" lon="6.21252">
        <ele>1199</ele>
        <time>2018-06-08T12:35:12Z</time>
      </trkpt>
      <trkpt lat="44.21938" lon="6.2125">
        <ele>1199</ele>
        <time>2018-06-08T12:35:14Z</time>
      </trkpt>
      <trkpt lat="44.21937" lon="6.21248">
        <ele>1198</ele>
        <time>2018-06-08T12:35:16Z</time>
      </trkpt>
      <trkpt lat="44.21937" lon="6.21246">
        <ele>1198</ele>
        <time>2018-06-08T12:35:18Z</time>
      </trkpt>
      <trkpt lat="44.21936" lon="6.21244">
        <ele>1198</ele>
        <time>2018-06-08T12:35:19Z</time>
      </trkpt>
      <trkpt lat="44.21935" lon="6.21242">
        <ele>1198</ele>
        <time>2018-06-08T12:35:21Z</time>
      </trkpt>
      <trkpt lat="44.21933" lon="6.2124">
        <ele>1198</ele>
        <time>2018-06-08T12:35:23Z</time>
      </trkpt>
      <trkpt lat="44.21931" lon="6.21238">
        <ele>1198</ele>
        <time>2018-06-08T12:35:25Z</time>
      </trkpt>
      <trkpt lat="44.2193" lon="6.21236">
        <ele>1198</ele>
        <time>2018-06-08T12:35:26Z</time>
      </trkpt>
      <trkpt lat="44.21928" lon="6.21235">
        <ele>1198</ele>
        <time>2018-06-08T12:35:28Z</time>
      </trkpt>
      <trkpt lat="44.21926" lon="6.21232">
        <ele>1198</ele>
        <time>2018-06-08T12:35:30Z</time>
      </trkpt>
      <trkpt lat="44.21925" lon="6.21232">
        <ele>1198</ele>
        <time>2018-06-08T12:35:31Z</time>
      </trkpt>
      <trkpt lat="44.21923" lon="6.21229">
        <ele>1198</ele>
        <time>2018-06-08T12:35:33Z</time>
      </trkpt>
      <trkpt lat="44.21923" lon="6.21227">
        <ele>1198</ele>
        <time>2018-06-08T12:35:34Z</time>
      </trkpt>
      <trkpt lat="44.21921" lon="6.21225">
        <ele>1198</ele>
        <time>2018-06-08T12:35:36Z</time>
      </trkpt>
      <trkpt lat="44.21921" lon="6.21223">
        <ele>1198</ele>
        <time>2018-06-08T12:35:37Z</time>
      </trkpt>
      <trkpt lat="44.21919" lon="6.21221">
        <ele>1197</ele>
        <time>2018-06-08T12:35:39Z</time>
      </trkpt>
      <trkpt lat="44.21917" lon="6.21219">
        <ele>1196</ele>
        <time>2018-06-08T12:35:41Z</time>
      </trkpt>
      <trkpt lat="44.21916" lon="6.21218">
        <ele>1196</ele>
        <time>2018-06-08T12:35:42Z</time>
      </trkpt>
      <trkpt lat="44.21915" lon="6.21218">
        <ele>1196</ele>
        <time>2018-06-08T12:35:43Z</time>
      </trkpt>
      <trkpt lat="44.21913" lon="6.21216">
        <ele>1196</ele>
        <time>2018-06-08T12:35:45Z</time>
      </trkpt>
      <trkpt lat="44.21911" lon="6.21214">
        <ele>1196</ele>
        <time>2018-06-08T12:35:47Z</time>
      </trkpt>
      <trkpt lat="44.21909" lon="6.21212">
        <ele>1196</ele>
        <time>2018-06-08T12:35:49Z</time>
      </trkpt>
      <trkpt lat="44.21907" lon="6.21211">
        <ele>1195</ele>
        <time>2018-06-08T12:35:51Z</time>
      </trkpt>
      <trkpt lat="44.21905" lon="6.2121">
        <ele>1195</ele>
        <time>2018-06-08T12:35:53Z</time>
      </trkpt>
      <trkpt lat="44.21903" lon="6.21209">
        <ele>1194</ele>
        <time>2018-06-08T12:35:55Z</time>
      </trkpt>
      <trkpt lat="44.21902" lon="6.21209">
        <ele>1194</ele>
        <time>2018-06-08T12:35:56Z</time>
      </trkpt>
      <trkpt lat="44.21901" lon="6.21209">
        <ele>1194</ele>
        <time>2018-06-08T12:35:57Z</time>
      </trkpt>
      <trkpt lat="44.21899" lon="6.21209">
        <ele>1193</ele>
        <time>2018-06-08T12:35:59Z</time>
      </trkpt>
      <trkpt lat="44.21898" lon="6.21209">
        <ele>1193</ele>
        <time>2018-06-08T12:36:00Z</time>
      </trkpt>
      <trkpt lat="44.21896" lon="6.21209">
        <ele>1193</ele>
        <time>2018-06-08T12:36:02Z</time>
      </trkpt>
      <trkpt lat="44.21893" lon="6.21208">
        <ele>1193</ele>
        <time>2018-06-08T12:36:04Z</time>
      </trkpt>
      <trkpt lat="44.21892" lon="6.21208">
        <ele>1193</ele>
        <time>2018-06-08T12:36:05Z</time>
      </trkpt>
      <trkpt lat="44.21891" lon="6.21208">
        <ele>1193</ele>
        <time>2018-06-08T12:36:06Z</time>
      </trkpt>
      <trkpt lat="44.2189" lon="6.21207">
        <ele>1192</ele>
        <time>2018-06-08T12:36:07Z</time>
      </trkpt>
      <trkpt lat="44.21888" lon="6.21207">
        <ele>1192</ele>
        <time>2018-06-08T12:36:08Z</time>
      </trkpt>
      <trkpt lat="44.21887" lon="6.21207">
        <ele>1192</ele>
        <time>2018-06-08T12:36:09Z</time>
      </trkpt>
      <trkpt lat="44.21885" lon="6.21206">
        <ele>1192</ele>
        <time>2018-06-08T12:36:11Z</time>
      </trkpt>
      <trkpt lat="44.21884" lon="6.21206">
        <ele>1192</ele>
        <time>2018-06-08T12:36:12Z</time>
      </trkpt>
      <trkpt lat="44.21882" lon="6.21204">
        <ele>1192</ele>
        <time>2018-06-08T12:36:14Z</time>
      </trkpt>
      <trkpt lat="44.21881" lon="6.21204">
        <ele>1191</ele>
        <time>2018-06-08T12:36:15Z</time>
      </trkpt>
      <trkpt lat="44.2188" lon="6.21203">
        <ele>1191</ele>
        <time>2018-06-08T12:36:16Z</time>
      </trkpt>
      <trkpt lat="44.21878" lon="6.21202">
        <ele>1191</ele>
        <time>2018-06-08T12:36:18Z</time>
      </trkpt>
      <trkpt lat="44.21875" lon="6.21199">
        <ele>1191</ele>
        <time>2018-06-08T12:36:20Z</time>
      </trkpt>
      <trkpt lat="44.21874" lon="6.21199">
        <ele>1191</ele>
        <time>2018-06-08T12:36:21Z</time>
      </trkpt>
      <trkpt lat="44.21873" lon="6.21198">
        <ele>1191</ele>
        <time>2018-06-08T12:36:22Z</time>
      </trkpt>
      <trkpt lat="44.21872" lon="6.21198">
        <ele>1191</ele>
        <time>2018-06-08T12:36:23Z</time>
      </trkpt>
      <trkpt lat="44.2187" lon="6.21198">
        <ele>1191</ele>
        <time>2018-06-08T12:36:24Z</time>
      </trkpt>
      <trkpt lat="44.21869" lon="6.21198">
        <ele>1191</ele>
        <time>2018-06-08T12:36:25Z</time>
      </trkpt>
      <trkpt lat="44.21867" lon="6.21199">
        <ele>1191</ele>
        <time>2018-06-08T12:36:26Z</time>
      </trkpt>
      <trkpt lat="44.21866" lon="6.21199">
        <ele>1190</ele>
        <time>2018-06-08T12:36:27Z</time>
      </trkpt>
      <trkpt lat="44.21865" lon="6.212">
        <ele>1190</ele>
        <time>2018-06-08T12:36:28Z</time>
      </trkpt>
      <trkpt lat="44.21863" lon="6.21201">
        <ele>1189</ele>
        <time>2018-06-08T12:36:30Z</time>
      </trkpt>
      <trkpt lat="44.21862" lon="6.21202">
        <ele>1189</ele>
        <time>2018-06-08T12:36:31Z</time>
      </trkpt>
      <trkpt lat="44.21861" lon="6.21202">
        <ele>1188</ele>
        <time>2018-06-08T12:36:32Z</time>
      </trkpt>
      <trkpt lat="44.21859" lon="6.21204">
        <ele>1188</ele>
        <time>2018-06-08T12:36:34Z</time>
      </trkpt>
      <trkpt lat="44.21857" lon="6.21205">
        <ele>1187</ele>
        <time>2018-06-08T12:36:36Z</time>
      </trkpt>
      <trkpt lat="44.21855" lon="6.21206">
        <ele>1187</ele>
        <time>2018-06-08T12:36:38Z</time>
      </trkpt>
      <trkpt lat="44.21854" lon="6.21207">
        <ele>1187</ele>
        <time>2018-06-08T12:36:40Z</time>
      </trkpt>
      <trkpt lat="44.21852" lon="6.21208">
        <ele>1187</ele>
        <time>2018-06-08T12:36:41Z</time>
      </trkpt>
      <trkpt lat="44.2185" lon="6.21209">
        <ele>1187</ele>
        <time>2018-06-08T12:36:43Z</time>
      </trkpt>
      <trkpt lat="44.21848" lon="6.21211">
        <ele>1187</ele>
        <time>2018-06-08T12:36:45Z</time>
      </trkpt>
      <trkpt lat="44.21846" lon="6.21212">
        <ele>1187</ele>
        <time>2018-06-08T12:36:47Z</time>
      </trkpt>
      <trkpt lat="44.21844" lon="6.21213">
        <ele>1187</ele>
        <time>2018-06-08T12:36:49Z</time>
      </trkpt>
      <trkpt lat="44.21843" lon="6.21214">
        <ele>1187</ele>
        <time>2018-06-08T12:36:50Z</time>
      </trkpt>
      <trkpt lat="44.21841" lon="6.21214">
        <ele>1187</ele>
        <time>2018-06-08T12:36:52Z</time>
      </trkpt>
      <trkpt lat="44.2184" lon="6.21216">
        <ele>1187</ele>
        <time>2018-06-08T12:36:54Z</time>
      </trkpt>
      <trkpt lat="44.21838" lon="6.21218">
        <ele>1187</ele>
        <time>2018-06-08T12:36:56Z</time>
      </trkpt>
      <trkpt lat="44.21837" lon="6.2122">
        <ele>1187</ele>
        <time>2018-06-08T12:36:57Z</time>
      </trkpt>
      <trkpt lat="44.21836" lon="6.2122">
        <ele>1187</ele>
        <time>2018-06-08T12:36:58Z</time>
      </trkpt>
      <trkpt lat="44.21835" lon="6.2122">
        <ele>1187</ele>
        <time>2018-06-08T12:36:59Z</time>
      </trkpt>
      <trkpt lat="44.21833" lon="6.21221">
        <ele>1187</ele>
        <time>2018-06-08T12:37:01Z</time>
      </trkpt>
      <trkpt lat="44.21831" lon="6.21223">
        <ele>1187</ele>
        <time>2018-06-08T12:37:03Z</time>
      </trkpt>
      <trkpt lat="44.2183" lon="6.21224">
        <ele>1187</ele>
        <time>2018-06-08T12:37:05Z</time>
      </trkpt>
      <trkpt lat="44.21828" lon="6.21226">
        <ele>1187</ele>
        <time>2018-06-08T12:37:07Z</time>
      </trkpt>
      <trkpt lat="44.21827" lon="6.21228">
        <ele>1187</ele>
        <time>2018-06-08T12:37:09Z</time>
      </trkpt>
      <trkpt lat="44.21825" lon="6.21229">
        <ele>1187</ele>
        <time>2018-06-08T12:37:11Z</time>
      </trkpt>
      <trkpt lat="44.21824" lon="6.21231">
        <ele>1187</ele>
        <time>2018-06-08T12:37:13Z</time>
      </trkpt>
      <trkpt lat="44.21823" lon="6.21232">
        <ele>1186</ele>
        <time>2018-06-08T12:37:15Z</time>
      </trkpt>
      <trkpt lat="44.21822" lon="6.21234">
        <ele>1185</ele>
        <time>2018-06-08T12:37:17Z</time>
      </trkpt>
      <trkpt lat="44.2182" lon="6.21235">
        <ele>1185</ele>
        <time>2018-06-08T12:37:19Z</time>
      </trkpt>
      <trkpt lat="44.21819" lon="6.21237">
        <ele>1184</ele>
        <time>2018-06-08T12:37:21Z</time>
      </trkpt>
      <trkpt lat="44.21818" lon="6.21239">
        <ele>1184</ele>
        <time>2018-06-08T12:37:23Z</time>
      </trkpt>
      <trkpt lat="44.21817" lon="6.21241">
        <ele>1184</ele>
        <time>2018-06-08T12:37:26Z</time>
      </trkpt>
      <trkpt lat="44.21816" lon="6.21243">
        <ele>1184</ele>
        <time>2018-06-08T12:37:28Z</time>
      </trkpt>
      <trkpt lat="44.21815" lon="6.21244">
        <ele>1184</ele>
        <time>2018-06-08T12:37:30Z</time>
      </trkpt>
      <trkpt lat="44.21813" lon="6.21246">
        <ele>1183</ele>
        <time>2018-06-08T12:37:32Z</time>
      </trkpt>
      <trkpt lat="44.21812" lon="6.21248">
        <ele>1183</ele>
        <time>2018-06-08T12:37:34Z</time>
      </trkpt>
      <trkpt lat="44.21811" lon="6.21249">
        <ele>1183</ele>
        <time>2018-06-08T12:37:36Z</time>
      </trkpt>
      <trkpt lat="44.21809" lon="6.21251">
        <ele>1183</ele>
        <time>2018-06-08T12:37:38Z</time>
      </trkpt>
      <trkpt lat="44.21808" lon="6.21251">
        <ele>1182</ele>
        <time>2018-06-08T12:37:40Z</time>
      </trkpt>
      <trkpt lat="44.21807" lon="6.21253">
        <ele>1182</ele>
        <time>2018-06-08T12:37:42Z</time>
      </trkpt>
      <trkpt lat="44.21805" lon="6.21255">
        <ele>1181</ele>
        <time>2018-06-08T12:37:44Z</time>
      </trkpt>
      <trkpt lat="44.21803" lon="6.21257">
        <ele>1181</ele>
        <time>2018-06-08T12:37:46Z</time>
      </trkpt>
      <trkpt lat="44.21802" lon="6.21258">
        <ele>1180</ele>
        <time>2018-06-08T12:37:48Z</time>
      </trkpt>
      <trkpt lat="44.21801" lon="6.2126">
        <ele>1180</ele>
        <time>2018-06-08T12:37:50Z</time>
      </trkpt>
      <trkpt lat="44.21799" lon="6.21262">
        <ele>1179</ele>
        <time>2018-06-08T12:37:52Z</time>
      </trkpt>
      <trkpt lat="44.21797" lon="6.21265">
        <ele>1179</ele>
        <time>2018-06-08T12:37:54Z</time>
      </trkpt>
      <trkpt lat="44.21797" lon="6.21266">
        <ele>1179</ele>
        <time>2018-06-08T12:37:55Z</time>
      </trkpt>
      <trkpt lat="44.21796" lon="6.21268">
        <ele>1179</ele>
        <time>2018-06-08T12:37:56Z</time>
      </trkpt>
      <trkpt lat="44.21796" lon="6.2127">
        <ele>1179</ele>
        <time>2018-06-08T12:37:57Z</time>
      </trkpt>
      <trkpt lat="44.21795" lon="6.21272">
        <ele>1179</ele>
        <time>2018-06-08T12:37:58Z</time>
      </trkpt>
      <trkpt lat="44.21795" lon="6.21273">
        <ele>1179</ele>
        <time>2018-06-08T12:37:59Z</time>
      </trkpt>
      <trkpt lat="44.21795" lon="6.21275">
        <ele>1179</ele>
        <time>2018-06-08T12:38:00Z</time>
      </trkpt>
      <trkpt lat="44.21794" lon="6.21276">
        <ele>1179</ele>
        <time>2018-06-08T12:38:01Z</time>
      </trkpt>
      <trkpt lat="44.21794" lon="6.21278">
        <ele>1179</ele>
        <time>2018-06-08T12:38:02Z</time>
      </trkpt>
      <trkpt lat="44.21793" lon="6.21279">
        <ele>1179</ele>
        <time>2018-06-08T12:38:03Z</time>
      </trkpt>
      <trkpt lat="44.21791" lon="6.21282">
        <ele>1179</ele>
        <time>2018-06-08T12:38:05Z</time>
      </trkpt>
      <trkpt lat="44.2179" lon="6.21285">
        <ele>1179</ele>
        <time>2018-06-08T12:38:07Z</time>
      </trkpt>
      <trkpt lat="44.21788" lon="6.21286">
        <ele>1179</ele>
        <time>2018-06-08T12:38:09Z</time>
      </trkpt>
      <trkpt lat="44.21787" lon="6.21287">
        <ele>1179</ele>
        <time>2018-06-08T12:38:10Z</time>
      </trkpt>
      <trkpt lat="44.21786" lon="6.21287">
        <ele>1178</ele>
        <time>2018-06-08T12:38:12Z</time>
      </trkpt>
      <trkpt lat="44.21784" lon="6.21287">
        <ele>1178</ele>
        <time>2018-06-08T12:38:14Z</time>
      </trkpt>
      <trkpt lat="44.21782" lon="6.21288">
        <ele>1177</ele>
        <time>2018-06-08T12:38:16Z</time>
      </trkpt>
      <trkpt lat="44.2178" lon="6.21289">
        <ele>1176</ele>
        <time>2018-06-08T12:38:18Z</time>
      </trkpt>
      <trkpt lat="44.21779" lon="6.21289">
        <ele>1176</ele>
        <time>2018-06-08T12:38:20Z</time>
      </trkpt>
      <trkpt lat="44.21777" lon="6.21288">
        <ele>1175</ele>
        <time>2018-06-08T12:38:22Z</time>
      </trkpt>
      <trkpt lat="44.21775" lon="6.21287">
        <ele>1174</ele>
        <time>2018-06-08T12:38:24Z</time>
      </trkpt>
      <trkpt lat="44.21773" lon="6.21286">
        <ele>1174</ele>
        <time>2018-06-08T12:38:26Z</time>
      </trkpt>
      <trkpt lat="44.21771" lon="6.21286">
        <ele>1173</ele>
        <time>2018-06-08T12:38:28Z</time>
      </trkpt>
      <trkpt lat="44.21769" lon="6.21286">
        <ele>1173</ele>
        <time>2018-06-08T12:38:30Z</time>
      </trkpt>
      <trkpt lat="44.21767" lon="6.21286">
        <ele>1173</ele>
        <time>2018-06-08T12:38:32Z</time>
      </trkpt>
      <trkpt lat="44.21766" lon="6.21285">
        <ele>1172</ele>
        <time>2018-06-08T12:38:34Z</time>
      </trkpt>
      <trkpt lat="44.21764" lon="6.21285">
        <ele>1172</ele>
        <time>2018-06-08T12:38:36Z</time>
      </trkpt>
      <trkpt lat="44.21763" lon="6.21286">
        <ele>1171</ele>
        <time>2018-06-08T12:38:38Z</time>
      </trkpt>
      <trkpt lat="44.21761" lon="6.21287">
        <ele>1171</ele>
        <time>2018-06-08T12:38:40Z</time>
      </trkpt>
      <trkpt lat="44.21759" lon="6.21287">
        <ele>1170</ele>
        <time>2018-06-08T12:38:42Z</time>
      </trkpt>
      <trkpt lat="44.21757" lon="6.21288">
        <ele>1170</ele>
        <time>2018-06-08T12:38:44Z</time>
      </trkpt>
      <trkpt lat="44.21756" lon="6.21288">
        <ele>1170</ele>
        <time>2018-06-08T12:38:45Z</time>
      </trkpt>
      <trkpt lat="44.21754" lon="6.21288">
        <ele>1170</ele>
        <time>2018-06-08T12:38:47Z</time>
      </trkpt>
      <trkpt lat="44.21753" lon="6.21289">
        <ele>1169</ele>
        <time>2018-06-08T12:38:49Z</time>
      </trkpt>
      <trkpt lat="44.21751" lon="6.21288">
        <ele>1169</ele>
        <time>2018-06-08T12:38:51Z</time>
      </trkpt>
      <trkpt lat="44.21749" lon="6.21289">
        <ele>1168</ele>
        <time>2018-06-08T12:38:53Z</time>
      </trkpt>
      <trkpt lat="44.21747" lon="6.2129">
        <ele>1168</ele>
        <time>2018-06-08T12:38:55Z</time>
      </trkpt>
      <trkpt lat="44.21746" lon="6.21292">
        <ele>1167</ele>
        <time>2018-06-08T12:38:57Z</time>
      </trkpt>
      <trkpt lat="44.21744" lon="6.21294">
        <ele>1167</ele>
        <time>2018-06-08T12:38:59Z</time>
      </trkpt>
      <trkpt lat="44.21743" lon="6.21296">
        <ele>1167</ele>
        <time>2018-06-08T12:39:01Z</time>
      </trkpt>
      <trkpt lat="44.21742" lon="6.21299">
        <ele>1167</ele>
        <time>2018-06-08T12:39:03Z</time>
      </trkpt>
      <trkpt lat="44.21741" lon="6.21301">
        <ele>1167</ele>
        <time>2018-06-08T12:39:05Z</time>
      </trkpt>
      <trkpt lat="44.2174" lon="6.21302">
        <ele>1167</ele>
        <time>2018-06-08T12:39:06Z</time>
      </trkpt>
      <trkpt lat="44.2174" lon="6.21305">
        <ele>1167</ele>
        <time>2018-06-08T12:39:08Z</time>
      </trkpt>
      <trkpt lat="44.21739" lon="6.21306">
        <ele>1167</ele>
        <time>2018-06-08T12:39:10Z</time>
      </trkpt>
      <trkpt lat="44.21738" lon="6.21308">
        <ele>1167</ele>
        <time>2018-06-08T12:39:12Z</time>
      </trkpt>
      <trkpt lat="44.21738" lon="6.2131">
        <ele>1167</ele>
        <time>2018-06-08T12:39:13Z</time>
      </trkpt>
      <trkpt lat="44.21738" lon="6.21312">
        <ele>1167</ele>
        <time>2018-06-08T12:39:15Z</time>
      </trkpt>
      <trkpt lat="44.21737" lon="6.21313">
        <ele>1167</ele>
        <time>2018-06-08T12:39:17Z</time>
      </trkpt>
      <trkpt lat="44.21737" lon="6.21315">
        <ele>1167</ele>
        <time>2018-06-08T12:39:19Z</time>
      </trkpt>
      <trkpt lat="44.21735" lon="6.21317">
        <ele>1167</ele>
        <time>2018-06-08T12:39:21Z</time>
      </trkpt>
      <trkpt lat="44.21735" lon="6.21319">
        <ele>1167</ele>
        <time>2018-06-08T12:39:22Z</time>
      </trkpt>
      <trkpt lat="44.21735" lon="6.2132">
        <ele>1167</ele>
        <time>2018-06-08T12:39:23Z</time>
      </trkpt>
      <trkpt lat="44.21735" lon="6.21322">
        <ele>1167</ele>
        <time>2018-06-08T12:39:24Z</time>
      </trkpt>
      <trkpt lat="44.21734" lon="6.21324">
        <ele>1167</ele>
        <time>2018-06-08T12:39:26Z</time>
      </trkpt>
      <trkpt lat="44.21734" lon="6.21326">
        <ele>1167</ele>
        <time>2018-06-08T12:39:27Z</time>
      </trkpt>
      <trkpt lat="44.21734" lon="6.21328">
        <ele>1167</ele>
        <time>2018-06-08T12:39:28Z</time>
      </trkpt>
      <trkpt lat="44.21734" lon="6.2133">
        <ele>1166</ele>
        <time>2018-06-08T12:39:30Z</time>
      </trkpt>
      <trkpt lat="44.21734" lon="6.21332">
        <ele>1166</ele>
        <time>2018-06-08T12:39:31Z</time>
      </trkpt>
      <trkpt lat="44.21734" lon="6.21334">
        <ele>1166</ele>
        <time>2018-06-08T12:39:32Z</time>
      </trkpt>
      <trkpt lat="44.21733" lon="6.21336">
        <ele>1166</ele>
        <time>2018-06-08T12:39:33Z</time>
      </trkpt>
      <trkpt lat="44.21733" lon="6.21338">
        <ele>1166</ele>
        <time>2018-06-08T12:39:34Z</time>
      </trkpt>
      <trkpt lat="44.21732" lon="6.2134">
        <ele>1166</ele>
        <time>2018-06-08T12:39:35Z</time>
      </trkpt>
      <trkpt lat="44.21732" lon="6.21342">
        <ele>1166</ele>
        <time>2018-06-08T12:39:36Z</time>
      </trkpt>
      <trkpt lat="44.21732" lon="6.21344">
        <ele>1166</ele>
        <time>2018-06-08T12:39:37Z</time>
      </trkpt>
      <trkpt lat="44.21732" lon="6.21345">
        <ele>1166</ele>
        <time>2018-06-08T12:39:38Z</time>
      </trkpt>
      <trkpt lat="44.21731" lon="6.21347">
        <ele>1166</ele>
        <time>2018-06-08T12:39:39Z</time>
      </trkpt>
      <trkpt lat="44.21731" lon="6.21349">
        <ele>1166</ele>
        <time>2018-06-08T12:39:40Z</time>
      </trkpt>
      <trkpt lat="44.2173" lon="6.2135">
        <ele>1166</ele>
        <time>2018-06-08T12:39:41Z</time>
      </trkpt>
      <trkpt lat="44.2173" lon="6.21352">
        <ele>1166</ele>
        <time>2018-06-08T12:39:42Z</time>
      </trkpt>
      <trkpt lat="44.21729" lon="6.21354">
        <ele>1166</ele>
        <time>2018-06-08T12:39:43Z</time>
      </trkpt>
      <trkpt lat="44.21729" lon="6.21356">
        <ele>1166</ele>
        <time>2018-06-08T12:39:44Z</time>
      </trkpt>
      <trkpt lat="44.21729" lon="6.21358">
        <ele>1166</ele>
        <time>2018-06-08T12:39:45Z</time>
      </trkpt>
      <trkpt lat="44.21728" lon="6.21359">
        <ele>1166</ele>
        <time>2018-06-08T12:39:46Z</time>
      </trkpt>
      <trkpt lat="44.21727" lon="6.21361">
        <ele>1166</ele>
        <time>2018-06-08T12:39:47Z</time>
      </trkpt>
      <trkpt lat="44.21727" lon="6.21363">
        <ele>1166</ele>
        <time>2018-06-08T12:39:48Z</time>
      </trkpt>
      <trkpt lat="44.21727" lon="6.21365">
        <ele>1166</ele>
        <time>2018-06-08T12:39:49Z</time>
      </trkpt>
      <trkpt lat="44.21726" lon="6.21366">
        <ele>1166</ele>
        <time>2018-06-08T12:39:50Z</time>
      </trkpt>
      <trkpt lat="44.21725" lon="6.21368">
        <ele>1166</ele>
        <time>2018-06-08T12:39:51Z</time>
      </trkpt>
      <trkpt lat="44.21724" lon="6.2137">
        <ele>1166</ele>
        <time>2018-06-08T12:39:52Z</time>
      </trkpt>
      <trkpt lat="44.21724" lon="6.21372">
        <ele>1166</ele>
        <time>2018-06-08T12:39:53Z</time>
      </trkpt>
      <trkpt lat="44.21724" lon="6.21374">
        <ele>1166</ele>
        <time>2018-06-08T12:39:54Z</time>
      </trkpt>
      <trkpt lat="44.21724" lon="6.21376">
        <ele>1166</ele>
        <time>2018-06-08T12:39:55Z</time>
      </trkpt>
      <trkpt lat="44.21724" lon="6.21377">
        <ele>1166</ele>
        <time>2018-06-08T12:39:56Z</time>
      </trkpt>
      <trkpt lat="44.21723" lon="6.21379">
        <ele>1166</ele>
        <time>2018-06-08T12:39:57Z</time>
      </trkpt>
      <trkpt lat="44.21723" lon="6.21381">
        <ele>1166</ele>
        <time>2018-06-08T12:39:58Z</time>
      </trkpt>
      <trkpt lat="44.21722" lon="6.21383">
        <ele>1166</ele>
        <time>2018-06-08T12:39:59Z</time>
      </trkpt>
      <trkpt lat="44.21722" lon="6.21384">
        <ele>1166</ele>
        <time>2018-06-08T12:40:00Z</time>
      </trkpt>
      <trkpt lat="44.21722" lon="6.21386">
        <ele>1166</ele>
        <time>2018-06-08T12:40:01Z</time>
      </trkpt>
      <trkpt lat="44.21722" lon="6.21388">
        <ele>1166</ele>
        <time>2018-06-08T12:40:02Z</time>
      </trkpt>
      <trkpt lat="44.21722" lon="6.2139">
        <ele>1166</ele>
        <time>2018-06-08T12:40:03Z</time>
      </trkpt>
      <trkpt lat="44.21721" lon="6.21391">
        <ele>1166</ele>
        <time>2018-06-08T12:40:04Z</time>
      </trkpt>
      <trkpt lat="44.21721" lon="6.21393">
        <ele>1166</ele>
        <time>2018-06-08T12:40:05Z</time>
      </trkpt>
      <trkpt lat="44.21721" lon="6.21394">
        <ele>1166</ele>
        <time>2018-06-08T12:40:06Z</time>
      </trkpt>
      <trkpt lat="44.21721" lon="6.21396">
        <ele>1166</ele>
        <time>2018-06-08T12:40:07Z</time>
      </trkpt>
      <trkpt lat="44.21721" lon="6.21397">
        <ele>1166</ele>
        <time>2018-06-08T12:40:08Z</time>
      </trkpt>
      <trkpt lat="44.21721" lon="6.21399">
        <ele>1166</ele>
        <time>2018-06-08T12:40:09Z</time>
      </trkpt>
      <trkpt lat="44.21721" lon="6.214">
        <ele>1166</ele>
        <time>2018-06-08T12:40:10Z</time>
      </trkpt>
      <trkpt lat="44.21721" lon="6.21402">
        <ele>1166</ele>
        <time>2018-06-08T12:40:11Z</time>
      </trkpt>
      <trkpt lat="44.2172" lon="6.21404">
        <ele>1166</ele>
        <time>2018-06-08T12:40:12Z</time>
      </trkpt>
      <trkpt lat="44.2172" lon="6.21406">
        <ele>1166</ele>
        <time>2018-06-08T12:40:14Z</time>
      </trkpt>
      <trkpt lat="44.2172" lon="6.21408">
        <ele>1166</ele>
        <time>2018-06-08T12:40:15Z</time>
      </trkpt>
      <trkpt lat="44.2172" lon="6.21409">
        <ele>1166</ele>
        <time>2018-06-08T12:40:16Z</time>
      </trkpt>
      <trkpt lat="44.2172" lon="6.21411">
        <ele>1166</ele>
        <time>2018-06-08T12:40:17Z</time>
      </trkpt>
      <trkpt lat="44.21719" lon="6.21412">
        <ele>1165</ele>
        <time>2018-06-08T12:40:18Z</time>
      </trkpt>
      <trkpt lat="44.21719" lon="6.21414">
        <ele>1165</ele>
        <time>2018-06-08T12:40:19Z</time>
      </trkpt>
      <trkpt lat="44.21719" lon="6.21416">
        <ele>1165</ele>
        <time>2018-06-08T12:40:21Z</time>
      </trkpt>
      <trkpt lat="44.21719" lon="6.21419">
        <ele>1165</ele>
        <time>2018-06-08T12:40:23Z</time>
      </trkpt>
      <trkpt lat="44.21719" lon="6.21421">
        <ele>1165</ele>
        <time>2018-06-08T12:40:25Z</time>
      </trkpt>
      <trkpt lat="44.21719" lon="6.21422">
        <ele>1165</ele>
        <time>2018-06-08T12:40:26Z</time>
      </trkpt>
      <trkpt lat="44.21719" lon="6.21424">
        <ele>1165</ele>
        <time>2018-06-08T12:40:27Z</time>
      </trkpt>
      <trkpt lat="44.21719" lon="6.21425">
        <ele>1165</ele>
        <time>2018-06-08T12:40:28Z</time>
      </trkpt>
      <trkpt lat="44.21718" lon="6.21428">
        <ele>1165</ele>
        <time>2018-06-08T12:40:30Z</time>
      </trkpt>
      <trkpt lat="44.21718" lon="6.2143">
        <ele>1164</ele>
        <time>2018-06-08T12:40:32Z</time>
      </trkpt>
      <trkpt lat="44.21718" lon="6.21431">
        <ele>1164</ele>
        <time>2018-06-08T12:40:33Z</time>
      </trkpt>
      <trkpt lat="44.21718" lon="6.21433">
        <ele>1164</ele>
        <time>2018-06-08T12:40:34Z</time>
      </trkpt>
      <trkpt lat="44.21718" lon="6.21435">
        <ele>1163</ele>
        <time>2018-06-08T12:40:35Z</time>
      </trkpt>
      <trkpt lat="44.21718" lon="6.21437">
        <ele>1163</ele>
        <time>2018-06-08T12:40:36Z</time>
      </trkpt>
      <trkpt lat="44.21718" lon="6.21439">
        <ele>1163</ele>
        <time>2018-06-08T12:40:37Z</time>
      </trkpt>
      <trkpt lat="44.21719" lon="6.21441">
        <ele>1163</ele>
        <time>2018-06-08T12:40:38Z</time>
      </trkpt>
      <trkpt lat="44.21719" lon="6.21444">
        <ele>1163</ele>
        <time>2018-06-08T12:40:40Z</time>
      </trkpt>
      <trkpt lat="44.21719" lon="6.21445">
        <ele>1163</ele>
        <time>2018-06-08T12:40:41Z</time>
      </trkpt>
      <trkpt lat="44.21719" lon="6.21447">
        <ele>1162</ele>
        <time>2018-06-08T12:40:42Z</time>
      </trkpt>
      <trkpt lat="44.21719" lon="6.21449">
        <ele>1162</ele>
        <time>2018-06-08T12:40:43Z</time>
      </trkpt>
      <trkpt lat="44.21718" lon="6.21452">
        <ele>1161</ele>
        <time>2018-06-08T12:40:45Z</time>
      </trkpt>
      <trkpt lat="44.21718" lon="6.21454">
        <ele>1161</ele>
        <time>2018-06-08T12:40:46Z</time>
      </trkpt>
      <trkpt lat="44.21717" lon="6.21455">
        <ele>1161</ele>
        <time>2018-06-08T12:40:47Z</time>
      </trkpt>
      <trkpt lat="44.21717" lon="6.21458">
        <ele>1161</ele>
        <time>2018-06-08T12:40:48Z</time>
      </trkpt>
      <trkpt lat="44.21717" lon="6.21459">
        <ele>1161</ele>
        <time>2018-06-08T12:40:49Z</time>
      </trkpt>
      <trkpt lat="44.21717" lon="6.21462">
        <ele>1161</ele>
        <time>2018-06-08T12:40:50Z</time>
      </trkpt>
      <trkpt lat="44.21716" lon="6.21463">
        <ele>1161</ele>
        <time>2018-06-08T12:40:51Z</time>
      </trkpt>
      <trkpt lat="44.21716" lon="6.21465">
        <ele>1161</ele>
        <time>2018-06-08T12:40:52Z</time>
      </trkpt>
      <trkpt lat="44.21715" lon="6.21467">
        <ele>1161</ele>
        <time>2018-06-08T12:40:53Z</time>
      </trkpt>
      <trkpt lat="44.21714" lon="6.21469">
        <ele>1161</ele>
        <time>2018-06-08T12:40:55Z</time>
      </trkpt>
      <trkpt lat="44.21713" lon="6.21472">
        <ele>1161</ele>
        <time>2018-06-08T12:40:57Z</time>
      </trkpt>
      <trkpt lat="44.21712" lon="6.21473">
        <ele>1161</ele>
        <time>2018-06-08T12:40:58Z</time>
      </trkpt>
      <trkpt lat="44.21712" lon="6.21476">
        <ele>1161</ele>
        <time>2018-06-08T12:41:00Z</time>
      </trkpt>
      <trkpt lat="44.21711" lon="6.21478">
        <ele>1161</ele>
        <time>2018-06-08T12:41:02Z</time>
      </trkpt>
      <trkpt lat="44.2171" lon="6.2148">
        <ele>1161</ele>
        <time>2018-06-08T12:41:04Z</time>
      </trkpt>
      <trkpt lat="44.21709" lon="6.21482">
        <ele>1161</ele>
        <time>2018-06-08T12:41:05Z</time>
      </trkpt>
      <trkpt lat="44.21708" lon="6.21485">
        <ele>1161</ele>
        <time>2018-06-08T12:41:07Z</time>
      </trkpt>
      <trkpt lat="44.21707" lon="6.21487">
        <ele>1161</ele>
        <time>2018-06-08T12:41:09Z</time>
      </trkpt>
      <trkpt lat="44.21706" lon="6.21489">
        <ele>1161</ele>
        <time>2018-06-08T12:41:10Z</time>
      </trkpt>
      <trkpt lat="44.21706" lon="6.21491">
        <ele>1161</ele>
        <time>2018-06-08T12:41:11Z</time>
      </trkpt>
      <trkpt lat="44.21705" lon="6.21492">
        <ele>1161</ele>
        <time>2018-06-08T12:41:12Z</time>
      </trkpt>
      <trkpt lat="44.21705" lon="6.21494">
        <ele>1161</ele>
        <time>2018-06-08T12:41:13Z</time>
      </trkpt>
      <trkpt lat="44.21705" lon="6.21496">
        <ele>1161</ele>
        <time>2018-06-08T12:41:14Z</time>
      </trkpt>
      <trkpt lat="44.21705" lon="6.21498">
        <ele>1161</ele>
        <time>2018-06-08T12:41:15Z</time>
      </trkpt>
      <trkpt lat="44.21704" lon="6.215">
        <ele>1161</ele>
        <time>2018-06-08T12:41:16Z</time>
      </trkpt>
      <trkpt lat="44.21704" lon="6.21502">
        <ele>1161</ele>
        <time>2018-06-08T12:41:17Z</time>
      </trkpt>
      <trkpt lat="44.21704" lon="6.21504">
        <ele>1161</ele>
        <time>2018-06-08T12:41:18Z</time>
      </trkpt>
      <trkpt lat="44.21703" lon="6.21505">
        <ele>1161</ele>
        <time>2018-06-08T12:41:19Z</time>
      </trkpt>
      <trkpt lat="44.21703" lon="6.21507">
        <ele>1161</ele>
        <time>2018-06-08T12:41:20Z</time>
      </trkpt>
      <trkpt lat="44.21702" lon="6.21509">
        <ele>1161</ele>
        <time>2018-06-08T12:41:21Z</time>
      </trkpt>
      <trkpt lat="44.21701" lon="6.21511">
        <ele>1161</ele>
        <time>2018-06-08T12:41:23Z</time>
      </trkpt>
      <trkpt lat="44.21701" lon="6.21513">
        <ele>1161</ele>
        <time>2018-06-08T12:41:24Z</time>
      </trkpt>
      <trkpt lat="44.21701" lon="6.21514">
        <ele>1161</ele>
        <time>2018-06-08T12:41:25Z</time>
      </trkpt>
      <trkpt lat="44.217" lon="6.21516">
        <ele>1161</ele>
        <time>2018-06-08T12:41:26Z</time>
      </trkpt>
      <trkpt lat="44.21699" lon="6.21517">
        <ele>1161</ele>
        <time>2018-06-08T12:41:28Z</time>
      </trkpt>
      <trkpt lat="44.21699" lon="6.21519">
        <ele>1161</ele>
        <time>2018-06-08T12:41:31Z</time>
      </trkpt>
      <trkpt lat="44.21698" lon="6.2152">
        <ele>1161</ele>
        <time>2018-06-08T12:41:33Z</time>
      </trkpt>
      <trkpt lat="44.21698" lon="6.21523">
        <ele>1161</ele>
        <time>2018-06-08T12:41:35Z</time>
      </trkpt>
      <trkpt lat="44.21697" lon="6.21525">
        <ele>1161</ele>
        <time>2018-06-08T12:41:36Z</time>
      </trkpt>
      <trkpt lat="44.21697" lon="6.21526">
        <ele>1161</ele>
        <time>2018-06-08T12:41:37Z</time>
      </trkpt>
      <trkpt lat="44.21696" lon="6.21528">
        <ele>1161</ele>
        <time>2018-06-08T12:41:38Z</time>
      </trkpt>
      <trkpt lat="44.21696" lon="6.2153">
        <ele>1161</ele>
        <time>2018-06-08T12:41:40Z</time>
      </trkpt>
      <trkpt lat="44.21696" lon="6.21532">
        <ele>1161</ele>
        <time>2018-06-08T12:41:43Z</time>
      </trkpt>
      <trkpt lat="44.21697" lon="6.21534">
        <ele>1161</ele>
        <time>2018-06-08T12:41:44Z</time>
      </trkpt>
      <trkpt lat="44.21697" lon="6.21535">
        <ele>1161</ele>
        <time>2018-06-08T12:41:45Z</time>
      </trkpt>
      <trkpt lat="44.21697" lon="6.21537">
        <ele>1161</ele>
        <time>2018-06-08T12:41:46Z</time>
      </trkpt>
      <trkpt lat="44.21697" lon="6.21539">
        <ele>1161</ele>
        <time>2018-06-08T12:41:47Z</time>
      </trkpt>
      <trkpt lat="44.21696" lon="6.21541">
        <ele>1161</ele>
        <time>2018-06-08T12:41:48Z</time>
      </trkpt>
      <trkpt lat="44.21696" lon="6.21543">
        <ele>1161</ele>
        <time>2018-06-08T12:41:49Z</time>
      </trkpt>
      <trkpt lat="44.21696" lon="6.21545">
        <ele>1161</ele>
        <time>2018-06-08T12:41:50Z</time>
      </trkpt>
      <trkpt lat="44.21694" lon="6.21548">
        <ele>1161</ele>
        <time>2018-06-08T12:41:52Z</time>
      </trkpt>
      <trkpt lat="44.21693" lon="6.2155">
        <ele>1161</ele>
        <time>2018-06-08T12:41:54Z</time>
      </trkpt>
      <trkpt lat="44.21692" lon="6.21552">
        <ele>1161</ele>
        <time>2018-06-08T12:41:56Z</time>
      </trkpt>
      <trkpt lat="44.2169" lon="6.21553">
        <ele>1160</ele>
        <time>2018-06-08T12:41:57Z</time>
      </trkpt>
      <trkpt lat="44.2169" lon="6.21555">
        <ele>1159</ele>
        <time>2018-06-08T12:41:58Z</time>
      </trkpt>
      <trkpt lat="44.21688" lon="6.21557">
        <ele>1158</ele>
        <time>2018-06-08T12:42:00Z</time>
      </trkpt>
      <trkpt lat="44.21687" lon="6.21559">
        <ele>1157</ele>
        <time>2018-06-08T12:42:02Z</time>
      </trkpt>
      <trkpt lat="44.21686" lon="6.21561">
        <ele>1156</ele>
        <time>2018-06-08T12:42:04Z</time>
      </trkpt>
      <trkpt lat="44.21685" lon="6.21563">
        <ele>1156</ele>
        <time>2018-06-08T12:42:06Z</time>
      </trkpt>
      <trkpt lat="44.21685" lon="6.21565">
        <ele>1156</ele>
        <time>2018-06-08T12:42:07Z</time>
      </trkpt>
      <trkpt lat="44.21684" lon="6.21567">
        <ele>1155</ele>
        <time>2018-06-08T12:42:08Z</time>
      </trkpt>
      <trkpt lat="44.21684" lon="6.21568">
        <ele>1155</ele>
        <time>2018-06-08T12:42:09Z</time>
      </trkpt>
      <trkpt lat="44.21683" lon="6.2157">
        <ele>1155</ele>
        <time>2018-06-08T12:42:10Z</time>
      </trkpt>
      <trkpt lat="44.21682" lon="6.21572">
        <ele>1155</ele>
        <time>2018-06-08T12:42:11Z</time>
      </trkpt>
      <trkpt lat="44.21681" lon="6.21573">
        <ele>1155</ele>
        <time>2018-06-08T12:42:12Z</time>
      </trkpt>
      <trkpt lat="44.21679" lon="6.21576">
        <ele>1155</ele>
        <time>2018-06-08T12:42:14Z</time>
      </trkpt>
      <trkpt lat="44.21676" lon="6.21578">
        <ele>1155</ele>
        <time>2018-06-08T12:42:16Z</time>
      </trkpt>
      <trkpt lat="44.21674" lon="6.21578">
        <ele>1155</ele>
        <time>2018-06-08T12:42:18Z</time>
      </trkpt>
      <trkpt lat="44.21672" lon="6.21579">
        <ele>1155</ele>
        <time>2018-06-08T12:42:20Z</time>
      </trkpt>
      <trkpt lat="44.2167" lon="6.21581">
        <ele>1155</ele>
        <time>2018-06-08T12:42:22Z</time>
      </trkpt>
      <trkpt lat="44.21668" lon="6.21582">
        <ele>1155</ele>
        <time>2018-06-08T12:42:24Z</time>
      </trkpt>
      <trkpt lat="44.21666" lon="6.21585">
        <ele>1155</ele>
        <time>2018-06-08T12:42:26Z</time>
      </trkpt>
      <trkpt lat="44.21664" lon="6.21586">
        <ele>1155</ele>
        <time>2018-06-08T12:42:27Z</time>
      </trkpt>
      <trkpt lat="44.21663" lon="6.21587">
        <ele>1155</ele>
        <time>2018-06-08T12:42:28Z</time>
      </trkpt>
      <trkpt lat="44.21662" lon="6.21588">
        <ele>1155</ele>
        <time>2018-06-08T12:42:29Z</time>
      </trkpt>
      <trkpt lat="44.21661" lon="6.21588">
        <ele>1155</ele>
        <time>2018-06-08T12:42:30Z</time>
      </trkpt>
      <trkpt lat="44.21659" lon="6.21589">
        <ele>1155</ele>
        <time>2018-06-08T12:42:32Z</time>
      </trkpt>
      <trkpt lat="44.21657" lon="6.21591">
        <ele>1155</ele>
        <time>2018-06-08T12:42:34Z</time>
      </trkpt>
      <trkpt lat="44.21656" lon="6.21594">
        <ele>1155</ele>
        <time>2018-06-08T12:42:36Z</time>
      </trkpt>
      <trkpt lat="44.21655" lon="6.21595">
        <ele>1155</ele>
        <time>2018-06-08T12:42:37Z</time>
      </trkpt>
      <trkpt lat="44.21654" lon="6.21598">
        <ele>1155</ele>
        <time>2018-06-08T12:42:40Z</time>
      </trkpt>
      <trkpt lat="44.21654" lon="6.21599">
        <ele>1155</ele>
        <time>2018-06-08T12:42:41Z</time>
      </trkpt>
      <trkpt lat="44.21654" lon="6.21601">
        <ele>1155</ele>
        <time>2018-06-08T12:42:42Z</time>
      </trkpt>
      <trkpt lat="44.21653" lon="6.21602">
        <ele>1155</ele>
        <time>2018-06-08T12:42:44Z</time>
      </trkpt>
      <trkpt lat="44.21652" lon="6.21604">
        <ele>1155</ele>
        <time>2018-06-08T12:42:46Z</time>
      </trkpt>
      <trkpt lat="44.2165" lon="6.21606">
        <ele>1155</ele>
        <time>2018-06-08T12:42:48Z</time>
      </trkpt>
      <trkpt lat="44.21648" lon="6.21608">
        <ele>1155</ele>
        <time>2018-06-08T12:42:50Z</time>
      </trkpt>
      <trkpt lat="44.21648" lon="6.2161">
        <ele>1155</ele>
        <time>2018-06-08T12:42:52Z</time>
      </trkpt>
      <trkpt lat="44.21647" lon="6.21612">
        <ele>1155</ele>
        <time>2018-06-08T12:42:53Z</time>
      </trkpt>
      <trkpt lat="44.21647" lon="6.21614">
        <ele>1155</ele>
        <time>2018-06-08T12:42:54Z</time>
      </trkpt>
      <trkpt lat="44.21647" lon="6.21615">
        <ele>1154</ele>
        <time>2018-06-08T12:42:56Z</time>
      </trkpt>
      <trkpt lat="44.21646" lon="6.21617">
        <ele>1154</ele>
        <time>2018-06-08T12:42:59Z</time>
      </trkpt>
      <trkpt lat="44.21646" lon="6.21619">
        <ele>1153</ele>
        <time>2018-06-08T12:43:01Z</time>
      </trkpt>
      <trkpt lat="44.21645" lon="6.21621">
        <ele>1153</ele>
        <time>2018-06-08T12:43:03Z</time>
      </trkpt>
      <trkpt lat="44.21643" lon="6.21624">
        <ele>1152</ele>
        <time>2018-06-08T12:43:05Z</time>
      </trkpt>
      <trkpt lat="44.21643" lon="6.21626">
        <ele>1152</ele>
        <time>2018-06-08T12:43:07Z</time>
      </trkpt>
      <trkpt lat="44.21642" lon="6.21629">
        <ele>1151</ele>
        <time>2018-06-08T12:43:09Z</time>
      </trkpt>
      <trkpt lat="44.2164" lon="6.2163">
        <ele>1151</ele>
        <time>2018-06-08T12:43:11Z</time>
      </trkpt>
      <trkpt lat="44.21639" lon="6.21631">
        <ele>1150</ele>
        <time>2018-06-08T12:43:13Z</time>
      </trkpt>
      <trkpt lat="44.21637" lon="6.21632">
        <ele>1150</ele>
        <time>2018-06-08T12:43:15Z</time>
      </trkpt>
      <trkpt lat="44.21635" lon="6.21633">
        <ele>1150</ele>
        <time>2018-06-08T12:43:16Z</time>
      </trkpt>
      <trkpt lat="44.21634" lon="6.21633">
        <ele>1150</ele>
        <time>2018-06-08T12:43:17Z</time>
      </trkpt>
      <trkpt lat="44.21632" lon="6.21635">
        <ele>1150</ele>
        <time>2018-06-08T12:43:19Z</time>
      </trkpt>
      <trkpt lat="44.21631" lon="6.21635">
        <ele>1149</ele>
        <time>2018-06-08T12:43:21Z</time>
      </trkpt>
      <trkpt lat="44.2163" lon="6.21635">
        <ele>1149</ele>
        <time>2018-06-08T12:43:23Z</time>
      </trkpt>
      <trkpt lat="44.21629" lon="6.21634">
        <ele>1148</ele>
        <time>2018-06-08T12:43:26Z</time>
      </trkpt>
      <trkpt lat="44.21629" lon="6.21632">
        <ele>1148</ele>
        <time>2018-06-08T12:43:29Z</time>
      </trkpt>
      <trkpt lat="44.21629" lon="6.21631">
        <ele>1148</ele>
        <time>2018-06-08T12:43:32Z</time>
      </trkpt>
      <trkpt lat="44.21628" lon="6.21629">
        <ele>1147</ele>
        <time>2018-06-08T12:43:36Z</time>
      </trkpt>
      <trkpt lat="44.21628" lon="6.21628">
        <ele>1147</ele>
        <time>2018-06-08T12:43:38Z</time>
      </trkpt>
      <trkpt lat="44.21627" lon="6.21627">
        <ele>1147</ele>
        <time>2018-06-08T12:43:43Z</time>
      </trkpt>
      <trkpt lat="44.21626" lon="6.21626">
        <ele>1147</ele>
        <time>2018-06-08T12:44:00Z</time>
      </trkpt>
      <trkpt lat="44.21624" lon="6.21624">
        <ele>1147</ele>
        <time>2018-06-08T12:44:09Z</time>
      </trkpt>
      <trkpt lat="44.21625" lon="6.21622">
        <ele>1147</ele>
        <time>2018-06-08T12:44:19Z</time>
      </trkpt>
      <trkpt lat="44.21627" lon="6.21621">
        <ele>1147</ele>
        <time>2018-06-08T12:44:22Z</time>
      </trkpt>
      <trkpt lat="44.21628" lon="6.21619">
        <ele>1147</ele>
        <time>2018-06-08T12:44:24Z</time>
      </trkpt>
      <trkpt lat="44.21628" lon="6.21617">
        <ele>1147</ele>
        <time>2018-06-08T12:44:26Z</time>
      </trkpt>
      <trkpt lat="44.21629" lon="6.21615">
        <ele>1147</ele>
        <time>2018-06-08T12:44:31Z</time>
      </trkpt>
      <trkpt lat="44.21628" lon="6.21613">
        <ele>1147</ele>
        <time>2018-06-08T12:44:33Z</time>
      </trkpt>
      <trkpt lat="44.21629" lon="6.21613">
        <ele>1147</ele>
        <time>2018-06-08T12:44:44Z</time>
      </trkpt>
      <trkpt lat="44.21631" lon="6.21613">
        <ele>1147</ele>
        <time>2018-06-08T12:44:47Z</time>
      </trkpt>
      <trkpt lat="44.21631" lon="6.2161">
        <ele>1147</ele>
        <time>2018-06-08T12:44:58Z</time>
      </trkpt>
      <trkpt lat="44.21631" lon="6.21609">
        <ele>1147</ele>
        <time>2018-06-08T12:45:01Z</time>
      </trkpt>
      <trkpt lat="44.2163" lon="6.2161">
        <ele>1147</ele>
        <time>2018-06-08T12:45:07Z</time>
      </trkpt>
      <trkpt lat="44.21629" lon="6.2161">
        <ele>1147</ele>
        <time>2018-06-08T12:45:10Z</time>
      </trkpt>
      <trkpt lat="44.21627" lon="6.2161">
        <ele>1147</ele>
        <time>2018-06-08T12:45:12Z</time>
      </trkpt>
      <trkpt lat="44.21626" lon="6.21609">
        <ele>1147</ele>
        <time>2018-06-08T12:45:14Z</time>
      </trkpt>
      <trkpt lat="44.21625" lon="6.21608">
        <ele>1147</ele>
        <time>2018-06-08T12:45:15Z</time>
      </trkpt>
      <trkpt lat="44.21624" lon="6.21608">
        <ele>1147</ele>
        <time>2018-06-08T12:45:17Z</time>
      </trkpt>
      <trkpt lat="44.21622" lon="6.21608">
        <ele>1146</ele>
        <time>2018-06-08T12:45:19Z</time>
      </trkpt>
      <trkpt lat="44.21621" lon="6.21609">
        <ele>1145</ele>
        <time>2018-06-08T12:45:21Z</time>
      </trkpt>
      <trkpt lat="44.21619" lon="6.2161">
        <ele>1145</ele>
        <time>2018-06-08T12:45:22Z</time>
      </trkpt>
      <trkpt lat="44.21618" lon="6.2161">
        <ele>1145</ele>
        <time>2018-06-08T12:45:23Z</time>
      </trkpt>
      <trkpt lat="44.21617" lon="6.2161">
        <ele>1145</ele>
        <time>2018-06-08T12:45:24Z</time>
      </trkpt>
      <trkpt lat="44.21615" lon="6.21611">
        <ele>1145</ele>
        <time>2018-06-08T12:45:26Z</time>
      </trkpt>
      <trkpt lat="44.21614" lon="6.21613">
        <ele>1144</ele>
        <time>2018-06-08T12:45:29Z</time>
      </trkpt>
      <trkpt lat="44.21613" lon="6.21614">
        <ele>1143</ele>
        <time>2018-06-08T12:45:31Z</time>
      </trkpt>
      <trkpt lat="44.21611" lon="6.21615">
        <ele>1142</ele>
        <time>2018-06-08T12:45:33Z</time>
      </trkpt>
      <trkpt lat="44.2161" lon="6.21616">
        <ele>1141</ele>
        <time>2018-06-08T12:45:35Z</time>
      </trkpt>
      <trkpt lat="44.21609" lon="6.21617">
        <ele>1140</ele>
        <time>2018-06-08T12:45:37Z</time>
      </trkpt>
      <trkpt lat="44.21608" lon="6.21617">
        <ele>1138</ele>
        <time>2018-06-08T12:45:39Z</time>
      </trkpt>
      <trkpt lat="44.21606" lon="6.21618">
        <ele>1137</ele>
        <time>2018-06-08T12:45:42Z</time>
      </trkpt>
      <trkpt lat="44.21605" lon="6.21617">
        <ele>1137</ele>
        <time>2018-06-08T12:45:50Z</time>
      </trkpt>
      <trkpt lat="44.21605" lon="6.21615">
        <ele>1137</ele>
        <time>2018-06-08T12:45:53Z</time>
      </trkpt>
      <trkpt lat="44.21604" lon="6.21613">
        <ele>1137</ele>
        <time>2018-06-08T12:45:55Z</time>
      </trkpt>
      <trkpt lat="44.21603" lon="6.21611">
        <ele>1137</ele>
        <time>2018-06-08T12:45:57Z</time>
      </trkpt>
      <trkpt lat="44.21603" lon="6.21609">
        <ele>1137</ele>
        <time>2018-06-08T12:45:58Z</time>
      </trkpt>
      <trkpt lat="44.21603" lon="6.21606">
        <ele>1137</ele>
        <time>2018-06-08T12:46:00Z</time>
      </trkpt>
      <trkpt lat="44.21604" lon="6.21605">
        <ele>1136</ele>
        <time>2018-06-08T12:46:01Z</time>
      </trkpt>
      <trkpt lat="44.21604" lon="6.21603">
        <ele>1136</ele>
        <time>2018-06-08T12:46:02Z</time>
      </trkpt>
      <trkpt lat="44.21605" lon="6.216">
        <ele>1135</ele>
        <time>2018-06-08T12:46:04Z</time>
      </trkpt>
      <trkpt lat="44.21605" lon="6.21599">
        <ele>1135</ele>
        <time>2018-06-08T12:46:05Z</time>
      </trkpt>
      <trkpt lat="44.21604" lon="6.21597">
        <ele>1135</ele>
        <time>2018-06-08T12:46:06Z</time>
      </trkpt>
      <trkpt lat="44.21603" lon="6.21595">
        <ele>1135</ele>
        <time>2018-06-08T12:46:08Z</time>
      </trkpt>
      <trkpt lat="44.21602" lon="6.21593">
        <ele>1135</ele>
        <time>2018-06-08T12:46:10Z</time>
      </trkpt>
      <trkpt lat="44.21601" lon="6.21591">
        <ele>1135</ele>
        <time>2018-06-08T12:46:12Z</time>
      </trkpt>
      <trkpt lat="44.21601" lon="6.21589">
        <ele>1134</ele>
        <time>2018-06-08T12:46:14Z</time>
      </trkpt>
      <trkpt lat="44.21601" lon="6.21586">
        <ele>1134</ele>
        <time>2018-06-08T12:46:16Z</time>
      </trkpt>
      <trkpt lat="44.21602" lon="6.21585">
        <ele>1134</ele>
        <time>2018-06-08T12:46:18Z</time>
      </trkpt>
      <trkpt lat="44.21603" lon="6.21583">
        <ele>1134</ele>
        <time>2018-06-08T12:46:22Z</time>
      </trkpt>
      <trkpt lat="44.21602" lon="6.21581">
        <ele>1134</ele>
        <time>2018-06-08T12:46:24Z</time>
      </trkpt>
      <trkpt lat="44.21601" lon="6.21579">
        <ele>1134</ele>
        <time>2018-06-08T12:46:26Z</time>
      </trkpt>
      <trkpt lat="44.216" lon="6.21577">
        <ele>1134</ele>
        <time>2018-06-08T12:46:28Z</time>
      </trkpt>
      <trkpt lat="44.21599" lon="6.21575">
        <ele>1134</ele>
        <time>2018-06-08T12:46:30Z</time>
      </trkpt>
      <trkpt lat="44.21597" lon="6.21577">
        <ele>1134</ele>
        <time>2018-06-08T12:46:33Z</time>
      </trkpt>
      <trkpt lat="44.21597" lon="6.21578">
        <ele>1134</ele>
        <time>2018-06-08T12:46:34Z</time>
      </trkpt>
      <trkpt lat="44.21596" lon="6.2158">
        <ele>1133</ele>
        <time>2018-06-08T12:46:36Z</time>
      </trkpt>
      <trkpt lat="44.21594" lon="6.21582">
        <ele>1132</ele>
        <time>2018-06-08T12:46:38Z</time>
      </trkpt>
      <trkpt lat="44.21593" lon="6.21584">
        <ele>1131</ele>
        <time>2018-06-08T12:46:40Z</time>
      </trkpt>
      <trkpt lat="44.21591" lon="6.21586">
        <ele>1130</ele>
        <time>2018-06-08T12:46:42Z</time>
      </trkpt>
      <trkpt lat="44.2159" lon="6.21588">
        <ele>1129</ele>
        <time>2018-06-08T12:46:44Z</time>
      </trkpt>
      <trkpt lat="44.21589" lon="6.21589">
        <ele>1129</ele>
        <time>2018-06-08T12:46:46Z</time>
      </trkpt>
      <trkpt lat="44.21587" lon="6.2159">
        <ele>1128</ele>
        <time>2018-06-08T12:46:48Z</time>
      </trkpt>
      <trkpt lat="44.21585" lon="6.2159">
        <ele>1128</ele>
        <time>2018-06-08T12:46:50Z</time>
      </trkpt>
      <trkpt lat="44.21584" lon="6.2159">
        <ele>1128</ele>
        <time>2018-06-08T12:46:51Z</time>
      </trkpt>
      <trkpt lat="44.21583" lon="6.2159">
        <ele>1127</ele>
        <time>2018-06-08T12:46:52Z</time>
      </trkpt>
      <trkpt lat="44.21581" lon="6.2159">
        <ele>1127</ele>
        <time>2018-06-08T12:46:53Z</time>
      </trkpt>
      <trkpt lat="44.2158" lon="6.2159">
        <ele>1127</ele>
        <time>2018-06-08T12:46:54Z</time>
      </trkpt>
      <trkpt lat="44.21578" lon="6.21588">
        <ele>1126</ele>
        <time>2018-06-08T12:46:56Z</time>
      </trkpt>
      <trkpt lat="44.21577" lon="6.21585">
        <ele>1126</ele>
        <time>2018-06-08T12:46:58Z</time>
      </trkpt>
      <trkpt lat="44.21577" lon="6.21584">
        <ele>1126</ele>
        <time>2018-06-08T12:46:59Z</time>
      </trkpt>
      <trkpt lat="44.21577" lon="6.21582">
        <ele>1125</ele>
        <time>2018-06-08T12:47:00Z</time>
      </trkpt>
      <trkpt lat="44.21576" lon="6.2158">
        <ele>1125</ele>
        <time>2018-06-08T12:47:01Z</time>
      </trkpt>
      <trkpt lat="44.21577" lon="6.21579">
        <ele>1125</ele>
        <time>2018-06-08T12:47:02Z</time>
      </trkpt>
      <trkpt lat="44.21577" lon="6.21577">
        <ele>1125</ele>
        <time>2018-06-08T12:47:03Z</time>
      </trkpt>
      <trkpt lat="44.21577" lon="6.21575">
        <ele>1124</ele>
        <time>2018-06-08T12:47:04Z</time>
      </trkpt>
      <trkpt lat="44.21578" lon="6.21573">
        <ele>1124</ele>
        <time>2018-06-08T12:47:05Z</time>
      </trkpt>
      <trkpt lat="44.21578" lon="6.21571">
        <ele>1123</ele>
        <time>2018-06-08T12:47:07Z</time>
      </trkpt>
      <trkpt lat="44.21579" lon="6.21569">
        <ele>1123</ele>
        <time>2018-06-08T12:47:08Z</time>
      </trkpt>
      <trkpt lat="44.21579" lon="6.21568">
        <ele>1123</ele>
        <time>2018-06-08T12:47:09Z</time>
      </trkpt>
      <trkpt lat="44.21579" lon="6.21566">
        <ele>1123</ele>
        <time>2018-06-08T12:47:10Z</time>
      </trkpt>
      <trkpt lat="44.21579" lon="6.21564">
        <ele>1123</ele>
        <time>2018-06-08T12:47:11Z</time>
      </trkpt>
      <trkpt lat="44.21579" lon="6.21562">
        <ele>1123</ele>
        <time>2018-06-08T12:47:12Z</time>
      </trkpt>
      <trkpt lat="44.21579" lon="6.21561">
        <ele>1123</ele>
        <time>2018-06-08T12:47:13Z</time>
      </trkpt>
      <trkpt lat="44.21579" lon="6.21559">
        <ele>1123</ele>
        <time>2018-06-08T12:47:14Z</time>
      </trkpt>
      <trkpt lat="44.21579" lon="6.21558">
        <ele>1123</ele>
        <time>2018-06-08T12:47:15Z</time>
      </trkpt>
      <trkpt lat="44.21579" lon="6.21556">
        <ele>1123</ele>
        <time>2018-06-08T12:47:16Z</time>
      </trkpt>
      <trkpt lat="44.21579" lon="6.21554">
        <ele>1123</ele>
        <time>2018-06-08T12:47:17Z</time>
      </trkpt>
      <trkpt lat="44.21579" lon="6.21553">
        <ele>1123</ele>
        <time>2018-06-08T12:47:18Z</time>
      </trkpt>
      <trkpt lat="44.21581" lon="6.2155">
        <ele>1122</ele>
        <time>2018-06-08T12:47:20Z</time>
      </trkpt>
      <trkpt lat="44.21581" lon="6.21549">
        <ele>1122</ele>
        <time>2018-06-08T12:47:21Z</time>
      </trkpt>
      <trkpt lat="44.21582" lon="6.21546">
        <ele>1121</ele>
        <time>2018-06-08T12:47:23Z</time>
      </trkpt>
      <trkpt lat="44.21582" lon="6.21544">
        <ele>1121</ele>
        <time>2018-06-08T12:47:24Z</time>
      </trkpt>
      <trkpt lat="44.21583" lon="6.21542">
        <ele>1121</ele>
        <time>2018-06-08T12:47:26Z</time>
      </trkpt>
      <trkpt lat="44.21584" lon="6.2154">
        <ele>1120</ele>
        <time>2018-06-08T12:47:27Z</time>
      </trkpt>
      <trkpt lat="44.21584" lon="6.21539">
        <ele>1120</ele>
        <time>2018-06-08T12:47:28Z</time>
      </trkpt>
      <trkpt lat="44.21584" lon="6.21537">
        <ele>1119</ele>
        <time>2018-06-08T12:47:29Z</time>
      </trkpt>
      <trkpt lat="44.21584" lon="6.21535">
        <ele>1119</ele>
        <time>2018-06-08T12:47:30Z</time>
      </trkpt>
      <trkpt lat="44.21585" lon="6.21533">
        <ele>1119</ele>
        <time>2018-06-08T12:47:31Z</time>
      </trkpt>
      <trkpt lat="44.21587" lon="6.21531">
        <ele>1119</ele>
        <time>2018-06-08T12:47:33Z</time>
      </trkpt>
      <trkpt lat="44.21588" lon="6.21529">
        <ele>1118</ele>
        <time>2018-06-08T12:47:35Z</time>
      </trkpt>
      <trkpt lat="44.21589" lon="6.21527">
        <ele>1118</ele>
        <time>2018-06-08T12:47:36Z</time>
      </trkpt>
      <trkpt lat="44.21589" lon="6.21525">
        <ele>1117</ele>
        <time>2018-06-08T12:47:38Z</time>
      </trkpt>
      <trkpt lat="44.21589" lon="6.21523">
        <ele>1117</ele>
        <time>2018-06-08T12:47:39Z</time>
      </trkpt>
      <trkpt lat="44.21589" lon="6.21521">
        <ele>1117</ele>
        <time>2018-06-08T12:47:41Z</time>
      </trkpt>
      <trkpt lat="44.21589" lon="6.21519">
        <ele>1116</ele>
        <time>2018-06-08T12:47:42Z</time>
      </trkpt>
      <trkpt lat="44.21589" lon="6.21517">
        <ele>1116</ele>
        <time>2018-06-08T12:47:43Z</time>
      </trkpt>
      <trkpt lat="44.21588" lon="6.21515">
        <ele>1116</ele>
        <time>2018-06-08T12:47:44Z</time>
      </trkpt>
      <trkpt lat="44.21588" lon="6.21513">
        <ele>1116</ele>
        <time>2018-06-08T12:47:45Z</time>
      </trkpt>
      <trkpt lat="44.21587" lon="6.21511">
        <ele>1116</ele>
        <time>2018-06-08T12:47:46Z</time>
      </trkpt>
      <trkpt lat="44.21587" lon="6.21509">
        <ele>1116</ele>
        <time>2018-06-08T12:47:47Z</time>
      </trkpt>
      <trkpt lat="44.21587" lon="6.21507">
        <ele>1116</ele>
        <time>2018-06-08T12:47:48Z</time>
      </trkpt>
      <trkpt lat="44.21587" lon="6.21506">
        <ele>1116</ele>
        <time>2018-06-08T12:47:49Z</time>
      </trkpt>
      <trkpt lat="44.21587" lon="6.21504">
        <ele>1116</ele>
        <time>2018-06-08T12:47:50Z</time>
      </trkpt>
      <trkpt lat="44.21587" lon="6.21502">
        <ele>1116</ele>
        <time>2018-06-08T12:47:51Z</time>
      </trkpt>
      <trkpt lat="44.21587" lon="6.215">
        <ele>1116</ele>
        <time>2018-06-08T12:47:52Z</time>
      </trkpt>
      <trkpt lat="44.21587" lon="6.21498">
        <ele>1116</ele>
        <time>2018-06-08T12:47:53Z</time>
      </trkpt>
      <trkpt lat="44.21587" lon="6.21497">
        <ele>1116</ele>
        <time>2018-06-08T12:47:54Z</time>
      </trkpt>
      <trkpt lat="44.21588" lon="6.21494">
        <ele>1116</ele>
        <time>2018-06-08T12:47:56Z</time>
      </trkpt>
      <trkpt lat="44.21588" lon="6.21491">
        <ele>1116</ele>
        <time>2018-06-08T12:47:58Z</time>
      </trkpt>
      <trkpt lat="44.21589" lon="6.21489">
        <ele>1116</ele>
        <time>2018-06-08T12:47:59Z</time>
      </trkpt>
      <trkpt lat="44.21589" lon="6.21488">
        <ele>1116</ele>
        <time>2018-06-08T12:48:00Z</time>
      </trkpt>
      <trkpt lat="44.21589" lon="6.21486">
        <ele>1116</ele>
        <time>2018-06-08T12:48:01Z</time>
      </trkpt>
      <trkpt lat="44.2159" lon="6.21485">
        <ele>1116</ele>
        <time>2018-06-08T12:48:02Z</time>
      </trkpt>
      <trkpt lat="44.2159" lon="6.21483">
        <ele>1116</ele>
        <time>2018-06-08T12:48:03Z</time>
      </trkpt>
      <trkpt lat="44.2159" lon="6.21482">
        <ele>1116</ele>
        <time>2018-06-08T12:48:04Z</time>
      </trkpt>
      <trkpt lat="44.21591" lon="6.2148">
        <ele>1116</ele>
        <time>2018-06-08T12:48:05Z</time>
      </trkpt>
      <trkpt lat="44.21591" lon="6.21478">
        <ele>1116</ele>
        <time>2018-06-08T12:48:06Z</time>
      </trkpt>
      <trkpt lat="44.21591" lon="6.21477">
        <ele>1116</ele>
        <time>2018-06-08T12:48:07Z</time>
      </trkpt>
      <trkpt lat="44.21592" lon="6.21475">
        <ele>1116</ele>
        <time>2018-06-08T12:48:08Z</time>
      </trkpt>
      <trkpt lat="44.21592" lon="6.21472">
        <ele>1116</ele>
        <time>2018-06-08T12:48:10Z</time>
      </trkpt>
      <trkpt lat="44.21593" lon="6.21471">
        <ele>1116</ele>
        <time>2018-06-08T12:48:11Z</time>
      </trkpt>
      <trkpt lat="44.21593" lon="6.21469">
        <ele>1116</ele>
        <time>2018-06-08T12:48:12Z</time>
      </trkpt>
      <trkpt lat="44.21594" lon="6.21467">
        <ele>1116</ele>
        <time>2018-06-08T12:48:13Z</time>
      </trkpt>
      <trkpt lat="44.21595" lon="6.21465">
        <ele>1116</ele>
        <time>2018-06-08T12:48:14Z</time>
      </trkpt>
      <trkpt lat="44.21595" lon="6.21464">
        <ele>1116</ele>
        <time>2018-06-08T12:48:15Z</time>
      </trkpt>
      <trkpt lat="44.21596" lon="6.21461">
        <ele>1116</ele>
        <time>2018-06-08T12:48:17Z</time>
      </trkpt>
      <trkpt lat="44.21597" lon="6.2146">
        <ele>1116</ele>
        <time>2018-06-08T12:48:18Z</time>
      </trkpt>
      <trkpt lat="44.21598" lon="6.21458">
        <ele>1116</ele>
        <time>2018-06-08T12:48:19Z</time>
      </trkpt>
      <trkpt lat="44.21598" lon="6.21457">
        <ele>1116</ele>
        <time>2018-06-08T12:48:20Z</time>
      </trkpt>
      <trkpt lat="44.216" lon="6.21454">
        <ele>1116</ele>
        <time>2018-06-08T12:48:22Z</time>
      </trkpt>
      <trkpt lat="44.21601" lon="6.21452">
        <ele>1116</ele>
        <time>2018-06-08T12:48:24Z</time>
      </trkpt>
      <trkpt lat="44.21603" lon="6.21449">
        <ele>1116</ele>
        <time>2018-06-08T12:48:26Z</time>
      </trkpt>
      <trkpt lat="44.21603" lon="6.21448">
        <ele>1116</ele>
        <time>2018-06-08T12:48:27Z</time>
      </trkpt>
      <trkpt lat="44.21605" lon="6.21445">
        <ele>1116</ele>
        <time>2018-06-08T12:48:29Z</time>
      </trkpt>
      <trkpt lat="44.21606" lon="6.21443">
        <ele>1116</ele>
        <time>2018-06-08T12:48:31Z</time>
      </trkpt>
      <trkpt lat="44.21608" lon="6.21441">
        <ele>1116</ele>
        <time>2018-06-08T12:48:33Z</time>
      </trkpt>
      <trkpt lat="44.2161" lon="6.21438">
        <ele>1116</ele>
        <time>2018-06-08T12:48:35Z</time>
      </trkpt>
      <trkpt lat="44.21611" lon="6.21435">
        <ele>1116</ele>
        <time>2018-06-08T12:48:37Z</time>
      </trkpt>
      <trkpt lat="44.21612" lon="6.21433">
        <ele>1116</ele>
        <time>2018-06-08T12:48:39Z</time>
      </trkpt>
      <trkpt lat="44.21612" lon="6.2143">
        <ele>1116</ele>
        <time>2018-06-08T12:48:41Z</time>
      </trkpt>
      <trkpt lat="44.21612" lon="6.21428">
        <ele>1116</ele>
        <time>2018-06-08T12:48:42Z</time>
      </trkpt>
      <trkpt lat="44.21612" lon="6.21427">
        <ele>1116</ele>
        <time>2018-06-08T12:48:43Z</time>
      </trkpt>
      <trkpt lat="44.21612" lon="6.21425">
        <ele>1116</ele>
        <time>2018-06-08T12:48:44Z</time>
      </trkpt>
      <trkpt lat="44.21611" lon="6.21424">
        <ele>1116</ele>
        <time>2018-06-08T12:48:45Z</time>
      </trkpt>
      <trkpt lat="44.21611" lon="6.21422">
        <ele>1116</ele>
        <time>2018-06-08T12:48:46Z</time>
      </trkpt>
      <trkpt lat="44.21611" lon="6.21421">
        <ele>1116</ele>
        <time>2018-06-08T12:48:47Z</time>
      </trkpt>
      <trkpt lat="44.2161" lon="6.21419">
        <ele>1116</ele>
        <time>2018-06-08T12:48:48Z</time>
      </trkpt>
      <trkpt lat="44.2161" lon="6.21418">
        <ele>1116</ele>
        <time>2018-06-08T12:48:49Z</time>
      </trkpt>
      <trkpt lat="44.2161" lon="6.21416">
        <ele>1117</ele>
        <time>2018-06-08T12:48:51Z</time>
      </trkpt>
      <trkpt lat="44.21609" lon="6.21413">
        <ele>1117</ele>
        <time>2018-06-08T12:48:53Z</time>
      </trkpt>
      <trkpt lat="44.21608" lon="6.2141">
        <ele>1117</ele>
        <time>2018-06-08T12:48:55Z</time>
      </trkpt>
      <trkpt lat="44.21608" lon="6.21407">
        <ele>1117</ele>
        <time>2018-06-08T12:48:57Z</time>
      </trkpt>
      <trkpt lat="44.21607" lon="6.21406">
        <ele>1117</ele>
        <time>2018-06-08T12:48:58Z</time>
      </trkpt>
      <trkpt lat="44.21606" lon="6.21404">
        <ele>1117</ele>
        <time>2018-06-08T12:48:59Z</time>
      </trkpt>
      <trkpt lat="44.21606" lon="6.21403">
        <ele>1117</ele>
        <time>2018-06-08T12:49:00Z</time>
      </trkpt>
      <trkpt lat="44.21604" lon="6.214">
        <ele>1117</ele>
        <time>2018-06-08T12:49:02Z</time>
      </trkpt>
      <trkpt lat="44.21603" lon="6.21399">
        <ele>1118</ele>
        <time>2018-06-08T12:49:03Z</time>
      </trkpt>
      <trkpt lat="44.21601" lon="6.21399">
        <ele>1118</ele>
        <time>2018-06-08T12:49:04Z</time>
      </trkpt>
      <trkpt lat="44.216" lon="6.21398">
        <ele>1118</ele>
        <time>2018-06-08T12:49:05Z</time>
      </trkpt>
      <trkpt lat="44.21598" lon="6.21398">
        <ele>1118</ele>
        <time>2018-06-08T12:49:07Z</time>
      </trkpt>
      <trkpt lat="44.21597" lon="6.21398">
        <ele>1118</ele>
        <time>2018-06-08T12:49:08Z</time>
      </trkpt>
      <trkpt lat="44.21595" lon="6.21398">
        <ele>1118</ele>
        <time>2018-06-08T12:49:09Z</time>
      </trkpt>
      <trkpt lat="44.21593" lon="6.21398">
        <ele>1118</ele>
        <time>2018-06-08T12:49:11Z</time>
      </trkpt>
      <trkpt lat="44.21591" lon="6.21398">
        <ele>1118</ele>
        <time>2018-06-08T12:49:13Z</time>
      </trkpt>
      <trkpt lat="44.21589" lon="6.21399">
        <ele>1118</ele>
        <time>2018-06-08T12:49:15Z</time>
      </trkpt>
      <trkpt lat="44.21587" lon="6.21399">
        <ele>1118</ele>
        <time>2018-06-08T12:49:17Z</time>
      </trkpt>
      <trkpt lat="44.21585" lon="6.214">
        <ele>1118</ele>
        <time>2018-06-08T12:49:19Z</time>
      </trkpt>
      <trkpt lat="44.21584" lon="6.214">
        <ele>1118</ele>
        <time>2018-06-08T12:49:20Z</time>
      </trkpt>
      <trkpt lat="44.21583" lon="6.214">
        <ele>1118</ele>
        <time>2018-06-08T12:49:21Z</time>
      </trkpt>
      <trkpt lat="44.21581" lon="6.214">
        <ele>1118</ele>
        <time>2018-06-08T12:49:22Z</time>
      </trkpt>
      <trkpt lat="44.2158" lon="6.21401">
        <ele>1118</ele>
        <time>2018-06-08T12:49:23Z</time>
      </trkpt>
      <trkpt lat="44.21579" lon="6.214">
        <ele>1118</ele>
        <time>2018-06-08T12:49:24Z</time>
      </trkpt>
      <trkpt lat="44.21577" lon="6.214">
        <ele>1118</ele>
        <time>2018-06-08T12:49:26Z</time>
      </trkpt>
      <trkpt lat="44.21576" lon="6.214">
        <ele>1118</ele>
        <time>2018-06-08T12:49:30Z</time>
      </trkpt>
      <trkpt lat="44.21574" lon="6.214">
        <ele>1118</ele>
        <time>2018-06-08T12:49:32Z</time>
      </trkpt>
      <trkpt lat="44.21572" lon="6.21399">
        <ele>1118</ele>
        <time>2018-06-08T12:49:34Z</time>
      </trkpt>
      <trkpt lat="44.21571" lon="6.21398">
        <ele>1118</ele>
        <time>2018-06-08T12:49:36Z</time>
      </trkpt>
      <trkpt lat="44.21571" lon="6.21396">
        <ele>1118</ele>
        <time>2018-06-08T12:49:38Z</time>
      </trkpt>
      <trkpt lat="44.21571" lon="6.21394">
        <ele>1118</ele>
        <time>2018-06-08T12:49:40Z</time>
      </trkpt>
      <trkpt lat="44.2157" lon="6.21394">
        <ele>1120</ele>
        <time>2018-06-08T12:50:18Z</time>
      </trkpt>
      <trkpt lat="44.2157" lon="6.21394">
        <ele>1122</ele>
        <time>2018-06-08T12:51:14Z</time>
      </trkpt>
    </trkseg>
  </trk>
</gpx>